<?xml version='1.0' encoding='UTF-8'?><gpx version="1.1" creator="JPX - https://github.com/jenetics/jpx" xmlns="http://www.topografix.com/GPX/1/1"><trk><trkseg><trkpt lat="44.370148672968206" lon="12.0237078093161"><ele>9.0</ele><time>2026-04-05T14:36:25Z</time></trkpt><trkpt lat="44.37021174203809" lon="12.023772616020501"><ele>9.0</ele><time>2026-04-05T14:37:14.999Z</time></trkpt><trkpt lat="44.37022347932216" lon="12.023867512954205"><ele>9.0</ele><time>2026-04-05T14:37:16.999Z</time></trkpt><trkpt lat="44.37016914896676" lon="12.024001438597644"><ele>9.0</ele><time>2026-04-05T14:37:18.999Z</time></trkpt><trkpt lat="44.37011195045129" lon="12.024114766851737"><ele>9.0</ele><time>2026-04-05T14:37:20.999Z</time></trkpt><trkpt lat="44.370064673479604" lon="12.02422744483823"><ele>9.0</ele><time>2026-04-05T14:37:22.999Z</time></trkpt><trkpt lat="44.37002660966717" lon="12.024299065434894"><ele>9.0</ele><time>2026-04-05T14:37:23.999Z</time></trkpt><trkpt lat="44.36998079943972" lon="12.024373275862143"><ele>9.0</ele><time>2026-04-05T14:37:24.999Z</time></trkpt><trkpt lat="44.36993459269185" lon="12.024453334539595"><ele>9.0</ele><time>2026-04-05T14:37:25.999Z</time></trkpt><trkpt lat="44.36988134358194" lon="12.02453416974249"><ele>9.0</ele><time>2026-04-05T14:37:26.999Z</time></trkpt><trkpt lat="44.36982918137254" lon="12.024615885775853"><ele>9.0</ele><time>2026-04-05T14:37:27.999Z</time></trkpt><trkpt lat="44.36977211937902" lon="12.024704487663392"><ele>9.0</ele><time>2026-04-05T14:37:28.999Z</time></trkpt><trkpt lat="44.369711248096955" lon="12.024807574284806"><ele>9.0</ele><time>2026-04-05T14:37:29.999Z</time></trkpt><trkpt lat="44.3696469583279" lon="12.0249184192041"><ele>9.0</ele><time>2026-04-05T14:37:30.999Z</time></trkpt><trkpt lat="44.36957604139946" lon="12.025036979725378"><ele>9.0</ele><time>2026-04-05T14:37:31.999Z</time></trkpt><trkpt lat="44.3695023703893" lon="12.025158182861183"><ele>9.0</ele><time>2026-04-05T14:37:32.999Z</time></trkpt><trkpt lat="44.369427875330196" lon="12.025289016263917"><ele>9.2</ele><time>2026-04-05T14:37:33.999Z</time></trkpt><trkpt lat="44.36934654308502" lon="12.025420874673344"><ele>9.4</ele><time>2026-04-05T14:37:34.999Z</time></trkpt><trkpt lat="44.36927072171581" lon="12.025531603601019"><ele>9.6</ele><time>2026-04-05T14:37:35.999Z</time></trkpt><trkpt lat="44.36921629331028" lon="12.025619405494329"><ele>9.8</ele><time>2026-04-05T14:37:36.999Z</time></trkpt><trkpt lat="44.369163983992955" lon="12.025703151723956"><ele>10.0</ele><time>2026-04-05T14:37:38.999Z</time></trkpt><trkpt lat="44.369286528149345" lon="12.025822706224789"><ele>10.0</ele><time>2026-04-05T14:37:39.999Z</time></trkpt><trkpt lat="44.36934457211748" lon="12.025912432466242"><ele>10.0</ele><time>2026-04-05T14:37:40.999Z</time></trkpt><trkpt lat="44.369418470910915" lon="12.026002920122039"><ele>10.0</ele><time>2026-04-05T14:37:41.999Z</time></trkpt><trkpt lat="44.36949632284723" lon="12.026099828981549"><ele>10.0</ele><time>2026-04-05T14:37:42.999Z</time></trkpt><trkpt lat="44.369567147029215" lon="12.02619210452071"><ele>10.0</ele><time>2026-04-05T14:37:43.999Z</time></trkpt><trkpt lat="44.3696195391797" lon="12.026264173303199"><ele>10.0</ele><time>2026-04-05T14:37:44.998Z</time></trkpt><trkpt lat="44.36967111580911" lon="12.02632243993967"><ele>10.0</ele><time>2026-04-05T14:37:45.998Z</time></trkpt><trkpt lat="44.36975892183829" lon="12.026435632037108"><ele>10.0</ele><time>2026-04-05T14:37:47.998Z</time></trkpt><trkpt lat="44.369844175253064" lon="12.026540708836679"><ele>10.0</ele><time>2026-04-05T14:37:49.998Z</time></trkpt><trkpt lat="44.36993200041716" lon="12.02665303452179"><ele>10.0</ele><time>2026-04-05T14:37:51.998Z</time></trkpt><trkpt lat="44.37000286391473" lon="12.026749940271378"><ele>10.166666666666668</ele><time>2026-04-05T14:37:53.998Z</time></trkpt><trkpt lat="44.370045904958076" lon="12.026821912499397"><ele>10.333333333333334</ele><time>2026-04-05T14:37:55.998Z</time></trkpt><trkpt lat="44.370118813227464" lon="12.026915528029035"><ele>10.5</ele><time>2026-04-05T14:39:54.999Z</time></trkpt><trkpt lat="44.370155112080155" lon="12.026995700268113"><ele>10.666666666666666</ele><time>2026-04-05T14:39:55.999Z</time></trkpt><trkpt lat="44.370082067449424" lon="12.027118000323098"><ele>10.833333333333332</ele><time>2026-04-05T14:39:57.999Z</time></trkpt><trkpt lat="44.37001219652283" lon="12.027220952195538"><ele>11.0</ele><time>2026-04-05T14:39:58.999Z</time></trkpt><trkpt lat="44.36992914543833" lon="12.027298988514229"><ele>11.0</ele><time>2026-04-05T14:39:59.999Z</time></trkpt><trkpt lat="44.36984572089317" lon="12.027396422756079"><ele>11.0</ele><time>2026-04-05T14:40:00.999Z</time></trkpt><trkpt lat="44.36976374797468" lon="12.027483224290464"><ele>11.0</ele><time>2026-04-05T14:40:01.999Z</time></trkpt><trkpt lat="44.36968898827227" lon="12.027562508074807"><ele>11.0</ele><time>2026-04-05T14:40:02.999Z</time></trkpt><trkpt lat="44.36963444688636" lon="12.027617317949087"><ele>11.0</ele><time>2026-04-05T14:40:03.999Z</time></trkpt><trkpt lat="44.36957138933137" lon="12.027696424590594"><ele>10.8</ele><time>2026-04-05T14:40:07.999Z</time></trkpt><trkpt lat="44.36961713705358" lon="12.027843215753618"><ele>10.600000000000001</ele><time>2026-04-05T14:40:09.999Z</time></trkpt><trkpt lat="44.36966561011307" lon="12.027942878762012"><ele>10.4</ele><time>2026-04-05T14:40:10.999Z</time></trkpt><trkpt lat="44.369720519793525" lon="12.028039054477164"><ele>10.2</ele><time>2026-04-05T14:40:11.999Z</time></trkpt><trkpt lat="44.369789789450614" lon="12.028135020409238"><ele>10.0</ele><time>2026-04-05T14:40:12.999Z</time></trkpt><trkpt lat="44.369848291096574" lon="12.028249906430295"><ele>10.0</ele><time>2026-04-05T14:40:13.999Z</time></trkpt><trkpt lat="44.36990057325558" lon="12.028364423662302"><ele>10.0</ele><time>2026-04-05T14:40:14.999Z</time></trkpt><trkpt lat="44.36995088825084" lon="12.02846696558658"><ele>10.0</ele><time>2026-04-05T14:40:15.999Z</time></trkpt><trkpt lat="44.36997363729975" lon="12.028564478867144"><ele>10.0</ele><time>2026-04-05T14:40:16.999Z</time></trkpt><trkpt lat="44.369999975536466" lon="12.028648999708453"><ele>10.0</ele><time>2026-04-05T14:40:17.999Z</time></trkpt><trkpt lat="44.37014421310737" lon="12.028756412198353"><ele>10.0</ele><time>2026-04-05T14:40:18.999Z</time></trkpt><trkpt lat="44.370204500157016" lon="12.028859992671872"><ele>10.0</ele><time>2026-04-05T14:40:19.999Z</time></trkpt><trkpt lat="44.370261415689676" lon="12.028970887296012"><ele>10.0</ele><time>2026-04-05T14:40:20.999Z</time></trkpt><trkpt lat="44.37032512505483" lon="12.029076656084156"><ele>10.0</ele><time>2026-04-05T14:40:21.999Z</time></trkpt><trkpt lat="44.370389073431014" lon="12.029187537203091"><ele>10.0</ele><time>2026-04-05T14:40:23Z</time></trkpt><trkpt lat="44.370455625282" lon="12.029298439571242"><ele>10.0</ele><time>2026-04-05T14:40:24Z</time></trkpt><trkpt lat="44.37052134778037" lon="12.029411829217938"><ele>10.0</ele><time>2026-04-05T14:40:25Z</time></trkpt><trkpt lat="44.37058887196745" lon="12.029525706278474"><ele>10.0</ele><time>2026-04-05T14:40:26Z</time></trkpt><trkpt lat="44.37065173733825" lon="12.029650341410056"><ele>10.0</ele><time>2026-04-05T14:40:27Z</time></trkpt><trkpt lat="44.370724665322186" lon="12.029763966594043"><ele>10.0</ele><time>2026-04-05T14:40:28Z</time></trkpt><trkpt lat="44.37078988672587" lon="12.02988970941167"><ele>10.0</ele><time>2026-04-05T14:40:29Z</time></trkpt><trkpt lat="44.37086207456652" lon="12.030012570175108"><ele>10.0</ele><time>2026-04-05T14:40:30Z</time></trkpt><trkpt lat="44.37094045314595" lon="12.03013760809704"><ele>10.0</ele><time>2026-04-05T14:40:31Z</time></trkpt><trkpt lat="44.371022390514" lon="12.030261124102884"><ele>10.0</ele><time>2026-04-05T14:40:32Z</time></trkpt><trkpt lat="44.37109854596894" lon="12.030403067538286"><ele>10.0</ele><time>2026-04-05T14:40:33Z</time></trkpt><trkpt lat="44.371183349226584" lon="12.030544804041044"><ele>10.0</ele><time>2026-04-05T14:40:34Z</time></trkpt><trkpt lat="44.371274298758124" lon="12.030687713942347"><ele>10.0</ele><time>2026-04-05T14:40:35Z</time></trkpt><trkpt lat="44.37136847688977" lon="12.030831659314762"><ele>10.0</ele><time>2026-04-05T14:40:36Z</time></trkpt><trkpt lat="44.37146537172003" lon="12.030976003825637"><ele>10.4</ele><time>2026-04-05T14:40:37Z</time></trkpt><trkpt lat="44.37155680764771" lon="12.031095849401591"><ele>10.8</ele><time>2026-04-05T14:40:38Z</time></trkpt><trkpt lat="44.37163255708164" lon="12.031196394608257"><ele>11.2</ele><time>2026-04-05T14:40:39Z</time></trkpt><trkpt lat="44.37169457778216" lon="12.031278735979656"><ele>11.6</ele><time>2026-04-05T14:40:40Z</time></trkpt><trkpt lat="44.37170467100834" lon="12.031370569132775"><ele>12.0</ele><time>2026-04-05T14:40:42Z</time></trkpt><trkpt lat="44.37163041889965" lon="12.031403954655104"><ele>12.0</ele><time>2026-04-05T14:40:43Z</time></trkpt><trkpt lat="44.37155947112219" lon="12.031483698471867"><ele>12.0</ele><time>2026-04-05T14:40:44Z</time></trkpt><trkpt lat="44.37148675882965" lon="12.031569951143572"><ele>12.0</ele><time>2026-04-05T14:40:45Z</time></trkpt><trkpt lat="44.37140298682051" lon="12.031669765963628"><ele>12.0</ele><time>2026-04-05T14:40:46Z</time></trkpt><trkpt lat="44.371332801126975" lon="12.031807863846051"><ele>12.0</ele><time>2026-04-05T14:40:47Z</time></trkpt><trkpt lat="44.37126391935098" lon="12.031903006951877"><ele>12.2</ele><time>2026-04-05T14:40:48Z</time></trkpt><trkpt lat="44.37119210151899" lon="12.031987151710618"><ele>12.399999999999999</ele><time>2026-04-05T14:40:49Z</time></trkpt><trkpt lat="44.371130266865926" lon="12.032094210417293"><ele>12.600000000000001</ele><time>2026-04-05T14:40:50Z</time></trkpt><trkpt lat="44.371058187606444" lon="12.03220437490789"><ele>12.8</ele><time>2026-04-05T14:40:51Z</time></trkpt><trkpt lat="44.37099049146502" lon="12.032329280540916"><ele>13.0</ele><time>2026-04-05T14:40:52Z</time></trkpt><trkpt lat="44.37091644638914" lon="12.03246124210842"><ele>12.75</ele><time>2026-04-05T14:40:53Z</time></trkpt><trkpt lat="44.370843931509924" lon="12.032591200044116"><ele>12.5</ele><time>2026-04-05T14:40:54Z</time></trkpt><trkpt lat="44.37077001864926" lon="12.032723663378237"><ele>12.25</ele><time>2026-04-05T14:40:55Z</time></trkpt><trkpt lat="44.370694536708264" lon="12.032858938747392"><ele>12.0</ele><time>2026-04-05T14:40:56Z</time></trkpt><trkpt lat="44.370619568178114" lon="12.032993294004491"><ele>12.0</ele><time>2026-04-05T14:40:57Z</time></trkpt><trkpt lat="44.37054430302106" lon="12.033128180863974"><ele>12.0</ele><time>2026-04-05T14:40:58Z</time></trkpt><trkpt lat="44.37047655205215" lon="12.033249601129684"><ele>12.0</ele><time>2026-04-05T14:40:59Z</time></trkpt><trkpt lat="44.37041566143854" lon="12.03335953105498"><ele>12.0</ele><time>2026-04-05T14:41:00Z</time></trkpt><trkpt lat="44.37035882881988" lon="12.033463772763051"><ele>12.0</ele><time>2026-04-05T14:41:01Z</time></trkpt><trkpt lat="44.37030535435753" lon="12.033561854980896"><ele>11.833333333333334</ele><time>2026-04-05T14:41:02Z</time></trkpt><trkpt lat="44.37024952679986" lon="12.03363810681461"><ele>11.666666666666666</ele><time>2026-04-05T14:41:03Z</time></trkpt><trkpt lat="44.37021348518895" lon="12.033721803423004"><ele>11.5</ele><time>2026-04-05T14:41:04Z</time></trkpt><trkpt lat="44.37016870986945" lon="12.033793678148927"><ele>11.333333333333332</ele><time>2026-04-05T14:41:05Z</time></trkpt><trkpt lat="44.37011981434638" lon="12.033893915267717"><ele>11.166666666666666</ele><time>2026-04-05T14:41:07Z</time></trkpt><trkpt lat="44.37007615098737" lon="12.034021399004066"><ele>11.0</ele><time>2026-04-05T14:41:12Z</time></trkpt><trkpt lat="44.37001917858681" lon="12.034092739881864"><ele>11.0</ele><time>2026-04-05T14:41:13Z</time></trkpt><trkpt lat="44.36996987250198" lon="12.034188831202668"><ele>11.0</ele><time>2026-04-05T14:41:14Z</time></trkpt><trkpt lat="44.36991825049919" lon="12.034289435960037"><ele>11.0</ele><time>2026-04-05T14:41:15Z</time></trkpt><trkpt lat="44.36985999982012" lon="12.034402959160852"><ele>11.0</ele><time>2026-04-05T14:41:16Z</time></trkpt><trkpt lat="44.369803431156036" lon="12.034513204330047"><ele>11.0</ele><time>2026-04-05T14:41:17Z</time></trkpt><trkpt lat="44.3697480031583" lon="12.034621226483697"><ele>11.0</ele><time>2026-04-05T14:41:18Z</time></trkpt><trkpt lat="44.36968202762685" lon="12.034749804446568"><ele>11.0</ele><time>2026-04-05T14:41:19Z</time></trkpt><trkpt lat="44.36962520331624" lon="12.034888584527193"><ele>11.0</ele><time>2026-04-05T14:41:20Z</time></trkpt><trkpt lat="44.36956389939287" lon="12.035001810244015"><ele>11.0</ele><time>2026-04-05T14:41:21Z</time></trkpt><trkpt lat="44.36951883547712" lon="12.035085902767033"><ele>11.0</ele><time>2026-04-05T14:41:22Z</time></trkpt><trkpt lat="44.36945155814196" lon="12.035216901074863"><ele>11.0</ele><time>2026-04-05T14:41:24Z</time></trkpt><trkpt lat="44.36941153309146" lon="12.035296286469887"><ele>11.0</ele><time>2026-04-05T14:41:28Z</time></trkpt><trkpt lat="44.36954105494834" lon="12.035466006009035"><ele>11.0</ele><time>2026-04-05T14:41:30Z</time></trkpt><trkpt lat="44.36962390633687" lon="12.035536140698635"><ele>11.0</ele><time>2026-04-05T14:41:31Z</time></trkpt><trkpt lat="44.36970995566723" lon="12.035618220144004"><ele>11.0</ele><time>2026-04-05T14:41:32Z</time></trkpt><trkpt lat="44.369795357228455" lon="12.03572872924893"><ele>10.600000000000001</ele><time>2026-04-05T14:41:33Z</time></trkpt><trkpt lat="44.36988312958619" lon="12.035816480702428"><ele>10.200000000000001</ele><time>2026-04-05T14:41:34Z</time></trkpt><trkpt lat="44.36997683665746" lon="12.035906075757447"><ele>9.8</ele><time>2026-04-05T14:41:35Z</time></trkpt><trkpt lat="44.37006801791762" lon="12.035994163549073"><ele>9.4</ele><time>2026-04-05T14:41:36Z</time></trkpt><trkpt lat="44.37014614729594" lon="12.036069642264616"><ele>9.0</ele><time>2026-04-05T14:41:37Z</time></trkpt><trkpt lat="44.37022540580265" lon="12.036146211801688"><ele>9.0</ele><time>2026-04-05T14:41:38Z</time></trkpt><trkpt lat="44.37030378419948" lon="12.036221931087297"><ele>9.0</ele><time>2026-04-05T14:41:39Z</time></trkpt><trkpt lat="44.37038252491559" lon="12.036299255880127"><ele>9.0</ele><time>2026-04-05T14:41:40Z</time></trkpt><trkpt lat="44.370466772261054" lon="12.036380472833445"><ele>9.0</ele><time>2026-04-05T14:41:41Z</time></trkpt><trkpt lat="44.37056559091504" lon="12.036447605093961"><ele>9.0</ele><time>2026-04-05T14:41:42Z</time></trkpt><trkpt lat="44.37064366228375" lon="12.036550696495"><ele>9.0</ele><time>2026-04-05T14:41:43Z</time></trkpt><trkpt lat="44.370713688925896" lon="12.036608317896201"><ele>9.0</ele><time>2026-04-05T14:41:44Z</time></trkpt><trkpt lat="44.370780831485945" lon="12.036688788346746"><ele>9.0</ele><time>2026-04-05T14:41:46Z</time></trkpt><trkpt lat="44.37077517402085" lon="12.036830005986566"><ele>9.0</ele><time>2026-04-05T14:41:54Z</time></trkpt><trkpt lat="44.37072907451247" lon="12.03692557056184"><ele>9.0</ele><time>2026-04-05T14:41:55Z</time></trkpt><trkpt lat="44.37067985927366" lon="12.037033973540167"><ele>9.0</ele><time>2026-04-05T14:41:56Z</time></trkpt><trkpt lat="44.370630745820336" lon="12.037163441923505"><ele>9.0</ele><time>2026-04-05T14:41:56.998Z</time></trkpt><trkpt lat="44.37057152299158" lon="12.037308637690906"><ele>9.0</ele><time>2026-04-05T14:41:57.998Z</time></trkpt><trkpt lat="44.370509961986194" lon="12.037463126410568"><ele>9.0</ele><time>2026-04-05T14:41:58.998Z</time></trkpt><trkpt lat="44.37044862615968" lon="12.037618546348591"><ele>9.0</ele><time>2026-04-05T14:41:59.998Z</time></trkpt><trkpt lat="44.370391704650544" lon="12.037776091639786"><ele>9.25</ele><time>2026-04-05T14:42:00.998Z</time></trkpt><trkpt lat="44.370327374673835" lon="12.037946053860693"><ele>9.5</ele><time>2026-04-05T14:42:01.998Z</time></trkpt><trkpt lat="44.370255409187365" lon="12.038121847558697"><ele>9.75</ele><time>2026-04-05T14:42:02.998Z</time></trkpt><trkpt lat="44.370183819960126" lon="12.038306108028532"><ele>10.0</ele><time>2026-04-05T14:42:03.998Z</time></trkpt><trkpt lat="44.3701091661973" lon="12.038504614481791"><ele>9.666666666666668</ele><time>2026-04-05T14:42:04.999Z</time></trkpt><trkpt lat="44.370027677740204" lon="12.038722176539636"><ele>9.333333333333334</ele><time>2026-04-05T14:42:05.999Z</time></trkpt><trkpt lat="44.36993809344606" lon="12.03894692562194"><ele>9.0</ele><time>2026-04-05T14:42:06.999Z</time></trkpt><trkpt lat="44.369850342706506" lon="12.039171006177947"><ele>9.0</ele><time>2026-04-05T14:42:07.999Z</time></trkpt><trkpt lat="44.369759029225136" lon="12.039401968365492"><ele>9.0</ele><time>2026-04-05T14:42:08.999Z</time></trkpt><trkpt lat="44.369659170492405" lon="12.039646117466361"><ele>9.0</ele><time>2026-04-05T14:42:09.999Z</time></trkpt><trkpt lat="44.36955663002645" lon="12.03990224440022"><ele>8.666666666666666</ele><time>2026-04-05T14:42:10.999Z</time></trkpt><trkpt lat="44.369455316949804" lon="12.040165024707356"><ele>8.333333333333332</ele><time>2026-04-05T14:42:11.999Z</time></trkpt><trkpt lat="44.36934962491678" lon="12.040438145711702"><ele>8.0</ele><time>2026-04-05T14:42:12.999Z</time></trkpt><trkpt lat="44.3692374155516" lon="12.040722425081524"><ele>8.0</ele><time>2026-04-05T14:42:13.999Z</time></trkpt><trkpt lat="44.3691257536711" lon="12.0410093510316"><ele>8.0</ele><time>2026-04-05T14:42:14.999Z</time></trkpt><trkpt lat="44.369033174126315" lon="12.041260830719994"><ele>8.0</ele><time>2026-04-05T14:42:15.999Z</time></trkpt><trkpt lat="44.368913570534566" lon="12.04152467812841"><ele>7.5</ele><time>2026-04-05T14:42:16.999Z</time></trkpt><trkpt lat="44.3687591057771" lon="12.041948279403929"><ele>7.0</ele><time>2026-04-05T14:42:17.999Z</time></trkpt><trkpt lat="44.368634036688235" lon="12.042250503865759"><ele>7.0</ele><time>2026-04-05T14:42:18.999Z</time></trkpt><trkpt lat="44.36851103788896" lon="12.042556779703236"><ele>7.0</ele><time>2026-04-05T14:42:19.999Z</time></trkpt><trkpt lat="44.36838783844006" lon="12.04286422595561"><ele>7.0</ele><time>2026-04-05T14:42:20.999Z</time></trkpt><trkpt lat="44.368258588151875" lon="12.043181739456562"><ele>7.0</ele><time>2026-04-05T14:42:21.999Z</time></trkpt><trkpt lat="44.36813447525395" lon="12.043504914804972"><ele>8.0</ele><time>2026-04-05T14:42:22.999Z</time></trkpt><trkpt lat="44.36800800950669" lon="12.043832714940304"><ele>9.0</ele><time>2026-04-05T14:42:23.999Z</time></trkpt><trkpt lat="44.36787641735804" lon="12.044154637696018"><ele>9.0</ele><time>2026-04-05T14:42:24.999Z</time></trkpt><trkpt lat="44.36774552054632" lon="12.044478889119738"><ele>9.0</ele><time>2026-04-05T14:42:25.999Z</time></trkpt><trkpt lat="44.36761021484722" lon="12.04480058159156"><ele>8.0</ele><time>2026-04-05T14:42:26.999Z</time></trkpt><trkpt lat="44.367479640102886" lon="12.045129214977884"><ele>7.0</ele><time>2026-04-05T14:42:27.999Z</time></trkpt><trkpt lat="44.36735083320531" lon="12.045462910110814"><ele>7.0</ele><time>2026-04-05T14:42:28.999Z</time></trkpt><trkpt lat="44.367224748419396" lon="12.045799318138563"><ele>7.0</ele><time>2026-04-05T14:42:29.999Z</time></trkpt><trkpt lat="44.367096183018646" lon="12.046131741382618"><ele>7.0</ele><time>2026-04-05T14:42:31Z</time></trkpt><trkpt lat="44.36696750130444" lon="12.046466630657182"><ele>7.0</ele><time>2026-04-05T14:42:32Z</time></trkpt><trkpt lat="44.36683952020547" lon="12.046796449911396"><ele>7.5</ele><time>2026-04-05T14:42:33Z</time></trkpt><trkpt lat="44.36671643445595" lon="12.047125431303353"><ele>8.0</ele><time>2026-04-05T14:42:34Z</time></trkpt><trkpt lat="44.36659342426009" lon="12.047450230701854"><ele>8.5</ele><time>2026-04-05T14:42:35Z</time></trkpt><trkpt lat="44.36647075836756" lon="12.047772694464646"><ele>9.0</ele><time>2026-04-05T14:42:36Z</time></trkpt><trkpt lat="44.36634924595626" lon="12.048099556666948"><ele>7.0</ele><time>2026-04-05T14:42:37Z</time></trkpt><trkpt lat="44.36622093830538" lon="12.048428580241998"><ele>5.0</ele><time>2026-04-05T14:42:38Z</time></trkpt><trkpt lat="44.36608888376738" lon="12.048757625124537"><ele>5.0</ele><time>2026-04-05T14:42:39Z</time></trkpt><trkpt lat="44.36595272433369" lon="12.049085815081243"><ele>5.0</ele><time>2026-04-05T14:42:40Z</time></trkpt><trkpt lat="44.36581210016997" lon="12.049420527748438"><ele>6.0</ele><time>2026-04-05T14:42:41Z</time></trkpt><trkpt lat="44.36567372240344" lon="12.049746992572361"><ele>7.0</ele><time>2026-04-05T14:42:42Z</time></trkpt><trkpt lat="44.36553582531661" lon="12.050075698960805"><ele>7.5</ele><time>2026-04-05T14:42:43Z</time></trkpt><trkpt lat="44.36540420950324" lon="12.050410393061737"><ele>8.0</ele><time>2026-04-05T14:42:44Z</time></trkpt><trkpt lat="44.36526948667646" lon="12.050746572711644"><ele>7.0</ele><time>2026-04-05T14:42:45Z</time></trkpt><trkpt lat="44.365140166427665" lon="12.051078788321808"><ele>6.0</ele><time>2026-04-05T14:42:46Z</time></trkpt><trkpt lat="44.36500734447692" lon="12.051412538471595"><ele>6.0</ele><time>2026-04-05T14:42:47Z</time></trkpt><trkpt lat="44.364863947774715" lon="12.05174970790013"><ele>6.0</ele><time>2026-04-05T14:42:48Z</time></trkpt><trkpt lat="44.36472625004077" lon="12.052090065001906"><ele>6.5</ele><time>2026-04-05T14:42:49Z</time></trkpt><trkpt lat="44.36459568859094" lon="12.052429507937529"><ele>7.0</ele><time>2026-04-05T14:42:50Z</time></trkpt><trkpt lat="44.364462447732535" lon="12.05277418603732"><ele>7.0</ele><time>2026-04-05T14:42:51Z</time></trkpt><trkpt lat="44.36433506248297" lon="12.05311794628142"><ele>7.0</ele><time>2026-04-05T14:42:52Z</time></trkpt><trkpt lat="44.364209569686565" lon="12.053469852468178"><ele>7.0</ele><time>2026-04-05T14:42:53Z</time></trkpt><trkpt lat="44.3640832242566" lon="12.053821941916086"><ele>7.0</ele><time>2026-04-05T14:42:54Z</time></trkpt><trkpt lat="44.36395315362385" lon="12.054173695281019"><ele>7.0</ele><time>2026-04-05T14:42:55Z</time></trkpt><trkpt lat="44.36382052216004" lon="12.054524193970597"><ele>7.0</ele><time>2026-04-05T14:42:56Z</time></trkpt><trkpt lat="44.363685188901464" lon="12.054872020065497"><ele>7.0</ele><time>2026-04-05T14:42:57Z</time></trkpt><trkpt lat="44.36355379282708" lon="12.055222931092915"><ele>7.0</ele><time>2026-04-05T14:42:58Z</time></trkpt><trkpt lat="44.36341634862391" lon="12.055572083279435"><ele>6.5</ele><time>2026-04-05T14:42:59Z</time></trkpt><trkpt lat="44.36325889951919" lon="12.055920835467571"><ele>6.0</ele><time>2026-04-05T14:43:00Z</time></trkpt><trkpt lat="44.36310242399535" lon="12.056265257766437"><ele>6.0</ele><time>2026-04-05T14:43:01Z</time></trkpt><trkpt lat="44.3629524638076" lon="12.05661234613366"><ele>6.0</ele><time>2026-04-05T14:43:02Z</time></trkpt><trkpt lat="44.362806884229485" lon="12.056966272960565"><ele>6.0</ele><time>2026-04-05T14:43:03Z</time></trkpt><trkpt lat="44.36265887684511" lon="12.057319208772745"><ele>6.0</ele><time>2026-04-05T14:43:04Z</time></trkpt><trkpt lat="44.362508091551895" lon="12.057676603431121"><ele>6.0</ele><time>2026-04-05T14:43:05Z</time></trkpt><trkpt lat="44.362356191926644" lon="12.058029511454142"><ele>6.0</ele><time>2026-04-05T14:43:06Z</time></trkpt><trkpt lat="44.36220629249131" lon="12.058388031583453"><ele>7.0</ele><time>2026-04-05T14:43:07Z</time></trkpt><trkpt lat="44.362065401853975" lon="12.058753052870578"><ele>8.0</ele><time>2026-04-05T14:43:08Z</time></trkpt><trkpt lat="44.361934745476574" lon="12.059127129143294"><ele>8.0</ele><time>2026-04-05T14:43:09Z</time></trkpt><trkpt lat="44.36181841686667" lon="12.059512192601195"><ele>8.0</ele><time>2026-04-05T14:43:10Z</time></trkpt><trkpt lat="44.36171556143187" lon="12.059906204058626"><ele>7.5</ele><time>2026-04-05T14:43:11Z</time></trkpt><trkpt lat="44.36161277210347" lon="12.06030239147012"><ele>7.0</ele><time>2026-04-05T14:43:12Z</time></trkpt><trkpt lat="44.36151343091497" lon="12.060692165874155"><ele>6.0</ele><time>2026-04-05T14:43:13Z</time></trkpt><trkpt lat="44.36141060602917" lon="12.061076169864961"><ele>5.0</ele><time>2026-04-05T14:43:14Z</time></trkpt><trkpt lat="44.36130673296595" lon="12.061458802718214"><ele>3.0</ele><time>2026-04-05T14:43:15Z</time></trkpt><trkpt lat="44.36120439826804" lon="12.061837416921941"><ele>1.0</ele><time>2026-04-05T14:43:16Z</time></trkpt><trkpt lat="44.36110524619844" lon="12.062215049376979"><ele>2.5</ele><time>2026-04-05T14:43:17Z</time></trkpt><trkpt lat="44.361003325841374" lon="12.062593069350786"><ele>4.0</ele><time>2026-04-05T14:43:18Z</time></trkpt><trkpt lat="44.36090565731625" lon="12.062956276395528"><ele>5.5</ele><time>2026-04-05T14:43:19Z</time></trkpt><trkpt lat="44.36080724634083" lon="12.063326263939521"><ele>7.0</ele><time>2026-04-05T14:43:20Z</time></trkpt><trkpt lat="44.360709418940424" lon="12.063693861110432"><ele>7.0</ele><time>2026-04-05T14:43:21Z</time></trkpt><trkpt lat="44.36060855331811" lon="12.064062096267335"><ele>7.0</ele><time>2026-04-05T14:43:22Z</time></trkpt><trkpt lat="44.36051409596057" lon="12.064430080108577"><ele>6.5</ele><time>2026-04-05T14:43:23Z</time></trkpt><trkpt lat="44.3604164653112" lon="12.064789762083802"><ele>6.0</ele><time>2026-04-05T14:43:24Z</time></trkpt><trkpt lat="44.36032034232324" lon="12.065144705889004"><ele>5.5</ele><time>2026-04-05T14:43:25Z</time></trkpt><trkpt lat="44.36022649255551" lon="12.065497775833855"><ele>5.0</ele><time>2026-04-05T14:43:26Z</time></trkpt><trkpt lat="44.36013559532561" lon="12.065837343304226"><ele>6.0</ele><time>2026-04-05T14:43:27Z</time></trkpt><trkpt lat="44.36003931317487" lon="12.066171030811729"><ele>7.0</ele><time>2026-04-05T14:43:28Z</time></trkpt><trkpt lat="44.3599353665548" lon="12.066503079130085"><ele>7.0</ele><time>2026-04-05T14:43:29Z</time></trkpt><trkpt lat="44.35982786796151" lon="12.066837941488215"><ele>7.0</ele><time>2026-04-05T14:43:30Z</time></trkpt><trkpt lat="44.35971719446835" lon="12.067176684813644"><ele>6.5</ele><time>2026-04-05T14:43:31Z</time></trkpt><trkpt lat="44.35961144257843" lon="12.067524670568268"><ele>6.0</ele><time>2026-04-05T14:43:32Z</time></trkpt><trkpt lat="44.35950709581803" lon="12.067861818214208"><ele>6.0</ele><time>2026-04-05T14:43:33Z</time></trkpt><trkpt lat="44.35940115731291" lon="12.068209366764531"><ele>6.0</ele><time>2026-04-05T14:43:34Z</time></trkpt><trkpt lat="44.359311341713465" lon="12.068512364393644"><ele>6.5</ele><time>2026-04-05T14:43:35Z</time></trkpt><trkpt lat="44.35921869007591" lon="12.068824147236027"><ele>7.0</ele><time>2026-04-05T14:43:36Z</time></trkpt><trkpt lat="44.35912018894439" lon="12.069140054215323"><ele>7.0</ele><time>2026-04-05T14:43:37.001Z</time></trkpt><trkpt lat="44.35902922060187" lon="12.069422924988785"><ele>7.0</ele><time>2026-04-05T14:43:38.001Z</time></trkpt><trkpt lat="44.35894364258209" lon="12.069692843867806"><ele>7.0</ele><time>2026-04-05T14:43:39.001Z</time></trkpt><trkpt lat="44.35886662506339" lon="12.069940759003357"><ele>7.333333333333334</ele><time>2026-04-05T14:43:40.001Z</time></trkpt><trkpt lat="44.35880039461578" lon="12.07017965218836"><ele>7.666666666666666</ele><time>2026-04-05T14:43:41.001Z</time></trkpt><trkpt lat="44.35873611499005" lon="12.070399042635032"><ele>8.0</ele><time>2026-04-05T14:43:42.001Z</time></trkpt><trkpt lat="44.35865847786232" lon="12.070611852004552"><ele>8.0</ele><time>2026-04-05T14:43:43.001Z</time></trkpt><trkpt lat="44.35858916764282" lon="12.07082936756994"><ele>8.0</ele><time>2026-04-05T14:43:44.001Z</time></trkpt><trkpt lat="44.35851778636092" lon="12.071062294812819"><ele>8.0</ele><time>2026-04-05T14:43:45.001Z</time></trkpt><trkpt lat="44.35845770691171" lon="12.071268971828404"><ele>8.0</ele><time>2026-04-05T14:43:46.001Z</time></trkpt><trkpt lat="44.358396934880055" lon="12.071480315929902"><ele>8.0</ele><time>2026-04-05T14:43:47.001Z</time></trkpt><trkpt lat="44.35833099385592" lon="12.071691736852932"><ele>8.0</ele><time>2026-04-05T14:43:48.001Z</time></trkpt><trkpt lat="44.35824638541503" lon="12.071910190999596"><ele>8.0</ele><time>2026-04-05T14:43:49.001Z</time></trkpt><trkpt lat="44.35816762053967" lon="12.07216216624836"><ele>8.0</ele><time>2026-04-05T14:43:50.001Z</time></trkpt><trkpt lat="44.358086464172096" lon="12.072418824647613"><ele>8.0</ele><time>2026-04-05T14:43:51.001Z</time></trkpt><trkpt lat="44.358004500462435" lon="12.07268289630242"><ele>7.666666666666666</ele><time>2026-04-05T14:43:52.001Z</time></trkpt><trkpt lat="44.357923276279635" lon="12.072944735135057"><ele>7.333333333333334</ele><time>2026-04-05T14:43:53.001Z</time></trkpt><trkpt lat="44.35784723798352" lon="12.073209414712808"><ele>7.0</ele><time>2026-04-05T14:43:54.001Z</time></trkpt><trkpt lat="44.3577578875572" lon="12.073478087848056"><ele>7.0</ele><time>2026-04-05T14:43:55.001Z</time></trkpt><trkpt lat="44.35767623544819" lon="12.073764585688588"><ele>7.0</ele><time>2026-04-05T14:43:56.001Z</time></trkpt><trkpt lat="44.35758987031873" lon="12.074052251973134"><ele>7.0</ele><time>2026-04-05T14:43:57.001Z</time></trkpt><trkpt lat="44.35750313873375" lon="12.074334950689298"><ele>7.333333333333334</ele><time>2026-04-05T14:43:58.001Z</time></trkpt><trkpt lat="44.357411725772195" lon="12.074617356027966"><ele>7.666666666666666</ele><time>2026-04-05T14:43:59.001Z</time></trkpt><trkpt lat="44.35731686833148" lon="12.074902964464297"><ele>8.0</ele><time>2026-04-05T14:44:00.001Z</time></trkpt><trkpt lat="44.35722559533687" lon="12.075192352557314"><ele>8.0</ele><time>2026-04-05T14:44:01.001Z</time></trkpt><trkpt lat="44.357134656707096" lon="12.075485179832862"><ele>8.0</ele><time>2026-04-05T14:44:02.001Z</time></trkpt><trkpt lat="44.357044805357084" lon="12.075777017634932"><ele>7.5</ele><time>2026-04-05T14:44:02.999Z</time></trkpt><trkpt lat="44.35695524964674" lon="12.076075605232473"><ele>7.0</ele><time>2026-04-05T14:44:03.999Z</time></trkpt><trkpt lat="44.35686729916819" lon="12.076376082432292"><ele>7.0</ele><time>2026-04-05T14:44:04.999Z</time></trkpt><trkpt lat="44.35677756461827" lon="12.07666803161013"><ele>7.0</ele><time>2026-04-05T14:44:05.999Z</time></trkpt><trkpt lat="44.35668008766557" lon="12.076958234061577"><ele>7.0</ele><time>2026-04-05T14:44:06.999Z</time></trkpt><trkpt lat="44.35658443773753" lon="12.077248772311744"><ele>7.0</ele><time>2026-04-05T14:44:07.999Z</time></trkpt><trkpt lat="44.356498655860655" lon="12.077542963093514"><ele>7.0</ele><time>2026-04-05T14:44:08.999Z</time></trkpt><trkpt lat="44.35641018952619" lon="12.077833074696068"><ele>7.0</ele><time>2026-04-05T14:44:09.999Z</time></trkpt><trkpt lat="44.356319679875476" lon="12.078121576821815"><ele>7.5</ele><time>2026-04-05T14:44:10.999Z</time></trkpt><trkpt lat="44.35623287568555" lon="12.07841366827518"><ele>8.0</ele><time>2026-04-05T14:44:11.999Z</time></trkpt><trkpt lat="44.35614008206718" lon="12.078699558246443"><ele>8.0</ele><time>2026-04-05T14:44:12.999Z</time></trkpt><trkpt lat="44.356049496737235" lon="12.07898522454431"><ele>8.0</ele><time>2026-04-05T14:44:13.999Z</time></trkpt><trkpt lat="44.35595875003827" lon="12.079272633833554"><ele>8.0</ele><time>2026-04-05T14:44:14.999Z</time></trkpt><trkpt lat="44.35586789700588" lon="12.079561735237332"><ele>8.0</ele><time>2026-04-05T14:44:15.999Z</time></trkpt><trkpt lat="44.355779183349505" lon="12.079853959955859"><ele>8.0</ele><time>2026-04-05T14:44:16.999Z</time></trkpt><trkpt lat="44.3556893553168" lon="12.080143043255678"><ele>8.0</ele><time>2026-04-05T14:44:17.999Z</time></trkpt><trkpt lat="44.35559432340034" lon="12.080430727890597"><ele>8.0</ele><time>2026-04-05T14:44:18.999Z</time></trkpt><trkpt lat="44.35550516063136" lon="12.080724693543457"><ele>8.0</ele><time>2026-04-05T14:44:19.999Z</time></trkpt><trkpt lat="44.35541177221008" lon="12.081012607076605"><ele>8.0</ele><time>2026-04-05T14:44:20.999Z</time></trkpt><trkpt lat="44.355323433887406" lon="12.081304305515083"><ele>8.0</ele><time>2026-04-05T14:44:22Z</time></trkpt><trkpt lat="44.3552359588867" lon="12.081593987005917"><ele>8.0</ele><time>2026-04-05T14:44:23Z</time></trkpt><trkpt lat="44.355147351930654" lon="12.08187836482292"><ele>8.0</ele><time>2026-04-05T14:44:24Z</time></trkpt><trkpt lat="44.355056222232314" lon="12.082155534964345"><ele>7.666666666666666</ele><time>2026-04-05T14:44:25Z</time></trkpt><trkpt lat="44.35496930645692" lon="12.082433393750286"><ele>7.333333333333334</ele><time>2026-04-05T14:44:26Z</time></trkpt><trkpt lat="44.35488015448637" lon="12.082703943066248"><ele>7.0</ele><time>2026-04-05T14:44:27Z</time></trkpt><trkpt lat="44.35479068759677" lon="12.08296957501292"><ele>7.0</ele><time>2026-04-05T14:44:28Z</time></trkpt><trkpt lat="44.35470311216543" lon="12.083228421061587"><ele>7.0</ele><time>2026-04-05T14:44:29Z</time></trkpt><trkpt lat="44.35463320431629" lon="12.083462618232517"><ele>7.0</ele><time>2026-04-05T14:44:30Z</time></trkpt><trkpt lat="44.35456291718889" lon="12.083688660538023"><ele>7.0</ele><time>2026-04-05T14:44:31Z</time></trkpt><trkpt lat="44.3544993610955" lon="12.083900943932429"><ele>7.0</ele><time>2026-04-05T14:44:32Z</time></trkpt><trkpt lat="44.354440599842825" lon="12.084087117274178"><ele>7.0</ele><time>2026-04-05T14:44:33Z</time></trkpt><trkpt lat="44.35439692880844" lon="12.084241336419442"><ele>7.0</ele><time>2026-04-05T14:44:34Z</time></trkpt><trkpt lat="44.35435823931646" lon="12.084381633066467"><ele>7.25</ele><time>2026-04-05T14:44:35Z</time></trkpt><trkpt lat="44.35431727903131" lon="12.08450930837748"><ele>7.5</ele><time>2026-04-05T14:44:36Z</time></trkpt><trkpt lat="44.35427003751585" lon="12.084644033321842"><ele>7.75</ele><time>2026-04-05T14:44:37Z</time></trkpt><trkpt lat="44.35422276509866" lon="12.084798066448164"><ele>8.0</ele><time>2026-04-05T14:44:38Z</time></trkpt><trkpt lat="44.35417018285592" lon="12.084972617074737"><ele>8.0</ele><time>2026-04-05T14:44:39Z</time></trkpt><trkpt lat="44.35410955070408" lon="12.085171030012809"><ele>8.0</ele><time>2026-04-05T14:44:40Z</time></trkpt><trkpt lat="44.35404126953862" lon="12.085380895247319"><ele>8.0</ele><time>2026-04-05T14:44:41Z</time></trkpt><trkpt lat="44.35397613146343" lon="12.085606071433174"><ele>8.0</ele><time>2026-04-05T14:44:42Z</time></trkpt><trkpt lat="44.353917087246984" lon="12.085858001256435"><ele>8.0</ele><time>2026-04-05T14:44:43Z</time></trkpt><trkpt lat="44.353868761237706" lon="12.08611389410116"><ele>8.0</ele><time>2026-04-05T14:44:44Z</time></trkpt><trkpt lat="44.35383113849478" lon="12.08638359359817"><ele>7.666666666666666</ele><time>2026-04-05T14:44:45Z</time></trkpt><trkpt lat="44.353800363284634" lon="12.08666576309557"><ele>7.333333333333334</ele><time>2026-04-05T14:44:46Z</time></trkpt><trkpt lat="44.353782496902866" lon="12.086948226347957"><ele>7.0</ele><time>2026-04-05T14:44:47Z</time></trkpt><trkpt lat="44.353765841954925" lon="12.087234192324415"><ele>7.333333333333334</ele><time>2026-04-05T14:44:48Z</time></trkpt><trkpt lat="44.35374024335733" lon="12.08750993568049"><ele>7.666666666666666</ele><time>2026-04-05T14:44:49Z</time></trkpt><trkpt lat="44.35371060434731" lon="12.087789508594472"><ele>8.0</ele><time>2026-04-05T14:44:50Z</time></trkpt><trkpt lat="44.35368261364368" lon="12.088077431872115"><ele>8.0</ele><time>2026-04-05T14:44:51Z</time></trkpt><trkpt lat="44.35365573348038" lon="12.08836842281484"><ele>8.0</ele><time>2026-04-05T14:44:52Z</time></trkpt><trkpt lat="44.35363100985932" lon="12.088659166452242"><ele>8.0</ele><time>2026-04-05T14:44:53Z</time></trkpt><trkpt lat="44.353603936052615" lon="12.088955316505462"><ele>8.0</ele><time>2026-04-05T14:44:54Z</time></trkpt><trkpt lat="44.35357109713482" lon="12.089254988860526"><ele>8.0</ele><time>2026-04-05T14:44:55Z</time></trkpt><trkpt lat="44.35353115822259" lon="12.089560570516255"><ele>8.0</ele><time>2026-04-05T14:44:56Z</time></trkpt><trkpt lat="44.35348929341242" lon="12.08985923568516"><ele>8.333333333333332</ele><time>2026-04-05T14:44:57Z</time></trkpt><trkpt lat="44.353427846886596" lon="12.090158355401334"><ele>8.666666666666666</ele><time>2026-04-05T14:44:58Z</time></trkpt><trkpt lat="44.35336589312861" lon="12.090458594197429"><ele>9.0</ele><time>2026-04-05T14:44:59Z</time></trkpt><trkpt lat="44.353297044004876" lon="12.090754933740326"><ele>8.333333333333334</ele><time>2026-04-05T14:45:00Z</time></trkpt><trkpt lat="44.35323610529838" lon="12.091053815836977"><ele>7.666666666666667</ele><time>2026-04-05T14:45:01Z</time></trkpt><trkpt lat="44.35317368091661" lon="12.091358005801329"><ele>7.0</ele><time>2026-04-05T14:45:02Z</time></trkpt><trkpt lat="44.353105870039464" lon="12.091654549964847"><ele>6.666666666666667</ele><time>2026-04-05T14:45:03Z</time></trkpt><trkpt lat="44.353023475422056" lon="12.09194669600816"><ele>6.333333333333334</ele><time>2026-04-05T14:45:04Z</time></trkpt><trkpt lat="44.35292809406887" lon="12.092228044269813"><ele>6.0</ele><time>2026-04-05T14:45:05Z</time></trkpt><trkpt lat="44.35282546538204" lon="12.092505810015872"><ele>5.666666666666667</ele><time>2026-04-05T14:45:06Z</time></trkpt><trkpt lat="44.352722163721964" lon="12.092783284173395"><ele>5.333333333333334</ele><time>2026-04-05T14:45:07Z</time></trkpt><trkpt lat="44.35261374527736" lon="12.09305836318173"><ele>5.0</ele><time>2026-04-05T14:45:08Z</time></trkpt><trkpt lat="44.35248879285902" lon="12.093323146517788"><ele>5.0</ele><time>2026-04-05T14:45:09Z</time></trkpt><trkpt lat="44.35235021867517" lon="12.093574957879895"><ele>5.0</ele><time>2026-04-05T14:45:10Z</time></trkpt><trkpt lat="44.352197699347784" lon="12.093808664499623"><ele>5.0</ele><time>2026-04-05T14:45:11Z</time></trkpt><trkpt lat="44.352030210783575" lon="12.09403009133912"><ele>5.0</ele><time>2026-04-05T14:45:12Z</time></trkpt><trkpt lat="44.351855063315845" lon="12.094243637770958"><ele>5.5</ele><time>2026-04-05T14:45:13.001Z</time></trkpt><trkpt lat="44.351686210057004" lon="12.09445972980091"><ele>6.0</ele><time>2026-04-05T14:45:14.001Z</time></trkpt><trkpt lat="44.351521874269274" lon="12.094677201025439"><ele>6.0</ele><time>2026-04-05T14:45:15.001Z</time></trkpt><trkpt lat="44.35135239819635" lon="12.094899623594321"><ele>6.0</ele><time>2026-04-05T14:45:16.001Z</time></trkpt><trkpt lat="44.35118523519574" lon="12.095127695994314"><ele>6.0</ele><time>2026-04-05T14:45:17.001Z</time></trkpt><trkpt lat="44.3510123589204" lon="12.095360844303475"><ele>6.0</ele><time>2026-04-05T14:45:18.001Z</time></trkpt><trkpt lat="44.35084543405569" lon="12.095601248043284"><ele>6.0</ele><time>2026-04-05T14:45:19.001Z</time></trkpt><trkpt lat="44.35068437401682" lon="12.095851054248712"><ele>6.0</ele><time>2026-04-05T14:45:20.001Z</time></trkpt><trkpt lat="44.35052557303489" lon="12.096125077654017"><ele>6.0</ele><time>2026-04-05T14:45:21.001Z</time></trkpt><trkpt lat="44.35036993628172" lon="12.096401307474473"><ele>6.0</ele><time>2026-04-05T14:45:22.001Z</time></trkpt><trkpt lat="44.350214265720126" lon="12.096681736690005"><ele>5.5</ele><time>2026-04-05T14:45:23.001Z</time></trkpt><trkpt lat="44.3500534362627" lon="12.096960282905105"><ele>5.0</ele><time>2026-04-05T14:45:24.001Z</time></trkpt><trkpt lat="44.34988930995934" lon="12.097232696914052"><ele>4.5</ele><time>2026-04-05T14:45:25.001Z</time></trkpt><trkpt lat="44.3497205079201" lon="12.0974998707971"><ele>4.0</ele><time>2026-04-05T14:45:26.001Z</time></trkpt><trkpt lat="44.34954871454845" lon="12.097745480490591"><ele>5.5</ele><time>2026-04-05T14:45:27.001Z</time></trkpt><trkpt lat="44.349366166966384" lon="12.097977655846483"><ele>7.0</ele><time>2026-04-05T14:45:28.001Z</time></trkpt><trkpt lat="44.34917837597734" lon="12.098210396660583"><ele>6.5</ele><time>2026-04-05T14:45:29.001Z</time></trkpt><trkpt lat="44.34899653416678" lon="12.098447457865168"><ele>6.0</ele><time>2026-04-05T14:45:30.001Z</time></trkpt><trkpt lat="44.34882568564752" lon="12.098695931896833"><ele>6.0</ele><time>2026-04-05T14:45:31.001Z</time></trkpt><trkpt lat="44.34866943939777" lon="12.09896430633212"><ele>6.0</ele><time>2026-04-05T14:45:32.001Z</time></trkpt><trkpt lat="44.348523768692644" lon="12.099251030201216"><ele>6.0</ele><time>2026-04-05T14:45:33.001Z</time></trkpt><trkpt lat="44.34839002650499" lon="12.099547996113051"><ele>6.0</ele><time>2026-04-05T14:45:34.001Z</time></trkpt><trkpt lat="44.34827103194315" lon="12.099867564372252"><ele>6.0</ele><time>2026-04-05T14:45:35.001Z</time></trkpt><trkpt lat="44.34817096856474" lon="12.100197382936948"><ele>6.0</ele><time>2026-04-05T14:45:36.001Z</time></trkpt><trkpt lat="44.34808360614686" lon="12.100538954154588"><ele>4.5</ele><time>2026-04-05T14:45:37.001Z</time></trkpt><trkpt lat="44.34800213138391" lon="12.100882483218566"><ele>3.0</ele><time>2026-04-05T14:45:38.001Z</time></trkpt><trkpt lat="44.34792437349483" lon="12.101224660955419"><ele>3.0</ele><time>2026-04-05T14:45:39.001Z</time></trkpt><trkpt lat="44.34785975522833" lon="12.101570310220591"><ele>3.0</ele><time>2026-04-05T14:45:40.001Z</time></trkpt><trkpt lat="44.34781411254025" lon="12.10191473750023"><ele>3.0</ele><time>2026-04-05T14:45:41.001Z</time></trkpt><trkpt lat="44.34778701161116" lon="12.102260327328276"><ele>3.0</ele><time>2026-04-05T14:45:42.001Z</time></trkpt><trkpt lat="44.34777090408124" lon="12.102609811484507"><ele>3.5</ele><time>2026-04-05T14:45:43.001Z</time></trkpt><trkpt lat="44.34775510993675" lon="12.102964110415288"><ele>4.0</ele><time>2026-04-05T14:45:44.001Z</time></trkpt><trkpt lat="44.34773855623759" lon="12.1033180033518"><ele>4.5</ele><time>2026-04-05T14:45:45.001Z</time></trkpt><trkpt lat="44.347716806809856" lon="12.10367383439123"><ele>5.0</ele><time>2026-04-05T14:45:46.001Z</time></trkpt><trkpt lat="44.347689577523695" lon="12.10402350165203"><ele>5.0</ele><time>2026-04-05T14:45:47.001Z</time></trkpt><trkpt lat="44.34765893640244" lon="12.104375204740002"><ele>5.0</ele><time>2026-04-05T14:45:48.001Z</time></trkpt><trkpt lat="44.34762043578106" lon="12.104722411140513"><ele>5.0</ele><time>2026-04-05T14:45:49.001Z</time></trkpt><trkpt lat="44.34757152225031" lon="12.10506923665522"><ele>5.0</ele><time>2026-04-05T14:45:50.001Z</time></trkpt><trkpt lat="44.34750727258595" lon="12.105411745769537"><ele>4.5</ele><time>2026-04-05T14:45:51.001Z</time></trkpt><trkpt lat="44.34742820329885" lon="12.10574881318356"><ele>4.0</ele><time>2026-04-05T14:45:52.001Z</time></trkpt><trkpt lat="44.34733948221681" lon="12.106086063699099"><ele>4.0</ele><time>2026-04-05T14:45:53.001Z</time></trkpt><trkpt lat="44.34723258050076" lon="12.106407426056032"><ele>4.0</ele><time>2026-04-05T14:45:54.001Z</time></trkpt><trkpt lat="44.34711350943941" lon="12.106718139402334"><ele>4.0</ele><time>2026-04-05T14:45:55.001Z</time></trkpt><trkpt lat="44.34698141396778" lon="12.107023444325822"><ele>4.0</ele><time>2026-04-05T14:45:56.001Z</time></trkpt><trkpt lat="44.346839820291194" lon="12.10732473715334"><ele>4.5</ele><time>2026-04-05T14:45:57.001Z</time></trkpt><trkpt lat="44.346693970547776" lon="12.107621266887412"><ele>5.0</ele><time>2026-04-05T14:45:58.001Z</time></trkpt><trkpt lat="44.34653772354012" lon="12.107905716237136"><ele>4.5</ele><time>2026-04-05T14:45:59.001Z</time></trkpt><trkpt lat="44.3463737400498" lon="12.108177584731493"><ele>4.0</ele><time>2026-04-05T14:46:00.001Z</time></trkpt><trkpt lat="44.346202763890695" lon="12.108437789398298"><ele>4.0</ele><time>2026-04-05T14:46:01.001Z</time></trkpt><trkpt lat="44.34601994993081" lon="12.10869088887734"><ele>4.0</ele><time>2026-04-05T14:46:02.001Z</time></trkpt><trkpt lat="44.3458362676024" lon="12.108938495641809"><ele>4.5</ele><time>2026-04-05T14:46:03.001Z</time></trkpt><trkpt lat="44.34566258704203" lon="12.109188151934973"><ele>5.0</ele><time>2026-04-05T14:46:04.001Z</time></trkpt><trkpt lat="44.345501233795964" lon="12.109454428935273"><ele>5.0</ele><time>2026-04-05T14:46:05.001Z</time></trkpt><trkpt lat="44.345362211900756" lon="12.109739627362147"><ele>5.0</ele><time>2026-04-05T14:46:06.001Z</time></trkpt><trkpt lat="44.34524859027885" lon="12.110039999562597"><ele>5.5</ele><time>2026-04-05T14:46:07.001Z</time></trkpt><trkpt lat="44.345149420565214" lon="12.110353778765486"><ele>6.0</ele><time>2026-04-05T14:46:08.001Z</time></trkpt><trkpt lat="44.34507040652989" lon="12.110678170048295"><ele>6.0</ele><time>2026-04-05T14:46:09Z</time></trkpt><trkpt lat="44.345012071641435" lon="12.111001021044475"><ele>6.0</ele><time>2026-04-05T14:46:10Z</time></trkpt><trkpt lat="44.3449817198554" lon="12.111308377112078"><ele>5.666666666666667</ele><time>2026-04-05T14:46:11Z</time></trkpt><trkpt lat="44.34496668182545" lon="12.111599497360778"><ele>5.333333333333334</ele><time>2026-04-05T14:46:12Z</time></trkpt><trkpt lat="44.34496194593684" lon="12.111877742990771"><ele>5.0</ele><time>2026-04-05T14:46:13Z</time></trkpt><trkpt lat="44.3449639307855" lon="12.112142472837679"><ele>5.0</ele><time>2026-04-05T14:46:14Z</time></trkpt><trkpt lat="44.34496882742186" lon="12.112401929638247"><ele>5.0</ele><time>2026-04-05T14:46:15Z</time></trkpt><trkpt lat="44.34496984431916" lon="12.112632265248019"><ele>5.0</ele><time>2026-04-05T14:46:16Z</time></trkpt><trkpt lat="44.34497055058392" lon="12.112852112760311"><ele>5.0</ele><time>2026-04-05T14:46:17Z</time></trkpt><trkpt lat="44.344968832621554" lon="12.113059065608654"><ele>5.0</ele><time>2026-04-05T14:46:18Z</time></trkpt><trkpt lat="44.34496969875845" lon="12.113249787769313"><ele>5.0</ele><time>2026-04-05T14:46:19Z</time></trkpt><trkpt lat="44.34497447379492" lon="12.113417205006721"><ele>5.0</ele><time>2026-04-05T14:46:20Z</time></trkpt><trkpt lat="44.34496653616262" lon="12.113555757561674"><ele>5.2</ele><time>2026-04-05T14:46:21Z</time></trkpt><trkpt lat="44.3449197397675" lon="12.113658815034414"><ele>5.4</ele><time>2026-04-05T14:46:22Z</time></trkpt><trkpt lat="44.344832810531365" lon="12.113706630347567"><ele>5.6</ele><time>2026-04-05T14:46:23Z</time></trkpt><trkpt lat="44.3447318124259" lon="12.11370311633284"><ele>5.8</ele><time>2026-04-05T14:46:24Z</time></trkpt><trkpt lat="44.344642578507724" lon="12.113622154908908"><ele>6.0</ele><time>2026-04-05T14:46:25Z</time></trkpt><trkpt lat="44.3445921522401" lon="12.113469165619206"><ele>6.0</ele><time>2026-04-05T14:46:26Z</time></trkpt><trkpt lat="44.34451267729518" lon="12.11333801792506"><ele>6.0</ele><time>2026-04-05T14:46:27Z</time></trkpt><trkpt lat="44.34444902320688" lon="12.113172578358771"><ele>6.0</ele><time>2026-04-05T14:46:28Z</time></trkpt><trkpt lat="44.34437017645659" lon="12.113007905745759"><ele>6.0</ele><time>2026-04-05T14:46:29Z</time></trkpt><trkpt lat="44.34428523653415" lon="12.112829056219448"><ele>6.0</ele><time>2026-04-05T14:46:30Z</time></trkpt><trkpt lat="44.34418432006682" lon="12.112632913716014"><ele>6.0</ele><time>2026-04-05T14:46:31Z</time></trkpt><trkpt lat="44.344079194734455" lon="12.112427124935826"><ele>6.0</ele><time>2026-04-05T14:46:32Z</time></trkpt><trkpt lat="44.34397232280839" lon="12.112212591964527"><ele>6.0</ele><time>2026-04-05T14:46:33Z</time></trkpt><trkpt lat="44.34386385020129" lon="12.111982301170363"><ele>6.0</ele><time>2026-04-05T14:46:34Z</time></trkpt><trkpt lat="44.343753955959485" lon="12.111748432200065"><ele>6.0</ele><time>2026-04-05T14:46:35Z</time></trkpt><trkpt lat="44.34364264395365" lon="12.111511709562443"><ele>6.0</ele><time>2026-04-05T14:46:36Z</time></trkpt><trkpt lat="44.3435311320593" lon="12.111270128886622"><ele>6.0</ele><time>2026-04-05T14:46:37Z</time></trkpt><trkpt lat="44.34340419175319" lon="12.111044769269594"><ele>6.0</ele><time>2026-04-05T14:46:38Z</time></trkpt><trkpt lat="44.343239606859704" lon="12.11085985367458"><ele>6.0</ele><time>2026-04-05T14:46:39Z</time></trkpt><trkpt lat="44.343042409301354" lon="12.110727889243437"><ele>6.0</ele><time>2026-04-05T14:46:40Z</time></trkpt><trkpt lat="44.34284288394232" lon="12.110616040095309"><ele>6.0</ele><time>2026-04-05T14:46:41Z</time></trkpt><trkpt lat="44.34263910724584" lon="12.110497639090932"><ele>6.0</ele><time>2026-04-05T14:46:42Z</time></trkpt><trkpt lat="44.34244205735904" lon="12.110370446632132"><ele>6.0</ele><time>2026-04-05T14:46:43Z</time></trkpt><trkpt lat="44.342259828604426" lon="12.110217459034212"><ele>6.0</ele><time>2026-04-05T14:46:44Z</time></trkpt><trkpt lat="44.34211472325999" lon="12.110003706606394"><ele>6.0</ele><time>2026-04-05T14:46:45Z</time></trkpt><trkpt lat="44.34201466930199" lon="12.109739578705884"><ele>6.0</ele><time>2026-04-05T14:46:46Z</time></trkpt><trkpt lat="44.34189123168678" lon="12.109480953265203"><ele>6.0</ele><time>2026-04-05T14:46:47Z</time></trkpt><trkpt lat="44.34179201025292" lon="12.109198483273127"><ele>6.5</ele><time>2026-04-05T14:46:48Z</time></trkpt><trkpt lat="44.341695990737385" lon="12.10891018618599"><ele>7.0</ele><time>2026-04-05T14:46:49Z</time></trkpt><trkpt lat="44.34160452958692" lon="12.108613943551147"><ele>7.0</ele><time>2026-04-05T14:46:50Z</time></trkpt><trkpt lat="44.341514066393884" lon="12.10830482207358"><ele>7.0</ele><time>2026-04-05T14:46:51Z</time></trkpt><trkpt lat="44.34142905403422" lon="12.107992801272346"><ele>7.0</ele><time>2026-04-05T14:46:52Z</time></trkpt><trkpt lat="44.34135749387895" lon="12.107669746972006"><ele>7.0</ele><time>2026-04-05T14:46:53Z</time></trkpt><trkpt lat="44.34132578422382" lon="12.107337167057079"><ele>7.0</ele><time>2026-04-05T14:46:54Z</time></trkpt><trkpt lat="44.34129610286941" lon="12.107035194104746"><ele>7.0</ele><time>2026-04-05T14:46:55Z</time></trkpt><trkpt lat="44.341289001592536" lon="12.106747296013753"><ele>7.0</ele><time>2026-04-05T14:46:56Z</time></trkpt><trkpt lat="44.341310830279006" lon="12.106448148707694"><ele>6.5</ele><time>2026-04-05T14:46:57Z</time></trkpt><trkpt lat="44.34135135000431" lon="12.106143551400907"><ele>6.0</ele><time>2026-04-05T14:46:58.001Z</time></trkpt><trkpt lat="44.341377342982234" lon="12.105824598208045"><ele>6.0</ele><time>2026-04-05T14:46:59.001Z</time></trkpt><trkpt lat="44.34141804909889" lon="12.105503270980837"><ele>6.0</ele><time>2026-04-05T14:47:00.001Z</time></trkpt><trkpt lat="44.34144230926365" lon="12.10517074684789"><ele>5.5</ele><time>2026-04-05T14:47:01.001Z</time></trkpt><trkpt lat="44.34145540667536" lon="12.10483612708933"><ele>5.0</ele><time>2026-04-05T14:47:02.001Z</time></trkpt><trkpt lat="44.34147121290267" lon="12.104505050500224"><ele>5.0</ele><time>2026-04-05T14:47:03.001Z</time></trkpt><trkpt lat="44.34154911187841" lon="12.104198361653653"><ele>5.0</ele><time>2026-04-05T14:47:04.001Z</time></trkpt><trkpt lat="44.34164121709873" lon="12.103896944143118"><ele>5.5</ele><time>2026-04-05T14:47:05.001Z</time></trkpt><trkpt lat="44.34176625207831" lon="12.103592306858218"><ele>6.0</ele><time>2026-04-05T14:47:06.001Z</time></trkpt><trkpt lat="44.341903192400416" lon="12.103304199652174"><ele>5.5</ele><time>2026-04-05T14:47:07.001Z</time></trkpt><trkpt lat="44.34205941393141" lon="12.103036261398545"><ele>5.0</ele><time>2026-04-05T14:47:08.001Z</time></trkpt><trkpt lat="44.34223404414209" lon="12.102785857176219"><ele>5.0</ele><time>2026-04-05T14:47:09.001Z</time></trkpt><trkpt lat="44.34242328195321" lon="12.102525845293457"><ele>5.0</ele><time>2026-04-05T14:47:10.001Z</time></trkpt><trkpt lat="44.34261629541412" lon="12.102264045345352"><ele>5.0</ele><time>2026-04-05T14:47:11.001Z</time></trkpt><trkpt lat="44.34280608567809" lon="12.101980809385434"><ele>5.0</ele><time>2026-04-05T14:47:12.001Z</time></trkpt><trkpt lat="44.34300025915499" lon="12.101702515962309"><ele>4.5</ele><time>2026-04-05T14:47:13.001Z</time></trkpt><trkpt lat="44.343193923599515" lon="12.10138071028682"><ele>4.0</ele><time>2026-04-05T14:47:14.001Z</time></trkpt><trkpt lat="44.34340352781638" lon="12.10099724123073"><ele>4.0</ele><time>2026-04-05T14:47:15.001Z</time></trkpt><trkpt lat="44.34349353614074" lon="12.100675357888663"><ele>4.0</ele><time>2026-04-05T14:47:16.001Z</time></trkpt><trkpt lat="44.34362878150414" lon="12.100302279084563"><ele>4.0</ele><time>2026-04-05T14:47:17.001Z</time></trkpt><trkpt lat="44.34378046439456" lon="12.099935602226305"><ele>4.0</ele><time>2026-04-05T14:47:18.001Z</time></trkpt><trkpt lat="44.34391123651112" lon="12.099576182151125"><ele>4.5</ele><time>2026-04-05T14:47:19.001Z</time></trkpt><trkpt lat="44.344030321349834" lon="12.099248883935035"><ele>5.0</ele><time>2026-04-05T14:47:20.001Z</time></trkpt><trkpt lat="44.344138639346156" lon="12.098967122737168"><ele>5.0</ele><time>2026-04-05T14:47:21.001Z</time></trkpt><trkpt lat="44.344223788604346" lon="12.098570362368616"><ele>5.0</ele><time>2026-04-05T14:47:22.001Z</time></trkpt><trkpt lat="44.34429620214943" lon="12.098206774910805"><ele>5.5</ele><time>2026-04-05T14:47:23.001Z</time></trkpt><trkpt lat="44.34434332162916" lon="12.097835693715473"><ele>6.0</ele><time>2026-04-05T14:47:24.001Z</time></trkpt><trkpt lat="44.3443643979776" lon="12.097459467675138"><ele>6.0</ele><time>2026-04-05T14:47:25.001Z</time></trkpt><trkpt lat="44.34434376170542" lon="12.09708178734806"><ele>6.0</ele><time>2026-04-05T14:47:26.001Z</time></trkpt><trkpt lat="44.34427813378127" lon="12.09667888090617"><ele>5.5</ele><time>2026-04-05T14:47:27.001Z</time></trkpt><trkpt lat="44.344196217637474" lon="12.096303314609527"><ele>5.0</ele><time>2026-04-05T14:47:28.001Z</time></trkpt><trkpt lat="44.3441112748768" lon="12.09591792566976"><ele>5.0</ele><time>2026-04-05T14:47:29.001Z</time></trkpt><trkpt lat="44.34402705264585" lon="12.095521737713458"><ele>5.0</ele><time>2026-04-05T14:47:30.001Z</time></trkpt><trkpt lat="44.34394418268892" lon="12.09511944458865"><ele>5.0</ele><time>2026-04-05T14:47:31.001Z</time></trkpt><trkpt lat="44.34386018080868" lon="12.094732951678075"><ele>5.0</ele><time>2026-04-05T14:47:32.001Z</time></trkpt><trkpt lat="44.34374963435298" lon="12.094369450212636"><ele>5.0</ele><time>2026-04-05T14:47:33.001Z</time></trkpt><trkpt lat="44.34360281284824" lon="12.094027611917161"><ele>5.0</ele><time>2026-04-05T14:47:34.001Z</time></trkpt><trkpt lat="44.343428501192726" lon="12.093700728263208"><ele>5.0</ele><time>2026-04-05T14:47:35.001Z</time></trkpt><trkpt lat="44.34324094259633" lon="12.093398336776435"><ele>5.0</ele><time>2026-04-05T14:47:36.001Z</time></trkpt><trkpt lat="44.343027390370246" lon="12.093141715382478"><ele>5.5</ele><time>2026-04-05T14:47:37.001Z</time></trkpt><trkpt lat="44.34281265483658" lon="12.092930329726393"><ele>6.0</ele><time>2026-04-05T14:47:38.001Z</time></trkpt><trkpt lat="44.34261591571869" lon="12.092693086250712"><ele>6.0</ele><time>2026-04-05T14:47:39.001Z</time></trkpt><trkpt lat="44.3424436640166" lon="12.092445548224523"><ele>6.0</ele><time>2026-04-05T14:47:40.001Z</time></trkpt><trkpt lat="44.34226436722095" lon="12.092186673487992"><ele>6.5</ele><time>2026-04-05T14:47:41.001Z</time></trkpt><trkpt lat="44.34207597626304" lon="12.091914260803195"><ele>7.0</ele><time>2026-04-05T14:47:42.001Z</time></trkpt><trkpt lat="44.341876388094555" lon="12.091645434748399"><ele>6.5</ele><time>2026-04-05T14:47:43.001Z</time></trkpt><trkpt lat="44.34169533709458" lon="12.091347679207523"><ele>6.0</ele><time>2026-04-05T14:47:44.001Z</time></trkpt><trkpt lat="44.341529825163626" lon="12.091036766224281"><ele>6.0</ele><time>2026-04-05T14:47:45.001Z</time></trkpt><trkpt lat="44.34138910882488" lon="12.090715979437608"><ele>6.0</ele><time>2026-04-05T14:47:46.001Z</time></trkpt><trkpt lat="44.34127571145186" lon="12.090397839943499"><ele>5.5</ele><time>2026-04-05T14:47:47.001Z</time></trkpt><trkpt lat="44.34119105217482" lon="12.090084087714008"><ele>5.0</ele><time>2026-04-05T14:47:48.001Z</time></trkpt><trkpt lat="44.3411391981527" lon="12.089767697144474"><ele>5.0</ele><time>2026-04-05T14:47:49.001Z</time></trkpt><trkpt lat="44.34110394965126" lon="12.089432946396162"><ele>5.0</ele><time>2026-04-05T14:47:50.001Z</time></trkpt><trkpt lat="44.34108026511375" lon="12.089092165641121"><ele>5.5</ele><time>2026-04-05T14:47:51.001Z</time></trkpt><trkpt lat="44.34104618460676" lon="12.088743924874047"><ele>6.0</ele><time>2026-04-05T14:47:52.001Z</time></trkpt><trkpt lat="44.34101021512293" lon="12.08840249442858"><ele>7.0</ele><time>2026-04-05T14:47:53.001Z</time></trkpt><trkpt lat="44.34096653277957" lon="12.08807043412957"><ele>8.0</ele><time>2026-04-05T14:47:54.001Z</time></trkpt><trkpt lat="44.34089899783453" lon="12.087748821792667"><ele>8.0</ele><time>2026-04-05T14:47:55.001Z</time></trkpt><trkpt lat="44.34082697691914" lon="12.087447513736853"><ele>8.0</ele><time>2026-04-05T14:47:56.001Z</time></trkpt><trkpt lat="44.34076633951928" lon="12.087159848157066"><ele>8.0</ele><time>2026-04-05T14:47:57.001Z</time></trkpt><trkpt lat="44.340715264636465" lon="12.086867563122375"><ele>8.0</ele><time>2026-04-05T14:47:58.001Z</time></trkpt><trkpt lat="44.34063810358618" lon="12.08659317844647"><ele>8.0</ele><time>2026-04-05T14:47:59.001Z</time></trkpt><trkpt lat="44.34052481937368" lon="12.086326136528022"><ele>8.0</ele><time>2026-04-05T14:48:00.001Z</time></trkpt><trkpt lat="44.34038165020176" lon="12.08607808511913"><ele>8.0</ele><time>2026-04-05T14:48:01.001Z</time></trkpt><trkpt lat="44.340234820688174" lon="12.085846407888038"><ele>8.0</ele><time>2026-04-05T14:48:02.001Z</time></trkpt><trkpt lat="44.340112513836885" lon="12.085640223716656"><ele>8.0</ele><time>2026-04-05T14:48:03.001Z</time></trkpt><trkpt lat="44.340015132057445" lon="12.085454326581964"><ele>8.0</ele><time>2026-04-05T14:48:04.001Z</time></trkpt><trkpt lat="44.339926813749265" lon="12.08530780354213"><ele>8.0</ele><time>2026-04-05T14:48:05.001Z</time></trkpt><trkpt lat="44.33980272657984" lon="12.085204897205442"><ele>8.0</ele><time>2026-04-05T14:48:06.001Z</time></trkpt><trkpt lat="44.339643725372994" lon="12.085153873613283"><ele>8.0</ele><time>2026-04-05T14:48:07.002Z</time></trkpt><trkpt lat="44.339462491464694" lon="12.085102733501568"><ele>7.666666666666666</ele><time>2026-04-05T14:48:08.002Z</time></trkpt><trkpt lat="44.339272357535734" lon="12.085032753198693"><ele>7.333333333333334</ele><time>2026-04-05T14:48:09.002Z</time></trkpt><trkpt lat="44.339080694384045" lon="12.084948964638114"><ele>7.0</ele><time>2026-04-05T14:48:10.002Z</time></trkpt><trkpt lat="44.33888435020358" lon="12.084866576821147"><ele>6.666666666666667</ele><time>2026-04-05T14:48:11.002Z</time></trkpt><trkpt lat="44.338681062242685" lon="12.084789897848612"><ele>6.333333333333334</ele><time>2026-04-05T14:48:12.002Z</time></trkpt><trkpt lat="44.338493754384665" lon="12.084714416929454"><ele>6.0</ele><time>2026-04-05T14:48:13.002Z</time></trkpt><trkpt lat="44.33832105299326" lon="12.084652987157524"><ele>6.0</ele><time>2026-04-05T14:48:14.002Z</time></trkpt><trkpt lat="44.338149200271324" lon="12.084654485682382"><ele>6.0</ele><time>2026-04-05T14:48:15.001Z</time></trkpt><trkpt lat="44.33797698494148" lon="12.08473614359909"><ele>6.0</ele><time>2026-04-05T14:48:16.001Z</time></trkpt><trkpt lat="44.33780232935674" lon="12.08483820676602"><ele>5.666666666666667</ele><time>2026-04-05T14:48:17.001Z</time></trkpt><trkpt lat="44.33762111556105" lon="12.084871761916201"><ele>5.333333333333334</ele><time>2026-04-05T14:48:18.001Z</time></trkpt><trkpt lat="44.33742176615234" lon="12.084833112092273"><ele>5.0</ele><time>2026-04-05T14:48:19.001Z</time></trkpt><trkpt lat="44.33721428163837" lon="12.084754364315534"><ele>5.0</ele><time>2026-04-05T14:48:20.001Z</time></trkpt><trkpt lat="44.337001844348904" lon="12.084661988346554"><ele>5.0</ele><time>2026-04-05T14:48:21.001Z</time></trkpt><trkpt lat="44.33679121037111" lon="12.084571267336074"><ele>5.0</ele><time>2026-04-05T14:48:22.001Z</time></trkpt><trkpt lat="44.336590400513124" lon="12.084474918102252"><ele>5.0</ele><time>2026-04-05T14:48:23.001Z</time></trkpt><trkpt lat="44.33641868622056" lon="12.084338790939446"><ele>5.0</ele><time>2026-04-05T14:48:24.001Z</time></trkpt><trkpt lat="44.336281358354206" lon="12.0841747580114"><ele>5.0</ele><time>2026-04-05T14:48:25.001Z</time></trkpt><trkpt lat="44.33614641091002" lon="12.084012188894194"><ele>5.0</ele><time>2026-04-05T14:48:26.001Z</time></trkpt><trkpt lat="44.33600884935063" lon="12.083885963970864"><ele>5.0</ele><time>2026-04-05T14:48:27.001Z</time></trkpt><trkpt lat="44.33586568100455" lon="12.08381171681095"><ele>5.0</ele><time>2026-04-05T14:48:28.001Z</time></trkpt><trkpt lat="44.33570645463527" lon="12.083807921378295"><ele>5.0</ele><time>2026-04-05T14:48:29.001Z</time></trkpt><trkpt lat="44.33553330595176" lon="12.08387817748705"><ele>5.0</ele><time>2026-04-05T14:48:30.001Z</time></trkpt><trkpt lat="44.335365768493745" lon="12.084002623526729"><ele>5.0</ele><time>2026-04-05T14:48:31.001Z</time></trkpt><trkpt lat="44.33519638343247" lon="12.084141824068475"><ele>5.666666666666667</ele><time>2026-04-05T14:48:32.001Z</time></trkpt><trkpt lat="44.335023247227895" lon="12.084288949516631"><ele>6.333333333333334</ele><time>2026-04-05T14:48:33.001Z</time></trkpt><trkpt lat="44.33485582132606" lon="12.084454475611098"><ele>7.0</ele><time>2026-04-05T14:48:34.001Z</time></trkpt><trkpt lat="44.334698316704426" lon="12.084626111453234"><ele>7.0</ele><time>2026-04-05T14:48:35.001Z</time></trkpt><trkpt lat="44.33455158392437" lon="12.08478524853534"><ele>7.0</ele><time>2026-04-05T14:48:36.001Z</time></trkpt><trkpt lat="44.33441639335238" lon="12.084927728177906"><ele>7.0</ele><time>2026-04-05T14:48:37.001Z</time></trkpt><trkpt lat="44.33428240423772" lon="12.085041795041937"><ele>7.0</ele><time>2026-04-05T14:48:38.001Z</time></trkpt><trkpt lat="44.334135379005765" lon="12.085080573608446"><ele>7.0</ele><time>2026-04-05T14:48:39.001Z</time></trkpt><trkpt lat="44.333971989426985" lon="12.085020103992969"><ele>7.0</ele><time>2026-04-05T14:48:40.001Z</time></trkpt><trkpt lat="44.33381330679062" lon="12.084894470117566"><ele>7.0</ele><time>2026-04-05T14:48:41.001Z</time></trkpt><trkpt lat="44.33366185726018" lon="12.084737906177951"><ele>7.0</ele><time>2026-04-05T14:48:42.001Z</time></trkpt><trkpt lat="44.3334972986009" lon="12.08459767514764"><ele>7.0</ele><time>2026-04-05T14:48:43.001Z</time></trkpt><trkpt lat="44.33331836179399" lon="12.084466526863574"><ele>7.0</ele><time>2026-04-05T14:48:44.001Z</time></trkpt><trkpt lat="44.33313134910038" lon="12.084335885639588"><ele>7.0</ele><time>2026-04-05T14:48:45.001Z</time></trkpt><trkpt lat="44.33293446856769" lon="12.084216253712476"><ele>7.0</ele><time>2026-04-05T14:48:46.001Z</time></trkpt><trkpt lat="44.33271904015305" lon="12.084141633659282"><ele>6.5</ele><time>2026-04-05T14:48:47.001Z</time></trkpt><trkpt lat="44.33248822792206" lon="12.084110643680988"><ele>6.0</ele><time>2026-04-05T14:48:48.001Z</time></trkpt><trkpt lat="44.33225379189731" lon="12.084069400831023"><ele>6.5</ele><time>2026-04-05T14:48:49.001Z</time></trkpt><trkpt lat="44.33202265322453" lon="12.083968976617916"><ele>7.0</ele><time>2026-04-05T14:48:50.001Z</time></trkpt><trkpt lat="44.33178798868771" lon="12.08381273599751"><ele>7.0</ele><time>2026-04-05T14:48:51.001Z</time></trkpt><trkpt lat="44.33155078784528" lon="12.083627716327646"><ele>7.0</ele><time>2026-04-05T14:48:52.001Z</time></trkpt><trkpt lat="44.331312523088776" lon="12.083426691579268"><ele>6.5</ele><time>2026-04-05T14:48:53.001Z</time></trkpt><trkpt lat="44.33107488001918" lon="12.083215392799042"><ele>6.0</ele><time>2026-04-05T14:48:54.001Z</time></trkpt><trkpt lat="44.33084156343012" lon="12.083006777287773"><ele>6.0</ele><time>2026-04-05T14:48:55.001Z</time></trkpt><trkpt lat="44.330613545263034" lon="12.08280567324986"><ele>6.0</ele><time>2026-04-05T14:48:56.001Z</time></trkpt><trkpt lat="44.33039185428236" lon="12.082614931548926"><ele>6.0</ele><time>2026-04-05T14:48:57.001Z</time></trkpt><trkpt lat="44.33018588229377" lon="12.082437509205665"><ele>6.0</ele><time>2026-04-05T14:48:58.001Z</time></trkpt><trkpt lat="44.3299898450009" lon="12.082294176346283"><ele>6.0</ele><time>2026-04-05T14:48:59.001Z</time></trkpt><trkpt lat="44.32978550850116" lon="12.082210582912664"><ele>6.0</ele><time>2026-04-05T14:49:00.001Z</time></trkpt><trkpt lat="44.32957933788577" lon="12.082192089806574"><ele>6.0</ele><time>2026-04-05T14:49:01.001Z</time></trkpt><trkpt lat="44.3293741074791" lon="12.082223129526"><ele>6.0</ele><time>2026-04-05T14:49:02.001Z</time></trkpt><trkpt lat="44.32917735379915" lon="12.082313082449579"><ele>6.0</ele><time>2026-04-05T14:49:03.001Z</time></trkpt><trkpt lat="44.32900308072139" lon="12.082463569540636"><ele>6.0</ele><time>2026-04-05T14:49:04.001Z</time></trkpt><trkpt lat="44.32885920287681" lon="12.082635543534254"><ele>6.0</ele><time>2026-04-05T14:49:05.001Z</time></trkpt><trkpt lat="44.32872135962623" lon="12.082719766227441"><ele>6.0</ele><time>2026-04-05T14:49:06.001Z</time></trkpt><trkpt lat="44.328576398271494" lon="12.082704840383624"><ele>6.0</ele><time>2026-04-05T14:49:07.001Z</time></trkpt><trkpt lat="44.328425313379135" lon="12.082602006698233"><ele>6.0</ele><time>2026-04-05T14:49:08.001Z</time></trkpt><trkpt lat="44.328250174039816" lon="12.082502205501227"><ele>6.0</ele><time>2026-04-05T14:49:09.001Z</time></trkpt><trkpt lat="44.328087482236796" lon="12.08237293584327"><ele>6.0</ele><time>2026-04-05T14:49:10.001Z</time></trkpt><trkpt lat="44.32791660361206" lon="12.082238321363013"><ele>6.333333333333334</ele><time>2026-04-05T14:49:11.001Z</time></trkpt><trkpt lat="44.32773782995516" lon="12.082110421718646"><ele>6.666666666666667</ele><time>2026-04-05T14:49:12.001Z</time></trkpt><trkpt lat="44.32755658994828" lon="12.08198574063942"><ele>7.0</ele><time>2026-04-05T14:49:13.001Z</time></trkpt><trkpt lat="44.327370007418914" lon="12.081852661919108"><ele>6.5</ele><time>2026-04-05T14:49:14.001Z</time></trkpt><trkpt lat="44.32716766840154" lon="12.081710301814494"><ele>6.0</ele><time>2026-04-05T14:49:15.001Z</time></trkpt><trkpt lat="44.32696579952603" lon="12.081572849562608"><ele>6.0</ele><time>2026-04-05T14:49:16.001Z</time></trkpt><trkpt lat="44.32676121760822" lon="12.081432546421793"><ele>6.0</ele><time>2026-04-05T14:49:17.001Z</time></trkpt><trkpt lat="44.326538678917906" lon="12.081265720835903"><ele>5.5</ele><time>2026-04-05T14:49:18.001Z</time></trkpt><trkpt lat="44.32634019530646" lon="12.081118289049682"><ele>5.0</ele><time>2026-04-05T14:49:19.001Z</time></trkpt><trkpt lat="44.326122770764194" lon="12.08095212246899"><ele>5.0</ele><time>2026-04-05T14:49:20.001Z</time></trkpt><trkpt lat="44.32589995069898" lon="12.080783840874552"><ele>5.0</ele><time>2026-04-05T14:49:21.001Z</time></trkpt><trkpt lat="44.32568085825508" lon="12.080612560862992"><ele>5.5</ele><time>2026-04-05T14:49:22.001Z</time></trkpt><trkpt lat="44.32546536554483" lon="12.080440879390965"><ele>6.0</ele><time>2026-04-05T14:49:23.001Z</time></trkpt><trkpt lat="44.32524895659324" lon="12.080275253791575"><ele>6.0</ele><time>2026-04-05T14:49:24.001Z</time></trkpt><trkpt lat="44.32503593449644" lon="12.08010344210436"><ele>6.0</ele><time>2026-04-05T14:49:25.001Z</time></trkpt><trkpt lat="44.324824572345435" lon="12.079927790851436"><ele>6.5</ele><time>2026-04-05T14:49:26.001Z</time></trkpt><trkpt lat="44.32460568197853" lon="12.079753590531217"><ele>7.0</ele><time>2026-04-05T14:49:27.001Z</time></trkpt><trkpt lat="44.3243863585646" lon="12.079580851245513"><ele>7.0</ele><time>2026-04-05T14:49:28.001Z</time></trkpt><trkpt lat="44.324163569291365" lon="12.079410278741534"><ele>7.0</ele><time>2026-04-05T14:49:29.001Z</time></trkpt><trkpt lat="44.32393842560828" lon="12.07923791183871"><ele>6.5</ele><time>2026-04-05T14:49:30.001Z</time></trkpt><trkpt lat="44.32371159154601" lon="12.079058850287337"><ele>6.0</ele><time>2026-04-05T14:49:31.001Z</time></trkpt><trkpt lat="44.323485704885876" lon="12.078882790160351"><ele>6.0</ele><time>2026-04-05T14:49:32.001Z</time></trkpt><trkpt lat="44.323265924656745" lon="12.078708050596664"><ele>6.0</ele><time>2026-04-05T14:49:33.001Z</time></trkpt><trkpt lat="44.32304170441889" lon="12.078533331969714"><ele>6.5</ele><time>2026-04-05T14:49:34.001Z</time></trkpt><trkpt lat="44.322830373107486" lon="12.0783675916078"><ele>7.0</ele><time>2026-04-05T14:49:35.001Z</time></trkpt><trkpt lat="44.32263509554638" lon="12.07821627939102"><ele>7.0</ele><time>2026-04-05T14:49:36.001Z</time></trkpt><trkpt lat="44.3224526677503" lon="12.07804770681217"><ele>7.0</ele><time>2026-04-05T14:49:37.001Z</time></trkpt><trkpt lat="44.32225422050773" lon="12.077890804219184"><ele>7.0</ele><time>2026-04-05T14:49:38.001Z</time></trkpt><trkpt lat="44.32205368791357" lon="12.077736199116542"><ele>7.0</ele><time>2026-04-05T14:49:39.001Z</time></trkpt><trkpt lat="44.32185810804552" lon="12.077614962009974"><ele>7.0</ele><time>2026-04-05T14:49:40.001Z</time></trkpt><trkpt lat="44.321691300275766" lon="12.077489826004362"><ele>7.0</ele><time>2026-04-05T14:49:41.001Z</time></trkpt><trkpt lat="44.32155047031864" lon="12.07737803091775"><ele>7.0</ele><time>2026-04-05T14:49:42.001Z</time></trkpt><trkpt lat="44.321400290438405" lon="12.077276121478011"><ele>7.0</ele><time>2026-04-05T14:49:43.001Z</time></trkpt><trkpt lat="44.321264933085146" lon="12.077186973485787"><ele>7.0</ele><time>2026-04-05T14:49:44.001Z</time></trkpt><trkpt lat="44.321141955850074" lon="12.077103865244187"><ele>7.000000000000001</ele><time>2026-04-05T14:49:45.001Z</time></trkpt><trkpt lat="44.32103880808089" lon="12.07702048212186"><ele>7.0</ele><time>2026-04-05T14:49:46.001Z</time></trkpt><trkpt lat="44.32094418417577" lon="12.07696378369239"><ele>7.0</ele><time>2026-04-05T14:49:47.001Z</time></trkpt><trkpt lat="44.320875872086305" lon="12.076916141379296"><ele>7.0</ele><time>2026-04-05T14:49:48.001Z</time></trkpt><trkpt lat="44.320808497397465" lon="12.076914830586913"><ele>7.000000000000001</ele><time>2026-04-05T14:49:49.001Z</time></trkpt><trkpt lat="44.32074559302422" lon="12.07697089952024"><ele>7.0</ele><time>2026-04-05T14:49:50.001Z</time></trkpt><trkpt lat="44.32069835877139" lon="12.07708101453566"><ele>7.0</ele><time>2026-04-05T14:49:51.001Z</time></trkpt><trkpt lat="44.32065037067999" lon="12.077222266270777"><ele>7.0</ele><time>2026-04-05T14:49:52.001Z</time></trkpt><trkpt lat="44.320584822932375" lon="12.07737503101167"><ele>7.0</ele><time>2026-04-05T14:49:53.001Z</time></trkpt><trkpt lat="44.32049594993192" lon="12.077540515750368"><ele>7.0</ele><time>2026-04-05T14:49:54.001Z</time></trkpt><trkpt lat="44.32039243534537" lon="12.077726463934065"><ele>7.0</ele><time>2026-04-05T14:49:55.001Z</time></trkpt><trkpt lat="44.320285963414264" lon="12.077925988208875"><ele>7.0</ele><time>2026-04-05T14:49:56.002Z</time></trkpt><trkpt lat="44.320173516893476" lon="12.07814527325479"><ele>7.0</ele><time>2026-04-05T14:49:57.002Z</time></trkpt><trkpt lat="44.32006455205388" lon="12.078365389334596"><ele>7.0</ele><time>2026-04-05T14:49:58.002Z</time></trkpt><trkpt lat="44.319945432489355" lon="12.078597047823372"><ele>7.0</ele><time>2026-04-05T14:49:59.002Z</time></trkpt><trkpt lat="44.3198240947162" lon="12.078836480635513"><ele>7.0</ele><time>2026-04-05T14:50:00.002Z</time></trkpt><trkpt lat="44.31970042299008" lon="12.079078126693938"><ele>7.333333333333334</ele><time>2026-04-05T14:50:01.002Z</time></trkpt><trkpt lat="44.31957625208926" lon="12.079322259945002"><ele>7.666666666666666</ele><time>2026-04-05T14:50:02.002Z</time></trkpt><trkpt lat="44.31944766101854" lon="12.079574904912505"><ele>8.0</ele><time>2026-04-05T14:50:03.002Z</time></trkpt><trkpt lat="44.31932297931464" lon="12.079817545600989"><ele>8.333333333333332</ele><time>2026-04-05T14:50:04.002Z</time></trkpt><trkpt lat="44.31919723813166" lon="12.080061596693168"><ele>8.666666666666666</ele><time>2026-04-05T14:50:05.002Z</time></trkpt><trkpt lat="44.3190727674685" lon="12.080292263491286"><ele>9.0</ele><time>2026-04-05T14:50:06.002Z</time></trkpt><trkpt lat="44.318959856685225" lon="12.080510498916762"><ele>9.0</ele><time>2026-04-05T14:50:07.002Z</time></trkpt><trkpt lat="44.31885527034487" lon="12.080724380286895"><ele>9.0</ele><time>2026-04-05T14:50:08.002Z</time></trkpt><trkpt lat="44.31874720672059" lon="12.080938368015843"><ele>9.0</ele><time>2026-04-05T14:50:09.002Z</time></trkpt><trkpt lat="44.31863311721996" lon="12.081157339558848"><ele>9.0</ele><time>2026-04-05T14:50:10.002Z</time></trkpt><trkpt lat="44.31851929130512" lon="12.081382965139227"><ele>9.0</ele><time>2026-04-05T14:50:11.002Z</time></trkpt><trkpt lat="44.318407104562965" lon="12.081611622623276"><ele>9.0</ele><time>2026-04-05T14:50:12.002Z</time></trkpt><trkpt lat="44.31829622112343" lon="12.08184336920154"><ele>9.0</ele><time>2026-04-05T14:50:13.002Z</time></trkpt><trkpt lat="44.3181767001126" lon="12.082077981246293"><ele>9.0</ele><time>2026-04-05T14:50:14.002Z</time></trkpt><trkpt lat="44.318068154506975" lon="12.082299580728666"><ele>9.0</ele><time>2026-04-05T14:50:15.002Z</time></trkpt><trkpt lat="44.31797040040363" lon="12.082494071711656"><ele>8.75</ele><time>2026-04-05T14:50:16.002Z</time></trkpt><trkpt lat="44.317886492913054" lon="12.082668322525915"><ele>8.5</ele><time>2026-04-05T14:50:17.002Z</time></trkpt><trkpt lat="44.31780945011311" lon="12.082818786555212"><ele>8.25</ele><time>2026-04-05T14:50:18.002Z</time></trkpt><trkpt lat="44.31772996483113" lon="12.08296015477952"><ele>8.0</ele><time>2026-04-05T14:50:19.002Z</time></trkpt><trkpt lat="44.31763880708558" lon="12.08305916428314"><ele>8.0</ele><time>2026-04-05T14:50:20.002Z</time></trkpt><trkpt lat="44.31752805766342" lon="12.083100959723687"><ele>8.0</ele><time>2026-04-05T14:50:21.001Z</time></trkpt><trkpt lat="44.31740025283359" lon="12.083082667587046"><ele>8.0</ele><time>2026-04-05T14:50:22.001Z</time></trkpt><trkpt lat="44.31725605002187" lon="12.08302786206242"><ele>8.0</ele><time>2026-04-05T14:50:23.001Z</time></trkpt><trkpt lat="44.3171107286849" lon="12.082953819044173"><ele>8.333333333333332</ele><time>2026-04-05T14:50:24.001Z</time></trkpt><trkpt lat="44.31695026909143" lon="12.082879316311809"><ele>8.666666666666666</ele><time>2026-04-05T14:50:25.001Z</time></trkpt><trkpt lat="44.31679119471601" lon="12.082778150952098"><ele>9.0</ele><time>2026-04-05T14:50:26.001Z</time></trkpt><trkpt lat="44.31662660857407" lon="12.082686673981804"><ele>9.0</ele><time>2026-04-05T14:50:27.001Z</time></trkpt><trkpt lat="44.31645175543695" lon="12.082588421553107"><ele>9.0</ele><time>2026-04-05T14:50:28.001Z</time></trkpt><trkpt lat="44.31626458660202" lon="12.082486190933924"><ele>9.0</ele><time>2026-04-05T14:50:29.001Z</time></trkpt><trkpt lat="44.31607595137015" lon="12.082375041530117"><ele>9.0</ele><time>2026-04-05T14:50:30.001Z</time></trkpt><trkpt lat="44.31587967296375" lon="12.08226258050296"><ele>9.0</ele><time>2026-04-05T14:50:31.001Z</time></trkpt><trkpt lat="44.31568129404905" lon="12.082146179736878"><ele>9.0</ele><time>2026-04-05T14:50:32.001Z</time></trkpt><trkpt lat="44.31548311573903" lon="12.082019229446432"><ele>8.333333333333334</ele><time>2026-04-05T14:50:33.001Z</time></trkpt><trkpt lat="44.31528834296383" lon="12.08188390097924"><ele>7.666666666666667</ele><time>2026-04-05T14:50:34.001Z</time></trkpt><trkpt lat="44.31512311455012" lon="12.081762630150964"><ele>7.0</ele><time>2026-04-05T14:50:35.001Z</time></trkpt><trkpt lat="44.3149967083668" lon="12.081662935500244"><ele>7.0</ele><time>2026-04-05T14:50:36.001Z</time></trkpt><trkpt lat="44.31489260305721" lon="12.081578073583948"><ele>7.0</ele><time>2026-04-05T14:50:37.001Z</time></trkpt><trkpt lat="44.3147849243103" lon="12.081486694410806"><ele>7.0</ele><time>2026-04-05T14:50:38.001Z</time></trkpt><trkpt lat="44.314658908715934" lon="12.081367214880029"><ele>7.0</ele><time>2026-04-05T14:50:39.001Z</time></trkpt><trkpt lat="44.31451841396914" lon="12.081224553797897"><ele>7.666666666666667</ele><time>2026-04-05T14:50:40.001Z</time></trkpt><trkpt lat="44.3143825617076" lon="12.081070544020335"><ele>8.333333333333334</ele><time>2026-04-05T14:50:41.001Z</time></trkpt><trkpt lat="44.31425469568931" lon="12.080908406982113"><ele>9.0</ele><time>2026-04-05T14:50:42.001Z</time></trkpt><trkpt lat="44.314112904542796" lon="12.08075971992896"><ele>9.0</ele><time>2026-04-05T14:50:43.001Z</time></trkpt><trkpt lat="44.313947306447574" lon="12.080647632697843"><ele>9.0</ele><time>2026-04-05T14:50:44.001Z</time></trkpt><trkpt lat="44.313757738747135" lon="12.080557071338736"><ele>9.0</ele><time>2026-04-05T14:50:45.001Z</time></trkpt><trkpt lat="44.31355984967778" lon="12.080491705145295"><ele>8.333333333333334</ele><time>2026-04-05T14:50:46.001Z</time></trkpt><trkpt lat="44.31335460407716" lon="12.080439147182418"><ele>7.666666666666667</ele><time>2026-04-05T14:50:47.001Z</time></trkpt><trkpt lat="44.313154082523866" lon="12.080394063527352"><ele>7.0</ele><time>2026-04-05T14:50:48.001Z</time></trkpt><trkpt lat="44.31294925604192" lon="12.080396122349397"><ele>7.0</ele><time>2026-04-05T14:50:49.001Z</time></trkpt><trkpt lat="44.31274721884407" lon="12.080431213831023"><ele>7.0</ele><time>2026-04-05T14:50:50.001Z</time></trkpt><trkpt lat="44.31255593109863" lon="12.080448624107515"><ele>7.0</ele><time>2026-04-05T14:50:51.001Z</time></trkpt><trkpt lat="44.31238057282706" lon="12.080371062511864"><ele>7.0</ele><time>2026-04-05T14:50:52.001Z</time></trkpt><trkpt lat="44.31221270570997" lon="12.08026326586408"><ele>7.0</ele><time>2026-04-05T14:50:53.001Z</time></trkpt><trkpt lat="44.312044236618604" lon="12.080157325516913"><ele>7.0</ele><time>2026-04-05T14:50:54.001Z</time></trkpt><trkpt lat="44.31190644401471" lon="12.080045128670077"><ele>7.0</ele><time>2026-04-05T14:50:55.001Z</time></trkpt><trkpt lat="44.31177488412674" lon="12.079945317057936"><ele>7.0</ele><time>2026-04-05T14:50:56.001Z</time></trkpt><trkpt lat="44.31166031649639" lon="12.07986518924374"><ele>7.0</ele><time>2026-04-05T14:50:57.001Z</time></trkpt><trkpt lat="44.31156672048199" lon="12.079812493278688"><ele>7.0</ele><time>2026-04-05T14:50:58.001Z</time></trkpt><trkpt lat="44.311484964329594" lon="12.079825966981554"><ele>7.199999999999999</ele><time>2026-04-05T14:50:59.001Z</time></trkpt><trkpt lat="44.311402697369196" lon="12.079885476209599"><ele>7.3999999999999995</ele><time>2026-04-05T14:51:00.001Z</time></trkpt><trkpt lat="44.31135710268353" lon="12.080041443676546"><ele>7.6000000000000005</ele><time>2026-04-05T14:51:01.001Z</time></trkpt><trkpt lat="44.31131460857868" lon="12.080192548324455"><ele>7.800000000000001</ele><time>2026-04-05T14:51:02.001Z</time></trkpt><trkpt lat="44.311260878731616" lon="12.080338763150143"><ele>8.0</ele><time>2026-04-05T14:51:03.001Z</time></trkpt><trkpt lat="44.31120117077473" lon="12.080476784442476"><ele>8.0</ele><time>2026-04-05T14:51:04.001Z</time></trkpt><trkpt lat="44.3111488080955" lon="12.080594129417019"><ele>8.0</ele><time>2026-04-05T14:51:05.001Z</time></trkpt><trkpt lat="44.311091256674466" lon="12.080682432515134"><ele>8.0</ele><time>2026-04-05T14:51:06.001Z</time></trkpt><trkpt lat="44.31101134278622" lon="12.080716739680598"><ele>8.0</ele><time>2026-04-05T14:51:07.001Z</time></trkpt><trkpt lat="44.31091479049542" lon="12.080672510188473"><ele>8.0</ele><time>2026-04-05T14:51:08.001Z</time></trkpt><trkpt lat="44.310815929951005" lon="12.080573262438035"><ele>8.0</ele><time>2026-04-05T14:51:09.001Z</time></trkpt><trkpt lat="44.310706960998964" lon="12.080474291086277"><ele>8.0</ele><time>2026-04-05T14:51:10.001Z</time></trkpt><trkpt lat="44.31058323279661" lon="12.080384735396505"><ele>8.0</ele><time>2026-04-05T14:51:11.001Z</time></trkpt><trkpt lat="44.3104661735338" lon="12.08030606358322"><ele>8.0</ele><time>2026-04-05T14:51:12.001Z</time></trkpt><trkpt lat="44.31034265326086" lon="12.080219865763338"><ele>8.0</ele><time>2026-04-05T14:51:13.001Z</time></trkpt><trkpt lat="44.31020423422439" lon="12.080124101477173"><ele>8.0</ele><time>2026-04-05T14:51:14.001Z</time></trkpt><trkpt lat="44.310055832627135" lon="12.080022853564785"><ele>8.0</ele><time>2026-04-05T14:51:15.001Z</time></trkpt><trkpt lat="44.30990066755696" lon="12.079913573835924"><ele>8.0</ele><time>2026-04-05T14:51:16.001Z</time></trkpt><trkpt lat="44.30972877935929" lon="12.07979558751478"><ele>8.0</ele><time>2026-04-05T14:51:17.001Z</time></trkpt><trkpt lat="44.30955593751817" lon="12.079666169087423"><ele>8.0</ele><time>2026-04-05T14:51:18.001Z</time></trkpt><trkpt lat="44.309382026338774" lon="12.079532913038463"><ele>8.0</ele><time>2026-04-05T14:51:19.001Z</time></trkpt><trkpt lat="44.30919973757176" lon="12.07940465339836"><ele>8.0</ele><time>2026-04-05T14:51:20.001Z</time></trkpt><trkpt lat="44.30901619813269" lon="12.079274720833936"><ele>8.0</ele><time>2026-04-05T14:51:21.001Z</time></trkpt><trkpt lat="44.30882843032686" lon="12.079137900765913"><ele>8.666666666666666</ele><time>2026-04-05T14:51:22.001Z</time></trkpt><trkpt lat="44.308651394046" lon="12.078995834574341"><ele>9.333333333333334</ele><time>2026-04-05T14:51:23.001Z</time></trkpt><trkpt lat="44.30849125921502" lon="12.078845172100356"><ele>10.0</ele><time>2026-04-05T14:51:24.001Z</time></trkpt><trkpt lat="44.308348899353476" lon="12.078700578495189"><ele>10.0</ele><time>2026-04-05T14:51:25.001Z</time></trkpt><trkpt lat="44.30822944389997" lon="12.078582059537512"><ele>10.0</ele><time>2026-04-05T14:51:26.001Z</time></trkpt><trkpt lat="44.30812561011791" lon="12.078494194354645"><ele>10.0</ele><time>2026-04-05T14:51:27.001Z</time></trkpt><trkpt lat="44.308026204967845" lon="12.078468144951392"><ele>10.0</ele><time>2026-04-05T14:51:28.001Z</time></trkpt><trkpt lat="44.30792761107043" lon="12.078531130871525"><ele>9.75</ele><time>2026-04-05T14:51:29.001Z</time></trkpt><trkpt lat="44.30783790194816" lon="12.078659741073372"><ele>9.5</ele><time>2026-04-05T14:51:30.001Z</time></trkpt><trkpt lat="44.3077434097115" lon="12.078818815344997"><ele>9.25</ele><time>2026-04-05T14:51:31.001Z</time></trkpt><trkpt lat="44.30764333231348" lon="12.078958292054226"><ele>9.0</ele><time>2026-04-05T14:51:32.001Z</time></trkpt><trkpt lat="44.30751164551768" lon="12.07906698397443"><ele>9.0</ele><time>2026-04-05T14:51:33.001Z</time></trkpt><trkpt lat="44.3073599044565" lon="12.079070599663103"><ele>9.0</ele><time>2026-04-05T14:51:34.001Z</time></trkpt><trkpt lat="44.30720718184456" lon="12.079046724839454"><ele>9.0</ele><time>2026-04-05T14:51:35.001Z</time></trkpt><trkpt lat="44.30704396993662" lon="12.079019320858265"><ele>9.0</ele><time>2026-04-05T14:51:36.001Z</time></trkpt><trkpt lat="44.30689074483352" lon="12.079016209672446"><ele>9.0</ele><time>2026-04-05T14:51:37.001Z</time></trkpt><trkpt lat="44.30673049482797" lon="12.079074397291857"><ele>9.0</ele><time>2026-04-05T14:51:38.001Z</time></trkpt><trkpt lat="44.3065733956463" lon="12.079183346171638"><ele>9.0</ele><time>2026-04-05T14:51:39.001Z</time></trkpt><trkpt lat="44.306432726823246" lon="12.07935541527874"><ele>9.0</ele><time>2026-04-05T14:51:40.001Z</time></trkpt><trkpt lat="44.30628174861139" lon="12.079533710501753"><ele>9.0</ele><time>2026-04-05T14:51:41.001Z</time></trkpt><trkpt lat="44.30608762339523" lon="12.079638784652005"><ele>9.0</ele><time>2026-04-05T14:51:42.001Z</time></trkpt><trkpt lat="44.305878825546635" lon="12.079747960868987"><ele>9.0</ele><time>2026-04-05T14:51:43.001Z</time></trkpt><trkpt lat="44.30566986780446" lon="12.079882476569482"><ele>10.5</ele><time>2026-04-05T14:51:44.001Z</time></trkpt><trkpt lat="44.305461489286685" lon="12.080042063416537"><ele>12.0</ele><time>2026-04-05T14:51:45.001Z</time></trkpt><trkpt lat="44.30526786810539" lon="12.080259522812153"><ele>12.0</ele><time>2026-04-05T14:51:46.001Z</time></trkpt><trkpt lat="44.30506373805033" lon="12.080473083400411"><ele>12.0</ele><time>2026-04-05T14:51:47.001Z</time></trkpt><trkpt lat="44.30485753905567" lon="12.080704162824281"><ele>11.0</ele><time>2026-04-05T14:51:48.001Z</time></trkpt><trkpt lat="44.30464381690761" lon="12.080937732997127"><ele>10.0</ele><time>2026-04-05T14:51:49.001Z</time></trkpt><trkpt lat="44.304439165986324" lon="12.081134513108907"><ele>10.0</ele><time>2026-04-05T14:51:50.001Z</time></trkpt><trkpt lat="44.30424113049814" lon="12.081307455531915"><ele>10.0</ele><time>2026-04-05T14:51:51.001Z</time></trkpt><trkpt lat="44.304039122635615" lon="12.081430078920672"><ele>10.0</ele><time>2026-04-05T14:51:52.001Z</time></trkpt><trkpt lat="44.30382683635576" lon="12.081482161883576"><ele>10.0</ele><time>2026-04-05T14:51:53.001Z</time></trkpt><trkpt lat="44.30359253006914" lon="12.081503491869203"><ele>10.0</ele><time>2026-04-05T14:51:54.001Z</time></trkpt><trkpt lat="44.3033021389359" lon="12.081543847965445"><ele>10.0</ele><time>2026-04-05T14:51:55.001Z</time></trkpt><trkpt lat="44.30303670973606" lon="12.081553673783642"><ele>10.0</ele><time>2026-04-05T14:51:56.001Z</time></trkpt><trkpt lat="44.30276867811279" lon="12.081573249521975"><ele>10.0</ele><time>2026-04-05T14:51:57.001Z</time></trkpt><trkpt lat="44.30249983821922" lon="12.081603634891025"><ele>10.0</ele><time>2026-04-05T14:51:58.001Z</time></trkpt><trkpt lat="44.302237130878396" lon="12.081635238939345"><ele>10.0</ele><time>2026-04-05T14:51:59.001Z</time></trkpt><trkpt lat="44.30197666901978" lon="12.081665661224847"><ele>10.0</ele><time>2026-04-05T14:52:00.001Z</time></trkpt><trkpt lat="44.30170647159683" lon="12.081693351343219"><ele>10.0</ele><time>2026-04-05T14:52:01.001Z</time></trkpt><trkpt lat="44.30143064137319" lon="12.08172174461104"><ele>10.0</ele><time>2026-04-05T14:52:02.001Z</time></trkpt><trkpt lat="44.30115512397165" lon="12.08174986572613"><ele>10.0</ele><time>2026-04-05T14:52:03.001Z</time></trkpt><trkpt lat="44.30088535571542" lon="12.081776153662952"><ele>10.0</ele><time>2026-04-05T14:52:04.001Z</time></trkpt><trkpt lat="44.300641523286615" lon="12.081799639622668"><ele>10.0</ele><time>2026-04-05T14:52:05.001Z</time></trkpt><trkpt lat="44.30041348262754" lon="12.081831387585442"><ele>10.0</ele><time>2026-04-05T14:52:06.001Z</time></trkpt><trkpt lat="44.300193861598544" lon="12.081871133915472"><ele>10.0</ele><time>2026-04-05T14:52:07.001Z</time></trkpt><trkpt lat="44.29996301329186" lon="12.08190325097297"><ele>11.0</ele><time>2026-04-05T14:52:08.001Z</time></trkpt><trkpt lat="44.29972526042878" lon="12.08193695282677"><ele>12.0</ele><time>2026-04-05T14:52:09.001Z</time></trkpt><trkpt lat="44.29947544772188" lon="12.081944497584661"><ele>12.0</ele><time>2026-04-05T14:52:10.001Z</time></trkpt><trkpt lat="44.2992178408772" lon="12.081945549200052"><ele>12.0</ele><time>2026-04-05T14:52:11.001Z</time></trkpt><trkpt lat="44.29896187230775" lon="12.08194539611319"><ele>12.5</ele><time>2026-04-05T14:52:12.001Z</time></trkpt><trkpt lat="44.29869463091919" lon="12.081950886396475"><ele>13.0</ele><time>2026-04-05T14:52:13.001Z</time></trkpt><trkpt lat="44.298437997368" lon="12.081957568867487"><ele>13.0</ele><time>2026-04-05T14:52:14.001Z</time></trkpt><trkpt lat="44.29820818085601" lon="12.08196630621718"><ele>13.0</ele><time>2026-04-05T14:52:15.001Z</time></trkpt><trkpt lat="44.29800318388426" lon="12.081972966526621"><ele>13.0</ele><time>2026-04-05T14:52:16.001Z</time></trkpt><trkpt lat="44.29783509961034" lon="12.081978515736461"><ele>12.75</ele><time>2026-04-05T14:52:17.001Z</time></trkpt><trkpt lat="44.29770992768551" lon="12.08199081617127"><ele>12.5</ele><time>2026-04-05T14:52:18.001Z</time></trkpt><trkpt lat="44.29761224841042" lon="12.082053553223066"><ele>12.25</ele><time>2026-04-05T14:52:19.001Z</time></trkpt><trkpt lat="44.29752946730826" lon="12.082194648295824"><ele>12.0</ele><time>2026-04-05T14:52:20.001Z</time></trkpt><trkpt lat="44.29750685327119" lon="12.082426558261382"><ele>11.666666666666666</ele><time>2026-04-05T14:52:21.002Z</time></trkpt><trkpt lat="44.29746216975012" lon="12.08265771142021"><ele>11.333333333333332</ele><time>2026-04-05T14:52:22.002Z</time></trkpt><trkpt lat="44.29741164216189" lon="12.082899754795825"><ele>11.0</ele><time>2026-04-05T14:52:23.002Z</time></trkpt><trkpt lat="44.29735788579973" lon="12.083157265107763"><ele>11.0</ele><time>2026-04-05T14:52:24.002Z</time></trkpt><trkpt lat="44.29730241939748" lon="12.083422967115109"><ele>11.0</ele><time>2026-04-05T14:52:25.002Z</time></trkpt><trkpt lat="44.297243588938215" lon="12.08369990642762"><ele>11.0</ele><time>2026-04-05T14:52:26.002Z</time></trkpt><trkpt lat="44.29718454277331" lon="12.083972807321432"><ele>11.0</ele><time>2026-04-05T14:52:27.001Z</time></trkpt><trkpt lat="44.29712579601862" lon="12.084251310027586"><ele>11.0</ele><time>2026-04-05T14:52:28.001Z</time></trkpt><trkpt lat="44.29707143630936" lon="12.084517848034652"><ele>11.0</ele><time>2026-04-05T14:52:29.001Z</time></trkpt><trkpt lat="44.29702343226416" lon="12.084751626753768"><ele>11.0</ele><time>2026-04-05T14:52:30.001Z</time></trkpt><trkpt lat="44.29697939079445" lon="12.084956388851479"><ele>11.0</ele><time>2026-04-05T14:52:31.001Z</time></trkpt><trkpt lat="44.29693898514276" lon="12.085118581486247"><ele>11.0</ele><time>2026-04-05T14:52:32.001Z</time></trkpt><trkpt lat="44.296887841915044" lon="12.085253641271928"><ele>11.0</ele><time>2026-04-05T14:52:33.001Z</time></trkpt><trkpt lat="44.296819301482344" lon="12.085362947329891"><ele>11.0</ele><time>2026-04-05T14:52:34.001Z</time></trkpt><trkpt lat="44.29669107577609" lon="12.085373558878427"><ele>11.0</ele><time>2026-04-05T14:52:35.001Z</time></trkpt><trkpt lat="44.29656945524952" lon="12.08525625870842"><ele>11.0</ele><time>2026-04-05T14:52:36.001Z</time></trkpt><trkpt lat="44.29641842854689" lon="12.085170917603548"><ele>11.0</ele><time>2026-04-05T14:52:37.001Z</time></trkpt><trkpt lat="44.296258898907425" lon="12.08508794346726"><ele>11.0</ele><time>2026-04-05T14:52:38.001Z</time></trkpt><trkpt lat="44.29609334225219" lon="12.084991569164076"><ele>11.0</ele><time>2026-04-05T14:52:39.001Z</time></trkpt><trkpt lat="44.295902394482454" lon="12.084881372709969"><ele>11.0</ele><time>2026-04-05T14:52:40.001Z</time></trkpt><trkpt lat="44.29573485622848" lon="12.084798163677567"><ele>12.0</ele><time>2026-04-05T14:52:41.001Z</time></trkpt><trkpt lat="44.29552278984323" lon="12.08467742247171"><ele>13.0</ele><time>2026-04-05T14:52:42.001Z</time></trkpt><trkpt lat="44.29531477945517" lon="12.084555235023881"><ele>13.0</ele><time>2026-04-05T14:52:43.001Z</time></trkpt><trkpt lat="44.29510433059407" lon="12.084433329409247"><ele>13.0</ele><time>2026-04-05T14:52:44.001Z</time></trkpt><trkpt lat="44.294886932229296" lon="12.084308600584828"><ele>13.0</ele><time>2026-04-05T14:52:45.001Z</time></trkpt><trkpt lat="44.294665002437036" lon="12.084180069188665"><ele>13.0</ele><time>2026-04-05T14:52:46.001Z</time></trkpt><trkpt lat="44.294450295025904" lon="12.084051925342562"><ele>12.666666666666666</ele><time>2026-04-05T14:52:47.001Z</time></trkpt><trkpt lat="44.29426233580516" lon="12.083931267658093"><ele>12.333333333333332</ele><time>2026-04-05T14:52:48.001Z</time></trkpt><trkpt lat="44.29408986563138" lon="12.083824376305325"><ele>12.0</ele><time>2026-04-05T14:52:49.001Z</time></trkpt><trkpt lat="44.29392381418655" lon="12.083734699710272"><ele>12.666666666666668</ele><time>2026-04-05T14:52:50.001Z</time></trkpt><trkpt lat="44.293760909123094" lon="12.083739219597568"><ele>13.333333333333334</ele><time>2026-04-05T14:52:51.001Z</time></trkpt><trkpt lat="44.29360558833727" lon="12.083827847714801"><ele>14.0</ele><time>2026-04-05T14:52:52.001Z</time></trkpt><trkpt lat="44.29341757742694" lon="12.083924569234064"><ele>14.0</ele><time>2026-04-05T14:52:53.001Z</time></trkpt><trkpt lat="44.29322638631505" lon="12.084034880077994"><ele>14.0</ele><time>2026-04-05T14:52:54.001Z</time></trkpt><trkpt lat="44.29304913379335" lon="12.08415070045555"><ele>14.0</ele><time>2026-04-05T14:52:55.001Z</time></trkpt><trkpt lat="44.29288222155127" lon="12.084199492631946"><ele>14.0</ele><time>2026-04-05T14:52:56.001Z</time></trkpt><trkpt lat="44.2927188851744" lon="12.08419663541474"><ele>14.0</ele><time>2026-04-05T14:52:57.001Z</time></trkpt><trkpt lat="44.2925696051214" lon="12.084107195431223"><ele>14.0</ele><time>2026-04-05T14:52:58.001Z</time></trkpt><trkpt lat="44.29240202473073" lon="12.083984560402001"><ele>13.333333333333334</ele><time>2026-04-05T14:52:59.001Z</time></trkpt><trkpt lat="44.2922271606926" lon="12.083858410781263"><ele>12.666666666666668</ele><time>2026-04-05T14:53:00.001Z</time></trkpt><trkpt lat="44.292046750809206" lon="12.083730447291838"><ele>12.0</ele><time>2026-04-05T14:53:01.001Z</time></trkpt><trkpt lat="44.29185792089122" lon="12.083596877385382"><ele>12.0</ele><time>2026-04-05T14:53:02.001Z</time></trkpt><trkpt lat="44.29166802823141" lon="12.083463568064092"><ele>12.0</ele><time>2026-04-05T14:53:03.001Z</time></trkpt><trkpt lat="44.29147062803234" lon="12.08334964195376"><ele>12.0</ele><time>2026-04-05T14:53:04.001Z</time></trkpt><trkpt lat="44.29128715658827" lon="12.083238682403545"><ele>12.333333333333332</ele><time>2026-04-05T14:53:05.001Z</time></trkpt><trkpt lat="44.29108128276266" lon="12.08317904686671"><ele>12.666666666666666</ele><time>2026-04-05T14:53:06.001Z</time></trkpt><trkpt lat="44.29086284223795" lon="12.083159492852618"><ele>13.0</ele><time>2026-04-05T14:53:07.001Z</time></trkpt><trkpt lat="44.29064404788028" lon="12.083131966625452"><ele>12.666666666666666</ele><time>2026-04-05T14:53:08.001Z</time></trkpt><trkpt lat="44.29044007383553" lon="12.083104030172024"><ele>12.333333333333332</ele><time>2026-04-05T14:53:09.001Z</time></trkpt><trkpt lat="44.29025207470725" lon="12.083110462814576"><ele>12.0</ele><time>2026-04-05T14:53:10.001Z</time></trkpt><trkpt lat="44.29008694526816" lon="12.08313678082032"><ele>12.0</ele><time>2026-04-05T14:53:11.001Z</time></trkpt><trkpt lat="44.28997003196826" lon="12.083162917156137"><ele>12.0</ele><time>2026-04-05T14:53:12.001Z</time></trkpt><trkpt lat="44.28989014299702" lon="12.083180512867798"><ele>12.0</ele><time>2026-04-05T14:53:13.001Z</time></trkpt><trkpt lat="44.28979865359638" lon="12.083195884757421"><ele>12.0</ele><time>2026-04-05T14:53:14.001Z</time></trkpt><trkpt lat="44.289668689604824" lon="12.083225813638583"><ele>12.0</ele><time>2026-04-05T14:53:15.001Z</time></trkpt><trkpt lat="44.2895168464199" lon="12.08326247806326"><ele>12.333333333333332</ele><time>2026-04-05T14:53:16.001Z</time></trkpt><trkpt lat="44.28934290416213" lon="12.083304342599448"><ele>12.666666666666666</ele><time>2026-04-05T14:53:17.001Z</time></trkpt><trkpt lat="44.28915693349102" lon="12.083344111386872"><ele>13.0</ele><time>2026-04-05T14:53:18.001Z</time></trkpt><trkpt lat="44.28896393589473" lon="12.083388034100063"><ele>13.333333333333332</ele><time>2026-04-05T14:53:19.001Z</time></trkpt><trkpt lat="44.2887582876122" lon="12.083433968350919"><ele>13.666666666666668</ele><time>2026-04-05T14:53:20.001Z</time></trkpt><trkpt lat="44.288547399009786" lon="12.083481878358374"><ele>14.0</ele><time>2026-04-05T14:53:21.001Z</time></trkpt><trkpt lat="44.288332006825506" lon="12.083530708025984"><ele>14.0</ele><time>2026-04-05T14:53:22.001Z</time></trkpt><trkpt lat="44.28812045913286" lon="12.083583193024808"><ele>14.0</ele><time>2026-04-05T14:53:23.001Z</time></trkpt><trkpt lat="44.287925462140954" lon="12.083632507507179"><ele>14.0</ele><time>2026-04-05T14:53:24.001Z</time></trkpt><trkpt lat="44.28774930491896" lon="12.083678065556857"><ele>13.333333333333334</ele><time>2026-04-05T14:53:25.001Z</time></trkpt><trkpt lat="44.287578086699526" lon="12.083703756948033"><ele>12.666666666666668</ele><time>2026-04-05T14:53:26.001Z</time></trkpt><trkpt lat="44.28742560295994" lon="12.08368065549252"><ele>12.0</ele><time>2026-04-05T14:53:27.001Z</time></trkpt><trkpt lat="44.28731036208488" lon="12.08354898902868"><ele>12.0</ele><time>2026-04-05T14:53:28.001Z</time></trkpt><trkpt lat="44.28719906202441" lon="12.0833819249763"><ele>12.0</ele><time>2026-04-05T14:53:29.001Z</time></trkpt><trkpt lat="44.287067841784015" lon="12.083204917174418"><ele>12.0</ele><time>2026-04-05T14:53:30.001Z</time></trkpt><trkpt lat="44.28693878169003" lon="12.083013234411156"><ele>12.333333333333332</ele><time>2026-04-05T14:53:31.001Z</time></trkpt><trkpt lat="44.286800135161414" lon="12.082817402061263"><ele>12.666666666666666</ele><time>2026-04-05T14:53:32.001Z</time></trkpt><trkpt lat="44.28665295383022" lon="12.082613010715908"><ele>13.0</ele><time>2026-04-05T14:53:33.001Z</time></trkpt><trkpt lat="44.286498783804085" lon="12.08239976212479"><ele>13.0</ele><time>2026-04-05T14:53:34.001Z</time></trkpt><trkpt lat="44.286341396500205" lon="12.082171976401359"><ele>13.0</ele><time>2026-04-05T14:53:35.001Z</time></trkpt><trkpt lat="44.28620222116263" lon="12.081953636913509"><ele>13.0</ele><time>2026-04-05T14:53:36.001Z</time></trkpt><trkpt lat="44.28609204104525" lon="12.08175006398053"><ele>13.0</ele><time>2026-04-05T14:53:37.001Z</time></trkpt><trkpt lat="44.28601116966037" lon="12.08157670808395"><ele>13.0</ele><time>2026-04-05T14:53:38.001Z</time></trkpt><trkpt lat="44.285948910789635" lon="12.081446973110607"><ele>13.0</ele><time>2026-04-05T14:53:39.001Z</time></trkpt><trkpt lat="44.28590632612161" lon="12.081365617603087"><ele>13.0</ele><time>2026-04-05T14:53:40.001Z</time></trkpt><trkpt lat="44.285858172117095" lon="12.081305571155704"><ele>13.0</ele><time>2026-04-05T14:53:42.001Z</time></trkpt><trkpt lat="44.28575286122998" lon="12.081442714583346"><ele>13.0</ele><time>2026-04-05T14:53:43.001Z</time></trkpt><trkpt lat="44.28569851891856" lon="12.081553819576335"><ele>13.0</ele><time>2026-04-05T14:53:44.001Z</time></trkpt><trkpt lat="44.285631972211924" lon="12.08167494957818"><ele>13.0</ele><time>2026-04-05T14:53:45.001Z</time></trkpt><trkpt lat="44.28554669643612" lon="12.081804548529913"><ele>13.0</ele><time>2026-04-05T14:53:46.001Z</time></trkpt><trkpt lat="44.285465781800895" lon="12.081953524358632"><ele>13.0</ele><time>2026-04-05T14:53:47.001Z</time></trkpt><trkpt lat="44.285379441405595" lon="12.082099992199542"><ele>13.0</ele><time>2026-04-05T14:53:48.001Z</time></trkpt><trkpt lat="44.28527895041551" lon="12.082268787730904"><ele>13.0</ele><time>2026-04-05T14:53:49.001Z</time></trkpt><trkpt lat="44.28517411723816" lon="12.082449338994564"><ele>12.666666666666666</ele><time>2026-04-05T14:53:50.001Z</time></trkpt><trkpt lat="44.28506086822199" lon="12.082641890409757"><ele>12.333333333333332</ele><time>2026-04-05T14:53:51.001Z</time></trkpt><trkpt lat="44.2849471293531" lon="12.082840103778306"><ele>12.0</ele><time>2026-04-05T14:53:52.001Z</time></trkpt><trkpt lat="44.28483458865401" lon="12.08301969241923"><ele>12.25</ele><time>2026-04-05T14:53:53.001Z</time></trkpt><trkpt lat="44.28474427851261" lon="12.083180782113677"><ele>12.5</ele><time>2026-04-05T14:53:54.001Z</time></trkpt><trkpt lat="44.28466947000739" lon="12.083342237542396"><ele>12.75</ele><time>2026-04-05T14:53:55.001Z</time></trkpt><trkpt lat="44.284617311019055" lon="12.08350783890521"><ele>13.0</ele><time>2026-04-05T14:53:56.001Z</time></trkpt><trkpt lat="44.284578203513554" lon="12.083668806245534"><ele>13.2</ele><time>2026-04-05T14:53:57.001Z</time></trkpt><trkpt lat="44.284549931077194" lon="12.08381819847987"><ele>13.4</ele><time>2026-04-05T14:53:58.001Z</time></trkpt><trkpt lat="44.28451804131926" lon="12.083947922237753"><ele>13.599999999999998</ele><time>2026-04-05T14:53:59.001Z</time></trkpt><trkpt lat="44.28447737708692" lon="12.084067930632443"><ele>13.799999999999999</ele><time>2026-04-05T14:54:00.001Z</time></trkpt><trkpt lat="44.28444164432506" lon="12.084181126753279"><ele>14.0</ele><time>2026-04-05T14:54:01.001Z</time></trkpt><trkpt lat="44.28441507169103" lon="12.084302938473156"><ele>14.000000000000002</ele><time>2026-04-05T14:54:02.001Z</time></trkpt><trkpt lat="44.28436862259623" lon="12.084414811107072"><ele>14.0</ele><time>2026-04-05T14:54:03.001Z</time></trkpt><trkpt lat="44.28431665065149" lon="12.084518524548548"><ele>14.0</ele><time>2026-04-05T14:54:04.001Z</time></trkpt><trkpt lat="44.28427178782614" lon="12.084627760466276"><ele>14.0</ele><time>2026-04-05T14:54:05.001Z</time></trkpt><trkpt lat="44.28422450208564" lon="12.084730735977349"><ele>14.000000000000002</ele><time>2026-04-05T14:54:06.001Z</time></trkpt><trkpt lat="44.284179855128606" lon="12.08483235531686"><ele>14.0</ele><time>2026-04-05T14:54:07.001Z</time></trkpt><trkpt lat="44.284132241091015" lon="12.08492577353872"><ele>13.666666666666668</ele><time>2026-04-05T14:54:08.001Z</time></trkpt><trkpt lat="44.28409988475911" lon="12.085036531187393"><ele>13.333333333333334</ele><time>2026-04-05T14:54:09.001Z</time></trkpt><trkpt lat="44.2840856390312" lon="12.085150170177126"><ele>13.0</ele><time>2026-04-05T14:54:10.001Z</time></trkpt><trkpt lat="44.284075877012924" lon="12.085270049524555"><ele>12.666666666666668</ele><time>2026-04-05T14:54:11.001Z</time></trkpt><trkpt lat="44.284131618408196" lon="12.085385862229877"><ele>12.333333333333334</ele><time>2026-04-05T14:54:12.001Z</time></trkpt><trkpt lat="44.28418268371775" lon="12.085493082837642"><ele>12.0</ele><time>2026-04-05T14:54:13.001Z</time></trkpt><trkpt lat="44.28422422684385" lon="12.085605196824003"><ele>12.0</ele><time>2026-04-05T14:54:14.001Z</time></trkpt><trkpt lat="44.28426674800976" lon="12.085705673580193"><ele>12.0</ele><time>2026-04-05T14:54:15.001Z</time></trkpt><trkpt lat="44.28429706569498" lon="12.085822872846984"><ele>12.0</ele><time>2026-04-05T14:54:16.001Z</time></trkpt><trkpt lat="44.284283939489356" lon="12.085954304122044"><ele>12.0</ele><time>2026-04-05T14:54:17.001Z</time></trkpt><trkpt lat="44.284253933419" lon="12.086091735958238"><ele>12.0</ele><time>2026-04-05T14:54:18.001Z</time></trkpt><trkpt lat="44.284231653289645" lon="12.086247755956279"><ele>12.0</ele><time>2026-04-05T14:54:19.001Z</time></trkpt><trkpt lat="44.284183801345044" lon="12.08639124299629"><ele>12.0</ele><time>2026-04-05T14:54:20.001Z</time></trkpt><trkpt lat="44.284146633207335" lon="12.086549010244212"><ele>12.0</ele><time>2026-04-05T14:54:21.001Z</time></trkpt><trkpt lat="44.284123920665955" lon="12.086716933152788"><ele>12.0</ele><time>2026-04-05T14:54:22.001Z</time></trkpt><trkpt lat="44.28408029023171" lon="12.08687698862377"><ele>11.75</ele><time>2026-04-05T14:54:23.001Z</time></trkpt><trkpt lat="44.28404510267598" lon="12.08703730010604"><ele>11.5</ele><time>2026-04-05T14:54:24.001Z</time></trkpt><trkpt lat="44.28400631893461" lon="12.087199222340855"><ele>11.25</ele><time>2026-04-05T14:54:25.001Z</time></trkpt><trkpt lat="44.28396630491823" lon="12.087362241845952"><ele>11.0</ele><time>2026-04-05T14:54:26.001Z</time></trkpt><trkpt lat="44.283927153949726" lon="12.087541072861049"><ele>11.0</ele><time>2026-04-05T14:54:27.001Z</time></trkpt><trkpt lat="44.28389594902731" lon="12.08771679354427"><ele>11.0</ele><time>2026-04-05T14:54:28.001Z</time></trkpt><trkpt lat="44.283870690778755" lon="12.087897176956837"><ele>11.0</ele><time>2026-04-05T14:54:29.001Z</time></trkpt><trkpt lat="44.28383876627503" lon="12.088078982519898"><ele>11.0</ele><time>2026-04-05T14:54:30.001Z</time></trkpt><trkpt lat="44.28381845417468" lon="12.088267649385303"><ele>11.0</ele><time>2026-04-05T14:54:31.001Z</time></trkpt><trkpt lat="44.28378967471052" lon="12.088460149584671"><ele>11.0</ele><time>2026-04-05T14:54:32.001Z</time></trkpt><trkpt lat="44.28376548632066" lon="12.08864447068209"><ele>11.0</ele><time>2026-04-05T14:54:33.001Z</time></trkpt><trkpt lat="44.28374151314812" lon="12.088831378952428"><ele>11.0</ele><time>2026-04-05T14:54:34.001Z</time></trkpt><trkpt lat="44.283718762564995" lon="12.089024991649774"><ele>11.0</ele><time>2026-04-05T14:54:35.001Z</time></trkpt><trkpt lat="44.28370888195588" lon="12.089230056275248"><ele>11.0</ele><time>2026-04-05T14:54:36.001Z</time></trkpt><trkpt lat="44.28368453433923" lon="12.089440698926284"><ele>11.0</ele><time>2026-04-05T14:54:37.001Z</time></trkpt><trkpt lat="44.28367539019462" lon="12.089655958274392"><ele>11.0</ele><time>2026-04-05T14:54:38.001Z</time></trkpt><trkpt lat="44.283683569563905" lon="12.089889150144787"><ele>11.0</ele><time>2026-04-05T14:54:39.001Z</time></trkpt><trkpt lat="44.28367399202948" lon="12.090126673967974"><ele>11.0</ele><time>2026-04-05T14:54:40.001Z</time></trkpt><trkpt lat="44.28366451079087" lon="12.090366836244211"><ele>11.333333333333332</ele><time>2026-04-05T14:54:41.001Z</time></trkpt><trkpt lat="44.283646727001056" lon="12.090624843400075"><ele>11.666666666666666</ele><time>2026-04-05T14:54:42.001Z</time></trkpt><trkpt lat="44.28358329346006" lon="12.09090523802291"><ele>12.0</ele><time>2026-04-05T14:54:43.001Z</time></trkpt><trkpt lat="44.28349598559241" lon="12.091161386283435"><ele>13.0</ele><time>2026-04-05T14:54:44.001Z</time></trkpt><trkpt lat="44.283394849388934" lon="12.091426637176998"><ele>14.0</ele><time>2026-04-05T14:54:45.001Z</time></trkpt><trkpt lat="44.28329129319264" lon="12.09172810118392"><ele>14.0</ele><time>2026-04-05T14:54:46.001Z</time></trkpt><trkpt lat="44.283174230300745" lon="12.092019249458444"><ele>14.0</ele><time>2026-04-05T14:54:47.001Z</time></trkpt><trkpt lat="44.28307297065499" lon="12.092286675370179"><ele>13.333333333333334</ele><time>2026-04-05T14:54:48.001Z</time></trkpt><trkpt lat="44.28299388659407" lon="12.09243920070206"><ele>12.666666666666668</ele><time>2026-04-05T14:54:49.001Z</time></trkpt><trkpt lat="44.2829238535021" lon="12.092616395477974"><ele>12.0</ele><time>2026-04-05T14:54:50.001Z</time></trkpt><trkpt lat="44.2827483516276" lon="12.093070755362275"><ele>12.333333333333332</ele><time>2026-04-05T14:54:51.001Z</time></trkpt><trkpt lat="44.282678489544324" lon="12.093340058572089"><ele>12.666666666666666</ele><time>2026-04-05T14:54:52.001Z</time></trkpt><trkpt lat="44.2826196769004" lon="12.093591621191305"><ele>13.0</ele><time>2026-04-05T14:54:53.001Z</time></trkpt><trkpt lat="44.28258320298005" lon="12.093864934084516"><ele>12.666666666666666</ele><time>2026-04-05T14:54:54.001Z</time></trkpt><trkpt lat="44.282556239431614" lon="12.094124825828507"><ele>12.333333333333332</ele><time>2026-04-05T14:54:55.001Z</time></trkpt><trkpt lat="44.282525872228646" lon="12.094353575326618"><ele>12.0</ele><time>2026-04-05T14:54:56.001Z</time></trkpt><trkpt lat="44.28249606700444" lon="12.094544011014161"><ele>12.0</ele><time>2026-04-05T14:54:57.001Z</time></trkpt><trkpt lat="44.28247959102543" lon="12.094690123093349"><ele>12.0</ele><time>2026-04-05T14:54:58.001Z</time></trkpt><trkpt lat="44.28250510658431" lon="12.094800936446463"><ele>12.0</ele><time>2026-04-05T14:54:59.001Z</time></trkpt><trkpt lat="44.28258893073825" lon="12.094910114172167"><ele>12.0</ele><time>2026-04-05T14:55:00.001Z</time></trkpt><trkpt lat="44.282726169825054" lon="12.09498907846074"><ele>11.75</ele><time>2026-04-05T14:55:01.001Z</time></trkpt><trkpt lat="44.282881348545004" lon="12.09503798316681"><ele>11.5</ele><time>2026-04-05T14:55:02.001Z</time></trkpt><trkpt lat="44.28298640070383" lon="12.095137032251818"><ele>11.25</ele><time>2026-04-05T14:55:03.001Z</time></trkpt><trkpt lat="44.28307238669985" lon="12.095264016206245"><ele>11.0</ele><time>2026-04-05T14:55:04.001Z</time></trkpt><trkpt lat="44.28312434485309" lon="12.095433915856802"><ele>10.75</ele><time>2026-04-05T14:55:05.001Z</time></trkpt><trkpt lat="44.28313025062585" lon="12.095608430398029"><ele>10.5</ele><time>2026-04-05T14:55:06.001Z</time></trkpt><trkpt lat="44.283097053228076" lon="12.095775993695561"><ele>10.25</ele><time>2026-04-05T14:55:07.001Z</time></trkpt><trkpt lat="44.28304644242098" lon="12.095952446823395"><ele>10.0</ele><time>2026-04-05T14:55:08.001Z</time></trkpt><trkpt lat="44.28299465048882" lon="12.096140019503082"><ele>10.0</ele><time>2026-04-05T14:55:09.001Z</time></trkpt><trkpt lat="44.282936379746566" lon="12.09634275622326"><ele>10.0</ele><time>2026-04-05T14:55:10.001Z</time></trkpt><trkpt lat="44.282871107062384" lon="12.096553393175634"><ele>10.0</ele><time>2026-04-05T14:55:11.001Z</time></trkpt><trkpt lat="44.28280077705277" lon="12.096773894251042"><ele>10.666666666666668</ele><time>2026-04-05T14:55:12.001Z</time></trkpt><trkpt lat="44.28272922106022" lon="12.096998239915845"><ele>11.333333333333334</ele><time>2026-04-05T14:55:13.001Z</time></trkpt><trkpt lat="44.28266785144008" lon="12.097235830732812"><ele>12.0</ele><time>2026-04-05T14:55:14.001Z</time></trkpt><trkpt lat="44.282597445138826" lon="12.097461294318013"><ele>12.333333333333332</ele><time>2026-04-05T14:55:15.001Z</time></trkpt><trkpt lat="44.28252592993437" lon="12.097688257091662"><ele>12.666666666666666</ele><time>2026-04-05T14:55:16.001Z</time></trkpt><trkpt lat="44.282459224951154" lon="12.097897783225042"><ele>13.0</ele><time>2026-04-05T14:55:17.001Z</time></trkpt><trkpt lat="44.282390368891534" lon="12.09810577710407"><ele>12.666666666666666</ele><time>2026-04-05T14:55:18.001Z</time></trkpt><trkpt lat="44.28231783070772" lon="12.098322231403898"><ele>12.333333333333332</ele><time>2026-04-05T14:55:19.001Z</time></trkpt><trkpt lat="44.28224769369921" lon="12.09854243442815"><ele>12.0</ele><time>2026-04-05T14:55:20.001Z</time></trkpt><trkpt lat="44.28218208815135" lon="12.098757613037282"><ele>12.0</ele><time>2026-04-05T14:55:21.001Z</time></trkpt><trkpt lat="44.282119407708755" lon="12.098968953202123"><ele>12.0</ele><time>2026-04-05T14:55:22.001Z</time></trkpt><trkpt lat="44.2820564437027" lon="12.099182188081349"><ele>12.0</ele><time>2026-04-05T14:55:23.001Z</time></trkpt><trkpt lat="44.28200006639736" lon="12.099396781447565"><ele>12.666666666666668</ele><time>2026-04-05T14:55:24.001Z</time></trkpt><trkpt lat="44.2819247238578" lon="12.099601407500737"><ele>13.333333333333334</ele><time>2026-04-05T14:55:25.001Z</time></trkpt><trkpt lat="44.28187690597442" lon="12.099827097331382"><ele>14.0</ele><time>2026-04-05T14:55:26.001Z</time></trkpt><trkpt lat="44.2818149545083" lon="12.100048764410309"><ele>14.333333333333334</ele><time>2026-04-05T14:55:27.001Z</time></trkpt><trkpt lat="44.28173652635806" lon="12.100265067309515"><ele>14.666666666666668</ele><time>2026-04-05T14:55:28.001Z</time></trkpt><trkpt lat="44.28167227625656" lon="12.100492522066872"><ele>15.0</ele><time>2026-04-05T14:55:29.001Z</time></trkpt><trkpt lat="44.281612245419204" lon="12.100705040113912"><ele>14.75</ele><time>2026-04-05T14:55:30.001Z</time></trkpt><trkpt lat="44.28155497195953" lon="12.100907796710574"><ele>14.5</ele><time>2026-04-05T14:55:31.001Z</time></trkpt><trkpt lat="44.28150009430968" lon="12.101100256642985"><ele>14.25</ele><time>2026-04-05T14:55:32.001Z</time></trkpt><trkpt lat="44.28144715734014" lon="12.10128385471575"><ele>14.0</ele><time>2026-04-05T14:55:33.001Z</time></trkpt><trkpt lat="44.28139897843754" lon="12.1014509503806"><ele>13.75</ele><time>2026-04-05T14:55:34.001Z</time></trkpt><trkpt lat="44.281350825946696" lon="12.101615978030686"><ele>13.5</ele><time>2026-04-05T14:55:35.001Z</time></trkpt><trkpt lat="44.281300980056955" lon="12.101783114378858"><ele>13.25</ele><time>2026-04-05T14:55:36.001Z</time></trkpt><trkpt lat="44.28124875873617" lon="12.101956242561126"><ele>13.0</ele><time>2026-04-05T14:55:37.001Z</time></trkpt><trkpt lat="44.281193453185246" lon="12.102133460590556"><ele>13.0</ele><time>2026-04-05T14:55:38.001Z</time></trkpt><trkpt lat="44.28114827257748" lon="12.102324951531184"><ele>13.0</ele><time>2026-04-05T14:55:39.001Z</time></trkpt><trkpt lat="44.28108287410152" lon="12.102507713421103"><ele>13.0</ele><time>2026-04-05T14:55:40.001Z</time></trkpt><trkpt lat="44.281016661019706" lon="12.102696517935755"><ele>13.0</ele><time>2026-04-05T14:55:41.001Z</time></trkpt><trkpt lat="44.28096120604315" lon="12.102869375204007"><ele>13.0</ele><time>2026-04-05T14:55:42.001Z</time></trkpt><trkpt lat="44.28091277858785" lon="12.10302683572749"><ele>13.0</ele><time>2026-04-05T14:55:43.001Z</time></trkpt><trkpt lat="44.280863954819935" lon="12.103177154354384"><ele>13.0</ele><time>2026-04-05T14:55:44.001Z</time></trkpt><trkpt lat="44.28081154050749" lon="12.10334072174283"><ele>13.0</ele><time>2026-04-05T14:55:45.001Z</time></trkpt><trkpt lat="44.28075180982132" lon="12.103531380815461"><ele>13.0</ele><time>2026-04-05T14:55:46.001Z</time></trkpt><trkpt lat="44.280692021833204" lon="12.103725059994046"><ele>13.0</ele><time>2026-04-05T14:55:47.001Z</time></trkpt><trkpt lat="44.2806320343903" lon="12.103920342138329"><ele>13.0</ele><time>2026-04-05T14:55:48.001Z</time></trkpt><trkpt lat="44.28057356425294" lon="12.10411200230811"><ele>13.0</ele><time>2026-04-05T14:55:49.001Z</time></trkpt><trkpt lat="44.28051379152517" lon="12.104305339421765"><ele>13.0</ele><time>2026-04-05T14:55:50.001Z</time></trkpt><trkpt lat="44.28046192499569" lon="12.10448201228737"><ele>13.0</ele><time>2026-04-05T14:55:51.001Z</time></trkpt><trkpt lat="44.28041139673398" lon="12.104648934132078"><ele>13.0</ele><time>2026-04-05T14:55:52.001Z</time></trkpt><trkpt lat="44.280367912353825" lon="12.104805758600222"><ele>12.8</ele><time>2026-04-05T14:55:53.001Z</time></trkpt><trkpt lat="44.280326215238325" lon="12.104935628457744"><ele>12.600000000000001</ele><time>2026-04-05T14:55:54.001Z</time></trkpt><trkpt lat="44.280286767137355" lon="12.105047706060079"><ele>12.399999999999999</ele><time>2026-04-05T14:55:55.001Z</time></trkpt><trkpt lat="44.28025504166242" lon="12.105138913553967"><ele>12.2</ele><time>2026-04-05T14:55:56.001Z</time></trkpt><trkpt lat="44.28020591367834" lon="12.105289692466464"><ele>12.0</ele><time>2026-04-05T14:55:58.001Z</time></trkpt><trkpt lat="44.28017607379472" lon="12.10538996338775"><ele>12.0</ele><time>2026-04-05T14:56:00.001Z</time></trkpt><trkpt lat="44.2801334262688" lon="12.105471377022022"><ele>12.0</ele><time>2026-04-05T14:56:03.001Z</time></trkpt><trkpt lat="44.27999835066371" lon="12.10541519875028"><ele>12.0</ele><time>2026-04-05T14:56:04.001Z</time></trkpt><trkpt lat="44.27987360613926" lon="12.105355509258334"><ele>12.0</ele><time>2026-04-05T14:56:05.001Z</time></trkpt><trkpt lat="44.279748072935405" lon="12.105312872841466"><ele>11.333333333333334</ele><time>2026-04-05T14:56:06.001Z</time></trkpt><trkpt lat="44.279596277050175" lon="12.105270800501689"><ele>10.666666666666668</ele><time>2026-04-05T14:56:07.001Z</time></trkpt><trkpt lat="44.27942304254467" lon="12.105218612161908"><ele>10.0</ele><time>2026-04-05T14:56:08.001Z</time></trkpt><trkpt lat="44.279240210354004" lon="12.105168902694425"><ele>10.0</ele><time>2026-04-05T14:56:09.001Z</time></trkpt><trkpt lat="44.27905960917168" lon="12.105103549231341"><ele>10.0</ele><time>2026-04-05T14:56:10.001Z</time></trkpt><trkpt lat="44.27891703344665" lon="12.105067617625842"><ele>10.0</ele><time>2026-04-05T14:56:11.001Z</time></trkpt><trkpt lat="44.27865001157828" lon="12.104930526688058"><ele>10.5</ele><time>2026-04-05T14:56:12.001Z</time></trkpt><trkpt lat="44.27842060618168" lon="12.10482607437891"><ele>11.0</ele><time>2026-04-05T14:56:13.001Z</time></trkpt><trkpt lat="44.27817941911146" lon="12.104721645069231"><ele>11.0</ele><time>2026-04-05T14:56:14.001Z</time></trkpt><trkpt lat="44.27793088022713" lon="12.10461133554181"><ele>11.0</ele><time>2026-04-05T14:56:15.001Z</time></trkpt><trkpt lat="44.277682189991125" lon="12.104499939949246"><ele>11.0</ele><time>2026-04-05T14:56:16.001Z</time></trkpt><trkpt lat="44.277430367019846" lon="12.104385605946566"><ele>11.0</ele><time>2026-04-05T14:56:17.001Z</time></trkpt><trkpt lat="44.27717902366129" lon="12.104259226325455"><ele>11.0</ele><time>2026-04-05T14:56:18.001Z</time></trkpt><trkpt lat="44.27693164544398" lon="12.104128639561873"><ele>11.0</ele><time>2026-04-05T14:56:19.001Z</time></trkpt><trkpt lat="44.276698406408315" lon="12.1039996471965"><ele>11.0</ele><time>2026-04-05T14:56:20.001Z</time></trkpt><trkpt lat="44.27647125748517" lon="12.103870628407465"><ele>11.0</ele><time>2026-04-05T14:56:21.001Z</time></trkpt><trkpt lat="44.27624318741818" lon="12.103743048915138"><ele>11.0</ele><time>2026-04-05T14:56:22.001Z</time></trkpt><trkpt lat="44.27601708785015" lon="12.103618618048419"><ele>11.0</ele><time>2026-04-05T14:56:23.001Z</time></trkpt><trkpt lat="44.27579452000677" lon="12.103495557437068"><ele>11.0</ele><time>2026-04-05T14:56:24.001Z</time></trkpt><trkpt lat="44.27557813115043" lon="12.103385734097538"><ele>11.0</ele><time>2026-04-05T14:56:25.001Z</time></trkpt><trkpt lat="44.27535689271457" lon="12.10329509514318"><ele>12.5</ele><time>2026-04-05T14:56:26.001Z</time></trkpt><trkpt lat="44.27512573459987" lon="12.103222380699458"><ele>14.0</ele><time>2026-04-05T14:56:27.001Z</time></trkpt><trkpt lat="44.274878612737325" lon="12.103168909509558"><ele>13.5</ele><time>2026-04-05T14:56:28.001Z</time></trkpt><trkpt lat="44.27462181819612" lon="12.10310271426089"><ele>13.0</ele><time>2026-04-05T14:56:29.001Z</time></trkpt><trkpt lat="44.27437139164844" lon="12.103027967594159"><ele>13.0</ele><time>2026-04-05T14:56:30.001Z</time></trkpt><trkpt lat="44.27413004774041" lon="12.10295175235071"><ele>13.0</ele><time>2026-04-05T14:56:31.001Z</time></trkpt><trkpt lat="44.27390825056695" lon="12.102879543544699"><ele>12.333333333333332</ele><time>2026-04-05T14:56:32.001Z</time></trkpt><trkpt lat="44.27369891524029" lon="12.102810935844794"><ele>11.666666666666666</ele><time>2026-04-05T14:56:33.001Z</time></trkpt><trkpt lat="44.27349721954641" lon="12.102747122925123"><ele>11.0</ele><time>2026-04-05T14:56:34.001Z</time></trkpt><trkpt lat="44.27331224482442" lon="12.102705173203335"><ele>11.0</ele><time>2026-04-05T14:56:35.001Z</time></trkpt><trkpt lat="44.27312819959955" lon="12.102653045563024"><ele>11.0</ele><time>2026-04-05T14:56:36.001Z</time></trkpt><trkpt lat="44.27294073786585" lon="12.102599870837407"><ele>11.0</ele><time>2026-04-05T14:56:37.001Z</time></trkpt><trkpt lat="44.27273607427873" lon="12.102547889714831"><ele>10.5</ele><time>2026-04-05T14:56:38.001Z</time></trkpt><trkpt lat="44.27251536262248" lon="12.102484991003926"><ele>10.0</ele><time>2026-04-05T14:56:38.999Z</time></trkpt><trkpt lat="44.27228861520437" lon="12.102403679848841"><ele>11.5</ele><time>2026-04-05T14:56:39.999Z</time></trkpt><trkpt lat="44.27205484068409" lon="12.102320098480872"><ele>13.0</ele><time>2026-04-05T14:56:41Z</time></trkpt><trkpt lat="44.27180826702256" lon="12.102250342583735"><ele>13.0</ele><time>2026-04-05T14:56:42Z</time></trkpt><trkpt lat="44.27155160400813" lon="12.102164795855423"><ele>13.0</ele><time>2026-04-05T14:56:43Z</time></trkpt><trkpt lat="44.271289076703134" lon="12.102052569619337"><ele>12.5</ele><time>2026-04-05T14:56:44Z</time></trkpt><trkpt lat="44.27103187891628" lon="12.101947699537359"><ele>12.0</ele><time>2026-04-05T14:56:45Z</time></trkpt><trkpt lat="44.27078410986711" lon="12.101859554685447"><ele>11.5</ele><time>2026-04-05T14:56:46Z</time></trkpt><trkpt lat="44.27053342052568" lon="12.101783424157029"><ele>11.0</ele><time>2026-04-05T14:56:47Z</time></trkpt><trkpt lat="44.2702698097324" lon="12.101728769171485"><ele>11.0</ele><time>2026-04-05T14:56:48Z</time></trkpt><trkpt lat="44.26999780324163" lon="12.101688061975377"><ele>11.0</ele><time>2026-04-05T14:56:49Z</time></trkpt><trkpt lat="44.26972089866189" lon="12.101663284216368"><ele>11.5</ele><time>2026-04-05T14:56:50Z</time></trkpt><trkpt lat="44.26943622584296" lon="12.101647907827005"><ele>12.0</ele><time>2026-04-05T14:56:51Z</time></trkpt><trkpt lat="44.26914673116352" lon="12.101629077154989"><ele>12.5</ele><time>2026-04-05T14:56:52Z</time></trkpt><trkpt lat="44.268847050388594" lon="12.101605671111756"><ele>13.0</ele><time>2026-04-05T14:56:53Z</time></trkpt><trkpt lat="44.26855035354596" lon="12.101567970095525"><ele>13.0</ele><time>2026-04-05T14:56:54Z</time></trkpt><trkpt lat="44.26824830823534" lon="12.10153342693714"><ele>13.0</ele><time>2026-04-05T14:56:55Z</time></trkpt><trkpt lat="44.267943252229244" lon="12.101500181510522"><ele>14.0</ele><time>2026-04-05T14:56:56Z</time></trkpt><trkpt lat="44.267643025831326" lon="12.10146279788867"><ele>15.0</ele><time>2026-04-05T14:56:57Z</time></trkpt><trkpt lat="44.26734750356763" lon="12.101421729980473"><ele>14.0</ele><time>2026-04-05T14:56:58Z</time></trkpt><trkpt lat="44.267054330708035" lon="12.101379549529087"><ele>13.0</ele><time>2026-04-05T14:56:59Z</time></trkpt><trkpt lat="44.26676838980761" lon="12.101333621002679"><ele>13.0</ele><time>2026-04-05T14:57:00Z</time></trkpt><trkpt lat="44.26648953619208" lon="12.101289230943156"><ele>13.0</ele><time>2026-04-05T14:57:01Z</time></trkpt><trkpt lat="44.26620703215201" lon="12.101245208229509"><ele>13.0</ele><time>2026-04-05T14:57:02Z</time></trkpt><trkpt lat="44.26593454069607" lon="12.101189276700216"><ele>13.0</ele><time>2026-04-05T14:57:03Z</time></trkpt><trkpt lat="44.265668099975116" lon="12.101109963213268"><ele>13.0</ele><time>2026-04-05T14:57:04Z</time></trkpt><trkpt lat="44.26540432986891" lon="12.101022693184817"><ele>13.0</ele><time>2026-04-05T14:57:05Z</time></trkpt><trkpt lat="44.265129625855906" lon="12.100948370605147"><ele>13.0</ele><time>2026-04-05T14:57:06Z</time></trkpt><trkpt lat="44.26484927837829" lon="12.100891533798531"><ele>13.0</ele><time>2026-04-05T14:57:07Z</time></trkpt><trkpt lat="44.26456494419985" lon="12.10084038218774"><ele>13.0</ele><time>2026-04-05T14:57:08Z</time></trkpt><trkpt lat="44.26428027161053" lon="12.100788076151792"><ele>13.0</ele><time>2026-04-05T14:57:09Z</time></trkpt><trkpt lat="44.26399226892982" lon="12.100727543355323"><ele>14.0</ele><time>2026-04-05T14:57:10Z</time></trkpt><trkpt lat="44.26370624279661" lon="12.100663910209114"><ele>15.0</ele><time>2026-04-05T14:57:11Z</time></trkpt><trkpt lat="44.26341412540338" lon="12.100592138404389"><ele>15.0</ele><time>2026-04-05T14:57:12Z</time></trkpt><trkpt lat="44.263122613446605" lon="12.100517302043398"><ele>15.0</ele><time>2026-04-05T14:57:13Z</time></trkpt><trkpt lat="44.26283426784036" lon="12.100436011591787"><ele>15.0</ele><time>2026-04-05T14:57:14Z</time></trkpt><trkpt lat="44.2625473856555" lon="12.100349658271242"><ele>15.0</ele><time>2026-04-05T14:57:15Z</time></trkpt><trkpt lat="44.262259063136256" lon="12.10025743016225"><ele>14.5</ele><time>2026-04-05T14:57:16Z</time></trkpt><trkpt lat="44.26197010728598" lon="12.1001585444706"><ele>14.0</ele><time>2026-04-05T14:57:17Z</time></trkpt><trkpt lat="44.261681246653" lon="12.100059596653441"><ele>14.0</ele><time>2026-04-05T14:57:18Z</time></trkpt><trkpt lat="44.261394635857" lon="12.099961363155252"><ele>14.0</ele><time>2026-04-05T14:57:19Z</time></trkpt><trkpt lat="44.26111049231078" lon="12.099865928282478"><ele>14.0</ele><time>2026-04-05T14:57:20Z</time></trkpt><trkpt lat="44.260832451111554" lon="12.099773888503606"><ele>14.0</ele><time>2026-04-05T14:57:21Z</time></trkpt><trkpt lat="44.26055362647683" lon="12.099681382310914"><ele>13.5</ele><time>2026-04-05T14:57:22Z</time></trkpt><trkpt lat="44.26028413184978" lon="12.099595600913275"><ele>13.0</ele><time>2026-04-05T14:57:23Z</time></trkpt><trkpt lat="44.26001535172952" lon="12.09951108999438"><ele>13.0</ele><time>2026-04-05T14:57:24Z</time></trkpt><trkpt lat="44.25974998236813" lon="12.099431589827553"><ele>13.0</ele><time>2026-04-05T14:57:25Z</time></trkpt><trkpt lat="44.25948488014649" lon="12.099352779204114"><ele>13.0</ele><time>2026-04-05T14:57:26Z</time></trkpt><trkpt lat="44.25921854890872" lon="12.099267993301224"><ele>13.0</ele><time>2026-04-05T14:57:27Z</time></trkpt><trkpt lat="44.25896528430155" lon="12.099189744020247"><ele>13.0</ele><time>2026-04-05T14:57:28Z</time></trkpt><trkpt lat="44.25870972293795" lon="12.099097847759197"><ele>13.0</ele><time>2026-04-05T14:57:29Z</time></trkpt><trkpt lat="44.258459876481524" lon="12.09897061368602"><ele>13.5</ele><time>2026-04-05T14:57:30Z</time></trkpt><trkpt lat="44.258218880242374" lon="12.098802885712528"><ele>14.0</ele><time>2026-04-05T14:57:31Z</time></trkpt><trkpt lat="44.25798010899998" lon="12.098603914972543"><ele>14.0</ele><time>2026-04-05T14:57:32Z</time></trkpt><trkpt lat="44.25775002282628" lon="12.098380921166836"><ele>14.0</ele><time>2026-04-05T14:57:33Z</time></trkpt><trkpt lat="44.25752811098133" lon="12.098126038415705"><ele>14.5</ele><time>2026-04-05T14:57:34Z</time></trkpt><trkpt lat="44.257327822113076" lon="12.097841324685827"><ele>15.0</ele><time>2026-04-05T14:57:35Z</time></trkpt><trkpt lat="44.25713194662474" lon="12.097533286720862"><ele>15.0</ele><time>2026-04-05T14:57:36Z</time></trkpt><trkpt lat="44.25693549838921" lon="12.097218477623935"><ele>15.0</ele><time>2026-04-05T14:57:37Z</time></trkpt><trkpt lat="44.256736567780365" lon="12.096903949539568"><ele>15.0</ele><time>2026-04-05T14:57:38Z</time></trkpt><trkpt lat="44.25653048697833" lon="12.096586612696907"><ele>15.0</ele><time>2026-04-05T14:57:39Z</time></trkpt><trkpt lat="44.256320967045916" lon="12.09625954781616"><ele>15.0</ele><time>2026-04-05T14:57:40Z</time></trkpt><trkpt lat="44.256107209547444" lon="12.095916919846129"><ele>15.0</ele><time>2026-04-05T14:57:41Z</time></trkpt><trkpt lat="44.255875175427384" lon="12.095525930099269"><ele>15.0</ele><time>2026-04-05T14:57:42Z</time></trkpt><trkpt lat="44.255640547416995" lon="12.095105666451332"><ele>15.0</ele><time>2026-04-05T14:57:43Z</time></trkpt><trkpt lat="44.255386443718216" lon="12.094670596127306"><ele>15.0</ele><time>2026-04-05T14:57:44Z</time></trkpt><trkpt lat="44.25530156223847" lon="12.0945245852556"><ele>15.0</ele><time>2026-04-05T14:57:45Z</time></trkpt><trkpt lat="44.255104854497844" lon="12.094181611771099"><ele>15.0</ele><time>2026-04-05T14:57:46Z</time></trkpt><trkpt lat="44.25492064012605" lon="12.093859730446225"><ele>15.0</ele><time>2026-04-05T14:57:47Z</time></trkpt><trkpt lat="44.25474948810247" lon="12.093556350047225"><ele>15.0</ele><time>2026-04-05T14:57:48Z</time></trkpt><trkpt lat="44.254583120968604" lon="12.09326927890712"><ele>15.5</ele><time>2026-04-05T14:57:49Z</time></trkpt><trkpt lat="44.25443108571436" lon="12.092993850619939"><ele>16.0</ele><time>2026-04-05T14:57:50Z</time></trkpt><trkpt lat="44.25429231466789" lon="12.092733561948009"><ele>16.0</ele><time>2026-04-05T14:57:51Z</time></trkpt><trkpt lat="44.254167874451824" lon="12.092503519351355"><ele>16.0</ele><time>2026-04-05T14:57:52Z</time></trkpt><trkpt lat="44.25406129871087" lon="12.092300863278542"><ele>16.0</ele><time>2026-04-05T14:57:53Z</time></trkpt><trkpt lat="44.25396826364524" lon="12.092113795859843"><ele>16.0</ele><time>2026-04-05T14:57:54Z</time></trkpt><trkpt lat="44.253894039798524" lon="12.091942092495312"><ele>16.0</ele><time>2026-04-05T14:57:55Z</time></trkpt><trkpt lat="44.25384550463216" lon="12.091765933197195"><ele>16.0</ele><time>2026-04-05T14:57:56Z</time></trkpt><trkpt lat="44.25382538558276" lon="12.09158293652213"><ele>16.0</ele><time>2026-04-05T14:57:57Z</time></trkpt><trkpt lat="44.25382790420499" lon="12.09140900599803"><ele>15.8</ele><time>2026-04-05T14:57:58Z</time></trkpt><trkpt lat="44.25382109059374" lon="12.09126444565546"><ele>15.600000000000001</ele><time>2026-04-05T14:57:59Z</time></trkpt><trkpt lat="44.25377939347912" lon="12.091150481797984"><ele>15.4</ele><time>2026-04-05T14:58:00Z</time></trkpt><trkpt lat="44.253687967065275" lon="12.091090924911898"><ele>15.2</ele><time>2026-04-05T14:58:01Z</time></trkpt><trkpt lat="44.253574307590334" lon="12.091076151828608"><ele>15.0</ele><time>2026-04-05T14:58:02Z</time></trkpt><trkpt lat="44.253448022402594" lon="12.091070358739586"><ele>15.0</ele><time>2026-04-05T14:58:03Z</time></trkpt><trkpt lat="44.25332842206859" lon="12.090991727229754"><ele>15.0</ele><time>2026-04-05T14:58:04Z</time></trkpt><trkpt lat="44.25322019131077" lon="12.090851693990702"><ele>15.0</ele><time>2026-04-05T14:58:05Z</time></trkpt><trkpt lat="44.253113166456295" lon="12.090679720980164"><ele>15.0</ele><time>2026-04-05T14:58:06Z</time></trkpt><trkpt lat="44.25299708076287" lon="12.090499244669328"><ele>15.333333333333332</ele><time>2026-04-05T14:58:07Z</time></trkpt><trkpt lat="44.25288384469299" lon="12.090318096203694"><ele>15.666666666666666</ele><time>2026-04-05T14:58:08Z</time></trkpt><trkpt lat="44.25276567432762" lon="12.090125820906826"><ele>16.0</ele><time>2026-04-05T14:58:09Z</time></trkpt><trkpt lat="44.25264516881827" lon="12.089926715858411"><ele>16.333333333333332</ele><time>2026-04-05T14:58:10Z</time></trkpt><trkpt lat="44.25251343233726" lon="12.089716495854402"><ele>16.666666666666668</ele><time>2026-04-05T14:58:11Z</time></trkpt><trkpt lat="44.25238983973992" lon="12.089514282408846"><ele>17.0</ele><time>2026-04-05T14:58:12Z</time></trkpt><trkpt lat="44.25223680743017" lon="12.089253844145022"><ele>17.0</ele><time>2026-04-05T14:58:13Z</time></trkpt><trkpt lat="44.252102276573915" lon="12.089028492965953"><ele>17.0</ele><time>2026-04-05T14:58:14Z</time></trkpt><trkpt lat="44.25197574557971" lon="12.088796049124992"><ele>17.0</ele><time>2026-04-05T14:58:15Z</time></trkpt><trkpt lat="44.25184438664687" lon="12.08856353705812"><ele>17.0</ele><time>2026-04-05T14:58:16Z</time></trkpt><trkpt lat="44.25170720489433" lon="12.088332838069169"><ele>17.0</ele><time>2026-04-05T14:58:17Z</time></trkpt><trkpt lat="44.25158108135724" lon="12.088106867298153"><ele>17.0</ele><time>2026-04-05T14:58:18Z</time></trkpt><trkpt lat="44.251458713196676" lon="12.087901123982146"><ele>16.333333333333336</ele><time>2026-04-05T14:58:19Z</time></trkpt><trkpt lat="44.251335670405524" lon="12.087710348124647"><ele>15.666666666666668</ele><time>2026-04-05T14:58:20Z</time></trkpt><trkpt lat="44.25122180725624" lon="12.087525593684592"><ele>15.0</ele><time>2026-04-05T14:58:21Z</time></trkpt><trkpt lat="44.25112165945689" lon="12.087347567343219"><ele>15.0</ele><time>2026-04-05T14:58:22Z</time></trkpt><trkpt lat="44.251031053977535" lon="12.087192051897551"><ele>15.0</ele><time>2026-04-05T14:58:23Z</time></trkpt><trkpt lat="44.25095001672719" lon="12.087063791802766"><ele>15.0</ele><time>2026-04-05T14:58:24Z</time></trkpt><trkpt lat="44.25087049281228" lon="12.086964651983173"><ele>15.0</ele><time>2026-04-05T14:58:25Z</time></trkpt><trkpt lat="44.250788275911304" lon="12.086899962681478"><ele>15.0</ele><time>2026-04-05T14:58:26Z</time></trkpt><trkpt lat="44.25071433512509" lon="12.08685141367832"><ele>15.0</ele><time>2026-04-05T14:58:27Z</time></trkpt><trkpt lat="44.25065652162713" lon="12.086808318324328"><ele>15.0</ele><time>2026-04-05T14:58:28Z</time></trkpt><trkpt lat="44.250575848460734" lon="12.08665308538858"><ele>15.0</ele><time>2026-04-05T14:58:30Z</time></trkpt><trkpt lat="44.250534974566314" lon="12.086530316196864"><ele>15.0</ele><time>2026-04-05T14:58:31Z</time></trkpt><trkpt lat="44.25048954909113" lon="12.086403340718562"><ele>15.0</ele><time>2026-04-05T14:58:32Z</time></trkpt><trkpt lat="44.25042467566289" lon="12.086314491479595"><ele>15.0</ele><time>2026-04-05T14:58:33Z</time></trkpt><trkpt lat="44.25033385737553" lon="12.086276180123159"><ele>15.0</ele><time>2026-04-05T14:58:34Z</time></trkpt><trkpt lat="44.2502239211564" lon="12.08628230652107"><ele>15.0</ele><time>2026-04-05T14:58:35Z</time></trkpt><trkpt lat="44.250115017537425" lon="12.08633971878164"><ele>15.0</ele><time>2026-04-05T14:58:36Z</time></trkpt><trkpt lat="44.250029837086" lon="12.086452215132505"><ele>15.25</ele><time>2026-04-05T14:58:37Z</time></trkpt><trkpt lat="44.24998568845489" lon="12.086608737273778"><ele>15.5</ele><time>2026-04-05T14:58:38Z</time></trkpt><trkpt lat="44.2499847316604" lon="12.086788169652472"><ele>15.75</ele><time>2026-04-05T14:58:39Z</time></trkpt><trkpt lat="44.25002089191299" lon="12.086980918427017"><ele>16.0</ele><time>2026-04-05T14:58:40Z</time></trkpt><trkpt lat="44.25006168686417" lon="12.08716362360225"><ele>16.0</ele><time>2026-04-05T14:58:41Z</time></trkpt><trkpt lat="44.25004883447127" lon="12.087338462740277"><ele>16.0</ele><time>2026-04-05T14:58:42Z</time></trkpt><trkpt lat="44.24999053496785" lon="12.087505577798622"><ele>16.0</ele><time>2026-04-05T14:58:43Z</time></trkpt><trkpt lat="44.24992266106564" lon="12.08766425967032"><ele>16.0</ele><time>2026-04-05T14:58:44Z</time></trkpt><trkpt lat="44.24985849563118" lon="12.087831166602799"><ele>16.0</ele><time>2026-04-05T14:58:45Z</time></trkpt><trkpt lat="44.24979579048702" lon="12.088020520832732"><ele>16.0</ele><time>2026-04-05T14:58:46Z</time></trkpt><trkpt lat="44.24971824723275" lon="12.088220602297508"><ele>16.0</ele><time>2026-04-05T14:58:47Z</time></trkpt><trkpt lat="44.24962677583162" lon="12.088424370159261"><ele>15.333333333333332</ele><time>2026-04-05T14:58:48Z</time></trkpt><trkpt lat="44.249534208341665" lon="12.08862164942239"><ele>14.666666666666668</ele><time>2026-04-05T14:58:49Z</time></trkpt><trkpt lat="44.24944788019997" lon="12.088793577239716"><ele>14.0</ele><time>2026-04-05T14:58:50Z</time></trkpt><trkpt lat="44.24936475350278" lon="12.08894100465121"><ele>14.0</ele><time>2026-04-05T14:58:51Z</time></trkpt><trkpt lat="44.249288119020925" lon="12.089075311572987"><ele>13.999999999999998</ele><time>2026-04-05T14:58:52Z</time></trkpt><trkpt lat="44.24922419307909" lon="12.08919385328148"><ele>13.999999999999998</ele><time>2026-04-05T14:58:53Z</time></trkpt><trkpt lat="44.2491601448352" lon="12.089312357727561"><ele>14.0</ele><time>2026-04-05T14:58:54Z</time></trkpt><trkpt lat="44.24910125155904" lon="12.089412726083717"><ele>14.0</ele><time>2026-04-05T14:58:55Z</time></trkpt><trkpt lat="44.24904254066412" lon="12.089492869685946"><ele>14.0</ele><time>2026-04-05T14:58:56Z</time></trkpt><trkpt lat="44.24898570153387" lon="12.089542785917514"><ele>13.999999999999998</ele><time>2026-04-05T14:58:57Z</time></trkpt><trkpt lat="44.24889966342212" lon="12.0895756903529"><ele>13.999999999999998</ele><time>2026-04-05T14:58:59Z</time></trkpt><trkpt lat="44.24878900396028" lon="12.08960411920729"><ele>14.0</ele><time>2026-04-05T14:59:01Z</time></trkpt><trkpt lat="44.24870445073083" lon="12.089656361934722"><ele>14.0</ele><time>2026-04-05T14:59:02Z</time></trkpt><trkpt lat="44.24863411841342" lon="12.089735068476969"><ele>14.0</ele><time>2026-04-05T14:59:03Z</time></trkpt><trkpt lat="44.248579299537646" lon="12.089823647128167"><ele>13.999999999999998</ele><time>2026-04-05T14:59:04Z</time></trkpt><trkpt lat="44.24856167433115" lon="12.08996621767989"><ele>13.999999999999998</ele><time>2026-04-05T14:59:05Z</time></trkpt><trkpt lat="44.24856404217854" lon="12.09011797552968"><ele>14.0</ele><time>2026-04-05T14:59:06Z</time></trkpt><trkpt lat="44.24857743949432" lon="12.090264555261237"><ele>14.0</ele><time>2026-04-05T14:59:07Z</time></trkpt><trkpt lat="44.24858986062052" lon="12.090406497699583"><ele>14.25</ele><time>2026-04-05T14:59:08Z</time></trkpt><trkpt lat="44.248575136589785" lon="12.090561716601696"><ele>14.5</ele><time>2026-04-05T14:59:09Z</time></trkpt><trkpt lat="44.24852290093504" lon="12.090738258828383"><ele>14.75</ele><time>2026-04-05T14:59:10Z</time></trkpt><trkpt lat="44.248444110604225" lon="12.09096017049091"><ele>15.0</ele><time>2026-04-05T14:59:11Z</time></trkpt><trkpt lat="44.24835149054499" lon="12.091204953789461"><ele>15.5</ele><time>2026-04-05T14:59:12Z</time></trkpt><trkpt lat="44.248247090214285" lon="12.091459110222448"><ele>16.0</ele><time>2026-04-05T14:59:13Z</time></trkpt><trkpt lat="44.24812807078614" lon="12.091753850427141"><ele>16.0</ele><time>2026-04-05T14:59:14Z</time></trkpt><trkpt lat="44.24800538841957" lon="12.092068836455876"><ele>16.0</ele><time>2026-04-05T14:59:15Z</time></trkpt><trkpt lat="44.24787614484353" lon="12.092403160372378"><ele>16.5</ele><time>2026-04-05T14:59:16Z</time></trkpt><trkpt lat="44.2477493935917" lon="12.092741739756558"><ele>17.0</ele><time>2026-04-05T14:59:17Z</time></trkpt><trkpt lat="44.24763557822094" lon="12.093034688483543"><ele>16.666666666666668</ele><time>2026-04-05T14:59:18Z</time></trkpt><trkpt lat="44.247533706050135" lon="12.093301895623972"><ele>16.333333333333332</ele><time>2026-04-05T14:59:19Z</time></trkpt><trkpt lat="44.24744099967853" lon="12.09354911437305"><ele>16.0</ele><time>2026-04-05T14:59:20Z</time></trkpt><trkpt lat="44.247354784386076" lon="12.093777868878657"><ele>16.0</ele><time>2026-04-05T14:59:21Z</time></trkpt><trkpt lat="44.24727288353094" lon="12.093993895609728"><ele>16.0</ele><time>2026-04-05T14:59:22Z</time></trkpt><trkpt lat="44.24720822561051" lon="12.094168739786042"><ele>16.0</ele><time>2026-04-05T14:59:23Z</time></trkpt><trkpt lat="44.24714796270188" lon="12.094316431947298"><ele>16.0</ele><time>2026-04-05T14:59:24Z</time></trkpt><trkpt lat="44.24707203704925" lon="12.094419735133842"><ele>16.0</ele><time>2026-04-05T14:59:25Z</time></trkpt><trkpt lat="44.24698119755644" lon="12.094483960768846"><ele>16.0</ele><time>2026-04-05T14:59:26Z</time></trkpt><trkpt lat="44.246887632970456" lon="12.094523397738998"><ele>16.0</ele><time>2026-04-05T14:59:27Z</time></trkpt><trkpt lat="44.24679813773508" lon="12.094567530155153"><ele>16.0</ele><time>2026-04-05T14:59:28Z</time></trkpt><trkpt lat="44.24669587943081" lon="12.094628090245315"><ele>16.0</ele><time>2026-04-05T14:59:29Z</time></trkpt><trkpt lat="44.24655991329706" lon="12.09468976570803"><ele>15.666666666666666</ele><time>2026-04-05T14:59:30Z</time></trkpt><trkpt lat="44.246396564326915" lon="12.09470529678409"><ele>15.333333333333332</ele><time>2026-04-05T14:59:31Z</time></trkpt><trkpt lat="44.24621699140541" lon="12.094674195575559"><ele>15.0</ele><time>2026-04-05T14:59:32Z</time></trkpt><trkpt lat="44.246014514666555" lon="12.094608213191238"><ele>15.0</ele><time>2026-04-05T14:59:33Z</time></trkpt><trkpt lat="44.245793666116455" lon="12.094533171698247"><ele>15.0</ele><time>2026-04-05T14:59:34Z</time></trkpt><trkpt lat="44.24555226500788" lon="12.094448351986246"><ele>15.0</ele><time>2026-04-05T14:59:35Z</time></trkpt><trkpt lat="44.24529828218146" lon="12.094367483218612"><ele>15.0</ele><time>2026-04-05T14:59:36Z</time></trkpt><trkpt lat="44.24502678107184" lon="12.094293900898244"><ele>14.5</ele><time>2026-04-05T14:59:37Z</time></trkpt><trkpt lat="44.24475855609806" lon="12.094229293718051"><ele>14.0</ele><time>2026-04-05T14:59:38Z</time></trkpt><trkpt lat="44.244480629844894" lon="12.094153948696476"><ele>15.0</ele><time>2026-04-05T14:59:39Z</time></trkpt><trkpt lat="44.24418655335104" lon="12.094079419176445"><ele>16.0</ele><time>2026-04-05T14:59:40Z</time></trkpt><trkpt lat="44.24387852728185" lon="12.094003360882978"><ele>17.5</ele><time>2026-04-05T14:59:41Z</time></trkpt><trkpt lat="44.24355719513685" lon="12.093921526193249"><ele>19.0</ele><time>2026-04-05T14:59:42Z</time></trkpt><trkpt lat="44.243237396299996" lon="12.09383985184622"><ele>17.5</ele><time>2026-04-05T14:59:43Z</time></trkpt><trkpt lat="44.242908849226275" lon="12.093749846033779"><ele>16.0</ele><time>2026-04-05T14:59:44Z</time></trkpt><trkpt lat="44.24248681287856" lon="12.093695852915673"><ele>16.0</ele><time>2026-04-05T14:59:45Z</time></trkpt><trkpt lat="44.242324900029125" lon="12.093598270277926"><ele>16.0</ele><time>2026-04-05T14:59:46Z</time></trkpt><trkpt lat="44.24201764780816" lon="12.093518352474744"><ele>15.5</ele><time>2026-04-05T14:59:47Z</time></trkpt><trkpt lat="44.24171433385435" lon="12.0934374026285"><ele>15.0</ele><time>2026-04-05T14:59:48Z</time></trkpt><trkpt lat="44.24141060507013" lon="12.093360437511402"><ele>16.0</ele><time>2026-04-05T14:59:49Z</time></trkpt><trkpt lat="44.241113222634716" lon="12.093292908717633"><ele>17.0</ele><time>2026-04-05T14:59:50Z</time></trkpt><trkpt lat="44.24081032235937" lon="12.0932273475594"><ele>17.5</ele><time>2026-04-05T14:59:51Z</time></trkpt><trkpt lat="44.240513370026804" lon="12.09314798742845"><ele>18.0</ele><time>2026-04-05T14:59:52Z</time></trkpt><trkpt lat="44.240218537303456" lon="12.093074103824984"><ele>18.0</ele><time>2026-04-05T14:59:53Z</time></trkpt><trkpt lat="44.23991848370498" lon="12.093000272696836"><ele>18.0</ele><time>2026-04-05T14:59:54Z</time></trkpt><trkpt lat="44.23962132938978" lon="12.092937130150803"><ele>17.5</ele><time>2026-04-05T14:59:55Z</time></trkpt><trkpt lat="44.239322516950594" lon="12.092876987427127"><ele>17.0</ele><time>2026-04-05T14:59:56Z</time></trkpt><trkpt lat="44.23902286653351" lon="12.092830095598327"><ele>17.0</ele><time>2026-04-05T14:59:57Z</time></trkpt><trkpt lat="44.238724505042285" lon="12.092781306018347"><ele>17.0</ele><time>2026-04-05T14:59:58Z</time></trkpt><trkpt lat="44.238419727399304" lon="12.09274083871223"><ele>16.0</ele><time>2026-04-05T14:59:59Z</time></trkpt><trkpt lat="44.23811522368687" lon="12.092708345420158"><ele>15.0</ele><time>2026-04-05T15:00:00Z</time></trkpt><trkpt lat="44.237806296926934" lon="12.092678837761266"><ele>15.0</ele><time>2026-04-05T15:00:01Z</time></trkpt><trkpt lat="44.23749570185271" lon="12.0926532136033"><ele>15.0</ele><time>2026-04-05T15:00:02Z</time></trkpt><trkpt lat="44.237187991364955" lon="12.092630830546488"><ele>16.0</ele><time>2026-04-05T15:00:03Z</time></trkpt><trkpt lat="44.2368785701062" lon="12.092607547077893"><ele>17.0</ele><time>2026-04-05T15:00:04Z</time></trkpt><trkpt lat="44.23656826872153" lon="12.092581880152613"><ele>16.5</ele><time>2026-04-05T15:00:05Z</time></trkpt><trkpt lat="44.23625866511818" lon="12.092555852559931"><ele>16.0</ele><time>2026-04-05T15:00:06Z</time></trkpt><trkpt lat="44.235950528425356" lon="12.092532480124657"><ele>16.0</ele><time>2026-04-05T15:00:07Z</time></trkpt><trkpt lat="44.23564318218157" lon="12.092513557807552"><ele>16.0</ele><time>2026-04-05T15:00:08Z</time></trkpt><trkpt lat="44.23533117908769" lon="12.092508959506869"><ele>15.5</ele><time>2026-04-05T15:00:09Z</time></trkpt><trkpt lat="44.23502211731847" lon="12.09248961925383"><ele>15.0</ele><time>2026-04-05T15:00:10Z</time></trkpt><trkpt lat="44.234711375734925" lon="12.092465443633559"><ele>14.5</ele><time>2026-04-05T15:00:11Z</time></trkpt><trkpt lat="44.23440233228637" lon="12.092432556723242"><ele>14.0</ele><time>2026-04-05T15:00:12Z</time></trkpt><trkpt lat="44.23409361735324" lon="12.09240056946771"><ele>15.5</ele><time>2026-04-05T15:00:13Z</time></trkpt><trkpt lat="44.23378388148548" lon="12.09236829153443"><ele>17.0</ele><time>2026-04-05T15:00:14Z</time></trkpt><trkpt lat="44.23347421577784" lon="12.09231732218235"><ele>17.0</ele><time>2026-04-05T15:00:15Z</time></trkpt><trkpt lat="44.23316916300198" lon="12.092249372324302"><ele>17.0</ele><time>2026-04-05T15:00:16Z</time></trkpt><trkpt lat="44.2328607373027" lon="12.09216728011793"><ele>17.0</ele><time>2026-04-05T15:00:17Z</time></trkpt><trkpt lat="44.232556456022884" lon="12.092077444288108"><ele>17.0</ele><time>2026-04-05T15:00:18Z</time></trkpt><trkpt lat="44.23225121097274" lon="12.091977888088799"><ele>17.0</ele><time>2026-04-05T15:00:19Z</time></trkpt><trkpt lat="44.23194814676291" lon="12.091867096219254"><ele>17.0</ele><time>2026-04-05T15:00:20Z</time></trkpt><trkpt lat="44.23164592399372" lon="12.091749803081168"><ele>17.5</ele><time>2026-04-05T15:00:21Z</time></trkpt><trkpt lat="44.23134727696551" lon="12.091626944404284"><ele>18.0</ele><time>2026-04-05T15:00:22Z</time></trkpt><trkpt lat="44.231050816269935" lon="12.091495213042622"><ele>18.0</ele><time>2026-04-05T15:00:23Z</time></trkpt><trkpt lat="44.23075185589268" lon="12.091357878102672"><ele>18.0</ele><time>2026-04-05T15:00:24Z</time></trkpt><trkpt lat="44.23045112228601" lon="12.091221491411776"><ele>16.5</ele><time>2026-04-05T15:00:25Z</time></trkpt><trkpt lat="44.23015212185348" lon="12.091074163594882"><ele>15.0</ele><time>2026-04-05T15:00:26Z</time></trkpt><trkpt lat="44.22985831721135" lon="12.090918961782876"><ele>17.0</ele><time>2026-04-05T15:00:27Z</time></trkpt><trkpt lat="44.22956972526197" lon="12.090755554910887"><ele>19.0</ele><time>2026-04-05T15:00:28Z</time></trkpt><trkpt lat="44.22928482478828" lon="12.090584008421045"><ele>19.0</ele><time>2026-04-05T15:00:29Z</time></trkpt><trkpt lat="44.229004951421686" lon="12.090402910565984"><ele>19.0</ele><time>2026-04-05T15:00:30Z</time></trkpt><trkpt lat="44.22872585008857" lon="12.090214634612488"><ele>19.5</ele><time>2026-04-05T15:00:31Z</time></trkpt><trkpt lat="44.228447522471605" lon="12.090014225202848"><ele>20.0</ele><time>2026-04-05T15:00:32Z</time></trkpt><trkpt lat="44.228171632804546" lon="12.089806610894094"><ele>20.0</ele><time>2026-04-05T15:00:33Z</time></trkpt><trkpt lat="44.22789804595205" lon="12.089589302048681"><ele>20.0</ele><time>2026-04-05T15:00:34Z</time></trkpt><trkpt lat="44.227624549551834" lon="12.089364986638964"><ele>20.0</ele><time>2026-04-05T15:00:35Z</time></trkpt><trkpt lat="44.227355556683726" lon="12.08919854499424"><ele>20.0</ele><time>2026-04-05T15:00:36Z</time></trkpt><trkpt lat="44.22706824646537" lon="12.088889793985246"><ele>20.0</ele><time>2026-04-05T15:00:37Z</time></trkpt><trkpt lat="44.226802136192546" lon="12.088638287539155"><ele>20.0</ele><time>2026-04-05T15:00:38Z</time></trkpt><trkpt lat="44.22654127884196" lon="12.088383319360267"><ele>19.5</ele><time>2026-04-05T15:00:39Z</time></trkpt><trkpt lat="44.226287592694455" lon="12.088122945443372"><ele>19.0</ele><time>2026-04-05T15:00:40Z</time></trkpt><trkpt lat="44.22603937876752" lon="12.087855490906382"><ele>19.0</ele><time>2026-04-05T15:00:41Z</time></trkpt><trkpt lat="44.225796280819" lon="12.087589394449997"><ele>19.0</ele><time>2026-04-05T15:00:42Z</time></trkpt><trkpt lat="44.22555317025388" lon="12.087324619242887"><ele>19.0</ele><time>2026-04-05T15:00:43Z</time></trkpt><trkpt lat="44.225310116229046" lon="12.087057524404335"><ele>19.0</ele><time>2026-04-05T15:00:44Z</time></trkpt><trkpt lat="44.225068077983615" lon="12.0867835256838"><ele>19.0</ele><time>2026-04-05T15:00:45Z</time></trkpt><trkpt lat="44.22482998553217" lon="12.08650132926838"><ele>19.0</ele><time>2026-04-05T15:00:46Z</time></trkpt><trkpt lat="44.22459494519659" lon="12.086210622943174"><ele>19.0</ele><time>2026-04-05T15:00:47Z</time></trkpt><trkpt lat="44.224361051652366" lon="12.085915320701835"><ele>19.0</ele><time>2026-04-05T15:00:48Z</time></trkpt><trkpt lat="44.22412756640261" lon="12.085613676931578"><ele>18.5</ele><time>2026-04-05T15:00:49Z</time></trkpt><trkpt lat="44.22389798510245" lon="12.085306866783489"><ele>18.0</ele><time>2026-04-05T15:00:50Z</time></trkpt><trkpt lat="44.223668496569054" lon="12.084994600680718"><ele>18.5</ele><time>2026-04-05T15:00:51Z</time></trkpt><trkpt lat="44.22344192405134" lon="12.084678800461216"><ele>19.0</ele><time>2026-04-05T15:00:52Z</time></trkpt><trkpt lat="44.22321884742198" lon="12.08435868848896"><ele>19.5</ele><time>2026-04-05T15:00:53Z</time></trkpt><trkpt lat="44.22299675941637" lon="12.084048233002713"><ele>20.0</ele><time>2026-04-05T15:00:54Z</time></trkpt><trkpt lat="44.22277769613621" lon="12.083738271698515"><ele>20.0</ele><time>2026-04-05T15:00:55Z</time></trkpt><trkpt lat="44.222563672717335" lon="12.08343155042097"><ele>20.0</ele><time>2026-04-05T15:00:56Z</time></trkpt><trkpt lat="44.2223441212151" lon="12.083134873095819"><ele>19.5</ele><time>2026-04-05T15:00:57Z</time></trkpt><trkpt lat="44.2221356701664" lon="12.082834742865169"><ele>19.0</ele><time>2026-04-05T15:00:58Z</time></trkpt><trkpt lat="44.2219196771144" lon="12.082541335559394"><ele>19.0</ele><time>2026-04-05T15:00:59Z</time></trkpt><trkpt lat="44.22170433157335" lon="12.082248168132104"><ele>19.0</ele><time>2026-04-05T15:01:00Z</time></trkpt><trkpt lat="44.221486840872316" lon="12.081949539529143"><ele>19.0</ele><time>2026-04-05T15:01:01Z</time></trkpt><trkpt lat="44.221266870200076" lon="12.081647077905034"><ele>19.0</ele><time>2026-04-05T15:01:02Z</time></trkpt><trkpt lat="44.22104295905891" lon="12.081338968250066"><ele>19.5</ele><time>2026-04-05T15:01:03Z</time></trkpt><trkpt lat="44.220824781253484" lon="12.081030525518345"><ele>20.0</ele><time>2026-04-05T15:01:04Z</time></trkpt><trkpt lat="44.220597971860556" lon="12.080720379517722"><ele>20.0</ele><time>2026-04-05T15:01:05Z</time></trkpt><trkpt lat="44.22037186870251" lon="12.080409857149514"><ele>20.0</ele><time>2026-04-05T15:01:06Z</time></trkpt><trkpt lat="44.22014294499955" lon="12.080103249887518"><ele>20.0</ele><time>2026-04-05T15:01:07Z</time></trkpt><trkpt lat="44.219909533232595" lon="12.079799966482632"><ele>20.0</ele><time>2026-04-05T15:01:08Z</time></trkpt><trkpt lat="44.21967512383948" lon="12.079494854412138"><ele>20.0</ele><time>2026-04-05T15:01:09Z</time></trkpt><trkpt lat="44.21944470350902" lon="12.079189331466043"><ele>20.0</ele><time>2026-04-05T15:01:10Z</time></trkpt><trkpt lat="44.219216826842896" lon="12.078887049572664"><ele>20.0</ele><time>2026-04-05T15:01:11Z</time></trkpt><trkpt lat="44.21898802493722" lon="12.078589591535797"><ele>20.0</ele><time>2026-04-05T15:01:12Z</time></trkpt><trkpt lat="44.21876178043775" lon="12.078294937502976"><ele>19.5</ele><time>2026-04-05T15:01:13Z</time></trkpt><trkpt lat="44.21853631238573" lon="12.078005597905946"><ele>19.0</ele><time>2026-04-05T15:01:14Z</time></trkpt><trkpt lat="44.21830842264527" lon="12.077728203231862"><ele>19.5</ele><time>2026-04-05T15:01:15Z</time></trkpt><trkpt lat="44.2180750738098" lon="12.077460932513267"><ele>20.0</ele><time>2026-04-05T15:01:16Z</time></trkpt><trkpt lat="44.21784214214224" lon="12.077191941374323"><ele>20.0</ele><time>2026-04-05T15:01:17Z</time></trkpt><trkpt lat="44.2176111664793" lon="12.076923860083447"><ele>20.0</ele><time>2026-04-05T15:01:18Z</time></trkpt><trkpt lat="44.21738415633232" lon="12.076651613475942"><ele>20.5</ele><time>2026-04-05T15:01:19Z</time></trkpt><trkpt lat="44.21715812095243" lon="12.076381765723104"><ele>21.0</ele><time>2026-04-05T15:01:20Z</time></trkpt><trkpt lat="44.216927706070756" lon="12.076113558817093"><ele>21.0</ele><time>2026-04-05T15:01:21Z</time></trkpt><trkpt lat="44.216698332757396" lon="12.075843630925487"><ele>21.0</ele><time>2026-04-05T15:01:22Z</time></trkpt><trkpt lat="44.21646631045381" lon="12.075575685895082"><ele>21.5</ele><time>2026-04-05T15:01:23Z</time></trkpt><trkpt lat="44.216236199327824" lon="12.075306016337636"><ele>22.0</ele><time>2026-04-05T15:01:24Z</time></trkpt><trkpt lat="44.21600949069367" lon="12.075031777870207"><ele>21.5</ele><time>2026-04-05T15:01:25Z</time></trkpt><trkpt lat="44.215778572331615" lon="12.07475694290656"><ele>21.0</ele><time>2026-04-05T15:01:26Z</time></trkpt><trkpt lat="44.21554153484324" lon="12.0744847265647"><ele>20.5</ele><time>2026-04-05T15:01:27Z</time></trkpt><trkpt lat="44.21530464880755" lon="12.074210569621801"><ele>20.0</ele><time>2026-04-05T15:01:28Z</time></trkpt><trkpt lat="44.21506854534703" lon="12.073934257234477"><ele>20.0</ele><time>2026-04-05T15:01:29Z</time></trkpt><trkpt lat="44.214828241261316" lon="12.073658846038224"><ele>20.0</ele><time>2026-04-05T15:01:30Z</time></trkpt><trkpt lat="44.214590911772014" lon="12.073382066330122"><ele>20.5</ele><time>2026-04-05T15:01:31Z</time></trkpt><trkpt lat="44.214345937692414" lon="12.073103727556935"><ele>21.0</ele><time>2026-04-05T15:01:32Z</time></trkpt><trkpt lat="44.214099666926316" lon="12.072829389254983"><ele>20.5</ele><time>2026-04-05T15:01:33Z</time></trkpt><trkpt lat="44.2138473640719" lon="12.072566502098825"><ele>20.0</ele><time>2026-04-05T15:01:34Z</time></trkpt><trkpt lat="44.21359068861508" lon="12.072320475429862"><ele>20.0</ele><time>2026-04-05T15:01:35Z</time></trkpt><trkpt lat="44.21331159356194" lon="12.072080453736021"><ele>20.0</ele><time>2026-04-05T15:01:36Z</time></trkpt><trkpt lat="44.21304887707821" lon="12.0718700825235"><ele>20.5</ele><time>2026-04-05T15:01:37Z</time></trkpt><trkpt lat="44.212749230631154" lon="12.071647185068738"><ele>21.0</ele><time>2026-04-05T15:01:38Z</time></trkpt><trkpt lat="44.21249048985676" lon="12.07146833193567"><ele>21.5</ele><time>2026-04-05T15:01:39Z</time></trkpt><trkpt lat="44.212195820500234" lon="12.07126870467324"><ele>22.0</ele><time>2026-04-05T15:01:40Z</time></trkpt><trkpt lat="44.21191046657916" lon="12.071073770717202"><ele>22.0</ele><time>2026-04-05T15:01:41Z</time></trkpt><trkpt lat="44.21162812356266" lon="12.070880898929245"><ele>22.0</ele><time>2026-04-05T15:01:42Z</time></trkpt><trkpt lat="44.211349167241885" lon="12.070687032332467"><ele>22.0</ele><time>2026-04-05T15:01:43Z</time></trkpt><trkpt lat="44.211066849591134" lon="12.070490948309395"><ele>22.0</ele><time>2026-04-05T15:01:44Z</time></trkpt><trkpt lat="44.21078677820266" lon="12.070297463582582"><ele>22.0</ele><time>2026-04-05T15:01:45Z</time></trkpt><trkpt lat="44.210508745117245" lon="12.07010288594979"><ele>22.0</ele><time>2026-04-05T15:01:46Z</time></trkpt><trkpt lat="44.21019446486723" lon="12.069887015277127"><ele>22.5</ele><time>2026-04-05T15:01:47Z</time></trkpt><trkpt lat="44.20993367160159" lon="12.069691494014329"><ele>23.0</ele><time>2026-04-05T15:01:48Z</time></trkpt><trkpt lat="44.209649773409794" lon="12.069491337718304"><ele>23.0</ele><time>2026-04-05T15:01:49Z</time></trkpt><trkpt lat="44.2094163915555" lon="12.069314280300004"><ele>23.0</ele><time>2026-04-05T15:01:50Z</time></trkpt><trkpt lat="44.20910138902569" lon="12.069133027051809"><ele>23.0</ele><time>2026-04-05T15:01:51Z</time></trkpt><trkpt lat="44.20880954440161" lon="12.06893958389381"><ele>23.0</ele><time>2026-04-05T15:01:52Z</time></trkpt><trkpt lat="44.20856007891325" lon="12.068712795215108"><ele>23.0</ele><time>2026-04-05T15:01:53Z</time></trkpt><trkpt lat="44.20832451965548" lon="12.068463392037302"><ele>23.0</ele><time>2026-04-05T15:01:54Z</time></trkpt><trkpt lat="44.20810078412271" lon="12.068189616087983"><ele>22.5</ele><time>2026-04-05T15:01:55Z</time></trkpt><trkpt lat="44.207890201795756" lon="12.067890457864012"><ele>22.0</ele><time>2026-04-05T15:01:56Z</time></trkpt><trkpt lat="44.20769442466259" lon="12.067573690450306"><ele>23.0</ele><time>2026-04-05T15:01:57Z</time></trkpt><trkpt lat="44.207512270474766" lon="12.067235520887708"><ele>24.0</ele><time>2026-04-05T15:01:58Z</time></trkpt><trkpt lat="44.207340206872324" lon="12.066883339287145"><ele>23.0</ele><time>2026-04-05T15:01:59Z</time></trkpt><trkpt lat="44.2071789577999" lon="12.066518207181552"><ele>22.0</ele><time>2026-04-05T15:02:00Z</time></trkpt><trkpt lat="44.20703115803041" lon="12.06614204593331"><ele>21.5</ele><time>2026-04-05T15:02:01Z</time></trkpt><trkpt lat="44.206885453123384" lon="12.065760034352692"><ele>21.0</ele><time>2026-04-05T15:02:02Z</time></trkpt><trkpt lat="44.20674047347813" lon="12.065384226121258"><ele>21.0</ele><time>2026-04-05T15:02:03Z</time></trkpt><trkpt lat="44.20659008697757" lon="12.065012515129633"><ele>21.0</ele><time>2026-04-05T15:02:04Z</time></trkpt><trkpt lat="44.206427013789174" lon="12.064649670220886"><ele>21.5</ele><time>2026-04-05T15:02:05Z</time></trkpt><trkpt lat="44.20624695188805" lon="12.064302792982282"><ele>22.0</ele><time>2026-04-05T15:02:06Z</time></trkpt><trkpt lat="44.20604568196223" lon="12.063975411437434"><ele>22.0</ele><time>2026-04-05T15:02:07Z</time></trkpt><trkpt lat="44.20582664762517" lon="12.063667494665014"><ele>22.0</ele><time>2026-04-05T15:02:08Z</time></trkpt><trkpt lat="44.205595850044475" lon="12.063372704286675"><ele>22.0</ele><time>2026-04-05T15:02:09Z</time></trkpt><trkpt lat="44.20535501851975" lon="12.06309213304586"><ele>22.0</ele><time>2026-04-05T15:02:10Z</time></trkpt><trkpt lat="44.20508606209387" lon="12.06284809419485"><ele>22.0</ele><time>2026-04-05T15:02:11Z</time></trkpt><trkpt lat="44.20482659361661" lon="12.062598349931346"><ele>22.0</ele><time>2026-04-05T15:02:12Z</time></trkpt><trkpt lat="44.20456204983799" lon="12.062363114316447"><ele>22.5</ele><time>2026-04-05T15:02:13Z</time></trkpt><trkpt lat="44.20428817063678" lon="12.062131531543711"><ele>23.0</ele><time>2026-04-05T15:02:14Z</time></trkpt><trkpt lat="44.20400763522435" lon="12.061884335329923"><ele>23.5</ele><time>2026-04-05T15:02:15Z</time></trkpt><trkpt lat="44.20374120787425" lon="12.06170418135502"><ele>24.0</ele><time>2026-04-05T15:02:16Z</time></trkpt><trkpt lat="44.203476034667126" lon="12.06143355262833"><ele>24.0</ele><time>2026-04-05T15:02:17Z</time></trkpt><trkpt lat="44.203195460310376" lon="12.061210762437256"><ele>24.0</ele><time>2026-04-05T15:02:18Z</time></trkpt><trkpt lat="44.20292011338728" lon="12.060984679013622"><ele>25.0</ele><time>2026-04-05T15:02:19Z</time></trkpt><trkpt lat="44.20264584240898" lon="12.06075543482838"><ele>26.0</ele><time>2026-04-05T15:02:20Z</time></trkpt><trkpt lat="44.202368567469186" lon="12.060524958242967"><ele>26.0</ele><time>2026-04-05T15:02:21Z</time></trkpt><trkpt lat="44.20210165405263" lon="12.060284976885585"><ele>26.0</ele><time>2026-04-05T15:02:22Z</time></trkpt><trkpt lat="44.20183901683499" lon="12.060035856318509"><ele>26.0</ele><time>2026-04-05T15:02:23Z</time></trkpt><trkpt lat="44.20154784466534" lon="12.059795378892428"><ele>26.0</ele><time>2026-04-05T15:02:24Z</time></trkpt><trkpt lat="44.20128582893834" lon="12.059543241481101"><ele>26.0</ele><time>2026-04-05T15:02:25Z</time></trkpt><trkpt lat="44.201083911602595" lon="12.059258944025634"><ele>26.0</ele><time>2026-04-05T15:02:26Z</time></trkpt><trkpt lat="44.20081510330781" lon="12.058991383689126"><ele>25.5</ele><time>2026-04-05T15:02:27Z</time></trkpt><trkpt lat="44.20054452907199" lon="12.058725992817148"><ele>25.0</ele><time>2026-04-05T15:02:28.015Z</time></trkpt><trkpt lat="44.20027578211339" lon="12.058461079508858"><ele>26.0</ele><time>2026-04-05T15:02:29.022Z</time></trkpt><trkpt lat="44.19974533496115" lon="12.057942715113859"><ele>26.0</ele><time>2026-04-05T15:02:31.012Z</time></trkpt><trkpt lat="44.199477621440394" lon="12.057679505405453"><ele>26.0</ele><time>2026-04-05T15:02:32.016Z</time></trkpt><trkpt lat="44.19768753931317" lon="12.055555628623864"><ele>28.0</ele><time>2026-04-05T15:02:40.001Z</time></trkpt><trkpt lat="44.19743715099123" lon="12.055310511919842"><ele>30.0</ele><time>2026-04-05T15:02:41.001Z</time></trkpt><trkpt lat="44.19718521868194" lon="12.055007854834443"><ele>30.5</ele><time>2026-04-05T15:02:42.001Z</time></trkpt><trkpt lat="44.196919612761334" lon="12.054795977319738"><ele>31.0</ele><time>2026-04-05T15:02:43.001Z</time></trkpt><trkpt lat="44.19666021885357" lon="12.054578867005837"><ele>31.5</ele><time>2026-04-05T15:02:44.001Z</time></trkpt><trkpt lat="44.19639876516226" lon="12.054361431397528"><ele>32.0</ele><time>2026-04-05T15:02:45.001Z</time></trkpt><trkpt lat="44.19613558857159" lon="12.05414353923744"><ele>31.5</ele><time>2026-04-05T15:02:46.001Z</time></trkpt><trkpt lat="44.195869238368665" lon="12.053937475323924"><ele>31.0</ele><time>2026-04-05T15:02:47.001Z</time></trkpt><trkpt lat="44.19561144523972" lon="12.053712462072312"><ele>31.0</ele><time>2026-04-05T15:02:48.001Z</time></trkpt><trkpt lat="44.19534550744673" lon="12.053480635834044"><ele>31.0</ele><time>2026-04-05T15:02:49.001Z</time></trkpt><trkpt lat="44.195090197267525" lon="12.053288087785022"><ele>31.5</ele><time>2026-04-05T15:02:50.001Z</time></trkpt><trkpt lat="44.19483071474614" lon="12.053078376395803"><ele>32.0</ele><time>2026-04-05T15:02:51.001Z</time></trkpt><trkpt lat="44.19457510744011" lon="12.052868081615074"><ele>32.0</ele><time>2026-04-05T15:02:52.001Z</time></trkpt><trkpt lat="44.19431953990655" lon="12.052657269870057"><ele>32.0</ele><time>2026-04-05T15:02:53.001Z</time></trkpt><trkpt lat="44.19406385427502" lon="12.052451051646692"><ele>32.5</ele><time>2026-04-05T15:02:54.001Z</time></trkpt><trkpt lat="44.19381803385389" lon="12.052243703833376"><ele>33.0</ele><time>2026-04-05T15:02:55.001Z</time></trkpt><trkpt lat="44.19359392394373" lon="12.052050174356307"><ele>33.0</ele><time>2026-04-05T15:02:56.001Z</time></trkpt><trkpt lat="44.193372299616755" lon="12.051862571369462"><ele>33.0</ele><time>2026-04-05T15:02:57Z</time></trkpt><trkpt lat="44.19314174407818" lon="12.051669618028214"><ele>33.0</ele><time>2026-04-05T15:02:58Z</time></trkpt><trkpt lat="44.192911000365356" lon="12.051479096083849"><ele>33.0</ele><time>2026-04-05T15:02:59Z</time></trkpt><trkpt lat="44.19267594130013" lon="12.051286328088013"><ele>33.0</ele><time>2026-04-05T15:03:00Z</time></trkpt><trkpt lat="44.1924368681723" lon="12.051091352531875"><ele>33.0</ele><time>2026-04-05T15:03:01Z</time></trkpt><trkpt lat="44.192203657679066" lon="12.050901351896675"><ele>33.0</ele><time>2026-04-05T15:03:02Z</time></trkpt><trkpt lat="44.191975767947746" lon="12.050713936553246"><ele>33.0</ele><time>2026-04-05T15:03:03Z</time></trkpt><trkpt lat="44.191738658995696" lon="12.0505190635686"><ele>33.5</ele><time>2026-04-05T15:03:04Z</time></trkpt><trkpt lat="44.19150043722616" lon="12.0503215543805"><ele>34.0</ele><time>2026-04-05T15:03:05Z</time></trkpt><trkpt lat="44.19126560870866" lon="12.050126254718837"><ele>33.5</ele><time>2026-04-05T15:03:06Z</time></trkpt><trkpt lat="44.191028419117735" lon="12.049929215822596"><ele>33.0</ele><time>2026-04-05T15:03:07Z</time></trkpt><trkpt lat="44.190790223371785" lon="12.04973475288901"><ele>33.0</ele><time>2026-04-05T15:03:08Z</time></trkpt><trkpt lat="44.19055277613278" lon="12.049538889082282"><ele>33.0</ele><time>2026-04-05T15:03:09Z</time></trkpt><trkpt lat="44.19031540878697" lon="12.04934402276596"><ele>33.0</ele><time>2026-04-05T15:03:10Z</time></trkpt><trkpt lat="44.19007776886534" lon="12.049146736400544"><ele>33.0</ele><time>2026-04-05T15:03:11Z</time></trkpt><trkpt lat="44.189841304148274" lon="12.048950711011342"><ele>33.5</ele><time>2026-04-05T15:03:12Z</time></trkpt><trkpt lat="44.18960387190385" lon="12.04875031194594"><ele>34.0</ele><time>2026-04-05T15:03:13Z</time></trkpt><trkpt lat="44.18936534507317" lon="12.04855031802204"><ele>34.0</ele><time>2026-04-05T15:03:14Z</time></trkpt><trkpt lat="44.18913013192955" lon="12.048355360209586"><ele>34.0</ele><time>2026-04-05T15:03:15Z</time></trkpt><trkpt lat="44.188891939343286" lon="12.048163433280463"><ele>35.5</ele><time>2026-04-05T15:03:16Z</time></trkpt><trkpt lat="44.188654246073405" lon="12.04798297295986"><ele>37.0</ele><time>2026-04-05T15:03:17Z</time></trkpt><trkpt lat="44.1884150578246" lon="12.047805154690053"><ele>37.0</ele><time>2026-04-05T15:03:18Z</time></trkpt><trkpt lat="44.18816770498032" lon="12.047627847275585"><ele>37.0</ele><time>2026-04-05T15:03:19Z</time></trkpt><trkpt lat="44.1879189451717" lon="12.047457175204837"><ele>37.0</ele><time>2026-04-05T15:03:20Z</time></trkpt><trkpt lat="44.187669978139546" lon="12.047292827879257"><ele>37.0</ele><time>2026-04-05T15:03:21Z</time></trkpt><trkpt lat="44.18742129622898" lon="12.047145152919857"><ele>36.5</ele><time>2026-04-05T15:03:22Z</time></trkpt><trkpt lat="44.18716424025247" lon="12.047014982946873"><ele>36.0</ele><time>2026-04-05T15:03:23Z</time></trkpt><trkpt lat="44.186905128320745" lon="12.046905420240757"><ele>36.0</ele><time>2026-04-05T15:03:24Z</time></trkpt><trkpt lat="44.18663945289353" lon="12.046803795960393"><ele>36.0</ele><time>2026-04-05T15:03:25Z</time></trkpt><trkpt lat="44.18637274961839" lon="12.046709018922174"><ele>37.0</ele><time>2026-04-05T15:03:26Z</time></trkpt><trkpt lat="44.18610503518598" lon="12.046614325910564"><ele>38.0</ele><time>2026-04-05T15:03:27Z</time></trkpt><trkpt lat="44.18583395334066" lon="12.04651702536513"><ele>38.5</ele><time>2026-04-05T15:03:28Z</time></trkpt><trkpt lat="44.18556573436869" lon="12.046420043545384"><ele>39.0</ele><time>2026-04-05T15:03:29Z</time></trkpt><trkpt lat="44.18530174669313" lon="12.046321821145375"><ele>39.0</ele><time>2026-04-05T15:03:30Z</time></trkpt><trkpt lat="44.18504024610326" lon="12.046218379740576"><ele>39.0</ele><time>2026-04-05T15:03:31Z</time></trkpt><trkpt lat="44.18478067659579" lon="12.046100487135485"><ele>38.5</ele><time>2026-04-05T15:03:32Z</time></trkpt><trkpt lat="44.18452310148504" lon="12.045960697053017"><ele>38.0</ele><time>2026-04-05T15:03:33Z</time></trkpt><trkpt lat="44.18428004949127" lon="12.045799335205608"><ele>38.5</ele><time>2026-04-05T15:03:34Z</time></trkpt><trkpt lat="44.18404289193204" lon="12.045616136078234"><ele>39.0</ele><time>2026-04-05T15:03:35Z</time></trkpt><trkpt lat="44.18381763609026" lon="12.04541228389493"><ele>39.0</ele><time>2026-04-05T15:03:36Z</time></trkpt><trkpt lat="44.18360221450643" lon="12.045195305681746"><ele>39.0</ele><time>2026-04-05T15:03:37Z</time></trkpt><trkpt lat="44.183392846031204" lon="12.044964647970218"><ele>39.5</ele><time>2026-04-05T15:03:38Z</time></trkpt><trkpt lat="44.183204192492894" lon="12.044728995646867"><ele>40.0</ele><time>2026-04-05T15:03:39Z</time></trkpt><trkpt lat="44.183033883942194" lon="12.044493268618616"><ele>40.0</ele><time>2026-04-05T15:03:40Z</time></trkpt><trkpt lat="44.182892835070554" lon="12.04426307271302"><ele>40.0</ele><time>2026-04-05T15:03:41Z</time></trkpt><trkpt lat="44.18275405698864" lon="12.044033121423546"><ele>40.0</ele><time>2026-04-05T15:03:42Z</time></trkpt><trkpt lat="44.18262358841161" lon="12.04381219315609"><ele>40.0</ele><time>2026-04-05T15:03:43Z</time></trkpt><trkpt lat="44.18249698021922" lon="12.04359811597796"><ele>40.0</ele><time>2026-04-05T15:03:44Z</time></trkpt><trkpt lat="44.18237433303582" lon="12.04339492979177"><ele>40.0</ele><time>2026-04-05T15:03:45Z</time></trkpt><trkpt lat="44.18224942528296" lon="12.043187331338038"><ele>40.333333333333336</ele><time>2026-04-05T15:03:46Z</time></trkpt><trkpt lat="44.182124017173166" lon="12.042979017171646"><ele>40.666666666666664</ele><time>2026-04-05T15:03:47Z</time></trkpt><trkpt lat="44.18199795729692" lon="12.042778173633065"><ele>41.0</ele><time>2026-04-05T15:03:48Z</time></trkpt><trkpt lat="44.181872279712934" lon="12.042589410917937"><ele>41.0</ele><time>2026-04-05T15:03:49Z</time></trkpt><trkpt lat="44.18174785354867" lon="12.042412601975656"><ele>41.0</ele><time>2026-04-05T15:03:50Z</time></trkpt><trkpt lat="44.18161849565034" lon="12.042241469929698"><ele>41.0</ele><time>2026-04-05T15:03:51Z</time></trkpt><trkpt lat="44.18149438725545" lon="12.042094558174291"><ele>41.0</ele><time>2026-04-05T15:03:52Z</time></trkpt><trkpt lat="44.18137922535762" lon="12.041966232679927"><ele>41.0</ele><time>2026-04-05T15:03:53Z</time></trkpt><trkpt lat="44.181268288504405" lon="12.041850759962164"><ele>41.0</ele><time>2026-04-05T15:03:54Z</time></trkpt><trkpt lat="44.18116226642472" lon="12.041745715225181"><ele>41.0</ele><time>2026-04-05T15:03:55Z</time></trkpt><trkpt lat="44.18105974773113" lon="12.04164194440152"><ele>41.4</ele><time>2026-04-05T15:03:56Z</time></trkpt><trkpt lat="44.18096529122306" lon="12.041542103020102"><ele>41.8</ele><time>2026-04-05T15:03:57Z</time></trkpt><trkpt lat="44.18088062375444" lon="12.041452944418301"><ele>42.199999999999996</ele><time>2026-04-05T15:03:58Z</time></trkpt><trkpt lat="44.180806606837606" lon="12.041376662184614"><ele>42.599999999999994</ele><time>2026-04-05T15:03:59Z</time></trkpt><trkpt lat="44.1807435956176" lon="12.041309867889193"><ele>43.0</ele><time>2026-04-05T15:04:00Z</time></trkpt><trkpt lat="44.18068837306234" lon="12.041254710969406"><ele>42.8</ele><time>2026-04-05T15:04:01Z</time></trkpt><trkpt lat="44.18062800697999" lon="12.041190272672788"><ele>42.599999999999994</ele><time>2026-04-05T15:04:03Z</time></trkpt><trkpt lat="44.18057510805422" lon="12.041135989179335"><ele>42.400000000000006</ele><time>2026-04-05T15:04:07Z</time></trkpt><trkpt lat="44.180511624706384" lon="12.041015014331888"><ele>42.2</ele><time>2026-04-05T15:04:10Z</time></trkpt><trkpt lat="44.180475001471706" lon="12.040863933429469"><ele>42.0</ele><time>2026-04-05T15:04:12Z</time></trkpt><trkpt lat="44.180442978303304" lon="12.04072373619941"><ele>42.0</ele><time>2026-04-05T15:04:14Z</time></trkpt><trkpt lat="44.180392687116615" lon="12.040655296454705"><ele>42.0</ele><time>2026-04-05T15:04:15Z</time></trkpt><trkpt lat="44.18032849764715" lon="12.04060440073513"><ele>42.0</ele><time>2026-04-05T15:04:16Z</time></trkpt><trkpt lat="44.1802462848601" lon="12.04060944018187"><ele>42.0</ele><time>2026-04-05T15:04:17Z</time></trkpt><trkpt lat="44.18017113747281" lon="12.040662299331254"><ele>42.0</ele><time>2026-04-05T15:04:18Z</time></trkpt><trkpt lat="44.18011536842028" lon="12.040759399640718"><ele>42.0</ele><time>2026-04-05T15:04:19Z</time></trkpt><trkpt lat="44.180087583207616" lon="12.040882934646607"><ele>42.0</ele><time>2026-04-05T15:04:20Z</time></trkpt><trkpt lat="44.180088505803326" lon="12.041021000462116"><ele>42.0</ele><time>2026-04-05T15:04:21Z</time></trkpt><trkpt lat="44.18008130995688" lon="12.0411493200544"><ele>42.0</ele><time>2026-04-05T15:04:22Z</time></trkpt><trkpt lat="44.18002258307284" lon="12.041263309900652"><ele>42.0</ele><time>2026-04-05T15:04:23Z</time></trkpt><trkpt lat="44.17993055669189" lon="12.041351734111208"><ele>42.0</ele><time>2026-04-05T15:04:24Z</time></trkpt><trkpt lat="44.17980381243907" lon="12.041375312910256"><ele>42.25</ele><time>2026-04-05T15:04:25Z</time></trkpt><trkpt lat="44.17966462474807" lon="12.041363238171675"><ele>42.5</ele><time>2026-04-05T15:04:26Z</time></trkpt><trkpt lat="44.17952195035677" lon="12.041363027743019"><ele>42.75</ele><time>2026-04-05T15:04:27Z</time></trkpt><trkpt lat="44.17937111227238" lon="12.04140375574626"><ele>43.0</ele><time>2026-04-05T15:04:28Z</time></trkpt><trkpt lat="44.17923100420854" lon="12.041463069931876"><ele>43.0</ele><time>2026-04-05T15:04:29.001Z</time></trkpt><trkpt lat="44.179108156554584" lon="12.041518239571545"><ele>43.0</ele><time>2026-04-05T15:04:30.001Z</time></trkpt><trkpt lat="44.178989534540655" lon="12.041564779635117"><ele>43.0</ele><time>2026-04-05T15:04:31.001Z</time></trkpt><trkpt lat="44.17887086139891" lon="12.041608771627923"><ele>43.0</ele><time>2026-04-05T15:04:32.001Z</time></trkpt><trkpt lat="44.17875270431964" lon="12.04165020580217"><ele>43.0</ele><time>2026-04-05T15:04:33.001Z</time></trkpt><trkpt lat="44.178633790154485" lon="12.041694524130934"><ele>43.0</ele><time>2026-04-05T15:04:34.001Z</time></trkpt><trkpt lat="44.17851386222432" lon="12.041742102831769"><ele>43.0</ele><time>2026-04-05T15:04:35.001Z</time></trkpt><trkpt lat="44.17839013351319" lon="12.041792378632485"><ele>43.0</ele><time>2026-04-05T15:04:36.001Z</time></trkpt><trkpt lat="44.178261286118776" lon="12.041845020438299"><ele>43.0</ele><time>2026-04-05T15:04:37.001Z</time></trkpt><trkpt lat="44.178126425998464" lon="12.041891050757679"><ele>43.0</ele><time>2026-04-05T15:04:38.001Z</time></trkpt><trkpt lat="44.17798668206484" lon="12.041935351782831"><ele>43.0</ele><time>2026-04-05T15:04:39.001Z</time></trkpt><trkpt lat="44.177839920838814" lon="12.041975599164243"><ele>43.0</ele><time>2026-04-05T15:04:40.001Z</time></trkpt><trkpt lat="44.17769368034377" lon="12.042017908161206"><ele>43.0</ele><time>2026-04-05T15:04:41.001Z</time></trkpt><trkpt lat="44.177542847937694" lon="12.042062179388562"><ele>43.0</ele><time>2026-04-05T15:04:42.001Z</time></trkpt><trkpt lat="44.1773924706264" lon="12.042114668031635"><ele>43.0</ele><time>2026-04-05T15:04:43.001Z</time></trkpt><trkpt lat="44.177239535350715" lon="12.042172624067128"><ele>43.333333333333336</ele><time>2026-04-05T15:04:44.001Z</time></trkpt><trkpt lat="44.17708352474917" lon="12.042234140492422"><ele>43.666666666666664</ele><time>2026-04-05T15:04:45.001Z</time></trkpt><trkpt lat="44.17693905008564" lon="12.042298844878603"><ele>44.0</ele><time>2026-04-05T15:04:46.001Z</time></trkpt><trkpt lat="44.17679521925101" lon="12.042363387940227"><ele>44.0</ele><time>2026-04-05T15:04:47.001Z</time></trkpt><trkpt lat="44.17664532932661" lon="12.04244398301014"><ele>44.0</ele><time>2026-04-05T15:04:48.001Z</time></trkpt><trkpt lat="44.176497346569505" lon="12.04253909420594"><ele>44.0</ele><time>2026-04-05T15:04:49.001Z</time></trkpt><trkpt lat="44.17634511030863" lon="12.042632302441387"><ele>44.33333333333333</ele><time>2026-04-05T15:04:50.001Z</time></trkpt><trkpt lat="44.176195481588294" lon="12.04273551092304"><ele>44.666666666666664</ele><time>2026-04-05T15:04:51.001Z</time></trkpt><trkpt lat="44.17604529957807" lon="12.042846378601414"><ele>45.0</ele><time>2026-04-05T15:04:52.001Z</time></trkpt><trkpt lat="44.17589452505101" lon="12.042966939466655"><ele>45.0</ele><time>2026-04-05T15:04:53.001Z</time></trkpt><trkpt lat="44.17574274312243" lon="12.043090118752781"><ele>45.0</ele><time>2026-04-05T15:04:54.001Z</time></trkpt><trkpt lat="44.175580753613815" lon="12.043214122586834"><ele>45.0</ele><time>2026-04-05T15:04:55.001Z</time></trkpt><trkpt lat="44.175415945209814" lon="12.043338949388176"><ele>44.666666666666664</ele><time>2026-04-05T15:04:56.001Z</time></trkpt><trkpt lat="44.175252016306914" lon="12.043466387763235"><ele>44.33333333333333</ele><time>2026-04-05T15:04:57.001Z</time></trkpt><trkpt lat="44.175082882703286" lon="12.04359772224437"><ele>44.0</ele><time>2026-04-05T15:04:58.001Z</time></trkpt><trkpt lat="44.17490659581442" lon="12.043724665053707"><ele>44.0</ele><time>2026-04-05T15:04:59.001Z</time></trkpt><trkpt lat="44.1747274201861" lon="12.043863561734776"><ele>44.0</ele><time>2026-04-05T15:05:00.001Z</time></trkpt><trkpt lat="44.17454545922243" lon="12.044005267815772"><ele>44.0</ele><time>2026-04-05T15:05:01.001Z</time></trkpt><trkpt lat="44.17435784184346" lon="12.044146310167575"><ele>44.0</ele><time>2026-04-05T15:05:02.001Z</time></trkpt><trkpt lat="44.17416860116853" lon="12.044291507921688"><ele>44.0</ele><time>2026-04-05T15:05:03.001Z</time></trkpt><trkpt lat="44.17397830241984" lon="12.044444657035871"><ele>44.0</ele><time>2026-04-05T15:05:04.001Z</time></trkpt><trkpt lat="44.1737841823799" lon="12.044601234993346"><ele>44.0</ele><time>2026-04-05T15:05:05.001Z</time></trkpt><trkpt lat="44.17358542061176" lon="12.044753758562228"><ele>44.0</ele><time>2026-04-05T15:05:06.001Z</time></trkpt><trkpt lat="44.173387698461276" lon="12.044909620853183"><ele>44.0</ele><time>2026-04-05T15:05:07.001Z</time></trkpt><trkpt lat="44.173182853697554" lon="12.04506751136195"><ele>44.0</ele><time>2026-04-05T15:05:08.001Z</time></trkpt><trkpt lat="44.172978337058304" lon="12.045225207020044"><ele>44.0</ele><time>2026-04-05T15:05:09.001Z</time></trkpt><trkpt lat="44.17277256807127" lon="12.045385094851328"><ele>44.0</ele><time>2026-04-05T15:05:10.001Z</time></trkpt><trkpt lat="44.17257295520446" lon="12.04554177228817"><ele>44.0</ele><time>2026-04-05T15:05:11.001Z</time></trkpt><trkpt lat="44.17236947411396" lon="12.045697814746777"><ele>44.0</ele><time>2026-04-05T15:05:12.001Z</time></trkpt><trkpt lat="44.17216910408031" lon="12.045854735149545"><ele>44.33333333333333</ele><time>2026-04-05T15:05:13.001Z</time></trkpt><trkpt lat="44.17198308589471" lon="12.045999757255435"><ele>44.666666666666664</ele><time>2026-04-05T15:05:14.001Z</time></trkpt><trkpt lat="44.17180814964349" lon="12.046138938576869"><ele>45.0</ele><time>2026-04-05T15:05:15.001Z</time></trkpt><trkpt lat="44.1716481730145" lon="12.046266195944613"><ele>45.333333333333336</ele><time>2026-04-05T15:05:16.001Z</time></trkpt><trkpt lat="44.17149561974668" lon="12.046386216715735"><ele>45.66666666666667</ele><time>2026-04-05T15:05:17.001Z</time></trkpt><trkpt lat="44.17134842420852" lon="12.046507657137957"><ele>46.0</ele><time>2026-04-05T15:05:18.001Z</time></trkpt><trkpt lat="44.17118547304244" lon="12.04664454671477"><ele>46.333333333333336</ele><time>2026-04-05T15:05:19Z</time></trkpt><trkpt lat="44.17100829019688" lon="12.046797363441344"><ele>46.666666666666664</ele><time>2026-04-05T15:05:20Z</time></trkpt><trkpt lat="44.17080380952007" lon="12.046931557008687"><ele>47.0</ele><time>2026-04-05T15:05:21Z</time></trkpt><trkpt lat="44.170551731714426" lon="12.047119042550968"><ele>47.5</ele><time>2026-04-05T15:05:22Z</time></trkpt><trkpt lat="44.17036585914074" lon="12.047264916649514"><ele>48.0</ele><time>2026-04-05T15:05:23Z</time></trkpt><trkpt lat="44.170155699025436" lon="12.047417725477628"><ele>48.0</ele><time>2026-04-05T15:05:24Z</time></trkpt><trkpt lat="44.16993763555581" lon="12.04758210488425"><ele>48.0</ele><time>2026-04-05T15:05:25Z</time></trkpt><trkpt lat="44.169712941491326" lon="12.047743023545248"><ele>48.5</ele><time>2026-04-05T15:05:26Z</time></trkpt><trkpt lat="44.169481773504" lon="12.047906050870944"><ele>49.0</ele><time>2026-04-05T15:05:27Z</time></trkpt><trkpt lat="44.169258647445425" lon="12.04808197304911"><ele>49.0</ele><time>2026-04-05T15:05:28Z</time></trkpt><trkpt lat="44.169028901971075" lon="12.048259651541688"><ele>49.0</ele><time>2026-04-05T15:05:29Z</time></trkpt><trkpt lat="44.168805514645385" lon="12.048432101387332"><ele>48.5</ele><time>2026-04-05T15:05:30Z</time></trkpt><trkpt lat="44.16859169323118" lon="12.048600286653688"><ele>48.0</ele><time>2026-04-05T15:05:31Z</time></trkpt><trkpt lat="44.16837936992619" lon="12.048761702526669"><ele>48.5</ele><time>2026-04-05T15:05:32Z</time></trkpt><trkpt lat="44.16816754903767" lon="12.048934359228484"><ele>49.0</ele><time>2026-04-05T15:05:33Z</time></trkpt><trkpt lat="44.16796559039459" lon="12.04915277506439"><ele>49.5</ele><time>2026-04-05T15:05:34Z</time></trkpt><trkpt lat="44.167770636094694" lon="12.049406078696826"><ele>50.0</ele><time>2026-04-05T15:05:35Z</time></trkpt><trkpt lat="44.16758396631766" lon="12.049667759715607"><ele>50.0</ele><time>2026-04-05T15:05:36Z</time></trkpt><trkpt lat="44.16740805730871" lon="12.049925157432492"><ele>50.0</ele><time>2026-04-05T15:05:37Z</time></trkpt><trkpt lat="44.16722841974028" lon="12.050173749924681"><ele>53.5</ele><time>2026-04-05T15:05:38Z</time></trkpt><trkpt lat="44.16704302426395" lon="12.050420841573139"><ele>57.0</ele><time>2026-04-05T15:05:39Z</time></trkpt><trkpt lat="44.16686419080267" lon="12.05064174458595"><ele>58.0</ele><time>2026-04-05T15:05:40Z</time></trkpt><trkpt lat="44.1667043765406" lon="12.050847860257875"><ele>59.0</ele><time>2026-04-05T15:05:41Z</time></trkpt><trkpt lat="44.166548465104" lon="12.051026341244176"><ele>60.0</ele><time>2026-04-05T15:05:42Z</time></trkpt><trkpt lat="44.16638955908976" lon="12.051186025497461"><ele>60.33333333333333</ele><time>2026-04-05T15:05:43Z</time></trkpt><trkpt lat="44.16622214574612" lon="12.051345272150224"><ele>60.666666666666664</ele><time>2026-04-05T15:05:44Z</time></trkpt><trkpt lat="44.16604933505205" lon="12.051505460630429"><ele>61.0</ele><time>2026-04-05T15:05:45Z</time></trkpt><trkpt lat="44.165875312807174" lon="12.051669673959859"><ele>62.0</ele><time>2026-04-05T15:05:46Z</time></trkpt><trkpt lat="44.16570467196354" lon="12.051828761724984"><ele>63.0</ele><time>2026-04-05T15:05:47Z</time></trkpt><trkpt lat="44.165546743071545" lon="12.051976486328952"><ele>64.0</ele><time>2026-04-05T15:05:48Z</time></trkpt><trkpt lat="44.165400930124115" lon="12.052122352210828"><ele>64.0</ele><time>2026-04-05T15:05:49Z</time></trkpt><trkpt lat="44.16526208933213" lon="12.052272587530291"><ele>64.0</ele><time>2026-04-05T15:05:50Z</time></trkpt><trkpt lat="44.16513818634235" lon="12.052423035181889"><ele>64.0</ele><time>2026-04-05T15:05:51Z</time></trkpt><trkpt lat="44.16502402169778" lon="12.052576251677603"><ele>64.33333333333333</ele><time>2026-04-05T15:05:52Z</time></trkpt><trkpt lat="44.16490721615123" lon="12.052738221472227"><ele>64.66666666666667</ele><time>2026-04-05T15:05:53Z</time></trkpt><trkpt lat="44.164788735900714" lon="12.052895973226805"><ele>65.0</ele><time>2026-04-05T15:05:54Z</time></trkpt><trkpt lat="44.164670293168115" lon="12.05304844229932"><ele>65.0</ele><time>2026-04-05T15:05:55Z</time></trkpt><trkpt lat="44.164556751320056" lon="12.053193657515653"><ele>65.0</ele><time>2026-04-05T15:05:56Z</time></trkpt><trkpt lat="44.164445403505574" lon="12.053333124167885"><ele>65.0</ele><time>2026-04-05T15:05:57Z</time></trkpt><trkpt lat="44.164324709971226" lon="12.05346875609411"><ele>64.66666666666667</ele><time>2026-04-05T15:05:58Z</time></trkpt><trkpt lat="44.164195525802754" lon="12.05359070347611"><ele>64.33333333333333</ele><time>2026-04-05T15:05:59Z</time></trkpt><trkpt lat="44.16405231196377" lon="12.0536971461075"><ele>64.0</ele><time>2026-04-05T15:06:00Z</time></trkpt><trkpt lat="44.16390345613154" lon="12.05378705622224"><ele>65.0</ele><time>2026-04-05T15:06:01Z</time></trkpt><trkpt lat="44.16375143525247" lon="12.053856742793586"><ele>66.0</ele><time>2026-04-05T15:06:02.001Z</time></trkpt><trkpt lat="44.16359637480232" lon="12.053908827357683"><ele>67.0</ele><time>2026-04-05T15:06:03.001Z</time></trkpt><trkpt lat="44.163434873970004" lon="12.053943229423918"><ele>67.0</ele><time>2026-04-05T15:06:04.001Z</time></trkpt><trkpt lat="44.16327355069526" lon="12.053959567962847"><ele>67.0</ele><time>2026-04-05T15:06:05.001Z</time></trkpt><trkpt lat="44.16310983001714" lon="12.053961780344922"><ele>67.0</ele><time>2026-04-05T15:06:06.001Z</time></trkpt><trkpt lat="44.16293785815436" lon="12.053964246820522"><ele>68.0</ele><time>2026-04-05T15:06:07.001Z</time></trkpt><trkpt lat="44.162741520395805" lon="12.053961181830424"><ele>69.0</ele><time>2026-04-05T15:06:08.001Z</time></trkpt><trkpt lat="44.16252886873316" lon="12.053954569890442"><ele>70.0</ele><time>2026-04-05T15:06:09.001Z</time></trkpt><trkpt lat="44.16230883313033" lon="12.05393583136814"><ele>70.5</ele><time>2026-04-05T15:06:10.001Z</time></trkpt><trkpt lat="44.16207645548205" lon="12.053898849998793"><ele>71.0</ele><time>2026-04-05T15:06:11.001Z</time></trkpt><trkpt lat="44.16183962985434" lon="12.05384839016416"><ele>71.0</ele><time>2026-04-05T15:06:12.001Z</time></trkpt><trkpt lat="44.16160857732172" lon="12.053782125490933"><ele>71.0</ele><time>2026-04-05T15:06:13.001Z</time></trkpt><trkpt lat="44.161383412983994" lon="12.053705148772828"><ele>71.66666666666667</ele><time>2026-04-05T15:06:14.001Z</time></trkpt><trkpt lat="44.16117039196114" lon="12.05363220179375"><ele>72.33333333333333</ele><time>2026-04-05T15:06:15.001Z</time></trkpt><trkpt lat="44.16095688020679" lon="12.053570590600478"><ele>73.0</ele><time>2026-04-05T15:06:16.001Z</time></trkpt><trkpt lat="44.1607413053543" lon="12.053529727735881"><ele>73.33333333333333</ele><time>2026-04-05T15:06:17.001Z</time></trkpt><trkpt lat="44.16052447744156" lon="12.053507828092968"><ele>73.66666666666667</ele><time>2026-04-05T15:06:18.001Z</time></trkpt><trkpt lat="44.16030518594668" lon="12.0535189768698"><ele>74.0</ele><time>2026-04-05T15:06:19.001Z</time></trkpt><trkpt lat="44.16008061508081" lon="12.053546679179028"><ele>74.5</ele><time>2026-04-05T15:06:20.001Z</time></trkpt><trkpt lat="44.1598531970194" lon="12.053589466460156"><ele>75.0</ele><time>2026-04-05T15:06:21.001Z</time></trkpt><trkpt lat="44.15961938623701" lon="12.05363339628956"><ele>75.0</ele><time>2026-04-05T15:06:22.001Z</time></trkpt><trkpt lat="44.159383980207636" lon="12.05367439100762"><ele>75.0</ele><time>2026-04-05T15:06:23.001Z</time></trkpt><trkpt lat="44.159142162942544" lon="12.0537141908605"><ele>76.0</ele><time>2026-04-05T15:06:24.001Z</time></trkpt><trkpt lat="44.15890194079152" lon="12.05375737049024"><ele>77.0</ele><time>2026-04-05T15:06:25.001Z</time></trkpt><trkpt lat="44.15865161603441" lon="12.053801994036624"><ele>77.0</ele><time>2026-04-05T15:06:26.001Z</time></trkpt><trkpt lat="44.15839733361651" lon="12.053841776042434"><ele>77.0</ele><time>2026-04-05T15:06:27.001Z</time></trkpt><trkpt lat="44.1581395159797" lon="12.053885844284592"><ele>78.5</ele><time>2026-04-05T15:06:28.001Z</time></trkpt><trkpt lat="44.15787203649356" lon="12.053929222112624"><ele>80.0</ele><time>2026-04-05T15:06:29.001Z</time></trkpt><trkpt lat="44.157596894007824" lon="12.053970515669981"><ele>80.5</ele><time>2026-04-05T15:06:30.001Z</time></trkpt><trkpt lat="44.15731883223455" lon="12.054015929687893"><ele>81.0</ele><time>2026-04-05T15:06:31.001Z</time></trkpt><trkpt lat="44.15705018139017" lon="12.054056086374942"><ele>81.0</ele><time>2026-04-05T15:06:32.001Z</time></trkpt><trkpt lat="44.156790724546745" lon="12.054096669256637"><ele>81.0</ele><time>2026-04-05T15:06:33.001Z</time></trkpt><trkpt lat="44.15653969617439" lon="12.05415151680484"><ele>82.0</ele><time>2026-04-05T15:06:34.001Z</time></trkpt><trkpt lat="44.15629356223664" lon="12.05423587497196"><ele>83.0</ele><time>2026-04-05T15:06:35.001Z</time></trkpt><trkpt lat="44.156056832188725" lon="12.054362078068221"><ele>83.0</ele><time>2026-04-05T15:06:36.001Z</time></trkpt><trkpt lat="44.15581453827085" lon="12.054524803680126"><ele>83.0</ele><time>2026-04-05T15:06:37.001Z</time></trkpt><trkpt lat="44.155579733808004" lon="12.05471184575049"><ele>83.0</ele><time>2026-04-05T15:06:38.001Z</time></trkpt><trkpt lat="44.15534162339053" lon="12.054902656051734"><ele>83.0</ele><time>2026-04-05T15:06:39.001Z</time></trkpt><trkpt lat="44.15509624934108" lon="12.055085822499464"><ele>82.5</ele><time>2026-04-05T15:06:40.001Z</time></trkpt><trkpt lat="44.15485677226441" lon="12.05526435044185"><ele>82.0</ele><time>2026-04-05T15:06:41.001Z</time></trkpt><trkpt lat="44.15462408938578" lon="12.055447225092964"><ele>82.0</ele><time>2026-04-05T15:06:42.001Z</time></trkpt><trkpt lat="44.1544054204251" lon="12.055662829497566"><ele>82.0</ele><time>2026-04-05T15:06:43.001Z</time></trkpt><trkpt lat="44.15420642467098" lon="12.055921448489142"><ele>81.5</ele><time>2026-04-05T15:06:44.001Z</time></trkpt><trkpt lat="44.154041431026656" lon="12.056220327134133"><ele>81.0</ele><time>2026-04-05T15:06:45.001Z</time></trkpt><trkpt lat="44.15390811088476" lon="12.056554236527404"><ele>81.5</ele><time>2026-04-05T15:06:46.001Z</time></trkpt><trkpt lat="44.15378398398349" lon="12.056895979467235"><ele>82.0</ele><time>2026-04-05T15:06:47.001Z</time></trkpt><trkpt lat="44.15362611001375" lon="12.05720318246479"><ele>82.0</ele><time>2026-04-05T15:06:48.001Z</time></trkpt><trkpt lat="44.153451967726525" lon="12.05749701626419"><ele>82.0</ele><time>2026-04-05T15:06:49.001Z</time></trkpt><trkpt lat="44.15325315131543" lon="12.057774412874656"><ele>80.0</ele><time>2026-04-05T15:06:50.001Z</time></trkpt><trkpt lat="44.15307199626585" lon="12.058025792132161"><ele>78.0</ele><time>2026-04-05T15:06:51.001Z</time></trkpt><trkpt lat="44.152902705910506" lon="12.058193811700963"><ele>78.5</ele><time>2026-04-05T15:06:52.001Z</time></trkpt><trkpt lat="44.15260831158823" lon="12.058524675160866"><ele>79.0</ele><time>2026-04-05T15:06:53.001Z</time></trkpt><trkpt lat="44.15238384730232" lon="12.058770147412648"><ele>76.5</ele><time>2026-04-05T15:06:54.001Z</time></trkpt><trkpt lat="44.1521645447695" lon="12.059026667576475"><ele>74.0</ele><time>2026-04-05T15:06:55.001Z</time></trkpt><trkpt lat="44.15195465769035" lon="12.059299751780296"><ele>74.0</ele><time>2026-04-05T15:06:56.001Z</time></trkpt><trkpt lat="44.151761414462186" lon="12.059599579138373"><ele>74.0</ele><time>2026-04-05T15:06:57.001Z</time></trkpt><trkpt lat="44.151586262786644" lon="12.059926623773583"><ele>70.5</ele><time>2026-04-05T15:06:58.001Z</time></trkpt><trkpt lat="44.151429353245256" lon="12.060285098967436"><ele>67.0</ele><time>2026-04-05T15:06:59.001Z</time></trkpt><trkpt lat="44.15128206761951" lon="12.0606503802492"><ele>69.0</ele><time>2026-04-05T15:07:00.001Z</time></trkpt><trkpt lat="44.15113194344339" lon="12.061011603726975"><ele>71.0</ele><time>2026-04-05T15:07:01.001Z</time></trkpt><trkpt lat="44.150977847071935" lon="12.061372942941674"><ele>72.0</ele><time>2026-04-05T15:07:02.001Z</time></trkpt><trkpt lat="44.15082556412974" lon="12.061728390000274"><ele>73.0</ele><time>2026-04-05T15:07:03.001Z</time></trkpt><trkpt lat="44.15067905926207" lon="12.062084688340997"><ele>70.0</ele><time>2026-04-05T15:07:04.001Z</time></trkpt><trkpt lat="44.15055579339917" lon="12.062455750104254"><ele>67.0</ele><time>2026-04-05T15:07:05.001Z</time></trkpt><trkpt lat="44.150460731978704" lon="12.062811323309182"><ele>67.0</ele><time>2026-04-05T15:07:06.001Z</time></trkpt><trkpt lat="44.15033297246017" lon="12.063100052682241"><ele>67.0</ele><time>2026-04-05T15:07:07.001Z</time></trkpt><trkpt lat="44.15018692521032" lon="12.06334770810218"><ele>67.0</ele><time>2026-04-05T15:07:08.001Z</time></trkpt><trkpt lat="44.15001440087552" lon="12.06355206337971"><ele>67.0</ele><time>2026-04-05T15:07:09.001Z</time></trkpt><trkpt lat="44.14983648175602" lon="12.06374527458229"><ele>66.0</ele><time>2026-04-05T15:07:10.001Z</time></trkpt><trkpt lat="44.14966724909234" lon="12.063945568211372"><ele>65.0</ele><time>2026-04-05T15:07:11.001Z</time></trkpt><trkpt lat="44.149493229552284" lon="12.064117159639794"><ele>64.0</ele><time>2026-04-05T15:07:12.001Z</time></trkpt><trkpt lat="44.14932649794024" lon="12.064296383012284"><ele>63.0</ele><time>2026-04-05T15:07:13.001Z</time></trkpt><trkpt lat="44.14915842380567" lon="12.064476293180105"><ele>62.0</ele><time>2026-04-05T15:07:14.001Z</time></trkpt><trkpt lat="44.1489849020856" lon="12.06465748819827"><ele>61.0</ele><time>2026-04-05T15:07:15.001Z</time></trkpt><trkpt lat="44.14881957952458" lon="12.064851754120475"><ele>59.33333333333333</ele><time>2026-04-05T15:07:16Z</time></trkpt><trkpt lat="44.14866886838363" lon="12.06506346949563"><ele>57.66666666666667</ele><time>2026-04-05T15:07:17Z</time></trkpt><trkpt lat="44.14852661128321" lon="12.065279776538283"><ele>56.0</ele><time>2026-04-05T15:07:18Z</time></trkpt><trkpt lat="44.14839443734238" lon="12.065494461436058"><ele>56.0</ele><time>2026-04-05T15:07:19Z</time></trkpt><trkpt lat="44.14826071221896" lon="12.065701604058003"><ele>56.0</ele><time>2026-04-05T15:07:20Z</time></trkpt><trkpt lat="44.14812338778921" lon="12.06590306181584"><ele>56.0</ele><time>2026-04-05T15:07:21Z</time></trkpt><trkpt lat="44.14798218924556" lon="12.066096244444095"><ele>55.333333333333336</ele><time>2026-04-05T15:07:22Z</time></trkpt><trkpt lat="44.14784297927748" lon="12.066290189774035"><ele>54.66666666666667</ele><time>2026-04-05T15:07:23Z</time></trkpt><trkpt lat="44.147710811286" lon="12.066494756435164"><ele>54.0</ele><time>2026-04-05T15:07:24Z</time></trkpt><trkpt lat="44.14758141036493" lon="12.066699551641706"><ele>54.0</ele><time>2026-04-05T15:07:25Z</time></trkpt><trkpt lat="44.147455171403514" lon="12.066895411366167"><ele>54.0</ele><time>2026-04-05T15:07:26Z</time></trkpt><trkpt lat="44.14735149303747" lon="12.067080461242417"><ele>54.0</ele><time>2026-04-05T15:07:27Z</time></trkpt><trkpt lat="44.14727018838041" lon="12.067253094189107"><ele>54.0</ele><time>2026-04-05T15:07:28Z</time></trkpt><trkpt lat="44.147202203286184" lon="12.067408692932066"><ele>54.0</ele><time>2026-04-05T15:07:29Z</time></trkpt><trkpt lat="44.14711692726262" lon="12.067543927045383"><ele>54.0</ele><time>2026-04-05T15:07:30Z</time></trkpt><trkpt lat="44.14702079278232" lon="12.067637663013436"><ele>54.0</ele><time>2026-04-05T15:07:31Z</time></trkpt><trkpt lat="44.146956212446135" lon="12.067733946234895"><ele>54.0</ele><time>2026-04-05T15:07:32Z</time></trkpt><trkpt lat="44.14693834389574" lon="12.067865232391423"><ele>54.0</ele><time>2026-04-05T15:07:33Z</time></trkpt><trkpt lat="44.14696264049055" lon="12.068032647194734"><ele>54.0</ele><time>2026-04-05T15:07:34Z</time></trkpt><trkpt lat="44.146992530374476" lon="12.06822128699592"><ele>54.0</ele><time>2026-04-05T15:07:35Z</time></trkpt><trkpt lat="44.14695357973218" lon="12.068412699355017"><ele>53.33333333333333</ele><time>2026-04-05T15:07:36Z</time></trkpt><trkpt lat="44.146937322915505" lon="12.06862992572416"><ele>52.666666666666664</ele><time>2026-04-05T15:07:37Z</time></trkpt><trkpt lat="44.14689989327373" lon="12.068863038423133"><ele>52.0</ele><time>2026-04-05T15:07:38Z</time></trkpt><trkpt lat="44.14688188679109" lon="12.069109757685126"><ele>51.0</ele><time>2026-04-05T15:07:39Z</time></trkpt><trkpt lat="44.14687154051133" lon="12.069368378369415"><ele>50.0</ele><time>2026-04-05T15:07:40Z</time></trkpt><trkpt lat="44.14685555397827" lon="12.069630050803182"><ele>49.0</ele><time>2026-04-05T15:07:41Z</time></trkpt><trkpt lat="44.146837719812446" lon="12.069892954172875"><ele>49.0</ele><time>2026-04-05T15:07:42Z</time></trkpt><trkpt lat="44.14682153917182" lon="12.070132484813504"><ele>49.0</ele><time>2026-04-05T15:07:43Z</time></trkpt><trkpt lat="44.14680049384474" lon="12.070356963874342"><ele>49.0</ele><time>2026-04-05T15:07:44Z</time></trkpt><trkpt lat="44.14678006468937" lon="12.070560611830963"><ele>49.0</ele><time>2026-04-05T15:07:45Z</time></trkpt><trkpt lat="44.146761102625874" lon="12.070748301777263"><ele>49.0</ele><time>2026-04-05T15:07:46Z</time></trkpt><trkpt lat="44.146739719758365" lon="12.070924495516662"><ele>49.0</ele><time>2026-04-05T15:07:47Z</time></trkpt><trkpt lat="44.1467159257251" lon="12.07107006067851"><ele>49.0</ele><time>2026-04-05T15:07:48Z</time></trkpt><trkpt lat="44.146688037489085" lon="12.071195856114148"><ele>48.800000000000004</ele><time>2026-04-05T15:07:49Z</time></trkpt><trkpt lat="44.14664916978656" lon="12.07130691320132"><ele>48.6</ele><time>2026-04-05T15:07:50Z</time></trkpt><trkpt lat="44.14659188962292" lon="12.071398963556355"><ele>48.4</ele><time>2026-04-05T15:07:51Z</time></trkpt><trkpt lat="44.14651599827028" lon="12.071489344806357"><ele>48.2</ele><time>2026-04-05T15:07:52Z</time></trkpt><trkpt lat="44.14643113295154" lon="12.071584377824314"><ele>48.0</ele><time>2026-04-05T15:07:53Z</time></trkpt><trkpt lat="44.146327862912294" lon="12.071674818806422"><ele>47.5</ele><time>2026-04-05T15:07:54Z</time></trkpt><trkpt lat="44.14620123933402" lon="12.071738882337966"><ele>47.0</ele><time>2026-04-05T15:07:55Z</time></trkpt><trkpt lat="44.14605662041275" lon="12.071763180201732"><ele>46.5</ele><time>2026-04-05T15:07:56Z</time></trkpt><trkpt lat="44.145901197516764" lon="12.071756910503291"><ele>46.0</ele><time>2026-04-05T15:07:57Z</time></trkpt><trkpt lat="44.145739888374635" lon="12.071730545744462"><ele>46.0</ele><time>2026-04-05T15:07:58Z</time></trkpt><trkpt lat="44.145563721111344" lon="12.071690592374239"><ele>46.0</ele><time>2026-04-05T15:07:59Z</time></trkpt><trkpt lat="44.14537417049922" lon="12.071630298193256"><ele>46.0</ele><time>2026-04-05T15:08:00Z</time></trkpt><trkpt lat="44.14518093780696" lon="12.071532287212813"><ele>47.0</ele><time>2026-04-05T15:08:01Z</time></trkpt><trkpt lat="44.14496796336641" lon="12.071390689984328"><ele>48.0</ele><time>2026-04-05T15:08:02Z</time></trkpt><trkpt lat="44.14475439572991" lon="12.07121250041065"><ele>48.0</ele><time>2026-04-05T15:08:03Z</time></trkpt><trkpt lat="44.144547686545216" lon="12.070990944642917"><ele>48.0</ele><time>2026-04-05T15:08:04Z</time></trkpt><trkpt lat="44.14434298249384" lon="12.070746824519617"><ele>48.5</ele><time>2026-04-05T15:08:05Z</time></trkpt><trkpt lat="44.14413196620892" lon="12.07047149477791"><ele>49.0</ele><time>2026-04-05T15:08:06Z</time></trkpt><trkpt lat="44.14391770450672" lon="12.070195227551917"><ele>49.0</ele><time>2026-04-05T15:08:07Z</time></trkpt><trkpt lat="44.14371549545285" lon="12.069950605986335"><ele>49.0</ele><time>2026-04-05T15:08:08Z</time></trkpt><trkpt lat="44.143532989989076" lon="12.06973371957819"><ele>49.0</ele><time>2026-04-05T15:08:09Z</time></trkpt><trkpt lat="44.14336733898934" lon="12.06954009296606"><ele>49.0</ele><time>2026-04-05T15:08:10Z</time></trkpt><trkpt lat="44.14323019910479" lon="12.069381550689638"><ele>49.0</ele><time>2026-04-05T15:08:11Z</time></trkpt><trkpt lat="44.14311301396234" lon="12.069239849906582"><ele>49.0</ele><time>2026-04-05T15:08:12Z</time></trkpt><trkpt lat="44.143007431221314" lon="12.069101958510654"><ele>49.0</ele><time>2026-04-05T15:08:13Z</time></trkpt><trkpt lat="44.142922742783306" lon="12.068958315048711"><ele>49.0</ele><time>2026-04-05T15:08:14Z</time></trkpt><trkpt lat="44.14285974962428" lon="12.068824294027301"><ele>49.0</ele><time>2026-04-05T15:08:15Z</time></trkpt><trkpt lat="44.14278605074617" lon="12.068711796398718"><ele>49.0</ele><time>2026-04-05T15:08:16Z</time></trkpt><trkpt lat="44.1426854229118" lon="12.068655651788509"><ele>49.0</ele><time>2026-04-05T15:08:17Z</time></trkpt><trkpt lat="44.142567651178936" lon="12.068634219366881"><ele>49.0</ele><time>2026-04-05T15:08:18Z</time></trkpt><trkpt lat="44.14243730707412" lon="12.068581985849386"><ele>49.0</ele><time>2026-04-05T15:08:19Z</time></trkpt><trkpt lat="44.1423102555759" lon="12.068485691139363"><ele>49.0</ele><time>2026-04-05T15:08:20Z</time></trkpt><trkpt lat="44.142184158816434" lon="12.06837169301922"><ele>49.0</ele><time>2026-04-05T15:08:21Z</time></trkpt><trkpt lat="44.142045683655525" lon="12.068268285795092"><ele>49.0</ele><time>2026-04-05T15:08:22Z</time></trkpt><trkpt lat="44.14189490326014" lon="12.068171394284086"><ele>49.33333333333333</ele><time>2026-04-05T15:08:23Z</time></trkpt><trkpt lat="44.141737568840874" lon="12.068076969978929"><ele>49.66666666666667</ele><time>2026-04-05T15:08:24Z</time></trkpt><trkpt lat="44.141572309945595" lon="12.067986356416213"><ele>50.0</ele><time>2026-04-05T15:08:25Z</time></trkpt><trkpt lat="44.141393128995965" lon="12.06789430372705"><ele>49.333333333333336</ele><time>2026-04-05T15:08:26Z</time></trkpt><trkpt lat="44.14120854899161" lon="12.067803883185046"><ele>48.66666666666667</ele><time>2026-04-05T15:08:27Z</time></trkpt><trkpt lat="44.1410180126905" lon="12.06771253139206"><ele>48.0</ele><time>2026-04-05T15:08:28Z</time></trkpt><trkpt lat="44.140825673422405" lon="12.067618629976359"><ele>48.33333333333333</ele><time>2026-04-05T15:08:29Z</time></trkpt><trkpt lat="44.14062962939454" lon="12.067524401328553"><ele>48.666666666666664</ele><time>2026-04-05T15:08:30Z</time></trkpt><trkpt lat="44.14042851265299" lon="12.067426155427048"><ele>49.0</ele><time>2026-04-05T15:08:31Z</time></trkpt><trkpt lat="44.14021872608779" lon="12.067324722335007"><ele>49.0</ele><time>2026-04-05T15:08:32Z</time></trkpt><trkpt lat="44.139998282776446" lon="12.067222854509083"><ele>49.0</ele><time>2026-04-05T15:08:33Z</time></trkpt><trkpt lat="44.13977206568044" lon="12.067117445413789"><ele>49.0</ele><time>2026-04-05T15:08:34Z</time></trkpt><trkpt lat="44.13954945301199" lon="12.067008966536633"><ele>49.0</ele><time>2026-04-05T15:08:35Z</time></trkpt><trkpt lat="44.139335664634764" lon="12.066906440386981"><ele>49.0</ele><time>2026-04-05T15:08:36Z</time></trkpt><trkpt lat="44.13912743295303" lon="12.06680884598336"><ele>49.0</ele><time>2026-04-05T15:08:37Z</time></trkpt><trkpt lat="44.138915594761215" lon="12.066710183274067"><ele>49.0</ele><time>2026-04-05T15:08:38Z</time></trkpt><trkpt lat="44.13870289197906" lon="12.066611317185433"><ele>49.5</ele><time>2026-04-05T15:08:39Z</time></trkpt><trkpt lat="44.138478312395044" lon="12.066503960070866"><ele>50.0</ele><time>2026-04-05T15:08:40Z</time></trkpt><trkpt lat="44.13824838853301" lon="12.066394513660681"><ele>50.0</ele><time>2026-04-05T15:08:41Z</time></trkpt><trkpt lat="44.1379958659217" lon="12.066289659169183"><ele>50.0</ele><time>2026-04-05T15:08:42Z</time></trkpt><trkpt lat="44.13772712648289" lon="12.06617230204815"><ele>50.0</ele><time>2026-04-05T15:08:43Z</time></trkpt><trkpt lat="44.13744293431114" lon="12.0660217311192"><ele>50.0</ele><time>2026-04-05T15:08:44Z</time></trkpt><trkpt lat="44.137165935708495" lon="12.065865001861406"><ele>50.0</ele><time>2026-04-05T15:08:45Z</time></trkpt><trkpt lat="44.13689410985373" lon="12.065703772509318"><ele>50.0</ele><time>2026-04-05T15:08:46Z</time></trkpt><trkpt lat="44.13662635101763" lon="12.065526828746282"><ele>49.0</ele><time>2026-04-05T15:08:47Z</time></trkpt><trkpt lat="44.13636648178429" lon="12.065330420906404"><ele>48.0</ele><time>2026-04-05T15:08:48Z</time></trkpt><trkpt lat="44.136121707596466" lon="12.065124949301316"><ele>48.0</ele><time>2026-04-05T15:08:49Z</time></trkpt><trkpt lat="44.13588661095391" lon="12.064911999217191"><ele>48.0</ele><time>2026-04-05T15:08:50Z</time></trkpt><trkpt lat="44.135666300113996" lon="12.064696332999098"><ele>48.0</ele><time>2026-04-05T15:08:51Z</time></trkpt><trkpt lat="44.13546570738667" lon="12.06448243628171"><ele>48.0</ele><time>2026-04-05T15:08:52Z</time></trkpt><trkpt lat="44.135261514588336" lon="12.064258199057328"><ele>49.0</ele><time>2026-04-05T15:08:53Z</time></trkpt><trkpt lat="44.135063111079454" lon="12.064040143941774"><ele>50.0</ele><time>2026-04-05T15:08:54Z</time></trkpt><trkpt lat="44.13488279020657" lon="12.063840361020116"><ele>50.0</ele><time>2026-04-05T15:08:55Z</time></trkpt><trkpt lat="44.13473173355952" lon="12.063645634101468"><ele>50.0</ele><time>2026-04-05T15:08:56Z</time></trkpt><trkpt lat="44.13461380870313" lon="12.063456979468851"><ele>50.0</ele><time>2026-04-05T15:08:57Z</time></trkpt><trkpt lat="44.13453182611297" lon="12.063287410754764"><ele>50.0</ele><time>2026-04-05T15:08:58Z</time></trkpt><trkpt lat="44.13448950155618" lon="12.063160823366598"><ele>50.0</ele><time>2026-04-05T15:08:59Z</time></trkpt><trkpt lat="44.13448629162702" lon="12.063032751963288"><ele>50.0</ele><time>2026-04-05T15:09:01Z</time></trkpt><trkpt lat="44.13448224796966" lon="12.062847298834765"><ele>50.0</ele><time>2026-04-05T15:09:03Z</time></trkpt><trkpt lat="44.13444353118116" lon="12.062728646938519"><ele>50.0</ele><time>2026-04-05T15:09:04Z</time></trkpt><trkpt lat="44.13436715440181" lon="12.06261280169835"><ele>50.0</ele><time>2026-04-05T15:09:05Z</time></trkpt><trkpt lat="44.1342861705273" lon="12.062482620512869"><ele>50.0</ele><time>2026-04-05T15:09:06Z</time></trkpt><trkpt lat="44.13423604213372" lon="12.062321764445759"><ele>50.0</ele><time>2026-04-05T15:09:07Z</time></trkpt><trkpt lat="44.13420711747077" lon="12.06216503341051"><ele>50.0</ele><time>2026-04-05T15:09:08Z</time></trkpt><trkpt lat="44.134181656322696" lon="12.062027113297145"><ele>50.333333333333336</ele><time>2026-04-05T15:09:09Z</time></trkpt><trkpt lat="44.13414820140769" lon="12.061904610008087"><ele>50.66666666666667</ele><time>2026-04-05T15:09:10Z</time></trkpt><trkpt lat="44.13411547171418" lon="12.061793893058708"><ele>51.0</ele><time>2026-04-05T15:09:11Z</time></trkpt><trkpt lat="44.13409369987691" lon="12.061695906882186"><ele>51.33333333333333</ele><time>2026-04-05T15:09:12Z</time></trkpt><trkpt lat="44.13409134564449" lon="12.061603301882224"><ele>51.666666666666664</ele><time>2026-04-05T15:09:13Z</time></trkpt><trkpt lat="44.13411461141724" lon="12.06151131501134"><ele>52.0</ele><time>2026-04-05T15:09:14Z</time></trkpt><trkpt lat="44.13412474817418" lon="12.061414387331682"><ele>52.49999999999999</ele><time>2026-04-05T15:09:15Z</time></trkpt><trkpt lat="44.13411552305243" lon="12.061318748927539"><ele>53.0</ele><time>2026-04-05T15:09:16Z</time></trkpt><trkpt lat="44.13408192350531" lon="12.061227979991992"><ele>53.5</ele><time>2026-04-05T15:09:17Z</time></trkpt><trkpt lat="44.13403437136991" lon="12.061161720934779"><ele>54.0</ele><time>2026-04-05T15:09:18Z</time></trkpt><trkpt lat="44.133966197172825" lon="12.061112598916763"><ele>54.49999999999999</ele><time>2026-04-05T15:09:19Z</time></trkpt><trkpt lat="44.13388385269995" lon="12.061067414662714"><ele>55.0</ele><time>2026-04-05T15:09:20Z</time></trkpt><trkpt lat="44.13380251659494" lon="12.060990659978112"><ele>55.2</ele><time>2026-04-05T15:09:21Z</time></trkpt><trkpt lat="44.13373013719305" lon="12.060905135589104"><ele>55.4</ele><time>2026-04-05T15:09:22Z</time></trkpt><trkpt lat="44.13365297427305" lon="12.06081011973987"><ele>55.599999999999994</ele><time>2026-04-05T15:09:23Z</time></trkpt><trkpt lat="44.133565002792544" lon="12.060720580406425"><ele>55.8</ele><time>2026-04-05T15:09:24Z</time></trkpt><trkpt lat="44.13346777716556" lon="12.06064006023541"><ele>56.0</ele><time>2026-04-05T15:09:25Z</time></trkpt><trkpt lat="44.133366835764726" lon="12.0605530296973"><ele>56.25</ele><time>2026-04-05T15:09:26Z</time></trkpt><trkpt lat="44.133262502592714" lon="12.060465967142294"><ele>56.5</ele><time>2026-04-05T15:09:27Z</time></trkpt><trkpt lat="44.133152990238564" lon="12.060383014533656"><ele>56.75</ele><time>2026-04-05T15:09:28Z</time></trkpt><trkpt lat="44.13302849441278" lon="12.060305566632524"><ele>57.0</ele><time>2026-04-05T15:09:29Z</time></trkpt><trkpt lat="44.132902561369065" lon="12.060250885623606"><ele>58.25</ele><time>2026-04-05T15:09:30Z</time></trkpt><trkpt lat="44.13276781619575" lon="12.060208221518861"><ele>59.5</ele><time>2026-04-05T15:09:31Z</time></trkpt><trkpt lat="44.13262354526487" lon="12.06017079311887"><ele>60.75</ele><time>2026-04-05T15:09:32Z</time></trkpt><trkpt lat="44.13247692876232" lon="12.06014057421841"><ele>62.0</ele><time>2026-04-05T15:09:33Z</time></trkpt><trkpt lat="44.13232719966575" lon="12.060107587096308"><ele>62.5</ele><time>2026-04-05T15:09:34Z</time></trkpt><trkpt lat="44.13218232127781" lon="12.060071946722834"><ele>63.0</ele><time>2026-04-05T15:09:35Z</time></trkpt><trkpt lat="44.132036898706815" lon="12.060031090724912"><ele>63.5</ele><time>2026-04-05T15:09:36Z</time></trkpt><trkpt lat="44.131895393151716" lon="12.059992818706272"><ele>64.0</ele><time>2026-04-05T15:09:37Z</time></trkpt><trkpt lat="44.13174920861519" lon="12.05995874699725"><ele>65.0</ele><time>2026-04-05T15:09:38Z</time></trkpt><trkpt lat="44.131596061125585" lon="12.059925257544394"><ele>66.0</ele><time>2026-04-05T15:09:39Z</time></trkpt><trkpt lat="44.13144081486018" lon="12.059888362525427"><ele>67.0</ele><time>2026-04-05T15:09:40Z</time></trkpt><trkpt lat="44.131280348472764" lon="12.059855892880835"><ele>67.0</ele><time>2026-04-05T15:09:41Z</time></trkpt><trkpt lat="44.13111558187007" lon="12.059820632166154"><ele>67.0</ele><time>2026-04-05T15:09:42Z</time></trkpt><trkpt lat="44.1309520088172" lon="12.059774742397128"><ele>67.0</ele><time>2026-04-05T15:09:43Z</time></trkpt><trkpt lat="44.13078836607095" lon="12.059734585147233"><ele>69.0</ele><time>2026-04-05T15:09:44Z</time></trkpt><trkpt lat="44.13062260126612" lon="12.059696755257699"><ele>71.0</ele><time>2026-04-05T15:09:45Z</time></trkpt><trkpt lat="44.130452303222086" lon="12.059654645427292"><ele>73.0</ele><time>2026-04-05T15:09:46Z</time></trkpt><trkpt lat="44.13028456459441" lon="12.05961207278419"><ele>73.0</ele><time>2026-04-05T15:09:47Z</time></trkpt><trkpt lat="44.130120032255114" lon="12.059568051503698"><ele>73.0</ele><time>2026-04-05T15:09:48Z</time></trkpt><trkpt lat="44.12995633297102" lon="12.059526688443448"><ele>73.0</ele><time>2026-04-05T15:09:49Z</time></trkpt><trkpt lat="44.12979294319164" lon="12.059487271042336"><ele>75.33333333333333</ele><time>2026-04-05T15:09:50Z</time></trkpt><trkpt lat="44.12962966462779" lon="12.059445178802404"><ele>77.66666666666667</ele><time>2026-04-05T15:09:51Z</time></trkpt><trkpt lat="44.1294655949219" lon="12.059399812142"><ele>80.0</ele><time>2026-04-05T15:09:52Z</time></trkpt><trkpt lat="44.12930193343996" lon="12.059355227144161"><ele>80.0</ele><time>2026-04-05T15:09:53Z</time></trkpt><trkpt lat="44.12913552790699" lon="12.059312396011807"><ele>80.0</ele><time>2026-04-05T15:09:54Z</time></trkpt><trkpt lat="44.128968067059766" lon="12.059269587973137"><ele>80.0</ele><time>2026-04-05T15:09:55Z</time></trkpt><trkpt lat="44.12880135874556" lon="12.059226026747616"><ele>79.0</ele><time>2026-04-05T15:09:56Z</time></trkpt><trkpt lat="44.128633420117815" lon="12.059179798040073"><ele>78.0</ele><time>2026-04-05T15:09:57Z</time></trkpt><trkpt lat="44.12846183624473" lon="12.059117795517098"><ele>77.0</ele><time>2026-04-05T15:09:58Z</time></trkpt><trkpt lat="44.12828990594676" lon="12.059058354792494"><ele>78.33333333333334</ele><time>2026-04-05T15:09:59Z</time></trkpt><trkpt lat="44.12811519553356" lon="12.05899691411312"><ele>79.66666666666667</ele><time>2026-04-05T15:10:00Z</time></trkpt><trkpt lat="44.12793558700316" lon="12.058936659573641"><ele>81.0</ele><time>2026-04-05T15:10:01Z</time></trkpt><trkpt lat="44.1277579559255" lon="12.058878574554061"><ele>81.0</ele><time>2026-04-05T15:10:02Z</time></trkpt><trkpt lat="44.12758673916448" lon="12.058822564142401"><ele>81.0</ele><time>2026-04-05T15:10:03Z</time></trkpt><trkpt lat="44.1274124551837" lon="12.058761916151886"><ele>81.0</ele><time>2026-04-05T15:10:04Z</time></trkpt><trkpt lat="44.12724245170155" lon="12.05870181204891"><ele>79.0</ele><time>2026-04-05T15:10:05Z</time></trkpt><trkpt lat="44.12707502890749" lon="12.058647932568048"><ele>77.0</ele><time>2026-04-05T15:10:06Z</time></trkpt><trkpt lat="44.1269021916392" lon="12.058593327316961"><ele>75.0</ele><time>2026-04-05T15:10:07Z</time></trkpt><trkpt lat="44.126739601860194" lon="12.058542456076403"><ele>75.0</ele><time>2026-04-05T15:10:08Z</time></trkpt><trkpt lat="44.12657728815327" lon="12.05848982878856"><ele>75.0</ele><time>2026-04-05T15:10:09Z</time></trkpt><trkpt lat="44.1264173167759" lon="12.058438267943377"><ele>75.0</ele><time>2026-04-05T15:10:10Z</time></trkpt><trkpt lat="44.1262541103577" lon="12.058392024738831"><ele>74.0</ele><time>2026-04-05T15:10:11Z</time></trkpt><trkpt lat="44.12608194499334" lon="12.058360321952005"><ele>73.0</ele><time>2026-04-05T15:10:12Z</time></trkpt><trkpt lat="44.12591440727567" lon="12.058350894293644"><ele>72.0</ele><time>2026-04-05T15:10:13Z</time></trkpt><trkpt lat="44.12574858004722" lon="12.058355905690835"><ele>73.0</ele><time>2026-04-05T15:10:14Z</time></trkpt><trkpt lat="44.12558707082648" lon="12.05837260042536"><ele>74.0</ele><time>2026-04-05T15:10:15Z</time></trkpt><trkpt lat="44.12542464085273" lon="12.058397043987478"><ele>75.0</ele><time>2026-04-05T15:10:16Z</time></trkpt><trkpt lat="44.1252728833544" lon="12.058428115096733"><ele>75.0</ele><time>2026-04-05T15:10:17Z</time></trkpt><trkpt lat="44.12513108745137" lon="12.058474900007731"><ele>75.0</ele><time>2026-04-05T15:10:18Z</time></trkpt><trkpt lat="44.12498433909351" lon="12.058529619874559"><ele>75.0</ele><time>2026-04-05T15:10:19Z</time></trkpt><trkpt lat="44.124833485007244" lon="12.058586774569068"><ele>75.5</ele><time>2026-04-05T15:10:20Z</time></trkpt><trkpt lat="44.12467822105925" lon="12.058644291344272"><ele>76.0</ele><time>2026-04-05T15:10:21Z</time></trkpt><trkpt lat="44.12454017650009" lon="12.058691095839997"><ele>76.5</ele><time>2026-04-05T15:10:22Z</time></trkpt><trkpt lat="44.124401704454534" lon="12.058738661506093"><ele>77.0</ele><time>2026-04-05T15:10:23Z</time></trkpt><trkpt lat="44.12425761090369" lon="12.05878963522043"><ele>77.0</ele><time>2026-04-05T15:10:24Z</time></trkpt><trkpt lat="44.12411264576183" lon="12.058841124146362"><ele>77.0</ele><time>2026-04-05T15:10:25Z</time></trkpt><trkpt lat="44.12397595170239" lon="12.05888731153617"><ele>77.0</ele><time>2026-04-05T15:10:26Z</time></trkpt><trkpt lat="44.12383752589297" lon="12.058934585166591"><ele>77.0</ele><time>2026-04-05T15:10:27Z</time></trkpt><trkpt lat="44.12370469611285" lon="12.058982601496595"><ele>77.25</ele><time>2026-04-05T15:10:28Z</time></trkpt><trkpt lat="44.123573451093314" lon="12.059032065604965"><ele>77.5</ele><time>2026-04-05T15:10:29Z</time></trkpt><trkpt lat="44.12344894759504" lon="12.059077821616537"><ele>77.75</ele><time>2026-04-05T15:10:30Z</time></trkpt><trkpt lat="44.1233229518355" lon="12.05912668940354"><ele>78.0</ele><time>2026-04-05T15:10:31Z</time></trkpt><trkpt lat="44.12319306148057" lon="12.059175262278707"><ele>76.25</ele><time>2026-04-05T15:10:32Z</time></trkpt><trkpt lat="44.12306163984459" lon="12.059218408769475"><ele>74.5</ele><time>2026-04-05T15:10:33Z</time></trkpt><trkpt lat="44.12292387156311" lon="12.059252544135134"><ele>72.75</ele><time>2026-04-05T15:10:34Z</time></trkpt><trkpt lat="44.12278110558054" lon="12.059277356071709"><ele>71.0</ele><time>2026-04-05T15:10:35Z</time></trkpt><trkpt lat="44.12263499639158" lon="12.059293937670414"><ele>71.0</ele><time>2026-04-05T15:10:36Z</time></trkpt><trkpt lat="44.122485999141766" lon="12.059298071803488"><ele>71.0</ele><time>2026-04-05T15:10:37Z</time></trkpt><trkpt lat="44.12233557437008" lon="12.059306381313965"><ele>71.0</ele><time>2026-04-05T15:10:38Z</time></trkpt><trkpt lat="44.12218920215441" lon="12.05931323355343"><ele>71.0</ele><time>2026-04-05T15:10:39Z</time></trkpt><trkpt lat="44.12204302982986" lon="12.0593227796523"><ele>70.75</ele><time>2026-04-05T15:10:40Z</time></trkpt><trkpt lat="44.12189709934627" lon="12.059333403403883"><ele>70.5</ele><time>2026-04-05T15:10:41Z</time></trkpt><trkpt lat="44.12175223841536" lon="12.059337008227745"><ele>70.25</ele><time>2026-04-05T15:10:42Z</time></trkpt><trkpt lat="44.12160465565157" lon="12.05935105222048"><ele>70.0</ele><time>2026-04-05T15:10:43Z</time></trkpt><trkpt lat="44.12145728545842" lon="12.059355443389002"><ele>69.25</ele><time>2026-04-05T15:10:44Z</time></trkpt><trkpt lat="44.1213130329781" lon="12.059363661916406"><ele>68.5</ele><time>2026-04-05T15:10:45Z</time></trkpt><trkpt lat="44.12116390820539" lon="12.05937146214198"><ele>67.75</ele><time>2026-04-05T15:10:46Z</time></trkpt><trkpt lat="44.12102755183428" lon="12.059380499046048"><ele>67.0</ele><time>2026-04-05T15:10:47Z</time></trkpt><trkpt lat="44.12089565801728" lon="12.05938367735981"><ele>67.0</ele><time>2026-04-05T15:10:48Z</time></trkpt><trkpt lat="44.120764193373226" lon="12.059371962344393"><ele>67.0</ele><time>2026-04-05T15:10:49Z</time></trkpt><trkpt lat="44.12062474878865" lon="12.059351624149357"><ele>67.0</ele><time>2026-04-05T15:10:50Z</time></trkpt><trkpt lat="44.12048235683602" lon="12.059323037769266"><ele>67.0</ele><time>2026-04-05T15:10:51Z</time></trkpt><trkpt lat="44.120353112546624" lon="12.059279102091832"><ele>67.25</ele><time>2026-04-05T15:10:52Z</time></trkpt><trkpt lat="44.120229746949896" lon="12.059236212743446"><ele>67.5</ele><time>2026-04-05T15:10:53Z</time></trkpt><trkpt lat="44.12010689365997" lon="12.059192539098063"><ele>67.75</ele><time>2026-04-05T15:10:54Z</time></trkpt><trkpt lat="44.11998065195729" lon="12.059140838867364"><ele>68.0</ele><time>2026-04-05T15:10:55Z</time></trkpt><trkpt lat="44.119852984180405" lon="12.059066641398244"><ele>68.0</ele><time>2026-04-05T15:10:56Z</time></trkpt><trkpt lat="44.11973740897402" lon="12.05896272534554"><ele>68.0</ele><time>2026-04-05T15:10:57Z</time></trkpt><trkpt lat="44.11963093863373" lon="12.058832928354262"><ele>68.0</ele><time>2026-04-05T15:10:58Z</time></trkpt><trkpt lat="44.119522580454095" lon="12.058700315679964"><ele>68.0</ele><time>2026-04-05T15:10:59Z</time></trkpt><trkpt lat="44.11940381328572" lon="12.058574630505559"><ele>68.0</ele><time>2026-04-05T15:11:00Z</time></trkpt><trkpt lat="44.119279969980184" lon="12.058445578622685"><ele>68.0</ele><time>2026-04-05T15:11:01Z</time></trkpt><trkpt lat="44.11916025004767" lon="12.058304752188745"><ele>68.0</ele><time>2026-04-05T15:11:02Z</time></trkpt><trkpt lat="44.11903656826283" lon="12.058161813585066"><ele>67.0</ele><time>2026-04-05T15:11:03Z</time></trkpt><trkpt lat="44.11892041296776" lon="12.058025644447138"><ele>66.0</ele><time>2026-04-05T15:11:04Z</time></trkpt><trkpt lat="44.118794838606526" lon="12.057889693484958"><ele>65.0</ele><time>2026-04-05T15:11:05Z</time></trkpt><trkpt lat="44.11866380691166" lon="12.057771883978774"><ele>65.0</ele><time>2026-04-05T15:11:06Z</time></trkpt><trkpt lat="44.11852202880998" lon="12.057675255378904"><ele>65.0</ele><time>2026-04-05T15:11:07Z</time></trkpt><trkpt lat="44.11834998712851" lon="12.057591206519714"><ele>65.0</ele><time>2026-04-05T15:11:08Z</time></trkpt><trkpt lat="44.118175028222765" lon="12.057547531995036"><ele>67.66666666666667</ele><time>2026-04-05T15:11:09Z</time></trkpt><trkpt lat="44.11800281363707" lon="12.057556143152933"><ele>70.33333333333333</ele><time>2026-04-05T15:11:10Z</time></trkpt><trkpt lat="44.11783104244906" lon="12.05760219414737"><ele>73.0</ele><time>2026-04-05T15:11:11Z</time></trkpt><trkpt lat="44.11767080148907" lon="12.057672214642038"><ele>73.0</ele><time>2026-04-05T15:11:12Z</time></trkpt><trkpt lat="44.11752354166458" lon="12.057740578408612"><ele>73.0</ele><time>2026-04-05T15:11:13Z</time></trkpt><trkpt lat="44.11738481819439" lon="12.057797801104707"><ele>73.0</ele><time>2026-04-05T15:11:14Z</time></trkpt><trkpt lat="44.11724746849578" lon="12.057854621479388"><ele>73.0</ele><time>2026-04-05T15:11:15Z</time></trkpt><trkpt lat="44.11710408540748" lon="12.057913891228763"><ele>74.25</ele><time>2026-04-05T15:11:16Z</time></trkpt><trkpt lat="44.116961543754435" lon="12.057970121798123"><ele>75.5</ele><time>2026-04-05T15:11:17Z</time></trkpt><trkpt lat="44.11682107447059" lon="12.058025715308082"><ele>76.75</ele><time>2026-04-05T15:11:18Z</time></trkpt><trkpt lat="44.11668165477874" lon="12.058078958672754"><ele>78.0</ele><time>2026-04-05T15:11:19Z</time></trkpt><trkpt lat="44.116539925971686" lon="12.05812928639003"><ele>78.0</ele><time>2026-04-05T15:11:20Z</time></trkpt><trkpt lat="44.116397642659784" lon="12.058176413689097"><ele>78.0</ele><time>2026-04-05T15:11:21Z</time></trkpt><trkpt lat="44.11625066197644" lon="12.058217181312694"><ele>78.0</ele><time>2026-04-05T15:11:22Z</time></trkpt><trkpt lat="44.116100639823365" lon="12.058248153532427"><ele>78.0</ele><time>2026-04-05T15:11:23Z</time></trkpt><trkpt lat="44.115941997660265" lon="12.058275446594118"><ele>77.66666666666667</ele><time>2026-04-05T15:11:24Z</time></trkpt><trkpt lat="44.115777678479965" lon="12.058287050302612"><ele>77.33333333333334</ele><time>2026-04-05T15:11:25Z</time></trkpt><trkpt lat="44.11560481876717" lon="12.058282745888993"><ele>77.0</ele><time>2026-04-05T15:11:26Z</time></trkpt><trkpt lat="44.11542899446574" lon="12.05826031511145"><ele>77.0</ele><time>2026-04-05T15:11:27Z</time></trkpt><trkpt lat="44.11526125013105" lon="12.058227176705005"><ele>77.0</ele><time>2026-04-05T15:11:28Z</time></trkpt><trkpt lat="44.115093767716985" lon="12.05818538644357"><ele>77.0</ele><time>2026-04-05T15:11:29Z</time></trkpt><trkpt lat="44.11492927853909" lon="12.058120874319076"><ele>77.66666666666667</ele><time>2026-04-05T15:11:30Z</time></trkpt><trkpt lat="44.11476481869312" lon="12.058037258774812"><ele>78.33333333333333</ele><time>2026-04-05T15:11:31Z</time></trkpt><trkpt lat="44.11460753727571" lon="12.057942282917878"><ele>79.0</ele><time>2026-04-05T15:11:32Z</time></trkpt><trkpt lat="44.114443555626174" lon="12.05784149388127"><ele>79.0</ele><time>2026-04-05T15:11:33Z</time></trkpt><trkpt lat="44.11427517740547" lon="12.057728146451623"><ele>79.0</ele><time>2026-04-05T15:11:34Z</time></trkpt><trkpt lat="44.114100347431005" lon="12.057612043031725"><ele>79.0</ele><time>2026-04-05T15:11:35Z</time></trkpt><trkpt lat="44.11390516835025" lon="12.057500165490545"><ele>79.0</ele><time>2026-04-05T15:11:36Z</time></trkpt><trkpt lat="44.113685585611826" lon="12.05737197529164"><ele>79.0</ele><time>2026-04-05T15:11:37Z</time></trkpt><trkpt lat="44.11346750849867" lon="12.057219712083546"><ele>79.0</ele><time>2026-04-05T15:11:38Z</time></trkpt><trkpt lat="44.11323936555966" lon="12.057052684849896"><ele>79.0</ele><time>2026-04-05T15:11:39Z</time></trkpt><trkpt lat="44.112997521373124" lon="12.056880732822227"><ele>79.5</ele><time>2026-04-05T15:11:40Z</time></trkpt><trkpt lat="44.11276737268495" lon="12.056731985418919"><ele>80.0</ele><time>2026-04-05T15:11:41Z</time></trkpt><trkpt lat="44.11254753195352" lon="12.05659663591798"><ele>80.66666666666667</ele><time>2026-04-05T15:11:42Z</time></trkpt><trkpt lat="44.11233881439197" lon="12.056470681160903"><ele>81.33333333333333</ele><time>2026-04-05T15:11:43Z</time></trkpt><trkpt lat="44.11213901315558" lon="12.056346845745436"><ele>82.0</ele><time>2026-04-05T15:11:44Z</time></trkpt><trkpt lat="44.11193833921194" lon="12.056218507656782"><ele>82.0</ele><time>2026-04-05T15:11:45Z</time></trkpt><trkpt lat="44.111750842310435" lon="12.056096444748631"><ele>82.0</ele><time>2026-04-05T15:11:46Z</time></trkpt><trkpt lat="44.111575302621965" lon="12.055984949811462"><ele>82.0</ele><time>2026-04-05T15:11:47Z</time></trkpt><trkpt lat="44.11140529412649" lon="12.055872135878081"><ele>82.33333333333333</ele><time>2026-04-05T15:11:48Z</time></trkpt><trkpt lat="44.11124879653921" lon="12.055769277566636"><ele>82.66666666666667</ele><time>2026-04-05T15:11:49Z</time></trkpt><trkpt lat="44.111098418652816" lon="12.055670473164572"><ele>83.0</ele><time>2026-04-05T15:11:50Z</time></trkpt><trkpt lat="44.110957237605916" lon="12.055582363082419"><ele>83.0</ele><time>2026-04-05T15:11:51Z</time></trkpt><trkpt lat="44.110826408611956" lon="12.055494066304464"><ele>83.0</ele><time>2026-04-05T15:11:52Z</time></trkpt><trkpt lat="44.11068356229425" lon="12.055401892697553"><ele>83.0</ele><time>2026-04-05T15:11:53Z</time></trkpt><trkpt lat="44.11053016251235" lon="12.0553069295037"><ele>83.0</ele><time>2026-04-05T15:11:54Z</time></trkpt><trkpt lat="44.1103687984717" lon="12.055200200065425"><ele>83.0</ele><time>2026-04-05T15:11:55Z</time></trkpt><trkpt lat="44.11020434876042" lon="12.055090050583715"><ele>83.0</ele><time>2026-04-05T15:11:56Z</time></trkpt><trkpt lat="44.11003693519071" lon="12.054985844918441"><ele>83.33333333333334</ele><time>2026-04-05T15:11:57Z</time></trkpt><trkpt lat="44.10987540232365" lon="12.054877679716826"><ele>83.66666666666667</ele><time>2026-04-05T15:11:58Z</time></trkpt><trkpt lat="44.109716177798596" lon="12.054775812211272"><ele>84.0</ele><time>2026-04-05T15:11:59Z</time></trkpt><trkpt lat="44.109556011853265" lon="12.054673068437712"><ele>84.0</ele><time>2026-04-05T15:12:00Z</time></trkpt><trkpt lat="44.10939821913385" lon="12.054571067955003"><ele>84.0</ele><time>2026-04-05T15:12:01Z</time></trkpt><trkpt lat="44.109242177107" lon="12.054470195788342"><ele>84.0</ele><time>2026-04-05T15:12:02Z</time></trkpt><trkpt lat="44.10908565811697" lon="12.054369697886228"><ele>84.0</ele><time>2026-04-05T15:12:03Z</time></trkpt><trkpt lat="44.1089264953544" lon="12.054268681374399"><ele>84.0</ele><time>2026-04-05T15:12:04Z</time></trkpt><trkpt lat="44.108769368565746" lon="12.054168342032208"><ele>84.0</ele><time>2026-04-05T15:12:05Z</time></trkpt><trkpt lat="44.10860647587287" lon="12.054063340616088"><ele>84.33333333333333</ele><time>2026-04-05T15:12:06Z</time></trkpt><trkpt lat="44.10843703955505" lon="12.053951798390692"><ele>84.66666666666666</ele><time>2026-04-05T15:12:07Z</time></trkpt><trkpt lat="44.10826097300076" lon="12.053838548770353"><ele>85.0</ele><time>2026-04-05T15:12:08Z</time></trkpt><trkpt lat="44.10808099706881" lon="12.05371815169693"><ele>85.33333333333333</ele><time>2026-04-05T15:12:09Z</time></trkpt><trkpt lat="44.107904014596635" lon="12.053603760441844"><ele>85.66666666666667</ele><time>2026-04-05T15:12:10Z</time></trkpt><trkpt lat="44.107735966189104" lon="12.053497866365872"><ele>86.0</ele><time>2026-04-05T15:12:11Z</time></trkpt><trkpt lat="44.10757165448797" lon="12.053390486068489"><ele>86.66666666666667</ele><time>2026-04-05T15:12:12Z</time></trkpt><trkpt lat="44.10740803756948" lon="12.053284218736485"><ele>87.33333333333333</ele><time>2026-04-05T15:12:13Z</time></trkpt><trkpt lat="44.10724427810862" lon="12.053180357903743"><ele>88.0</ele><time>2026-04-05T15:12:14Z</time></trkpt><trkpt lat="44.10708199039896" lon="12.053075848165188"><ele>88.0</ele><time>2026-04-05T15:12:15Z</time></trkpt><trkpt lat="44.10692437146669" lon="12.052973361513459"><ele>88.0</ele><time>2026-04-05T15:12:16Z</time></trkpt><trkpt lat="44.10676662918523" lon="12.052869291290365"><ele>88.0</ele><time>2026-04-05T15:12:17Z</time></trkpt><trkpt lat="44.106604766643386" lon="12.052767157992688"><ele>88.33333333333333</ele><time>2026-04-05T15:12:18Z</time></trkpt><trkpt lat="44.10644200242622" lon="12.052665156056285"><ele>88.66666666666667</ele><time>2026-04-05T15:12:19Z</time></trkpt><trkpt lat="44.106281267246196" lon="12.052557673777574"><ele>89.0</ele><time>2026-04-05T15:12:20Z</time></trkpt><trkpt lat="44.10612231956665" lon="12.052451628701506"><ele>90.0</ele><time>2026-04-05T15:12:21Z</time></trkpt><trkpt lat="44.10596388609465" lon="12.052347039680138"><ele>91.0</ele><time>2026-04-05T15:12:22Z</time></trkpt><trkpt lat="44.10581228775806" lon="12.052246242666726"><ele>92.0</ele><time>2026-04-05T15:12:23Z</time></trkpt><trkpt lat="44.105662467077366" lon="12.052154910594934"><ele>92.0</ele><time>2026-04-05T15:12:24Z</time></trkpt><trkpt lat="44.105506631950156" lon="12.052061290766638"><ele>92.0</ele><time>2026-04-05T15:12:25Z</time></trkpt><trkpt lat="44.10534520585262" lon="12.051976520169857"><ele>92.0</ele><time>2026-04-05T15:12:26Z</time></trkpt><trkpt lat="44.10517671523403" lon="12.05189796501199"><ele>92.0</ele><time>2026-04-05T15:12:27Z</time></trkpt><trkpt lat="44.10501001294212" lon="12.051832725692718"><ele>92.0</ele><time>2026-04-05T15:12:28Z</time></trkpt><trkpt lat="44.10484430681651" lon="12.05177524504059"><ele>92.0</ele><time>2026-04-05T15:12:29Z</time></trkpt><trkpt lat="44.10465946481129" lon="12.051723322678543"><ele>92.0</ele><time>2026-04-05T15:12:30Z</time></trkpt><trkpt lat="44.10445922295949" lon="12.051677741995798"><ele>92.0</ele><time>2026-04-05T15:12:31Z</time></trkpt><trkpt lat="44.10424896519349" lon="12.051589020380955"><ele>92.0</ele><time>2026-04-05T15:12:32Z</time></trkpt><trkpt lat="44.10402018205735" lon="12.051524422313317"><ele>92.0</ele><time>2026-04-05T15:12:33Z</time></trkpt><trkpt lat="44.1038159351136" lon="12.051444299076685"><ele>92.0</ele><time>2026-04-05T15:12:34Z</time></trkpt><trkpt lat="44.10361476533456" lon="12.051380088312628"><ele>92.0</ele><time>2026-04-05T15:12:35Z</time></trkpt><trkpt lat="44.10340739031176" lon="12.051315008006858"><ele>92.0</ele><time>2026-04-05T15:12:36Z</time></trkpt><trkpt lat="44.103185491329434" lon="12.051255732093129"><ele>92.0</ele><time>2026-04-05T15:12:37Z</time></trkpt><trkpt lat="44.10294112896447" lon="12.051195739105781"><ele>92.0</ele><time>2026-04-05T15:12:38Z</time></trkpt><trkpt lat="44.1026979982594" lon="12.05111351506551"><ele>92.0</ele><time>2026-04-05T15:12:39Z</time></trkpt><trkpt lat="44.102465231296975" lon="12.0510210176054"><ele>92.33333333333334</ele><time>2026-04-05T15:12:40Z</time></trkpt><trkpt lat="44.102250763490176" lon="12.05094660303548"><ele>92.66666666666667</ele><time>2026-04-05T15:12:41Z</time></trkpt><trkpt lat="44.10206365430989" lon="12.05088828290909"><ele>93.0</ele><time>2026-04-05T15:12:42Z</time></trkpt><trkpt lat="44.10187111081559" lon="12.050831758620955"><ele>93.33333333333333</ele><time>2026-04-05T15:12:43Z</time></trkpt><trkpt lat="44.101688626245284" lon="12.050773038384742"><ele>93.66666666666666</ele><time>2026-04-05T15:12:44Z</time></trkpt><trkpt lat="44.101505134008335" lon="12.050712371346176"><ele>94.0</ele><time>2026-04-05T15:12:45Z</time></trkpt><trkpt lat="44.10132400825761" lon="12.050656294384952"><ele>94.33333333333333</ele><time>2026-04-05T15:12:46Z</time></trkpt><trkpt lat="44.10113803270315" lon="12.050601188397549"><ele>94.66666666666667</ele><time>2026-04-05T15:12:47Z</time></trkpt><trkpt lat="44.10094898905544" lon="12.050540728086865"><ele>95.0</ele><time>2026-04-05T15:12:48Z</time></trkpt><trkpt lat="44.10076311554339" lon="12.050480105654366"><ele>95.0</ele><time>2026-04-05T15:12:49Z</time></trkpt><trkpt lat="44.10057668629137" lon="12.050422513781022"><ele>95.0</ele><time>2026-04-05T15:12:50Z</time></trkpt><trkpt lat="44.10039879862614" lon="12.050363546340146"><ele>95.0</ele><time>2026-04-05T15:12:51Z</time></trkpt><trkpt lat="44.100225679173114" lon="12.050314737848351"><ele>95.0</ele><time>2026-04-05T15:12:52Z</time></trkpt><trkpt lat="44.1000505432327" lon="12.050260852601618"><ele>95.0</ele><time>2026-04-05T15:12:53Z</time></trkpt><trkpt lat="44.09987487065703" lon="12.0502025670086"><ele>95.0</ele><time>2026-04-05T15:12:54Z</time></trkpt><trkpt lat="44.09969489377937" lon="12.050147863635756"><ele>95.0</ele><time>2026-04-05T15:12:55Z</time></trkpt><trkpt lat="44.09951383665529" lon="12.050089705665838"><ele>95.0</ele><time>2026-04-05T15:12:56Z</time></trkpt><trkpt lat="44.09933363094597" lon="12.05003275301229"><ele>95.0</ele><time>2026-04-05T15:12:57Z</time></trkpt><trkpt lat="44.09915928174198" lon="12.04997659297538"><ele>95.66666666666667</ele><time>2026-04-05T15:12:58Z</time></trkpt><trkpt lat="44.09899155379694" lon="12.04992071763119"><ele>96.33333333333334</ele><time>2026-04-05T15:12:59Z</time></trkpt><trkpt lat="44.09882739987336" lon="12.049865049195466"><ele>97.0</ele><time>2026-04-05T15:13:00Z</time></trkpt><trkpt lat="44.098668040658886" lon="12.049817258625328"><ele>97.0</ele><time>2026-04-05T15:13:01Z</time></trkpt><trkpt lat="44.09850701567769" lon="12.04976390745783"><ele>97.0</ele><time>2026-04-05T15:13:02Z</time></trkpt><trkpt lat="44.09834233206921" lon="12.04971053643274"><ele>97.0</ele><time>2026-04-05T15:13:03Z</time></trkpt><trkpt lat="44.09818015052057" lon="12.049658129181827"><ele>95.0</ele><time>2026-04-05T15:13:04Z</time></trkpt><trkpt lat="44.09801595445476" lon="12.049605902747365"><ele>93.0</ele><time>2026-04-05T15:13:05Z</time></trkpt><trkpt lat="44.09784798302146" lon="12.04955387176094"><ele>91.0</ele><time>2026-04-05T15:13:06Z</time></trkpt><trkpt lat="44.09767619193056" lon="12.049500681526709"><ele>91.0</ele><time>2026-04-05T15:13:07Z</time></trkpt><trkpt lat="44.097503018839625" lon="12.049448190936381"><ele>91.0</ele><time>2026-04-05T15:13:08Z</time></trkpt><trkpt lat="44.09732796743358" lon="12.049392828086818"><ele>91.0</ele><time>2026-04-05T15:13:09Z</time></trkpt><trkpt lat="44.09715363444412" lon="12.049338005154645"><ele>91.33333333333333</ele><time>2026-04-05T15:13:10Z</time></trkpt><trkpt lat="44.09698184866605" lon="12.049283424007239"><ele>91.66666666666667</ele><time>2026-04-05T15:13:11Z</time></trkpt><trkpt lat="44.09681723497007" lon="12.049227753908497"><ele>92.0</ele><time>2026-04-05T15:13:12Z</time></trkpt><trkpt lat="44.09664812918976" lon="12.049175703270876"><ele>93.0</ele><time>2026-04-05T15:13:13Z</time></trkpt><trkpt lat="44.09648539080346" lon="12.049123228278912"><ele>94.0</ele><time>2026-04-05T15:13:14Z</time></trkpt><trkpt lat="44.096319787595924" lon="12.049063567224021"><ele>95.0</ele><time>2026-04-05T15:13:15Z</time></trkpt><trkpt lat="44.096154804126996" lon="12.049007591552945"><ele>95.0</ele><time>2026-04-05T15:13:16Z</time></trkpt><trkpt lat="44.09598473572696" lon="12.04895938751877"><ele>95.0</ele><time>2026-04-05T15:13:17Z</time></trkpt><trkpt lat="44.09581552000843" lon="12.048906687279525"><ele>95.0</ele><time>2026-04-05T15:13:18Z</time></trkpt><trkpt lat="44.095648824908174" lon="12.048855158489785"><ele>96.0</ele><time>2026-04-05T15:13:19Z</time></trkpt><trkpt lat="44.0954825681916" lon="12.048802625438272"><ele>97.0</ele><time>2026-04-05T15:13:20Z</time></trkpt><trkpt lat="44.095316445574475" lon="12.048751820084595"><ele>98.0</ele><time>2026-04-05T15:13:21Z</time></trkpt><trkpt lat="44.09514938955926" lon="12.04869793747461"><ele>98.0</ele><time>2026-04-05T15:13:22Z</time></trkpt><trkpt lat="44.09498301851562" lon="12.048640728296613"><ele>98.0</ele><time>2026-04-05T15:13:23Z</time></trkpt><trkpt lat="44.094820257730866" lon="12.048571898440398"><ele>98.0</ele><time>2026-04-05T15:13:24Z</time></trkpt><trkpt lat="44.09465985313146" lon="12.048482403038099"><ele>98.66666666666666</ele><time>2026-04-05T15:13:25Z</time></trkpt><trkpt lat="44.094498769127824" lon="12.048371552813279"><ele>99.33333333333334</ele><time>2026-04-05T15:13:26Z</time></trkpt><trkpt lat="44.09434736332075" lon="12.048240515069674"><ele>100.0</ele><time>2026-04-05T15:13:27Z</time></trkpt><trkpt lat="44.09419708992618" lon="12.048104038979922"><ele>101.0</ele><time>2026-04-05T15:13:28Z</time></trkpt><trkpt lat="44.094044574452724" lon="12.047966601521066"><ele>102.0</ele><time>2026-04-05T15:13:29Z</time></trkpt><trkpt lat="44.093889109777955" lon="12.04783712967004"><ele>103.0</ele><time>2026-04-05T15:13:30Z</time></trkpt><trkpt lat="44.09373224438415" lon="12.047706141692014"><ele>103.0</ele><time>2026-04-05T15:13:31Z</time></trkpt><trkpt lat="44.09357467580266" lon="12.047579368871395"><ele>103.0</ele><time>2026-04-05T15:13:32Z</time></trkpt><trkpt lat="44.093421728233466" lon="12.04744682688483"><ele>103.0</ele><time>2026-04-05T15:13:33Z</time></trkpt><trkpt lat="44.093268768780085" lon="12.047313347454928"><ele>103.33333333333334</ele><time>2026-04-05T15:13:34Z</time></trkpt><trkpt lat="44.093114534717074" lon="12.047182335263827"><ele>103.66666666666666</ele><time>2026-04-05T15:13:35Z</time></trkpt><trkpt lat="44.09296003638398" lon="12.047052313157803"><ele>104.0</ele><time>2026-04-05T15:13:36Z</time></trkpt><trkpt lat="44.09280378511831" lon="12.046922376662458"><ele>104.0</ele><time>2026-04-05T15:13:37Z</time></trkpt><trkpt lat="44.092647874904294" lon="12.046793716602696"><ele>104.0</ele><time>2026-04-05T15:13:38Z</time></trkpt><trkpt lat="44.092495556691595" lon="12.046666083213738"><ele>104.0</ele><time>2026-04-05T15:13:39Z</time></trkpt><trkpt lat="44.092349987578736" lon="12.046532840868194"><ele>103.75</ele><time>2026-04-05T15:13:40Z</time></trkpt><trkpt lat="44.092226140045554" lon="12.046403329593169"><ele>103.5</ele><time>2026-04-05T15:13:41Z</time></trkpt><trkpt lat="44.09210998754463" lon="12.046283959896314"><ele>103.25</ele><time>2026-04-05T15:13:42Z</time></trkpt><trkpt lat="44.092008289501734" lon="12.046181986908609"><ele>103.0</ele><time>2026-04-05T15:13:43Z</time></trkpt><trkpt lat="44.09192691362454" lon="12.046084178179713"><ele>103.0</ele><time>2026-04-05T15:13:44Z</time></trkpt><trkpt lat="44.091861610993206" lon="12.045964456163496"><ele>103.0</ele><time>2026-04-05T15:13:45Z</time></trkpt><trkpt lat="44.091818956717965" lon="12.045833542144965"><ele>103.0</ele><time>2026-04-05T15:13:46Z</time></trkpt><trkpt lat="44.09177296682393" lon="12.045702074882108"><ele>103.0</ele><time>2026-04-05T15:13:47Z</time></trkpt><trkpt lat="44.09170113853824" lon="12.045595105599887"><ele>103.0</ele><time>2026-04-05T15:13:48Z</time></trkpt><trkpt lat="44.091593589600315" lon="12.045516718012498"><ele>102.66666666666667</ele><time>2026-04-05T15:13:49Z</time></trkpt><trkpt lat="44.09145839046799" lon="12.045463686108395"><ele>102.33333333333334</ele><time>2026-04-05T15:13:50Z</time></trkpt><trkpt lat="44.09130717649341" lon="12.045426912971969"><ele>102.0</ele><time>2026-04-05T15:13:51Z</time></trkpt><trkpt lat="44.091139274707515" lon="12.045398677732619"><ele>102.0</ele><time>2026-04-05T15:13:52Z</time></trkpt><trkpt lat="44.09096409940716" lon="12.045281984707234"><ele>102.0</ele><time>2026-04-05T15:13:53Z</time></trkpt><trkpt lat="44.090787615056534" lon="12.045177361138263"><ele>102.0</ele><time>2026-04-05T15:13:54Z</time></trkpt><trkpt lat="44.09063247389282" lon="12.04509523104981"><ele>102.0</ele><time>2026-04-05T15:13:55Z</time></trkpt><trkpt lat="44.09039288819227" lon="12.04490734674094"><ele>102.0</ele><time>2026-04-05T15:13:56Z</time></trkpt><trkpt lat="44.09016458338583" lon="12.044744494394841"><ele>102.0</ele><time>2026-04-05T15:13:57Z</time></trkpt><trkpt lat="44.08992933059267" lon="12.044569001786627"><ele>102.0</ele><time>2026-04-05T15:13:58Z</time></trkpt><trkpt lat="44.089704897568204" lon="12.044389231468218"><ele>102.0</ele><time>2026-04-05T15:13:59Z</time></trkpt><trkpt lat="44.08947784749166" lon="12.044198213985455"><ele>102.0</ele><time>2026-04-05T15:14:00Z</time></trkpt><trkpt lat="44.08925134233019" lon="12.044005123927215"><ele>100.5</ele><time>2026-04-05T15:14:01Z</time></trkpt><trkpt lat="44.08902359342246" lon="12.043805577655457"><ele>99.0</ele><time>2026-04-05T15:14:02Z</time></trkpt><trkpt lat="44.08879554093379" lon="12.043603964255578"><ele>99.0</ele><time>2026-04-05T15:14:03Z</time></trkpt><trkpt lat="44.088560916556425" lon="12.043403051139556"><ele>99.0</ele><time>2026-04-05T15:14:04Z</time></trkpt><trkpt lat="44.08832434613535" lon="12.043208118477953"><ele>99.0</ele><time>2026-04-05T15:14:05Z</time></trkpt><trkpt lat="44.088081990849275" lon="12.043012656545308"><ele>99.0</ele><time>2026-04-05T15:14:06Z</time></trkpt><trkpt lat="44.08784153714614" lon="12.042818041292612"><ele>99.0</ele><time>2026-04-05T15:14:07Z</time></trkpt><trkpt lat="44.08760053230514" lon="12.042618477704762"><ele>99.0</ele><time>2026-04-05T15:14:08Z</time></trkpt><trkpt lat="44.087360992212915" lon="12.042417189048653"><ele>100.0</ele><time>2026-04-05T15:14:09Z</time></trkpt><trkpt lat="44.08711976205472" lon="12.042211157991366"><ele>101.0</ele><time>2026-04-05T15:14:10Z</time></trkpt><trkpt lat="44.08687363181443" lon="12.04200662947738"><ele>101.0</ele><time>2026-04-05T15:14:11Z</time></trkpt><trkpt lat="44.08663031492221" lon="12.04180432209202"><ele>101.0</ele><time>2026-04-05T15:14:12Z</time></trkpt><trkpt lat="44.086380744041186" lon="12.041605292364595"><ele>99.5</ele><time>2026-04-05T15:14:13Z</time></trkpt><trkpt lat="44.08613661765912" lon="12.041403280699104"><ele>98.0</ele><time>2026-04-05T15:14:14Z</time></trkpt><trkpt lat="44.085888848294715" lon="12.041201882016939"><ele>95.0</ele><time>2026-04-05T15:14:15Z</time></trkpt><trkpt lat="44.08564495815" lon="12.041000659797048"><ele>92.0</ele><time>2026-04-05T15:14:16Z</time></trkpt><trkpt lat="44.085403606166764" lon="12.040793596181958"><ele>92.0</ele><time>2026-04-05T15:14:17Z</time></trkpt><trkpt lat="44.08516769536321" lon="12.040574965709057"><ele>92.0</ele><time>2026-04-05T15:14:18Z</time></trkpt><trkpt lat="44.08493234238976" lon="12.040351808282372"><ele>93.0</ele><time>2026-04-05T15:14:19Z</time></trkpt><trkpt lat="44.08469510215735" lon="12.040131222827737"><ele>94.0</ele><time>2026-04-05T15:14:20Z</time></trkpt><trkpt lat="44.08445864579639" lon="12.039907750187648"><ele>94.0</ele><time>2026-04-05T15:14:21Z</time></trkpt><trkpt lat="44.084225546844195" lon="12.0396870099852"><ele>94.0</ele><time>2026-04-05T15:14:22Z</time></trkpt><trkpt lat="44.08399953560953" lon="12.039461078102148"><ele>93.5</ele><time>2026-04-05T15:14:23Z</time></trkpt><trkpt lat="44.08377242589129" lon="12.039237272774796"><ele>93.0</ele><time>2026-04-05T15:14:24Z</time></trkpt><trkpt lat="44.08354583560617" lon="12.039010123283434"><ele>96.5</ele><time>2026-04-05T15:14:25Z</time></trkpt><trkpt lat="44.083321837060495" lon="12.038779715554416"><ele>100.0</ele><time>2026-04-05T15:14:26Z</time></trkpt><trkpt lat="44.08309787699293" lon="12.03854504505781"><ele>100.5</ele><time>2026-04-05T15:14:27Z</time></trkpt><trkpt lat="44.08287579587475" lon="12.038312297938473"><ele>101.0</ele><time>2026-04-05T15:14:28Z</time></trkpt><trkpt lat="44.08264935683534" lon="12.038076180210759"><ele>100.0</ele><time>2026-04-05T15:14:29Z</time></trkpt><trkpt lat="44.08242166885119" lon="12.037840812720834"><ele>99.0</ele><time>2026-04-05T15:14:30Z</time></trkpt><trkpt lat="44.08219482822762" lon="12.037600832861283"><ele>101.5</ele><time>2026-04-05T15:14:31Z</time></trkpt><trkpt lat="44.08197293507411" lon="12.037362314858576"><ele>104.0</ele><time>2026-04-05T15:14:32Z</time></trkpt><trkpt lat="44.08174942052588" lon="12.037115064351518"><ele>102.5</ele><time>2026-04-05T15:14:33Z</time></trkpt><trkpt lat="44.08152740424935" lon="12.036872239456121"><ele>101.0</ele><time>2026-04-05T15:14:34Z</time></trkpt><trkpt lat="44.08130630477766" lon="12.036627132074173"><ele>101.0</ele><time>2026-04-05T15:14:35Z</time></trkpt><trkpt lat="44.08108656179579" lon="12.036378912848955"><ele>101.0</ele><time>2026-04-05T15:14:36Z</time></trkpt><trkpt lat="44.080868966309566" lon="12.036126083456736"><ele>102.0</ele><time>2026-04-05T15:14:37Z</time></trkpt><trkpt lat="44.080648747382384" lon="12.035878578677961"><ele>103.0</ele><time>2026-04-05T15:14:38Z</time></trkpt><trkpt lat="44.08042860872816" lon="12.035634483390035"><ele>104.5</ele><time>2026-04-05T15:14:39Z</time></trkpt><trkpt lat="44.080206342699796" lon="12.035394424202003"><ele>106.0</ele><time>2026-04-05T15:14:40Z</time></trkpt><trkpt lat="44.07999582766022" lon="12.035147305642353"><ele>105.5</ele><time>2026-04-05T15:14:41Z</time></trkpt><trkpt lat="44.079791280934636" lon="12.034904706258887"><ele>105.0</ele><time>2026-04-05T15:14:42Z</time></trkpt><trkpt lat="44.07960099900209" lon="12.034688231894098"><ele>105.0</ele><time>2026-04-05T15:14:43Z</time></trkpt><trkpt lat="44.0794083883164" lon="12.034491740451397"><ele>105.0</ele><time>2026-04-05T15:14:44Z</time></trkpt><trkpt lat="44.07920626115665" lon="12.03428807273961"><ele>104.0</ele><time>2026-04-05T15:14:45Z</time></trkpt><trkpt lat="44.0790068730779" lon="12.034106033856743"><ele>103.0</ele><time>2026-04-05T15:14:46Z</time></trkpt><trkpt lat="44.078817170722004" lon="12.033946894325707"><ele>103.0</ele><time>2026-04-05T15:14:47Z</time></trkpt><trkpt lat="44.07864386866662" lon="12.033804061555616"><ele>103.0</ele><time>2026-04-05T15:14:48Z</time></trkpt><trkpt lat="44.07849309434913" lon="12.033691712809224"><ele>103.0</ele><time>2026-04-05T15:14:49Z</time></trkpt><trkpt lat="44.078341328080874" lon="12.03359379901778"><ele>103.33333333333334</ele><time>2026-04-05T15:14:50Z</time></trkpt><trkpt lat="44.07816675896126" lon="12.033519788039767"><ele>103.66666666666666</ele><time>2026-04-05T15:14:51Z</time></trkpt><trkpt lat="44.07796330998237" lon="12.03337376325178"><ele>104.0</ele><time>2026-04-05T15:14:52Z</time></trkpt><trkpt lat="44.07775201266558" lon="12.033246054653521"><ele>104.0</ele><time>2026-04-05T15:14:53Z</time></trkpt><trkpt lat="44.07752791411868" lon="12.033127922679421"><ele>104.0</ele><time>2026-04-05T15:14:54Z</time></trkpt><trkpt lat="44.077288815705955" lon="12.033022543683758"><ele>103.0</ele><time>2026-04-05T15:14:55Z</time></trkpt><trkpt lat="44.077040295609294" lon="12.032928614557033"><ele>102.0</ele><time>2026-04-05T15:14:56Z</time></trkpt><trkpt lat="44.076789535098094" lon="12.03285201021648"><ele>101.0</ele><time>2026-04-05T15:14:57Z</time></trkpt><trkpt lat="44.076533939313755" lon="12.032796177004158"><ele>100.0</ele><time>2026-04-05T15:14:58Z</time></trkpt><trkpt lat="44.076274994841185" lon="12.032758922129402"><ele>100.0</ele><time>2026-04-05T15:14:59Z</time></trkpt><trkpt lat="44.076009775578676" lon="12.032729610893364"><ele>100.0</ele><time>2026-04-05T15:15:00Z</time></trkpt><trkpt lat="44.07574172130491" lon="12.0326987542621"><ele>100.0</ele><time>2026-04-05T15:15:01Z</time></trkpt><trkpt lat="44.07547283491507" lon="12.032667575832791"><ele>100.0</ele><time>2026-04-05T15:15:02Z</time></trkpt><trkpt lat="44.075195368280475" lon="12.032633071020136"><ele>96.5</ele><time>2026-04-05T15:15:03Z</time></trkpt><trkpt lat="44.07491965362694" lon="12.032601961425707"><ele>93.0</ele><time>2026-04-05T15:15:04Z</time></trkpt><trkpt lat="44.074643274042295" lon="12.032570080787615"><ele>93.0</ele><time>2026-04-05T15:15:05Z</time></trkpt><trkpt lat="44.07436279334042" lon="12.032534372585179"><ele>93.0</ele><time>2026-04-05T15:15:06Z</time></trkpt><trkpt lat="44.074085321559856" lon="12.032499853320259"><ele>93.0</ele><time>2026-04-05T15:15:07Z</time></trkpt><trkpt lat="44.073815448680314" lon="12.03246584429417"><ele>93.0</ele><time>2026-04-05T15:15:08Z</time></trkpt><trkpt lat="44.07356018316905" lon="12.032424907447998"><ele>93.0</ele><time>2026-04-05T15:15:09Z</time></trkpt><trkpt lat="44.073308768626944" lon="12.032367737249814"><ele>93.0</ele><time>2026-04-05T15:15:10Z</time></trkpt><trkpt lat="44.07305861173767" lon="12.03230525505943"><ele>99.0</ele><time>2026-04-05T15:15:11Z</time></trkpt><trkpt lat="44.07280993574546" lon="12.032235700244982"><ele>105.0</ele><time>2026-04-05T15:15:12Z</time></trkpt><trkpt lat="44.072557249853446" lon="12.032154529149107"><ele>109.0</ele><time>2026-04-05T15:15:13Z</time></trkpt><trkpt lat="44.072309094640495" lon="12.032056939934295"><ele>113.0</ele><time>2026-04-05T15:15:14Z</time></trkpt><trkpt lat="44.07206112518838" lon="12.031938762719795"><ele>113.0</ele><time>2026-04-05T15:15:15Z</time></trkpt><trkpt lat="44.071822052309976" lon="12.031813708738877"><ele>113.0</ele><time>2026-04-05T15:15:16Z</time></trkpt><trkpt lat="44.07159301652531" lon="12.031694438652687"><ele>112.5</ele><time>2026-04-05T15:15:17Z</time></trkpt><trkpt lat="44.07137374676678" lon="12.031577627007398"><ele>112.0</ele><time>2026-04-05T15:15:18Z</time></trkpt><trkpt lat="44.07115933761947" lon="12.031461123318937"><ele>112.0</ele><time>2026-04-05T15:15:19Z</time></trkpt><trkpt lat="44.07094544994893" lon="12.031338017639277"><ele>112.0</ele><time>2026-04-05T15:15:20Z</time></trkpt><trkpt lat="44.07073124500401" lon="12.03121055648587"><ele>113.5</ele><time>2026-04-05T15:15:21Z</time></trkpt><trkpt lat="44.070517126678524" lon="12.031070451733417"><ele>115.0</ele><time>2026-04-05T15:15:22Z</time></trkpt><trkpt lat="44.07030167879403" lon="12.030921231165543"><ele>115.0</ele><time>2026-04-05T15:15:23Z</time></trkpt><trkpt lat="44.0700834499314" lon="12.03076424623349"><ele>115.0</ele><time>2026-04-05T15:15:24Z</time></trkpt><trkpt lat="44.069863820471866" lon="12.03059975590653"><ele>115.0</ele><time>2026-04-05T15:15:25Z</time></trkpt><trkpt lat="44.06964213788604" lon="12.03043498797521"><ele>115.0</ele><time>2026-04-05T15:15:26Z</time></trkpt><trkpt lat="44.06942026482924" lon="12.030275477969187"><ele>115.0</ele><time>2026-04-05T15:15:27Z</time></trkpt><trkpt lat="44.069195205840494" lon="12.03011882687667"><ele>115.0</ele><time>2026-04-05T15:15:28Z</time></trkpt><trkpt lat="44.06897670469626" lon="12.029967214643568"><ele>114.0</ele><time>2026-04-05T15:15:29Z</time></trkpt><trkpt lat="44.068768522429025" lon="12.029825365284136"><ele>113.0</ele><time>2026-04-05T15:15:30Z</time></trkpt><trkpt lat="44.06855416885743" lon="12.029683936159547"><ele>113.0</ele><time>2026-04-05T15:15:31Z</time></trkpt><trkpt lat="44.068326721989926" lon="12.02952789628569"><ele>113.0</ele><time>2026-04-05T15:15:32Z</time></trkpt><trkpt lat="44.068088212570714" lon="12.029353674584101"><ele>114.0</ele><time>2026-04-05T15:15:33Z</time></trkpt><trkpt lat="44.06783823650579" lon="12.029168161781904"><ele>115.0</ele><time>2026-04-05T15:15:34Z</time></trkpt><trkpt lat="44.06758059700539" lon="12.028980759599994"><ele>114.5</ele><time>2026-04-05T15:15:35Z</time></trkpt><trkpt lat="44.06732075398057" lon="12.028773506930287"><ele>114.0</ele><time>2026-04-05T15:15:36Z</time></trkpt><trkpt lat="44.06706170074545" lon="12.028564252595526"><ele>114.0</ele><time>2026-04-05T15:15:37Z</time></trkpt><trkpt lat="44.0668015774139" lon="12.028375477963047"><ele>114.0</ele><time>2026-04-05T15:15:38Z</time></trkpt><trkpt lat="44.066539534527315" lon="12.028200043001176"><ele>113.0</ele><time>2026-04-05T15:15:39Z</time></trkpt><trkpt lat="44.06626770453313" lon="12.0280347405032"><ele>112.0</ele><time>2026-04-05T15:15:40Z</time></trkpt><trkpt lat="44.06599096832072" lon="12.027877124666514"><ele>113.0</ele><time>2026-04-05T15:15:41Z</time></trkpt><trkpt lat="44.06570912941992" lon="12.027729083624042"><ele>114.0</ele><time>2026-04-05T15:15:42Z</time></trkpt><trkpt lat="44.06542309937679" lon="12.027590091466498"><ele>114.0</ele><time>2026-04-05T15:15:43Z</time></trkpt><trkpt lat="44.06513571220578" lon="12.027453504313868"><ele>114.0</ele><time>2026-04-05T15:15:44Z</time></trkpt><trkpt lat="44.0648491689776" lon="12.02730951128194"><ele>114.0</ele><time>2026-04-05T15:15:45Z</time></trkpt><trkpt lat="44.06457489828633" lon="12.027170598090196"><ele>114.0</ele><time>2026-04-05T15:15:46Z</time></trkpt><trkpt lat="44.06431119847502" lon="12.027038213188593"><ele>114.5</ele><time>2026-04-05T15:15:47Z</time></trkpt><trkpt lat="44.064062042041265" lon="12.02691090225664"><ele>115.0</ele><time>2026-04-05T15:15:48Z</time></trkpt><trkpt lat="44.06382553994215" lon="12.026787174826454"><ele>115.0</ele><time>2026-04-05T15:15:49Z</time></trkpt><trkpt lat="44.063601792577025" lon="12.026664340946748"><ele>115.0</ele><time>2026-04-05T15:15:50Z</time></trkpt><trkpt lat="44.06338812823325" lon="12.026539143366701"><ele>114.33333333333334</ele><time>2026-04-05T15:15:51Z</time></trkpt><trkpt lat="44.063188218523436" lon="12.026417526548643"><ele>113.66666666666666</ele><time>2026-04-05T15:15:52Z</time></trkpt><trkpt lat="44.06300798296197" lon="12.026306374915599"><ele>113.0</ele><time>2026-04-05T15:15:53Z</time></trkpt><trkpt lat="44.06284436078677" lon="12.026202843897243"><ele>113.0</ele><time>2026-04-05T15:15:54Z</time></trkpt><trkpt lat="44.06268405909403" lon="12.026105496537232"><ele>113.0</ele><time>2026-04-05T15:15:55Z</time></trkpt><trkpt lat="44.06249742148789" lon="12.025994302866987"><ele>113.0</ele><time>2026-04-05T15:15:56Z</time></trkpt><trkpt lat="44.06231501863355" lon="12.025869661019025"><ele>111.66666666666666</ele><time>2026-04-05T15:15:57Z</time></trkpt><trkpt lat="44.062123752013605" lon="12.025729806527442"><ele>110.33333333333334</ele><time>2026-04-05T15:15:58Z</time></trkpt><trkpt lat="44.061919934218054" lon="12.025581309665824"><ele>109.0</ele><time>2026-04-05T15:15:59Z</time></trkpt><trkpt lat="44.06169669020109" lon="12.025436129985687"><ele>110.0</ele><time>2026-04-05T15:16:00Z</time></trkpt><trkpt lat="44.06146093230451" lon="12.025286894239146"><ele>111.0</ele><time>2026-04-05T15:16:01Z</time></trkpt><trkpt lat="44.06122556254994" lon="12.025130966221019"><ele>108.5</ele><time>2026-04-05T15:16:02Z</time></trkpt><trkpt lat="44.0609772775601" lon="12.024966159670988"><ele>106.0</ele><time>2026-04-05T15:16:03Z</time></trkpt><trkpt lat="44.06072544980357" lon="12.024801764076637"><ele>106.0</ele><time>2026-04-05T15:16:04Z</time></trkpt><trkpt lat="44.06047814466407" lon="12.024640639220348"><ele>106.0</ele><time>2026-04-05T15:16:05Z</time></trkpt><trkpt lat="44.06023384057685" lon="12.024481874391963"><ele>106.0</ele><time>2026-04-05T15:16:06Z</time></trkpt><trkpt lat="44.059981073421696" lon="12.024312751351959"><ele>106.0</ele><time>2026-04-05T15:16:07Z</time></trkpt><trkpt lat="44.05973179094369" lon="12.02415204376128"><ele>105.5</ele><time>2026-04-05T15:16:08Z</time></trkpt><trkpt lat="44.05948349636946" lon="12.023999259445072"><ele>105.0</ele><time>2026-04-05T15:16:09Z</time></trkpt><trkpt lat="44.059234300328505" lon="12.023854070215224"><ele>106.0</ele><time>2026-04-05T15:16:10Z</time></trkpt><trkpt lat="44.05898343657582" lon="12.023713247939895"><ele>107.0</ele><time>2026-04-05T15:16:11Z</time></trkpt><trkpt lat="44.058729423328195" lon="12.023582974177922"><ele>107.0</ele><time>2026-04-05T15:16:12Z</time></trkpt><trkpt lat="44.058470547402884" lon="12.023466346247517"><ele>107.0</ele><time>2026-04-05T15:16:13Z</time></trkpt><trkpt lat="44.05821434131667" lon="12.023367460774933"><ele>104.5</ele><time>2026-04-05T15:16:14Z</time></trkpt><trkpt lat="44.05795613977151" lon="12.023272057707388"><ele>102.0</ele><time>2026-04-05T15:16:15Z</time></trkpt><trkpt lat="44.05771553383" lon="12.023183330134078"><ele>102.0</ele><time>2026-04-05T15:16:16Z</time></trkpt><trkpt lat="44.05749028841629" lon="12.023084618906314"><ele>102.0</ele><time>2026-04-05T15:16:17Z</time></trkpt><trkpt lat="44.057282195087986" lon="12.022954348142752"><ele>105.5</ele><time>2026-04-05T15:16:18Z</time></trkpt><trkpt lat="44.057085946912615" lon="12.02278281921551"><ele>109.0</ele><time>2026-04-05T15:16:19Z</time></trkpt><trkpt lat="44.0569059297543" lon="12.022564494701472"><ele>107.0</ele><time>2026-04-05T15:16:20Z</time></trkpt><trkpt lat="44.05673618447479" lon="12.022315309015312"><ele>105.0</ele><time>2026-04-05T15:16:21Z</time></trkpt><trkpt lat="44.05657830842969" lon="12.022042666565918"><ele>107.0</ele><time>2026-04-05T15:16:22Z</time></trkpt><trkpt lat="44.05642604202754" lon="12.021754022555896"><ele>109.0</ele><time>2026-04-05T15:16:23Z</time></trkpt><trkpt lat="44.05627007189841" lon="12.021457742515922"><ele>109.0</ele><time>2026-04-05T15:16:24Z</time></trkpt><trkpt lat="44.056108751789246" lon="12.02116673765469"><ele>109.0</ele><time>2026-04-05T15:16:25Z</time></trkpt><trkpt lat="44.05595102152111" lon="12.020873781425523"><ele>110.0</ele><time>2026-04-05T15:16:26Z</time></trkpt><trkpt lat="44.05580160814876" lon="12.020584279370507"><ele>111.0</ele><time>2026-04-05T15:16:27Z</time></trkpt><trkpt lat="44.05564445166534" lon="12.02029900941158"><ele>111.0</ele><time>2026-04-05T15:16:28Z</time></trkpt><trkpt lat="44.05547003339879" lon="12.020017574906484"><ele>111.0</ele><time>2026-04-05T15:16:29Z</time></trkpt><trkpt lat="44.05528275169659" lon="12.019750596239913"><ele>112.0</ele><time>2026-04-05T15:16:30Z</time></trkpt><trkpt lat="44.05508308833811" lon="12.019491042409856"><ele>113.0</ele><time>2026-04-05T15:16:31Z</time></trkpt><trkpt lat="44.054867486702825" lon="12.019241660823374"><ele>111.0</ele><time>2026-04-05T15:16:32Z</time></trkpt><trkpt lat="44.054643371438985" lon="12.019007066008903"><ele>109.0</ele><time>2026-04-05T15:16:33Z</time></trkpt><trkpt lat="44.054418775105304" lon="12.018783024051112"><ele>109.0</ele><time>2026-04-05T15:16:34Z</time></trkpt><trkpt lat="44.054199531554374" lon="12.018565039271172"><ele>109.0</ele><time>2026-04-05T15:16:35Z</time></trkpt><trkpt lat="44.05399511167224" lon="12.018338078585057"><ele>110.0</ele><time>2026-04-05T15:16:36Z</time></trkpt><trkpt lat="44.05380530823339" lon="12.018079530131622"><ele>111.0</ele><time>2026-04-05T15:16:37Z</time></trkpt><trkpt lat="44.0536267203421" lon="12.017812633160588"><ele>111.0</ele><time>2026-04-05T15:16:38Z</time></trkpt><trkpt lat="44.053456321267475" lon="12.017544018659251"><ele>111.0</ele><time>2026-04-05T15:16:39Z</time></trkpt><trkpt lat="44.05328417157448" lon="12.017284874283693"><ele>111.5</ele><time>2026-04-05T15:16:40Z</time></trkpt><trkpt lat="44.05311032260502" lon="12.017029054047416"><ele>112.0</ele><time>2026-04-05T15:16:41Z</time></trkpt><trkpt lat="44.05293503343057" lon="12.016773270887757"><ele>110.0</ele><time>2026-04-05T15:16:42Z</time></trkpt><trkpt lat="44.05275606974373" lon="12.01651297997969"><ele>108.0</ele><time>2026-04-05T15:16:43Z</time></trkpt><trkpt lat="44.05257170341736" lon="12.016262629495742"><ele>108.0</ele><time>2026-04-05T15:16:44Z</time></trkpt><trkpt lat="44.05237433628264" lon="12.01601565433306"><ele>108.0</ele><time>2026-04-05T15:16:45Z</time></trkpt><trkpt lat="44.052163826345584" lon="12.01579129636982"><ele>108.0</ele><time>2026-04-05T15:16:46Z</time></trkpt><trkpt lat="44.05194394593862" lon="12.015578887788564"><ele>108.0</ele><time>2026-04-05T15:16:47Z</time></trkpt><trkpt lat="44.05171702386847" lon="12.01538022494358"><ele>109.5</ele><time>2026-04-05T15:16:48Z</time></trkpt><trkpt lat="44.051479543715104" lon="12.015187950950782"><ele>111.0</ele><time>2026-04-05T15:16:49Z</time></trkpt><trkpt lat="44.05123774692075" lon="12.015016616515785"><ele>110.0</ele><time>2026-04-05T15:16:50Z</time></trkpt><trkpt lat="44.050989484811765" lon="12.01485666723926"><ele>109.0</ele><time>2026-04-05T15:16:51Z</time></trkpt><trkpt lat="44.050735481347765" lon="12.014699664820439"><ele>109.0</ele><time>2026-04-05T15:16:52Z</time></trkpt><trkpt lat="44.050482713457065" lon="12.014542467448642"><ele>109.0</ele><time>2026-04-05T15:16:53Z</time></trkpt><trkpt lat="44.05023743476794" lon="12.014391753774994"><ele>109.0</ele><time>2026-04-05T15:16:54Z</time></trkpt><trkpt lat="44.04999067422187" lon="12.01423817773187"><ele>109.0</ele><time>2026-04-05T15:16:55Z</time></trkpt><trkpt lat="44.04973952390353" lon="12.01408469775895"><ele>109.0</ele><time>2026-04-05T15:16:56Z</time></trkpt><trkpt lat="44.049497291083355" lon="12.013933842775717"><ele>109.0</ele><time>2026-04-05T15:16:57Z</time></trkpt><trkpt lat="44.04925345713486" lon="12.013775770673336"><ele>109.5</ele><time>2026-04-05T15:16:58Z</time></trkpt><trkpt lat="44.04900811650355" lon="12.01361878499714"><ele>110.0</ele><time>2026-04-05T15:16:59Z</time></trkpt><trkpt lat="44.04876637114359" lon="12.013470404562803"><ele>110.0</ele><time>2026-04-05T15:17:00Z</time></trkpt><trkpt lat="44.04852836810873" lon="12.013323853695688"><ele>110.0</ele><time>2026-04-05T15:17:01Z</time></trkpt><trkpt lat="44.04828882176724" lon="12.013175675894475"><ele>110.5</ele><time>2026-04-05T15:17:02Z</time></trkpt><trkpt lat="44.04805499822745" lon="12.013032781767846"><ele>111.0</ele><time>2026-04-05T15:17:03Z</time></trkpt><trkpt lat="44.047826441253264" lon="12.012891837291543"><ele>111.0</ele><time>2026-04-05T15:17:04Z</time></trkpt><trkpt lat="44.047603968642484" lon="12.012749305239767"><ele>111.0</ele><time>2026-04-05T15:17:05Z</time></trkpt><trkpt lat="44.047401320982395" lon="12.012602802805386"><ele>112.0</ele><time>2026-04-05T15:17:06Z</time></trkpt><trkpt lat="44.04720700728539" lon="12.01244001283211"><ele>113.0</ele><time>2026-04-05T15:17:07Z</time></trkpt><trkpt lat="44.04701030566391" lon="12.012263928064153"><ele>113.0</ele><time>2026-04-05T15:17:08Z</time></trkpt><trkpt lat="44.0468304319584" lon="12.01208088777978"><ele>113.0</ele><time>2026-04-05T15:17:09Z</time></trkpt><trkpt lat="44.04667194614673" lon="12.011900575616327"><ele>113.0</ele><time>2026-04-05T15:17:10Z</time></trkpt><trkpt lat="44.04653130972088" lon="12.011731230620713"><ele>113.33333333333333</ele><time>2026-04-05T15:17:11Z</time></trkpt><trkpt lat="44.04639855814825" lon="12.011565724623964"><ele>113.66666666666666</ele><time>2026-04-05T15:17:12Z</time></trkpt><trkpt lat="44.04626273328366" lon="12.011388735342594"><ele>114.0</ele><time>2026-04-05T15:17:13Z</time></trkpt><trkpt lat="44.04613271422334" lon="12.011197597635125"><ele>114.0</ele><time>2026-04-05T15:17:14Z</time></trkpt><trkpt lat="44.04601401237929" lon="12.01099162123879"><ele>114.0</ele><time>2026-04-05T15:17:15Z</time></trkpt><trkpt lat="44.04590620696141" lon="12.010793723025394"><ele>114.0</ele><time>2026-04-05T15:17:16Z</time></trkpt><trkpt lat="44.04581161759605" lon="12.01060964121314"><ele>114.75</ele><time>2026-04-05T15:17:17Z</time></trkpt><trkpt lat="44.045735807409294" lon="12.010454290550616"><ele>115.5</ele><time>2026-04-05T15:17:18Z</time></trkpt><trkpt lat="44.045672895896985" lon="12.010311711971784"><ele>116.25</ele><time>2026-04-05T15:17:19Z</time></trkpt><trkpt lat="44.04561106637484" lon="12.010164783310646"><ele>117.0</ele><time>2026-04-05T15:17:20Z</time></trkpt><trkpt lat="44.04554271463876" lon="12.009992685053984"><ele>116.33333333333334</ele><time>2026-04-05T15:17:21Z</time></trkpt><trkpt lat="44.04547557501411" lon="12.009804845833072"><ele>115.66666666666667</ele><time>2026-04-05T15:17:22Z</time></trkpt><trkpt lat="44.045411694301855" lon="12.00961382980824"><ele>115.0</ele><time>2026-04-05T15:17:23Z</time></trkpt><trkpt lat="44.04534861409716" lon="12.00942146618273"><ele>115.0</ele><time>2026-04-05T15:17:24Z</time></trkpt><trkpt lat="44.04528404967678" lon="12.009221895512662"><ele>115.0</ele><time>2026-04-05T15:17:25Z</time></trkpt><trkpt lat="44.04522302203994" lon="12.009016845220653"><ele>115.0</ele><time>2026-04-05T15:17:26Z</time></trkpt><trkpt lat="44.0451685064793" lon="12.008785403271856"><ele>115.0</ele><time>2026-04-05T15:17:27Z</time></trkpt><trkpt lat="44.04511881381211" lon="12.008555612564654"><ele>115.0</ele><time>2026-04-05T15:17:28Z</time></trkpt><trkpt lat="44.04506317807174" lon="12.008389083361417"><ele>115.0</ele><time>2026-04-05T15:17:29Z</time></trkpt><trkpt lat="44.04501227953467" lon="12.008182168513633"><ele>115.0</ele><time>2026-04-05T15:17:30Z</time></trkpt><trkpt lat="44.04496579120552" lon="12.007970180301276"><ele>115.0</ele><time>2026-04-05T15:17:31Z</time></trkpt><trkpt lat="44.044919552463675" lon="12.007741219754909"><ele>115.0</ele><time>2026-04-05T15:17:32Z</time></trkpt><trkpt lat="44.044872888988046" lon="12.007543207035823"><ele>116.75</ele><time>2026-04-05T15:17:33Z</time></trkpt><trkpt lat="44.044831361552546" lon="12.007358585232366"><ele>118.5</ele><time>2026-04-05T15:17:34Z</time></trkpt><trkpt lat="44.04479951470681" lon="12.007164839390077"><ele>120.25</ele><time>2026-04-05T15:17:35Z</time></trkpt><trkpt lat="44.04476945842931" lon="12.00699614586761"><ele>122.0</ele><time>2026-04-05T15:17:36Z</time></trkpt><trkpt lat="44.04474919072378" lon="12.006861643472986"><ele>122.0</ele><time>2026-04-05T15:17:37Z</time></trkpt><trkpt lat="44.044733244575134" lon="12.006764350266204"><ele>121.99999999999999</ele><time>2026-04-05T15:17:38Z</time></trkpt><trkpt lat="44.04471245575087" lon="12.006679675519614"><ele>121.99999999999999</ele><time>2026-04-05T15:17:39Z</time></trkpt><trkpt lat="44.04467456501034" lon="12.006535711563762"><ele>122.0</ele><time>2026-04-05T15:17:41Z</time></trkpt><trkpt lat="44.04463707382388" lon="12.006404318048604"><ele>122.0</ele><time>2026-04-05T15:17:43Z</time></trkpt><trkpt lat="44.04460302538617" lon="12.00625065609682"><ele>120.8</ele><time>2026-04-05T15:17:45Z</time></trkpt><trkpt lat="44.04455622265395" lon="12.006154059635197"><ele>119.6</ele><time>2026-04-05T15:17:46Z</time></trkpt><trkpt lat="44.0444776672769" lon="12.006112604836465"><ele>118.39999999999999</ele><time>2026-04-05T15:17:47Z</time></trkpt><trkpt lat="44.04438939482324" lon="12.00607251635879"><ele>117.19999999999999</ele><time>2026-04-05T15:17:48Z</time></trkpt><trkpt lat="44.044275842479884" lon="12.006052077330969"><ele>116.0</ele><time>2026-04-05T15:17:49Z</time></trkpt><trkpt lat="44.04414940027222" lon="12.006039301720175"><ele>116.75</ele><time>2026-04-05T15:17:50Z</time></trkpt><trkpt lat="44.04401716111269" lon="12.00601821054342"><ele>117.5</ele><time>2026-04-05T15:17:51Z</time></trkpt><trkpt lat="44.043879043060365" lon="12.005986842933208"><ele>118.25</ele><time>2026-04-05T15:17:52Z</time></trkpt><trkpt lat="44.043755256082854" lon="12.005959448829579"><ele>119.0</ele><time>2026-04-05T15:17:53Z</time></trkpt><trkpt lat="44.04363839633711" lon="12.005940117358845"><ele>119.0</ele><time>2026-04-05T15:17:54Z</time></trkpt><trkpt lat="44.043526210375106" lon="12.005919029347245"><ele>119.0</ele><time>2026-04-05T15:17:55Z</time></trkpt><trkpt lat="44.04342347315804" lon="12.005899390643153"><ele>119.0</ele><time>2026-04-05T15:17:56Z</time></trkpt><trkpt lat="44.043313748014945" lon="12.005883759992265"><ele>119.0</ele><time>2026-04-05T15:17:57Z</time></trkpt><trkpt lat="44.04319808547177" lon="12.005851962613162"><ele>119.0</ele><time>2026-04-05T15:17:58Z</time></trkpt><trkpt lat="44.04308219840245" lon="12.005776832244504"><ele>118.5</ele><time>2026-04-05T15:17:59Z</time></trkpt><trkpt lat="44.04297871055362" lon="12.005658436544294"><ele>118.0</ele><time>2026-04-05T15:18:00Z</time></trkpt><trkpt lat="44.042886544698995" lon="12.005510610554717"><ele>117.5</ele><time>2026-04-05T15:18:01Z</time></trkpt><trkpt lat="44.04281906684697" lon="12.005316822989286"><ele>117.0</ele><time>2026-04-05T15:18:02Z</time></trkpt><trkpt lat="44.0427793851609" lon="12.005084475630568"><ele>117.0</ele><time>2026-04-05T15:18:03Z</time></trkpt><trkpt lat="44.042751589246556" lon="12.004833606017923"><ele>117.0</ele><time>2026-04-05T15:18:04Z</time></trkpt><trkpt lat="44.042726601927946" lon="12.00455731312571"><ele>117.0</ele><time>2026-04-05T15:18:05Z</time></trkpt><trkpt lat="44.042693632452966" lon="12.004262850213768"><ele>117.0</ele><time>2026-04-05T15:18:06Z</time></trkpt><trkpt lat="44.04264065027923" lon="12.003979325678854"><ele>117.0</ele><time>2026-04-05T15:18:07Z</time></trkpt><trkpt lat="44.04254550348866" lon="12.003694451244035"><ele>117.0</ele><time>2026-04-05T15:18:08Z</time></trkpt><trkpt lat="44.04241413294716" lon="12.003397369940275"><ele>117.5</ele><time>2026-04-05T15:18:09Z</time></trkpt><trkpt lat="44.042266195220385" lon="12.00310067978014"><ele>118.0</ele><time>2026-04-05T15:18:10Z</time></trkpt><trkpt lat="44.04211783662994" lon="12.002815030007733"><ele>118.0</ele><time>2026-04-05T15:18:11Z</time></trkpt><trkpt lat="44.04197833761686" lon="12.002511472471546"><ele>118.0</ele><time>2026-04-05T15:18:12Z</time></trkpt><trkpt lat="44.04183203438937" lon="12.002179179049966"><ele>118.5</ele><time>2026-04-05T15:18:13Z</time></trkpt><trkpt lat="44.04167687407947" lon="12.001828000924078"><ele>119.0</ele><time>2026-04-05T15:18:14Z</time></trkpt><trkpt lat="44.04151339052743" lon="12.001469974789357"><ele>119.0</ele><time>2026-04-05T15:18:15Z</time></trkpt><trkpt lat="44.04134384540817" lon="12.00110426035267"><ele>119.0</ele><time>2026-04-05T15:18:16Z</time></trkpt><trkpt lat="44.04117589597397" lon="12.000745519700374"><ele>119.5</ele><time>2026-04-05T15:18:17Z</time></trkpt><trkpt lat="44.04103110718691" lon="12.000412675085489"><ele>120.0</ele><time>2026-04-05T15:18:18Z</time></trkpt><trkpt lat="44.04088779419737" lon="12.000098712689292"><ele>119.5</ele><time>2026-04-05T15:18:19Z</time></trkpt><trkpt lat="44.04074093006543" lon="11.999794724583225"><ele>119.0</ele><time>2026-04-05T15:18:20Z</time></trkpt><trkpt lat="44.040571555577145" lon="11.999486708761594"><ele>119.0</ele><time>2026-04-05T15:18:21Z</time></trkpt><trkpt lat="44.04038278949367" lon="11.999177199499536"><ele>119.0</ele><time>2026-04-05T15:18:22Z</time></trkpt><trkpt lat="44.040188992265946" lon="11.998869133577639"><ele>120.0</ele><time>2026-04-05T15:18:23Z</time></trkpt><trkpt lat="44.039992722279166" lon="11.998562580499176"><ele>121.0</ele><time>2026-04-05T15:18:24Z</time></trkpt><trkpt lat="44.039807030037146" lon="11.998271519021598"><ele>121.0</ele><time>2026-04-05T15:18:25Z</time></trkpt><trkpt lat="44.039634416762645" lon="11.997995361712599"><ele>121.0</ele><time>2026-04-05T15:18:26Z</time></trkpt><trkpt lat="44.039469002982095" lon="11.997724390819627"><ele>121.0</ele><time>2026-04-05T15:18:27Z</time></trkpt><trkpt lat="44.03930977472114" lon="11.997467707267244"><ele>121.0</ele><time>2026-04-05T15:18:28Z</time></trkpt><trkpt lat="44.03915436135254" lon="11.997221140924164"><ele>121.66666666666667</ele><time>2026-04-05T15:18:29Z</time></trkpt><trkpt lat="44.03900784130749" lon="11.996981007442802"><ele>122.33333333333334</ele><time>2026-04-05T15:18:30Z</time></trkpt><trkpt lat="44.03888684543424" lon="11.996747617814414"><ele>123.0</ele><time>2026-04-05T15:18:31Z</time></trkpt><trkpt lat="44.038788512505526" lon="11.996467501093926"><ele>129.0</ele><time>2026-04-05T15:18:32Z</time></trkpt><trkpt lat="44.03874152653098" lon="11.996140954414413"><ele>135.0</ele><time>2026-04-05T15:18:33Z</time></trkpt><trkpt lat="44.03866635851966" lon="11.995809017282017"><ele>139.0</ele><time>2026-04-05T15:18:34Z</time></trkpt><trkpt lat="44.038687435720654" lon="11.995458565192472"><ele>143.0</ele><time>2026-04-05T15:18:35Z</time></trkpt><trkpt lat="44.038692928187594" lon="11.995130566287004"><ele>142.0</ele><time>2026-04-05T15:18:36Z</time></trkpt><trkpt lat="44.038680085559335" lon="11.994848632410008"><ele>141.0</ele><time>2026-04-05T15:18:37Z</time></trkpt><trkpt lat="44.038620558339424" lon="11.99455313407929"><ele>140.0</ele><time>2026-04-05T15:18:38Z</time></trkpt><trkpt lat="44.038501887743394" lon="11.994236954019179"><ele>143.0</ele><time>2026-04-05T15:18:39Z</time></trkpt><trkpt lat="44.038332188648546" lon="11.993948753213445"><ele>146.0</ele><time>2026-04-05T15:18:40Z</time></trkpt><trkpt lat="44.0381482962742" lon="11.993758007100698"><ele>146.0</ele><time>2026-04-05T15:18:41Z</time></trkpt><trkpt lat="44.03791297888306" lon="11.993564372050344"><ele>146.0</ele><time>2026-04-05T15:18:42Z</time></trkpt><trkpt lat="44.03765147129571" lon="11.993383106318996"><ele>147.5</ele><time>2026-04-05T15:18:43Z</time></trkpt><trkpt lat="44.03739006731643" lon="11.993183354639617"><ele>149.0</ele><time>2026-04-05T15:18:44Z</time></trkpt><trkpt lat="44.037130995735545" lon="11.992968616832373"><ele>149.0</ele><time>2026-04-05T15:18:45Z</time></trkpt><trkpt lat="44.036882955066524" lon="11.992761197267757"><ele>149.0</ele><time>2026-04-05T15:18:46Z</time></trkpt><trkpt lat="44.03666033954455" lon="11.992569618996779"><ele>149.0</ele><time>2026-04-05T15:18:47Z</time></trkpt><trkpt lat="44.03646062320197" lon="11.99237252143692"><ele>149.0</ele><time>2026-04-05T15:18:48Z</time></trkpt><trkpt lat="44.03628378485383" lon="11.992143149816622"><ele>149.0</ele><time>2026-04-05T15:18:49Z</time></trkpt><trkpt lat="44.036120857917574" lon="11.99186830568351"><ele>149.0</ele><time>2026-04-05T15:18:50Z</time></trkpt><trkpt lat="44.035952401304684" lon="11.991571267757344"><ele>152.0</ele><time>2026-04-05T15:18:51Z</time></trkpt><trkpt lat="44.035772781672314" lon="11.991276157775244"><ele>155.0</ele><time>2026-04-05T15:18:52Z</time></trkpt><trkpt lat="44.03558377090838" lon="11.990977011014564"><ele>151.0</ele><time>2026-04-05T15:18:53Z</time></trkpt><trkpt lat="44.035386992240156" lon="11.99066788886469"><ele>147.0</ele><time>2026-04-05T15:18:54Z</time></trkpt><trkpt lat="44.03518361730247" lon="11.990348454380284"><ele>147.0</ele><time>2026-04-05T15:18:55Z</time></trkpt><trkpt lat="44.03497621722941" lon="11.990021385317007"><ele>147.0</ele><time>2026-04-05T15:18:56Z</time></trkpt><trkpt lat="44.03477245892016" lon="11.989704476678238"><ele>148.0</ele><time>2026-04-05T15:18:57Z</time></trkpt><trkpt lat="44.03456866796885" lon="11.989382379792588"><ele>149.0</ele><time>2026-04-05T15:18:58Z</time></trkpt><trkpt lat="44.03436007240113" lon="11.989054550773217"><ele>149.0</ele><time>2026-04-05T15:18:59Z</time></trkpt><trkpt lat="44.034163480073104" lon="11.988746833631225"><ele>149.0</ele><time>2026-04-05T15:19:00Z</time></trkpt><trkpt lat="44.033969279755674" lon="11.988440826724446"><ele>154.0</ele><time>2026-04-05T15:19:01Z</time></trkpt><trkpt lat="44.03378028486116" lon="11.98814150947725"><ele>159.0</ele><time>2026-04-05T15:19:02Z</time></trkpt><trkpt lat="44.03360575239073" lon="11.987869245276858"><ele>159.0</ele><time>2026-04-05T15:19:03Z</time></trkpt><trkpt lat="44.033473295988436" lon="11.98764551642743"><ele>159.0</ele><time>2026-04-05T15:19:04Z</time></trkpt><trkpt lat="44.03332077135276" lon="11.987486842790805"><ele>159.0</ele><time>2026-04-05T15:19:05Z</time></trkpt><trkpt lat="44.03297552798253" lon="11.98705009483557"><ele>160.5</ele><time>2026-04-05T15:19:06Z</time></trkpt><trkpt lat="44.03273036045572" lon="11.986795503420385"><ele>162.0</ele><time>2026-04-05T15:19:07Z</time></trkpt><trkpt lat="44.03247742941466" lon="11.986524853857725"><ele>161.5</ele><time>2026-04-05T15:19:08Z</time></trkpt><trkpt lat="44.03222308846257" lon="11.986239817956536"><ele>161.0</ele><time>2026-04-05T15:19:09Z</time></trkpt><trkpt lat="44.03196010276763" lon="11.985946761477171"><ele>160.0</ele><time>2026-04-05T15:19:10Z</time></trkpt><trkpt lat="44.03170822257676" lon="11.985665495312952"><ele>159.0</ele><time>2026-04-05T15:19:11Z</time></trkpt><trkpt lat="44.03145398915399" lon="11.985385238098496"><ele>159.0</ele><time>2026-04-05T15:19:12Z</time></trkpt><trkpt lat="44.03119765872679" lon="11.985104567546344"><ele>159.0</ele><time>2026-04-05T15:19:13Z</time></trkpt><trkpt lat="44.03094310421098" lon="11.984823321687276"><ele>159.0</ele><time>2026-04-05T15:19:14Z</time></trkpt><trkpt lat="44.03069361062065" lon="11.984539414554138"><ele>159.0</ele><time>2026-04-05T15:19:15Z</time></trkpt><trkpt lat="44.030449301001184" lon="11.984261315527508"><ele>159.5</ele><time>2026-04-05T15:19:16Z</time></trkpt><trkpt lat="44.030199898401996" lon="11.983989517313457"><ele>160.0</ele><time>2026-04-05T15:19:17Z</time></trkpt><trkpt lat="44.0299537628925" lon="11.983722766678811"><ele>159.5</ele><time>2026-04-05T15:19:18Z</time></trkpt><trkpt lat="44.029713853876544" lon="11.98345949352649"><ele>159.0</ele><time>2026-04-05T15:19:19Z</time></trkpt><trkpt lat="44.029482174425524" lon="11.983200401012361"><ele>159.0</ele><time>2026-04-05T15:19:20Z</time></trkpt><trkpt lat="44.02925494681634" lon="11.982937152302789"><ele>159.0</ele><time>2026-04-05T15:19:21Z</time></trkpt><trkpt lat="44.029032617803864" lon="11.982674228056808"><ele>162.5</ele><time>2026-04-05T15:19:22Z</time></trkpt><trkpt lat="44.02881438305078" lon="11.982411182882217"><ele>166.0</ele><time>2026-04-05T15:19:23Z</time></trkpt><trkpt lat="44.02860762822435" lon="11.982163925530232"><ele>166.0</ele><time>2026-04-05T15:19:24Z</time></trkpt><trkpt lat="44.028407153905746" lon="11.981929303904383"><ele>166.0</ele><time>2026-04-05T15:19:25Z</time></trkpt><trkpt lat="44.02820760653529" lon="11.981699135469844"><ele>170.0</ele><time>2026-04-05T15:19:26Z</time></trkpt><trkpt lat="44.02801351386334" lon="11.981471440983523"><ele>174.0</ele><time>2026-04-05T15:19:27Z</time></trkpt><trkpt lat="44.027832264799535" lon="11.981240878978275"><ele>174.0</ele><time>2026-04-05T15:19:28Z</time></trkpt><trkpt lat="44.0276782882093" lon="11.981014220069431"><ele>174.0</ele><time>2026-04-05T15:19:29Z</time></trkpt><trkpt lat="44.02756010787436" lon="11.98077852032365"><ele>174.0</ele><time>2026-04-05T15:19:30Z</time></trkpt><trkpt lat="44.02747419738873" lon="11.980544487435003"><ele>176.33333333333334</ele><time>2026-04-05T15:19:31Z</time></trkpt><trkpt lat="44.02740727833607" lon="11.98032691210364"><ele>178.66666666666669</ele><time>2026-04-05T15:19:32Z</time></trkpt><trkpt lat="44.027349257706355" lon="11.980128375234129"><ele>181.0</ele><time>2026-04-05T15:19:33Z</time></trkpt><trkpt lat="44.02728461963424" lon="11.979945717036905"><ele>181.0</ele><time>2026-04-05T15:19:34Z</time></trkpt><trkpt lat="44.027213019887704" lon="11.97977544558196"><ele>181.0</ele><time>2026-04-05T15:19:35Z</time></trkpt><trkpt lat="44.02712215997424" lon="11.979617225358378"><ele>181.0</ele><time>2026-04-05T15:19:36Z</time></trkpt><trkpt lat="44.02701531477674" lon="11.97947690066339"><ele>181.0</ele><time>2026-04-05T15:19:37Z</time></trkpt><trkpt lat="44.0269033095707" lon="11.979351075031477"><ele>181.0</ele><time>2026-04-05T15:19:38Z</time></trkpt><trkpt lat="44.02678931616072" lon="11.979226901138514"><ele>181.0</ele><time>2026-04-05T15:19:39Z</time></trkpt><trkpt lat="44.026679687520556" lon="11.97910086430071"><ele>181.0</ele><time>2026-04-05T15:19:40Z</time></trkpt><trkpt lat="44.026575334710834" lon="11.97896646911422"><ele>181.0</ele><time>2026-04-05T15:19:41Z</time></trkpt><trkpt lat="44.02647375478157" lon="11.978831789272045"><ele>181.0</ele><time>2026-04-05T15:19:42Z</time></trkpt><trkpt lat="44.02637217065008" lon="11.978691767709284"><ele>181.0</ele><time>2026-04-05T15:19:43Z</time></trkpt><trkpt lat="44.02628205394429" lon="11.978545981082718"><ele>181.0</ele><time>2026-04-05T15:19:44Z</time></trkpt><trkpt lat="44.0261966032233" lon="11.978378700090802"><ele>181.0</ele><time>2026-04-05T15:19:45Z</time></trkpt><trkpt lat="44.02611563126482" lon="11.978202792982229"><ele>181.0</ele><time>2026-04-05T15:19:46Z</time></trkpt><trkpt lat="44.02603548826924" lon="11.978022720853195"><ele>181.0</ele><time>2026-04-05T15:19:47Z</time></trkpt><trkpt lat="44.02594934689826" lon="11.977832748394269"><ele>181.0</ele><time>2026-04-05T15:19:48Z</time></trkpt><trkpt lat="44.02586098110921" lon="11.977639205201957"><ele>181.66666666666669</ele><time>2026-04-05T15:19:49Z</time></trkpt><trkpt lat="44.02576986195003" lon="11.977436276198926"><ele>182.33333333333334</ele><time>2026-04-05T15:19:50Z</time></trkpt><trkpt lat="44.0256776401152" lon="11.977238873240225"><ele>183.0</ele><time>2026-04-05T15:19:51Z</time></trkpt><trkpt lat="44.025580069696495" lon="11.977035737205023"><ele>183.0</ele><time>2026-04-05T15:19:52Z</time></trkpt><trkpt lat="44.02549138405029" lon="11.976829395113146"><ele>183.0</ele><time>2026-04-05T15:19:53Z</time></trkpt><trkpt lat="44.025390244698535" lon="11.976621989924553"><ele>183.0</ele><time>2026-04-05T15:19:54Z</time></trkpt><trkpt lat="44.02529841253622" lon="11.97642099617618"><ele>182.66666666666666</ele><time>2026-04-05T15:19:55Z</time></trkpt><trkpt lat="44.02520435043913" lon="11.976225340665561"><ele>182.33333333333331</ele><time>2026-04-05T15:19:56Z</time></trkpt><trkpt lat="44.02510823297323" lon="11.97603912366442"><ele>182.0</ele><time>2026-04-05T15:19:57Z</time></trkpt><trkpt lat="44.02499650383611" lon="11.975875643537437"><ele>185.0</ele><time>2026-04-05T15:19:58Z</time></trkpt><trkpt lat="44.0248675715061" lon="11.975743745100694"><ele>188.0</ele><time>2026-04-05T15:19:59Z</time></trkpt><trkpt lat="44.024737073623555" lon="11.975636970615392"><ele>191.0</ele><time>2026-04-05T15:20:00Z</time></trkpt><trkpt lat="44.02461115727791" lon="11.975531515468978"><ele>191.0</ele><time>2026-04-05T15:20:01Z</time></trkpt><trkpt lat="44.02448775269729" lon="11.975417524856573"><ele>191.0</ele><time>2026-04-05T15:20:02Z</time></trkpt><trkpt lat="44.02436515945619" lon="11.975303476900844"><ele>191.0</ele><time>2026-04-05T15:20:03Z</time></trkpt><trkpt lat="44.02424074308921" lon="11.975186348037207"><ele>191.0</ele><time>2026-04-05T15:20:04Z</time></trkpt><trkpt lat="44.02411368452807" lon="11.975067188470044"><ele>193.0</ele><time>2026-04-05T15:20:05Z</time></trkpt><trkpt lat="44.02398379708192" lon="11.97494715003102"><ele>195.0</ele><time>2026-04-05T15:20:06Z</time></trkpt><trkpt lat="44.02384813167021" lon="11.974824866816551"><ele>197.0</ele><time>2026-04-05T15:20:07Z</time></trkpt><trkpt lat="44.023711864503724" lon="11.974697905596681"><ele>197.0</ele><time>2026-04-05T15:20:08Z</time></trkpt><trkpt lat="44.023572212450595" lon="11.974566272200056"><ele>197.0</ele><time>2026-04-05T15:20:09Z</time></trkpt><trkpt lat="44.02342840768977" lon="11.974432997758134"><ele>197.0</ele><time>2026-04-05T15:20:10Z</time></trkpt><trkpt lat="44.023277777420276" lon="11.9742978036893"><ele>196.33333333333334</ele><time>2026-04-05T15:20:11Z</time></trkpt><trkpt lat="44.02312305595983" lon="11.974156453794961"><ele>195.66666666666669</ele><time>2026-04-05T15:20:12Z</time></trkpt><trkpt lat="44.0229486408725" lon="11.973996527946728"><ele>195.0</ele><time>2026-04-05T15:20:13Z</time></trkpt><trkpt lat="44.02277569901401" lon="11.973830432254255"><ele>195.0</ele><time>2026-04-05T15:20:14Z</time></trkpt><trkpt lat="44.02259404177767" lon="11.973657956444793"><ele>195.0</ele><time>2026-04-05T15:20:15Z</time></trkpt><trkpt lat="44.022386977580126" lon="11.973470438822808"><ele>193.5</ele><time>2026-04-05T15:20:16Z</time></trkpt><trkpt lat="44.02216483554511" lon="11.973255187233349"><ele>192.0</ele><time>2026-04-05T15:20:17Z</time></trkpt><trkpt lat="44.021925258889915" lon="11.973031022371602"><ele>192.0</ele><time>2026-04-05T15:20:18Z</time></trkpt><trkpt lat="44.02165595992166" lon="11.972791891585453"><ele>192.0</ele><time>2026-04-05T15:20:19Z</time></trkpt><trkpt lat="44.021380674654644" lon="11.97256278407919"><ele>191.5</ele><time>2026-04-05T15:20:20Z</time></trkpt><trkpt lat="44.021128843983504" lon="11.972303135557729"><ele>191.0</ele><time>2026-04-05T15:20:21Z</time></trkpt><trkpt lat="44.020839318023604" lon="11.972056589114215"><ele>191.5</ele><time>2026-04-05T15:20:22Z</time></trkpt><trkpt lat="44.02058878572111" lon="11.971803680913627"><ele>192.0</ele><time>2026-04-05T15:20:23Z</time></trkpt><trkpt lat="44.0203561000619" lon="11.971567065668449"><ele>192.0</ele><time>2026-04-05T15:20:24Z</time></trkpt><trkpt lat="44.02012506781384" lon="11.9713440417828"><ele>192.0</ele><time>2026-04-05T15:20:25Z</time></trkpt><trkpt lat="44.01988646191465" lon="11.971121287345882"><ele>193.0</ele><time>2026-04-05T15:20:26Z</time></trkpt><trkpt lat="44.01962103090249" lon="11.97089344131887"><ele>194.0</ele><time>2026-04-05T15:20:27Z</time></trkpt><trkpt lat="44.019481228596256" lon="11.970731154985142"><ele>194.0</ele><time>2026-04-05T15:20:28Z</time></trkpt><trkpt lat="44.019288038022935" lon="11.970551420322545"><ele>194.0</ele><time>2026-04-05T15:20:29Z</time></trkpt><trkpt lat="44.01910689410246" lon="11.970383224881042"><ele>196.0</ele><time>2026-04-05T15:20:30Z</time></trkpt><trkpt lat="44.01893371215634" lon="11.970225171077983"><ele>198.0</ele><time>2026-04-05T15:20:31Z</time></trkpt><trkpt lat="44.01877052182605" lon="11.970078052804043"><ele>200.0</ele><time>2026-04-05T15:20:32Z</time></trkpt><trkpt lat="44.01861379270886" lon="11.969942568636588"><ele>200.0</ele><time>2026-04-05T15:20:33Z</time></trkpt><trkpt lat="44.01846802477349" lon="11.969817219678617"><ele>200.0</ele><time>2026-04-05T15:20:34Z</time></trkpt><trkpt lat="44.018337442586024" lon="11.969702872963904"><ele>200.0</ele><time>2026-04-05T15:20:35Z</time></trkpt><trkpt lat="44.01820309865836" lon="11.969591273567803"><ele>200.0</ele><time>2026-04-05T15:20:36Z</time></trkpt><trkpt lat="44.01805167352727" lon="11.96947174569579"><ele>200.0</ele><time>2026-04-05T15:20:37Z</time></trkpt><trkpt lat="44.017912895847665" lon="11.969301482628547"><ele>200.0</ele><time>2026-04-05T15:20:38Z</time></trkpt><trkpt lat="44.01776872048164" lon="11.96915092210776"><ele>200.0</ele><time>2026-04-05T15:20:39Z</time></trkpt><trkpt lat="44.01765738977601" lon="11.968986334164688"><ele>200.0</ele><time>2026-04-05T15:20:40Z</time></trkpt><trkpt lat="44.017554413805556" lon="11.968827845806066"><ele>200.0</ele><time>2026-04-05T15:20:41Z</time></trkpt><trkpt lat="44.01745995956504" lon="11.96866240756886"><ele>199.5</ele><time>2026-04-05T15:20:42Z</time></trkpt><trkpt lat="44.01737027920009" lon="11.968492281435752"><ele>199.0</ele><time>2026-04-05T15:20:43Z</time></trkpt><trkpt lat="44.01729153845493" lon="11.96832041015236"><ele>198.5</ele><time>2026-04-05T15:20:44Z</time></trkpt><trkpt lat="44.01721718992593" lon="11.96814716818759"><ele>198.0</ele><time>2026-04-05T15:20:45Z</time></trkpt><trkpt lat="44.017146581289175" lon="11.967967277282186"><ele>198.0</ele><time>2026-04-05T15:20:46Z</time></trkpt><trkpt lat="44.01708775146978" lon="11.967778905188194"><ele>198.0</ele><time>2026-04-05T15:20:47Z</time></trkpt><trkpt lat="44.01702316414073" lon="11.967574076211537"><ele>198.0</ele><time>2026-04-05T15:20:48Z</time></trkpt><trkpt lat="44.01696006888061" lon="11.96735422375605"><ele>195.66666666666666</ele><time>2026-04-05T15:20:49Z</time></trkpt><trkpt lat="44.01689451143005" lon="11.967123387591375"><ele>193.33333333333331</ele><time>2026-04-05T15:20:50Z</time></trkpt><trkpt lat="44.016826328334496" lon="11.966873425634859"><ele>191.0</ele><time>2026-04-05T15:20:51Z</time></trkpt><trkpt lat="44.016758699882416" lon="11.966603042055272"><ele>190.66666666666666</ele><time>2026-04-05T15:20:52Z</time></trkpt><trkpt lat="44.016685260328245" lon="11.966326616750711"><ele>190.33333333333334</ele><time>2026-04-05T15:20:53Z</time></trkpt><trkpt lat="44.01659328562315" lon="11.966048303615809"><ele>190.0</ele><time>2026-04-05T15:20:54Z</time></trkpt><trkpt lat="44.01646822864444" lon="11.965777408792773"><ele>184.0</ele><time>2026-04-05T15:20:55Z</time></trkpt><trkpt lat="44.01631144786403" lon="11.965516533397556"><ele>178.0</ele><time>2026-04-05T15:20:56Z</time></trkpt><trkpt lat="44.01612580880482" lon="11.965276501970362"><ele>178.0</ele><time>2026-04-05T15:20:57Z</time></trkpt><trkpt lat="44.01591926234802" lon="11.965047931034034"><ele>178.0</ele><time>2026-04-05T15:20:58Z</time></trkpt><trkpt lat="44.01571561153317" lon="11.964821329513526"><ele>181.5</ele><time>2026-04-05T15:20:59Z</time></trkpt><trkpt lat="44.01552029878654" lon="11.964598355106329"><ele>185.0</ele><time>2026-04-05T15:21:00Z</time></trkpt><trkpt lat="44.01532482027585" lon="11.96437155222097"><ele>182.0</ele><time>2026-04-05T15:21:01Z</time></trkpt><trkpt lat="44.015137217244536" lon="11.964149222158776"><ele>179.0</ele><time>2026-04-05T15:21:02Z</time></trkpt><trkpt lat="44.01495266229942" lon="11.963929065774627"><ele>188.0</ele><time>2026-04-05T15:21:03Z</time></trkpt><trkpt lat="44.01476477742876" lon="11.963717260377802"><ele>197.0</ele><time>2026-04-05T15:21:04Z</time></trkpt><trkpt lat="44.01456955441694" lon="11.963505028327983"><ele>192.5</ele><time>2026-04-05T15:21:05Z</time></trkpt><trkpt lat="44.01438142776424" lon="11.963271005745627"><ele>188.0</ele><time>2026-04-05T15:21:06Z</time></trkpt><trkpt lat="44.01419312766557" lon="11.96302720040665"><ele>192.0</ele><time>2026-04-05T15:21:07Z</time></trkpt><trkpt lat="44.01401544693028" lon="11.962771049550618"><ele>196.0</ele><time>2026-04-05T15:21:08Z</time></trkpt><trkpt lat="44.01385034334617" lon="11.962497275067053"><ele>196.0</ele><time>2026-04-05T15:21:09Z</time></trkpt><trkpt lat="44.013700261678714" lon="11.962208226163693"><ele>196.0</ele><time>2026-04-05T15:21:10Z</time></trkpt><trkpt lat="44.01356466630045" lon="11.961906334482324"><ele>192.5</ele><time>2026-04-05T15:21:11Z</time></trkpt><trkpt lat="44.013435317148065" lon="11.96163017708533"><ele>189.0</ele><time>2026-04-05T15:21:12Z</time></trkpt><trkpt lat="44.0133073153537" lon="11.96138322646489"><ele>193.33333333333331</ele><time>2026-04-05T15:21:13Z</time></trkpt><trkpt lat="44.013194796547275" lon="11.9611299042802"><ele>197.66666666666666</ele><time>2026-04-05T15:21:14Z</time></trkpt><trkpt lat="44.013106635448494" lon="11.96083047821654"><ele>202.0</ele><time>2026-04-05T15:21:15Z</time></trkpt><trkpt lat="44.013047177560026" lon="11.960499668750167"><ele>202.0</ele><time>2026-04-05T15:21:16Z</time></trkpt><trkpt lat="44.01299980448006" lon="11.960147617482686"><ele>202.0</ele><time>2026-04-05T15:21:17Z</time></trkpt><trkpt lat="44.01296092685533" lon="11.959792238449248"><ele>197.5</ele><time>2026-04-05T15:21:18Z</time></trkpt><trkpt lat="44.012919076969816" lon="11.959444083416477"><ele>193.0</ele><time>2026-04-05T15:21:19Z</time></trkpt><trkpt lat="44.01286896688139" lon="11.959119932930369"><ele>191.33333333333331</ele><time>2026-04-05T15:21:20Z</time></trkpt><trkpt lat="44.01282386781019" lon="11.958808371477447"><ele>189.66666666666666</ele><time>2026-04-05T15:21:21Z</time></trkpt><trkpt lat="44.01277768548582" lon="11.958513947720377"><ele>188.0</ele><time>2026-04-05T15:21:22Z</time></trkpt><trkpt lat="44.012737934073634" lon="11.958230373898077"><ele>187.0</ele><time>2026-04-05T15:21:23Z</time></trkpt><trkpt lat="44.01269793706869" lon="11.957950393755754"><ele>186.0</ele><time>2026-04-05T15:21:24Z</time></trkpt><trkpt lat="44.012656229102994" lon="11.957666383757967"><ele>185.0</ele><time>2026-04-05T15:21:25Z</time></trkpt><trkpt lat="44.012617140871356" lon="11.957387083035487"><ele>184.66666666666666</ele><time>2026-04-05T15:21:26Z</time></trkpt><trkpt lat="44.012576744138094" lon="11.95710239925662"><ele>184.33333333333334</ele><time>2026-04-05T15:21:27Z</time></trkpt><trkpt lat="44.01253664772083" lon="11.956815109945449"><ele>184.0</ele><time>2026-04-05T15:21:28Z</time></trkpt><trkpt lat="44.01250240885343" lon="11.956523090951743"><ele>187.0</ele><time>2026-04-05T15:21:29Z</time></trkpt><trkpt lat="44.01246414380708" lon="11.956235918289238"><ele>190.0</ele><time>2026-04-05T15:21:30Z</time></trkpt><trkpt lat="44.01241820440475" lon="11.955949562092535"><ele>193.0</ele><time>2026-04-05T15:21:31Z</time></trkpt><trkpt lat="44.01236389892526" lon="11.955668304038458"><ele>193.0</ele><time>2026-04-05T15:21:32Z</time></trkpt><trkpt lat="44.01231450846522" lon="11.955382093845028"><ele>193.0</ele><time>2026-04-05T15:21:33Z</time></trkpt><trkpt lat="44.012263608761366" lon="11.955088827457983"><ele>193.0</ele><time>2026-04-05T15:21:34Z</time></trkpt><trkpt lat="44.012205212125494" lon="11.95479854920038"><ele>193.0</ele><time>2026-04-05T15:21:35Z</time></trkpt><trkpt lat="44.01214723735625" lon="11.954506270355505"><ele>193.0</ele><time>2026-04-05T15:21:36Z</time></trkpt><trkpt lat="44.01207411113911" lon="11.954215008630102"><ele>193.0</ele><time>2026-04-05T15:21:37Z</time></trkpt><trkpt lat="44.01198262862211" lon="11.953930266454126"><ele>191.5</ele><time>2026-04-05T15:21:38Z</time></trkpt><trkpt lat="44.01188382603591" lon="11.95364265166427"><ele>190.0</ele><time>2026-04-05T15:21:39Z</time></trkpt><trkpt lat="44.011785558375394" lon="11.953359710707842"><ele>188.0</ele><time>2026-04-05T15:21:40Z</time></trkpt><trkpt lat="44.01168643272738" lon="11.953074621148465"><ele>186.0</ele><time>2026-04-05T15:21:41Z</time></trkpt><trkpt lat="44.01158772060234" lon="11.95278792498505"><ele>191.5</ele><time>2026-04-05T15:21:42Z</time></trkpt><trkpt lat="44.01149085786689" lon="11.952497278955136"><ele>197.0</ele><time>2026-04-05T15:21:43Z</time></trkpt><trkpt lat="44.01139525315981" lon="11.952202153096016"><ele>197.0</ele><time>2026-04-05T15:21:44Z</time></trkpt><trkpt lat="44.01129847040014" lon="11.951911252432037"><ele>197.0</ele><time>2026-04-05T15:21:45Z</time></trkpt><trkpt lat="44.01120118057314" lon="11.95161547440367"><ele>195.5</ele><time>2026-04-05T15:21:46Z</time></trkpt><trkpt lat="44.011105357518055" lon="11.951321693202331"><ele>194.0</ele><time>2026-04-05T15:21:47Z</time></trkpt><trkpt lat="44.01100906445303" lon="11.951025716508209"><ele>193.0</ele><time>2026-04-05T15:21:48Z</time></trkpt><trkpt lat="44.01091023084949" lon="11.950736677672579"><ele>192.0</ele><time>2026-04-05T15:21:49Z</time></trkpt><trkpt lat="44.01081007469375" lon="11.950450628722798"><ele>196.0</ele><time>2026-04-05T15:21:50Z</time></trkpt><trkpt lat="44.01071880436048" lon="11.950169616469129"><ele>200.0</ele><time>2026-04-05T15:21:51Z</time></trkpt><trkpt lat="44.010629481245154" lon="11.94989257475068"><ele>204.0</ele><time>2026-04-05T15:21:52Z</time></trkpt><trkpt lat="44.0105409403008" lon="11.94961619560473"><ele>204.0</ele><time>2026-04-05T15:21:53Z</time></trkpt><trkpt lat="44.01045331236564" lon="11.949355176861308"><ele>204.0</ele><time>2026-04-05T15:21:54Z</time></trkpt><trkpt lat="44.01036903445185" lon="11.949109133681695"><ele>204.0</ele><time>2026-04-05T15:21:55Z</time></trkpt><trkpt lat="44.01028879769799" lon="11.948874725204245"><ele>203.0</ele><time>2026-04-05T15:21:56Z</time></trkpt><trkpt lat="44.01020551451267" lon="11.948652215556873"><ele>202.0</ele><time>2026-04-05T15:21:57Z</time></trkpt><trkpt lat="44.01010246502792" lon="11.948419287217796"><ele>201.0</ele><time>2026-04-05T15:21:58Z</time></trkpt><trkpt lat="44.00999192161434" lon="11.94819794107233"><ele>202.33333333333331</ele><time>2026-04-05T15:21:59Z</time></trkpt><trkpt lat="44.00988925987511" lon="11.94799457688999"><ele>203.66666666666666</ele><time>2026-04-05T15:22:00Z</time></trkpt><trkpt lat="44.00979593239217" lon="11.94780875118522"><ele>205.0</ele><time>2026-04-05T15:22:01Z</time></trkpt><trkpt lat="44.009709587686146" lon="11.947636318052943"><ele>203.5</ele><time>2026-04-05T15:22:02Z</time></trkpt><trkpt lat="44.00963088121987" lon="11.947476332735027"><ele>202.0</ele><time>2026-04-05T15:22:03Z</time></trkpt><trkpt lat="44.00955549428384" lon="11.947315403049284"><ele>200.5</ele><time>2026-04-05T15:22:04Z</time></trkpt><trkpt lat="44.00947996580352" lon="11.947156627182041"><ele>199.0</ele><time>2026-04-05T15:22:05Z</time></trkpt><trkpt lat="44.0093983217407" lon="11.946993191013876"><ele>199.0</ele><time>2026-04-05T15:22:06Z</time></trkpt><trkpt lat="44.00931665992496" lon="11.946827239413214"><ele>199.0</ele><time>2026-04-05T15:22:07Z</time></trkpt><trkpt lat="44.00923560821456" lon="11.946662296495447"><ele>199.0</ele><time>2026-04-05T15:22:08Z</time></trkpt><trkpt lat="44.00915737132111" lon="11.946506802437897"><ele>199.0</ele><time>2026-04-05T15:22:09Z</time></trkpt><trkpt lat="44.00907935848037" lon="11.946357539325698"><ele>200.25</ele><time>2026-04-05T15:22:10Z</time></trkpt><trkpt lat="44.00900352034274" lon="11.946202662542223"><ele>201.5</ele><time>2026-04-05T15:22:11Z</time></trkpt><trkpt lat="44.00892210206116" lon="11.946046142587589"><ele>202.75</ele><time>2026-04-05T15:22:12Z</time></trkpt><trkpt lat="44.00883520299599" lon="11.945892520530704"><ele>204.0</ele><time>2026-04-05T15:22:13Z</time></trkpt><trkpt lat="44.008738098590584" lon="11.945754462317932"><ele>204.0</ele><time>2026-04-05T15:22:14Z</time></trkpt><trkpt lat="44.00862607559434" lon="11.945645991815251"><ele>204.0</ele><time>2026-04-05T15:22:15Z</time></trkpt><trkpt lat="44.00851594489205" lon="11.945563373997608"><ele>204.0</ele><time>2026-04-05T15:22:16Z</time></trkpt><trkpt lat="44.00841000553971" lon="11.945493634554936"><ele>204.0</ele><time>2026-04-05T15:22:17Z</time></trkpt><trkpt lat="44.008309300858116" lon="11.94541281785805"><ele>207.5</ele><time>2026-04-05T15:22:18Z</time></trkpt><trkpt lat="44.00820716210961" lon="11.945335871984673"><ele>211.0</ele><time>2026-04-05T15:22:19Z</time></trkpt><trkpt lat="44.00810213563302" lon="11.945258831981468"><ele>214.5</ele><time>2026-04-05T15:22:20Z</time></trkpt><trkpt lat="44.00798187851877" lon="11.945175696576218"><ele>218.0</ele><time>2026-04-05T15:22:21Z</time></trkpt><trkpt lat="44.00785229250171" lon="11.945081115267026"><ele>218.0</ele><time>2026-04-05T15:22:22Z</time></trkpt><trkpt lat="44.00771458219656" lon="11.94498303630707"><ele>218.0</ele><time>2026-04-05T15:22:23Z</time></trkpt><trkpt lat="44.00757761852922" lon="11.94489037648882"><ele>218.0</ele><time>2026-04-05T15:22:24Z</time></trkpt><trkpt lat="44.00744351852732" lon="11.944799977981853"><ele>218.0</ele><time>2026-04-05T15:22:25Z</time></trkpt><trkpt lat="44.0073235131246" lon="11.944716837327668"><ele>218.0</ele><time>2026-04-05T15:22:26Z</time></trkpt><trkpt lat="44.00719967607736" lon="11.944632786939906"><ele>218.0</ele><time>2026-04-05T15:22:27Z</time></trkpt><trkpt lat="44.00708325631562" lon="11.944550871777182"><ele>218.0</ele><time>2026-04-05T15:22:28Z</time></trkpt><trkpt lat="44.006970906342175" lon="11.944470821733715"><ele>218.0</ele><time>2026-04-05T15:22:29Z</time></trkpt><trkpt lat="44.00686090189661" lon="11.94438188522756"><ele>218.0</ele><time>2026-04-05T15:22:30Z</time></trkpt><trkpt lat="44.00675519731461" lon="11.944275647014877"><ele>218.0</ele><time>2026-04-05T15:22:31Z</time></trkpt><trkpt lat="44.00666476228636" lon="11.944159197563131"><ele>218.0</ele><time>2026-04-05T15:22:32Z</time></trkpt><trkpt lat="44.00658998818434" lon="11.944034934246124"><ele>219.75</ele><time>2026-04-05T15:22:33Z</time></trkpt><trkpt lat="44.00652846432786" lon="11.943903041080507"><ele>221.5</ele><time>2026-04-05T15:22:34Z</time></trkpt><trkpt lat="44.00647180803234" lon="11.943759595722717"><ele>223.25</ele><time>2026-04-05T15:22:35Z</time></trkpt><trkpt lat="44.00643100672258" lon="11.943603399054558"><ele>225.0</ele><time>2026-04-05T15:22:36Z</time></trkpt><trkpt lat="44.00640332490479" lon="11.943431180534294"><ele>224.5</ele><time>2026-04-05T15:22:37Z</time></trkpt><trkpt lat="44.00639244351614" lon="11.943257061802747"><ele>224.0</ele><time>2026-04-05T15:22:38Z</time></trkpt><trkpt lat="44.006399839661505" lon="11.943082366024692"><ele>223.5</ele><time>2026-04-05T15:22:39Z</time></trkpt><trkpt lat="44.006420639587624" lon="11.94290579100989"><ele>223.0</ele><time>2026-04-05T15:22:40Z</time></trkpt><trkpt lat="44.0064458801728" lon="11.942725881537502"><ele>223.0</ele><time>2026-04-05T15:22:41Z</time></trkpt><trkpt lat="44.0064677865048" lon="11.942557848670235"><ele>223.0</ele><time>2026-04-05T15:22:42Z</time></trkpt><trkpt lat="44.006486028272924" lon="11.942389724668631"><ele>223.0</ele><time>2026-04-05T15:22:43Z</time></trkpt><trkpt lat="44.00651901290837" lon="11.942230285489176"><ele>223.0</ele><time>2026-04-05T15:22:44Z</time></trkpt><trkpt lat="44.006575327779004" lon="11.942078774416233"><ele>223.25</ele><time>2026-04-05T15:22:45Z</time></trkpt><trkpt lat="44.006641121603536" lon="11.941940408999969"><ele>223.5</ele><time>2026-04-05T15:22:46Z</time></trkpt><trkpt lat="44.00673238141785" lon="11.941826663799988"><ele>223.75</ele><time>2026-04-05T15:22:47Z</time></trkpt><trkpt lat="44.00681930365415" lon="11.941707043451697"><ele>224.0</ele><time>2026-04-05T15:22:48Z</time></trkpt><trkpt lat="44.006902013676914" lon="11.941575741947785"><ele>222.5</ele><time>2026-04-05T15:22:49Z</time></trkpt><trkpt lat="44.006990780637565" lon="11.941451815698688"><ele>221.0</ele><time>2026-04-05T15:22:50Z</time></trkpt><trkpt lat="44.0070798254635" lon="11.941327408297719"><ele>219.5</ele><time>2026-04-05T15:22:51Z</time></trkpt><trkpt lat="44.007163021636394" lon="11.941194653612929"><ele>218.0</ele><time>2026-04-05T15:22:52Z</time></trkpt><trkpt lat="44.007235807539466" lon="11.941054888709452"><ele>218.0</ele><time>2026-04-05T15:22:53Z</time></trkpt><trkpt lat="44.00728252710233" lon="11.940889523926401"><ele>218.0</ele><time>2026-04-05T15:22:54Z</time></trkpt><trkpt lat="44.00730931188489" lon="11.94071270847724"><ele>218.0</ele><time>2026-04-05T15:22:55Z</time></trkpt><trkpt lat="44.00730472872216" lon="11.940520746296396"><ele>218.0</ele><time>2026-04-05T15:22:56Z</time></trkpt><trkpt lat="44.00729656585808" lon="11.940319702116037"><ele>218.66666666666669</ele><time>2026-04-05T15:22:57Z</time></trkpt><trkpt lat="44.007281404742855" lon="11.940104467381488"><ele>219.33333333333331</ele><time>2026-04-05T15:22:58Z</time></trkpt><trkpt lat="44.007267320783264" lon="11.93988895759382"><ele>220.0</ele><time>2026-04-05T15:22:59Z</time></trkpt><trkpt lat="44.00725282321937" lon="11.93967448658428"><ele>219.66666666666666</ele><time>2026-04-05T15:23:00Z</time></trkpt><trkpt lat="44.00723191558712" lon="11.93945218493626"><ele>219.33333333333331</ele><time>2026-04-05T15:23:01Z</time></trkpt><trkpt lat="44.00721950387873" lon="11.939191710926362"><ele>219.0</ele><time>2026-04-05T15:23:02Z</time></trkpt><trkpt lat="44.00720676034606" lon="11.938939242242103"><ele>219.0</ele><time>2026-04-05T15:23:03Z</time></trkpt><trkpt lat="44.00719135361215" lon="11.938706612090106"><ele>219.0</ele><time>2026-04-05T15:23:04Z</time></trkpt><trkpt lat="44.00717947981822" lon="11.938482565535786"><ele>219.0</ele><time>2026-04-05T15:23:05Z</time></trkpt><trkpt lat="44.00716360080071" lon="11.938249281660985"><ele>219.0</ele><time>2026-04-05T15:23:06Z</time></trkpt><trkpt lat="44.007149783469664" lon="11.93801105156224"><ele>219.0</ele><time>2026-04-05T15:23:07Z</time></trkpt><trkpt lat="44.007139407514806" lon="11.937779664940715"><ele>219.0</ele><time>2026-04-05T15:23:08Z</time></trkpt><trkpt lat="44.00712238781489" lon="11.937550820793867"><ele>219.0</ele><time>2026-04-05T15:23:09Z</time></trkpt><trkpt lat="44.00710804023219" lon="11.937320173811887"><ele>219.0</ele><time>2026-04-05T15:23:10Z</time></trkpt><trkpt lat="44.0070949729309" lon="11.93708502833759"><ele>219.0</ele><time>2026-04-05T15:23:11Z</time></trkpt><trkpt lat="44.00708186236289" lon="11.936841079028355"><ele>219.0</ele><time>2026-04-05T15:23:12Z</time></trkpt><trkpt lat="44.00706820589686" lon="11.93658665219149"><ele>219.0</ele><time>2026-04-05T15:23:13Z</time></trkpt><trkpt lat="44.007050776161755" lon="11.93632530170939"><ele>219.0</ele><time>2026-04-05T15:23:14Z</time></trkpt><trkpt lat="44.007037673172064" lon="11.936068431101384"><ele>218.33333333333331</ele><time>2026-04-05T15:23:15Z</time></trkpt><trkpt lat="44.007018037266754" lon="11.935800865219083"><ele>217.66666666666666</ele><time>2026-04-05T15:23:16Z</time></trkpt><trkpt lat="44.00699805807667" lon="11.935549134230902"><ele>217.0</ele><time>2026-04-05T15:23:17Z</time></trkpt><trkpt lat="44.006981950845386" lon="11.935299505078827"><ele>217.0</ele><time>2026-04-05T15:23:18Z</time></trkpt><trkpt lat="44.00697057309596" lon="11.93505486024051"><ele>217.0</ele><time>2026-04-05T15:23:19Z</time></trkpt><trkpt lat="44.00695557609918" lon="11.934812053519073"><ele>217.0</ele><time>2026-04-05T15:23:20Z</time></trkpt><trkpt lat="44.00693909833207" lon="11.93456642856734"><ele>217.66666666666666</ele><time>2026-04-05T15:23:21Z</time></trkpt><trkpt lat="44.00690937915635" lon="11.934327831591892"><ele>218.33333333333331</ele><time>2026-04-05T15:23:22Z</time></trkpt><trkpt lat="44.00686671861824" lon="11.93408964454244"><ele>219.0</ele><time>2026-04-05T15:23:23Z</time></trkpt><trkpt lat="44.00680037653908" lon="11.93384310439217"><ele>219.0</ele><time>2026-04-05T15:23:24Z</time></trkpt><trkpt lat="44.00671279631151" lon="11.933582067076312"><ele>219.0</ele><time>2026-04-05T15:23:25Z</time></trkpt><trkpt lat="44.00659693154949" lon="11.9333038894699"><ele>219.0</ele><time>2026-04-05T15:23:26Z</time></trkpt><trkpt lat="44.006460331648654" lon="11.93301845009896"><ele>216.0</ele><time>2026-04-05T15:23:27Z</time></trkpt><trkpt lat="44.00633346852143" lon="11.932708976066857"><ele>213.0</ele><time>2026-04-05T15:23:28Z</time></trkpt><trkpt lat="44.00619126502587" lon="11.932378183739122"><ele>207.0</ele><time>2026-04-05T15:23:29Z</time></trkpt><trkpt lat="44.006036807660124" lon="11.932045027667133"><ele>201.0</ele><time>2026-04-05T15:23:30Z</time></trkpt><trkpt lat="44.00591816861318" lon="11.93174063924297"><ele>210.0</ele><time>2026-04-05T15:23:31Z</time></trkpt><trkpt lat="44.00578006530139" lon="11.931416046833323"><ele>219.0</ele><time>2026-04-05T15:23:32Z</time></trkpt><trkpt lat="44.0055905881859" lon="11.930955544577577"><ele>223.0</ele><time>2026-04-05T15:23:33Z</time></trkpt><trkpt lat="44.00544122337937" lon="11.930559654597586"><ele>227.0</ele><time>2026-04-05T15:23:34Z</time></trkpt><trkpt lat="44.00534581747426" lon="11.930228403014878"><ele>230.0</ele><time>2026-04-05T15:23:35Z</time></trkpt><trkpt lat="44.00527897961126" lon="11.929838665215971"><ele>233.0</ele><time>2026-04-05T15:23:36Z</time></trkpt><trkpt lat="44.005246448537235" lon="11.92943406087605"><ele>233.5</ele><time>2026-04-05T15:23:37Z</time></trkpt><trkpt lat="44.00524284920295" lon="11.929034580987588"><ele>234.0</ele><time>2026-04-05T15:23:38Z</time></trkpt><trkpt lat="44.005296039771856" lon="11.92866196120955"><ele>235.0</ele><time>2026-04-05T15:23:39Z</time></trkpt><trkpt lat="44.00534224476977" lon="11.928285664027213"><ele>236.0</ele><time>2026-04-05T15:23:40Z</time></trkpt><trkpt lat="44.00537920501456" lon="11.92793200005203"><ele>236.0</ele><time>2026-04-05T15:23:41Z</time></trkpt><trkpt lat="44.005398990593775" lon="11.927600231771809"><ele>236.0</ele><time>2026-04-05T15:23:42Z</time></trkpt><trkpt lat="44.00541161529845" lon="11.927285858811954"><ele>236.66666666666669</ele><time>2026-04-05T15:23:43Z</time></trkpt><trkpt lat="44.005388942409745" lon="11.926990039016468"><ele>237.33333333333331</ele><time>2026-04-05T15:23:44Z</time></trkpt><trkpt lat="44.00533990344479" lon="11.926696582952298"><ele>238.0</ele><time>2026-04-05T15:23:45Z</time></trkpt><trkpt lat="44.00527194566525" lon="11.926399114651728"><ele>238.0</ele><time>2026-04-05T15:23:46Z</time></trkpt><trkpt lat="44.00519817299428" lon="11.926097663081295"><ele>238.0</ele><time>2026-04-05T15:23:47Z</time></trkpt><trkpt lat="44.00512361203015" lon="11.925787039733969"><ele>237.5</ele><time>2026-04-05T15:23:48Z</time></trkpt><trkpt lat="44.00505250995747" lon="11.925462676667879"><ele>237.0</ele><time>2026-04-05T15:23:49Z</time></trkpt><trkpt lat="44.00497763408071" lon="11.925133817227685"><ele>238.5</ele><time>2026-04-05T15:23:50Z</time></trkpt><trkpt lat="44.0049021728847" lon="11.924810192623713"><ele>240.0</ele><time>2026-04-05T15:23:51Z</time></trkpt><trkpt lat="44.00482759785854" lon="11.92450156837623"><ele>239.0</ele><time>2026-04-05T15:23:52Z</time></trkpt><trkpt lat="44.00476058050512" lon="11.92419121664004"><ele>238.0</ele><time>2026-04-05T15:23:53Z</time></trkpt><trkpt lat="44.00469173184981" lon="11.923890182903877"><ele>238.0</ele><time>2026-04-05T15:23:54Z</time></trkpt><trkpt lat="44.00462804312319" lon="11.923614318907596"><ele>238.0</ele><time>2026-04-05T15:23:55Z</time></trkpt><trkpt lat="44.004568371163764" lon="11.923355049362558"><ele>238.0</ele><time>2026-04-05T15:23:56Z</time></trkpt><trkpt lat="44.00451310789036" lon="11.92309811563621"><ele>237.0</ele><time>2026-04-05T15:23:57Z</time></trkpt><trkpt lat="44.00442719571065" lon="11.922801231478912"><ele>236.0</ele><time>2026-04-05T15:23:58Z</time></trkpt><trkpt lat="44.00434228856869" lon="11.922496526530413"><ele>235.5</ele><time>2026-04-05T15:23:59Z</time></trkpt><trkpt lat="44.004238089358076" lon="11.922182322401023"><ele>235.0</ele><time>2026-04-05T15:24:00Z</time></trkpt><trkpt lat="44.00410887542803" lon="11.921867361401636"><ele>245.5</ele><time>2026-04-05T15:24:01Z</time></trkpt><trkpt lat="44.00396001446351" lon="11.921529137223933"><ele>256.0</ele><time>2026-04-05T15:24:02Z</time></trkpt><trkpt lat="44.003812876152345" lon="11.92116694123407"><ele>246.5</ele><time>2026-04-05T15:24:03Z</time></trkpt><trkpt lat="44.00366888611416" lon="11.920785706951987"><ele>237.0</ele><time>2026-04-05T15:24:04Z</time></trkpt><trkpt lat="44.00352653547504" lon="11.920388433774853"><ele>227.5</ele><time>2026-04-05T15:24:05Z</time></trkpt><trkpt lat="44.00338114764543" lon="11.91997264762571"><ele>218.0</ele><time>2026-04-05T15:24:06Z</time></trkpt><trkpt lat="44.00324154006753" lon="11.919553306919044"><ele>227.0</ele><time>2026-04-05T15:24:07Z</time></trkpt><trkpt lat="44.00311573233583" lon="11.919155285222406"><ele>236.0</ele><time>2026-04-05T15:24:08Z</time></trkpt><trkpt lat="44.002993205428126" lon="11.918779147744043"><ele>236.0</ele><time>2026-04-05T15:24:09Z</time></trkpt><trkpt lat="44.00287197205844" lon="11.918423854322567"><ele>236.0</ele><time>2026-04-05T15:24:10Z</time></trkpt><trkpt lat="44.00275489485082" lon="11.9180660323297"><ele>228.0</ele><time>2026-04-05T15:24:11Z</time></trkpt><trkpt lat="44.002647567920846" lon="11.917710277745979"><ele>220.0</ele><time>2026-04-05T15:24:12Z</time></trkpt><trkpt lat="44.00257071889521" lon="11.917390312656364"><ele>221.5</ele><time>2026-04-05T15:24:13Z</time></trkpt><trkpt lat="44.00249637515007" lon="11.917061790119114"><ele>223.0</ele><time>2026-04-05T15:24:14Z</time></trkpt><trkpt lat="44.002428565132135" lon="11.91674275573548"><ele>219.0</ele><time>2026-04-05T15:24:15Z</time></trkpt><trkpt lat="44.002355093784494" lon="11.916433692000098"><ele>215.0</ele><time>2026-04-05T15:24:16Z</time></trkpt><trkpt lat="44.00227280074364" lon="11.916140379217909"><ele>212.66666666666669</ele><time>2026-04-05T15:24:17Z</time></trkpt><trkpt lat="44.002172552210425" lon="11.915867075375356"><ele>210.33333333333331</ele><time>2026-04-05T15:24:18Z</time></trkpt><trkpt lat="44.00204896873334" lon="11.915601086789206"><ele>208.0</ele><time>2026-04-05T15:24:19Z</time></trkpt><trkpt lat="44.0019012751825" lon="11.915341471485847"><ele>208.0</ele><time>2026-04-05T15:24:20Z</time></trkpt><trkpt lat="44.00173281822068" lon="11.915108512840634"><ele>208.0</ele><time>2026-04-05T15:24:21Z</time></trkpt><trkpt lat="44.001549429178965" lon="11.914900362125428"><ele>204.0</ele><time>2026-04-05T15:24:22Z</time></trkpt><trkpt lat="44.00134192498228" lon="11.914704911375665"><ele>200.0</ele><time>2026-04-05T15:24:23Z</time></trkpt><trkpt lat="44.001122285630736" lon="11.914521507962636"><ele>200.0</ele><time>2026-04-05T15:24:24Z</time></trkpt><trkpt lat="44.00090684307003" lon="11.914337701758464"><ele>200.0</ele><time>2026-04-05T15:24:25Z</time></trkpt><trkpt lat="44.000710774654735" lon="11.914145682350302"><ele>204.0</ele><time>2026-04-05T15:24:26Z</time></trkpt><trkpt lat="44.0005276800962" lon="11.913982574994503"><ele>208.0</ele><time>2026-04-05T15:24:27Z</time></trkpt><trkpt lat="44.00031754403069" lon="11.913902921978186"><ele>212.0</ele><time>2026-04-05T15:24:28Z</time></trkpt><trkpt lat="44.00009001325841" lon="11.913870745530083"><ele>212.0</ele><time>2026-04-05T15:24:29Z</time></trkpt><trkpt lat="43.999859714299006" lon="11.913842820759806"><ele>212.0</ele><time>2026-04-05T15:24:30Z</time></trkpt><trkpt lat="43.999634335071306" lon="11.913793759408371"><ele>212.0</ele><time>2026-04-05T15:24:31Z</time></trkpt><trkpt lat="43.99941283268985" lon="11.913743760567709"><ele>212.0</ele><time>2026-04-05T15:24:32Z</time></trkpt><trkpt lat="43.99919727343665" lon="11.913697099588948"><ele>212.0</ele><time>2026-04-05T15:24:33Z</time></trkpt><trkpt lat="43.998976841783616" lon="11.91365004804608"><ele>213.66666666666669</ele><time>2026-04-05T15:24:34Z</time></trkpt><trkpt lat="43.99878976386666" lon="11.913601661069727"><ele>215.33333333333331</ele><time>2026-04-05T15:24:35Z</time></trkpt><trkpt lat="43.998622878125964" lon="11.9135643698821"><ele>217.0</ele><time>2026-04-05T15:24:36Z</time></trkpt><trkpt lat="43.998474674803425" lon="11.913528295311044"><ele>218.0</ele><time>2026-04-05T15:24:37Z</time></trkpt><trkpt lat="43.99832885793521" lon="11.9134939836847"><ele>219.0</ele><time>2026-04-05T15:24:38Z</time></trkpt><trkpt lat="43.99816734237805" lon="11.913458516015593"><ele>220.0</ele><time>2026-04-05T15:24:39Z</time></trkpt><trkpt lat="43.998006560184365" lon="11.913425299089837"><ele>221.33333333333331</ele><time>2026-04-05T15:24:40Z</time></trkpt><trkpt lat="43.99784454067894" lon="11.913386083835539"><ele>222.66666666666669</ele><time>2026-04-05T15:24:41Z</time></trkpt><trkpt lat="43.997683254977375" lon="11.913346794650327"><ele>224.0</ele><time>2026-04-05T15:24:42Z</time></trkpt><trkpt lat="43.997524216952115" lon="11.913311157044905"><ele>225.0</ele><time>2026-04-05T15:24:43Z</time></trkpt><trkpt lat="43.99736969473084" lon="11.91327582231954"><ele>226.0</ele><time>2026-04-05T15:24:44Z</time></trkpt><trkpt lat="43.997226317928195" lon="11.913249706791026"><ele>227.0</ele><time>2026-04-05T15:24:45Z</time></trkpt><trkpt lat="43.9970958743211" lon="11.913229162299048"><ele>228.0</ele><time>2026-04-05T15:24:46Z</time></trkpt><trkpt lat="43.996984888958075" lon="11.913200027182901"><ele>228.0</ele><time>2026-04-05T15:24:47Z</time></trkpt><trkpt lat="43.99687738227078" lon="11.913172813908824"><ele>228.0</ele><time>2026-04-05T15:24:48Z</time></trkpt><trkpt lat="43.9967704369706" lon="11.91314415042265"><ele>228.0</ele><time>2026-04-05T15:24:49Z</time></trkpt><trkpt lat="43.996677772891935" lon="11.913084078584045"><ele>228.0</ele><time>2026-04-05T15:24:50Z</time></trkpt><trkpt lat="43.99661387753974" lon="11.912963506341036"><ele>228.0</ele><time>2026-04-05T15:24:51Z</time></trkpt><trkpt lat="43.99657881258523" lon="11.912817112021528"><ele>228.0</ele><time>2026-04-05T15:24:52Z</time></trkpt><trkpt lat="43.99656726053468" lon="11.912667601676974"><ele>228.0</ele><time>2026-04-05T15:24:53Z</time></trkpt><trkpt lat="43.996571071638215" lon="11.91251663750345"><ele>228.0</ele><time>2026-04-05T15:24:54Z</time></trkpt><trkpt lat="43.99657825333122" lon="11.912374795295134"><ele>228.0</ele><time>2026-04-05T15:24:55Z</time></trkpt><trkpt lat="43.99660143126713" lon="11.912218753529737"><ele>228.0</ele><time>2026-04-05T15:24:56Z</time></trkpt><trkpt lat="43.9966216319977" lon="11.912062726511458"><ele>229.0</ele><time>2026-04-05T15:24:57Z</time></trkpt><trkpt lat="43.99663994974046" lon="11.911910900732888"><ele>230.0</ele><time>2026-04-05T15:24:58Z</time></trkpt><trkpt lat="43.99667010460491" lon="11.911761103156115"><ele>231.0</ele><time>2026-04-05T15:24:59Z</time></trkpt><trkpt lat="43.99669647359222" lon="11.911604266807666"><ele>232.0</ele><time>2026-04-05T15:25:00Z</time></trkpt><trkpt lat="43.9967116621856" lon="11.911447305096406"><ele>232.6</ele><time>2026-04-05T15:25:01Z</time></trkpt><trkpt lat="43.99671923058237" lon="11.911298649460491"><ele>233.2</ele><time>2026-04-05T15:25:02Z</time></trkpt><trkpt lat="43.996743210433046" lon="11.911164632352557"><ele>233.8</ele><time>2026-04-05T15:25:03Z</time></trkpt><trkpt lat="43.996763612380505" lon="11.911041926135976"><ele>234.4</ele><time>2026-04-05T15:25:04Z</time></trkpt><trkpt lat="43.99678242422012" lon="11.910906853827314"><ele>235.0</ele><time>2026-04-05T15:25:05Z</time></trkpt><trkpt lat="43.996800637604274" lon="11.910773814022933"><ele>235.0</ele><time>2026-04-05T15:25:06Z</time></trkpt><trkpt lat="43.99680168014714" lon="11.910636114175574"><ele>235.0</ele><time>2026-04-05T15:25:07Z</time></trkpt><trkpt lat="43.99677351180809" lon="11.910489231055989"><ele>235.0</ele><time>2026-04-05T15:25:08Z</time></trkpt><trkpt lat="43.996696461975134" lon="11.910372330568133"><ele>235.0</ele><time>2026-04-05T15:25:09Z</time></trkpt><trkpt lat="43.99659626391561" lon="11.910275157379603"><ele>235.0</ele><time>2026-04-05T15:25:10Z</time></trkpt><trkpt lat="43.99647707354618" lon="11.910185724974587"><ele>235.25</ele><time>2026-04-05T15:25:11Z</time></trkpt><trkpt lat="43.996353892894675" lon="11.910085567995361"><ele>235.5</ele><time>2026-04-05T15:25:12Z</time></trkpt><trkpt lat="43.99623120217872" lon="11.909987363008387"><ele>235.75</ele><time>2026-04-05T15:25:13Z</time></trkpt><trkpt lat="43.99610626178663" lon="11.909877236535106"><ele>236.0</ele><time>2026-04-05T15:25:14Z</time></trkpt><trkpt lat="43.995978292235144" lon="11.909768335754693"><ele>236.25</ele><time>2026-04-05T15:25:15Z</time></trkpt><trkpt lat="43.99585631680267" lon="11.90966203337866"><ele>236.5</ele><time>2026-04-05T15:25:16Z</time></trkpt><trkpt lat="43.99573898471903" lon="11.909548258332254"><ele>236.75</ele><time>2026-04-05T15:25:17Z</time></trkpt><trkpt lat="43.99561361703601" lon="11.909439822739017"><ele>237.0</ele><time>2026-04-05T15:25:18Z</time></trkpt><trkpt lat="43.99549181356481" lon="11.909335194014666"><ele>237.75</ele><time>2026-04-05T15:25:19Z</time></trkpt><trkpt lat="43.99537283203504" lon="11.909225823997296"><ele>238.5</ele><time>2026-04-05T15:25:20Z</time></trkpt><trkpt lat="43.99525672416226" lon="11.90911696314324"><ele>239.25</ele><time>2026-04-05T15:25:21Z</time></trkpt><trkpt lat="43.99513844228835" lon="11.909006272782879"><ele>240.0</ele><time>2026-04-05T15:25:22Z</time></trkpt><trkpt lat="43.99502009035441" lon="11.908900133793239"><ele>239.75</ele><time>2026-04-05T15:25:23Z</time></trkpt><trkpt lat="43.99490045406265" lon="11.908801094903717"><ele>239.5</ele><time>2026-04-05T15:25:24Z</time></trkpt><trkpt lat="43.99478481075289" lon="11.908695879508935"><ele>239.25</ele><time>2026-04-05T15:25:25Z</time></trkpt><trkpt lat="43.994666993124056" lon="11.908595756066578"><ele>239.0</ele><time>2026-04-05T15:25:26Z</time></trkpt><trkpt lat="43.9945445218528" lon="11.90850471948204"><ele>239.5</ele><time>2026-04-05T15:25:27Z</time></trkpt><trkpt lat="43.99442118517482" lon="11.908406531677203"><ele>240.0</ele><time>2026-04-05T15:25:28Z</time></trkpt><trkpt lat="43.99429721740114" lon="11.908325383189982"><ele>240.5</ele><time>2026-04-05T15:25:29Z</time></trkpt><trkpt lat="43.99417396370199" lon="11.908245256143353"><ele>241.0</ele><time>2026-04-05T15:25:30Z</time></trkpt><trkpt lat="43.99404919513413" lon="11.908180709938284"><ele>241.25</ele><time>2026-04-05T15:25:31Z</time></trkpt><trkpt lat="43.99392764294409" lon="11.908102855925627"><ele>241.5</ele><time>2026-04-05T15:25:32Z</time></trkpt><trkpt lat="43.99380739218364" lon="11.908036809092097"><ele>241.75</ele><time>2026-04-05T15:25:33Z</time></trkpt><trkpt lat="43.993685614955204" lon="11.907974437832674"><ele>242.0</ele><time>2026-04-05T15:25:34Z</time></trkpt><trkpt lat="43.99356217554165" lon="11.907916093480823"><ele>242.0</ele><time>2026-04-05T15:25:35Z</time></trkpt><trkpt lat="43.993439095057816" lon="11.907849764336188"><ele>242.0</ele><time>2026-04-05T15:25:36Z</time></trkpt><trkpt lat="43.99331578651205" lon="11.907789096853879"><ele>242.0</ele><time>2026-04-05T15:25:37Z</time></trkpt><trkpt lat="43.99318380800789" lon="11.907709787821"><ele>242.0</ele><time>2026-04-05T15:25:38Z</time></trkpt><trkpt lat="43.993042983497645" lon="11.907627984978905"><ele>244.66666666666669</ele><time>2026-04-05T15:25:39Z</time></trkpt><trkpt lat="43.99288975969911" lon="11.907547091825519"><ele>247.33333333333331</ele><time>2026-04-05T15:25:40Z</time></trkpt><trkpt lat="43.99272126798398" lon="11.907457248417629"><ele>250.0</ele><time>2026-04-05T15:25:41Z</time></trkpt><trkpt lat="43.99254135798733" lon="11.907365834658282"><ele>249.33333333333331</ele><time>2026-04-05T15:25:42Z</time></trkpt><trkpt lat="43.99235901468192" lon="11.907272317537098"><ele>248.66666666666669</ele><time>2026-04-05T15:25:43Z</time></trkpt><trkpt lat="43.99216085032642" lon="11.90717406055297"><ele>248.0</ele><time>2026-04-05T15:25:44Z</time></trkpt><trkpt lat="43.99196620138885" lon="11.907081479929632"><ele>248.0</ele><time>2026-04-05T15:25:45Z</time></trkpt><trkpt lat="43.99178114082227" lon="11.907008604944382"><ele>248.0</ele><time>2026-04-05T15:25:46Z</time></trkpt><trkpt lat="43.99160194005318" lon="11.906951046033942"><ele>248.0</ele><time>2026-04-05T15:25:47Z</time></trkpt><trkpt lat="43.991416347746885" lon="11.90691165254885"><ele>247.0</ele><time>2026-04-05T15:25:48Z</time></trkpt><trkpt lat="43.99122433598772" lon="11.906909646388584"><ele>246.0</ele><time>2026-04-05T15:25:49Z</time></trkpt><trkpt lat="43.9910223243946" lon="11.906924514371866"><ele>245.0</ele><time>2026-04-05T15:25:50Z</time></trkpt><trkpt lat="43.99081474458084" lon="11.906932640197988"><ele>247.0</ele><time>2026-04-05T15:25:51Z</time></trkpt><trkpt lat="43.9906104238859" lon="11.90692514542174"><ele>249.0</ele><time>2026-04-05T15:25:52Z</time></trkpt><trkpt lat="43.990401902291396" lon="11.906919094900623"><ele>251.0</ele><time>2026-04-05T15:25:53Z</time></trkpt><trkpt lat="43.99019451706729" lon="11.906915358899193"><ele>252.33333333333334</ele><time>2026-04-05T15:25:54Z</time></trkpt><trkpt lat="43.98998781199678" lon="11.90691064768322"><ele>253.66666666666669</ele><time>2026-04-05T15:25:55Z</time></trkpt><trkpt lat="43.98977011737145" lon="11.906911575173904"><ele>255.0</ele><time>2026-04-05T15:25:56Z</time></trkpt><trkpt lat="43.989544935802755" lon="11.906906486366909"><ele>255.0</ele><time>2026-04-05T15:25:57Z</time></trkpt><trkpt lat="43.98931402449186" lon="11.90688855851466"><ele>255.0</ele><time>2026-04-05T15:25:58Z</time></trkpt><trkpt lat="43.98908727396719" lon="11.906861432599301"><ele>254.33333333333331</ele><time>2026-04-05T15:25:59Z</time></trkpt><trkpt lat="43.9888688357561" lon="11.906831672875573"><ele>253.66666666666666</ele><time>2026-04-05T15:26:00Z</time></trkpt><trkpt lat="43.98866536829235" lon="11.906795254275906"><ele>253.0</ele><time>2026-04-05T15:26:01Z</time></trkpt><trkpt lat="43.9884762610445" lon="11.906759245894778"><ele>255.66666666666666</ele><time>2026-04-05T15:26:02Z</time></trkpt><trkpt lat="43.988297151438765" lon="11.906724265658958"><ele>258.3333333333333</ele><time>2026-04-05T15:26:03Z</time></trkpt><trkpt lat="43.988134222620566" lon="11.906695923310064"><ele>261.0</ele><time>2026-04-05T15:26:04Z</time></trkpt><trkpt lat="43.98797674614888" lon="11.906694157850623"><ele>261.0</ele><time>2026-04-05T15:26:05Z</time></trkpt><trkpt lat="43.987826652869984" lon="11.906717148913708"><ele>261.0</ele><time>2026-04-05T15:26:06Z</time></trkpt><trkpt lat="43.987677672678004" lon="11.906755594149434"><ele>261.0</ele><time>2026-04-05T15:26:07Z</time></trkpt><trkpt lat="43.987556412987075" lon="11.90681677948579"><ele>261.0</ele><time>2026-04-05T15:26:08Z</time></trkpt><trkpt lat="43.987428668591974" lon="11.906710720545385"><ele>261.0</ele><time>2026-04-05T15:26:09Z</time></trkpt><trkpt lat="43.987316961488595" lon="11.906711868292296"><ele>261.0</ele><time>2026-04-05T15:26:10Z</time></trkpt><trkpt lat="43.987206356010134" lon="11.906771669733292"><ele>261.0</ele><time>2026-04-05T15:26:11Z</time></trkpt><trkpt lat="43.98713448754686" lon="11.906904211502908"><ele>261.0</ele><time>2026-04-05T15:26:12Z</time></trkpt><trkpt lat="43.98696043890217" lon="11.906695182131203"><ele>261.0</ele><time>2026-04-05T15:26:13Z</time></trkpt><trkpt lat="43.98680919883648" lon="11.906609965494477"><ele>261.0</ele><time>2026-04-05T15:26:14Z</time></trkpt><trkpt lat="43.98664158814607" lon="11.906535400010386"><ele>261.0</ele><time>2026-04-05T15:26:15Z</time></trkpt><trkpt lat="43.98644892915774" lon="11.906502731607482"><ele>260.6666666666667</ele><time>2026-04-05T15:26:16Z</time></trkpt><trkpt lat="43.986235960397224" lon="11.906481800435477"><ele>260.33333333333337</ele><time>2026-04-05T15:26:17Z</time></trkpt><trkpt lat="43.98601178488633" lon="11.906456933922273"><ele>260.0</ele><time>2026-04-05T15:26:18Z</time></trkpt><trkpt lat="43.985773869183106" lon="11.906422534427513"><ele>261.0</ele><time>2026-04-05T15:26:19Z</time></trkpt><trkpt lat="43.98554054783502" lon="11.906390275706448"><ele>262.0</ele><time>2026-04-05T15:26:20Z</time></trkpt><trkpt lat="43.98532928246626" lon="11.906336482324999"><ele>263.0</ele><time>2026-04-05T15:26:21Z</time></trkpt><trkpt lat="43.98513163708158" lon="11.906295728353108"><ele>262.0</ele><time>2026-04-05T15:26:22Z</time></trkpt><trkpt lat="43.9847419795629" lon="11.906229430668013"><ele>261.0</ele><time>2026-04-05T15:26:23Z</time></trkpt><trkpt lat="43.98449402121324" lon="11.906180373978593"><ele>261.0</ele><time>2026-04-05T15:26:24Z</time></trkpt><trkpt lat="43.98425825570537" lon="11.906119119833638"><ele>261.0</ele><time>2026-04-05T15:26:25Z</time></trkpt><trkpt lat="43.98400603394407" lon="11.906071377771271"><ele>260.6666666666667</ele><time>2026-04-05T15:26:26Z</time></trkpt><trkpt lat="43.98385629040323" lon="11.906009040786566"><ele>260.33333333333337</ele><time>2026-04-05T15:26:27Z</time></trkpt><trkpt lat="43.98372301474712" lon="11.905936589351686"><ele>260.0</ele><time>2026-04-05T15:26:28Z</time></trkpt><trkpt lat="43.983568487610874" lon="11.905795776974902"><ele>260.0</ele><time>2026-04-05T15:26:29Z</time></trkpt><trkpt lat="43.983403240727874" lon="11.905613931062081"><ele>260.0</ele><time>2026-04-05T15:26:30Z</time></trkpt><trkpt lat="43.98323908036321" lon="11.905392797437363"><ele>260.0</ele><time>2026-04-05T15:26:31Z</time></trkpt><trkpt lat="43.98306881445064" lon="11.905151283318922"><ele>281.5</ele><time>2026-04-05T15:26:32Z</time></trkpt><trkpt lat="43.98286083982529" lon="11.904896874177991"><ele>303.0</ele><time>2026-04-05T15:26:33Z</time></trkpt><trkpt lat="43.982616352993254" lon="11.90469143605165"><ele>286.0</ele><time>2026-04-05T15:26:34Z</time></trkpt><trkpt lat="43.98238000697318" lon="11.904531708512547"><ele>269.0</ele><time>2026-04-05T15:26:35Z</time></trkpt><trkpt lat="43.98213521279502" lon="11.904381994744355"><ele>292.0</ele><time>2026-04-05T15:26:36Z</time></trkpt><trkpt lat="43.98191891605205" lon="11.904215405360427"><ele>315.0</ele><time>2026-04-05T15:26:37Z</time></trkpt><trkpt lat="43.98170367648557" lon="11.90405882577924"><ele>303.0</ele><time>2026-04-05T15:26:38Z</time></trkpt><trkpt lat="43.981506932850216" lon="11.903947798698779"><ele>291.0</ele><time>2026-04-05T15:26:39Z</time></trkpt><trkpt lat="43.98129701572361" lon="11.903868682429941"><ele>279.0</ele><time>2026-04-05T15:26:40Z</time></trkpt><trkpt lat="43.98110076498622" lon="11.903817182716422"><ele>279.0</ele><time>2026-04-05T15:26:41Z</time></trkpt><trkpt lat="43.980920543996646" lon="11.90378112364535"><ele>279.0</ele><time>2026-04-05T15:26:42Z</time></trkpt><trkpt lat="43.98075547936351" lon="11.90381064778575"><ele>279.0</ele><time>2026-04-05T15:26:43Z</time></trkpt><trkpt lat="43.98059354550193" lon="11.903917557842004"><ele>278.0</ele><time>2026-04-05T15:26:44Z</time></trkpt><trkpt lat="43.980449533858874" lon="11.904064228930734"><ele>277.0</ele><time>2026-04-05T15:26:45Z</time></trkpt><trkpt lat="43.980317345713225" lon="11.904203162240234"><ele>276.0</ele><time>2026-04-05T15:26:46Z</time></trkpt><trkpt lat="43.98017946884943" lon="11.904288010119869"><ele>269.3333333333333</ele><time>2026-04-05T15:26:47Z</time></trkpt><trkpt lat="43.980020512037925" lon="11.904299208504348"><ele>262.66666666666663</ele><time>2026-04-05T15:26:48Z</time></trkpt><trkpt lat="43.979857832235766" lon="11.904307062197413"><ele>256.0</ele><time>2026-04-05T15:26:49Z</time></trkpt><trkpt lat="43.97969628990912" lon="11.904283818917827"><ele>256.0</ele><time>2026-04-05T15:26:50Z</time></trkpt><trkpt lat="43.979538400189675" lon="11.904253316590925"><ele>256.0</ele><time>2026-04-05T15:26:51Z</time></trkpt><trkpt lat="43.979377407728514" lon="11.904219529739887"><ele>256.0</ele><time>2026-04-05T15:26:52Z</time></trkpt><trkpt lat="43.979218859391544" lon="11.904156674007371"><ele>261.66666666666663</ele><time>2026-04-05T15:26:53Z</time></trkpt><trkpt lat="43.97906455371412" lon="11.904054028661843"><ele>267.3333333333333</ele><time>2026-04-05T15:26:54Z</time></trkpt><trkpt lat="43.97891542852725" lon="11.903946434580345"><ele>273.0</ele><time>2026-04-05T15:26:55Z</time></trkpt><trkpt lat="43.97876875435627" lon="11.903850159052178"><ele>273.0</ele><time>2026-04-05T15:26:56Z</time></trkpt><trkpt lat="43.97861695918603" lon="11.903758151882782"><ele>273.0</ele><time>2026-04-05T15:26:57Z</time></trkpt><trkpt lat="43.978462046981846" lon="11.90367487457875"><ele>273.0</ele><time>2026-04-05T15:26:58Z</time></trkpt><trkpt lat="43.978290961077604" lon="11.903664865445075"><ele>271.3333333333333</ele><time>2026-04-05T15:26:59Z</time></trkpt><trkpt lat="43.97811218462562" lon="11.903714279113526"><ele>269.66666666666663</ele><time>2026-04-05T15:27:00Z</time></trkpt><trkpt lat="43.97792965342333" lon="11.903762542787861"><ele>268.0</ele><time>2026-04-05T15:27:01Z</time></trkpt><trkpt lat="43.97775444368942" lon="11.903810062912797"><ele>268.0</ele><time>2026-04-05T15:27:02Z</time></trkpt><trkpt lat="43.97758057463576" lon="11.903860460677874"><ele>268.0</ele><time>2026-04-05T15:27:03Z</time></trkpt><trkpt lat="43.97740322511541" lon="11.903910672628783"><ele>268.0</ele><time>2026-04-05T15:27:04Z</time></trkpt><trkpt lat="43.97722233244792" lon="11.903965242587933"><ele>268.0</ele><time>2026-04-05T15:27:05Z</time></trkpt><trkpt lat="43.97702180406603" lon="11.904036865901"><ele>268.0</ele><time>2026-04-05T15:27:06Z</time></trkpt><trkpt lat="43.97680955479534" lon="11.904100935607863"><ele>268.0</ele><time>2026-04-05T15:27:07Z</time></trkpt><trkpt lat="43.976584481572004" lon="11.904154704684327"><ele>268.0</ele><time>2026-04-05T15:27:08Z</time></trkpt><trkpt lat="43.97635185443507" lon="11.90420405900111"><ele>268.0</ele><time>2026-04-05T15:27:09Z</time></trkpt><trkpt lat="43.97613066616485" lon="11.904264700066259"><ele>265.66666666666663</ele><time>2026-04-05T15:27:10Z</time></trkpt><trkpt lat="43.97593642863681" lon="11.904356641163007"><ele>263.3333333333333</ele><time>2026-04-05T15:27:11Z</time></trkpt><trkpt lat="43.97574992059711" lon="11.904433642426993"><ele>261.0</ele><time>2026-04-05T15:27:12Z</time></trkpt><trkpt lat="43.975581456403695" lon="11.904518477741647"><ele>261.0</ele><time>2026-04-05T15:27:13Z</time></trkpt><trkpt lat="43.97511924303004" lon="11.904537282518541"><ele>262.0</ele><time>2026-04-05T15:27:14Z</time></trkpt><trkpt lat="43.974872975610836" lon="11.904615574184792"><ele>263.0</ele><time>2026-04-05T15:27:15Z</time></trkpt><trkpt lat="43.97462576469942" lon="11.904716577490671"><ele>263.0</ele><time>2026-04-05T15:27:16Z</time></trkpt><trkpt lat="43.97437697600974" lon="11.904856996088979"><ele>263.0</ele><time>2026-04-05T15:27:17Z</time></trkpt><trkpt lat="43.974123532671925" lon="11.905016113374478"><ele>258.0</ele><time>2026-04-05T15:27:18Z</time></trkpt><trkpt lat="43.973862752398446" lon="11.905185641747991"><ele>253.0</ele><time>2026-04-05T15:27:19Z</time></trkpt><trkpt lat="43.97359261542667" lon="11.90535385721851"><ele>254.5</ele><time>2026-04-05T15:27:20Z</time></trkpt><trkpt lat="43.97334136264541" lon="11.905510008638846"><ele>256.0</ele><time>2026-04-05T15:27:21Z</time></trkpt><trkpt lat="43.973109448281484" lon="11.905668003418901"><ele>256.0</ele><time>2026-04-05T15:27:22Z</time></trkpt><trkpt lat="43.97289476333361" lon="11.905853640841414"><ele>256.0</ele><time>2026-04-05T15:27:23Z</time></trkpt><trkpt lat="43.97269089829638" lon="11.906078087978965"><ele>256.0</ele><time>2026-04-05T15:27:24Z</time></trkpt><trkpt lat="43.972504568941744" lon="11.90629425361752"><ele>256.0</ele><time>2026-04-05T15:27:25Z</time></trkpt><trkpt lat="43.972324834092845" lon="11.906486108408783"><ele>256.0</ele><time>2026-04-05T15:27:26Z</time></trkpt><trkpt lat="43.97215113853928" lon="11.906661772580435"><ele>256.0</ele><time>2026-04-05T15:27:27Z</time></trkpt><trkpt lat="43.97198840706562" lon="11.906831894258305"><ele>256.0</ele><time>2026-04-05T15:27:28Z</time></trkpt><trkpt lat="43.971826253355346" lon="11.906977317515215"><ele>253.66666666666666</ele><time>2026-04-05T15:27:29Z</time></trkpt><trkpt lat="43.971652038576714" lon="11.907068016595986"><ele>251.33333333333331</ele><time>2026-04-05T15:27:30Z</time></trkpt><trkpt lat="43.97145769943256" lon="11.90710936818059"><ele>249.0</ele><time>2026-04-05T15:27:31Z</time></trkpt><trkpt lat="43.97125452474321" lon="11.907112750017205"><ele>249.0</ele><time>2026-04-05T15:27:32Z</time></trkpt><trkpt lat="43.97106539859568" lon="11.907087991240376"><ele>249.0</ele><time>2026-04-05T15:27:33Z</time></trkpt><trkpt lat="43.970891505698035" lon="11.907073983030541"><ele>249.0</ele><time>2026-04-05T15:27:34Z</time></trkpt><trkpt lat="43.97073584006158" lon="11.907064375337722"><ele>250.25</ele><time>2026-04-05T15:27:35Z</time></trkpt><trkpt lat="43.97059734231921" lon="11.907066143149443"><ele>251.5</ele><time>2026-04-05T15:27:36Z</time></trkpt><trkpt lat="43.97046088739237" lon="11.907112720968202"><ele>252.75</ele><time>2026-04-05T15:27:37Z</time></trkpt><trkpt lat="43.97032189504719" lon="11.907175210342647"><ele>254.0</ele><time>2026-04-05T15:27:38Z</time></trkpt><trkpt lat="43.97018233237077" lon="11.907238213213228"><ele>254.0</ele><time>2026-04-05T15:27:39Z</time></trkpt><trkpt lat="43.97004303585621" lon="11.907293926533512"><ele>254.0</ele><time>2026-04-05T15:27:40Z</time></trkpt><trkpt lat="43.96991401539388" lon="11.907358271553163"><ele>254.0</ele><time>2026-04-05T15:27:41Z</time></trkpt><trkpt lat="43.96978988260052" lon="11.907447594646552"><ele>254.0</ele><time>2026-04-05T15:27:42Z</time></trkpt><trkpt lat="43.9696699436289" lon="11.907551397380296"><ele>252.0</ele><time>2026-04-05T15:27:43Z</time></trkpt><trkpt lat="43.96953609462242" lon="11.90763786909279"><ele>250.0</ele><time>2026-04-05T15:27:44Z</time></trkpt><trkpt lat="43.96938895916588" lon="11.907705960869984"><ele>248.0</ele><time>2026-04-05T15:27:45Z</time></trkpt><trkpt lat="43.9692362584756" lon="11.907763229697276"><ele>251.66666666666669</ele><time>2026-04-05T15:27:46Z</time></trkpt><trkpt lat="43.96908466638182" lon="11.907823767563627"><ele>255.33333333333331</ele><time>2026-04-05T15:27:47Z</time></trkpt><trkpt lat="43.96893535428574" lon="11.907876775789985"><ele>259.0</ele><time>2026-04-05T15:27:48Z</time></trkpt><trkpt lat="43.96879548961092" lon="11.907934049549599"><ele>259.0</ele><time>2026-04-05T15:27:49Z</time></trkpt><trkpt lat="43.96866262362097" lon="11.907994027651576"><ele>259.0</ele><time>2026-04-05T15:27:50Z</time></trkpt><trkpt lat="43.968530402335034" lon="11.908053630442412"><ele>259.0</ele><time>2026-04-05T15:27:51Z</time></trkpt><trkpt lat="43.968386815704896" lon="11.908104782901658"><ele>259.0</ele><time>2026-04-05T15:27:52Z</time></trkpt><trkpt lat="43.9682558023808" lon="11.908125406678241"><ele>260.75</ele><time>2026-04-05T15:27:53Z</time></trkpt><trkpt lat="43.96811285512604" lon="11.908115823052963"><ele>262.5</ele><time>2026-04-05T15:27:54Z</time></trkpt><trkpt lat="43.96797332041864" lon="11.908110492822713"><ele>264.25</ele><time>2026-04-05T15:27:55Z</time></trkpt><trkpt lat="43.967833525611134" lon="11.908130337941518"><ele>266.0</ele><time>2026-04-05T15:27:56Z</time></trkpt><trkpt lat="43.967668247552865" lon="11.908225055290695"><ele>267.0</ele><time>2026-04-05T15:27:57Z</time></trkpt><trkpt lat="43.96749072268818" lon="11.908377910607033"><ele>268.0</ele><time>2026-04-05T15:27:58Z</time></trkpt><trkpt lat="43.96730364426766" lon="11.908537468702768"><ele>269.0</ele><time>2026-04-05T15:27:59Z</time></trkpt><trkpt lat="43.96710188151608" lon="11.908702127317074"><ele>269.0</ele><time>2026-04-05T15:28:00Z</time></trkpt><trkpt lat="43.96689683651089" lon="11.90887717889068"><ele>269.0</ele><time>2026-04-05T15:28:01Z</time></trkpt><trkpt lat="43.966682219702655" lon="11.90906747720848"><ele>269.0</ele><time>2026-04-05T15:28:02Z</time></trkpt><trkpt lat="43.96648405707952" lon="11.90922723566661"><ele>269.0</ele><time>2026-04-05T15:28:03Z</time></trkpt><trkpt lat="43.96632426577458" lon="11.909353962464685"><ele>269.0</ele><time>2026-04-05T15:28:04Z</time></trkpt><trkpt lat="43.96615912273061" lon="11.909431936410119"><ele>265.6666666666667</ele><time>2026-04-05T15:28:05Z</time></trkpt><trkpt lat="43.96597020997746" lon="11.9094105500906"><ele>262.3333333333333</ele><time>2026-04-05T15:28:06Z</time></trkpt><trkpt lat="43.96576669413051" lon="11.909370772311455"><ele>259.0</ele><time>2026-04-05T15:28:07Z</time></trkpt><trkpt lat="43.96555197781569" lon="11.909296911087774"><ele>264.0</ele><time>2026-04-05T15:28:07.999Z</time></trkpt><trkpt lat="43.965322025144275" lon="11.909233208162565"><ele>269.0</ele><time>2026-04-05T15:28:08.999Z</time></trkpt><trkpt lat="43.965089843695885" lon="11.909170583545436"><ele>264.5</ele><time>2026-04-05T15:28:09.999Z</time></trkpt><trkpt lat="43.96485113480721" lon="11.909099753582476"><ele>260.0</ele><time>2026-04-05T15:28:10.999Z</time></trkpt><trkpt lat="43.9646014809968" lon="11.909013323957938"><ele>260.0</ele><time>2026-04-05T15:28:11.999Z</time></trkpt><trkpt lat="43.96432629908404" lon="11.908953307584289"><ele>260.0</ele><time>2026-04-05T15:28:12.999Z</time></trkpt><trkpt lat="43.964093807971196" lon="11.908933734755959"><ele>259.33333333333337</ele><time>2026-04-05T15:28:13.999Z</time></trkpt><trkpt lat="43.96398131812145" lon="11.909005722814245"><ele>258.6666666666667</ele><time>2026-04-05T15:28:14.999Z</time></trkpt><trkpt lat="43.963764725471655" lon="11.909025748165579"><ele>258.0</ele><time>2026-04-05T15:28:15.999Z</time></trkpt><trkpt lat="43.96354510592362" lon="11.908985008483672"><ele>258.6666666666667</ele><time>2026-04-05T15:28:16.999Z</time></trkpt><trkpt lat="43.96332707616699" lon="11.908901396495942"><ele>259.33333333333337</ele><time>2026-04-05T15:28:17.999Z</time></trkpt><trkpt lat="43.96311913642424" lon="11.908797962744256"><ele>260.0</ele><time>2026-04-05T15:28:18.999Z</time></trkpt><trkpt lat="43.96291721165728" lon="11.908711326974652"><ele>260.0</ele><time>2026-04-05T15:28:19.999Z</time></trkpt><trkpt lat="43.9627092232406" lon="11.908680090018109"><ele>260.0</ele><time>2026-04-05T15:28:20.999Z</time></trkpt><trkpt lat="43.96248879022323" lon="11.908744038349049"><ele>260.0</ele><time>2026-04-05T15:28:21.999Z</time></trkpt><trkpt lat="43.96225892119625" lon="11.908868029796857"><ele>262.5</ele><time>2026-04-05T15:28:22.999Z</time></trkpt><trkpt lat="43.96203072973939" lon="11.909026152966671"><ele>265.0</ele><time>2026-04-05T15:28:23.999Z</time></trkpt><trkpt lat="43.96180634581873" lon="11.909240699641689"><ele>262.5</ele><time>2026-04-05T15:28:24.999Z</time></trkpt><trkpt lat="43.9615827560599" lon="11.909509888765992"><ele>260.0</ele><time>2026-04-05T15:28:25.999Z</time></trkpt><trkpt lat="43.961350042068794" lon="11.909819119660485"><ele>256.0</ele><time>2026-04-05T15:28:27Z</time></trkpt><trkpt lat="43.96111204286863" lon="11.910161871463066"><ele>252.0</ele><time>2026-04-05T15:28:28Z</time></trkpt><trkpt lat="43.96086605252131" lon="11.910506911114984"><ele>252.5</ele><time>2026-04-05T15:28:29Z</time></trkpt><trkpt lat="43.960639115651865" lon="11.910791942807357"><ele>253.0</ele><time>2026-04-05T15:28:30Z</time></trkpt><trkpt lat="43.960440985686205" lon="11.911025273702062"><ele>253.0</ele><time>2026-04-05T15:28:31Z</time></trkpt><trkpt lat="43.96027148255106" lon="11.911234950883733"><ele>253.0</ele><time>2026-04-05T15:28:32Z</time></trkpt><trkpt lat="43.96010616307385" lon="11.91139932600621"><ele>253.0</ele><time>2026-04-05T15:28:33Z</time></trkpt><trkpt lat="43.95993228155019" lon="11.91150556867868"><ele>254.66666666666666</ele><time>2026-04-05T15:28:34Z</time></trkpt><trkpt lat="43.95974023399815" lon="11.91154079620789"><ele>256.3333333333333</ele><time>2026-04-05T15:28:35Z</time></trkpt><trkpt lat="43.95953664602499" lon="11.911520731465682"><ele>258.0</ele><time>2026-04-05T15:28:36Z</time></trkpt><trkpt lat="43.95933191253849" lon="11.911417512215108"><ele>259.0</ele><time>2026-04-05T15:28:37Z</time></trkpt><trkpt lat="43.95914792956889" lon="11.911361033589943"><ele>260.0</ele><time>2026-04-05T15:28:38Z</time></trkpt><trkpt lat="43.95897480439122" lon="11.911349530056606"><ele>261.0</ele><time>2026-04-05T15:28:39Z</time></trkpt><trkpt lat="43.95881937758507" lon="11.911350856332724"><ele>261.0</ele><time>2026-04-05T15:28:40Z</time></trkpt><trkpt lat="43.95867431913747" lon="11.91136105939383"><ele>261.0</ele><time>2026-04-05T15:28:41Z</time></trkpt><trkpt lat="43.9585455877628" lon="11.911380431623549"><ele>261.0</ele><time>2026-04-05T15:28:42Z</time></trkpt><trkpt lat="43.95842196860022" lon="11.91142118516278"><ele>261.0</ele><time>2026-04-05T15:28:43Z</time></trkpt><trkpt lat="43.9583008687206" lon="11.911478976830033"><ele>262.25</ele><time>2026-04-05T15:28:44Z</time></trkpt><trkpt lat="43.958179521651424" lon="11.9115492440197"><ele>263.5</ele><time>2026-04-05T15:28:45Z</time></trkpt><trkpt lat="43.95805375215094" lon="11.911605278020144"><ele>264.75</ele><time>2026-04-05T15:28:46Z</time></trkpt><trkpt lat="43.95791809157919" lon="11.911631031487289"><ele>266.0</ele><time>2026-04-05T15:28:47Z</time></trkpt><trkpt lat="43.957779567349114" lon="11.91164662468191"><ele>266.0</ele><time>2026-04-05T15:28:48Z</time></trkpt><trkpt lat="43.957640733409015" lon="11.911651071548652"><ele>266.0</ele><time>2026-04-05T15:28:49Z</time></trkpt><trkpt lat="43.957496424420015" lon="11.911646238810697"><ele>266.0</ele><time>2026-04-05T15:28:50Z</time></trkpt><trkpt lat="43.95734880355909" lon="11.911621382326652"><ele>266.0</ele><time>2026-04-05T15:28:51Z</time></trkpt><trkpt lat="43.957208855561355" lon="11.911587190183917"><ele>266.33333333333337</ele><time>2026-04-05T15:28:52Z</time></trkpt><trkpt lat="43.95705934983996" lon="11.911543747284579"><ele>266.6666666666667</ele><time>2026-04-05T15:28:53Z</time></trkpt><trkpt lat="43.95690746109011" lon="11.911504444690067"><ele>267.0</ele><time>2026-04-05T15:28:54Z</time></trkpt><trkpt lat="43.956751998708924" lon="11.91146903532342"><ele>266.6666666666667</ele><time>2026-04-05T15:28:55Z</time></trkpt><trkpt lat="43.956592371836855" lon="11.911426409227616"><ele>266.33333333333337</ele><time>2026-04-05T15:28:56Z</time></trkpt><trkpt lat="43.95645290388444" lon="11.911388875883645"><ele>266.0</ele><time>2026-04-05T15:28:57Z</time></trkpt><trkpt lat="43.95629091878727" lon="11.911353132090014"><ele>266.0</ele><time>2026-04-05T15:28:58Z</time></trkpt><trkpt lat="43.95614077571175" lon="11.911316233068906"><ele>266.0</ele><time>2026-04-05T15:28:59Z</time></trkpt><trkpt lat="43.9559858238125" lon="11.911279326680841"><ele>266.0</ele><time>2026-04-05T15:29:00Z</time></trkpt><trkpt lat="43.955823710075144" lon="11.911236274210369"><ele>265.6666666666667</ele><time>2026-04-05T15:29:01Z</time></trkpt><trkpt lat="43.955652542781706" lon="11.91119280931981"><ele>265.3333333333333</ele><time>2026-04-05T15:29:02Z</time></trkpt><trkpt lat="43.95547421131859" lon="11.911146709290676"><ele>265.0</ele><time>2026-04-05T15:29:03Z</time></trkpt><trkpt lat="43.95528659550251" lon="11.911094035056925"><ele>265.0</ele><time>2026-04-05T15:29:04Z</time></trkpt><trkpt lat="43.95509307496643" lon="11.911038536524586"><ele>265.0</ele><time>2026-04-05T15:29:05Z</time></trkpt><trkpt lat="43.95490663138739" lon="11.910981321292772"><ele>265.0</ele><time>2026-04-05T15:29:06Z</time></trkpt><trkpt lat="43.95473380774653" lon="11.910932591909145"><ele>266.66666666666663</ele><time>2026-04-05T15:29:07Z</time></trkpt><trkpt lat="43.95457319406676" lon="11.910888906784752"><ele>268.3333333333333</ele><time>2026-04-05T15:29:08Z</time></trkpt><trkpt lat="43.95442209414327" lon="11.910844610434193"><ele>270.0</ele><time>2026-04-05T15:29:09Z</time></trkpt><trkpt lat="43.95427742791405" lon="11.9108085389056"><ele>271.0</ele><time>2026-04-05T15:29:10Z</time></trkpt><trkpt lat="43.95413674093838" lon="11.91076638569828"><ele>272.0</ele><time>2026-04-05T15:29:11Z</time></trkpt><trkpt lat="43.9539860642052" lon="11.91073228352935"><ele>273.0</ele><time>2026-04-05T15:29:12Z</time></trkpt><trkpt lat="43.95382629885519" lon="11.91069338133611"><ele>273.0</ele><time>2026-04-05T15:29:13Z</time></trkpt><trkpt lat="43.95365331948453" lon="11.910648498258466"><ele>273.0</ele><time>2026-04-05T15:29:14Z</time></trkpt><trkpt lat="43.95345509930269" lon="11.910607812549681"><ele>273.0</ele><time>2026-04-05T15:29:15Z</time></trkpt><trkpt lat="43.95325094931443" lon="11.910548973433858"><ele>273.3333333333333</ele><time>2026-04-05T15:29:16Z</time></trkpt><trkpt lat="43.95306637153198" lon="11.910483076484688"><ele>273.66666666666663</ele><time>2026-04-05T15:29:17Z</time></trkpt><trkpt lat="43.95289531800654" lon="11.910424872233188"><ele>274.0</ele><time>2026-04-05T15:29:18Z</time></trkpt><trkpt lat="43.95273958212847" lon="11.910382458104083"><ele>274.0</ele><time>2026-04-05T15:29:19Z</time></trkpt><trkpt lat="43.9526071314227" lon="11.910344452868898"><ele>274.0</ele><time>2026-04-05T15:29:20Z</time></trkpt><trkpt lat="43.95251615427417" lon="11.910267683185625"><ele>274.0</ele><time>2026-04-05T15:29:21Z</time></trkpt><trkpt lat="43.95244140371859" lon="11.910165053784276"><ele>274.0</ele><time>2026-04-05T15:29:22Z</time></trkpt><trkpt lat="43.95236981923315" lon="11.910102534351166"><ele>274.0</ele><time>2026-04-05T15:29:23Z</time></trkpt><trkpt lat="43.95227878449549" lon="11.910119573788743"><ele>274.0</ele><time>2026-04-05T15:29:24Z</time></trkpt><trkpt lat="43.952180116612936" lon="11.910206897184592"><ele>274.0</ele><time>2026-04-05T15:29:25Z</time></trkpt><trkpt lat="43.95204202131932" lon="11.910212560815133"><ele>274.0</ele><time>2026-04-05T15:29:26Z</time></trkpt><trkpt lat="43.95190640982682" lon="11.910190290575219"><ele>274.0</ele><time>2026-04-05T15:29:27Z</time></trkpt><trkpt lat="43.95175356527583" lon="11.910131341469494"><ele>275.0</ele><time>2026-04-05T15:29:28Z</time></trkpt><trkpt lat="43.951593619031385" lon="11.910069991920276"><ele>276.0</ele><time>2026-04-05T15:29:29Z</time></trkpt><trkpt lat="43.9514265692327" lon="11.910026708429884"><ele>277.0</ele><time>2026-04-05T15:29:30Z</time></trkpt><trkpt lat="43.95125198639619" lon="11.90998854309638"><ele>277.0</ele><time>2026-04-05T15:29:31Z</time></trkpt><trkpt lat="43.95107441577264" lon="11.909944916659276"><ele>277.0</ele><time>2026-04-05T15:29:32Z</time></trkpt><trkpt lat="43.950887199354526" lon="11.909901618261623"><ele>277.0</ele><time>2026-04-05T15:29:33Z</time></trkpt><trkpt lat="43.95069058340667" lon="11.909849020138845"><ele>277.3333333333333</ele><time>2026-04-05T15:29:34Z</time></trkpt><trkpt lat="43.95049418764304" lon="11.909794389718694"><ele>277.6666666666667</ele><time>2026-04-05T15:29:35Z</time></trkpt><trkpt lat="43.950314255302644" lon="11.90974715169485"><ele>278.0</ele><time>2026-04-05T15:29:36Z</time></trkpt><trkpt lat="43.95015000863879" lon="11.909707440794879"><ele>278.33333333333337</ele><time>2026-04-05T15:29:37Z</time></trkpt><trkpt lat="43.94999517222077" lon="11.909671618167367"><ele>278.6666666666667</ele><time>2026-04-05T15:29:38Z</time></trkpt><trkpt lat="43.949844027645895" lon="11.909626683454068"><ele>279.0</ele><time>2026-04-05T15:29:39Z</time></trkpt><trkpt lat="43.94970254778909" lon="11.909543403182573"><ele>279.0</ele><time>2026-04-05T15:29:40Z</time></trkpt><trkpt lat="43.949570686181275" lon="11.909431525075195"><ele>279.0</ele><time>2026-04-05T15:29:41Z</time></trkpt><trkpt lat="43.94944224098971" lon="11.909266116592123"><ele>279.0</ele><time>2026-04-05T15:29:42Z</time></trkpt><trkpt lat="43.949335650441995" lon="11.909082976280144"><ele>280.6666666666667</ele><time>2026-04-05T15:29:43Z</time></trkpt><trkpt lat="43.94926228490042" lon="11.908905560991274"><ele>282.33333333333337</ele><time>2026-04-05T15:29:44Z</time></trkpt><trkpt lat="43.94921335393278" lon="11.908704999747188"><ele>284.0</ele><time>2026-04-05T15:29:45Z</time></trkpt><trkpt lat="43.94919036790887" lon="11.908482490454203"><ele>281.6666666666667</ele><time>2026-04-05T15:29:46Z</time></trkpt><trkpt lat="43.949156291519365" lon="11.908227121100351"><ele>279.3333333333333</ele><time>2026-04-05T15:29:47Z</time></trkpt><trkpt lat="43.94907782216638" lon="11.907984388791535"><ele>277.0</ele><time>2026-04-05T15:29:48Z</time></trkpt><trkpt lat="43.94897478586845" lon="11.90777127482617"><ele>277.0</ele><time>2026-04-05T15:29:49Z</time></trkpt><trkpt lat="43.94885330050099" lon="11.90759641546498"><ele>277.0</ele><time>2026-04-05T15:29:50Z</time></trkpt><trkpt lat="43.948708864611" lon="11.907452200645226"><ele>277.0</ele><time>2026-04-05T15:29:51Z</time></trkpt><trkpt lat="43.94854518904225" lon="11.907331763044581"><ele>274.3333333333333</ele><time>2026-04-05T15:29:52Z</time></trkpt><trkpt lat="43.94838977702531" lon="11.907225652543461"><ele>271.6666666666667</ele><time>2026-04-05T15:29:53Z</time></trkpt><trkpt lat="43.94825483202431" lon="11.907122413780154"><ele>269.0</ele><time>2026-04-05T15:29:54Z</time></trkpt><trkpt lat="43.94813415279222" lon="11.907059107017137"><ele>269.0</ele><time>2026-04-05T15:29:55Z</time></trkpt><trkpt lat="43.94800315817337" lon="11.907067372714456"><ele>269.0</ele><time>2026-04-05T15:29:56Z</time></trkpt><trkpt lat="43.947883418733156" lon="11.907117275915704"><ele>269.0</ele><time>2026-04-05T15:29:57Z</time></trkpt><trkpt lat="43.94778162350343" lon="11.907225857318334"><ele>269.0</ele><time>2026-04-05T15:29:58Z</time></trkpt><trkpt lat="43.94771048775385" lon="11.907397105875352"><ele>267.25</ele><time>2026-04-05T15:29:59Z</time></trkpt><trkpt lat="43.947677947849655" lon="11.907585910188605"><ele>265.5</ele><time>2026-04-05T15:30:00Z</time></trkpt><trkpt lat="43.9476261285273" lon="11.907770657854412"><ele>263.75</ele><time>2026-04-05T15:30:01Z</time></trkpt><trkpt lat="43.94755534514272" lon="11.907925182098896"><ele>262.0</ele><time>2026-04-05T15:30:02Z</time></trkpt><trkpt lat="43.947505247316585" lon="11.908075921695387"><ele>261.16666666666663</ele><time>2026-04-05T15:30:03Z</time></trkpt><trkpt lat="43.94745502379141" lon="11.908199586139999"><ele>260.3333333333333</ele><time>2026-04-05T15:30:04Z</time></trkpt><trkpt lat="43.947412530736564" lon="11.908303547407774"><ele>259.5</ele><time>2026-04-05T15:30:05Z</time></trkpt><trkpt lat="43.94737840135421" lon="11.908380215458335"><ele>258.6666666666667</ele><time>2026-04-05T15:30:06Z</time></trkpt><trkpt lat="43.94732712742413" lon="11.908470794524954"><ele>257.83333333333337</ele><time>2026-04-05T15:30:08Z</time></trkpt><trkpt lat="43.94726711875402" lon="11.908497419931237"><ele>257.0</ele><time>2026-04-05T15:30:10Z</time></trkpt><trkpt lat="43.94712894027049" lon="11.908343130087692"><ele>257.0</ele><time>2026-04-05T15:30:12Z</time></trkpt><trkpt lat="43.947081750961225" lon="11.90827957386689"><ele>257.0</ele><time>2026-04-05T15:30:13Z</time></trkpt><trkpt lat="43.94699601682786" lon="11.908171267290124"><ele>257.0</ele><time>2026-04-05T15:30:14.999Z</time></trkpt><trkpt lat="43.94693327894007" lon="11.908120284413897"><ele>257.0</ele><time>2026-04-05T15:30:15.999Z</time></trkpt><trkpt lat="43.946884136355536" lon="11.908056102803858"><ele>257.0</ele><time>2026-04-05T15:30:16.999Z</time></trkpt><trkpt lat="43.9468307521639" lon="11.907986381657548"><ele>257.0</ele><time>2026-04-05T15:30:17.999Z</time></trkpt><trkpt lat="43.94677475802815" lon="11.907913251700638"><ele>257.0</ele><time>2026-04-05T15:30:18.999Z</time></trkpt><trkpt lat="43.94671744894083" lon="11.907840015051265"><ele>257.0</ele><time>2026-04-05T15:30:19.999Z</time></trkpt><trkpt lat="43.94666946954531" lon="11.907750023205288"><ele>257.0</ele><time>2026-04-05T15:30:20.999Z</time></trkpt><trkpt lat="43.946608315151046" lon="11.907686194025688"><ele>257.0</ele><time>2026-04-05T15:30:21.999Z</time></trkpt><trkpt lat="43.946554364447294" lon="11.90761904207109"><ele>257.0</ele><time>2026-04-05T15:30:22.999Z</time></trkpt><trkpt lat="43.94649493541805" lon="11.907560493349791"><ele>257.0</ele><time>2026-04-05T15:30:23.999Z</time></trkpt><trkpt lat="43.946431666200965" lon="11.90751243795865"><ele>257.1666666666667</ele><time>2026-04-05T15:30:24.999Z</time></trkpt><trkpt lat="43.946370391018434" lon="11.90746297255445"><ele>257.33333333333337</ele><time>2026-04-05T15:30:25.999Z</time></trkpt><trkpt lat="43.94630647225549" lon="11.90740457387395"><ele>257.5</ele><time>2026-04-05T15:30:26.999Z</time></trkpt><trkpt lat="43.94623232104555" lon="11.907351318759153"><ele>257.6666666666667</ele><time>2026-04-05T15:30:28Z</time></trkpt><trkpt lat="43.94615295977649" lon="11.907300350029272"><ele>257.8333333333333</ele><time>2026-04-05T15:30:29Z</time></trkpt><trkpt lat="43.946073900980885" lon="11.907246763612292"><ele>258.0</ele><time>2026-04-05T15:30:30Z</time></trkpt><trkpt lat="43.94600079225929" lon="11.90719898304525"><ele>258.0</ele><time>2026-04-05T15:30:31Z</time></trkpt><trkpt lat="43.94591909921638" lon="11.907149335662616"><ele>258.0</ele><time>2026-04-05T15:30:32Z</time></trkpt><trkpt lat="43.9458326731392" lon="11.907092886284886"><ele>258.0</ele><time>2026-04-05T15:30:33Z</time></trkpt><trkpt lat="43.94574214567675" lon="11.907032371919739"><ele>258.0</ele><time>2026-04-05T15:30:34Z</time></trkpt><trkpt lat="43.94565528173583" lon="11.906979228151657"><ele>258.0</ele><time>2026-04-05T15:30:35Z</time></trkpt><trkpt lat="43.94557884875589" lon="11.906927819581616"><ele>257.8333333333333</ele><time>2026-04-05T15:30:36Z</time></trkpt><trkpt lat="43.94552348410018" lon="11.906883837458796"><ele>257.6666666666667</ele><time>2026-04-05T15:30:37Z</time></trkpt><trkpt lat="43.945452175598" lon="11.906843010909855"><ele>257.5</ele><time>2026-04-05T15:30:41Z</time></trkpt><trkpt lat="43.94537181577859" lon="11.906805245747925"><ele>257.33333333333337</ele><time>2026-04-05T15:30:43Z</time></trkpt><trkpt lat="43.94530341942481" lon="11.90676125162918"><ele>257.1666666666667</ele><time>2026-04-05T15:30:44Z</time></trkpt><trkpt lat="43.94522732225283" lon="11.9067056657649"><ele>257.0</ele><time>2026-04-05T15:30:45Z</time></trkpt><trkpt lat="43.94513037338693" lon="11.906652308912046"><ele>257.5</ele><time>2026-04-05T15:30:46Z</time></trkpt><trkpt lat="43.94502879060227" lon="11.906590094684178"><ele>258.0</ele><time>2026-04-05T15:30:47Z</time></trkpt><trkpt lat="43.94493540068705" lon="11.906522187109639"><ele>258.5</ele><time>2026-04-05T15:30:48Z</time></trkpt><trkpt lat="43.944824782533445" lon="11.906439226023773"><ele>259.0</ele><time>2026-04-05T15:30:49Z</time></trkpt><trkpt lat="43.94470702274835" lon="11.906347304810916"><ele>259.0</ele><time>2026-04-05T15:30:50Z</time></trkpt><trkpt lat="43.94459697859739" lon="11.906259364997279"><ele>259.0</ele><time>2026-04-05T15:30:51Z</time></trkpt><trkpt lat="43.94449387084008" lon="11.90617966228634"><ele>259.0</ele><time>2026-04-05T15:30:52Z</time></trkpt><trkpt lat="43.944390640681725" lon="11.906101438041034"><ele>259.0</ele><time>2026-04-05T15:30:53Z</time></trkpt><trkpt lat="43.944289816929334" lon="11.906043336834065"><ele>259.16666666666663</ele><time>2026-04-05T15:30:54Z</time></trkpt><trkpt lat="43.94420594814116" lon="11.905989153644764"><ele>259.3333333333333</ele><time>2026-04-05T15:30:55Z</time></trkpt><trkpt lat="43.944125171160884" lon="11.905939239748529"><ele>259.5</ele><time>2026-04-05T15:30:56Z</time></trkpt><trkpt lat="43.94405461187185" lon="11.905892255987576"><ele>259.6666666666667</ele><time>2026-04-05T15:30:57Z</time></trkpt><trkpt lat="43.94397924900065" lon="11.905842003127791"><ele>259.83333333333337</ele><time>2026-04-05T15:30:58Z</time></trkpt><trkpt lat="43.94390182618029" lon="11.905784894936668"><ele>260.0</ele><time>2026-04-05T15:30:59Z</time></trkpt><trkpt lat="43.94381288621046" lon="11.905714636679646"><ele>260.0</ele><time>2026-04-05T15:31:00Z</time></trkpt><trkpt lat="43.94368587075951" lon="11.905656282085387"><ele>260.0</ele><time>2026-04-05T15:31:01Z</time></trkpt><trkpt lat="43.94354914753077" lon="11.9055479728096"><ele>260.0</ele><time>2026-04-05T15:31:02Z</time></trkpt><trkpt lat="43.94340952234419" lon="11.9054629980367"><ele>260.0</ele><time>2026-04-05T15:31:03Z</time></trkpt><trkpt lat="43.94326082564307" lon="11.905379973522809"><ele>259.6666666666667</ele><time>2026-04-05T15:31:04Z</time></trkpt><trkpt lat="43.94310178341878" lon="11.905289128419858"><ele>259.3333333333333</ele><time>2026-04-05T15:31:05Z</time></trkpt><trkpt lat="43.94293544640638" lon="11.90518944562977"><ele>259.0</ele><time>2026-04-05T15:31:06Z</time></trkpt><trkpt lat="43.94276981600167" lon="11.905093913663482"><ele>261.0</ele><time>2026-04-05T15:31:07Z</time></trkpt><trkpt lat="43.94261400546337" lon="11.904991216979349"><ele>263.0</ele><time>2026-04-05T15:31:08Z</time></trkpt><trkpt lat="43.942457529017965" lon="11.9048723779882"><ele>265.0</ele><time>2026-04-05T15:31:09Z</time></trkpt><trkpt lat="43.94230187415577" lon="11.904729683544582"><ele>265.0</ele><time>2026-04-05T15:31:10Z</time></trkpt><trkpt lat="43.942145547060825" lon="11.90457104996065"><ele>265.0</ele><time>2026-04-05T15:31:11Z</time></trkpt><trkpt lat="43.941990116428364" lon="11.904391612411288"><ele>265.0</ele><time>2026-04-05T15:31:12Z</time></trkpt><trkpt lat="43.941828064529375" lon="11.904206199318592"><ele>267.0</ele><time>2026-04-05T15:31:13Z</time></trkpt><trkpt lat="43.94165854331331" lon="11.904009911692832"><ele>269.0</ele><time>2026-04-05T15:31:14Z</time></trkpt><trkpt lat="43.941491319802864" lon="11.903821729246765"><ele>271.0</ele><time>2026-04-05T15:31:15Z</time></trkpt><trkpt lat="43.94133073362858" lon="11.903631314876842"><ele>271.0</ele><time>2026-04-05T15:31:16Z</time></trkpt><trkpt lat="43.94116479367958" lon="11.903442268594036"><ele>271.0</ele><time>2026-04-05T15:31:17Z</time></trkpt><trkpt lat="43.94100208262198" lon="11.90325765229571"><ele>271.0</ele><time>2026-04-05T15:31:18Z</time></trkpt><trkpt lat="43.94083762813271" lon="11.903071538405282"><ele>272.3333333333333</ele><time>2026-04-05T15:31:19Z</time></trkpt><trkpt lat="43.94067281941051" lon="11.902881876016446"><ele>273.6666666666667</ele><time>2026-04-05T15:31:20Z</time></trkpt><trkpt lat="43.94050722748803" lon="11.902690117350463"><ele>275.0</ele><time>2026-04-05T15:31:21Z</time></trkpt><trkpt lat="43.94034340650392" lon="11.90250236588768"><ele>276.0</ele><time>2026-04-05T15:31:22Z</time></trkpt><trkpt lat="43.94017620572314" lon="11.902315336117734"><ele>277.0</ele><time>2026-04-05T15:31:23Z</time></trkpt><trkpt lat="43.940009802876126" lon="11.902127870992297"><ele>278.0</ele><time>2026-04-05T15:31:24Z</time></trkpt><trkpt lat="43.939840563545445" lon="11.901940387855303"><ele>278.0</ele><time>2026-04-05T15:31:25Z</time></trkpt><trkpt lat="43.9396714008883" lon="11.901753317838475"><ele>278.0</ele><time>2026-04-05T15:31:26Z</time></trkpt><trkpt lat="43.93950257838442" lon="11.90156298784585"><ele>278.0</ele><time>2026-04-05T15:31:27Z</time></trkpt><trkpt lat="43.93933319014027" lon="11.90137030604229"><ele>278.33333333333337</ele><time>2026-04-05T15:31:28Z</time></trkpt><trkpt lat="43.939171327661505" lon="11.901182409613712"><ele>278.6666666666667</ele><time>2026-04-05T15:31:29Z</time></trkpt><trkpt lat="43.93901486754017" lon="11.90100365933587"><ele>279.0</ele><time>2026-04-05T15:31:30Z</time></trkpt><trkpt lat="43.938865466419735" lon="11.900817127229168"><ele>280.3333333333333</ele><time>2026-04-05T15:31:31Z</time></trkpt><trkpt lat="43.9387218774401" lon="11.900612128142091"><ele>281.66666666666663</ele><time>2026-04-05T15:31:32Z</time></trkpt><trkpt lat="43.93859469046121" lon="11.900387873371114"><ele>283.0</ele><time>2026-04-05T15:31:33Z</time></trkpt><trkpt lat="43.938468905674746" lon="11.900152131756297"><ele>283.66666666666663</ele><time>2026-04-05T15:31:34Z</time></trkpt><trkpt lat="43.93834246942698" lon="11.899907823710539"><ele>284.3333333333333</ele><time>2026-04-05T15:31:35Z</time></trkpt><trkpt lat="43.93821501026681" lon="11.89966061204952"><ele>285.0</ele><time>2026-04-05T15:31:36Z</time></trkpt><trkpt lat="43.93808930965465" lon="11.899404431366253"><ele>288.5</ele><time>2026-04-05T15:31:37Z</time></trkpt><trkpt lat="43.93797215906987" lon="11.899136959085427"><ele>292.0</ele><time>2026-04-05T15:31:38Z</time></trkpt><trkpt lat="43.937862430272595" lon="11.898861622053396"><ele>292.0</ele><time>2026-04-05T15:31:39Z</time></trkpt><trkpt lat="43.937745453370205" lon="11.898600524958296"><ele>292.0</ele><time>2026-04-05T15:31:40Z</time></trkpt><trkpt lat="43.937583922293236" lon="11.898379473742938"><ele>292.0</ele><time>2026-04-05T15:31:41Z</time></trkpt><trkpt lat="43.9373903373427" lon="11.898185464638377"><ele>293.3333333333333</ele><time>2026-04-05T15:31:42Z</time></trkpt><trkpt lat="43.93719918383773" lon="11.897999738847513"><ele>294.6666666666667</ele><time>2026-04-05T15:31:43Z</time></trkpt><trkpt lat="43.93702460067404" lon="11.897833442089192"><ele>296.0</ele><time>2026-04-05T15:31:44Z</time></trkpt><trkpt lat="43.93685508952306" lon="11.897708307517027"><ele>295.0</ele><time>2026-04-05T15:31:45Z</time></trkpt><trkpt lat="43.93668656459784" lon="11.897633057317433"><ele>294.0</ele><time>2026-04-05T15:31:46Z</time></trkpt><trkpt lat="43.93652187389532" lon="11.897617128410436"><ele>293.0</ele><time>2026-04-05T15:31:47Z</time></trkpt><trkpt lat="43.9363531282326" lon="11.89763820547473"><ele>293.0</ele><time>2026-04-05T15:31:48Z</time></trkpt><trkpt lat="43.93619605373313" lon="11.897665131154257"><ele>293.0</ele><time>2026-04-05T15:31:49Z</time></trkpt><trkpt lat="43.936038117067945" lon="11.897628791839718"><ele>293.0</ele><time>2026-04-05T15:31:50Z</time></trkpt><trkpt lat="43.93588734292498" lon="11.897522884398589"><ele>294.33333333333337</ele><time>2026-04-05T15:31:51Z</time></trkpt><trkpt lat="43.935742090650066" lon="11.897365745263473"><ele>295.6666666666667</ele><time>2026-04-05T15:31:52Z</time></trkpt><trkpt lat="43.935594258941684" lon="11.897187228523808"><ele>297.0</ele><time>2026-04-05T15:31:53Z</time></trkpt><trkpt lat="43.93543843038002" lon="11.897013784527886"><ele>297.0</ele><time>2026-04-05T15:31:54Z</time></trkpt><trkpt lat="43.935284604235086" lon="11.896854581073319"><ele>297.0</ele><time>2026-04-05T15:31:55Z</time></trkpt><trkpt lat="43.93515433416055" lon="11.89671241157893"><ele>297.0</ele><time>2026-04-05T15:31:56Z</time></trkpt><trkpt lat="43.935041308802894" lon="11.896558485389605"><ele>298.3333333333333</ele><time>2026-04-05T15:31:57Z</time></trkpt><trkpt lat="43.93494225132843" lon="11.89637599542527"><ele>299.66666666666663</ele><time>2026-04-05T15:31:58Z</time></trkpt><trkpt lat="43.93486434431558" lon="11.896148068644166"><ele>301.0</ele><time>2026-04-05T15:31:59Z</time></trkpt><trkpt lat="43.93481002206054" lon="11.89589799428287"><ele>303.3333333333333</ele><time>2026-04-05T15:32:00Z</time></trkpt><trkpt lat="43.93477550815349" lon="11.895633072006333"><ele>305.6666666666667</ele><time>2026-04-05T15:32:01Z</time></trkpt><trkpt lat="43.934764194956195" lon="11.895342415777586"><ele>308.0</ele><time>2026-04-05T15:32:02Z</time></trkpt><trkpt lat="43.93476128887479" lon="11.89505251673647"><ele>308.6666666666667</ele><time>2026-04-05T15:32:03Z</time></trkpt><trkpt lat="43.9347734364334" lon="11.894797222509416"><ele>309.3333333333333</ele><time>2026-04-05T15:32:04Z</time></trkpt><trkpt lat="43.934813083918236" lon="11.894573325390049"><ele>310.0</ele><time>2026-04-05T15:32:05Z</time></trkpt><trkpt lat="43.9348752118233" lon="11.894371969449475"><ele>309.66666666666663</ele><time>2026-04-05T15:32:06Z</time></trkpt><trkpt lat="43.93490540952472" lon="11.894181403618434"><ele>309.3333333333333</ele><time>2026-04-05T15:32:07Z</time></trkpt><trkpt lat="43.93485560013306" lon="11.893982011593863"><ele>309.0</ele><time>2026-04-05T15:32:08Z</time></trkpt><trkpt lat="43.93472349105018" lon="11.893818084120282"><ele>309.0</ele><time>2026-04-05T15:32:09Z</time></trkpt><trkpt lat="43.934552051733675" lon="11.893669887583176"><ele>309.0</ele><time>2026-04-05T15:32:10Z</time></trkpt><trkpt lat="43.93438720178405" lon="11.893507559037397"><ele>309.0</ele><time>2026-04-05T15:32:11Z</time></trkpt><trkpt lat="43.934235133641124" lon="11.893335952858429"><ele>309.6666666666667</ele><time>2026-04-05T15:32:12Z</time></trkpt><trkpt lat="43.93410138514079" lon="11.89317645434871"><ele>310.33333333333337</ele><time>2026-04-05T15:32:13Z</time></trkpt><trkpt lat="43.933990169193336" lon="11.893014101362096"><ele>311.0</ele><time>2026-04-05T15:32:14Z</time></trkpt><trkpt lat="43.93393255493431" lon="11.892804643307532"><ele>313.0</ele><time>2026-04-05T15:32:15Z</time></trkpt><trkpt lat="43.93394437407964" lon="11.892550212525725"><ele>315.0</ele><time>2026-04-05T15:32:16Z</time></trkpt><trkpt lat="43.93392519384837" lon="11.892305057489741"><ele>317.0</ele><time>2026-04-05T15:32:17Z</time></trkpt><trkpt lat="43.933848230937" lon="11.892095840392525"><ele>317.0</ele><time>2026-04-05T15:32:18Z</time></trkpt><trkpt lat="43.93370073634936" lon="11.891909831451292"><ele>317.0</ele><time>2026-04-05T15:32:19Z</time></trkpt><trkpt lat="43.93352803293973" lon="11.891730815276878"><ele>317.0</ele><time>2026-04-05T15:32:19.999Z</time></trkpt><trkpt lat="43.933358817250934" lon="11.891526623808138"><ele>316.33333333333337</ele><time>2026-04-05T15:32:20.999Z</time></trkpt><trkpt lat="43.933202084710615" lon="11.891319652705922"><ele>315.6666666666667</ele><time>2026-04-05T15:32:21.999Z</time></trkpt><trkpt lat="43.933061501832306" lon="11.89113131184552"><ele>315.0</ele><time>2026-04-05T15:32:22.999Z</time></trkpt><trkpt lat="43.93290439768391" lon="11.890991271051053"><ele>316.3333333333333</ele><time>2026-04-05T15:32:23.999Z</time></trkpt><trkpt lat="43.93271236770008" lon="11.890919575529393"><ele>317.66666666666663</ele><time>2026-04-05T15:32:24.999Z</time></trkpt><trkpt lat="43.93250496127633" lon="11.890838256880661"><ele>319.0</ele><time>2026-04-05T15:32:25.999Z</time></trkpt><trkpt lat="43.932326340634326" lon="11.890736171859956"><ele>319.0</ele><time>2026-04-05T15:32:26.999Z</time></trkpt><trkpt lat="43.93215677398259" lon="11.890605299320987"><ele>319.0</ele><time>2026-04-05T15:32:27.999Z</time></trkpt><trkpt lat="43.93198914779712" lon="11.890423565429192"><ele>319.0</ele><time>2026-04-05T15:32:28.999Z</time></trkpt><trkpt lat="43.93181942903898" lon="11.890199382192453"><ele>318.5</ele><time>2026-04-05T15:32:29.999Z</time></trkpt><trkpt lat="43.93163844934545" lon="11.889981966583324"><ele>318.0</ele><time>2026-04-05T15:32:30.999Z</time></trkpt><trkpt lat="43.9314516961725" lon="11.889771453805988"><ele>318.0</ele><time>2026-04-05T15:32:31.999Z</time></trkpt><trkpt lat="43.93126695284551" lon="11.889546334181722"><ele>318.0</ele><time>2026-04-05T15:32:32.999Z</time></trkpt><trkpt lat="43.93109042205766" lon="11.889366109506868"><ele>318.6666666666667</ele><time>2026-04-05T15:32:34Z</time></trkpt><trkpt lat="43.93090316007207" lon="11.889251511412338"><ele>319.33333333333337</ele><time>2026-04-05T15:32:35Z</time></trkpt><trkpt lat="43.93071547536355" lon="11.889177002168365"><ele>320.0</ele><time>2026-04-05T15:32:36Z</time></trkpt><trkpt lat="43.930536149206915" lon="11.889103881799238"><ele>320.0</ele><time>2026-04-05T15:32:37Z</time></trkpt><trkpt lat="43.93036931937819" lon="11.88900210299379"><ele>320.0</ele><time>2026-04-05T15:32:38Z</time></trkpt><trkpt lat="43.93021953924903" lon="11.88882323035307"><ele>320.0</ele><time>2026-04-05T15:32:39Z</time></trkpt><trkpt lat="43.93004885858399" lon="11.888650822888835"><ele>320.6666666666667</ele><time>2026-04-05T15:32:40Z</time></trkpt><trkpt lat="43.9298821765864" lon="11.888451769991327"><ele>321.3333333333333</ele><time>2026-04-05T15:32:41Z</time></trkpt><trkpt lat="43.92971154797993" lon="11.888241256799045"><ele>322.0</ele><time>2026-04-05T15:32:42Z</time></trkpt><trkpt lat="43.929530554014406" lon="11.888021797832064"><ele>322.0</ele><time>2026-04-05T15:32:43Z</time></trkpt><trkpt lat="43.92934266752355" lon="11.88780234153147"><ele>322.0</ele><time>2026-04-05T15:32:44Z</time></trkpt><trkpt lat="43.92914784595191" lon="11.88757186584981"><ele>324.3333333333333</ele><time>2026-04-05T15:32:45Z</time></trkpt><trkpt lat="43.928971226260664" lon="11.887362045560419"><ele>326.6666666666667</ele><time>2026-04-05T15:32:46Z</time></trkpt><trkpt lat="43.92880819464259" lon="11.887170248614595"><ele>329.0</ele><time>2026-04-05T15:32:47Z</time></trkpt><trkpt lat="43.92868096270061" lon="11.886964181935543"><ele>332.6666666666667</ele><time>2026-04-05T15:32:48Z</time></trkpt><trkpt lat="43.92858473214906" lon="11.886743701767443"><ele>336.3333333333333</ele><time>2026-04-05T15:32:49Z</time></trkpt><trkpt lat="43.928505432399845" lon="11.886495903561572"><ele>340.0</ele><time>2026-04-05T15:32:50Z</time></trkpt><trkpt lat="43.92843967961993" lon="11.886227215321586"><ele>334.0</ele><time>2026-04-05T15:32:51Z</time></trkpt><trkpt lat="43.92838806714192" lon="11.885948815187188"><ele>328.0</ele><time>2026-04-05T15:32:52Z</time></trkpt><trkpt lat="43.92835028760165" lon="11.88566170789616"><ele>322.0</ele><time>2026-04-05T15:32:53Z</time></trkpt><trkpt lat="43.92830533242465" lon="11.885364317417832"><ele>328.0</ele><time>2026-04-05T15:32:54Z</time></trkpt><trkpt lat="43.92822947960267" lon="11.88507613172809"><ele>334.0</ele><time>2026-04-05T15:32:55Z</time></trkpt><trkpt lat="43.928140890503705" lon="11.884811004849178"><ele>340.0</ele><time>2026-04-05T15:32:56Z</time></trkpt><trkpt lat="43.92804708395608" lon="11.884580841333317"><ele>340.0</ele><time>2026-04-05T15:32:57Z</time></trkpt><trkpt lat="43.9279590982209" lon="11.884356070066744"><ele>340.0</ele><time>2026-04-05T15:32:58Z</time></trkpt><trkpt lat="43.92785367902547" lon="11.884145732704628"><ele>340.0</ele><time>2026-04-05T15:32:59Z</time></trkpt><trkpt lat="43.92771092506063" lon="11.883960723148196"><ele>341.3333333333333</ele><time>2026-04-05T15:33:00Z</time></trkpt><trkpt lat="43.92754134095522" lon="11.883798168793238"><ele>342.6666666666667</ele><time>2026-04-05T15:33:01Z</time></trkpt><trkpt lat="43.9273680434013" lon="11.883620439986384"><ele>344.0</ele><time>2026-04-05T15:33:02Z</time></trkpt><trkpt lat="43.927199200092026" lon="11.883412918096337"><ele>344.0</ele><time>2026-04-05T15:33:03Z</time></trkpt><trkpt lat="43.92703098294389" lon="11.88318873515026"><ele>344.0</ele><time>2026-04-05T15:33:04Z</time></trkpt><trkpt lat="43.92685788169229" lon="11.882967109073306"><ele>341.6666666666667</ele><time>2026-04-05T15:33:05Z</time></trkpt><trkpt lat="43.92670187266171" lon="11.882775683962244"><ele>339.3333333333333</ele><time>2026-04-05T15:33:06Z</time></trkpt><trkpt lat="43.92655169079843" lon="11.88260515267844"><ele>337.0</ele><time>2026-04-05T15:33:07Z</time></trkpt><trkpt lat="43.92640159336075" lon="11.882416787209909"><ele>337.0</ele><time>2026-04-05T15:33:08Z</time></trkpt><trkpt lat="43.92625678700108" lon="11.88220579658558"><ele>337.0</ele><time>2026-04-05T15:33:09Z</time></trkpt><trkpt lat="43.92612336443009" lon="11.881994995466943"><ele>337.0</ele><time>2026-04-05T15:33:10Z</time></trkpt><trkpt lat="43.92600261224571" lon="11.88180079013637"><ele>334.3333333333333</ele><time>2026-04-05T15:33:11Z</time></trkpt><trkpt lat="43.925895870403394" lon="11.88162165236144"><ele>331.6666666666667</ele><time>2026-04-05T15:33:12Z</time></trkpt><trkpt lat="43.92580309142759" lon="11.881423628962455"><ele>329.0</ele><time>2026-04-05T15:33:13Z</time></trkpt><trkpt lat="43.92572263974853" lon="11.881195164737841"><ele>329.0</ele><time>2026-04-05T15:33:14Z</time></trkpt><trkpt lat="43.92563232375123" lon="11.88095505252938"><ele>329.0</ele><time>2026-04-05T15:33:15Z</time></trkpt><trkpt lat="43.92553215014877" lon="11.880708718987831"><ele>329.0</ele><time>2026-04-05T15:33:16Z</time></trkpt><trkpt lat="43.92542922170707" lon="11.880450452493546"><ele>334.0</ele><time>2026-04-05T15:33:17Z</time></trkpt><trkpt lat="43.925336601439966" lon="11.880182692383263"><ele>339.0</ele><time>2026-04-05T15:33:18Z</time></trkpt><trkpt lat="43.925231361137484" lon="11.879894998193885"><ele>344.0</ele><time>2026-04-05T15:33:19Z</time></trkpt><trkpt lat="43.925132245530584" lon="11.879602443111242"><ele>340.6666666666667</ele><time>2026-04-05T15:33:20Z</time></trkpt><trkpt lat="43.92505616978463" lon="11.87932358718277"><ele>337.3333333333333</ele><time>2026-04-05T15:33:21Z</time></trkpt><trkpt lat="43.92500789350998" lon="11.879062911431735"><ele>334.0</ele><time>2026-04-05T15:33:22Z</time></trkpt><trkpt lat="43.9249947080743" lon="11.878820473967073"><ele>334.0</ele><time>2026-04-05T15:33:23Z</time></trkpt><trkpt lat="43.925009320860326" lon="11.878611803889264"><ele>334.0</ele><time>2026-04-05T15:33:24Z</time></trkpt><trkpt lat="43.92505309158423" lon="11.878432119447595"><ele>334.0</ele><time>2026-04-05T15:33:25Z</time></trkpt><trkpt lat="43.9251116553007" lon="11.878250303161654"><ele>334.0</ele><time>2026-04-05T15:33:26Z</time></trkpt><trkpt lat="43.925176701761366" lon="11.87806057639114"><ele>344.66666666666663</ele><time>2026-04-05T15:33:27Z</time></trkpt><trkpt lat="43.92522557578359" lon="11.877855146373301"><ele>355.3333333333333</ele><time>2026-04-05T15:33:28Z</time></trkpt><trkpt lat="43.925250243665026" lon="11.877630782424546"><ele>366.0</ele><time>2026-04-05T15:33:29Z</time></trkpt><trkpt lat="43.925256424185214" lon="11.877387430172664"><ele>368.6666666666667</ele><time>2026-04-05T15:33:30Z</time></trkpt><trkpt lat="43.92524175016732" lon="11.8771413419924"><ele>371.33333333333337</ele><time>2026-04-05T15:33:31Z</time></trkpt><trkpt lat="43.92522229860395" lon="11.876904625751791"><ele>374.0</ele><time>2026-04-05T15:33:32Z</time></trkpt><trkpt lat="43.92519213434023" lon="11.876703727079041"><ele>374.0</ele><time>2026-04-05T15:33:33Z</time></trkpt><trkpt lat="43.92517192741528" lon="11.876509745823668"><ele>374.0</ele><time>2026-04-05T15:33:34Z</time></trkpt><trkpt lat="43.925153066529255" lon="11.876330884667961"><ele>374.0</ele><time>2026-04-05T15:33:35Z</time></trkpt><trkpt lat="43.92513550030314" lon="11.87616430100437"><ele>374.0</ele><time>2026-04-05T15:33:36Z</time></trkpt><trkpt lat="43.92508555884657" lon="11.876021908567635"><ele>370.0</ele><time>2026-04-05T15:33:37Z</time></trkpt><trkpt lat="43.92513256184823" lon="11.8758847856388"><ele>366.0</ele><time>2026-04-05T15:33:38Z</time></trkpt><trkpt lat="43.925212529727624" lon="11.875797182307863"><ele>362.0</ele><time>2026-04-05T15:33:39Z</time></trkpt><trkpt lat="43.92529581099097" lon="11.87575581431626"><ele>358.0</ele><time>2026-04-05T15:33:40Z</time></trkpt><trkpt lat="43.92537473237561" lon="11.875728699439538"><ele>354.0</ele><time>2026-04-05T15:33:41Z</time></trkpt><trkpt lat="43.925457424641564" lon="11.875682947784046"><ele>354.0</ele><time>2026-04-05T15:33:42Z</time></trkpt><trkpt lat="43.92551809816287" lon="11.875598564487667"><ele>354.0</ele><time>2026-04-05T15:33:43Z</time></trkpt><trkpt lat="43.92555907716591" lon="11.875478885506965"><ele>354.0</ele><time>2026-04-05T15:33:44Z</time></trkpt><trkpt lat="43.925580828937406" lon="11.875346045837421"><ele>354.0</ele><time>2026-04-05T15:33:45Z</time></trkpt><trkpt lat="43.92559036743727" lon="11.875225397022936"><ele>354.0</ele><time>2026-04-05T15:33:46Z</time></trkpt><trkpt lat="43.925605608845935" lon="11.875108844224254"><ele>353.79999999999995</ele><time>2026-04-05T15:33:47Z</time></trkpt><trkpt lat="43.92562745064716" lon="11.874988919309125"><ele>353.59999999999997</ele><time>2026-04-05T15:33:48Z</time></trkpt><trkpt lat="43.92565303735383" lon="11.87485488330099"><ele>353.4</ele><time>2026-04-05T15:33:49Z</time></trkpt><trkpt lat="43.92567641897172" lon="11.874716845524267"><ele>353.2</ele><time>2026-04-05T15:33:50Z</time></trkpt><trkpt lat="43.92570081101414" lon="11.874572032225544"><ele>353.0</ele><time>2026-04-05T15:33:51Z</time></trkpt><trkpt lat="43.925734142680774" lon="11.874421556659252"><ele>352.75</ele><time>2026-04-05T15:33:52Z</time></trkpt><trkpt lat="43.925769100583025" lon="11.874266293815339"><ele>352.5</ele><time>2026-04-05T15:33:53Z</time></trkpt><trkpt lat="43.92581615525058" lon="11.874103471493559"><ele>352.25</ele><time>2026-04-05T15:33:54Z</time></trkpt><trkpt lat="43.92588672110898" lon="11.873934823410222"><ele>352.0</ele><time>2026-04-05T15:33:55Z</time></trkpt><trkpt lat="43.92596965390264" lon="11.873765709521182"><ele>358.5</ele><time>2026-04-05T15:33:56Z</time></trkpt><trkpt lat="43.926052705471065" lon="11.873610864351315"><ele>365.0</ele><time>2026-04-05T15:33:57Z</time></trkpt><trkpt lat="43.92612630818033" lon="11.873456682792053"><ele>371.5</ele><time>2026-04-05T15:33:58Z</time></trkpt><trkpt lat="43.926194962892396" lon="11.873306979821773"><ele>378.0</ele><time>2026-04-05T15:33:59Z</time></trkpt><trkpt lat="43.92626189080386" lon="11.873184600901402"><ele>378.0</ele><time>2026-04-05T15:34:00Z</time></trkpt><trkpt lat="43.92631905473747" lon="11.87309363940431"><ele>378.0</ele><time>2026-04-05T15:34:01Z</time></trkpt><trkpt lat="43.92639215399203" lon="11.87290242706126"><ele>378.0</ele><time>2026-04-05T15:34:02Z</time></trkpt><trkpt lat="43.92645516919406" lon="11.872759051772958"><ele>378.0</ele><time>2026-04-05T15:34:03Z</time></trkpt><trkpt lat="43.926517356299094" lon="11.872623595574481"><ele>380.75</ele><time>2026-04-05T15:34:04Z</time></trkpt><trkpt lat="43.92658664100177" lon="11.872484028311476"><ele>383.5</ele><time>2026-04-05T15:34:05Z</time></trkpt><trkpt lat="43.92667406825587" lon="11.87236309507582"><ele>386.25</ele><time>2026-04-05T15:34:06Z</time></trkpt><trkpt lat="43.92678761916863" lon="11.87223642042191"><ele>389.0</ele><time>2026-04-05T15:34:07Z</time></trkpt><trkpt lat="43.926924294165175" lon="11.872105993192857"><ele>389.0</ele><time>2026-04-05T15:34:08Z</time></trkpt><trkpt lat="43.92707758831001" lon="11.87197138802653"><ele>389.0</ele><time>2026-04-05T15:34:09Z</time></trkpt><trkpt lat="43.92723490785625" lon="11.871826812064148"><ele>389.0</ele><time>2026-04-05T15:34:10.001Z</time></trkpt><trkpt lat="43.92738762246167" lon="11.871678593630019"><ele>392.3333333333333</ele><time>2026-04-05T15:34:11.001Z</time></trkpt><trkpt lat="43.92753046637694" lon="11.8715426068206"><ele>395.66666666666663</ele><time>2026-04-05T15:34:12.001Z</time></trkpt><trkpt lat="43.92767803318701" lon="11.871380865663339"><ele>399.0</ele><time>2026-04-05T15:34:13.001Z</time></trkpt><trkpt lat="43.92784168607733" lon="11.871192615881926"><ele>399.0</ele><time>2026-04-05T15:34:14.001Z</time></trkpt><trkpt lat="43.92801096599584" lon="11.870996707921655"><ele>399.0</ele><time>2026-04-05T15:34:15.001Z</time></trkpt><trkpt lat="43.92818207734928" lon="11.870796042970069"><ele>399.0</ele><time>2026-04-05T15:34:16.001Z</time></trkpt><trkpt lat="43.928358326843444" lon="11.87057594947706"><ele>403.66666666666663</ele><time>2026-04-05T15:34:17.001Z</time></trkpt><trkpt lat="43.92852653334885" lon="11.870365633615291"><ele>408.3333333333333</ele><time>2026-04-05T15:34:18.001Z</time></trkpt><trkpt lat="43.92868621069053" lon="11.87017308836073"><ele>413.0</ele><time>2026-04-05T15:34:19.001Z</time></trkpt><trkpt lat="43.92884051703445" lon="11.869993145284688"><ele>414.3333333333333</ele><time>2026-04-05T15:34:20.001Z</time></trkpt><trkpt lat="43.92900932846678" lon="11.869823042570195"><ele>415.66666666666663</ele><time>2026-04-05T15:34:21.001Z</time></trkpt><trkpt lat="43.92918703900908" lon="11.86964801437067"><ele>417.0</ele><time>2026-04-05T15:34:22.001Z</time></trkpt><trkpt lat="43.92937216599153" lon="11.869499442723342"><ele>417.0</ele><time>2026-04-05T15:34:23.001Z</time></trkpt><trkpt lat="43.929552263615406" lon="11.869347374984459"><ele>417.0</ele><time>2026-04-05T15:34:24.001Z</time></trkpt><trkpt lat="43.92971367367895" lon="11.869215323900331"><ele>417.0</ele><time>2026-04-05T15:34:25.001Z</time></trkpt><trkpt lat="43.92986098328394" lon="11.869090854534408"><ele>418.66666666666663</ele><time>2026-04-05T15:34:26Z</time></trkpt><trkpt lat="43.93000082438908" lon="11.868965961485118"><ele>420.3333333333333</ele><time>2026-04-05T15:34:27Z</time></trkpt><trkpt lat="43.93013088345835" lon="11.868840075524565"><ele>422.0</ele><time>2026-04-05T15:34:28Z</time></trkpt><trkpt lat="43.93023857276907" lon="11.868692825747901"><ele>422.0</ele><time>2026-04-05T15:34:29Z</time></trkpt><trkpt lat="43.93032140434096" lon="11.86851440452577"><ele>422.0</ele><time>2026-04-05T15:34:30Z</time></trkpt><trkpt lat="43.93037954031296" lon="11.86833591850316"><ele>422.0</ele><time>2026-04-05T15:34:31Z</time></trkpt><trkpt lat="43.93045505732023" lon="11.868211143651793"><ele>422.0</ele><time>2026-04-05T15:34:32Z</time></trkpt><trkpt lat="43.930590416163966" lon="11.86814505947818"><ele>415.75</ele><time>2026-04-05T15:34:33Z</time></trkpt><trkpt lat="43.93070229924166" lon="11.868015187682184"><ele>409.5</ele><time>2026-04-05T15:34:34Z</time></trkpt><trkpt lat="43.930814120115215" lon="11.867905759605152"><ele>403.25</ele><time>2026-04-05T15:34:35Z</time></trkpt><trkpt lat="43.93088120385438" lon="11.867768579145396"><ele>397.0</ele><time>2026-04-05T15:34:36Z</time></trkpt><trkpt lat="43.93088644415626" lon="11.867594401121822"><ele>392.0</ele><time>2026-04-05T15:34:37Z</time></trkpt><trkpt lat="43.930856111231996" lon="11.867415906144785"><ele>387.0</ele><time>2026-04-05T15:34:38Z</time></trkpt><trkpt lat="43.93082040378354" lon="11.867219307085897"><ele>382.0</ele><time>2026-04-05T15:34:39Z</time></trkpt><trkpt lat="43.930778025899926" lon="11.867045277234837"><ele>377.0</ele><time>2026-04-05T15:34:40Z</time></trkpt><trkpt lat="43.93068570235351" lon="11.866893333025809"><ele>378.25</ele><time>2026-04-05T15:34:41Z</time></trkpt><trkpt lat="43.9305983957653" lon="11.866763543502167"><ele>379.5</ele><time>2026-04-05T15:34:42Z</time></trkpt><trkpt lat="43.93056493128608" lon="11.86662159703016"><ele>380.75</ele><time>2026-04-05T15:34:43Z</time></trkpt><trkpt lat="43.93056681740904" lon="11.866429118289307"><ele>382.0</ele><time>2026-04-05T15:34:44Z</time></trkpt><trkpt lat="43.930567935416676" lon="11.86622891373914"><ele>382.0</ele><time>2026-04-05T15:34:45Z</time></trkpt><trkpt lat="43.93055723956793" lon="11.866014059581191"><ele>382.0</ele><time>2026-04-05T15:34:46Z</time></trkpt><trkpt lat="43.93051291845692" lon="11.865782148122202"><ele>382.0</ele><time>2026-04-05T15:34:47Z</time></trkpt><trkpt lat="43.930442826579856" lon="11.865535893627651"><ele>384.3333333333333</ele><time>2026-04-05T15:34:48Z</time></trkpt><trkpt lat="43.930370644358376" lon="11.865319635984305"><ele>386.66666666666663</ele><time>2026-04-05T15:34:49Z</time></trkpt><trkpt lat="43.930288871330276" lon="11.865144451171384"><ele>389.0</ele><time>2026-04-05T15:34:50Z</time></trkpt><trkpt lat="43.93020282548412" lon="11.864989038368009"><ele>389.75</ele><time>2026-04-05T15:34:51Z</time></trkpt><trkpt lat="43.93014751636662" lon="11.864833722168221"><ele>390.5</ele><time>2026-04-05T15:34:52Z</time></trkpt><trkpt lat="43.93018450363461" lon="11.864651197690755"><ele>391.25</ele><time>2026-04-05T15:34:53Z</time></trkpt><trkpt lat="43.930228254898076" lon="11.864439478309164"><ele>392.0</ele><time>2026-04-05T15:34:54Z</time></trkpt><trkpt lat="43.93026243892589" lon="11.864207629908837"><ele>392.0</ele><time>2026-04-05T15:34:55Z</time></trkpt><trkpt lat="43.9303135867239" lon="11.864008170496497"><ele>392.0</ele><time>2026-04-05T15:34:56Z</time></trkpt><trkpt lat="43.93032401924287" lon="11.863823811353171"><ele>392.0</ele><time>2026-04-05T15:34:57Z</time></trkpt><trkpt lat="43.930296205129785" lon="11.863651514956507"><ele>392.0</ele><time>2026-04-05T15:34:58Z</time></trkpt><trkpt lat="43.93021909472717" lon="11.863488732791597"><ele>392.0</ele><time>2026-04-05T15:34:59Z</time></trkpt><trkpt lat="43.93014060207896" lon="11.863325736072436"><ele>392.0</ele><time>2026-04-05T15:35:00Z</time></trkpt><trkpt lat="43.9301136171878" lon="11.863160651985176"><ele>392.0</ele><time>2026-04-05T15:35:01Z</time></trkpt><trkpt lat="43.93014639623244" lon="11.862972224954659"><ele>392.0</ele><time>2026-04-05T15:35:02Z</time></trkpt><trkpt lat="43.93021647793861" lon="11.862777436556149"><ele>390.0</ele><time>2026-04-05T15:35:03Z</time></trkpt><trkpt lat="43.93028358022327" lon="11.862589833874448"><ele>388.0</ele><time>2026-04-05T15:35:04Z</time></trkpt><trkpt lat="43.93036939519515" lon="11.862450371359095"><ele>386.0</ele><time>2026-04-05T15:35:05Z</time></trkpt><trkpt lat="43.930489826257045" lon="11.862377247568858"><ele>384.0</ele><time>2026-04-05T15:35:06Z</time></trkpt><trkpt lat="43.93060527029149" lon="11.862253980410593"><ele>384.0</ele><time>2026-04-05T15:35:07Z</time></trkpt><trkpt lat="43.930676588944294" lon="11.862084870842017"><ele>384.0</ele><time>2026-04-05T15:35:08Z</time></trkpt><trkpt lat="43.930759542957965" lon="11.861892332747312"><ele>384.0</ele><time>2026-04-05T15:35:09Z</time></trkpt><trkpt lat="43.93088855509627" lon="11.861765297805812"><ele>390.33333333333337</ele><time>2026-04-05T15:35:10Z</time></trkpt><trkpt lat="43.931025325167234" lon="11.861626656744498"><ele>396.6666666666667</ele><time>2026-04-05T15:35:11Z</time></trkpt><trkpt lat="43.93114662562209" lon="11.861485937547217"><ele>403.0</ele><time>2026-04-05T15:35:12Z</time></trkpt><trkpt lat="43.93126134704836" lon="11.86138662647923"><ele>403.0</ele><time>2026-04-05T15:35:13Z</time></trkpt><trkpt lat="43.93136452201983" lon="11.86128242619627"><ele>403.0</ele><time>2026-04-05T15:35:14Z</time></trkpt><trkpt lat="43.93145887615885" lon="11.861173760476401"><ele>403.0</ele><time>2026-04-05T15:35:15Z</time></trkpt><trkpt lat="43.93151203249323" lon="11.861044499952264"><ele>403.0</ele><time>2026-04-05T15:35:16Z</time></trkpt><trkpt lat="43.931519674119706" lon="11.860863584444793"><ele>394.6666666666667</ele><time>2026-04-05T15:35:17Z</time></trkpt><trkpt lat="43.93149793002183" lon="11.860633201230234"><ele>386.33333333333337</ele><time>2026-04-05T15:35:18Z</time></trkpt><trkpt lat="43.931515869350385" lon="11.86038203388062"><ele>378.0</ele><time>2026-04-05T15:35:19Z</time></trkpt><trkpt lat="43.93155504185371" lon="11.860178463975968"><ele>375.0</ele><time>2026-04-05T15:35:20Z</time></trkpt><trkpt lat="43.93158746332185" lon="11.859970421103686"><ele>372.0</ele><time>2026-04-05T15:35:21Z</time></trkpt><trkpt lat="43.93164018668581" lon="11.859750660843865"><ele>369.0</ele><time>2026-04-05T15:35:22Z</time></trkpt><trkpt lat="43.93167100485378" lon="11.859528984154746"><ele>369.0</ele><time>2026-04-05T15:35:23Z</time></trkpt><trkpt lat="43.931675531487144" lon="11.85930654506835"><ele>369.0</ele><time>2026-04-05T15:35:24Z</time></trkpt><trkpt lat="43.93168252002003" lon="11.859081417499402"><ele>369.0</ele><time>2026-04-05T15:35:25Z</time></trkpt><trkpt lat="43.931670058138494" lon="11.858857375207737"><ele>370.6666666666667</ele><time>2026-04-05T15:35:26Z</time></trkpt><trkpt lat="43.93162772209841" lon="11.858632710714149"><ele>372.33333333333337</ele><time>2026-04-05T15:35:27Z</time></trkpt><trkpt lat="43.93157809851681" lon="11.85841272965126"><ele>374.0</ele><time>2026-04-05T15:35:28Z</time></trkpt><trkpt lat="43.93153324981082" lon="11.858192631165537"><ele>376.6666666666667</ele><time>2026-04-05T15:35:29Z</time></trkpt><trkpt lat="43.93150654298265" lon="11.857960529966045"><ele>379.3333333333333</ele><time>2026-04-05T15:35:30Z</time></trkpt><trkpt lat="43.931450408385146" lon="11.857737956516045"><ele>382.0</ele><time>2026-04-05T15:35:31Z</time></trkpt><trkpt lat="43.93141585167702" lon="11.857505453758936"><ele>382.3333333333333</ele><time>2026-04-05T15:35:32Z</time></trkpt><trkpt lat="43.931380510384585" lon="11.857271326119434"><ele>382.6666666666667</ele><time>2026-04-05T15:35:33Z</time></trkpt><trkpt lat="43.931341870660596" lon="11.85703805073177"><ele>383.0</ele><time>2026-04-05T15:35:34Z</time></trkpt><trkpt lat="43.93130217935163" lon="11.856816238803958"><ele>381.6666666666667</ele><time>2026-04-05T15:35:35Z</time></trkpt><trkpt lat="43.931257105019874" lon="11.856592833061564"><ele>380.3333333333333</ele><time>2026-04-05T15:35:36Z</time></trkpt><trkpt lat="43.93117375976439" lon="11.85638232311356"><ele>379.0</ele><time>2026-04-05T15:35:37Z</time></trkpt><trkpt lat="43.93105070831894" lon="11.856185455494737"><ele>379.0</ele><time>2026-04-05T15:35:38Z</time></trkpt><trkpt lat="43.93090812631163" lon="11.855996531074162"><ele>379.0</ele><time>2026-04-05T15:35:39Z</time></trkpt><trkpt lat="43.930772537032325" lon="11.855782235652246"><ele>379.0</ele><time>2026-04-05T15:35:40Z</time></trkpt><trkpt lat="43.930643706466235" lon="11.855556457486282"><ele>376.0</ele><time>2026-04-05T15:35:41Z</time></trkpt><trkpt lat="43.93052744420693" lon="11.85534981419553"><ele>373.0</ele><time>2026-04-05T15:35:42Z</time></trkpt><trkpt lat="43.93041630184598" lon="11.855164624286573"><ele>370.0</ele><time>2026-04-05T15:35:43Z</time></trkpt><trkpt lat="43.93031929384252" lon="11.854987809141662"><ele>377.3333333333333</ele><time>2026-04-05T15:35:44Z</time></trkpt><trkpt lat="43.93024938248997" lon="11.854800587745052"><ele>384.66666666666663</ele><time>2026-04-05T15:35:45Z</time></trkpt><trkpt lat="43.93021151706664" lon="11.854581436662421"><ele>392.0</ele><time>2026-04-05T15:35:46Z</time></trkpt><trkpt lat="43.93018209887016" lon="11.854332879971395"><ele>395.0</ele><time>2026-04-05T15:35:47Z</time></trkpt><trkpt lat="43.93015684085581" lon="11.85409203569587"><ele>398.0</ele><time>2026-04-05T15:35:48Z</time></trkpt><trkpt lat="43.93014629026483" lon="11.853849341396705"><ele>401.0</ele><time>2026-04-05T15:35:49Z</time></trkpt><trkpt lat="43.93012415398283" lon="11.853608839041836"><ele>397.0</ele><time>2026-04-05T15:35:50.001Z</time></trkpt><trkpt lat="43.930092725684766" lon="11.853368219597655"><ele>393.0</ele><time>2026-04-05T15:35:51.001Z</time></trkpt><trkpt lat="43.929839014000166" lon="11.85316384703532"><ele>386.6666666666667</ele><time>2026-04-05T15:35:52.001Z</time></trkpt><trkpt lat="43.92976883989562" lon="11.852932511790543"><ele>380.33333333333337</ele><time>2026-04-05T15:35:53.001Z</time></trkpt><trkpt lat="43.92971925905912" lon="11.852706527356482"><ele>374.0</ele><time>2026-04-05T15:35:54.001Z</time></trkpt><trkpt lat="43.92970395580179" lon="11.852473609963186"><ele>374.0</ele><time>2026-04-05T15:35:55.001Z</time></trkpt><trkpt lat="43.92973071161552" lon="11.852226411085969"><ele>374.0</ele><time>2026-04-05T15:35:56.001Z</time></trkpt><trkpt lat="43.92977185140422" lon="11.851977546495673"><ele>374.0</ele><time>2026-04-05T15:35:57.001Z</time></trkpt><trkpt lat="43.92980544671004" lon="11.851738739446523"><ele>374.25</ele><time>2026-04-05T15:35:58.001Z</time></trkpt><trkpt lat="43.92982911632235" lon="11.85152943855878"><ele>374.5</ele><time>2026-04-05T15:35:59.001Z</time></trkpt><trkpt lat="43.92985245658805" lon="11.85132835966885"><ele>374.75</ele><time>2026-04-05T15:36:00.001Z</time></trkpt><trkpt lat="43.92989215442206" lon="11.851154177054575"><ele>375.0</ele><time>2026-04-05T15:36:01.001Z</time></trkpt><trkpt lat="43.92996422143206" lon="11.851033383234308"><ele>374.2</ele><time>2026-04-05T15:36:02.001Z</time></trkpt><trkpt lat="43.93005503129819" lon="11.85093314484764"><ele>373.4</ele><time>2026-04-05T15:36:03.001Z</time></trkpt><trkpt lat="43.93011502280038" lon="11.850828952870673"><ele>372.6</ele><time>2026-04-05T15:36:04.001Z</time></trkpt><trkpt lat="43.93013096966642" lon="11.850683342437359"><ele>371.8</ele><time>2026-04-05T15:36:05.001Z</time></trkpt><trkpt lat="43.930104087849415" lon="11.85051383551057"><ele>371.0</ele><time>2026-04-05T15:36:06.001Z</time></trkpt><trkpt lat="43.93007305911437" lon="11.850338995846702"><ele>371.0</ele><time>2026-04-05T15:36:07.001Z</time></trkpt><trkpt lat="43.930037639188406" lon="11.850171900451702"><ele>371.0</ele><time>2026-04-05T15:36:08.001Z</time></trkpt><trkpt lat="43.92996061672008" lon="11.850028371214659"><ele>371.0</ele><time>2026-04-05T15:36:09.001Z</time></trkpt><trkpt lat="43.92983913817314" lon="11.849936064213994"><ele>371.0</ele><time>2026-04-05T15:36:10.001Z</time></trkpt><trkpt lat="43.92969225450576" lon="11.849863933747294"><ele>372.0</ele><time>2026-04-05T15:36:11.001Z</time></trkpt><trkpt lat="43.929540554973464" lon="11.849784490567897"><ele>373.0</ele><time>2026-04-05T15:36:12.001Z</time></trkpt><trkpt lat="43.92938193971129" lon="11.849693674479258"><ele>374.0</ele><time>2026-04-05T15:36:13.001Z</time></trkpt><trkpt lat="43.929195577984366" lon="11.849609880278308"><ele>370.5</ele><time>2026-04-05T15:36:14.001Z</time></trkpt><trkpt lat="43.92898413066819" lon="11.849526526397234"><ele>367.0</ele><time>2026-04-05T15:36:15.001Z</time></trkpt><trkpt lat="43.92874132751241" lon="11.849427441048817"><ele>367.0</ele><time>2026-04-05T15:36:16.001Z</time></trkpt><trkpt lat="43.928530652456054" lon="11.849355754920353"><ele>367.0</ele><time>2026-04-05T15:36:17.001Z</time></trkpt><trkpt lat="43.92827566185604" lon="11.849278837203327"><ele>373.0</ele><time>2026-04-05T15:36:18.001Z</time></trkpt><trkpt lat="43.92801443621534" lon="11.849219598396221"><ele>379.0</ele><time>2026-04-05T15:36:19.001Z</time></trkpt><trkpt lat="43.92778410988298" lon="11.849188390048985"><ele>379.0</ele><time>2026-04-05T15:36:20.001Z</time></trkpt><trkpt lat="43.92757340398177" lon="11.849142184981227"><ele>379.0</ele><time>2026-04-05T15:36:21.001Z</time></trkpt><trkpt lat="43.92736940481421" lon="11.849048822905019"><ele>379.0</ele><time>2026-04-05T15:36:22.001Z</time></trkpt><trkpt lat="43.927171606941634" lon="11.84894408260481"><ele>377.3333333333333</ele><time>2026-04-05T15:36:23.001Z</time></trkpt><trkpt lat="43.92699471801684" lon="11.848841426010368"><ele>375.6666666666667</ele><time>2026-04-05T15:36:24.001Z</time></trkpt><trkpt lat="43.926832016149056" lon="11.848723334300079"><ele>374.0</ele><time>2026-04-05T15:36:25.001Z</time></trkpt><trkpt lat="43.9266935442607" lon="11.848579923218969"><ele>374.6666666666667</ele><time>2026-04-05T15:36:26.001Z</time></trkpt><trkpt lat="43.92657215495317" lon="11.848416101789704"><ele>375.3333333333333</ele><time>2026-04-05T15:36:27.001Z</time></trkpt><trkpt lat="43.92638616886717" lon="11.8481902572135"><ele>376.0</ele><time>2026-04-05T15:36:28.001Z</time></trkpt><trkpt lat="43.92619607701659" lon="11.84799327326231"><ele>376.0</ele><time>2026-04-05T15:36:29.001Z</time></trkpt><trkpt lat="43.92598680344557" lon="11.847891712918496"><ele>376.0</ele><time>2026-04-05T15:36:30.001Z</time></trkpt><trkpt lat="43.92577616494023" lon="11.847829364186737"><ele>376.0</ele><time>2026-04-05T15:36:31.001Z</time></trkpt><trkpt lat="43.92557045203784" lon="11.847794619176426"><ele>370.5</ele><time>2026-04-05T15:36:32Z</time></trkpt><trkpt lat="43.92534800976559" lon="11.847802334306024"><ele>365.0</ele><time>2026-04-05T15:36:33Z</time></trkpt><trkpt lat="43.925108873362284" lon="11.8478480279287"><ele>365.5</ele><time>2026-04-05T15:36:34Z</time></trkpt><trkpt lat="43.9248574364225" lon="11.847909773777593"><ele>366.0</ele><time>2026-04-05T15:36:35Z</time></trkpt><trkpt lat="43.924588282939716" lon="11.848002890452078"><ele>366.0</ele><time>2026-04-05T15:36:36Z</time></trkpt><trkpt lat="43.924300789235" lon="11.8480617982173"><ele>366.0</ele><time>2026-04-05T15:36:37Z</time></trkpt><trkpt lat="43.92403618678338" lon="11.8481146365029"><ele>370.3333333333333</ele><time>2026-04-05T15:36:38Z</time></trkpt><trkpt lat="43.923804957293044" lon="11.848174958084808"><ele>374.66666666666663</ele><time>2026-04-05T15:36:39Z</time></trkpt><trkpt lat="43.923594655753554" lon="11.848214936532207"><ele>379.0</ele><time>2026-04-05T15:36:40Z</time></trkpt><trkpt lat="43.92339555712038" lon="11.848255098759594"><ele>380.3333333333333</ele><time>2026-04-05T15:36:41Z</time></trkpt><trkpt lat="43.92321239439589" lon="11.848290791225374"><ele>381.6666666666667</ele><time>2026-04-05T15:36:42Z</time></trkpt><trkpt lat="43.92305393581332" lon="11.848325048377816"><ele>383.0</ele><time>2026-04-05T15:36:43Z</time></trkpt><trkpt lat="43.92292235747826" lon="11.84832825213074"><ele>383.0</ele><time>2026-04-05T15:36:44Z</time></trkpt><trkpt lat="43.92279350476393" lon="11.84834944362967"><ele>383.0</ele><time>2026-04-05T15:36:45Z</time></trkpt><trkpt lat="43.92268242716238" lon="11.848370893895598"><ele>383.0</ele><time>2026-04-05T15:36:46Z</time></trkpt><trkpt lat="43.922587872448254" lon="11.848268734916438"><ele>383.0</ele><time>2026-04-05T15:36:47Z</time></trkpt><trkpt lat="43.92253682283338" lon="11.848127059387707"><ele>383.0</ele><time>2026-04-05T15:36:48Z</time></trkpt><trkpt lat="43.922556295593196" lon="11.847923743098237"><ele>383.0</ele><time>2026-04-05T15:36:49Z</time></trkpt><trkpt lat="43.922648768990875" lon="11.847788598267837"><ele>383.0</ele><time>2026-04-05T15:36:50Z</time></trkpt><trkpt lat="43.922751949315895" lon="11.847640778170154"><ele>383.0</ele><time>2026-04-05T15:36:51Z</time></trkpt><trkpt lat="43.92281948355539" lon="11.84754639491193"><ele>388.0</ele><time>2026-04-05T15:36:52Z</time></trkpt><trkpt lat="43.92292694263576" lon="11.847389819014204"><ele>393.0</ele><time>2026-04-05T15:36:53Z</time></trkpt><trkpt lat="43.92301632897085" lon="11.847198754438656"><ele>398.0</ele><time>2026-04-05T15:36:54Z</time></trkpt><trkpt lat="43.92310647334005" lon="11.846988789571917"><ele>398.0</ele><time>2026-04-05T15:36:55Z</time></trkpt><trkpt lat="43.92320932147464" lon="11.846804404494522"><ele>398.0</ele><time>2026-04-05T15:36:56Z</time></trkpt><trkpt lat="43.923337720598234" lon="11.84665279187726"><ele>398.0</ele><time>2026-04-05T15:36:57Z</time></trkpt><trkpt lat="43.923496038409596" lon="11.846495096341956"><ele>404.66666666666663</ele><time>2026-04-05T15:36:58Z</time></trkpt><trkpt lat="43.92362400957257" lon="11.846289121066281"><ele>411.33333333333337</ele><time>2026-04-05T15:36:59Z</time></trkpt><trkpt lat="43.9237456101827" lon="11.846057337649752"><ele>418.0</ele><time>2026-04-05T15:37:00Z</time></trkpt><trkpt lat="43.92384182534737" lon="11.845825361453542"><ele>418.0</ele><time>2026-04-05T15:37:01Z</time></trkpt><trkpt lat="43.92393020163423" lon="11.845598018018586"><ele>418.0</ele><time>2026-04-05T15:37:02Z</time></trkpt><trkpt lat="43.92397842059221" lon="11.845345309835903"><ele>418.0</ele><time>2026-04-05T15:37:03Z</time></trkpt><trkpt lat="43.92397118423132" lon="11.845068613232595"><ele>417.33333333333337</ele><time>2026-04-05T15:37:04Z</time></trkpt><trkpt lat="43.92394382427225" lon="11.84480662263715"><ele>416.66666666666663</ele><time>2026-04-05T15:37:05Z</time></trkpt><trkpt lat="43.9238864734827" lon="11.84456084487574"><ele>416.0</ele><time>2026-04-05T15:37:06Z</time></trkpt><trkpt lat="43.92381785659408" lon="11.844344089452168"><ele>418.66666666666663</ele><time>2026-04-05T15:37:07Z</time></trkpt><trkpt lat="43.92373676479452" lon="11.844144421801897"><ele>421.33333333333337</ele><time>2026-04-05T15:37:08Z</time></trkpt><trkpt lat="43.923607358225894" lon="11.843977756065128"><ele>424.0</ele><time>2026-04-05T15:37:09Z</time></trkpt><trkpt lat="43.92344120813526" lon="11.843832111814105"><ele>411.0</ele><time>2026-04-05T15:37:10Z</time></trkpt><trkpt lat="43.92328458093187" lon="11.843706890811054"><ele>398.0</ele><time>2026-04-05T15:37:11Z</time></trkpt><trkpt lat="43.9230984830509" lon="11.84365093395122"><ele>385.0</ele><time>2026-04-05T15:37:12Z</time></trkpt><trkpt lat="43.922882488221624" lon="11.843638450589369"><ele>385.0</ele><time>2026-04-05T15:37:13Z</time></trkpt><trkpt lat="43.922662382269095" lon="11.843675059383882"><ele>385.0</ele><time>2026-04-05T15:37:14Z</time></trkpt><trkpt lat="43.92244842301598" lon="11.843777935988589"><ele>385.0</ele><time>2026-04-05T15:37:15Z</time></trkpt><trkpt lat="43.92225750503144" lon="11.84391575781895"><ele>384.6666666666667</ele><time>2026-04-05T15:37:16Z</time></trkpt><trkpt lat="43.922091332419164" lon="11.844040764088643"><ele>384.33333333333337</ele><time>2026-04-05T15:37:17Z</time></trkpt><trkpt lat="43.92193413729567" lon="11.844128789066046"><ele>384.0</ele><time>2026-04-05T15:37:18Z</time></trkpt><trkpt lat="43.921774372570965" lon="11.844079433843099"><ele>387.33333333333337</ele><time>2026-04-05T15:37:19Z</time></trkpt><trkpt lat="43.92159963391407" lon="11.844004344890916"><ele>390.6666666666667</ele><time>2026-04-05T15:37:20Z</time></trkpt><trkpt lat="43.92142789381178" lon="11.843967408421156"><ele>394.0</ele><time>2026-04-05T15:37:21Z</time></trkpt><trkpt lat="43.92125269456075" lon="11.844017686477727"><ele>394.0</ele><time>2026-04-05T15:37:22Z</time></trkpt><trkpt lat="43.92109532308043" lon="11.844115586351379"><ele>394.0</ele><time>2026-04-05T15:37:23Z</time></trkpt><trkpt lat="43.92096038312529" lon="11.844164177298534"><ele>394.0</ele><time>2026-04-05T15:37:24Z</time></trkpt><trkpt lat="43.92080718225722" lon="11.84421937948426"><ele>395.75</ele><time>2026-04-05T15:37:25Z</time></trkpt><trkpt lat="43.92071554674066" lon="11.84422187244895"><ele>397.5</ele><time>2026-04-05T15:37:26Z</time></trkpt><trkpt lat="43.9206095435179" lon="11.84419376563518"><ele>399.25</ele><time>2026-04-05T15:37:27Z</time></trkpt><trkpt lat="43.920580151536804" lon="11.843931006351841"><ele>401.0</ele><time>2026-04-05T15:37:28Z</time></trkpt><trkpt lat="43.92051148460375" lon="11.843728426593866"><ele>401.0</ele><time>2026-04-05T15:37:29Z</time></trkpt><trkpt lat="43.92041201530446" lon="11.843575563745194"><ele>401.0</ele><time>2026-04-05T15:37:30Z</time></trkpt><trkpt lat="43.920261314102895" lon="11.843478357980613"><ele>401.0</ele><time>2026-04-05T15:37:31Z</time></trkpt><trkpt lat="43.9200997241077" lon="11.843438149649756"><ele>402.66666666666663</ele><time>2026-04-05T15:37:32Z</time></trkpt><trkpt lat="43.91994392126932" lon="11.843391008975932"><ele>404.33333333333337</ele><time>2026-04-05T15:37:33Z</time></trkpt><trkpt lat="43.919807867490164" lon="11.843314438089124"><ele>406.0</ele><time>2026-04-05T15:37:34Z</time></trkpt><trkpt lat="43.91968815980076" lon="11.843197609718505"><ele>406.0</ele><time>2026-04-05T15:37:35Z</time></trkpt><trkpt lat="43.919589376879635" lon="11.84306922437683"><ele>406.0</ele><time>2026-04-05T15:37:36Z</time></trkpt><trkpt lat="43.91948790406295" lon="11.842980781754374"><ele>406.0</ele><time>2026-04-05T15:37:37Z</time></trkpt><trkpt lat="43.91937980834244" lon="11.842947111299079"><ele>406.0</ele><time>2026-04-05T15:37:38Z</time></trkpt><trkpt lat="43.91927436750828" lon="11.842919716234276"><ele>406.25</ele><time>2026-04-05T15:37:39Z</time></trkpt><trkpt lat="43.91920177541989" lon="11.842842010640537"><ele>406.5</ele><time>2026-04-05T15:37:40Z</time></trkpt><trkpt lat="43.919159539311" lon="11.842689081636175"><ele>406.75</ele><time>2026-04-05T15:37:41Z</time></trkpt><trkpt lat="43.91918156577289" lon="11.84249907313719"><ele>407.0</ele><time>2026-04-05T15:37:42Z</time></trkpt><trkpt lat="43.91918133612607" lon="11.842307305996192"><ele>407.0</ele><time>2026-04-05T15:37:43Z</time></trkpt><trkpt lat="43.919184471363636" lon="11.842121674314285"><ele>407.0</ele><time>2026-04-05T15:37:44Z</time></trkpt><trkpt lat="43.919180270336355" lon="11.84192872849799"><ele>407.0</ele><time>2026-04-05T15:37:45.001Z</time></trkpt><trkpt lat="43.91915664958072" lon="11.841726986901609"><ele>407.0</ele><time>2026-04-05T15:37:46.001Z</time></trkpt><trkpt lat="43.91912407205788" lon="11.8415254409323"><ele>408.3333333333333</ele><time>2026-04-05T15:37:47.001Z</time></trkpt><trkpt lat="43.91909047929031" lon="11.841318240568334"><ele>409.66666666666663</ele><time>2026-04-05T15:37:48.001Z</time></trkpt><trkpt lat="43.91906002581346" lon="11.841110121562416"><ele>411.0</ele><time>2026-04-05T15:37:49.001Z</time></trkpt><trkpt lat="43.91903305977018" lon="11.840895468655415"><ele>412.0</ele><time>2026-04-05T15:37:50.001Z</time></trkpt><trkpt lat="43.91900914597813" lon="11.840682564807711"><ele>413.0</ele><time>2026-04-05T15:37:51.001Z</time></trkpt><trkpt lat="43.918981366367966" lon="11.840473215419799"><ele>414.0</ele><time>2026-04-05T15:37:52.001Z</time></trkpt><trkpt lat="43.91893790543573" lon="11.84026719825429"><ele>410.33333333333337</ele><time>2026-04-05T15:37:53.001Z</time></trkpt><trkpt lat="43.91887928593167" lon="11.840069717252343"><ele>406.6666666666667</ele><time>2026-04-05T15:37:54.001Z</time></trkpt><trkpt lat="43.91881546618463" lon="11.839876933080966"><ele>403.0</ele><time>2026-04-05T15:37:55.001Z</time></trkpt><trkpt lat="43.918758742859296" lon="11.839684864662582"><ele>403.0</ele><time>2026-04-05T15:37:56.001Z</time></trkpt><trkpt lat="43.91870890197288" lon="11.83949519004717"><ele>403.0</ele><time>2026-04-05T15:37:57.001Z</time></trkpt><trkpt lat="43.91866256985983" lon="11.839310319281182"><ele>403.0</ele><time>2026-04-05T15:37:58.001Z</time></trkpt><trkpt lat="43.918618062631936" lon="11.839125301472052"><ele>403.0</ele><time>2026-04-05T15:37:59.001Z</time></trkpt><trkpt lat="43.91858515065977" lon="11.83894062590066"><ele>404.75</ele><time>2026-04-05T15:38:00.001Z</time></trkpt><trkpt lat="43.91855149692199" lon="11.838757704478752"><ele>406.5</ele><time>2026-04-05T15:38:01.001Z</time></trkpt><trkpt lat="43.918501224617586" lon="11.83858920476398"><ele>408.25</ele><time>2026-04-05T15:38:02.001Z</time></trkpt><trkpt lat="43.918418320570105" lon="11.838445390856691"><ele>410.0</ele><time>2026-04-05T15:38:03.001Z</time></trkpt><trkpt lat="43.91829781775968" lon="11.838333997374079"><ele>410.0</ele><time>2026-04-05T15:38:04.001Z</time></trkpt><trkpt lat="43.9181562641507" lon="11.83823829350244"><ele>410.0</ele><time>2026-04-05T15:38:05.001Z</time></trkpt><trkpt lat="43.91802045467637" lon="11.838148558757034"><ele>410.0</ele><time>2026-04-05T15:38:06.001Z</time></trkpt><trkpt lat="43.91786653866495" lon="11.838096381969823"><ele>410.0</ele><time>2026-04-05T15:38:07.001Z</time></trkpt><trkpt lat="43.917705154631854" lon="11.83804976055894"><ele>410.0</ele><time>2026-04-05T15:38:08.001Z</time></trkpt><trkpt lat="43.91754150608659" lon="11.83799001609961"><ele>410.0</ele><time>2026-04-05T15:38:09.001Z</time></trkpt><trkpt lat="43.91736471454737" lon="11.837932193799933"><ele>406.0</ele><time>2026-04-05T15:38:10.001Z</time></trkpt><trkpt lat="43.91720107529853" lon="11.837864780077352"><ele>402.0</ele><time>2026-04-05T15:38:11.001Z</time></trkpt><trkpt lat="43.91703618388462" lon="11.837794922185477"><ele>398.0</ele><time>2026-04-05T15:38:12.001Z</time></trkpt><trkpt lat="43.916865783911824" lon="11.837728389189852"><ele>397.66666666666663</ele><time>2026-04-05T15:38:13.001Z</time></trkpt><trkpt lat="43.91671080692423" lon="11.837672102911158"><ele>397.33333333333337</ele><time>2026-04-05T15:38:14.001Z</time></trkpt><trkpt lat="43.91657352663768" lon="11.83759456239197"><ele>397.0</ele><time>2026-04-05T15:38:15.001Z</time></trkpt><trkpt lat="43.916453486194754" lon="11.837453672398329"><ele>400.0</ele><time>2026-04-05T15:38:16.001Z</time></trkpt><trkpt lat="43.91632596702903" lon="11.837290967536553"><ele>403.0</ele><time>2026-04-05T15:38:17.001Z</time></trkpt><trkpt lat="43.916167103794635" lon="11.837166493937971"><ele>406.0</ele><time>2026-04-05T15:38:18.001Z</time></trkpt><trkpt lat="43.9159792945783" lon="11.837049191516089"><ele>408.33333333333337</ele><time>2026-04-05T15:38:19.001Z</time></trkpt><trkpt lat="43.91572493581684" lon="11.836941070705612"><ele>410.66666666666663</ele><time>2026-04-05T15:38:20.001Z</time></trkpt><trkpt lat="43.91557889760988" lon="11.836868386608003"><ele>413.0</ele><time>2026-04-05T15:38:21.001Z</time></trkpt><trkpt lat="43.915368271321896" lon="11.83675793174012"><ele>413.0</ele><time>2026-04-05T15:38:22.001Z</time></trkpt><trkpt lat="43.915181180046055" lon="11.836654668088986"><ele>413.0</ele><time>2026-04-05T15:38:23.001Z</time></trkpt><trkpt lat="43.91501971369116" lon="11.836562766764796"><ele>413.0</ele><time>2026-04-05T15:38:24.001Z</time></trkpt><trkpt lat="43.91487297311843" lon="11.836481320590652"><ele>411.5</ele><time>2026-04-05T15:38:25.001Z</time></trkpt><trkpt lat="43.91473585012067" lon="11.836437203752409"><ele>410.0</ele><time>2026-04-05T15:38:26.001Z</time></trkpt><trkpt lat="43.91459910928142" lon="11.836392874237209"><ele>408.5</ele><time>2026-04-05T15:38:27.001Z</time></trkpt><trkpt lat="43.914455335172164" lon="11.836345419478938"><ele>407.0</ele><time>2026-04-05T15:38:28.001Z</time></trkpt><trkpt lat="43.9143018424427" lon="11.836302252280845"><ele>407.5</ele><time>2026-04-05T15:38:29.001Z</time></trkpt><trkpt lat="43.91410160262342" lon="11.8366421964176"><ele>408.0</ele><time>2026-04-05T15:38:30.001Z</time></trkpt><trkpt lat="43.91396196615846" lon="11.8366877396387"><ele>408.0</ele><time>2026-04-05T15:38:31.001Z</time></trkpt><trkpt lat="43.91382307605459" lon="11.836694012237093"><ele>408.0</ele><time>2026-04-05T15:38:32.001Z</time></trkpt><trkpt lat="43.91367424420608" lon="11.836652160392408"><ele>408.0</ele><time>2026-04-05T15:38:33.001Z</time></trkpt><trkpt lat="43.91351658959128" lon="11.836560660131966"><ele>406.66666666666663</ele><time>2026-04-05T15:38:34.001Z</time></trkpt><trkpt lat="43.913348136696676" lon="11.836476274796311"><ele>405.3333333333333</ele><time>2026-04-05T15:38:35.001Z</time></trkpt><trkpt lat="43.91317708850019" lon="11.836402377311893"><ele>404.0</ele><time>2026-04-05T15:38:36.001Z</time></trkpt><trkpt lat="43.91298497245415" lon="11.83636997204376"><ele>404.0</ele><time>2026-04-05T15:38:37.001Z</time></trkpt><trkpt lat="43.91279079203736" lon="11.836365399845052"><ele>404.0</ele><time>2026-04-05T15:38:38Z</time></trkpt><trkpt lat="43.91259000412844" lon="11.836366669384445"><ele>404.0</ele><time>2026-04-05T15:38:39Z</time></trkpt><trkpt lat="43.912392109452036" lon="11.836355381654792"><ele>403.66666666666663</ele><time>2026-04-05T15:38:40Z</time></trkpt><trkpt lat="43.912209837812654" lon="11.8363343373131"><ele>403.33333333333337</ele><time>2026-04-05T15:38:41Z</time></trkpt><trkpt lat="43.91204455842615" lon="11.836306354008773"><ele>403.0</ele><time>2026-04-05T15:38:42Z</time></trkpt><trkpt lat="43.91189382121559" lon="11.836267199058991"><ele>403.0</ele><time>2026-04-05T15:38:43Z</time></trkpt><trkpt lat="43.91175406070484" lon="11.836199921778306"><ele>403.0</ele><time>2026-04-05T15:38:44Z</time></trkpt><trkpt lat="43.911613585880445" lon="11.836107503350322"><ele>403.0</ele><time>2026-04-05T15:38:45Z</time></trkpt><trkpt lat="43.91147248744067" lon="11.835991912722235"><ele>406.0</ele><time>2026-04-05T15:38:46Z</time></trkpt><trkpt lat="43.911324485918165" lon="11.835871375303025"><ele>409.0</ele><time>2026-04-05T15:38:47Z</time></trkpt><trkpt lat="43.91116970800679" lon="11.83575676646621"><ele>412.0</ele><time>2026-04-05T15:38:48Z</time></trkpt><trkpt lat="43.91101383187318" lon="11.835640059861015"><ele>410.33333333333337</ele><time>2026-04-05T15:38:49Z</time></trkpt><trkpt lat="43.91085689860904" lon="11.835527801752184"><ele>408.66666666666663</ele><time>2026-04-05T15:38:50Z</time></trkpt><trkpt lat="43.91070305768808" lon="11.835411605365483"><ele>407.0</ele><time>2026-04-05T15:38:51Z</time></trkpt><trkpt lat="43.91054911360033" lon="11.835297719517396"><ele>407.0</ele><time>2026-04-05T15:38:52Z</time></trkpt><trkpt lat="43.910405079905956" lon="11.835198657885721"><ele>407.0</ele><time>2026-04-05T15:38:53Z</time></trkpt><trkpt lat="43.910274247494684" lon="11.835107031820192"><ele>407.0</ele><time>2026-04-05T15:38:54Z</time></trkpt><trkpt lat="43.910151837857654" lon="11.83502417058448"><ele>407.0</ele><time>2026-04-05T15:38:55Z</time></trkpt><trkpt lat="43.91005143276774" lon="11.834915018012541"><ele>408.0</ele><time>2026-04-05T15:38:56Z</time></trkpt><trkpt lat="43.90999425979921" lon="11.834746657793676"><ele>409.0</ele><time>2026-04-05T15:38:57Z</time></trkpt><trkpt lat="43.90997223645202" lon="11.834534442067099"><ele>410.0</ele><time>2026-04-05T15:38:58Z</time></trkpt><trkpt lat="43.909960302771836" lon="11.834306939379445"><ele>411.66666666666663</ele><time>2026-04-05T15:38:59Z</time></trkpt><trkpt lat="43.90992558215014" lon="11.834079433804101"><ele>413.33333333333337</ele><time>2026-04-05T15:39:00Z</time></trkpt><trkpt lat="43.90988310035201" lon="11.833845154581905"><ele>415.0</ele><time>2026-04-05T15:39:01Z</time></trkpt><trkpt lat="43.90983073475328" lon="11.833614826375923"><ele>416.6666666666667</ele><time>2026-04-05T15:39:02Z</time></trkpt><trkpt lat="43.909757977746324" lon="11.83338875376904"><ele>418.33333333333337</ele><time>2026-04-05T15:39:03Z</time></trkpt><trkpt lat="43.90967565058368" lon="11.833163303484964"><ele>420.0</ele><time>2026-04-05T15:39:04Z</time></trkpt><trkpt lat="43.909603767311275" lon="11.832936062217316"><ele>420.0</ele><time>2026-04-05T15:39:05Z</time></trkpt><trkpt lat="43.909557639306136" lon="11.832697734085842"><ele>420.0</ele><time>2026-04-05T15:39:06Z</time></trkpt><trkpt lat="43.90954080344496" lon="11.83245398048807"><ele>420.0</ele><time>2026-04-05T15:39:07Z</time></trkpt><trkpt lat="43.909534530694444" lon="11.832207447353994"><ele>423.33333333333337</ele><time>2026-04-05T15:39:08Z</time></trkpt><trkpt lat="43.909520237678855" lon="11.831963685385098"><ele>426.6666666666667</ele><time>2026-04-05T15:39:09Z</time></trkpt><trkpt lat="43.90948712599232" lon="11.831724839959442"><ele>430.0</ele><time>2026-04-05T15:39:10Z</time></trkpt><trkpt lat="43.9094237205601" lon="11.83149722981643"><ele>432.33333333333337</ele><time>2026-04-05T15:39:11Z</time></trkpt><trkpt lat="43.90934404096856" lon="11.831273606692669"><ele>434.66666666666663</ele><time>2026-04-05T15:39:12Z</time></trkpt><trkpt lat="43.90926262751492" lon="11.831054646930044"><ele>437.0</ele><time>2026-04-05T15:39:13Z</time></trkpt><trkpt lat="43.909184995292705" lon="11.830842429388277"><ele>431.0</ele><time>2026-04-05T15:39:14Z</time></trkpt><trkpt lat="43.90911070747032" lon="11.830637042368497"><ele>425.0</ele><time>2026-04-05T15:39:15Z</time></trkpt><trkpt lat="43.90904297404684" lon="11.830443973573766"><ele>419.0</ele><time>2026-04-05T15:39:16Z</time></trkpt><trkpt lat="43.90897182503277" lon="11.83025892243359"><ele>421.3333333333333</ele><time>2026-04-05T15:39:17Z</time></trkpt><trkpt lat="43.90892005635191" lon="11.830053180486955"><ele>423.66666666666663</ele><time>2026-04-05T15:39:18Z</time></trkpt><trkpt lat="43.90891654462869" lon="11.82981722225053"><ele>426.0</ele><time>2026-04-05T15:39:19Z</time></trkpt><trkpt lat="43.90893892663561" lon="11.82957776690697"><ele>426.0</ele><time>2026-04-05T15:39:20Z</time></trkpt><trkpt lat="43.908965554573506" lon="11.829338160375213"><ele>426.0</ele><time>2026-04-05T15:39:21Z</time></trkpt><trkpt lat="43.90901101842482" lon="11.829086930589245"><ele>426.0</ele><time>2026-04-05T15:39:22Z</time></trkpt><trkpt lat="43.909032291220676" lon="11.828831957022556"><ele>426.33333333333337</ele><time>2026-04-05T15:39:23Z</time></trkpt><trkpt lat="43.90905483981694" lon="11.828572860360854"><ele>426.6666666666667</ele><time>2026-04-05T15:39:24Z</time></trkpt><trkpt lat="43.90907998511182" lon="11.82832022549192"><ele>427.0</ele><time>2026-04-05T15:39:25Z</time></trkpt><trkpt lat="43.909099357716386" lon="11.828073880862304"><ele>427.0</ele><time>2026-04-05T15:39:26Z</time></trkpt><trkpt lat="43.909113653160276" lon="11.82783275437813"><ele>427.0</ele><time>2026-04-05T15:39:27Z</time></trkpt><trkpt lat="43.909121923043486" lon="11.82758716755936"><ele>427.0</ele><time>2026-04-05T15:39:28Z</time></trkpt><trkpt lat="43.909129127131884" lon="11.82733650666769"><ele>426.6666666666667</ele><time>2026-04-05T15:39:29Z</time></trkpt><trkpt lat="43.90913330127612" lon="11.827089109051366"><ele>426.33333333333337</ele><time>2026-04-05T15:39:30Z</time></trkpt><trkpt lat="43.90912258966742" lon="11.826842400469712"><ele>426.0</ele><time>2026-04-05T15:39:31Z</time></trkpt><trkpt lat="43.90911250460654" lon="11.826598563642486"><ele>428.0</ele><time>2026-04-05T15:39:32Z</time></trkpt><trkpt lat="43.90910881484186" lon="11.826355435170795"><ele>430.0</ele><time>2026-04-05T15:39:33Z</time></trkpt><trkpt lat="43.909106157924256" lon="11.82611913518578"><ele>432.0</ele><time>2026-04-05T15:39:34Z</time></trkpt><trkpt lat="43.90909371026616" lon="11.825892736753978"><ele>434.0</ele><time>2026-04-05T15:39:35Z</time></trkpt><trkpt lat="43.90905473493237" lon="11.825658695971743"><ele>436.0</ele><time>2026-04-05T15:39:36Z</time></trkpt><trkpt lat="43.90896984551724" lon="11.82546544095158"><ele>438.0</ele><time>2026-04-05T15:39:37Z</time></trkpt><trkpt lat="43.908861450677875" lon="11.825287506361738"><ele>435.0</ele><time>2026-04-05T15:39:38Z</time></trkpt><trkpt lat="43.90873044030803" lon="11.825127375458425"><ele>432.0</ele><time>2026-04-05T15:39:39Z</time></trkpt><trkpt lat="43.90857466936303" lon="11.825018936916878"><ele>429.0</ele><time>2026-04-05T15:39:40Z</time></trkpt><trkpt lat="43.90840884334131" lon="11.824936700845742"><ele>429.0</ele><time>2026-04-05T15:39:41Z</time></trkpt><trkpt lat="43.90824777620766" lon="11.824870911234493"><ele>429.0</ele><time>2026-04-05T15:39:42Z</time></trkpt><trkpt lat="43.90809598218161" lon="11.824779752971992"><ele>429.0</ele><time>2026-04-05T15:39:43.001Z</time></trkpt><trkpt lat="43.90795007413311" lon="11.824676881654407"><ele>429.0</ele><time>2026-04-05T15:39:44.001Z</time></trkpt><trkpt lat="43.907814658081406" lon="11.824570327313042"><ele>429.0</ele><time>2026-04-05T15:39:45.001Z</time></trkpt><trkpt lat="43.907694162029976" lon="11.824469999819701"><ele>429.0</ele><time>2026-04-05T15:39:46.001Z</time></trkpt><trkpt lat="43.90758158369809" lon="11.824377349077588"><ele>429.0</ele><time>2026-04-05T15:39:47.001Z</time></trkpt><trkpt lat="43.90747429892618" lon="11.824292907551756"><ele>430.4</ele><time>2026-04-05T15:39:48.001Z</time></trkpt><trkpt lat="43.907386400261466" lon="11.824222661876243"><ele>431.79999999999995</ele><time>2026-04-05T15:39:49.001Z</time></trkpt><trkpt lat="43.9073203797581" lon="11.82412881801944"><ele>433.20000000000005</ele><time>2026-04-05T15:39:50.001Z</time></trkpt><trkpt lat="43.90728955584899" lon="11.823998577559324"><ele>434.6</ele><time>2026-04-05T15:39:51.001Z</time></trkpt><trkpt lat="43.90729306339659" lon="11.823842423739833"><ele>436.0</ele><time>2026-04-05T15:39:52.001Z</time></trkpt><trkpt lat="43.90728667260999" lon="11.823669020498654"><ele>436.0</ele><time>2026-04-05T15:39:53.001Z</time></trkpt><trkpt lat="43.90728429301319" lon="11.82348330785222"><ele>436.0</ele><time>2026-04-05T15:39:54.001Z</time></trkpt><trkpt lat="43.90727828700964" lon="11.823289146115611"><ele>436.0</ele><time>2026-04-05T15:39:55.001Z</time></trkpt><trkpt lat="43.90730424409208" lon="11.82308308253901"><ele>436.0</ele><time>2026-04-05T15:39:56.001Z</time></trkpt><trkpt lat="43.907363125624016" lon="11.822872758836931"><ele>439.33333333333337</ele><time>2026-04-05T15:39:57.001Z</time></trkpt><trkpt lat="43.90742844459654" lon="11.822641647477253"><ele>442.66666666666663</ele><time>2026-04-05T15:39:58.001Z</time></trkpt><trkpt lat="43.90749868062328" lon="11.822388248099324"><ele>446.0</ele><time>2026-04-05T15:39:59.001Z</time></trkpt><trkpt lat="43.907562590957696" lon="11.822158050985324"><ele>457.0</ele><time>2026-04-05T15:40:00.001Z</time></trkpt><trkpt lat="43.907661564857854" lon="11.821913276826642"><ele>468.0</ele><time>2026-04-05T15:40:01.001Z</time></trkpt><trkpt lat="43.90775841266735" lon="11.82168175203074"><ele>479.0</ele><time>2026-04-05T15:40:02.001Z</time></trkpt><trkpt lat="43.9078324985592" lon="11.821456022182657"><ele>479.0</ele><time>2026-04-05T15:40:03.001Z</time></trkpt><trkpt lat="43.907878772964494" lon="11.821196154721006"><ele>479.0</ele><time>2026-04-05T15:40:04.001Z</time></trkpt><trkpt lat="43.907918358523034" lon="11.820916160193933"><ele>479.0</ele><time>2026-04-05T15:40:05.001Z</time></trkpt><trkpt lat="43.907972736076324" lon="11.8206473601043"><ele>475.66666666666663</ele><time>2026-04-05T15:40:06.001Z</time></trkpt><trkpt lat="43.908030758547206" lon="11.820383858724698"><ele>472.33333333333337</ele><time>2026-04-05T15:40:07.001Z</time></trkpt><trkpt lat="43.90809531794129" lon="11.820157610115054"><ele>469.0</ele><time>2026-04-05T15:40:08.001Z</time></trkpt><trkpt lat="43.90814626816774" lon="11.819956160044272"><ele>468.25</ele><time>2026-04-05T15:40:09.001Z</time></trkpt><trkpt lat="43.90815602917358" lon="11.819777179013236"><ele>467.5</ele><time>2026-04-05T15:40:10.001Z</time></trkpt><trkpt lat="43.908136712114285" lon="11.819592782588106"><ele>466.75</ele><time>2026-04-05T15:40:11.001Z</time></trkpt><trkpt lat="43.9080987166736" lon="11.819422664834532"><ele>466.0</ele><time>2026-04-05T15:40:12.001Z</time></trkpt><trkpt lat="43.908021633202914" lon="11.819295012650194"><ele>469.0</ele><time>2026-04-05T15:40:13.001Z</time></trkpt><trkpt lat="43.907906867772944" lon="11.819201132567361"><ele>472.0</ele><time>2026-04-05T15:40:14.001Z</time></trkpt><trkpt lat="43.9077813916879" lon="11.819114337521357"><ele>475.0</ele><time>2026-04-05T15:40:15.001Z</time></trkpt><trkpt lat="43.90765848756988" lon="11.819014903297342"><ele>478.0</ele><time>2026-04-05T15:40:16.001Z</time></trkpt><trkpt lat="43.9075353094583" lon="11.8189039351583"><ele>468.0</ele><time>2026-04-05T15:40:17.001Z</time></trkpt><trkpt lat="43.90740092660343" lon="11.81879869687676"><ele>458.0</ele><time>2026-04-05T15:40:18.001Z</time></trkpt><trkpt lat="43.907259723171585" lon="11.818689849845422"><ele>448.0</ele><time>2026-04-05T15:40:19.001Z</time></trkpt><trkpt lat="43.90710987975681" lon="11.818590935287068"><ele>448.0</ele><time>2026-04-05T15:40:20.001Z</time></trkpt><trkpt lat="43.906966947128126" lon="11.818494608296527"><ele>448.0</ele><time>2026-04-05T15:40:21.001Z</time></trkpt><trkpt lat="43.9068343779426" lon="11.818379600784263"><ele>448.0</ele><time>2026-04-05T15:40:22.001Z</time></trkpt><trkpt lat="43.90671379608053" lon="11.818257834698205"><ele>450.0</ele><time>2026-04-05T15:40:23.001Z</time></trkpt><trkpt lat="43.906633198979385" lon="11.818165075821407"><ele>452.0</ele><time>2026-04-05T15:40:24.001Z</time></trkpt><trkpt lat="43.90656116412408" lon="11.818039997342655"><ele>454.0</ele><time>2026-04-05T15:40:25.001Z</time></trkpt><trkpt lat="43.906451666687" lon="11.817794541944322"><ele>456.0</ele><time>2026-04-05T15:40:26.001Z</time></trkpt><trkpt lat="43.90635136279433" lon="11.81765258747953"><ele>460.66666666666663</ele><time>2026-04-05T15:40:27.001Z</time></trkpt><trkpt lat="43.906230997707134" lon="11.817612239074611"><ele>465.3333333333333</ele><time>2026-04-05T15:40:28.001Z</time></trkpt><trkpt lat="43.906073094471" lon="11.81756616982707"><ele>470.0</ele><time>2026-04-05T15:40:29.001Z</time></trkpt><trkpt lat="43.905903853841195" lon="11.817506226150305"><ele>470.0</ele><time>2026-04-05T15:40:30.001Z</time></trkpt><trkpt lat="43.90575285543624" lon="11.817430538690278"><ele>470.0</ele><time>2026-04-05T15:40:31.001Z</time></trkpt><trkpt lat="43.90562080425584" lon="11.817370235018783"><ele>470.0</ele><time>2026-04-05T15:40:32.001Z</time></trkpt><trkpt lat="43.90551367102782" lon="11.817335589380107"><ele>470.0</ele><time>2026-04-05T15:40:33.001Z</time></trkpt><trkpt lat="43.905435160434344" lon="11.817276045159268"><ele>470.0</ele><time>2026-04-05T15:40:34.001Z</time></trkpt><trkpt lat="43.90538116193032" lon="11.817178524004778"><ele>470.0</ele><time>2026-04-05T15:40:35.001Z</time></trkpt><trkpt lat="43.90538275296876" lon="11.817043322476874"><ele>470.0</ele><time>2026-04-05T15:40:36.001Z</time></trkpt><trkpt lat="43.90540879745083" lon="11.816902596367182"><ele>470.0</ele><time>2026-04-05T15:40:37.001Z</time></trkpt><trkpt lat="43.90542447332441" lon="11.816740203925123"><ele>470.0</ele><time>2026-04-05T15:40:38.001Z</time></trkpt><trkpt lat="43.90544196622653" lon="11.816570617981657"><ele>475.0</ele><time>2026-04-05T15:40:39.001Z</time></trkpt><trkpt lat="43.90545967704532" lon="11.816384641452027"><ele>480.0</ele><time>2026-04-05T15:40:40.001Z</time></trkpt><trkpt lat="43.905473320406735" lon="11.816193489645341"><ele>485.0</ele><time>2026-04-05T15:40:41.001Z</time></trkpt><trkpt lat="43.90543732069011" lon="11.816014949563636"><ele>490.0</ele><time>2026-04-05T15:40:42.001Z</time></trkpt><trkpt lat="43.90534344100064" lon="11.815838130830254"><ele>492.33333333333337</ele><time>2026-04-05T15:40:43.001Z</time></trkpt><trkpt lat="43.905235093667606" lon="11.815651265066466"><ele>494.66666666666663</ele><time>2026-04-05T15:40:44.001Z</time></trkpt><trkpt lat="43.90514164313982" lon="11.815460136423324"><ele>497.0</ele><time>2026-04-05T15:40:45.001Z</time></trkpt><trkpt lat="43.90507067011529" lon="11.815290817079173"><ele>495.20000000000005</ele><time>2026-04-05T15:40:46.001Z</time></trkpt><trkpt lat="43.90500108784052" lon="11.815161104142698"><ele>493.40000000000003</ele><time>2026-04-05T15:40:47.001Z</time></trkpt><trkpt lat="43.904927332062165" lon="11.815064819039257"><ele>491.59999999999997</ele><time>2026-04-05T15:40:48.001Z</time></trkpt><trkpt lat="43.90483263415346" lon="11.815066153429576"><ele>489.79999999999995</ele><time>2026-04-05T15:40:49.001Z</time></trkpt><trkpt lat="43.904727656688785" lon="11.815114971348411"><ele>488.0</ele><time>2026-04-05T15:40:50.001Z</time></trkpt><trkpt lat="43.90461615235925" lon="11.815133502000968"><ele>488.0</ele><time>2026-04-05T15:40:51Z</time></trkpt><trkpt lat="43.904516516992196" lon="11.815076553290982"><ele>488.0</ele><time>2026-04-05T15:40:52Z</time></trkpt><trkpt lat="43.90445899876411" lon="11.81492263738214"><ele>488.0</ele><time>2026-04-05T15:40:53Z</time></trkpt><trkpt lat="43.90446102993284" lon="11.81474363725318"><ele>488.0</ele><time>2026-04-05T15:40:54Z</time></trkpt><trkpt lat="43.90451573569264" lon="11.814589413988358"><ele>488.0</ele><time>2026-04-05T15:40:55Z</time></trkpt><trkpt lat="43.90458623714215" lon="11.8144392569447"><ele>488.0</ele><time>2026-04-05T15:40:56Z</time></trkpt><trkpt lat="43.9046924403099" lon="11.814347438003557"><ele>488.0</ele><time>2026-04-05T15:40:57Z</time></trkpt><trkpt lat="43.90484031393152" lon="11.8142711868377"><ele>488.0</ele><time>2026-04-05T15:40:58Z</time></trkpt><trkpt lat="43.90498613124493" lon="11.81419338258159"><ele>496.5</ele><time>2026-04-05T15:40:59Z</time></trkpt><trkpt lat="43.905120797512495" lon="11.814131195862695"><ele>505.0</ele><time>2026-04-05T15:41:00Z</time></trkpt><trkpt lat="43.90522673394551" lon="11.814068172072073"><ele>513.5</ele><time>2026-04-05T15:41:01Z</time></trkpt><trkpt lat="43.90531724025014" lon="11.813996386651679"><ele>522.0</ele><time>2026-04-05T15:41:02Z</time></trkpt><trkpt lat="43.90538289938299" lon="11.813877939547021"><ele>522.0</ele><time>2026-04-05T15:41:03Z</time></trkpt><trkpt lat="43.90539301464371" lon="11.813744836222833"><ele>522.0</ele><time>2026-04-05T15:41:04Z</time></trkpt><trkpt lat="43.90535781989468" lon="11.813607131018513"><ele>522.0</ele><time>2026-04-05T15:41:05Z</time></trkpt><trkpt lat="43.90530061977602" lon="11.813481723315416"><ele>522.0</ele><time>2026-04-05T15:41:06Z</time></trkpt><trkpt lat="43.90522334009321" lon="11.813373781148954"><ele>522.0</ele><time>2026-04-05T15:41:07Z</time></trkpt><trkpt lat="43.905109800391244" lon="11.813304494251513"><ele>516.25</ele><time>2026-04-05T15:41:08Z</time></trkpt><trkpt lat="43.9049832073645" lon="11.813250250584288"><ele>510.5</ele><time>2026-04-05T15:41:09Z</time></trkpt><trkpt lat="43.90487576234225" lon="11.813132793048705"><ele>504.75</ele><time>2026-04-05T15:41:10Z</time></trkpt><trkpt lat="43.90476511293324" lon="11.812983681944194"><ele>499.0</ele><time>2026-04-05T15:41:11Z</time></trkpt><trkpt lat="43.90467055778825" lon="11.81286607588133"><ele>499.0</ele><time>2026-04-05T15:41:12Z</time></trkpt><trkpt lat="43.90461603393496" lon="11.812741623269611"><ele>499.0</ele><time>2026-04-05T15:41:13Z</time></trkpt><trkpt lat="43.90464036856957" lon="11.812617239934857"><ele>499.0</ele><time>2026-04-05T15:41:14Z</time></trkpt><trkpt lat="43.9046552718825" lon="11.812473798176901"><ele>499.0</ele><time>2026-04-05T15:41:15Z</time></trkpt><trkpt lat="43.90469758124235" lon="11.81232161997825"><ele>499.0</ele><time>2026-04-05T15:41:16Z</time></trkpt><trkpt lat="43.90473930317962" lon="11.81216032495242"><ele>502.6666666666667</ele><time>2026-04-05T15:41:17Z</time></trkpt><trkpt lat="43.90477618434696" lon="11.811980329008469"><ele>506.33333333333337</ele><time>2026-04-05T15:41:18Z</time></trkpt><trkpt lat="43.904824584415536" lon="11.811771269652834"><ele>510.0</ele><time>2026-04-05T15:41:19Z</time></trkpt><trkpt lat="43.904878652237166" lon="11.811550903263386"><ele>510.66666666666663</ele><time>2026-04-05T15:41:20Z</time></trkpt><trkpt lat="43.90492487967457" lon="11.811346096518681"><ele>511.3333333333333</ele><time>2026-04-05T15:41:21Z</time></trkpt><trkpt lat="43.90497478557453" lon="11.81114608455568"><ele>512.0</ele><time>2026-04-05T15:41:22Z</time></trkpt><trkpt lat="43.90500269491626" lon="11.810937963934974"><ele>512.0</ele><time>2026-04-05T15:41:23Z</time></trkpt><trkpt lat="43.90501297890659" lon="11.810720520284555"><ele>512.0</ele><time>2026-04-05T15:41:24Z</time></trkpt><trkpt lat="43.90501398386425" lon="11.810500002576044"><ele>512.0</ele><time>2026-04-05T15:41:25Z</time></trkpt><trkpt lat="43.905009930582445" lon="11.810283315270269"><ele>513.3333333333333</ele><time>2026-04-05T15:41:26Z</time></trkpt><trkpt lat="43.90501385009462" lon="11.810071836670843"><ele>514.6666666666666</ele><time>2026-04-05T15:41:27Z</time></trkpt><trkpt lat="43.90501956455578" lon="11.80984686459506"><ele>516.0</ele><time>2026-04-05T15:41:28Z</time></trkpt><trkpt lat="43.905019930938984" lon="11.809636286861043"><ele>516.0</ele><time>2026-04-05T15:41:29Z</time></trkpt><trkpt lat="43.90502149728689" lon="11.809427675123535"><ele>516.0</ele><time>2026-04-05T15:41:30Z</time></trkpt><trkpt lat="43.90502051695891" lon="11.80922866185974"><ele>516.0</ele><time>2026-04-05T15:41:31Z</time></trkpt><trkpt lat="43.90500450715356" lon="11.809057152567714"><ele>516.0</ele><time>2026-04-05T15:41:32Z</time></trkpt><trkpt lat="43.904955436195465" lon="11.808916475495899"><ele>518.0</ele><time>2026-04-05T15:41:33Z</time></trkpt><trkpt lat="43.90486937866579" lon="11.808831785812707"><ele>520.0</ele><time>2026-04-05T15:41:34Z</time></trkpt><trkpt lat="43.90477301740341" lon="11.808775112813535"><ele>522.0</ele><time>2026-04-05T15:41:35Z</time></trkpt><trkpt lat="43.904662066739924" lon="11.80873310204189"><ele>524.0</ele><time>2026-04-05T15:41:36Z</time></trkpt><trkpt lat="43.904540544805556" lon="11.808659566800216"><ele>524.0</ele><time>2026-04-05T15:41:37Z</time></trkpt><trkpt lat="43.904424327367224" lon="11.808570028443993"><ele>524.0</ele><time>2026-04-05T15:41:38Z</time></trkpt><trkpt lat="43.904328096089216" lon="11.808462734603253"><ele>524.0</ele><time>2026-04-05T15:41:39Z</time></trkpt><trkpt lat="43.90426846240813" lon="11.80832871572418"><ele>524.0</ele><time>2026-04-05T15:41:40Z</time></trkpt><trkpt lat="43.90423017335118" lon="11.808179578165579"><ele>530.25</ele><time>2026-04-05T15:41:41Z</time></trkpt><trkpt lat="43.904258659845624" lon="11.808015807617288"><ele>536.5</ele><time>2026-04-05T15:41:42Z</time></trkpt><trkpt lat="43.904280338468425" lon="11.80783169072322"><ele>542.75</ele><time>2026-04-05T15:41:43Z</time></trkpt><trkpt lat="43.90431917446802" lon="11.807648852647302"><ele>549.0</ele><time>2026-04-05T15:41:44Z</time></trkpt><trkpt lat="43.90434798015343" lon="11.80745117202747"><ele>552.3333333333334</ele><time>2026-04-05T15:41:45.001Z</time></trkpt><trkpt lat="43.904392716951016" lon="11.807252396694562"><ele>555.6666666666667</ele><time>2026-04-05T15:41:46.001Z</time></trkpt><trkpt lat="43.90444762562249" lon="11.807063630847418"><ele>559.0</ele><time>2026-04-05T15:41:47.001Z</time></trkpt><trkpt lat="43.90451490390576" lon="11.806869099021709"><ele>558.6666666666667</ele><time>2026-04-05T15:41:48.001Z</time></trkpt><trkpt lat="43.904579426091985" lon="11.806675370529865"><ele>558.3333333333334</ele><time>2026-04-05T15:41:49.001Z</time></trkpt><trkpt lat="43.90461866720902" lon="11.806468303244444"><ele>558.0</ele><time>2026-04-05T15:41:50.001Z</time></trkpt><trkpt lat="43.90463594786887" lon="11.806247372648773"><ele>558.0</ele><time>2026-04-05T15:41:51.001Z</time></trkpt><trkpt lat="43.9046488942936" lon="11.806020757233684"><ele>558.0</ele><time>2026-04-05T15:41:52.001Z</time></trkpt><trkpt lat="43.904652382677455" lon="11.805821498018636"><ele>558.0</ele><time>2026-04-05T15:41:53.001Z</time></trkpt><trkpt lat="43.90465227920227" lon="11.805671426783123"><ele>558.0</ele><time>2026-04-05T15:41:54.001Z</time></trkpt><trkpt lat="43.90467310760771" lon="11.805441441258623"><ele>559.5</ele><time>2026-04-05T15:41:55.001Z</time></trkpt><trkpt lat="43.90464957073877" lon="11.80528155574923"><ele>561.0</ele><time>2026-04-05T15:41:56.001Z</time></trkpt><trkpt lat="43.904571098750374" lon="11.805158695332437"><ele>562.5</ele><time>2026-04-05T15:41:57.001Z</time></trkpt><trkpt lat="43.90445125067198" lon="11.805032320256496"><ele>564.0</ele><time>2026-04-05T15:41:58.001Z</time></trkpt><trkpt lat="43.90436183765791" lon="11.804915923754937"><ele>567.0</ele><time>2026-04-05T15:41:59.001Z</time></trkpt><trkpt lat="43.90426928802146" lon="11.804769501978116"><ele>570.0</ele><time>2026-04-05T15:42:00.001Z</time></trkpt><trkpt lat="43.90416692067007" lon="11.804626480945512"><ele>573.0</ele><time>2026-04-05T15:42:01.001Z</time></trkpt><trkpt lat="43.90407165730575" lon="11.804475240119084"><ele>576.0</ele><time>2026-04-05T15:42:02.001Z</time></trkpt><trkpt lat="43.90398255506373" lon="11.804335980645986"><ele>571.4</ele><time>2026-04-05T15:42:03.001Z</time></trkpt><trkpt lat="43.90389674974857" lon="11.80421184875315"><ele>566.8</ele><time>2026-04-05T15:42:04.001Z</time></trkpt><trkpt lat="43.90382376055374" lon="11.80409446600722"><ele>562.1999999999999</ele><time>2026-04-05T15:42:05.001Z</time></trkpt><trkpt lat="43.9037637504752" lon="11.803975639134125"><ele>557.6</ele><time>2026-04-05T15:42:06.001Z</time></trkpt><trkpt lat="43.903766141612614" lon="11.803837645325112"><ele>553.0</ele><time>2026-04-05T15:42:07.001Z</time></trkpt><trkpt lat="43.90379847283126" lon="11.803687780312705"><ele>553.0</ele><time>2026-04-05T15:42:08.001Z</time></trkpt><trkpt lat="43.90383535527679" lon="11.803508861372443"><ele>553.0</ele><time>2026-04-05T15:42:09.001Z</time></trkpt><trkpt lat="43.90387779805123" lon="11.803339718746688"><ele>553.0</ele><time>2026-04-05T15:42:10.001Z</time></trkpt><trkpt lat="43.90392039637161" lon="11.803142912627722"><ele>553.0</ele><time>2026-04-05T15:42:11.001Z</time></trkpt><trkpt lat="43.90396872639023" lon="11.802958118306677"><ele>554.5</ele><time>2026-04-05T15:42:12.001Z</time></trkpt><trkpt lat="43.904010941067085" lon="11.802772395045187"><ele>556.0</ele><time>2026-04-05T15:42:13.001Z</time></trkpt><trkpt lat="43.90400069992304" lon="11.80257659317827"><ele>557.5</ele><time>2026-04-05T15:42:14.001Z</time></trkpt><trkpt lat="43.904005872140885" lon="11.802376581895667"><ele>559.0</ele><time>2026-04-05T15:42:15.001Z</time></trkpt><trkpt lat="43.90400888360856" lon="11.802170703605348"><ele>559.0</ele><time>2026-04-05T15:42:16.001Z</time></trkpt><trkpt lat="43.90401120430812" lon="11.801962283427565"><ele>559.0</ele><time>2026-04-05T15:42:17.001Z</time></trkpt><trkpt lat="43.90401761937664" lon="11.801752624188435"><ele>559.0</ele><time>2026-04-05T15:42:18.001Z</time></trkpt><trkpt lat="43.90402155848286" lon="11.801554989456356"><ele>559.0</ele><time>2026-04-05T15:42:19.001Z</time></trkpt><trkpt lat="43.904020657290914" lon="11.80136966867174"><ele>559.0</ele><time>2026-04-05T15:42:20.001Z</time></trkpt><trkpt lat="43.90402536730259" lon="11.80119675127086"><ele>559.0</ele><time>2026-04-05T15:42:21.001Z</time></trkpt><trkpt lat="43.90406436713041" lon="11.801033446989388"><ele>559.0</ele><time>2026-04-05T15:42:22.001Z</time></trkpt><trkpt lat="43.90412745740173" lon="11.800891266433723"><ele>559.0</ele><time>2026-04-05T15:42:23.001Z</time></trkpt><trkpt lat="43.90421999923029" lon="11.800765698908382"><ele>562.5</ele><time>2026-04-05T15:42:24.001Z</time></trkpt><trkpt lat="43.90432044249078" lon="11.800636740454085"><ele>566.0</ele><time>2026-04-05T15:42:25.001Z</time></trkpt><trkpt lat="43.904427845487525" lon="11.800502991592975"><ele>569.5</ele><time>2026-04-05T15:42:26.001Z</time></trkpt><trkpt lat="43.90453340300295" lon="11.800357438845937"><ele>573.0</ele><time>2026-04-05T15:42:27.001Z</time></trkpt><trkpt lat="43.90464483419087" lon="11.800216791807264"><ele>568.6666666666666</ele><time>2026-04-05T15:42:28.001Z</time></trkpt><trkpt lat="43.90475707604985" lon="11.800070761331504"><ele>564.3333333333333</ele><time>2026-04-05T15:42:29.001Z</time></trkpt><trkpt lat="43.9048654269933" lon="11.799911144206481"><ele>560.0</ele><time>2026-04-05T15:42:30.001Z</time></trkpt><trkpt lat="43.90494585671951" lon="11.799740524857375"><ele>560.0</ele><time>2026-04-05T15:42:31.001Z</time></trkpt><trkpt lat="43.90501059527798" lon="11.79959366246313"><ele>560.0</ele><time>2026-04-05T15:42:32.001Z</time></trkpt><trkpt lat="43.90508116159755" lon="11.799435183614458"><ele>560.0</ele><time>2026-04-05T15:42:33.001Z</time></trkpt><trkpt lat="43.90514580485921" lon="11.799289838235707"><ele>560.0</ele><time>2026-04-05T15:42:34.001Z</time></trkpt><trkpt lat="43.905248803786584" lon="11.799061398578734"><ele>559.8</ele><time>2026-04-05T15:42:35.001Z</time></trkpt><trkpt lat="43.90534919738959" lon="11.798909654029641"><ele>559.6</ele><time>2026-04-05T15:42:36.001Z</time></trkpt><trkpt lat="43.90543359521203" lon="11.798855150567817"><ele>559.4</ele><time>2026-04-05T15:42:37.001Z</time></trkpt><trkpt lat="43.90549536203978" lon="11.798952470431056"><ele>559.2</ele><time>2026-04-05T15:42:38.001Z</time></trkpt><trkpt lat="43.9055682434058" lon="11.798994699268171"><ele>559.0</ele><time>2026-04-05T15:42:39.001Z</time></trkpt><trkpt lat="43.905653054746146" lon="11.799032350155608"><ele>559.0</ele><time>2026-04-05T15:42:40.001Z</time></trkpt><trkpt lat="43.905741905916784" lon="11.79907367059535"><ele>559.0</ele><time>2026-04-05T15:42:41.001Z</time></trkpt><trkpt lat="43.905821456942334" lon="11.799110522737159"><ele>559.0</ele><time>2026-04-05T15:42:42.001Z</time></trkpt><trkpt lat="43.9059061933337" lon="11.79914926716254"><ele>559.0</ele><time>2026-04-05T15:42:43.001Z</time></trkpt><trkpt lat="43.905990193468526" lon="11.79918631550989"><ele>559.0</ele><time>2026-04-05T15:42:44.001Z</time></trkpt><trkpt lat="43.90607706736122" lon="11.79919601861035"><ele>559.0</ele><time>2026-04-05T15:42:45.001Z</time></trkpt><trkpt lat="43.906155998984595" lon="11.799197688465357"><ele>561.3333333333334</ele><time>2026-04-05T15:42:46.001Z</time></trkpt><trkpt lat="43.9062301902393" lon="11.799152461367175"><ele>563.6666666666667</ele><time>2026-04-05T15:42:47.001Z</time></trkpt><trkpt lat="43.90627593156689" lon="11.799051882355593"><ele>566.0</ele><time>2026-04-05T15:42:48.001Z</time></trkpt><trkpt lat="43.90631827218272" lon="11.798938000059495"><ele>568.3333333333334</ele><time>2026-04-05T15:42:49.001Z</time></trkpt><trkpt lat="43.90635059490157" lon="11.798825341556629"><ele>570.6666666666666</ele><time>2026-04-05T15:42:50Z</time></trkpt><trkpt lat="43.90634110791306" lon="11.798706752834525"><ele>573.0</ele><time>2026-04-05T15:42:51Z</time></trkpt><trkpt lat="43.906294326980884" lon="11.798600359260542"><ele>573.0</ele><time>2026-04-05T15:42:52Z</time></trkpt><trkpt lat="43.90623228608605" lon="11.798512820279804"><ele>573.0</ele><time>2026-04-05T15:42:53Z</time></trkpt><trkpt lat="43.906159298744036" lon="11.798421747826053"><ele>573.0</ele><time>2026-04-05T15:42:54Z</time></trkpt><trkpt lat="43.90608527959624" lon="11.798304149529095"><ele>573.0</ele><time>2026-04-05T15:42:55Z</time></trkpt><trkpt lat="43.90600567354299" lon="11.798172006741572"><ele>573.0</ele><time>2026-04-05T15:42:56Z</time></trkpt><trkpt lat="43.90591727891276" lon="11.79802623388138"><ele>570.0</ele><time>2026-04-05T15:42:57Z</time></trkpt><trkpt lat="43.90583246222397" lon="11.797878365148007"><ele>567.0</ele><time>2026-04-05T15:42:58Z</time></trkpt><trkpt lat="43.905766026604475" lon="11.797702557228993"><ele>564.0</ele><time>2026-04-05T15:42:59Z</time></trkpt><trkpt lat="43.905703619027655" lon="11.797526619821571"><ele>561.0</ele><time>2026-04-05T15:43:00Z</time></trkpt><trkpt lat="43.90564650608385" lon="11.797370640145784"><ele>561.0</ele><time>2026-04-05T15:43:01Z</time></trkpt><trkpt lat="43.90559453845382" lon="11.797237753655489"><ele>561.0</ele><time>2026-04-05T15:43:02Z</time></trkpt><trkpt lat="43.905558510111106" lon="11.797108292836466"><ele>561.0</ele><time>2026-04-05T15:43:03Z</time></trkpt><trkpt lat="43.905555445162854" lon="11.796976644887662"><ele>561.0</ele><time>2026-04-05T15:43:04Z</time></trkpt><trkpt lat="43.90563725889737" lon="11.796868696926936"><ele>561.0</ele><time>2026-04-05T15:43:05Z</time></trkpt><trkpt lat="43.905734740375756" lon="11.796768312098497"><ele>561.25</ele><time>2026-04-05T15:43:06Z</time></trkpt><trkpt lat="43.90580174922485" lon="11.796639332747112"><ele>561.5</ele><time>2026-04-05T15:43:07Z</time></trkpt><trkpt lat="43.9058651264463" lon="11.79650891520551"><ele>561.75</ele><time>2026-04-05T15:43:08Z</time></trkpt><trkpt lat="43.905904461875956" lon="11.796352932669608"><ele>562.0</ele><time>2026-04-05T15:43:09Z</time></trkpt><trkpt lat="43.90592731939611" lon="11.796161214044325"><ele>568.6666666666667</ele><time>2026-04-05T15:43:10Z</time></trkpt><trkpt lat="43.905957346437226" lon="11.795971019343307"><ele>575.3333333333334</ele><time>2026-04-05T15:43:11Z</time></trkpt><trkpt lat="43.90599557007834" lon="11.79578465704909"><ele>582.0</ele><time>2026-04-05T15:43:12Z</time></trkpt><trkpt lat="43.90605204576397" lon="11.795557592377204"><ele>582.0</ele><time>2026-04-05T15:43:13Z</time></trkpt><trkpt lat="43.90609333897809" lon="11.795331588544894"><ele>582.0</ele><time>2026-04-05T15:43:14Z</time></trkpt><trkpt lat="43.90612544789937" lon="11.79511046255951"><ele>582.0</ele><time>2026-04-05T15:43:15Z</time></trkpt><trkpt lat="43.90617633923375" lon="11.79491982338823"><ele>579.3333333333334</ele><time>2026-04-05T15:43:16Z</time></trkpt><trkpt lat="43.90623710259568" lon="11.794721162045272"><ele>576.6666666666667</ele><time>2026-04-05T15:43:17Z</time></trkpt><trkpt lat="43.90630760092534" lon="11.794522005366302"><ele>574.0</ele><time>2026-04-05T15:43:18Z</time></trkpt><trkpt lat="43.906388340958934" lon="11.794316230221325"><ele>570.6666666666667</ele><time>2026-04-05T15:43:19Z</time></trkpt><trkpt lat="43.906471056033524" lon="11.794099843598516"><ele>567.3333333333334</ele><time>2026-04-05T15:43:20Z</time></trkpt><trkpt lat="43.90655100597464" lon="11.793900782152084"><ele>564.0</ele><time>2026-04-05T15:43:21Z</time></trkpt><trkpt lat="43.90662412444078" lon="11.793707585083366"><ele>564.0</ele><time>2026-04-05T15:43:22Z</time></trkpt><trkpt lat="43.90671583722717" lon="11.793532597633892"><ele>564.0</ele><time>2026-04-05T15:43:23Z</time></trkpt><trkpt lat="43.90680595649042" lon="11.793376243342376"><ele>564.0</ele><time>2026-04-05T15:43:24Z</time></trkpt><trkpt lat="43.90690600131684" lon="11.793202626446288"><ele>565.3333333333334</ele><time>2026-04-05T15:43:25Z</time></trkpt><trkpt lat="43.9070211465374" lon="11.793021059444312"><ele>566.6666666666667</ele><time>2026-04-05T15:43:26Z</time></trkpt><trkpt lat="43.907135155185" lon="11.792835926167715"><ele>568.0</ele><time>2026-04-05T15:43:27Z</time></trkpt><trkpt lat="43.907240837077964" lon="11.792657451757757"><ele>564.0</ele><time>2026-04-05T15:43:28Z</time></trkpt><trkpt lat="43.907341302829714" lon="11.79248975025735"><ele>560.0</ele><time>2026-04-05T15:43:29Z</time></trkpt><trkpt lat="43.90743513313364" lon="11.79231739200027"><ele>556.0</ele><time>2026-04-05T15:43:30Z</time></trkpt><trkpt lat="43.907523534385064" lon="11.792158371853416"><ele>553.5</ele><time>2026-04-05T15:43:31Z</time></trkpt><trkpt lat="43.9076064448616" lon="11.792014448281684"><ele>551.0</ele><time>2026-04-05T15:43:32Z</time></trkpt><trkpt lat="43.90768482082298" lon="11.791892968286117"><ele>548.5</ele><time>2026-04-05T15:43:33Z</time></trkpt><trkpt lat="43.90778388095796" lon="11.791805608217638"><ele>546.0</ele><time>2026-04-05T15:43:34Z</time></trkpt><trkpt lat="43.90790824658109" lon="11.791805459179987"><ele>552.0</ele><time>2026-04-05T15:43:35Z</time></trkpt><trkpt lat="43.90801742172123" lon="11.791843263565994"><ele>558.0</ele><time>2026-04-05T15:43:36Z</time></trkpt><trkpt lat="43.90811292650302" lon="11.791961781521046"><ele>564.0</ele><time>2026-04-05T15:43:37Z</time></trkpt><trkpt lat="43.908237948110866" lon="11.79205463763243"><ele>570.0</ele><time>2026-04-05T15:43:38Z</time></trkpt><trkpt lat="43.908333583771245" lon="11.792091925752406"><ele>572.0</ele><time>2026-04-05T15:43:39Z</time></trkpt><trkpt lat="43.90845093920373" lon="11.792079225896286"><ele>574.0</ele><time>2026-04-05T15:43:40Z</time></trkpt><trkpt lat="43.90853659494892" lon="11.791970308761616"><ele>576.0</ele><time>2026-04-05T15:43:41Z</time></trkpt><trkpt lat="43.908631816467896" lon="11.791833558535242"><ele>578.0</ele><time>2026-04-05T15:43:42Z</time></trkpt><trkpt lat="43.908651808003405" lon="11.791632218492982"><ele>572.0</ele><time>2026-04-05T15:43:43Z</time></trkpt><trkpt lat="43.90862983597562" lon="11.791424549345415"><ele>566.0</ele><time>2026-04-05T15:43:44Z</time></trkpt><trkpt lat="43.90857066627509" lon="11.791231904036605"><ele>560.0</ele><time>2026-04-05T15:43:45Z</time></trkpt><trkpt lat="43.908505874318905" lon="11.79108768002757"><ele>554.0</ele><time>2026-04-05T15:43:46Z</time></trkpt><trkpt lat="43.90839775201297" lon="11.790985232497878"><ele>553.3333333333333</ele><time>2026-04-05T15:43:47Z</time></trkpt><trkpt lat="43.90825581467304" lon="11.790898036197994"><ele>552.6666666666666</ele><time>2026-04-05T15:43:48Z</time></trkpt><trkpt lat="43.90809435973292" lon="11.79081066331281"><ele>552.0</ele><time>2026-04-05T15:43:49Z</time></trkpt><trkpt lat="43.90792613231757" lon="11.790723201312753"><ele>552.0</ele><time>2026-04-05T15:43:50Z</time></trkpt><trkpt lat="43.90775341164378" lon="11.790643387148226"><ele>552.0</ele><time>2026-04-05T15:43:51Z</time></trkpt><trkpt lat="43.90756834701366" lon="11.790629008800806"><ele>552.0</ele><time>2026-04-05T15:43:52Z</time></trkpt><trkpt lat="43.90739092742421" lon="11.790641409882847"><ele>548.0</ele><time>2026-04-05T15:43:53Z</time></trkpt><trkpt lat="43.90721962607935" lon="11.790681800354426"><ele>544.0</ele><time>2026-04-05T15:43:54Z</time></trkpt><trkpt lat="43.90707180406197" lon="11.790682027732505"><ele>540.0</ele><time>2026-04-05T15:43:55Z</time></trkpt><trkpt lat="43.90693552813522" lon="11.790621047724033"><ele>540.0</ele><time>2026-04-05T15:43:56Z</time></trkpt><trkpt lat="43.9068123962241" lon="11.79047147430237"><ele>540.0</ele><time>2026-04-05T15:43:57Z</time></trkpt><trkpt lat="43.90668801557532" lon="11.790336331043976"><ele>540.0</ele><time>2026-04-05T15:43:58Z</time></trkpt><trkpt lat="43.90653770010306" lon="11.790225676954348"><ele>535.3333333333334</ele><time>2026-04-05T15:43:59Z</time></trkpt><trkpt lat="43.90636041722647" lon="11.790185464633922"><ele>530.6666666666667</ele><time>2026-04-05T15:44:00Z</time></trkpt><trkpt lat="43.90618383661569" lon="11.790170023768226"><ele>526.0</ele><time>2026-04-05T15:44:01Z</time></trkpt><trkpt lat="43.90603101908236" lon="11.79013468910834"><ele>528.25</ele><time>2026-04-05T15:44:02Z</time></trkpt><trkpt lat="43.905911453338646" lon="11.790040858115418"><ele>530.5</ele><time>2026-04-05T15:44:03Z</time></trkpt><trkpt lat="43.90581149726188" lon="11.789900810010858"><ele>532.75</ele><time>2026-04-05T15:44:04Z</time></trkpt><trkpt lat="43.90578326731809" lon="11.789694460285574"><ele>535.0</ele><time>2026-04-05T15:44:05Z</time></trkpt><trkpt lat="43.90573604613787" lon="11.789473925895756"><ele>543.0</ele><time>2026-04-05T15:44:06Z</time></trkpt><trkpt lat="43.90570766805067" lon="11.789241296665"><ele>551.0</ele><time>2026-04-05T15:44:07Z</time></trkpt><trkpt lat="43.905657658211524" lon="11.789003419988502"><ele>559.0</ele><time>2026-04-05T15:44:08Z</time></trkpt><trkpt lat="43.905604973864506" lon="11.788768538056447"><ele>559.0</ele><time>2026-04-05T15:44:09.001Z</time></trkpt><trkpt lat="43.9055519877056" lon="11.788533385423143"><ele>559.0</ele><time>2026-04-05T15:44:10.001Z</time></trkpt><trkpt lat="43.9054705003726" lon="11.788321257794516"><ele>559.0</ele><time>2026-04-05T15:44:11.001Z</time></trkpt><trkpt lat="43.905358352867566" lon="11.788140283573782"><ele>566.0</ele><time>2026-04-05T15:44:12.001Z</time></trkpt><trkpt lat="43.905215296304576" lon="11.78798905938144"><ele>573.0</ele><time>2026-04-05T15:44:13.001Z</time></trkpt><trkpt lat="43.90505058101767" lon="11.787875068986306"><ele>580.0</ele><time>2026-04-05T15:44:14.001Z</time></trkpt><trkpt lat="43.904863021813696" lon="11.787806573897907"><ele>572.6666666666667</ele><time>2026-04-05T15:44:15.001Z</time></trkpt><trkpt lat="43.904671863188305" lon="11.787761472487261"><ele>565.3333333333334</ele><time>2026-04-05T15:44:16.001Z</time></trkpt><trkpt lat="43.904500076361636" lon="11.787721360925465"><ele>558.0</ele><time>2026-04-05T15:44:17.001Z</time></trkpt><trkpt lat="43.904345530163866" lon="11.787639479857425"><ele>550.3333333333334</ele><time>2026-04-05T15:44:18.001Z</time></trkpt><trkpt lat="43.90419721213618" lon="11.787555391050478"><ele>542.6666666666667</ele><time>2026-04-05T15:44:19.001Z</time></trkpt><trkpt lat="43.90409633781467" lon="11.787386288465319"><ele>535.0</ele><time>2026-04-05T15:44:20.001Z</time></trkpt><trkpt lat="43.90403166958161" lon="11.787215551455335"><ele>535.0</ele><time>2026-04-05T15:44:21.001Z</time></trkpt><trkpt lat="43.90402488884171" lon="11.787052557738445"><ele>535.0</ele><time>2026-04-05T15:44:22.001Z</time></trkpt><trkpt lat="43.90406490592262" lon="11.786905549561995"><ele>535.0</ele><time>2026-04-05T15:44:23.001Z</time></trkpt><trkpt lat="43.904099025347115" lon="11.786756501379106"><ele>535.0</ele><time>2026-04-05T15:44:24.001Z</time></trkpt><trkpt lat="43.904167373410324" lon="11.786587046350258"><ele>535.25</ele><time>2026-04-05T15:44:25.001Z</time></trkpt><trkpt lat="43.90423292548728" lon="11.786424333459975"><ele>535.5</ele><time>2026-04-05T15:44:26.001Z</time></trkpt><trkpt lat="43.904291261196924" lon="11.786239846657683"><ele>535.75</ele><time>2026-04-05T15:44:27.001Z</time></trkpt><trkpt lat="43.90433495396232" lon="11.786043043340715"><ele>536.0</ele><time>2026-04-05T15:44:28.001Z</time></trkpt><trkpt lat="43.90436777516912" lon="11.785836951727205"><ele>543.25</ele><time>2026-04-05T15:44:29.001Z</time></trkpt><trkpt lat="43.904398282524184" lon="11.785630066778014"><ele>550.5</ele><time>2026-04-05T15:44:30.001Z</time></trkpt><trkpt lat="43.90442860950727" lon="11.785440101191908"><ele>557.75</ele><time>2026-04-05T15:44:31.001Z</time></trkpt><trkpt lat="43.90445590924623" lon="11.78527609176956"><ele>565.0</ele><time>2026-04-05T15:44:32.001Z</time></trkpt><trkpt lat="43.904481929213865" lon="11.785126000768702"><ele>565.0</ele><time>2026-04-05T15:44:33.001Z</time></trkpt><trkpt lat="43.904486057828464" lon="11.784989183082553"><ele>565.0</ele><time>2026-04-05T15:44:34.001Z</time></trkpt><trkpt lat="43.90443523264115" lon="11.784873807922047"><ele>565.0</ele><time>2026-04-05T15:44:35.001Z</time></trkpt><trkpt lat="43.90434517752094" lon="11.784789272363357"><ele>565.0</ele><time>2026-04-05T15:44:36.001Z</time></trkpt><trkpt lat="43.904236253308994" lon="11.784733559460708"><ele>565.0</ele><time>2026-04-05T15:44:37.001Z</time></trkpt><trkpt lat="43.904124745765884" lon="11.78467867055973"><ele>557.25</ele><time>2026-04-05T15:44:38.001Z</time></trkpt><trkpt lat="43.9040126826877" lon="11.784611009852641"><ele>549.5</ele><time>2026-04-05T15:44:39.001Z</time></trkpt><trkpt lat="43.90390296331124" lon="11.784539761733683"><ele>541.75</ele><time>2026-04-05T15:44:40.001Z</time></trkpt><trkpt lat="43.90379111022807" lon="11.784478432147088"><ele>534.0</ele><time>2026-04-05T15:44:41.001Z</time></trkpt><trkpt lat="43.903673221991255" lon="11.784475203793427"><ele>534.0</ele><time>2026-04-05T15:44:42.001Z</time></trkpt><trkpt lat="43.903541639669605" lon="11.784546673758674"><ele>534.0</ele><time>2026-04-05T15:44:43.001Z</time></trkpt><trkpt lat="43.903400682351915" lon="11.784633039385922"><ele>534.0</ele><time>2026-04-05T15:44:44.001Z</time></trkpt><trkpt lat="43.9032823182094" lon="11.784717253880785"><ele>534.0</ele><time>2026-04-05T15:44:45.001Z</time></trkpt><trkpt lat="43.903181065103645" lon="11.7847667761536"><ele>534.25</ele><time>2026-04-05T15:44:46.001Z</time></trkpt><trkpt lat="43.90307131755888" lon="11.784772041729285"><ele>534.5</ele><time>2026-04-05T15:44:47.001Z</time></trkpt><trkpt lat="43.90295498505588" lon="11.784720007179391"><ele>534.75</ele><time>2026-04-05T15:44:48.001Z</time></trkpt><trkpt lat="43.902853280977205" lon="11.784578354417025"><ele>535.0</ele><time>2026-04-05T15:44:49.001Z</time></trkpt><trkpt lat="43.90272402624462" lon="11.784472409463207"><ele>535.0</ele><time>2026-04-05T15:44:50.001Z</time></trkpt><trkpt lat="43.902598281988915" lon="11.784368623244523"><ele>535.0</ele><time>2026-04-05T15:44:51.001Z</time></trkpt><trkpt lat="43.90247290498678" lon="11.784315085768606"><ele>535.0</ele><time>2026-04-05T15:44:52.001Z</time></trkpt><trkpt lat="43.9023458191264" lon="11.78434680729186"><ele>535.0</ele><time>2026-04-05T15:44:53.001Z</time></trkpt><trkpt lat="43.90222901499007" lon="11.784387741481385"><ele>535.4</ele><time>2026-04-05T15:44:54.001Z</time></trkpt><trkpt lat="43.90212401270561" lon="11.784391872903914"><ele>535.8</ele><time>2026-04-05T15:44:55.001Z</time></trkpt><trkpt lat="43.902026910495536" lon="11.784338440157573"><ele>536.2</ele><time>2026-04-05T15:44:56Z</time></trkpt><trkpt lat="43.90196165160259" lon="11.784235331851706"><ele>536.6</ele><time>2026-04-05T15:44:57Z</time></trkpt><trkpt lat="43.90191807508898" lon="11.784075108262273"><ele>537.0</ele><time>2026-04-05T15:44:58Z</time></trkpt><trkpt lat="43.90186233964218" lon="11.783906480118869"><ele>540.0</ele><time>2026-04-05T15:44:59Z</time></trkpt><trkpt lat="43.90179799959355" lon="11.783723642866573"><ele>543.0</ele><time>2026-04-05T15:45:00Z</time></trkpt><trkpt lat="43.90171949696435" lon="11.78352465096246"><ele>546.0</ele><time>2026-04-05T15:45:01Z</time></trkpt><trkpt lat="43.90162947577762" lon="11.78330943351378"><ele>552.3333333333334</ele><time>2026-04-05T15:45:02Z</time></trkpt><trkpt lat="43.901545589088435" lon="11.7830711733672"><ele>558.6666666666667</ele><time>2026-04-05T15:45:03Z</time></trkpt><trkpt lat="43.901470210629476" lon="11.782853648214873"><ele>565.0</ele><time>2026-04-05T15:45:04Z</time></trkpt><trkpt lat="43.90140895221241" lon="11.782670038419619"><ele>570.25</ele><time>2026-04-05T15:45:05Z</time></trkpt><trkpt lat="43.901335875742696" lon="11.782521111929714"><ele>575.5</ele><time>2026-04-05T15:45:06Z</time></trkpt><trkpt lat="43.90124726301175" lon="11.782416296540859"><ele>580.75</ele><time>2026-04-05T15:45:07Z</time></trkpt><trkpt lat="43.901101962213254" lon="11.782373134937792"><ele>586.0</ele><time>2026-04-05T15:45:08Z</time></trkpt><trkpt lat="43.9009585836838" lon="11.782331536438502"><ele>584.25</ele><time>2026-04-05T15:45:09Z</time></trkpt><trkpt lat="43.90083564441224" lon="11.782290379932235"><ele>582.5</ele><time>2026-04-05T15:45:10Z</time></trkpt><trkpt lat="43.90076388686421" lon="11.782151754804662"><ele>580.75</ele><time>2026-04-05T15:45:11Z</time></trkpt><trkpt lat="43.90076590454691" lon="11.781967509046257"><ele>579.0</ele><time>2026-04-05T15:45:12Z</time></trkpt><trkpt lat="43.90074111784099" lon="11.781764295462501"><ele>579.0</ele><time>2026-04-05T15:45:13Z</time></trkpt><trkpt lat="43.90073960230783" lon="11.781567094011848"><ele>579.0</ele><time>2026-04-05T15:45:14Z</time></trkpt><trkpt lat="43.900697523697154" lon="11.781415748579768"><ele>579.0</ele><time>2026-04-05T15:45:15Z</time></trkpt><trkpt lat="43.90060838031783" lon="11.781312599605949"><ele>579.0</ele><time>2026-04-05T15:45:16Z</time></trkpt><trkpt lat="43.90047592958482" lon="11.781281876807181"><ele>579.0</ele><time>2026-04-05T15:45:17Z</time></trkpt><trkpt lat="43.900321830802525" lon="11.781312636385767"><ele>579.0</ele><time>2026-04-05T15:45:18Z</time></trkpt><trkpt lat="43.90015531202923" lon="11.781345878987608"><ele>579.0</ele><time>2026-04-05T15:45:19Z</time></trkpt><trkpt lat="43.90001735736349" lon="11.781350833164398"><ele>574.0</ele><time>2026-04-05T15:45:20Z</time></trkpt><trkpt lat="43.89988112745292" lon="11.781318609309189"><ele>569.0</ele><time>2026-04-05T15:45:21Z</time></trkpt><trkpt lat="43.89975410938816" lon="11.781197033254285"><ele>564.0</ele><time>2026-04-05T15:45:22Z</time></trkpt><trkpt lat="43.89960772553902" lon="11.78108616851533"><ele>572.75</ele><time>2026-04-05T15:45:23Z</time></trkpt><trkpt lat="43.89947837451513" lon="11.780975433189992"><ele>581.5</ele><time>2026-04-05T15:45:24Z</time></trkpt><trkpt lat="43.899382122892376" lon="11.780867593940359"><ele>590.25</ele><time>2026-04-05T15:45:25Z</time></trkpt><trkpt lat="43.89937218534133" lon="11.780692521856754"><ele>599.0</ele><time>2026-04-05T15:45:26Z</time></trkpt><trkpt lat="43.89937216110772" lon="11.780491392590328"><ele>599.0</ele><time>2026-04-05T15:45:27Z</time></trkpt><trkpt lat="43.8993495663221" lon="11.780270217540476"><ele>599.0</ele><time>2026-04-05T15:45:28Z</time></trkpt><trkpt lat="43.899335565818035" lon="11.780034250282105"><ele>599.0</ele><time>2026-04-05T15:45:29Z</time></trkpt><trkpt lat="43.89931234494386" lon="11.779809354596873"><ele>595.6666666666666</ele><time>2026-04-05T15:45:30Z</time></trkpt><trkpt lat="43.899260951473515" lon="11.779620056973668"><ele>592.3333333333334</ele><time>2026-04-05T15:45:31Z</time></trkpt><trkpt lat="43.899157797335825" lon="11.779480166206794"><ele>589.0</ele><time>2026-04-05T15:45:32Z</time></trkpt><trkpt lat="43.89901249367224" lon="11.779370291253908"><ele>602.6666666666667</ele><time>2026-04-05T15:45:33Z</time></trkpt><trkpt lat="43.898829566872564" lon="11.779328904026048"><ele>616.3333333333334</ele><time>2026-04-05T15:45:34Z</time></trkpt><trkpt lat="43.89864190915734" lon="11.77926108121644"><ele>630.0</ele><time>2026-04-05T15:45:35Z</time></trkpt><trkpt lat="43.89849466075571" lon="11.779191032012852"><ele>617.6666666666666</ele><time>2026-04-05T15:45:36Z</time></trkpt><trkpt lat="43.898366346300776" lon="11.779095815621332"><ele>605.3333333333333</ele><time>2026-04-05T15:45:37Z</time></trkpt><trkpt lat="43.898269185575785" lon="11.779025649557678"><ele>593.0</ele><time>2026-04-05T15:45:38Z</time></trkpt><trkpt lat="43.89803200808512" lon="11.778846247026149"><ele>593.0</ele><time>2026-04-05T15:45:39Z</time></trkpt><trkpt lat="43.897991058958105" lon="11.778646817514721"><ele>593.0</ele><time>2026-04-05T15:45:40Z</time></trkpt><trkpt lat="43.89793898989285" lon="11.77842377615114"><ele>593.0</ele><time>2026-04-05T15:45:41Z</time></trkpt><trkpt lat="43.897860007156055" lon="11.778223436540845"><ele>593.3333333333333</ele><time>2026-04-05T15:45:42Z</time></trkpt><trkpt lat="43.897760590396345" lon="11.77801785442895"><ele>593.6666666666666</ele><time>2026-04-05T15:45:43Z</time></trkpt><trkpt lat="43.897613951683034" lon="11.77783256597579"><ele>594.0</ele><time>2026-04-05T15:45:44Z</time></trkpt><trkpt lat="43.897487815297644" lon="11.777703960233916"><ele>594.0</ele><time>2026-04-05T15:45:45Z</time></trkpt><trkpt lat="43.89735324056391" lon="11.777642065374083"><ele>594.0</ele><time>2026-04-05T15:45:46Z</time></trkpt><trkpt lat="43.89720525884046" lon="11.777655472088766"><ele>594.0</ele><time>2026-04-05T15:45:47Z</time></trkpt><trkpt lat="43.897072954289015" lon="11.777684265879646"><ele>594.0</ele><time>2026-04-05T15:45:48Z</time></trkpt><trkpt lat="43.89696695650879" lon="11.777696335124553"><ele>594.0</ele><time>2026-04-05T15:45:49Z</time></trkpt><trkpt lat="43.8968754506332" lon="11.77771462972832"><ele>594.0</ele><time>2026-04-05T15:45:50Z</time></trkpt><trkpt lat="43.896804929127704" lon="11.777677931582488"><ele>594.0</ele><time>2026-04-05T15:45:51Z</time></trkpt><trkpt lat="43.896771794145266" lon="11.777575810374842"><ele>594.0</ele><time>2026-04-05T15:45:52Z</time></trkpt><trkpt lat="43.89681092060519" lon="11.777441448119284"><ele>594.0</ele><time>2026-04-05T15:45:53Z</time></trkpt><trkpt lat="43.89687332749488" lon="11.777348332198292"><ele>594.0</ele><time>2026-04-05T15:45:54Z</time></trkpt><trkpt lat="43.89698381124544" lon="11.777379325979553"><ele>606.0</ele><time>2026-04-05T15:45:55Z</time></trkpt><trkpt lat="43.89707088865956" lon="11.77746233869343"><ele>618.0</ele><time>2026-04-05T15:45:56Z</time></trkpt><trkpt lat="43.8971865536703" lon="11.777562110158476"><ele>630.0</ele><time>2026-04-05T15:45:57Z</time></trkpt><trkpt lat="43.89732326534456" lon="11.777622208979919"><ele>642.0</ele><time>2026-04-05T15:45:58Z</time></trkpt><trkpt lat="43.897475575041625" lon="11.777633443909448"><ele>640.25</ele><time>2026-04-05T15:45:59Z</time></trkpt><trkpt lat="43.89759660264854" lon="11.77765746030755"><ele>638.5</ele><time>2026-04-05T15:46:00Z</time></trkpt><trkpt lat="43.89771615538315" lon="11.777771839334974"><ele>636.75</ele><time>2026-04-05T15:46:01Z</time></trkpt><trkpt lat="43.89781431943531" lon="11.77795046593833"><ele>635.0</ele><time>2026-04-05T15:46:02Z</time></trkpt><trkpt lat="43.897958006883044" lon="11.778194465726065"><ele>635.0</ele><time>2026-04-05T15:46:03Z</time></trkpt><trkpt lat="43.89806038105454" lon="11.77836654460709"><ele>635.0</ele><time>2026-04-05T15:46:04Z</time></trkpt><trkpt lat="43.89816412396712" lon="11.778508343203349"><ele>635.0</ele><time>2026-04-05T15:46:05Z</time></trkpt><trkpt lat="43.89825347672416" lon="11.778631439862046"><ele>635.0</ele><time>2026-04-05T15:46:06Z</time></trkpt><trkpt lat="43.898353209359676" lon="11.778722321097417"><ele>633.75</ele><time>2026-04-05T15:46:07Z</time></trkpt><trkpt lat="43.89847191278781" lon="11.778693982764922"><ele>632.5</ele><time>2026-04-05T15:46:08Z</time></trkpt><trkpt lat="43.89858588889601" lon="11.778635112098836"><ele>631.25</ele><time>2026-04-05T15:46:09Z</time></trkpt><trkpt lat="43.89870850689903" lon="11.77856331588091"><ele>630.0</ele><time>2026-04-05T15:46:10Z</time></trkpt><trkpt lat="43.89884696121979" lon="11.778602473487833"><ele>630.0</ele><time>2026-04-05T15:46:11Z</time></trkpt><trkpt lat="43.89891726122599" lon="11.778697567564398"><ele>630.0</ele><time>2026-04-05T15:46:12Z</time></trkpt><trkpt lat="43.89897941936657" lon="11.778847349622467"><ele>630.0</ele><time>2026-04-05T15:46:13Z</time></trkpt><trkpt lat="43.89907090862821" lon="11.778945941048192"><ele>630.0</ele><time>2026-04-05T15:46:14Z</time></trkpt><trkpt lat="43.89919732920007" lon="11.779020636839109"><ele>638.0</ele><time>2026-04-05T15:46:15Z</time></trkpt><trkpt lat="43.89934528534471" lon="11.77902501746875"><ele>646.0</ele><time>2026-04-05T15:46:16Z</time></trkpt><trkpt lat="43.899479383976924" lon="11.779000390609625"><ele>654.0</ele><time>2026-04-05T15:46:17Z</time></trkpt><trkpt lat="43.899597562196945" lon="11.779072149343543"><ele>662.0</ele><time>2026-04-05T15:46:18Z</time></trkpt><trkpt lat="43.89969865916423" lon="11.77920314945206"><ele>651.0</ele><time>2026-04-05T15:46:19Z</time></trkpt><trkpt lat="43.899800206932014" lon="11.779374358411376"><ele>640.0</ele><time>2026-04-05T15:46:20Z</time></trkpt><trkpt lat="43.89990691877092" lon="11.779565989527523"><ele>629.0</ele><time>2026-04-05T15:46:21Z</time></trkpt><trkpt lat="43.90001519163247" lon="11.779728205420435"><ele>631.0</ele><time>2026-04-05T15:46:22Z</time></trkpt><trkpt lat="43.900101194644584" lon="11.779879632404882"><ele>633.0</ele><time>2026-04-05T15:46:23Z</time></trkpt><trkpt lat="43.90019925495488" lon="11.779991819404321"><ele>635.0</ele><time>2026-04-05T15:46:24Z</time></trkpt><trkpt lat="43.90031542767686" lon="11.780033293943966"><ele>637.0</ele><time>2026-04-05T15:46:25Z</time></trkpt><trkpt lat="43.900439201294425" lon="11.780003806941272"><ele>637.0</ele><time>2026-04-05T15:46:26Z</time></trkpt><trkpt lat="43.90057495374088" lon="11.77987241389332"><ele>637.0</ele><time>2026-04-05T15:46:27Z</time></trkpt><trkpt lat="43.900727508169595" lon="11.779772012138524"><ele>637.0</ele><time>2026-04-05T15:46:28Z</time></trkpt><trkpt lat="43.900879246257205" lon="11.779645648153917"><ele>642.3333333333334</ele><time>2026-04-05T15:46:29Z</time></trkpt><trkpt lat="43.901059705423435" lon="11.779525042069896"><ele>647.6666666666666</ele><time>2026-04-05T15:46:30Z</time></trkpt><trkpt lat="43.90123598004694" lon="11.779429547008878"><ele>653.0</ele><time>2026-04-05T15:46:31Z</time></trkpt><trkpt lat="43.90137142952457" lon="11.77934351904836"><ele>653.0</ele><time>2026-04-05T15:46:32Z</time></trkpt><trkpt lat="43.901477630641565" lon="11.779308907348065"><ele>653.0</ele><time>2026-04-05T15:46:33Z</time></trkpt><trkpt lat="43.90156703437955" lon="11.779322909261646"><ele>653.0</ele><time>2026-04-05T15:46:34Z</time></trkpt><trkpt lat="43.9016346490004" lon="11.77939672273799"><ele>653.0</ele><time>2026-04-05T15:46:35Z</time></trkpt><trkpt lat="43.901724028002654" lon="11.779581591728093"><ele>653.0</ele><time>2026-04-05T15:46:36Z</time></trkpt><trkpt lat="43.901774593382555" lon="11.779802410851234"><ele>659.0</ele><time>2026-04-05T15:46:37Z</time></trkpt><trkpt lat="43.9018513917502" lon="11.780030959103607"><ele>665.0</ele><time>2026-04-05T15:46:38Z</time></trkpt><trkpt lat="43.90190617768843" lon="11.780279599815815"><ele>671.0</ele><time>2026-04-05T15:46:39Z</time></trkpt><trkpt lat="43.90196738811836" lon="11.780478949106536"><ele>671.0</ele><time>2026-04-05T15:46:40Z</time></trkpt><trkpt lat="43.90201528251301" lon="11.780647965836335"><ele>671.0</ele><time>2026-04-05T15:46:41Z</time></trkpt><trkpt lat="43.90205737760174" lon="11.780798463661645"><ele>671.0</ele><time>2026-04-05T15:46:42Z</time></trkpt><trkpt lat="43.902101297565814" lon="11.780912428819706"><ele>671.0</ele><time>2026-04-05T15:46:43.001Z</time></trkpt><trkpt lat="43.902172706120425" lon="11.780973455704084"><ele>671.0</ele><time>2026-04-05T15:46:44.001Z</time></trkpt><trkpt lat="43.902264423354055" lon="11.780962748951001"><ele>671.0</ele><time>2026-04-05T15:46:45.001Z</time></trkpt><trkpt lat="43.90235106867424" lon="11.780918083970537"><ele>671.0</ele><time>2026-04-05T15:46:46.001Z</time></trkpt><trkpt lat="43.90237923416661" lon="11.780744997758635"><ele>671.0</ele><time>2026-04-05T15:46:47.001Z</time></trkpt><trkpt lat="43.90234466799573" lon="11.78058578461191"><ele>671.0</ele><time>2026-04-05T15:46:48.001Z</time></trkpt><trkpt lat="43.9022550913415" lon="11.780435127299556"><ele>671.0</ele><time>2026-04-05T15:46:49.001Z</time></trkpt><trkpt lat="43.90215050941368" lon="11.780274064032973"><ele>671.0</ele><time>2026-04-05T15:46:50.001Z</time></trkpt><trkpt lat="43.90205943892026" lon="11.780104654859354"><ele>671.0</ele><time>2026-04-05T15:46:51.001Z</time></trkpt><trkpt lat="43.90198500892368" lon="11.77992254349854"><ele>676.0</ele><time>2026-04-05T15:46:52.001Z</time></trkpt><trkpt lat="43.901938449027554" lon="11.779732195820579"><ele>681.0</ele><time>2026-04-05T15:46:53.001Z</time></trkpt><trkpt lat="43.901920642618045" lon="11.779535268988752"><ele>686.0</ele><time>2026-04-05T15:46:54.001Z</time></trkpt><trkpt lat="43.90188055289354" lon="11.779354961352846"><ele>691.0</ele><time>2026-04-05T15:46:55.001Z</time></trkpt><trkpt lat="43.90185397063911" lon="11.779184896099924"><ele>686.75</ele><time>2026-04-05T15:46:56.001Z</time></trkpt><trkpt lat="43.901813066184836" lon="11.779019198629099"><ele>682.5</ele><time>2026-04-05T15:46:57.001Z</time></trkpt><trkpt lat="43.90172229290896" lon="11.778870275767604"><ele>678.25</ele><time>2026-04-05T15:46:58.001Z</time></trkpt><trkpt lat="43.90160709064938" lon="11.778826505397658"><ele>674.0</ele><time>2026-04-05T15:46:59.001Z</time></trkpt><trkpt lat="43.90145260577893" lon="11.77885566730705"><ele>674.0</ele><time>2026-04-05T15:47:00.001Z</time></trkpt><trkpt lat="43.90129819546841" lon="11.778950177688708"><ele>674.0</ele><time>2026-04-05T15:47:01.001Z</time></trkpt><trkpt lat="43.901160177880634" lon="11.779034873478732"><ele>674.0</ele><time>2026-04-05T15:47:02Z</time></trkpt><trkpt lat="43.90102776720786" lon="11.779057071860029"><ele>674.0</ele><time>2026-04-05T15:47:03Z</time></trkpt><trkpt lat="43.9009172373323" lon="11.779113184844963"><ele>674.0</ele><time>2026-04-05T15:47:04Z</time></trkpt><trkpt lat="43.90080640504576" lon="11.779147999448192"><ele>674.0</ele><time>2026-04-05T15:47:05Z</time></trkpt><trkpt lat="43.90069815404982" lon="11.779190890228486"><ele>674.0</ele><time>2026-04-05T15:47:06Z</time></trkpt><trkpt lat="43.90059840130131" lon="11.779232939132187"><ele>674.0</ele><time>2026-04-05T15:47:07Z</time></trkpt><trkpt lat="43.900498042921086" lon="11.779244170924041"><ele>673.6</ele><time>2026-04-05T15:47:08Z</time></trkpt><trkpt lat="43.90040106975028" lon="11.77922195810427"><ele>673.2</ele><time>2026-04-05T15:47:09Z</time></trkpt><trkpt lat="43.900308449707495" lon="11.779154993505072"><ele>672.8000000000001</ele><time>2026-04-05T15:47:10Z</time></trkpt><trkpt lat="43.9002545964064" lon="11.779019494403325"><ele>672.4000000000001</ele><time>2026-04-05T15:47:11Z</time></trkpt><trkpt lat="43.90018737290174" lon="11.778909159267481"><ele>672.0</ele><time>2026-04-05T15:47:12Z</time></trkpt><trkpt lat="43.90013831540443" lon="11.778793449132914"><ele>672.0</ele><time>2026-04-05T15:47:13Z</time></trkpt><trkpt lat="43.900085006998175" lon="11.778675633732895"><ele>672.0</ele><time>2026-04-05T15:47:14Z</time></trkpt><trkpt lat="43.90002184818944" lon="11.778567352373864"><ele>672.0</ele><time>2026-04-05T15:47:15Z</time></trkpt><trkpt lat="43.89994396462141" lon="11.778470755343871"><ele>672.0</ele><time>2026-04-05T15:47:16Z</time></trkpt><trkpt lat="43.89985628928196" lon="11.778387793875908"><ele>672.0</ele><time>2026-04-05T15:47:17Z</time></trkpt><trkpt lat="43.89976815672491" lon="11.778300057078933"><ele>679.5</ele><time>2026-04-05T15:47:18Z</time></trkpt><trkpt lat="43.89969040260488" lon="11.77817846690175"><ele>687.0</ele><time>2026-04-05T15:47:19Z</time></trkpt><trkpt lat="43.899633525993686" lon="11.778016747535341"><ele>694.5</ele><time>2026-04-05T15:47:20Z</time></trkpt><trkpt lat="43.89958809065764" lon="11.777853584808636"><ele>702.0</ele><time>2026-04-05T15:47:21Z</time></trkpt><trkpt lat="43.89951470050736" lon="11.777715818585191"><ele>704.5</ele><time>2026-04-05T15:47:22Z</time></trkpt><trkpt lat="43.89941462848744" lon="11.777646380244994"><ele>707.0</ele><time>2026-04-05T15:47:23Z</time></trkpt><trkpt lat="43.899300152360425" lon="11.777625390662077"><ele>709.5</ele><time>2026-04-05T15:47:24Z</time></trkpt><trkpt lat="43.89918792819374" lon="11.777600830576464"><ele>712.0</ele><time>2026-04-05T15:47:25Z</time></trkpt><trkpt lat="43.899082403346085" lon="11.777558159441345"><ele>712.0</ele><time>2026-04-05T15:47:26Z</time></trkpt><trkpt lat="43.89897708914644" lon="11.777480976948668"><ele>712.0</ele><time>2026-04-05T15:47:27Z</time></trkpt><trkpt lat="43.89889489920614" lon="11.777363287724175"><ele>712.0</ele><time>2026-04-05T15:47:28Z</time></trkpt><trkpt lat="43.89882776651629" lon="11.777211076447323"><ele>712.0</ele><time>2026-04-05T15:47:29Z</time></trkpt><trkpt lat="43.89875194769517" lon="11.777078144214853"><ele>712.0</ele><time>2026-04-05T15:47:30Z</time></trkpt><trkpt lat="43.89865394824747" lon="11.776957759437867"><ele>712.0</ele><time>2026-04-05T15:47:31Z</time></trkpt><trkpt lat="43.898549020831624" lon="11.776832003648943"><ele>712.0</ele><time>2026-04-05T15:47:32Z</time></trkpt><trkpt lat="43.89842800131792" lon="11.77671501242963"><ele>712.0</ele><time>2026-04-05T15:47:33Z</time></trkpt><trkpt lat="43.8983072374274" lon="11.776573270028662"><ele>713.3333333333334</ele><time>2026-04-05T15:47:34Z</time></trkpt><trkpt lat="43.89818276781301" lon="11.776433717059863"><ele>714.6666666666666</ele><time>2026-04-05T15:47:35Z</time></trkpt><trkpt lat="43.8980468545836" lon="11.776289664803873"><ele>716.0</ele><time>2026-04-05T15:47:36Z</time></trkpt><trkpt lat="43.897918392775246" lon="11.77614629677991"><ele>716.0</ele><time>2026-04-05T15:47:37Z</time></trkpt><trkpt lat="43.897811465210395" lon="11.77602359018831"><ele>716.0</ele><time>2026-04-05T15:47:38Z</time></trkpt><trkpt lat="43.89768022149382" lon="11.775918588959597"><ele>716.0</ele><time>2026-04-05T15:47:39Z</time></trkpt><trkpt lat="43.89753999084652" lon="11.775850284475439"><ele>716.0</ele><time>2026-04-05T15:47:40Z</time></trkpt><trkpt lat="43.89737980997705" lon="11.775831224900616"><ele>717.5</ele><time>2026-04-05T15:47:41Z</time></trkpt><trkpt lat="43.897227940236526" lon="11.775822489486218"><ele>719.0</ele><time>2026-04-05T15:47:42Z</time></trkpt><trkpt lat="43.89709796294791" lon="11.775793732453977"><ele>720.5</ele><time>2026-04-05T15:47:43Z</time></trkpt><trkpt lat="43.896990586587684" lon="11.7757199850951"><ele>722.0</ele><time>2026-04-05T15:47:44Z</time></trkpt><trkpt lat="43.89692492735591" lon="11.77557338902519"><ele>722.0</ele><time>2026-04-05T15:47:45Z</time></trkpt><trkpt lat="43.89690919277492" lon="11.775380606938986"><ele>722.0</ele><time>2026-04-05T15:47:46Z</time></trkpt><trkpt lat="43.896870991091305" lon="11.775212574763865"><ele>722.0</ele><time>2026-04-05T15:47:47Z</time></trkpt><trkpt lat="43.896817368799844" lon="11.775075427544907"><ele>722.0</ele><time>2026-04-05T15:47:48Z</time></trkpt><trkpt lat="43.89669884335631" lon="11.774962826575702"><ele>725.25</ele><time>2026-04-05T15:47:49Z</time></trkpt><trkpt lat="43.89655438325819" lon="11.774875441420631"><ele>728.5</ele><time>2026-04-05T15:47:50Z</time></trkpt><trkpt lat="43.896416836390976" lon="11.774797823065494"><ele>731.75</ele><time>2026-04-05T15:47:51Z</time></trkpt><trkpt lat="43.8963059398598" lon="11.774731361482054"><ele>735.0</ele><time>2026-04-05T15:47:52Z</time></trkpt><trkpt lat="43.896199009544205" lon="11.774727941098618"><ele>735.0</ele><time>2026-04-05T15:47:53Z</time></trkpt><trkpt lat="43.89608186378601" lon="11.774803502249085"><ele>735.0</ele><time>2026-04-05T15:47:54Z</time></trkpt><trkpt lat="43.895957079960326" lon="11.77494008557937"><ele>735.0</ele><time>2026-04-05T15:47:55Z</time></trkpt><trkpt lat="43.895861149559074" lon="11.775093704887173"><ele>735.0</ele><time>2026-04-05T15:47:56Z</time></trkpt><trkpt lat="43.89575769028947" lon="11.775247107468884"><ele>728.25</ele><time>2026-04-05T15:47:57Z</time></trkpt><trkpt lat="43.8956532197746" lon="11.77539570123936"><ele>721.5</ele><time>2026-04-05T15:47:58Z</time></trkpt><trkpt lat="43.89555885606674" lon="11.775527456244737"><ele>714.75</ele><time>2026-04-05T15:47:59Z</time></trkpt><trkpt lat="43.89547057980923" lon="11.775632393479649"><ele>708.0</ele><time>2026-04-05T15:48:00Z</time></trkpt><trkpt lat="43.89538688518043" lon="11.77570613030351"><ele>708.0</ele><time>2026-04-05T15:48:01Z</time></trkpt><trkpt lat="43.89528987455818" lon="11.775704404838535"><ele>708.0</ele><time>2026-04-05T15:48:02Z</time></trkpt><trkpt lat="43.89519992192743" lon="11.775626479776768"><ele>708.0</ele><time>2026-04-05T15:48:03Z</time></trkpt><trkpt lat="43.895142727795516" lon="11.775500950961142"><ele>708.0</ele><time>2026-04-05T15:48:04Z</time></trkpt><trkpt lat="43.89514062029272" lon="11.775331279446995"><ele>708.0</ele><time>2026-04-05T15:48:05Z</time></trkpt><trkpt lat="43.89508864276726" lon="11.775173227750066"><ele>714.0</ele><time>2026-04-05T15:48:06Z</time></trkpt><trkpt lat="43.89506205167926" lon="11.774990362135037"><ele>720.0</ele><time>2026-04-05T15:48:07Z</time></trkpt><trkpt lat="43.89502839503172" lon="11.774794749354326"><ele>726.0</ele><time>2026-04-05T15:48:08Z</time></trkpt><trkpt lat="43.89501346160154" lon="11.774592324549365"><ele>732.0</ele><time>2026-04-05T15:48:09Z</time></trkpt><trkpt lat="43.89501752923547" lon="11.77441004299159"><ele>736.6</ele><time>2026-04-05T15:48:10Z</time></trkpt><trkpt lat="43.89502386023634" lon="11.774245075003687"><ele>741.2</ele><time>2026-04-05T15:48:11Z</time></trkpt><trkpt lat="43.895005380894816" lon="11.77410677434008"><ele>745.8</ele><time>2026-04-05T15:48:12Z</time></trkpt><trkpt lat="43.89494966225735" lon="11.773986385244907"><ele>750.4</ele><time>2026-04-05T15:48:13Z</time></trkpt><trkpt lat="43.89486194926829" lon="11.773894563605221"><ele>755.0</ele><time>2026-04-05T15:48:14Z</time></trkpt><trkpt lat="43.89473722068782" lon="11.773868084913751"><ele>755.0</ele><time>2026-04-05T15:48:15Z</time></trkpt><trkpt lat="43.89461656316008" lon="11.773856452626548"><ele>755.0</ele><time>2026-04-05T15:48:16Z</time></trkpt><trkpt lat="43.89451925545827" lon="11.773793871050634"><ele>755.0</ele><time>2026-04-05T15:48:17Z</time></trkpt><trkpt lat="43.8944565162175" lon="11.773654690170742"><ele>755.0</ele><time>2026-04-05T15:48:18Z</time></trkpt><trkpt lat="43.89444009722845" lon="11.773479333284584"><ele>762.25</ele><time>2026-04-05T15:48:19Z</time></trkpt><trkpt lat="43.894397616674674" lon="11.773282811562268"><ele>769.5</ele><time>2026-04-05T15:48:20Z</time></trkpt><trkpt lat="43.89439259870512" lon="11.773093351981558"><ele>776.75</ele><time>2026-04-05T15:48:21Z</time></trkpt><trkpt lat="43.894377521860115" lon="11.772923006748389"><ele>784.0</ele><time>2026-04-05T15:48:22Z</time></trkpt><trkpt lat="43.894355390132986" lon="11.772771671882005"><ele>781.6</ele><time>2026-04-05T15:48:23Z</time></trkpt><trkpt lat="43.894308260856384" lon="11.77265573012606"><ele>779.2</ele><time>2026-04-05T15:48:24Z</time></trkpt><trkpt lat="43.894212973511024" lon="11.772586331070668"><ele>776.8000000000001</ele><time>2026-04-05T15:48:25Z</time></trkpt><trkpt lat="43.89410858573976" lon="11.772587013148271"><ele>774.4000000000001</ele><time>2026-04-05T15:48:26Z</time></trkpt><trkpt lat="43.89400906028908" lon="11.772670386505684"><ele>772.0</ele><time>2026-04-05T15:48:27Z</time></trkpt><trkpt lat="43.893952319565365" lon="11.772806298318926"><ele>767.25</ele><time>2026-04-05T15:48:28Z</time></trkpt><trkpt lat="43.89392248404543" lon="11.772976947364251"><ele>762.5</ele><time>2026-04-05T15:48:29Z</time></trkpt><trkpt lat="43.89384950229127" lon="11.773112015677377"><ele>757.75</ele><time>2026-04-05T15:48:30Z</time></trkpt><trkpt lat="43.89374043819696" lon="11.773202395137199"><ele>753.0</ele><time>2026-04-05T15:48:31Z</time></trkpt><trkpt lat="43.89364174596441" lon="11.773318105117513"><ele>753.0</ele><time>2026-04-05T15:48:32Z</time></trkpt><trkpt lat="43.89356538451499" lon="11.773433403875726"><ele>753.0</ele><time>2026-04-05T15:48:33Z</time></trkpt><trkpt lat="43.893534239372" lon="11.77359482287648"><ele>753.0</ele><time>2026-04-05T15:48:34Z</time></trkpt><trkpt lat="43.89355593549014" lon="11.773778897616037"><ele>753.0</ele><time>2026-04-05T15:48:35Z</time></trkpt><trkpt lat="43.89362411886053" lon="11.77394435083401"><ele>748.25</ele><time>2026-04-05T15:48:36Z</time></trkpt><trkpt lat="43.893648768380174" lon="11.774106028059032"><ele>743.5</ele><time>2026-04-05T15:48:37Z</time></trkpt><trkpt lat="43.893612747388865" lon="11.774276796669948"><ele>738.75</ele><time>2026-04-05T15:48:38Z</time></trkpt><trkpt lat="43.89357883725287" lon="11.774469205305943"><ele>734.0</ele><time>2026-04-05T15:48:39Z</time></trkpt><trkpt lat="43.893550822151504" lon="11.77468063038567"><ele>729.5</ele><time>2026-04-05T15:48:40Z</time></trkpt><trkpt lat="43.89348433661997" lon="11.774881376476676"><ele>725.0</ele><time>2026-04-05T15:48:41Z</time></trkpt><trkpt lat="43.89345044446413" lon="11.77508457454886"><ele>720.5</ele><time>2026-04-05T15:48:42Z</time></trkpt><trkpt lat="43.893404110755455" lon="11.775261773380794"><ele>716.0</ele><time>2026-04-05T15:48:43Z</time></trkpt><trkpt lat="43.89336960838453" lon="11.775417362422022"><ele>723.1999999999999</ele><time>2026-04-05T15:48:44Z</time></trkpt><trkpt lat="43.893307279513024" lon="11.775540858037841"><ele>730.4</ele><time>2026-04-05T15:48:45Z</time></trkpt><trkpt lat="43.893223946082124" lon="11.775597404211453"><ele>737.6</ele><time>2026-04-05T15:48:46Z</time></trkpt><trkpt lat="43.89312318997051" lon="11.775584133105847"><ele>744.8</ele><time>2026-04-05T15:48:47Z</time></trkpt><trkpt lat="43.893021377321695" lon="11.775490952176215"><ele>752.0</ele><time>2026-04-05T15:48:48Z</time></trkpt><trkpt lat="43.892932846790345" lon="11.775373808565151"><ele>752.0</ele><time>2026-04-05T15:48:49Z</time></trkpt><trkpt lat="43.89287549843054" lon="11.775221225921705"><ele>752.0</ele><time>2026-04-05T15:48:50Z</time></trkpt><trkpt lat="43.89285860775155" lon="11.775029220309717"><ele>752.0</ele><time>2026-04-05T15:48:51Z</time></trkpt><trkpt lat="43.89281584992213" lon="11.774849422963724"><ele>752.0</ele><time>2026-04-05T15:48:52Z</time></trkpt><trkpt lat="43.89275038945861" lon="11.774693499350066"><ele>756.5</ele><time>2026-04-05T15:48:53Z</time></trkpt><trkpt lat="43.89263945235007" lon="11.774586647842217"><ele>761.0</ele><time>2026-04-05T15:48:54Z</time></trkpt><trkpt lat="43.892503524064125" lon="11.774505105801701"><ele>765.5</ele><time>2026-04-05T15:48:55Z</time></trkpt><trkpt lat="43.89235646659988" lon="11.774414340231083"><ele>770.0</ele><time>2026-04-05T15:48:56Z</time></trkpt><trkpt lat="43.89221325743704" lon="11.774312298404794"><ele>777.5</ele><time>2026-04-05T15:48:57Z</time></trkpt><trkpt lat="43.89208082248555" lon="11.774204683570785"><ele>785.0</ele><time>2026-04-05T15:48:58Z</time></trkpt><trkpt lat="43.89196741948147" lon="11.7740839853074"><ele>792.5</ele><time>2026-04-05T15:48:59Z</time></trkpt><trkpt lat="43.89190742035819" lon="11.773916726124028"><ele>800.0</ele><time>2026-04-05T15:49:00Z</time></trkpt><trkpt lat="43.89183789660527" lon="11.773735224203396"><ele>800.0</ele><time>2026-04-05T15:49:01Z</time></trkpt><trkpt lat="43.89179054913535" lon="11.773539615945927"><ele>800.0</ele><time>2026-04-05T15:49:02Z</time></trkpt><trkpt lat="43.89173932824126" lon="11.77335491263842"><ele>800.0</ele><time>2026-04-05T15:49:03Z</time></trkpt><trkpt lat="43.89168060866184" lon="11.773167096778208"><ele>800.0</ele><time>2026-04-05T15:49:04Z</time></trkpt><trkpt lat="43.89162577202312" lon="11.772974222055211"><ele>798.0</ele><time>2026-04-05T15:49:05Z</time></trkpt><trkpt lat="43.89158031417058" lon="11.772786320643684"><ele>796.0</ele><time>2026-04-05T15:49:06Z</time></trkpt><trkpt lat="43.89154623252579" lon="11.7726214592214"><ele>794.0</ele><time>2026-04-05T15:49:07Z</time></trkpt><trkpt lat="43.89149011406876" lon="11.77248976537623"><ele>792.0</ele><time>2026-04-05T15:49:08Z</time></trkpt><trkpt lat="43.89139562856032" lon="11.77240638001446"><ele>796.5</ele><time>2026-04-05T15:49:09Z</time></trkpt><trkpt lat="43.89127107217484" lon="11.772378302460396"><ele>801.0</ele><time>2026-04-05T15:49:10Z</time></trkpt><trkpt lat="43.8911327919387" lon="11.77243602328813"><ele>805.5</ele><time>2026-04-05T15:49:11Z</time></trkpt><trkpt lat="43.8910018583339" lon="11.772545263667146"><ele>810.0</ele><time>2026-04-05T15:49:12Z</time></trkpt><trkpt lat="43.89086484154335" lon="11.772660336411125"><ele>800.5</ele><time>2026-04-05T15:49:13Z</time></trkpt><trkpt lat="43.89072029500435" lon="11.772747361775188"><ele>791.0</ele><time>2026-04-05T15:49:14Z</time></trkpt><trkpt lat="43.89059066676635" lon="11.772829077550112"><ele>781.5</ele><time>2026-04-05T15:49:15Z</time></trkpt><trkpt lat="43.890469653074284" lon="11.772898818621274"><ele>772.0</ele><time>2026-04-05T15:49:16Z</time></trkpt><trkpt lat="43.89035868742807" lon="11.772940558042327"><ele>772.0</ele><time>2026-04-05T15:49:17Z</time></trkpt><trkpt lat="43.89024631503784" lon="11.772928500799527"><ele>772.0</ele><time>2026-04-05T15:49:18Z</time></trkpt><trkpt lat="43.8901453214785" lon="11.772843021261451"><ele>772.0</ele><time>2026-04-05T15:49:19Z</time></trkpt><trkpt lat="43.89007934607857" lon="11.772687826489424"><ele>772.0</ele><time>2026-04-05T15:49:20Z</time></trkpt><trkpt lat="43.89006930560387" lon="11.7724956554323"><ele>779.8</ele><time>2026-04-05T15:49:21Z</time></trkpt><trkpt lat="43.89005796688396" lon="11.77234327576221"><ele>787.6</ele><time>2026-04-05T15:49:22Z</time></trkpt><trkpt lat="43.8900077726811" lon="11.772236714794136"><ele>795.4</ele><time>2026-04-05T15:49:23Z</time></trkpt><trkpt lat="43.8899125500303" lon="11.772166962062064"><ele>803.1999999999999</ele><time>2026-04-05T15:49:24Z</time></trkpt><trkpt lat="43.88979356047686" lon="11.77220851772622"><ele>811.0</ele><time>2026-04-05T15:49:25Z</time></trkpt><trkpt lat="43.88969036647606" lon="11.77230989267561"><ele>811.0</ele><time>2026-04-05T15:49:26Z</time></trkpt><trkpt lat="43.88958952725767" lon="11.772441619369499"><ele>811.0</ele><time>2026-04-05T15:49:27Z</time></trkpt><trkpt lat="43.88948909374241" lon="11.772580334208953"><ele>811.0</ele><time>2026-04-05T15:49:28Z</time></trkpt><trkpt lat="43.88938661492942" lon="11.772690579649533"><ele>811.0</ele><time>2026-04-05T15:49:29Z</time></trkpt><trkpt lat="43.889292254660276" lon="11.772790680803634"><ele>806.5</ele><time>2026-04-05T15:49:30Z</time></trkpt><trkpt lat="43.889191433339555" lon="11.772877462126388"><ele>802.0</ele><time>2026-04-05T15:49:31Z</time></trkpt><trkpt lat="43.88907635625318" lon="11.772914565582491"><ele>797.5</ele><time>2026-04-05T15:49:32Z</time></trkpt><trkpt lat="43.88896152048512" lon="11.772879329200538"><ele>793.0</ele><time>2026-04-05T15:49:33Z</time></trkpt><trkpt lat="43.88885972930429" lon="11.772790640799688"><ele>799.5</ele><time>2026-04-05T15:49:34Z</time></trkpt><trkpt lat="43.88879378244817" lon="11.772653161555082"><ele>806.0</ele><time>2026-04-05T15:49:35Z</time></trkpt><trkpt lat="43.888780329628005" lon="11.77246905423806"><ele>812.5</ele><time>2026-04-05T15:49:36Z</time></trkpt><trkpt lat="43.88883095838836" lon="11.772297669124058"><ele>819.0</ele><time>2026-04-05T15:49:37Z</time></trkpt><trkpt lat="43.888887547115104" lon="11.772126722084872"><ele>819.0</ele><time>2026-04-05T15:49:38Z</time></trkpt><trkpt lat="43.888936185247026" lon="11.771942550652156"><ele>819.0</ele><time>2026-04-05T15:49:39Z</time></trkpt><trkpt lat="43.88899122307421" lon="11.771766958041772"><ele>819.0</ele><time>2026-04-05T15:49:40Z</time></trkpt><trkpt lat="43.88902064638266" lon="11.771581228814572"><ele>819.0</ele><time>2026-04-05T15:49:41Z</time></trkpt><trkpt lat="43.88900881779979" lon="11.771390007415642"><ele>824.0</ele><time>2026-04-05T15:49:42Z</time></trkpt><trkpt lat="43.88894138562848" lon="11.771208628011488"><ele>829.0</ele><time>2026-04-05T15:49:43Z</time></trkpt><trkpt lat="43.88884309794973" lon="11.77107473258903"><ele>834.0</ele><time>2026-04-05T15:49:44Z</time></trkpt><trkpt lat="43.88874392533985" lon="11.770952640539486"><ele>839.0</ele><time>2026-04-05T15:49:45Z</time></trkpt><trkpt lat="43.888700623342956" lon="11.77080914865877"><ele>840.75</ele><time>2026-04-05T15:49:46Z</time></trkpt><trkpt lat="43.888716015971944" lon="11.77064518733439"><ele>842.5</ele><time>2026-04-05T15:49:47Z</time></trkpt><trkpt lat="43.88880749511626" lon="11.770510216148269"><ele>844.25</ele><time>2026-04-05T15:49:48Z</time></trkpt><trkpt lat="43.888903791246435" lon="11.770378703922125"><ele>846.0</ele><time>2026-04-05T15:49:49Z</time></trkpt><trkpt lat="43.888996742995026" lon="11.770224617142437"><ele>843.75</ele><time>2026-04-05T15:49:50Z</time></trkpt><trkpt lat="43.88909727083041" lon="11.77007878232115"><ele>841.5</ele><time>2026-04-05T15:49:51Z</time></trkpt><trkpt lat="43.88919816362258" lon="11.769949376616287"><ele>839.25</ele><time>2026-04-05T15:49:52Z</time></trkpt><trkpt lat="43.88932674079312" lon="11.769905695260586"><ele>837.0</ele><time>2026-04-05T15:49:53Z</time></trkpt><trkpt lat="43.88945260884875" lon="11.769918657479012"><ele>844.75</ele><time>2026-04-05T15:49:54Z</time></trkpt><trkpt lat="43.88956299954617" lon="11.769878939759904"><ele>852.5</ele><time>2026-04-05T15:49:55Z</time></trkpt><trkpt lat="43.889651054857694" lon="11.769813605825762"><ele>860.25</ele><time>2026-04-05T15:49:56Z</time></trkpt><trkpt lat="43.88971518234146" lon="11.76967536853259"><ele>868.0</ele><time>2026-04-05T15:49:57Z</time></trkpt><trkpt lat="43.88974231509353" lon="11.769493647640989"><ele>866.25</ele><time>2026-04-05T15:49:58Z</time></trkpt><trkpt lat="43.88972594449479" lon="11.769315710673645"><ele>864.5</ele><time>2026-04-05T15:49:59Z</time></trkpt><trkpt lat="43.88967264348687" lon="11.769156981913763"><ele>862.75</ele><time>2026-04-05T15:50:00Z</time></trkpt><trkpt lat="43.88968570940635" lon="11.769001623921998"><ele>861.0</ele><time>2026-04-05T15:50:01Z</time></trkpt><trkpt lat="43.8897539012225" lon="11.768874516427076"><ele>861.0</ele><time>2026-04-05T15:50:02Z</time></trkpt><trkpt lat="43.88986598382173" lon="11.768802009064334"><ele>861.0</ele><time>2026-04-05T15:50:03Z</time></trkpt><trkpt lat="43.889991462782646" lon="11.768778205103873"><ele>861.0</ele><time>2026-04-05T15:50:04Z</time></trkpt><trkpt lat="43.89010263231573" lon="11.768700171913656"><ele>861.0</ele><time>2026-04-05T15:50:05Z</time></trkpt><trkpt lat="43.890195526999136" lon="11.768651189728686"><ele>870.5</ele><time>2026-04-05T15:50:06Z</time></trkpt><trkpt lat="43.8902547357409" lon="11.768542701757815"><ele>880.0</ele><time>2026-04-05T15:50:07Z</time></trkpt><trkpt lat="43.890280850296136" lon="11.76838187494833"><ele>889.5</ele><time>2026-04-05T15:50:08Z</time></trkpt><trkpt lat="43.89026199515936" lon="11.768205298247475"><ele>899.0</ele><time>2026-04-05T15:50:09Z</time></trkpt><trkpt lat="43.89019053757433" lon="11.76803139637954"><ele>890.5</ele><time>2026-04-05T15:50:10Z</time></trkpt><trkpt lat="43.890085895937375" lon="11.767879154544948"><ele>882.0</ele><time>2026-04-05T15:50:11Z</time></trkpt><trkpt lat="43.88998127963337" lon="11.767731220342434"><ele>873.5</ele><time>2026-04-05T15:50:12Z</time></trkpt><trkpt lat="43.88989568482221" lon="11.767579607290546"><ele>865.0</ele><time>2026-04-05T15:50:13Z</time></trkpt><trkpt lat="43.889837849852285" lon="11.767433853213687"><ele>865.0</ele><time>2026-04-05T15:50:14Z</time></trkpt><trkpt lat="43.88981895390856" lon="11.767264782008944"><ele>865.0</ele><time>2026-04-05T15:50:15Z</time></trkpt><trkpt lat="43.88987015009227" lon="11.767091371536488"><ele>865.0</ele><time>2026-04-05T15:50:16Z</time></trkpt><trkpt lat="43.88995477227136" lon="11.766958646039829"><ele>865.0</ele><time>2026-04-05T15:50:17Z</time></trkpt><trkpt lat="43.89004614499148" lon="11.766832431169208"><ele>866.5</ele><time>2026-04-05T15:50:18Z</time></trkpt><trkpt lat="43.89010130260891" lon="11.766715024446354"><ele>868.0</ele><time>2026-04-05T15:50:19Z</time></trkpt><trkpt lat="43.89013018694267" lon="11.766581198382172"><ele>869.5</ele><time>2026-04-05T15:50:20Z</time></trkpt><trkpt lat="43.89011068864685" lon="11.766421787738322"><ele>871.0</ele><time>2026-04-05T15:50:21Z</time></trkpt><trkpt lat="43.89005767187248" lon="11.766252145607638"><ele>871.0</ele><time>2026-04-05T15:50:22Z</time></trkpt><trkpt lat="43.889980989467055" lon="11.766093110637252"><ele>871.0</ele><time>2026-04-05T15:50:23Z</time></trkpt><trkpt lat="43.889910790439615" lon="11.765961330176594"><ele>871.0</ele><time>2026-04-05T15:50:24Z</time></trkpt><trkpt lat="43.88982921651148" lon="11.76587351852738"><ele>871.0</ele><time>2026-04-05T15:50:25Z</time></trkpt><trkpt lat="43.88972203279403" lon="11.765851826843779"><ele>871.0</ele><time>2026-04-05T15:50:26Z</time></trkpt><trkpt lat="43.88960267095872" lon="11.765903169438513"><ele>871.0</ele><time>2026-04-05T15:50:27Z</time></trkpt><trkpt lat="43.88949368783013" lon="11.766007457866527"><ele>871.0</ele><time>2026-04-05T15:50:28Z</time></trkpt><trkpt lat="43.889402430425676" lon="11.766157260969443"><ele>871.0</ele><time>2026-04-05T15:50:29Z</time></trkpt><trkpt lat="43.889319798060335" lon="11.766291704529833"><ele>869.75</ele><time>2026-04-05T15:50:30Z</time></trkpt><trkpt lat="43.889220457328975" lon="11.76637184741447"><ele>868.5</ele><time>2026-04-05T15:50:31Z</time></trkpt><trkpt lat="43.889099920700026" lon="11.766393315048203"><ele>867.25</ele><time>2026-04-05T15:50:32Z</time></trkpt><trkpt lat="43.88897074813543" lon="11.766351943349001"><ele>866.0</ele><time>2026-04-05T15:50:33Z</time></trkpt><trkpt lat="43.88885890434779" lon="11.766247497910314"><ele>866.0</ele><time>2026-04-05T15:50:34Z</time></trkpt><trkpt lat="43.88878186871092" lon="11.766088887467978"><ele>866.0</ele><time>2026-04-05T15:50:35Z</time></trkpt><trkpt lat="43.888766534263404" lon="11.765891852474578"><ele>866.0</ele><time>2026-04-05T15:50:36Z</time></trkpt><trkpt lat="43.88874465349181" lon="11.765668257629455"><ele>866.0</ele><time>2026-04-05T15:50:37Z</time></trkpt><trkpt lat="43.88874032986181" lon="11.765449822183518"><ele>872.6666666666667</ele><time>2026-04-05T15:50:38Z</time></trkpt><trkpt lat="43.88872812710704" lon="11.765233792034252"><ele>879.3333333333333</ele><time>2026-04-05T15:50:39Z</time></trkpt><trkpt lat="43.8887471419631" lon="11.76502631717958"><ele>886.0</ele><time>2026-04-05T15:50:40Z</time></trkpt><trkpt lat="43.888796888200005" lon="11.76481672180013"><ele>890.3333333333333</ele><time>2026-04-05T15:50:41Z</time></trkpt><trkpt lat="43.888867411198895" lon="11.764592207682973"><ele>894.6666666666667</ele><time>2026-04-05T15:50:42Z</time></trkpt><trkpt lat="43.88892069717838" lon="11.764374965588754"><ele>899.0</ele><time>2026-04-05T15:50:43Z</time></trkpt><trkpt lat="43.888959612819825" lon="11.764169781175625"><ele>901.0</ele><time>2026-04-05T15:50:44Z</time></trkpt><trkpt lat="43.88895584963423" lon="11.763996195641521"><ele>903.0000000000001</ele><time>2026-04-05T15:50:45Z</time></trkpt><trkpt lat="43.88893942942749" lon="11.76384389340741"><ele>905.0000000000001</ele><time>2026-04-05T15:50:46Z</time></trkpt><trkpt lat="43.88888013222197" lon="11.76372291850407"><ele>907.0</ele><time>2026-04-05T15:50:47Z</time></trkpt><trkpt lat="43.88879292904863" lon="11.763668488731064"><ele>909.0</ele><time>2026-04-05T15:50:48Z</time></trkpt><trkpt lat="43.88867816730618" lon="11.763688717472048"><ele>909.0</ele><time>2026-04-05T15:50:49Z</time></trkpt><trkpt lat="43.88855626966849" lon="11.763744134648825"><ele>909.0</ele><time>2026-04-05T15:50:50Z</time></trkpt><trkpt lat="43.88843103518315" lon="11.763825904855196"><ele>909.0</ele><time>2026-04-05T15:50:51Z</time></trkpt><trkpt lat="43.888298046765534" lon="11.763903569116483"><ele>909.0</ele><time>2026-04-05T15:50:52Z</time></trkpt><trkpt lat="43.88815843934438" lon="11.76396769114441"><ele>905.25</ele><time>2026-04-05T15:50:53Z</time></trkpt><trkpt lat="43.88803470714024" lon="11.764009737740253"><ele>901.5</ele><time>2026-04-05T15:50:54Z</time></trkpt><trkpt lat="43.88791749258509" lon="11.764002431482902"><ele>897.75</ele><time>2026-04-05T15:50:55Z</time></trkpt><trkpt lat="43.88782467663757" lon="11.763892758989169"><ele>894.0</ele><time>2026-04-05T15:50:56Z</time></trkpt><trkpt lat="43.887729035672734" lon="11.763757941163167"><ele>894.0</ele><time>2026-04-05T15:50:57Z</time></trkpt><trkpt lat="43.88763735618958" lon="11.763590478329052"><ele>894.0</ele><time>2026-04-05T15:50:58Z</time></trkpt><trkpt lat="43.88753753116954" lon="11.763437855377427"><ele>894.0</ele><time>2026-04-05T15:50:59Z</time></trkpt><trkpt lat="43.88744554359101" lon="11.763280997676075"><ele>894.0</ele><time>2026-04-05T15:51:00Z</time></trkpt><trkpt lat="43.88737975324217" lon="11.763101157441353"><ele>898.6666666666667</ele><time>2026-04-05T15:51:01Z</time></trkpt><trkpt lat="43.88734586934972" lon="11.762900921915948"><ele>903.3333333333334</ele><time>2026-04-05T15:51:02Z</time></trkpt><trkpt lat="43.88732064690396" lon="11.762687308152358"><ele>908.0</ele><time>2026-04-05T15:51:03Z</time></trkpt><trkpt lat="43.887294173002616" lon="11.76247784401309"><ele>913.25</ele><time>2026-04-05T15:51:04Z</time></trkpt><trkpt lat="43.88726530135921" lon="11.762276153521338"><ele>918.5</ele><time>2026-04-05T15:51:05Z</time></trkpt><trkpt lat="43.887233463476335" lon="11.76209426041828"><ele>923.75</ele><time>2026-04-05T15:51:06Z</time></trkpt><trkpt lat="43.88717975285604" lon="11.761951636095525"><ele>929.0</ele><time>2026-04-05T15:51:07Z</time></trkpt><trkpt lat="43.887086754857386" lon="11.761851402058175"><ele>933.0</ele><time>2026-04-05T15:51:08Z</time></trkpt><trkpt lat="43.886956435802375" lon="11.761813937647526"><ele>937.0</ele><time>2026-04-05T15:51:09Z</time></trkpt><trkpt lat="43.88680475754982" lon="11.76182448773821"><ele>941.0</ele><time>2026-04-05T15:51:10Z</time></trkpt><trkpt lat="43.88664359054318" lon="11.76187060445582"><ele>945.0</ele><time>2026-04-05T15:51:11Z</time></trkpt><trkpt lat="43.88648380330185" lon="11.76189465172729"><ele>931.0</ele><time>2026-04-05T15:51:12Z</time></trkpt><trkpt lat="43.886330599604676" lon="11.76191216318973"><ele>917.0</ele><time>2026-04-05T15:51:13.001Z</time></trkpt><trkpt lat="43.88619440229617" lon="11.761923952588457"><ele>903.0</ele><time>2026-04-05T15:51:14.001Z</time></trkpt><trkpt lat="43.886008322722724" lon="11.761891985512065"><ele>914.3333333333333</ele><time>2026-04-05T15:51:15.001Z</time></trkpt><trkpt lat="43.88583942742545" lon="11.761839046788873"><ele>925.6666666666666</ele><time>2026-04-05T15:51:16.001Z</time></trkpt><trkpt lat="43.885680994782604" lon="11.76177777138243"><ele>937.0</ele><time>2026-04-05T15:51:17.001Z</time></trkpt><trkpt lat="43.88553864734643" lon="11.761754144060275"><ele>937.0</ele><time>2026-04-05T15:51:18.001Z</time></trkpt><trkpt lat="43.8854139206335" lon="11.761755034782505"><ele>937.0</ele><time>2026-04-05T15:51:19.001Z</time></trkpt><trkpt lat="43.885305479033505" lon="11.761714106491414"><ele>937.0</ele><time>2026-04-05T15:51:20.001Z</time></trkpt><trkpt lat="43.88526341115944" lon="11.761575326160315"><ele>937.0</ele><time>2026-04-05T15:51:21.001Z</time></trkpt><trkpt lat="43.885242082555784" lon="11.761432161781421"><ele>937.0</ele><time>2026-04-05T15:51:22.001Z</time></trkpt><trkpt lat="43.88524153025659" lon="11.761259980456241"><ele>937.0</ele><time>2026-04-05T15:51:23.001Z</time></trkpt><trkpt lat="43.885240293754705" lon="11.761080755204834"><ele>937.0</ele><time>2026-04-05T15:51:24.001Z</time></trkpt><trkpt lat="43.88526504897376" lon="11.760911757072083"><ele>937.0</ele><time>2026-04-05T15:51:25.001Z</time></trkpt><trkpt lat="43.885327874443995" lon="11.76074664397212"><ele>940.25</ele><time>2026-04-05T15:51:26.001Z</time></trkpt><trkpt lat="43.88543155327487" lon="11.76061609315527"><ele>943.5</ele><time>2026-04-05T15:51:27.001Z</time></trkpt><trkpt lat="43.88552433379982" lon="11.76044399045078"><ele>946.75</ele><time>2026-04-05T15:51:28Z</time></trkpt><trkpt lat="43.885577153004114" lon="11.760252437922416"><ele>950.0</ele><time>2026-04-05T15:51:29Z</time></trkpt><trkpt lat="43.885625734620156" lon="11.760058044245877"><ele>950.0</ele><time>2026-04-05T15:51:30Z</time></trkpt><trkpt lat="43.885653950812824" lon="11.759863904273804"><ele>950.0</ele><time>2026-04-05T15:51:31Z</time></trkpt><trkpt lat="43.88565434117219" lon="11.759665317221572"><ele>950.0</ele><time>2026-04-05T15:51:32Z</time></trkpt><trkpt lat="43.885618509052264" lon="11.759464326475099"><ele>950.0</ele><time>2026-04-05T15:51:33Z</time></trkpt><trkpt lat="43.88558656546878" lon="11.759245633492268"><ele>949.5</ele><time>2026-04-05T15:51:34Z</time></trkpt><trkpt lat="43.88558978392378" lon="11.759022450300034"><ele>949.0</ele><time>2026-04-05T15:51:35Z</time></trkpt><trkpt lat="43.88561926364606" lon="11.758822014318065"><ele>948.5</ele><time>2026-04-05T15:51:36Z</time></trkpt><trkpt lat="43.8856198252151" lon="11.758650438688743"><ele>948.0</ele><time>2026-04-05T15:51:37Z</time></trkpt><trkpt lat="43.88557353091366" lon="11.758483435386053"><ele>947.75</ele><time>2026-04-05T15:51:38Z</time></trkpt><trkpt lat="43.88550898563699" lon="11.758320656315165"><ele>947.5</ele><time>2026-04-05T15:51:39Z</time></trkpt><trkpt lat="43.88544430276097" lon="11.758147912464553"><ele>947.25</ele><time>2026-04-05T15:51:40Z</time></trkpt><trkpt lat="43.88537527653812" lon="11.757966187344667"><ele>947.0</ele><time>2026-04-05T15:51:41Z</time></trkpt><trkpt lat="43.885302846289754" lon="11.757780334770887"><ele>949.3333333333334</ele><time>2026-04-05T15:51:42Z</time></trkpt><trkpt lat="43.88520506814979" lon="11.757606276862987"><ele>951.6666666666667</ele><time>2026-04-05T15:51:43Z</time></trkpt><trkpt lat="43.885099334283346" lon="11.757435852447617"><ele>954.0</ele><time>2026-04-05T15:51:44Z</time></trkpt><trkpt lat="43.885013786148626" lon="11.757271003146007"><ele>954.0</ele><time>2026-04-05T15:51:45Z</time></trkpt><trkpt lat="43.88493583919706" lon="11.757111075689837"><ele>954.0</ele><time>2026-04-05T15:51:46Z</time></trkpt><trkpt lat="43.88482798228935" lon="11.756887028488896"><ele>954.0</ele><time>2026-04-05T15:51:47Z</time></trkpt><trkpt lat="43.88471656656516" lon="11.756745334761105"><ele>956.6</ele><time>2026-04-05T15:51:48Z</time></trkpt><trkpt lat="43.884596184624684" lon="11.75664172942793"><ele>959.2</ele><time>2026-04-05T15:51:49Z</time></trkpt><trkpt lat="43.88448940845228" lon="11.756557450611155"><ele>961.8000000000001</ele><time>2026-04-05T15:51:50Z</time></trkpt><trkpt lat="43.884410883461285" lon="11.75649248470216"><ele>964.4000000000001</ele><time>2026-04-05T15:51:51Z</time></trkpt><trkpt lat="43.884369215576086" lon="11.75641602811007"><ele>967.0</ele><time>2026-04-05T15:51:52Z</time></trkpt><trkpt lat="43.88436611642675" lon="11.756322105481294"><ele>967.0</ele><time>2026-04-05T15:51:53Z</time></trkpt><trkpt lat="43.884496384532426" lon="11.75619777309143"><ele>967.0</ele><time>2026-04-05T15:51:55Z</time></trkpt><trkpt lat="43.88457832469799" lon="11.75620926401569"><ele>967.0</ele><time>2026-04-05T15:51:56Z</time></trkpt><trkpt lat="43.884650131111194" lon="11.756294360488727"><ele>967.0</ele><time>2026-04-05T15:51:57Z</time></trkpt><trkpt lat="43.884715223280345" lon="11.75640714959241"><ele>967.0</ele><time>2026-04-05T15:51:58Z</time></trkpt><trkpt lat="43.884780237038626" lon="11.756548795184514"><ele>967.0</ele><time>2026-04-05T15:51:59Z</time></trkpt><trkpt lat="43.88485513154882" lon="11.75669982984972"><ele>967.0</ele><time>2026-04-05T15:52:00Z</time></trkpt><trkpt lat="43.88494629893038" lon="11.756859099865308"><ele>967.0</ele><time>2026-04-05T15:52:01Z</time></trkpt><trkpt lat="43.885048747642934" lon="11.757023592567354"><ele>967.0</ele><time>2026-04-05T15:52:02Z</time></trkpt><trkpt lat="43.885150937987035" lon="11.757196490045036"><ele>964.5</ele><time>2026-04-05T15:52:03Z</time></trkpt><trkpt lat="43.88523927068578" lon="11.757344841643247"><ele>962.0</ele><time>2026-04-05T15:52:04Z</time></trkpt><trkpt lat="43.88531653217255" lon="11.757473561332562"><ele>959.5</ele><time>2026-04-05T15:52:05Z</time></trkpt><trkpt lat="43.88538650596122" lon="11.75758318002447"><ele>957.0</ele><time>2026-04-05T15:52:06Z</time></trkpt><trkpt lat="43.88544347762867" lon="11.757684678662043"><ele>957.0</ele><time>2026-04-05T15:52:07Z</time></trkpt><trkpt lat="43.88550800598309" lon="11.757757675105182"><ele>957.0</ele><time>2026-04-05T15:52:08Z</time></trkpt><trkpt lat="43.885589634839405" lon="11.757758322869066"><ele>957.0</ele><time>2026-04-05T15:52:09Z</time></trkpt><trkpt lat="43.88566527812408" lon="11.757633330447385"><ele>957.0</ele><time>2026-04-05T15:52:10Z</time></trkpt><trkpt lat="43.885695758355176" lon="11.757492312447889"><ele>957.0</ele><time>2026-04-05T15:52:11Z</time></trkpt><trkpt lat="43.88566533340363" lon="11.757350587985542"><ele>957.0</ele><time>2026-04-05T15:52:12Z</time></trkpt><trkpt lat="43.88558105858136" lon="11.757235831108948"><ele>957.0</ele><time>2026-04-05T15:52:13Z</time></trkpt><trkpt lat="43.88548358295427" lon="11.757118668175252"><ele>957.0</ele><time>2026-04-05T15:52:14Z</time></trkpt><trkpt lat="43.885394556090795" lon="11.756983453282286"><ele>957.0</ele><time>2026-04-05T15:52:15Z</time></trkpt><trkpt lat="43.88530166439907" lon="11.756839149067977"><ele>958.0</ele><time>2026-04-05T15:52:16Z</time></trkpt><trkpt lat="43.885201479844525" lon="11.756681869853445"><ele>959.0</ele><time>2026-04-05T15:52:17Z</time></trkpt><trkpt lat="43.885102223527944" lon="11.756522045344173"><ele>960.0</ele><time>2026-04-05T15:52:18Z</time></trkpt><trkpt lat="43.885027761392834" lon="11.756355031364928"><ele>961.0</ele><time>2026-04-05T15:52:19Z</time></trkpt><trkpt lat="43.88499030989429" lon="11.756168251305265"><ele>963.0</ele><time>2026-04-05T15:52:20Z</time></trkpt><trkpt lat="43.88499169753928" lon="11.755975670667524"><ele>965.0</ele><time>2026-04-05T15:52:21Z</time></trkpt><trkpt lat="43.88499801135782" lon="11.75579540642903"><ele>967.0</ele><time>2026-04-05T15:52:22Z</time></trkpt><trkpt lat="43.88495319977051" lon="11.75565331787864"><ele>969.0</ele><time>2026-04-05T15:52:23Z</time></trkpt><trkpt lat="43.88485862165085" lon="11.755562709803103"><ele>969.0</ele><time>2026-04-05T15:52:24Z</time></trkpt><trkpt lat="43.884725878969945" lon="11.755519285991694"><ele>969.0</ele><time>2026-04-05T15:52:25Z</time></trkpt><trkpt lat="43.884586872033566" lon="11.755468367787568"><ele>969.0</ele><time>2026-04-05T15:52:26Z</time></trkpt><trkpt lat="43.884458808057126" lon="11.755402295348611"><ele>969.0</ele><time>2026-04-05T15:52:27Z</time></trkpt><trkpt lat="43.88435134072112" lon="11.75530281366613"><ele>971.75</ele><time>2026-04-05T15:52:28Z</time></trkpt><trkpt lat="43.884285046732394" lon="11.755154131541259"><ele>974.5</ele><time>2026-04-05T15:52:29Z</time></trkpt><trkpt lat="43.88420319573068" lon="11.755069621769739"><ele>977.25</ele><time>2026-04-05T15:52:30Z</time></trkpt><trkpt lat="43.884117764416885" lon="11.754984042386521"><ele>980.0</ele><time>2026-04-05T15:52:31Z</time></trkpt><trkpt lat="43.88412250412376" lon="11.754658729015413"><ele>980.0</ele><time>2026-04-05T15:52:32Z</time></trkpt><trkpt lat="43.88399704980339" lon="11.75454066588128"><ele>980.0</ele><time>2026-04-05T15:52:33Z</time></trkpt><trkpt lat="43.88386513234687" lon="11.754418519635307"><ele>980.0</ele><time>2026-04-05T15:52:34Z</time></trkpt><trkpt lat="43.883744345073204" lon="11.754273093134099"><ele>979.5</ele><time>2026-04-05T15:52:35Z</time></trkpt><trkpt lat="43.883641432785865" lon="11.754121161475705"><ele>979.0</ele><time>2026-04-05T15:52:36Z</time></trkpt><trkpt lat="43.88356597457528" lon="11.75395529399507"><ele>978.5</ele><time>2026-04-05T15:52:37Z</time></trkpt><trkpt lat="43.88352494838252" lon="11.753774392333602"><ele>978.0</ele><time>2026-04-05T15:52:38Z</time></trkpt><trkpt lat="43.88352321062874" lon="11.75357470334004"><ele>977.5999999999999</ele><time>2026-04-05T15:52:39Z</time></trkpt><trkpt lat="43.883547379450015" lon="11.753413108276657"><ele>977.1999999999999</ele><time>2026-04-05T15:52:40Z</time></trkpt><trkpt lat="43.883604869949494" lon="11.753285967919048"><ele>976.8</ele><time>2026-04-05T15:52:41Z</time></trkpt><trkpt lat="43.8836393496343" lon="11.753172687922863"><ele>976.4</ele><time>2026-04-05T15:52:42Z</time></trkpt><trkpt lat="43.88361184476358" lon="11.753063940115709"><ele>976.0</ele><time>2026-04-05T15:52:43Z</time></trkpt><trkpt lat="43.88351503032225" lon="11.7529958130905"><ele>983.5</ele><time>2026-04-05T15:52:44Z</time></trkpt><trkpt lat="43.883394954897874" lon="11.752894473829713"><ele>991.0</ele><time>2026-04-05T15:52:45Z</time></trkpt><trkpt lat="43.88326771905977" lon="11.75284681787504"><ele>998.5</ele><time>2026-04-05T15:52:46Z</time></trkpt><trkpt lat="43.883134788729116" lon="11.752844645161186"><ele>1006.0</ele><time>2026-04-05T15:52:47Z</time></trkpt><trkpt lat="43.88300349446484" lon="11.75284683673949"><ele>1006.0</ele><time>2026-04-05T15:52:48Z</time></trkpt><trkpt lat="43.88287588646508" lon="11.752797918044088"><ele>1006.0</ele><time>2026-04-05T15:52:49Z</time></trkpt><trkpt lat="43.88277145584813" lon="11.752685598939593"><ele>1006.0</ele><time>2026-04-05T15:52:50Z</time></trkpt><trkpt lat="43.882683077252096" lon="11.752536062940456"><ele>1006.0</ele><time>2026-04-05T15:52:51Z</time></trkpt><trkpt lat="43.88260492315734" lon="11.752393312277068"><ele>1006.75</ele><time>2026-04-05T15:52:52Z</time></trkpt><trkpt lat="43.88250874919715" lon="11.752296455953294"><ele>1007.5</ele><time>2026-04-05T15:52:53Z</time></trkpt><trkpt lat="43.88239060394947" lon="11.752267705809803"><ele>1008.25</ele><time>2026-04-05T15:52:54Z</time></trkpt><trkpt lat="43.88226910197195" lon="11.752304734456896"><ele>1009.0</ele><time>2026-04-05T15:52:55Z</time></trkpt><trkpt lat="43.88216570215388" lon="11.752386461502807"><ele>1009.0</ele><time>2026-04-05T15:52:56Z</time></trkpt><trkpt lat="43.882069427984625" lon="11.752480190677034"><ele>1009.0</ele><time>2026-04-05T15:52:57Z</time></trkpt><trkpt lat="43.88196236739451" lon="11.752516473921098"><ele>1009.0</ele><time>2026-04-05T15:52:58Z</time></trkpt><trkpt lat="43.88183527804847" lon="11.752472258648519"><ele>1009.0</ele><time>2026-04-05T15:52:59Z</time></trkpt><trkpt lat="43.88169864043576" lon="11.75238178058062"><ele>1011.0</ele><time>2026-04-05T15:53:00Z</time></trkpt><trkpt lat="43.881558388038165" lon="11.75227739482899"><ele>1013.0</ele><time>2026-04-05T15:53:01Z</time></trkpt><trkpt lat="43.88141203197833" lon="11.752192924360493"><ele>1015.0</ele><time>2026-04-05T15:53:02Z</time></trkpt><trkpt lat="43.881260391337115" lon="11.752133561754928"><ele>1015.0</ele><time>2026-04-05T15:53:03Z</time></trkpt><trkpt lat="43.88109713572796" lon="11.752084078459504"><ele>1015.0</ele><time>2026-04-05T15:53:04Z</time></trkpt><trkpt lat="43.880957336216404" lon="11.752041042124963"><ele>1015.0</ele><time>2026-04-05T15:53:05Z</time></trkpt><trkpt lat="43.88082765869701" lon="11.752022208806844"><ele>1015.0</ele><time>2026-04-05T15:53:06Z</time></trkpt><trkpt lat="43.88069998269479" lon="11.752056980024289"><ele>1014.75</ele><time>2026-04-05T15:53:07Z</time></trkpt><trkpt lat="43.880583024633" lon="11.752154119547395"><ele>1014.5</ele><time>2026-04-05T15:53:08Z</time></trkpt><trkpt lat="43.88048733151409" lon="11.752266414069927"><ele>1014.25</ele><time>2026-04-05T15:53:09Z</time></trkpt><trkpt lat="43.88039598230847" lon="11.752351697086237"><ele>1014.0</ele><time>2026-04-05T15:53:10Z</time></trkpt><trkpt lat="43.8802798447163" lon="11.752349950918823"><ele>1014.0</ele><time>2026-04-05T15:53:11Z</time></trkpt><trkpt lat="43.880158740277395" lon="11.752268351554157"><ele>1014.0</ele><time>2026-04-05T15:53:12Z</time></trkpt><trkpt lat="43.88006720435915" lon="11.75210485006591"><ele>1014.0</ele><time>2026-04-05T15:53:13Z</time></trkpt><trkpt lat="43.87999933747458" lon="11.751915905125609"><ele>1014.0</ele><time>2026-04-05T15:53:14Z</time></trkpt><trkpt lat="43.87993667125732" lon="11.751718963255836"><ele>1025.3333333333333</ele><time>2026-04-05T15:53:15Z</time></trkpt><trkpt lat="43.87986038813279" lon="11.751519437121829"><ele>1036.6666666666665</ele><time>2026-04-05T15:53:16Z</time></trkpt><trkpt lat="43.87977716426282" lon="11.751307965430016"><ele>1048.0</ele><time>2026-04-05T15:53:17.001Z</time></trkpt><trkpt lat="43.87970504371106" lon="11.75109922478173"><ele>1056.3333333333333</ele><time>2026-04-05T15:53:18.001Z</time></trkpt><trkpt lat="43.87961456214534" lon="11.75090075900867"><ele>1064.6666666666667</ele><time>2026-04-05T15:53:19.001Z</time></trkpt><trkpt lat="43.879511999393614" lon="11.750715983821642"><ele>1073.0</ele><time>2026-04-05T15:53:20.001Z</time></trkpt><trkpt lat="43.87942841551833" lon="11.75054905926803"><ele>1073.0</ele><time>2026-04-05T15:53:21.001Z</time></trkpt><trkpt lat="43.87937275804859" lon="11.750363123397397"><ele>1073.0</ele><time>2026-04-05T15:53:22.001Z</time></trkpt><trkpt lat="43.87935841781988" lon="11.75015089305701"><ele>1073.0</ele><time>2026-04-05T15:53:23.001Z</time></trkpt><trkpt lat="43.879358657780955" lon="11.749944579499669"><ele>1073.0</ele><time>2026-04-05T15:53:24.001Z</time></trkpt><trkpt lat="43.87934035416936" lon="11.749757155275985"><ele>1076.0</ele><time>2026-04-05T15:53:25.001Z</time></trkpt><trkpt lat="43.879283689677216" lon="11.749579213673533"><ele>1079.0</ele><time>2026-04-05T15:53:26.001Z</time></trkpt><trkpt lat="43.879184141408246" lon="11.749425907940784"><ele>1082.0</ele><time>2026-04-05T15:53:27.001Z</time></trkpt><trkpt lat="43.87905774032135" lon="11.74931689357544"><ele>1085.0</ele><time>2026-04-05T15:53:28.001Z</time></trkpt><trkpt lat="43.87890293168809" lon="11.749256565904005"><ele>1085.0</ele><time>2026-04-05T15:53:29.001Z</time></trkpt><trkpt lat="43.87874625476136" lon="11.749234169606826"><ele>1085.0</ele><time>2026-04-05T15:53:30.001Z</time></trkpt><trkpt lat="43.87858009660078" lon="11.749222563293925"><ele>1085.0</ele><time>2026-04-05T15:53:31Z</time></trkpt><trkpt lat="43.878434763405004" lon="11.749159693364739"><ele>1079.5</ele><time>2026-04-05T15:53:32Z</time></trkpt><trkpt lat="43.878309695819794" lon="11.749033867490464"><ele>1074.0</ele><time>2026-04-05T15:53:33Z</time></trkpt><trkpt lat="43.87820441992272" lon="11.748890776600652"><ele>1068.5</ele><time>2026-04-05T15:53:34Z</time></trkpt><trkpt lat="43.878108851745665" lon="11.748774684948156"><ele>1063.0</ele><time>2026-04-05T15:53:35Z</time></trkpt><trkpt lat="43.87800074918235" lon="11.748682497090561"><ele>1063.0</ele><time>2026-04-05T15:53:36Z</time></trkpt><trkpt lat="43.87789346368549" lon="11.748647242283663"><ele>1063.0</ele><time>2026-04-05T15:53:37Z</time></trkpt><trkpt lat="43.877788343960745" lon="11.74868628655186"><ele>1063.0</ele><time>2026-04-05T15:53:38Z</time></trkpt><trkpt lat="43.877684003610895" lon="11.748790745372329"><ele>1063.0</ele><time>2026-04-05T15:53:39Z</time></trkpt><trkpt lat="43.87761082467078" lon="11.748946855781268"><ele>1065.5</ele><time>2026-04-05T15:53:40Z</time></trkpt><trkpt lat="43.877579159806395" lon="11.749117777686328"><ele>1068.0</ele><time>2026-04-05T15:53:41Z</time></trkpt><trkpt lat="43.877544425550816" lon="11.749274173033314"><ele>1070.5</ele><time>2026-04-05T15:53:42Z</time></trkpt><trkpt lat="43.877479861373985" lon="11.749384361645248"><ele>1073.0</ele><time>2026-04-05T15:53:43Z</time></trkpt><trkpt lat="43.877376908815464" lon="11.74943895260972"><ele>1073.0</ele><time>2026-04-05T15:53:44Z</time></trkpt><trkpt lat="43.87724325444314" lon="11.749417549014783"><ele>1073.0</ele><time>2026-04-05T15:53:45Z</time></trkpt><trkpt lat="43.877127873313384" lon="11.749335390434515"><ele>1073.0</ele><time>2026-04-05T15:53:46Z</time></trkpt><trkpt lat="43.87701906450149" lon="11.74922019235108"><ele>1073.0</ele><time>2026-04-05T15:53:47Z</time></trkpt><trkpt lat="43.876928028555064" lon="11.749038347898695"><ele>1073.0</ele><time>2026-04-05T15:53:48Z</time></trkpt><trkpt lat="43.876841500682744" lon="11.748913678168837"><ele>1073.0</ele><time>2026-04-05T15:53:49Z</time></trkpt><trkpt lat="43.876733275274525" lon="11.748834954236402"><ele>1073.0</ele><time>2026-04-05T15:53:50Z</time></trkpt><trkpt lat="43.87660043649637" lon="11.748828886008862"><ele>1073.0</ele><time>2026-04-05T15:53:51Z</time></trkpt><trkpt lat="43.87646787550626" lon="11.74891092867428"><ele>1075.3333333333335</ele><time>2026-04-05T15:53:52Z</time></trkpt><trkpt lat="43.876336570618285" lon="11.749042495245194"><ele>1077.6666666666667</ele><time>2026-04-05T15:53:53Z</time></trkpt><trkpt lat="43.87619998087385" lon="11.749159074617543"><ele>1080.0</ele><time>2026-04-05T15:53:54Z</time></trkpt><trkpt lat="43.87606242963953" lon="11.749261228619899"><ele>1085.0</ele><time>2026-04-05T15:53:55Z</time></trkpt><trkpt lat="43.87592985358311" lon="11.749332932912084"><ele>1090.0</ele><time>2026-04-05T15:53:56Z</time></trkpt><trkpt lat="43.87578766331961" lon="11.749366342124144"><ele>1095.0</ele><time>2026-04-05T15:53:57Z</time></trkpt><trkpt lat="43.87564484974333" lon="11.749359825750231"><ele>1100.0</ele><time>2026-04-05T15:53:58Z</time></trkpt><trkpt lat="43.87550335490486" lon="11.749351982491811"><ele>1089.5</ele><time>2026-04-05T15:53:59Z</time></trkpt><trkpt lat="43.87537804271037" lon="11.74941021008649"><ele>1079.0</ele><time>2026-04-05T15:54:00Z</time></trkpt><trkpt lat="43.875271864804624" lon="11.749538100733242"><ele>1068.5</ele><time>2026-04-05T15:54:01Z</time></trkpt><trkpt lat="43.87520101447786" lon="11.749729112317771"><ele>1058.0</ele><time>2026-04-05T15:54:02Z</time></trkpt><trkpt lat="43.87515635447951" lon="11.749947862586504"><ele>1058.0</ele><time>2026-04-05T15:54:03Z</time></trkpt><trkpt lat="43.875107612244875" lon="11.750143159737632"><ele>1058.0</ele><time>2026-04-05T15:54:04Z</time></trkpt><trkpt lat="43.875027963254645" lon="11.750300406719958"><ele>1058.0</ele><time>2026-04-05T15:54:05Z</time></trkpt><trkpt lat="43.87492392409652" lon="11.75040701589597"><ele>1058.0</ele><time>2026-04-05T15:54:06Z</time></trkpt><trkpt lat="43.874780003969356" lon="11.750448066256572"><ele>1057.5</ele><time>2026-04-05T15:54:07Z</time></trkpt><trkpt lat="43.874626368026135" lon="11.75045664594774"><ele>1057.0</ele><time>2026-04-05T15:54:08Z</time></trkpt><trkpt lat="43.87447571749111" lon="11.750477606386518"><ele>1056.5</ele><time>2026-04-05T15:54:09Z</time></trkpt><trkpt lat="43.8743392326137" lon="11.750506975594389"><ele>1056.0</ele><time>2026-04-05T15:54:10Z</time></trkpt><trkpt lat="43.87420876118653" lon="11.750514155610189"><ele>1059.5</ele><time>2026-04-05T15:54:11Z</time></trkpt><trkpt lat="43.87409325123994" lon="11.750459731598422"><ele>1063.0</ele><time>2026-04-05T15:54:12Z</time></trkpt><trkpt lat="43.873988915499815" lon="11.750339224084561"><ele>1066.5</ele><time>2026-04-05T15:54:13Z</time></trkpt><trkpt lat="43.873900311595015" lon="11.750177923597088"><ele>1070.0</ele><time>2026-04-05T15:54:14Z</time></trkpt><trkpt lat="43.8738171081781" lon="11.75001521162014"><ele>1071.25</ele><time>2026-04-05T15:54:15Z</time></trkpt><trkpt lat="43.87371850080613" lon="11.749879339192491"><ele>1072.5</ele><time>2026-04-05T15:54:16Z</time></trkpt><trkpt lat="43.8736004135743" lon="11.749774406875408"><ele>1073.75</ele><time>2026-04-05T15:54:17Z</time></trkpt><trkpt lat="43.87348730381465" lon="11.74966810564531"><ele>1075.0</ele><time>2026-04-05T15:54:18Z</time></trkpt><trkpt lat="43.8733879055122" lon="11.749512750677154"><ele>1078.25</ele><time>2026-04-05T15:54:19Z</time></trkpt><trkpt lat="43.87331550568223" lon="11.74934581849153"><ele>1081.5</ele><time>2026-04-05T15:54:20Z</time></trkpt><trkpt lat="43.873253369613955" lon="11.749154577254805"><ele>1084.75</ele><time>2026-04-05T15:54:21Z</time></trkpt><trkpt lat="43.87319331209685" lon="11.748962469117302"><ele>1088.0</ele><time>2026-04-05T15:54:22Z</time></trkpt><trkpt lat="43.87312145863337" lon="11.748775978285439"><ele>1088.0</ele><time>2026-04-05T15:54:23Z</time></trkpt><trkpt lat="43.873046900601956" lon="11.748588743967673"><ele>1088.0</ele><time>2026-04-05T15:54:24Z</time></trkpt><trkpt lat="43.872972795491165" lon="11.748404211760816"><ele>1088.0</ele><time>2026-04-05T15:54:25Z</time></trkpt><trkpt lat="43.872913547560294" lon="11.748244376285731"><ele>1088.0</ele><time>2026-04-05T15:54:26Z</time></trkpt><trkpt lat="43.87285677983442" lon="11.748081627896541"><ele>1090.2</ele><time>2026-04-05T15:54:27Z</time></trkpt><trkpt lat="43.872802922998325" lon="11.747923867671261"><ele>1092.4</ele><time>2026-04-05T15:54:28Z</time></trkpt><trkpt lat="43.872744757526156" lon="11.747790841022532"><ele>1094.6000000000001</ele><time>2026-04-05T15:54:29Z</time></trkpt><trkpt lat="43.872696435029006" lon="11.747669716992899"><ele>1096.8</ele><time>2026-04-05T15:54:30Z</time></trkpt><trkpt lat="43.87265135762047" lon="11.74755743043466"><ele>1099.0</ele><time>2026-04-05T15:54:31Z</time></trkpt><trkpt lat="43.87261269788649" lon="11.747444441033489"><ele>1097.0</ele><time>2026-04-05T15:54:32Z</time></trkpt><trkpt lat="43.8725756815505" lon="11.747336177771082"><ele>1095.0</ele><time>2026-04-05T15:54:33Z</time></trkpt><trkpt lat="43.87255721109998" lon="11.747228704071002"><ele>1093.0</ele><time>2026-04-05T15:54:34Z</time></trkpt><trkpt lat="43.87254363818423" lon="11.747130532510651"><ele>1091.0</ele><time>2026-04-05T15:54:35Z</time></trkpt><trkpt lat="43.87252788951449" lon="11.747023969608447"><ele>1089.0</ele><time>2026-04-05T15:54:36Z</time></trkpt><trkpt lat="43.8725314544899" lon="11.746915640295926"><ele>1087.0</ele><time>2026-04-05T15:54:37Z</time></trkpt><trkpt lat="43.87252957471625" lon="11.746816055608322"><ele>1087.0</ele><time>2026-04-05T15:54:38Z</time></trkpt><trkpt lat="43.87253117080564" lon="11.746725015578486"><ele>1087.0</ele><time>2026-04-05T15:54:39Z</time></trkpt><trkpt lat="43.872562396658545" lon="11.746555706782367"><ele>1087.0</ele><time>2026-04-05T15:54:41Z</time></trkpt><trkpt lat="43.8725843515225" lon="11.74639589185929"><ele>1087.0</ele><time>2026-04-05T15:54:43Z</time></trkpt><trkpt lat="43.87257612267466" lon="11.746258648124781"><ele>1087.0</ele><time>2026-04-05T15:54:45Z</time></trkpt><trkpt lat="43.872545517915434" lon="11.746117666798394"><ele>1089.25</ele><time>2026-04-05T15:54:47Z</time></trkpt><trkpt lat="43.87251921473836" lon="11.745972914468144"><ele>1091.5</ele><time>2026-04-05T15:54:49Z</time></trkpt><trkpt lat="43.87246720886237" lon="11.745823494197307"><ele>1093.75</ele><time>2026-04-05T15:54:51Z</time></trkpt><trkpt lat="43.87238927839423" lon="11.745698240501481"><ele>1096.0</ele><time>2026-04-05T15:54:53Z</time></trkpt><trkpt lat="43.87231741870588" lon="11.74556086518104"><ele>1096.0</ele><time>2026-04-05T15:54:55Z</time></trkpt><trkpt lat="43.87226416117481" lon="11.745446087264027"><ele>1096.0</ele><time>2026-04-05T15:54:57Z</time></trkpt><trkpt lat="43.87219675915192" lon="11.745334206405566"><ele>1096.0</ele><time>2026-04-05T15:54:59Z</time></trkpt><trkpt lat="43.87215710989112" lon="11.745210569230666"><ele>1096.0</ele><time>2026-04-05T15:55:01Z</time></trkpt><trkpt lat="43.872126628869054" lon="11.745085056703875"><ele>1096.0</ele><time>2026-04-05T15:55:03Z</time></trkpt><trkpt lat="43.87207350897689" lon="11.744980343768388"><ele>1098.0</ele><time>2026-04-05T15:55:05Z</time></trkpt><trkpt lat="43.87202187329035" lon="11.744908813763116"><ele>1098.0</ele><time>2026-04-05T15:55:07Z</time></trkpt></trkseg><trkseg><trkpt lat="43.871987909970414" lon="11.744768641474858"><ele>1098.0</ele><time>2026-04-05T16:09:20.999Z</time></trkpt><trkpt lat="43.871966452490284" lon="11.7446279277295"><ele>1098.0</ele><time>2026-04-05T16:09:22.999Z</time></trkpt><trkpt lat="43.871952056803515" lon="11.74446646455835"><ele>1098.0</ele><time>2026-04-05T16:09:24.999Z</time></trkpt><trkpt lat="43.871947856691264" lon="11.744349594475215"><ele>1098.0</ele><time>2026-04-05T16:09:25.999Z</time></trkpt><trkpt lat="43.87194380678862" lon="11.744236931570489"><ele>1098.0</ele><time>2026-04-05T16:09:26.999Z</time></trkpt><trkpt lat="43.871939821683895" lon="11.744110879231053"><ele>1100.25</ele><time>2026-04-05T16:09:27.999Z</time></trkpt><trkpt lat="43.87193244360273" lon="11.743965867744635"><ele>1102.5</ele><time>2026-04-05T16:09:28.999Z</time></trkpt><trkpt lat="43.87191678007719" lon="11.743806444164752"><ele>1104.75</ele><time>2026-04-05T16:09:29.999Z</time></trkpt><trkpt lat="43.87189807970814" lon="11.743634321274532"><ele>1107.0</ele><time>2026-04-05T16:09:30.999Z</time></trkpt><trkpt lat="43.871885785470205" lon="11.743447749454"><ele>1109.2</ele><time>2026-04-05T16:09:31.999Z</time></trkpt><trkpt lat="43.87186166176147" lon="11.743302151341137"><ele>1111.4</ele><time>2026-04-05T16:09:32.999Z</time></trkpt><trkpt lat="43.871866476391425" lon="11.743168273506294"><ele>1113.6</ele><time>2026-04-05T16:09:33.999Z</time></trkpt><trkpt lat="43.87185440400094" lon="11.742972433205999"><ele>1115.8</ele><time>2026-04-05T16:09:34.999Z</time></trkpt><trkpt lat="43.87184920972184" lon="11.742830903705558"><ele>1118.0</ele><time>2026-04-05T16:09:35.999Z</time></trkpt><trkpt lat="43.871852904040786" lon="11.742696867633088"><ele>1115.5</ele><time>2026-04-05T16:09:36.999Z</time></trkpt><trkpt lat="43.87175233896198" lon="11.742547516577739"><ele>1113.0</ele><time>2026-04-05T16:09:37.999Z</time></trkpt><trkpt lat="43.871669786609054" lon="11.742387529637547"><ele>1110.5</ele><time>2026-04-05T16:09:38.999Z</time></trkpt><trkpt lat="43.87160206805341" lon="11.742206850530547"><ele>1108.0</ele><time>2026-04-05T16:09:39.999Z</time></trkpt><trkpt lat="43.871557653674586" lon="11.74199249877903"><ele>1114.3333333333333</ele><time>2026-04-05T16:09:40.999Z</time></trkpt><trkpt lat="43.871509640869235" lon="11.741765620680765"><ele>1120.6666666666667</ele><time>2026-04-05T16:09:41.999Z</time></trkpt><trkpt lat="43.87146767609197" lon="11.741524034529583"><ele>1127.0</ele><time>2026-04-05T16:09:42.999Z</time></trkpt><trkpt lat="43.87144421869847" lon="11.74130113950282"><ele>1127.0</ele><time>2026-04-05T16:09:43.999Z</time></trkpt><trkpt lat="43.87143518425924" lon="11.741095739128458"><ele>1127.0</ele><time>2026-04-05T16:09:44.999Z</time></trkpt><trkpt lat="43.871433689457575" lon="11.740902730447495"><ele>1127.0</ele><time>2026-04-05T16:09:45.999Z</time></trkpt><trkpt lat="43.871393822616035" lon="11.740716725120146"><ele>1127.0</ele><time>2026-04-05T16:09:46.999Z</time></trkpt><trkpt lat="43.87131998362254" lon="11.740535704229972"><ele>1129.0</ele><time>2026-04-05T16:09:47.999Z</time></trkpt><trkpt lat="43.87126025471065" lon="11.74038131441345"><ele>1131.0</ele><time>2026-04-05T16:09:48.999Z</time></trkpt><trkpt lat="43.8712216938541" lon="11.74024129403692"><ele>1133.0</ele><time>2026-04-05T16:09:49.999Z</time></trkpt><trkpt lat="43.87123678704063" lon="11.740076395352856"><ele>1135.0</ele><time>2026-04-05T16:09:50.999Z</time></trkpt><trkpt lat="43.87131054987558" lon="11.739946103972548"><ele>1135.5</ele><time>2026-04-05T16:09:51.999Z</time></trkpt><trkpt lat="43.871402196405406" lon="11.739869004593835"><ele>1136.0</ele><time>2026-04-05T16:09:52.999Z</time></trkpt><trkpt lat="43.87151445169942" lon="11.739789588157544"><ele>1136.5</ele><time>2026-04-05T16:09:53.999Z</time></trkpt><trkpt lat="43.87164842797991" lon="11.739698121479211"><ele>1137.0</ele><time>2026-04-05T16:09:54.999Z</time></trkpt><trkpt lat="43.871786903201915" lon="11.739610197874953"><ele>1141.0</ele><time>2026-04-05T16:09:55.999Z</time></trkpt><trkpt lat="43.871914114006415" lon="11.739524270619398"><ele>1145.0</ele><time>2026-04-05T16:09:56.999Z</time></trkpt><trkpt lat="43.87200803860886" lon="11.73943586360739"><ele>1149.0</ele><time>2026-04-05T16:09:57.999Z</time></trkpt><trkpt lat="43.87208690182163" lon="11.739298694113442"><ele>1153.0</ele><time>2026-04-05T16:09:58.999Z</time></trkpt><trkpt lat="43.87210825903833" lon="11.739102889567254"><ele>1153.0</ele><time>2026-04-05T16:09:59.999Z</time></trkpt><trkpt lat="43.872149580035554" lon="11.738910165411788"><ele>1153.0</ele><time>2026-04-05T16:10:00.999Z</time></trkpt><trkpt lat="43.87220060288225" lon="11.738730458752826"><ele>1153.0</ele><time>2026-04-05T16:10:01.999Z</time></trkpt><trkpt lat="43.87228008044679" lon="11.738587710773267"><ele>1153.0</ele><time>2026-04-05T16:10:02.999Z</time></trkpt><trkpt lat="43.87234555124394" lon="11.738463256909233"><ele>1153.1666666666665</ele><time>2026-04-05T16:10:03.999Z</time></trkpt><trkpt lat="43.87239845873408" lon="11.738361508720427"><ele>1153.3333333333333</ele><time>2026-04-05T16:10:04.999Z</time></trkpt><trkpt lat="43.872376273546095" lon="11.738234655994852"><ele>1153.5</ele><time>2026-04-05T16:10:06Z</time></trkpt><trkpt lat="43.87235356828335" lon="11.73813663546287"><ele>1153.6666666666667</ele><time>2026-04-05T16:10:07Z</time></trkpt><trkpt lat="43.87229584387632" lon="11.738052852683213"><ele>1153.8333333333335</ele><time>2026-04-05T16:10:08Z</time></trkpt><trkpt lat="43.872214560976715" lon="11.738034101748358"><ele>1154.0</ele><time>2026-04-05T16:10:09Z</time></trkpt><trkpt lat="43.87211863125667" lon="11.738075833273708"><ele>1154.0</ele><time>2026-04-05T16:10:10Z</time></trkpt><trkpt lat="43.872043694846354" lon="11.738188214690208"><ele>1154.0</ele><time>2026-04-05T16:10:11Z</time></trkpt><trkpt lat="43.87196261014004" lon="11.738317297138147"><ele>1154.0</ele><time>2026-04-05T16:10:12Z</time></trkpt><trkpt lat="43.87187754890665" lon="11.738463387456235"><ele>1154.0</ele><time>2026-04-05T16:10:13Z</time></trkpt><trkpt lat="43.871777198493504" lon="11.738598721463589"><ele>1149.3333333333335</ele><time>2026-04-05T16:10:14Z</time></trkpt><trkpt lat="43.8716251888288" lon="11.738774921529389"><ele>1144.6666666666667</ele><time>2026-04-05T16:10:15Z</time></trkpt><trkpt lat="43.871495966334194" lon="11.738913764732748"><ele>1140.0</ele><time>2026-04-05T16:10:16Z</time></trkpt><trkpt lat="43.87135913158948" lon="11.739039802599965"><ele>1140.0</ele><time>2026-04-05T16:10:17Z</time></trkpt><trkpt lat="43.87122411959894" lon="11.739129635684531"><ele>1140.0</ele><time>2026-04-05T16:10:18Z</time></trkpt><trkpt lat="43.87110144128625" lon="11.739187326469896"><ele>1140.0</ele><time>2026-04-05T16:10:19Z</time></trkpt><trkpt lat="43.87098691229926" lon="11.739200198378745"><ele>1140.0</ele><time>2026-04-05T16:10:20Z</time></trkpt><trkpt lat="43.870867867104906" lon="11.73916969240196"><ele>1143.75</ele><time>2026-04-05T16:10:21Z</time></trkpt><trkpt lat="43.87073356567846" lon="11.739157621660246"><ele>1147.5</ele><time>2026-04-05T16:10:22Z</time></trkpt><trkpt lat="43.87060261733073" lon="11.739121858742148"><ele>1151.25</ele><time>2026-04-05T16:10:23Z</time></trkpt><trkpt lat="43.87046050277217" lon="11.739050340570724"><ele>1155.0</ele><time>2026-04-05T16:10:24Z</time></trkpt><trkpt lat="43.87037271084346" lon="11.739032461465367"><ele>1155.0</ele><time>2026-04-05T16:10:26Z</time></trkpt><trkpt lat="43.870299629873934" lon="11.739095754622326"><ele>1155.0</ele><time>2026-04-05T16:10:27Z</time></trkpt><trkpt lat="43.87026974659844" lon="11.739235162581846"><ele>1155.0</ele><time>2026-04-05T16:10:28Z</time></trkpt><trkpt lat="43.8702990125577" lon="11.739379209322871"><ele>1155.0</ele><time>2026-04-05T16:10:29Z</time></trkpt><trkpt lat="43.8703154388571" lon="11.739507796589784"><ele>1155.0</ele><time>2026-04-05T16:10:30Z</time></trkpt><trkpt lat="43.870354324707336" lon="11.739641768913094"><ele>1149.8</ele><time>2026-04-05T16:10:31Z</time></trkpt><trkpt lat="43.8704135280037" lon="11.739775514583936"><ele>1144.6</ele><time>2026-04-05T16:10:32Z</time></trkpt><trkpt lat="43.87046064472305" lon="11.739910749987255"><ele>1139.4</ele><time>2026-04-05T16:10:33Z</time></trkpt><trkpt lat="43.87045379988911" lon="11.74005111808985"><ele>1134.2</ele><time>2026-04-05T16:10:34Z</time></trkpt><trkpt lat="43.87040677105049" lon="11.740182025644977"><ele>1129.0</ele><time>2026-04-05T16:10:35Z</time></trkpt><trkpt lat="43.87036867492902" lon="11.740357209833055"><ele>1127.75</ele><time>2026-04-05T16:10:36Z</time></trkpt><trkpt lat="43.87037730646298" lon="11.74053770833758"><ele>1126.5</ele><time>2026-04-05T16:10:37Z</time></trkpt><trkpt lat="43.870384271972895" lon="11.740738470915703"><ele>1125.25</ele><time>2026-04-05T16:10:38Z</time></trkpt><trkpt lat="43.87043743809942" lon="11.740922190275242"><ele>1124.0</ele><time>2026-04-05T16:10:39Z</time></trkpt><trkpt lat="43.87044636752926" lon="11.74111444075354"><ele>1123.75</ele><time>2026-04-05T16:10:40Z</time></trkpt><trkpt lat="43.870434409149226" lon="11.741306660520843"><ele>1123.5</ele><time>2026-04-05T16:10:41Z</time></trkpt><trkpt lat="43.87041489361822" lon="11.74148789897929"><ele>1123.25</ele><time>2026-04-05T16:10:42Z</time></trkpt><trkpt lat="43.8703621151764" lon="11.74165026373714"><ele>1123.0</ele><time>2026-04-05T16:10:43Z</time></trkpt><trkpt lat="43.8702883259258" lon="11.741778816599354"><ele>1123.0</ele><time>2026-04-05T16:10:44Z</time></trkpt><trkpt lat="43.87021942879161" lon="11.741868379135788"><ele>1123.0</ele><time>2026-04-05T16:10:45Z</time></trkpt><trkpt lat="43.870120554372996" lon="11.741842255781886"><ele>1123.0</ele><time>2026-04-05T16:10:46Z</time></trkpt><trkpt lat="43.87001234079201" lon="11.741770758622774"><ele>1123.0</ele><time>2026-04-05T16:10:47Z</time></trkpt><trkpt lat="43.869891113305435" lon="11.741703264829688"><ele>1123.0</ele><time>2026-04-05T16:10:48Z</time></trkpt><trkpt lat="43.86979137520728" lon="11.74156714075324"><ele>1136.3333333333333</ele><time>2026-04-05T16:10:49Z</time></trkpt><trkpt lat="43.86968649923944" lon="11.741413242670866"><ele>1149.6666666666667</ele><time>2026-04-05T16:10:50Z</time></trkpt><trkpt lat="43.86957623093932" lon="11.741243042378828"><ele>1163.0</ele><time>2026-04-05T16:10:51Z</time></trkpt><trkpt lat="43.86944820980334" lon="11.741079249436657"><ele>1170.0</ele><time>2026-04-05T16:10:52Z</time></trkpt><trkpt lat="43.869314816639005" lon="11.7409226091998"><ele>1177.0</ele><time>2026-04-05T16:10:53Z</time></trkpt><trkpt lat="43.869164187050536" lon="11.740769528313766"><ele>1184.0</ele><time>2026-04-05T16:10:54Z</time></trkpt><trkpt lat="43.86904167648575" lon="11.740642192187542"><ele>1184.0</ele><time>2026-04-05T16:10:55Z</time></trkpt><trkpt lat="43.86896498001894" lon="11.740518635824827"><ele>1184.0</ele><time>2026-04-05T16:10:56Z</time></trkpt><trkpt lat="43.86884851796319" lon="11.740431430874166"><ele>1184.0</ele><time>2026-04-05T16:10:57Z</time></trkpt><trkpt lat="43.86864642797832" lon="11.740349976629158"><ele>1184.0</ele><time>2026-04-05T16:10:58Z</time></trkpt><trkpt lat="43.86851059562211" lon="11.740309987512042"><ele>1184.0</ele><time>2026-04-05T16:10:59Z</time></trkpt><trkpt lat="43.868412933969054" lon="11.740328514674214"><ele>1184.0</ele><time>2026-04-05T16:11:00Z</time></trkpt><trkpt lat="43.86832300936607" lon="11.74044625637071"><ele>1184.0</ele><time>2026-04-05T16:11:01Z</time></trkpt><trkpt lat="43.868302927641636" lon="11.740647558180918"><ele>1185.6000000000001</ele><time>2026-04-05T16:11:02Z</time></trkpt><trkpt lat="43.86838137999141" lon="11.740811159598051"><ele>1187.2</ele><time>2026-04-05T16:11:03Z</time></trkpt><trkpt lat="43.86840925680928" lon="11.740940296299964"><ele>1188.8000000000002</ele><time>2026-04-05T16:11:04Z</time></trkpt><trkpt lat="43.86840489650112" lon="11.741081896139775"><ele>1190.4</ele><time>2026-04-05T16:11:05Z</time></trkpt><trkpt lat="43.86834038461529" lon="11.741178689439844"><ele>1192.0</ele><time>2026-04-05T16:11:05.999Z</time></trkpt><trkpt lat="43.86823539280464" lon="11.74117434676673"><ele>1185.75</ele><time>2026-04-05T16:11:06.999Z</time></trkpt><trkpt lat="43.86810138677915" lon="11.741161234092754"><ele>1179.5</ele><time>2026-04-05T16:11:07.999Z</time></trkpt><trkpt lat="43.86797132270254" lon="11.741199186486435"><ele>1173.25</ele><time>2026-04-05T16:11:08.999Z</time></trkpt><trkpt lat="43.86783123741157" lon="11.74125462963225"><ele>1167.0</ele><time>2026-04-05T16:11:09.999Z</time></trkpt><trkpt lat="43.867676559202444" lon="11.741334962945272"><ele>1176.0</ele><time>2026-04-05T16:11:10.999Z</time></trkpt><trkpt lat="43.86752544318589" lon="11.741440538154503"><ele>1185.0</ele><time>2026-04-05T16:11:11.999Z</time></trkpt><trkpt lat="43.86737641716729" lon="11.74159849484154"><ele>1194.0</ele><time>2026-04-05T16:11:12.999Z</time></trkpt><trkpt lat="43.86722793909869" lon="11.74174163778447"><ele>1194.0</ele><time>2026-04-05T16:11:13.999Z</time></trkpt><trkpt lat="43.86707629083077" lon="11.741849563824717"><ele>1194.0</ele><time>2026-04-05T16:11:14.999Z</time></trkpt><trkpt lat="43.866937899685205" lon="11.741924760698677"><ele>1194.0</ele><time>2026-04-05T16:11:15.999Z</time></trkpt><trkpt lat="43.8668306864242" lon="11.741958801728046"><ele>1194.0</ele><time>2026-04-05T16:11:16.999Z</time></trkpt><trkpt lat="43.86674188373861" lon="11.741951608589172"><ele>1193.0</ele><time>2026-04-05T16:11:17.999Z</time></trkpt><trkpt lat="43.86667685475974" lon="11.741918354567638"><ele>1192.0</ele><time>2026-04-05T16:11:18.999Z</time></trkpt><trkpt lat="43.86664368361021" lon="11.74183818206118"><ele>1191.0</ele><time>2026-04-05T16:11:19.999Z</time></trkpt><trkpt lat="43.866642703659856" lon="11.741731306941933"><ele>1190.0</ele><time>2026-04-05T16:11:20.999Z</time></trkpt><trkpt lat="43.86666798147419" lon="11.741606546611592"><ele>1189.0</ele><time>2026-04-05T16:11:21.999Z</time></trkpt><trkpt lat="43.86669480220512" lon="11.741464486808017"><ele>1188.0</ele><time>2026-04-05T16:11:22.999Z</time></trkpt><trkpt lat="43.86667869110929" lon="11.7413212828037"><ele>1193.0</ele><time>2026-04-05T16:11:23.999Z</time></trkpt><trkpt lat="43.86665443874344" lon="11.74118859018336"><ele>1198.0</ele><time>2026-04-05T16:11:24.999Z</time></trkpt><trkpt lat="43.866551233401964" lon="11.741101656592782"><ele>1203.0</ele><time>2026-04-05T16:11:25.999Z</time></trkpt><trkpt lat="43.86642833000889" lon="11.741089535411424"><ele>1208.0</ele><time>2026-04-05T16:11:26.999Z</time></trkpt><trkpt lat="43.86631339097249" lon="11.741169904705647"><ele>1208.0</ele><time>2026-04-05T16:11:27.999Z</time></trkpt><trkpt lat="43.86622589178674" lon="11.741280024376925"><ele>1208.0</ele><time>2026-04-05T16:11:28.999Z</time></trkpt><trkpt lat="43.86615991592519" lon="11.741428157430116"><ele>1208.0</ele><time>2026-04-05T16:11:29.999Z</time></trkpt><trkpt lat="43.866072201201185" lon="11.741509410871805"><ele>1208.0</ele><time>2026-04-05T16:11:30.999Z</time></trkpt><trkpt lat="43.86601097884381" lon="11.741571791157686"><ele>1208.0</ele><time>2026-04-05T16:11:31.999Z</time></trkpt><trkpt lat="43.86590390248565" lon="11.741541778151"><ele>1208.0</ele><time>2026-04-05T16:11:33.999Z</time></trkpt><trkpt lat="43.865872332586" lon="11.74146003797679"><ele>1208.0</ele><time>2026-04-05T16:11:34.999Z</time></trkpt><trkpt lat="43.86587414669517" lon="11.741353833453314"><ele>1208.0</ele><time>2026-04-05T16:11:35.999Z</time></trkpt><trkpt lat="43.86599215585276" lon="11.74122373393771"><ele>1208.0</ele><time>2026-04-05T16:11:37.999Z</time></trkpt><trkpt lat="43.86608083883057" lon="11.741134899487314"><ele>1208.0</ele><time>2026-04-05T16:11:38.999Z</time></trkpt><trkpt lat="43.866193997531965" lon="11.741109488362806"><ele>1212.5</ele><time>2026-04-05T16:11:39.999Z</time></trkpt><trkpt lat="43.86630166982761" lon="11.741001604575548"><ele>1217.0</ele><time>2026-04-05T16:11:40.999Z</time></trkpt><trkpt lat="43.866379700724984" lon="11.740866539255613"><ele>1221.5</ele><time>2026-04-05T16:11:41.999Z</time></trkpt><trkpt lat="43.866465087060746" lon="11.740690578405449"><ele>1226.0</ele><time>2026-04-05T16:11:42.999Z</time></trkpt><trkpt lat="43.86656995458085" lon="11.740575047141078"><ele>1226.0</ele><time>2026-04-05T16:11:43.999Z</time></trkpt><trkpt lat="43.866649944033014" lon="11.740505441114893"><ele>1226.0</ele><time>2026-04-05T16:11:44.999Z</time></trkpt><trkpt lat="43.86673891914412" lon="11.740487694745497"><ele>1226.0</ele><time>2026-04-05T16:11:45.999Z</time></trkpt><trkpt lat="43.86681928610254" lon="11.740518846158984"><ele>1226.0</ele><time>2026-04-05T16:11:46.999Z</time></trkpt><trkpt lat="43.866897154339796" lon="11.74062114399041"><ele>1226.0</ele><time>2026-04-05T16:11:47.999Z</time></trkpt><trkpt lat="43.86699426854156" lon="11.74074304438611"><ele>1225.6</ele><time>2026-04-05T16:11:48.999Z</time></trkpt><trkpt lat="43.86709461759248" lon="11.740867454950497"><ele>1225.1999999999998</ele><time>2026-04-05T16:11:49.999Z</time></trkpt><trkpt lat="43.86718533564407" lon="11.740976666538044"><ele>1224.8000000000002</ele><time>2026-04-05T16:11:50.999Z</time></trkpt><trkpt lat="43.86724166197465" lon="11.741028904912108"><ele>1224.4</ele><time>2026-04-05T16:11:51.999Z</time></trkpt><trkpt lat="43.867329618892214" lon="11.74105915606747"><ele>1224.0</ele><time>2026-04-05T16:11:52.999Z</time></trkpt><trkpt lat="43.86742050651463" lon="11.740978916833335"><ele>1224.0</ele><time>2026-04-05T16:11:53.999Z</time></trkpt><trkpt lat="43.86743159261357" lon="11.740830662774533"><ele>1224.0</ele><time>2026-04-05T16:11:54.999Z</time></trkpt><trkpt lat="43.86739519675928" lon="11.740689435193312"><ele>1224.0</ele><time>2026-04-05T16:11:55.999Z</time></trkpt><trkpt lat="43.86732853425757" lon="11.740560043624672"><ele>1224.0</ele><time>2026-04-05T16:11:56.999Z</time></trkpt><trkpt lat="43.867239651016625" lon="11.740433334502418"><ele>1224.0</ele><time>2026-04-05T16:11:57.999Z</time></trkpt><trkpt lat="43.8671499412738" lon="11.740282677844597"><ele>1224.0</ele><time>2026-04-05T16:11:58.999Z</time></trkpt><trkpt lat="43.86705055210068" lon="11.740122849580404"><ele>1224.0</ele><time>2026-04-05T16:11:59.999Z</time></trkpt><trkpt lat="43.86695557755909" lon="11.739980854208259"><ele>1224.0</ele><time>2026-04-05T16:12:00.999Z</time></trkpt><trkpt lat="43.86687514110652" lon="11.739839516903043"><ele>1229.75</ele><time>2026-04-05T16:12:01.999Z</time></trkpt><trkpt lat="43.86676648828451" lon="11.739774011090669"><ele>1235.5</ele><time>2026-04-05T16:12:02.999Z</time></trkpt><trkpt lat="43.86663496495464" lon="11.739766483566244"><ele>1241.25</ele><time>2026-04-05T16:12:03.999Z</time></trkpt><trkpt lat="43.86649321478059" lon="11.73984436869466"><ele>1247.0</ele><time>2026-04-05T16:12:04.999Z</time></trkpt><trkpt lat="43.86635626966731" lon="11.739956682765312"><ele>1247.0</ele><time>2026-04-05T16:12:05.999Z</time></trkpt><trkpt lat="43.86621793614379" lon="11.7399949760554"><ele>1247.0</ele><time>2026-04-05T16:12:06.999Z</time></trkpt><trkpt lat="43.866090834398186" lon="11.740056904283566"><ele>1247.0</ele><time>2026-04-05T16:12:07.999Z</time></trkpt><trkpt lat="43.86599624655397" lon="11.740183965177994"><ele>1247.0</ele><time>2026-04-05T16:12:08.999Z</time></trkpt><trkpt lat="43.86598031893147" lon="11.740396669524106"><ele>1245.5</ele><time>2026-04-05T16:12:09.999Z</time></trkpt><trkpt lat="43.865939833040215" lon="11.740544086889933"><ele>1244.0</ele><time>2026-04-05T16:12:10.999Z</time></trkpt><trkpt lat="43.86582850605052" lon="11.740614846853553"><ele>1242.5</ele><time>2026-04-05T16:12:12Z</time></trkpt><trkpt lat="43.865697839797164" lon="11.74067622837157"><ele>1241.0</ele><time>2026-04-05T16:12:13Z</time></trkpt><trkpt lat="43.86555662959151" lon="11.740755354850075"><ele>1241.0</ele><time>2026-04-05T16:12:14Z</time></trkpt><trkpt lat="43.865391825082895" lon="11.740810377343161"><ele>1241.0</ele><time>2026-04-05T16:12:15Z</time></trkpt><trkpt lat="43.86521390600175" lon="11.740873158847478"><ele>1241.0</ele><time>2026-04-05T16:12:16Z</time></trkpt><trkpt lat="43.86505478189844" lon="11.74090499395334"><ele>1243.5</ele><time>2026-04-05T16:12:17Z</time></trkpt><trkpt lat="43.86492749652563" lon="11.740960679905712"><ele>1246.0</ele><time>2026-04-05T16:12:18Z</time></trkpt><trkpt lat="43.86481378908552" lon="11.741063808521185"><ele>1248.5</ele><time>2026-04-05T16:12:19Z</time></trkpt><trkpt lat="43.8647030198044" lon="11.741166824148113"><ele>1251.0</ele><time>2026-04-05T16:12:20Z</time></trkpt><trkpt lat="43.86463853946649" lon="11.741302798182451"><ele>1251.0</ele><time>2026-04-05T16:12:21Z</time></trkpt><trkpt lat="43.864595280126665" lon="11.741429690886767"><ele>1251.0</ele><time>2026-04-05T16:12:22Z</time></trkpt><trkpt lat="43.86464746359405" lon="11.741589371621885"><ele>1251.0</ele><time>2026-04-05T16:12:23Z</time></trkpt><trkpt lat="43.864711437061786" lon="11.741742085074236"><ele>1251.0</ele><time>2026-04-05T16:12:24Z</time></trkpt><trkpt lat="43.864754977735096" lon="11.741927002614814"><ele>1250.25</ele><time>2026-04-05T16:12:25Z</time></trkpt><trkpt lat="43.86470526210074" lon="11.742119312073045"><ele>1249.5</ele><time>2026-04-05T16:12:26Z</time></trkpt><trkpt lat="43.86467340388281" lon="11.742332385171359"><ele>1248.75</ele><time>2026-04-05T16:12:27Z</time></trkpt><trkpt lat="43.864592806357365" lon="11.742474232011261"><ele>1248.0</ele><time>2026-04-05T16:12:28Z</time></trkpt><trkpt lat="43.86448084693874" lon="11.742663937685636"><ele>1254.0</ele><time>2026-04-05T16:12:29Z</time></trkpt><trkpt lat="43.86435744062637" lon="11.74284261933679"><ele>1260.0</ele><time>2026-04-05T16:12:30Z</time></trkpt><trkpt lat="43.86422064387089" lon="11.742995243516887"><ele>1266.0</ele><time>2026-04-05T16:12:31Z</time></trkpt><trkpt lat="43.864076565200484" lon="11.743136799965445"><ele>1266.0</ele><time>2026-04-05T16:12:32Z</time></trkpt><trkpt lat="43.86392379999594" lon="11.743262869283763"><ele>1266.0</ele><time>2026-04-05T16:12:33Z</time></trkpt><trkpt lat="43.86372793675585" lon="11.743345479195275"><ele>1266.0</ele><time>2026-04-05T16:12:34Z</time></trkpt><trkpt lat="43.86351940462682" lon="11.743426194103064"><ele>1263.0</ele><time>2026-04-05T16:12:35Z</time></trkpt><trkpt lat="43.86331928383572" lon="11.74349076309988"><ele>1260.0</ele><time>2026-04-05T16:12:36Z</time></trkpt><trkpt lat="43.86311657777615" lon="11.743598471589118"><ele>1257.0</ele><time>2026-04-05T16:12:37Z</time></trkpt><trkpt lat="43.86292108303789" lon="11.743694593457443"><ele>1257.0</ele><time>2026-04-05T16:12:38Z</time></trkpt><trkpt lat="43.862733253681284" lon="11.743809206238714"><ele>1257.0</ele><time>2026-04-05T16:12:39Z</time></trkpt><trkpt lat="43.8625588920219" lon="11.743951366005291"><ele>1257.0</ele><time>2026-04-05T16:12:40Z</time></trkpt><trkpt lat="43.86240879970142" lon="11.744112108278776"><ele>1254.3333333333333</ele><time>2026-04-05T16:12:41Z</time></trkpt><trkpt lat="43.86227753982635" lon="11.74428012790044"><ele>1251.6666666666665</ele><time>2026-04-05T16:12:42Z</time></trkpt><trkpt lat="43.86215925517805" lon="11.744385620645664"><ele>1249.0</ele><time>2026-04-05T16:12:43Z</time></trkpt><trkpt lat="43.86202986091301" lon="11.744440468468738"><ele>1249.0</ele><time>2026-04-05T16:12:44Z</time></trkpt><trkpt lat="43.86189023133327" lon="11.74444367467488"><ele>1249.0</ele><time>2026-04-05T16:12:45Z</time></trkpt><trkpt lat="43.86174783812521" lon="11.744443555866612"><ele>1249.0</ele><time>2026-04-05T16:12:46Z</time></trkpt><trkpt lat="43.86162237419676" lon="11.744393273883535"><ele>1249.0</ele><time>2026-04-05T16:12:47Z</time></trkpt><trkpt lat="43.86149474429568" lon="11.74435391870244"><ele>1262.25</ele><time>2026-04-05T16:12:48Z</time></trkpt><trkpt lat="43.861378491363865" lon="11.744313506368965"><ele>1275.5</ele><time>2026-04-05T16:12:49Z</time></trkpt><trkpt lat="43.86125942365362" lon="11.744286559528954"><ele>1288.75</ele><time>2026-04-05T16:12:50Z</time></trkpt><trkpt lat="43.86114943022294" lon="11.744298071434226"><ele>1302.0</ele><time>2026-04-05T16:12:51Z</time></trkpt><trkpt lat="43.86103370280836" lon="11.744324213677585"><ele>1302.1999999999998</ele><time>2026-04-05T16:12:52Z</time></trkpt><trkpt lat="43.86091744375586" lon="11.744340994117636"><ele>1302.4</ele><time>2026-04-05T16:12:53Z</time></trkpt><trkpt lat="43.860815067130844" lon="11.744352787316325"><ele>1302.6</ele><time>2026-04-05T16:12:54Z</time></trkpt><trkpt lat="43.86069857649364" lon="11.744361669582018"><ele>1302.8000000000002</ele><time>2026-04-05T16:12:55Z</time></trkpt><trkpt lat="43.86058759359919" lon="11.744357887664446"><ele>1303.0</ele><time>2026-04-05T16:12:56Z</time></trkpt><trkpt lat="43.86047969209" lon="11.744346656822843"><ele>1303.0</ele><time>2026-04-05T16:12:57Z</time></trkpt><trkpt lat="43.860373570131614" lon="11.744343884499783"><ele>1303.0</ele><time>2026-04-05T16:12:58Z</time></trkpt><trkpt lat="43.86027527056303" lon="11.74434615593012"><ele>1303.0</ele><time>2026-04-05T16:12:59Z</time></trkpt><trkpt lat="43.86019040923369" lon="11.744347356516615"><ele>1303.0</ele><time>2026-04-05T16:13:00Z</time></trkpt><trkpt lat="43.86012038907257" lon="11.744347723873583"><ele>1303.0</ele><time>2026-04-05T16:13:00.999Z</time></trkpt><trkpt lat="43.86000967366313" lon="11.744369074105567"><ele>1302.2857142857142</ele><time>2026-04-05T16:13:02.999Z</time></trkpt><trkpt lat="43.85992081744849" lon="11.744345819984478"><ele>1301.5714285714284</ele><time>2026-04-05T16:13:04.999Z</time></trkpt><trkpt lat="43.859836525352264" lon="11.744371896737043"><ele>1300.8571428571427</ele><time>2026-04-05T16:13:06.999Z</time></trkpt><trkpt lat="43.85977217953688" lon="11.744396311030696"><ele>1300.142857142857</ele><time>2026-04-05T16:13:08.999Z</time></trkpt><trkpt lat="43.85970640940481" lon="11.744443379388365"><ele>1299.4285714285713</ele><time>2026-04-05T16:13:10.999Z</time></trkpt><trkpt lat="43.85964001175369" lon="11.744457661947594"><ele>1298.7142857142856</ele><time>2026-04-05T16:13:12.999Z</time></trkpt><trkpt lat="43.859576785665524" lon="11.744471021522845"><ele>1298.0</ele><time>2026-04-05T16:13:14.999Z</time></trkpt><trkpt lat="43.85951625741083" lon="11.744508573137274"><ele>1297.2857142857142</ele><time>2026-04-05T16:13:16.999Z</time></trkpt><trkpt lat="43.8594359325753" lon="11.744540434822591"><ele>1296.5714285714284</ele><time>2026-04-05T16:13:19.999Z</time></trkpt><trkpt lat="43.85937322298653" lon="11.744582418083965"><ele>1295.8571428571427</ele><time>2026-04-05T16:13:22.999Z</time></trkpt><trkpt lat="43.85929717615355" lon="11.744613417279998"><ele>1295.142857142857</ele><time>2026-04-05T16:13:26.999Z</time></trkpt><trkpt lat="43.859232118929285" lon="11.744641696513233"><ele>1294.4285714285716</ele><time>2026-04-05T16:13:29.999Z</time></trkpt><trkpt lat="43.85916471802464" lon="11.744679401860962"><ele>1293.7142857142856</ele><time>2026-04-05T16:13:32.999Z</time></trkpt><trkpt lat="43.85910042915367" lon="11.744725726294735"><ele>1293.0</ele><time>2026-04-05T16:13:35.999Z</time></trkpt><trkpt lat="43.85903391803702" lon="11.74477535665935"><ele>1293.0</ele><time>2026-04-05T16:13:37.999Z</time></trkpt><trkpt lat="43.85897404723369" lon="11.744809389453374"><ele>1293.0</ele><time>2026-04-05T16:13:38.999Z</time></trkpt><trkpt lat="43.85890131909291" lon="11.744880514279036"><ele>1293.0</ele><time>2026-04-05T16:13:39.999Z</time></trkpt><trkpt lat="43.858834069704216" lon="11.744961235762144"><ele>1293.0</ele><time>2026-04-05T16:13:40.999Z</time></trkpt><trkpt lat="43.85874723366808" lon="11.745042811470244"><ele>1293.0</ele><time>2026-04-05T16:13:41.999Z</time></trkpt><trkpt lat="43.85863592371032" lon="11.745139570278493"><ele>1294.3333333333333</ele><time>2026-04-05T16:13:42.999Z</time></trkpt><trkpt lat="43.85852124863935" lon="11.745241068788019"><ele>1295.6666666666665</ele><time>2026-04-05T16:13:43.999Z</time></trkpt><trkpt lat="43.85837649421803" lon="11.745358567019334"><ele>1297.0</ele><time>2026-04-05T16:13:44.999Z</time></trkpt><trkpt lat="43.8582189581209" lon="11.745459064458528"><ele>1299.0</ele><time>2026-04-05T16:13:45.999Z</time></trkpt><trkpt lat="43.85806222876128" lon="11.74558255829544"><ele>1301.0</ele><time>2026-04-05T16:13:46.999Z</time></trkpt><trkpt lat="43.85790000304101" lon="11.745720354319221"><ele>1303.0</ele><time>2026-04-05T16:13:47.999Z</time></trkpt><trkpt lat="43.8577533888526" lon="11.745848310290512"><ele>1300.0</ele><time>2026-04-05T16:13:48.999Z</time></trkpt><trkpt lat="43.857612125878646" lon="11.74595262734717"><ele>1297.0</ele><time>2026-04-05T16:13:49.999Z</time></trkpt><trkpt lat="43.85747965436839" lon="11.746079824510684"><ele>1294.0</ele><time>2026-04-05T16:13:50.999Z</time></trkpt><trkpt lat="43.8573678843177" lon="11.746199618534272"><ele>1294.0</ele><time>2026-04-05T16:13:51.999Z</time></trkpt><trkpt lat="43.8572667587427" lon="11.746318187228626"><ele>1294.0</ele><time>2026-04-05T16:13:52.999Z</time></trkpt><trkpt lat="43.85719172729754" lon="11.746420460509423"><ele>1294.0</ele><time>2026-04-05T16:13:53.999Z</time></trkpt><trkpt lat="43.85713998795498" lon="11.74651600846506"><ele>1294.0</ele><time>2026-04-05T16:13:54.999Z</time></trkpt><trkpt lat="43.85711730186163" lon="11.746642633296132"><ele>1294.0</ele><time>2026-04-05T16:13:55.999Z</time></trkpt><trkpt lat="43.85719588065921" lon="11.746784406413212"><ele>1293.4</ele><time>2026-04-05T16:13:56.999Z</time></trkpt><trkpt lat="43.8572726265072" lon="11.746886824916057"><ele>1292.8000000000002</ele><time>2026-04-05T16:13:57.999Z</time></trkpt><trkpt lat="43.857321597879086" lon="11.747024505693393"><ele>1292.1999999999998</ele><time>2026-04-05T16:13:58.999Z</time></trkpt><trkpt lat="43.85734564521731" lon="11.747163189021526"><ele>1291.6</ele><time>2026-04-05T16:13:59.999Z</time></trkpt><trkpt lat="43.85732071098884" lon="11.747310692459308"><ele>1291.0</ele><time>2026-04-05T16:14:00.999Z</time></trkpt><trkpt lat="43.8572792457677" lon="11.747482162427305"><ele>1291.0</ele><time>2026-04-05T16:14:01.999Z</time></trkpt><trkpt lat="43.85723016834415" lon="11.747649578441617"><ele>1291.0</ele><time>2026-04-05T16:14:02.999Z</time></trkpt><trkpt lat="43.857156295182925" lon="11.747771373885936"><ele>1291.0</ele><time>2026-04-05T16:14:03.999Z</time></trkpt><trkpt lat="43.85705327044743" lon="11.747840356742145"><ele>1291.0</ele><time>2026-04-05T16:14:04.999Z</time></trkpt><trkpt lat="43.85694873717656" lon="11.747896758653598"><ele>1293.3333333333333</ele><time>2026-04-05T16:14:05.999Z</time></trkpt><trkpt lat="43.856873039110795" lon="11.747954860371603"><ele>1295.6666666666665</ele><time>2026-04-05T16:14:06.999Z</time></trkpt><trkpt lat="43.85682752397853" lon="11.748037468023854"><ele>1298.0</ele><time>2026-04-05T16:14:07.999Z</time></trkpt><trkpt lat="43.85676251696755" lon="11.748109449711094"><ele>1300.3333333333333</ele><time>2026-04-05T16:14:08.999Z</time></trkpt><trkpt lat="43.85671434033864" lon="11.748206573672269"><ele>1302.6666666666667</ele><time>2026-04-05T16:14:09.999Z</time></trkpt><trkpt lat="43.856672106008986" lon="11.748322355909288"><ele>1305.0</ele><time>2026-04-05T16:14:10.999Z</time></trkpt><trkpt lat="43.856643245658724" lon="11.748433407288909"><ele>1299.3333333333333</ele><time>2026-04-05T16:14:11.999Z</time></trkpt><trkpt lat="43.856636380765764" lon="11.748553532360996"><ele>1293.6666666666667</ele><time>2026-04-05T16:14:12.999Z</time></trkpt><trkpt lat="43.8566162752392" lon="11.748669226684529"><ele>1288.0</ele><time>2026-04-05T16:14:13.999Z</time></trkpt><trkpt lat="43.85658781810544" lon="11.748783763174705"><ele>1282.3333333333335</ele><time>2026-04-05T16:14:14.999Z</time></trkpt><trkpt lat="43.85659228085904" lon="11.748900756325957"><ele>1276.6666666666667</ele><time>2026-04-05T16:14:15.999Z</time></trkpt><trkpt lat="43.856599103135196" lon="11.749012025656432"><ele>1271.0</ele><time>2026-04-05T16:14:16.999Z</time></trkpt><trkpt lat="43.85660738286535" lon="11.749111646767004"><ele>1271.0</ele><time>2026-04-05T16:14:18Z</time></trkpt><trkpt lat="43.856603914611156" lon="11.749213439030578"><ele>1271.0</ele><time>2026-04-05T16:14:19Z</time></trkpt><trkpt lat="43.85658463686328" lon="11.749309999173722"><ele>1271.0</ele><time>2026-04-05T16:14:20Z</time></trkpt><trkpt lat="43.856564177395335" lon="11.749409582378851"><ele>1271.0</ele><time>2026-04-05T16:14:21Z</time></trkpt><trkpt lat="43.85654137173615" lon="11.749511552510318"><ele>1271.0</ele><time>2026-04-05T16:14:22Z</time></trkpt><trkpt lat="43.85652197131803" lon="11.74961971612706"><ele>1271.0</ele><time>2026-04-05T16:14:23Z</time></trkpt><trkpt lat="43.85651175462025" lon="11.749725054926875"><ele>1271.0</ele><time>2026-04-05T16:14:24Z</time></trkpt><trkpt lat="43.856504582952105" lon="11.749832818255168"><ele>1271.0</ele><time>2026-04-05T16:14:25Z</time></trkpt><trkpt lat="43.856497619046344" lon="11.74993874856003"><ele>1271.0</ele><time>2026-04-05T16:14:26Z</time></trkpt><trkpt lat="43.85649083696496" lon="11.750039471936425"><ele>1271.0</ele><time>2026-04-05T16:14:27Z</time></trkpt><trkpt lat="43.856483470072405" lon="11.750135123649418"><ele>1271.0</ele><time>2026-04-05T16:14:28Z</time></trkpt><trkpt lat="43.856474848712395" lon="11.750226180624162"><ele>1271.0</ele><time>2026-04-05T16:14:29Z</time></trkpt><trkpt lat="43.85642024148961" lon="11.750365027311847"><ele>1271.8</ele><time>2026-04-05T16:14:31Z</time></trkpt><trkpt lat="43.8563151925801" lon="11.750446363893337"><ele>1272.6</ele><time>2026-04-05T16:14:33Z</time></trkpt><trkpt lat="43.85620556709059" lon="11.750447422041859"><ele>1273.4</ele><time>2026-04-05T16:14:35Z</time></trkpt><trkpt lat="43.85608659889858" lon="11.75040100283232"><ele>1274.2</ele><time>2026-04-05T16:14:37Z</time></trkpt><trkpt lat="43.856011385622345" lon="11.750380080317738"><ele>1275.0</ele><time>2026-04-05T16:14:38Z</time></trkpt><trkpt lat="43.85593136282939" lon="11.750360894885544"><ele>1275.0</ele><time>2026-04-05T16:14:39Z</time></trkpt><trkpt lat="43.855841855754896" lon="11.750337084689903"><ele>1275.0</ele><time>2026-04-05T16:14:40Z</time></trkpt><trkpt lat="43.85574928401366" lon="11.750319259947352"><ele>1275.0</ele><time>2026-04-05T16:14:41Z</time></trkpt><trkpt lat="43.855669711491466" lon="11.750309944456035"><ele>1275.0</ele><time>2026-04-05T16:14:42Z</time></trkpt><trkpt lat="43.85559338293557" lon="11.750336729518791"><ele>1275.0</ele><time>2026-04-05T16:14:43Z</time></trkpt><trkpt lat="43.85552502604549" lon="11.750374928459086"><ele>1275.0</ele><time>2026-04-05T16:14:44Z</time></trkpt><trkpt lat="43.8554553136245" lon="11.750434659448908"><ele>1275.0</ele><time>2026-04-05T16:14:45Z</time></trkpt><trkpt lat="43.855386635578654" lon="11.750500670813961"><ele>1275.0</ele><time>2026-04-05T16:14:46Z</time></trkpt><trkpt lat="43.85529178288165" lon="11.750589265747193"><ele>1275.0</ele><time>2026-04-05T16:14:47Z</time></trkpt><trkpt lat="43.855205743623976" lon="11.750676729348852"><ele>1275.0</ele><time>2026-04-05T16:14:48Z</time></trkpt><trkpt lat="43.85510573781339" lon="11.750777597434869"><ele>1275.0</ele><time>2026-04-05T16:14:49Z</time></trkpt><trkpt lat="43.855007980405325" lon="11.750882087519303"><ele>1274.5</ele><time>2026-04-05T16:14:50Z</time></trkpt><trkpt lat="43.8549290403226" lon="11.751001876770152"><ele>1274.0</ele><time>2026-04-05T16:14:51Z</time></trkpt><trkpt lat="43.854832677727444" lon="11.751125248503204"><ele>1273.5</ele><time>2026-04-05T16:14:52Z</time></trkpt><trkpt lat="43.854735776910765" lon="11.75126076054833"><ele>1273.0</ele><time>2026-04-05T16:14:53Z</time></trkpt><trkpt lat="43.85464992454181" lon="11.75139633173072"><ele>1273.0</ele><time>2026-04-05T16:14:54Z</time></trkpt><trkpt lat="43.85455208779326" lon="11.751521217451533"><ele>1273.0</ele><time>2026-04-05T16:14:55Z</time></trkpt><trkpt lat="43.85444762729829" lon="11.751608042943875"><ele>1273.0</ele><time>2026-04-05T16:14:56Z</time></trkpt><trkpt lat="43.85432786303575" lon="11.751622923877639"><ele>1273.0</ele><time>2026-04-05T16:14:57Z</time></trkpt><trkpt lat="43.85421837812095" lon="11.751580501036537"><ele>1267.5</ele><time>2026-04-05T16:14:58Z</time></trkpt><trkpt lat="43.85411541967576" lon="11.751567564325084"><ele>1262.0</ele><time>2026-04-05T16:14:59Z</time></trkpt><trkpt lat="43.854023889888914" lon="11.751632517664337"><ele>1256.5</ele><time>2026-04-05T16:15:00Z</time></trkpt><trkpt lat="43.85395543399959" lon="11.751770297660235"><ele>1251.0</ele><time>2026-04-05T16:15:01Z</time></trkpt><trkpt lat="43.85389704328854" lon="11.751929090860529"><ele>1251.0</ele><time>2026-04-05T16:15:02Z</time></trkpt><trkpt lat="43.85382382701519" lon="11.752055617310779"><ele>1251.0</ele><time>2026-04-05T16:15:03Z</time></trkpt><trkpt lat="43.853794319364205" lon="11.752242296944086"><ele>1251.0</ele><time>2026-04-05T16:15:04Z</time></trkpt><trkpt lat="43.85379454028491" lon="11.752445162828149"><ele>1251.0</ele><time>2026-04-05T16:15:05Z</time></trkpt><trkpt lat="43.85379148142901" lon="11.752638370801773"><ele>1253.6666666666667</ele><time>2026-04-05T16:15:06Z</time></trkpt><trkpt lat="43.85378289471426" lon="11.752796527792329"><ele>1256.3333333333333</ele><time>2026-04-05T16:15:07Z</time></trkpt><trkpt lat="43.85376344291146" lon="11.752926786824439"><ele>1259.0</ele><time>2026-04-05T16:15:08Z</time></trkpt><trkpt lat="43.853730955079456" lon="11.75302140179233"><ele>1261.6666666666665</ele><time>2026-04-05T16:15:09Z</time></trkpt><trkpt lat="43.853670961932366" lon="11.753127199429445"><ele>1264.3333333333333</ele><time>2026-04-05T16:15:11Z</time></trkpt><trkpt lat="43.85360924982927" lon="11.75309859482823"><ele>1267.0</ele><time>2026-04-05T16:15:12Z</time></trkpt><trkpt lat="43.85356875652213" lon="11.75301419581056"><ele>1267.0</ele><time>2026-04-05T16:15:13Z</time></trkpt><trkpt lat="43.853570409566025" lon="11.752900347844667"><ele>1267.0</ele><time>2026-04-05T16:15:14Z</time></trkpt><trkpt lat="43.85363481676066" lon="11.752818637122209"><ele>1267.0</ele><time>2026-04-05T16:15:15Z</time></trkpt><trkpt lat="43.85366321114149" lon="11.752726248623455"><ele>1267.0</ele><time>2026-04-05T16:15:16Z</time></trkpt><trkpt lat="43.8536985245962" lon="11.752611347111095"><ele>1267.0</ele><time>2026-04-05T16:15:17Z</time></trkpt><trkpt lat="43.85370053647201" lon="11.752472932960549"><ele>1267.0</ele><time>2026-04-05T16:15:17.999Z</time></trkpt><trkpt lat="43.85370570548366" lon="11.752315406526037"><ele>1263.0</ele><time>2026-04-05T16:15:18.999Z</time></trkpt><trkpt lat="43.853684252068135" lon="11.752148377549087"><ele>1259.0</ele><time>2026-04-05T16:15:19.999Z</time></trkpt><trkpt lat="43.85368428037463" lon="11.751964513460214"><ele>1255.0</ele><time>2026-04-05T16:15:20.999Z</time></trkpt><trkpt lat="43.853691166091785" lon="11.751776922517408"><ele>1251.0</ele><time>2026-04-05T16:15:21.999Z</time></trkpt><trkpt lat="43.853772346659525" lon="11.751597392194418"><ele>1247.25</ele><time>2026-04-05T16:15:22.999Z</time></trkpt><trkpt lat="43.85385822146336" lon="11.75142672157312"><ele>1243.5</ele><time>2026-04-05T16:15:23.999Z</time></trkpt><trkpt lat="43.85394918636642" lon="11.751299924388146"><ele>1239.75</ele><time>2026-04-05T16:15:24.999Z</time></trkpt><trkpt lat="43.85406849545344" lon="11.751281377766253"><ele>1236.0</ele><time>2026-04-05T16:15:25.999Z</time></trkpt><trkpt lat="43.85418949539766" lon="11.751275565175455"><ele>1237.5</ele><time>2026-04-05T16:15:26.999Z</time></trkpt><trkpt lat="43.85429842207752" lon="11.751229120710496"><ele>1239.0</ele><time>2026-04-05T16:15:27.999Z</time></trkpt><trkpt lat="43.854396086517845" lon="11.751159819974971"><ele>1240.5</ele><time>2026-04-05T16:15:28.999Z</time></trkpt><trkpt lat="43.85447104327537" lon="11.751008381161295"><ele>1242.0</ele><time>2026-04-05T16:15:29.999Z</time></trkpt><trkpt lat="43.8545067652733" lon="11.750825168801162"><ele>1242.0</ele><time>2026-04-05T16:15:30.999Z</time></trkpt><trkpt lat="43.85452788322743" lon="11.750630848184114"><ele>1242.0</ele><time>2026-04-05T16:15:31.999Z</time></trkpt><trkpt lat="43.854550800686674" lon="11.750439139307773"><ele>1242.0</ele><time>2026-04-05T16:15:32.999Z</time></trkpt><trkpt lat="43.85462578505765" lon="11.750302887772522"><ele>1242.0</ele><time>2026-04-05T16:15:33.999Z</time></trkpt><trkpt lat="43.85471537704855" lon="11.750208010494788"><ele>1237.0</ele><time>2026-04-05T16:15:34.999Z</time></trkpt><trkpt lat="43.85483865627519" lon="11.75012063330788"><ele>1232.0</ele><time>2026-04-05T16:15:35.999Z</time></trkpt><trkpt lat="43.85492365837262" lon="11.749961408755727"><ele>1227.0</ele><time>2026-04-05T16:15:36.999Z</time></trkpt><trkpt lat="43.8549699826262" lon="11.749762105443365"><ele>1222.0</ele><time>2026-04-05T16:15:37.999Z</time></trkpt><trkpt lat="43.85502620234977" lon="11.749578213408883"><ele>1222.0</ele><time>2026-04-05T16:15:38.999Z</time></trkpt><trkpt lat="43.85509423412072" lon="11.749430934375996"><ele>1222.0</ele><time>2026-04-05T16:15:39.999Z</time></trkpt><trkpt lat="43.85519405929269" lon="11.749364360912415"><ele>1222.0</ele><time>2026-04-05T16:15:40.999Z</time></trkpt><trkpt lat="43.85529514867626" lon="11.749405415699863"><ele>1222.0</ele><time>2026-04-05T16:15:41.999Z</time></trkpt><trkpt lat="43.85539547369046" lon="11.749440398117388"><ele>1222.0</ele><time>2026-04-05T16:15:42.999Z</time></trkpt><trkpt lat="43.855491715279896" lon="11.749446371734669"><ele>1222.8</ele><time>2026-04-05T16:15:43.999Z</time></trkpt><trkpt lat="43.855587929759096" lon="11.749437498740853"><ele>1223.6</ele><time>2026-04-05T16:15:44.999Z</time></trkpt><trkpt lat="43.85567710390676" lon="11.749374669772704"><ele>1224.3999999999999</ele><time>2026-04-05T16:15:45.999Z</time></trkpt><trkpt lat="43.85573526680708" lon="11.749265453984195"><ele>1225.2</ele><time>2026-04-05T16:15:46.999Z</time></trkpt><trkpt lat="43.85572672148042" lon="11.749093076556452"><ele>1226.0</ele><time>2026-04-05T16:15:47.999Z</time></trkpt><trkpt lat="43.85569635892569" lon="11.748953092883761"><ele>1226.0</ele><time>2026-04-05T16:15:48.999Z</time></trkpt><trkpt lat="43.85558873055234" lon="11.748849051601963"><ele>1226.0</ele><time>2026-04-05T16:15:49.999Z</time></trkpt><trkpt lat="43.85551739101593" lon="11.748731576351432"><ele>1226.0</ele><time>2026-04-05T16:15:50.999Z</time></trkpt><trkpt lat="43.85549218072548" lon="11.748600376170081"><ele>1226.0</ele><time>2026-04-05T16:15:51.999Z</time></trkpt><trkpt lat="43.855563145424846" lon="11.748463474199767"><ele>1225.5</ele><time>2026-04-05T16:15:52.999Z</time></trkpt><trkpt lat="43.85563318558778" lon="11.748314734935303"><ele>1225.0</ele><time>2026-04-05T16:15:53.999Z</time></trkpt><trkpt lat="43.855648741555626" lon="11.748159915237748"><ele>1224.5</ele><time>2026-04-05T16:15:54.999Z</time></trkpt><trkpt lat="43.855632794111166" lon="11.748017480328905"><ele>1224.0</ele><time>2026-04-05T16:15:55.999Z</time></trkpt><trkpt lat="43.85556680489297" lon="11.747897063774769"><ele>1224.0</ele><time>2026-04-05T16:15:56.999Z</time></trkpt><trkpt lat="43.8554665179592" lon="11.747826275439783"><ele>1224.0</ele><time>2026-04-05T16:15:57.999Z</time></trkpt><trkpt lat="43.85533041358689" lon="11.747843183851204"><ele>1224.0</ele><time>2026-04-05T16:15:58.999Z</time></trkpt><trkpt lat="43.855206125512794" lon="11.747887858201093"><ele>1224.0</ele><time>2026-04-05T16:15:59.999Z</time></trkpt><trkpt lat="43.85507274730445" lon="11.747946623399756"><ele>1219.0</ele><time>2026-04-05T16:16:00.999Z</time></trkpt><trkpt lat="43.854966371288974" lon="11.747977831062412"><ele>1214.0</ele><time>2026-04-05T16:16:01.999Z</time></trkpt><trkpt lat="43.85489098760837" lon="11.747947434670797"><ele>1209.0</ele><time>2026-04-05T16:16:02.999Z</time></trkpt><trkpt lat="43.85478370261931" lon="11.747924868410587"><ele>1204.0</ele><time>2026-04-05T16:16:03.999Z</time></trkpt><trkpt lat="43.85472556246503" lon="11.747790407420833"><ele>1199.0</ele><time>2026-04-05T16:16:04.999Z</time></trkpt><trkpt lat="43.85471193602651" lon="11.74763956279019"><ele>1199.0</ele><time>2026-04-05T16:16:05.999Z</time></trkpt><trkpt lat="43.85478109822411" lon="11.747485894240056"><ele>1199.0</ele><time>2026-04-05T16:16:06.999Z</time></trkpt><trkpt lat="43.85483019104199" lon="11.747306696215421"><ele>1199.0</ele><time>2026-04-05T16:16:07.999Z</time></trkpt><trkpt lat="43.85490540150165" lon="11.747115978071673"><ele>1199.0</ele><time>2026-04-05T16:16:08.999Z</time></trkpt><trkpt lat="43.854977859512246" lon="11.746910283551262"><ele>1194.3333333333335</ele><time>2026-04-05T16:16:09.999Z</time></trkpt><trkpt lat="43.85503876767174" lon="11.746715110378553"><ele>1189.6666666666667</ele><time>2026-04-05T16:16:10.999Z</time></trkpt><trkpt lat="43.85510357264015" lon="11.74649496780547"><ele>1185.0</ele><time>2026-04-05T16:16:11.999Z</time></trkpt><trkpt lat="43.85516929031077" lon="11.746272611390719"><ele>1192.6666666666667</ele><time>2026-04-05T16:16:12.999Z</time></trkpt><trkpt lat="43.85524120595821" lon="11.746049613766544"><ele>1200.3333333333335</ele><time>2026-04-05T16:16:13.999Z</time></trkpt><trkpt lat="43.855333703975376" lon="11.745825240855133"><ele>1208.0</ele><time>2026-04-05T16:16:14.999Z</time></trkpt><trkpt lat="43.8554422514218" lon="11.74561857522374"><ele>1208.0</ele><time>2026-04-05T16:16:15.999Z</time></trkpt><trkpt lat="43.8555509049011" lon="11.74540738208514"><ele>1208.0</ele><time>2026-04-05T16:16:16.999Z</time></trkpt><trkpt lat="43.855642289708285" lon="11.745204606163584"><ele>1208.0</ele><time>2026-04-05T16:16:17.999Z</time></trkpt><trkpt lat="43.85573082787905" lon="11.745018829734049"><ele>1202.0</ele><time>2026-04-05T16:16:18.999Z</time></trkpt><trkpt lat="43.85580840777126" lon="11.744844574889138"><ele>1196.0</ele><time>2026-04-05T16:16:19.999Z</time></trkpt><trkpt lat="43.855869026291515" lon="11.74469009086362"><ele>1190.0</ele><time>2026-04-05T16:16:20.999Z</time></trkpt><trkpt lat="43.855888119596166" lon="11.744527307549847"><ele>1184.0</ele><time>2026-04-05T16:16:21.999Z</time></trkpt><trkpt lat="43.85586027100509" lon="11.744356460267456"><ele>1182.25</ele><time>2026-04-05T16:16:22.999Z</time></trkpt><trkpt lat="43.8557926641631" lon="11.744192672403113"><ele>1180.5</ele><time>2026-04-05T16:16:24Z</time></trkpt><trkpt lat="43.855717224789885" lon="11.74405368510348"><ele>1178.75</ele><time>2026-04-05T16:16:25Z</time></trkpt><trkpt lat="43.85563465161262" lon="11.743927085891054"><ele>1177.0</ele><time>2026-04-05T16:16:26Z</time></trkpt><trkpt lat="43.85550869228112" lon="11.743887944898653"><ele>1177.0</ele><time>2026-04-05T16:16:27Z</time></trkpt><trkpt lat="43.85540350370389" lon="11.743837068408023"><ele>1177.0</ele><time>2026-04-05T16:16:28Z</time></trkpt><trkpt lat="43.85530898628419" lon="11.74377337780095"><ele>1177.0</ele><time>2026-04-05T16:16:29Z</time></trkpt><trkpt lat="43.855257667865075" lon="11.743676324783827"><ele>1177.0</ele><time>2026-04-05T16:16:30Z</time></trkpt><trkpt lat="43.85523143183546" lon="11.743550780950402"><ele>1177.0</ele><time>2026-04-05T16:16:31Z</time></trkpt><trkpt lat="43.85519327390219" lon="11.74340855546113"><ele>1179.6</ele><time>2026-04-05T16:16:32Z</time></trkpt><trkpt lat="43.85515980324841" lon="11.743276845269248"><ele>1182.2</ele><time>2026-04-05T16:16:33Z</time></trkpt><trkpt lat="43.855130478033715" lon="11.743141453080186"><ele>1184.8</ele><time>2026-04-05T16:16:34Z</time></trkpt><trkpt lat="43.85509555297338" lon="11.743008422499866"><ele>1187.4</ele><time>2026-04-05T16:16:35Z</time></trkpt><trkpt lat="43.8550749269897" lon="11.742876220129306"><ele>1190.0</ele><time>2026-04-05T16:16:36Z</time></trkpt><trkpt lat="43.855040011654275" lon="11.742770577812415"><ele>1187.0</ele><time>2026-04-05T16:16:37Z</time></trkpt><trkpt lat="43.85496853190764" lon="11.742695020690999"><ele>1184.0</ele><time>2026-04-05T16:16:38Z</time></trkpt><trkpt lat="43.854858818341555" lon="11.742686073248917"><ele>1181.0</ele><time>2026-04-05T16:16:39Z</time></trkpt><trkpt lat="43.854746383627635" lon="11.742769871342494"><ele>1178.0</ele><time>2026-04-05T16:16:40Z</time></trkpt><trkpt lat="43.85466911056584" lon="11.74290586120365"><ele>1174.25</ele><time>2026-04-05T16:16:41Z</time></trkpt><trkpt lat="43.85463605232928" lon="11.743097369997093"><ele>1170.5</ele><time>2026-04-05T16:16:42Z</time></trkpt><trkpt lat="43.85461223697168" lon="11.743289215638388"><ele>1166.75</ele><time>2026-04-05T16:16:43Z</time></trkpt><trkpt lat="43.85461119336469" lon="11.74348540657744"><ele>1163.0</ele><time>2026-04-05T16:16:44Z</time></trkpt><trkpt lat="43.85464147611953" lon="11.743684721113025"><ele>1160.25</ele><time>2026-04-05T16:16:45Z</time></trkpt><trkpt lat="43.85470489949686" lon="11.743869647071293"><ele>1157.5</ele><time>2026-04-05T16:16:46Z</time></trkpt><trkpt lat="43.85479912622601" lon="11.744015314279144"><ele>1154.75</ele><time>2026-04-05T16:16:47Z</time></trkpt><trkpt lat="43.85491083354476" lon="11.744114730000547"><ele>1152.0</ele><time>2026-04-05T16:16:48Z</time></trkpt><trkpt lat="43.85503165431597" lon="11.744162352851852"><ele>1157.0</ele><time>2026-04-05T16:16:49Z</time></trkpt><trkpt lat="43.85513908922954" lon="11.744225261548209"><ele>1162.0</ele><time>2026-04-05T16:16:50Z</time></trkpt><trkpt lat="43.85522700177866" lon="11.744291111075862"><ele>1167.0</ele><time>2026-04-05T16:16:51Z</time></trkpt><trkpt lat="43.855295828843126" lon="11.744402903450085"><ele>1172.0</ele><time>2026-04-05T16:16:52Z</time></trkpt><trkpt lat="43.855308991283515" lon="11.744555890393206"><ele>1177.0</ele><time>2026-04-05T16:16:53Z</time></trkpt><trkpt lat="43.85528257623799" lon="11.744703590099316"><ele>1178.75</ele><time>2026-04-05T16:16:54Z</time></trkpt><trkpt lat="43.85521603990422" lon="11.744840081935974"><ele>1180.5</ele><time>2026-04-05T16:16:55Z</time></trkpt><trkpt lat="43.85510280124516" lon="11.744922063887277"><ele>1182.25</ele><time>2026-04-05T16:16:56Z</time></trkpt><trkpt lat="43.85496464288326" lon="11.74506428223348"><ele>1184.0</ele><time>2026-04-05T16:16:57Z</time></trkpt><trkpt lat="43.85485089742054" lon="11.745229515864247"><ele>1179.0</ele><time>2026-04-05T16:16:58Z</time></trkpt><trkpt lat="43.85472367194021" lon="11.745435555413572"><ele>1174.0</ele><time>2026-04-05T16:16:59Z</time></trkpt><trkpt lat="43.85458864024533" lon="11.745671882357362"><ele>1169.0</ele><time>2026-04-05T16:17:00Z</time></trkpt><trkpt lat="43.85444706423644" lon="11.745927457657189"><ele>1174.3333333333335</ele><time>2026-04-05T16:17:01Z</time></trkpt><trkpt lat="43.85433468395486" lon="11.746193479361564"><ele>1179.6666666666667</ele><time>2026-04-05T16:17:02Z</time></trkpt><trkpt lat="43.85423167687555" lon="11.746437827970173"><ele>1185.0</ele><time>2026-04-05T16:17:03Z</time></trkpt><trkpt lat="43.85412912723438" lon="11.74665243825919"><ele>1177.6666666666667</ele><time>2026-04-05T16:17:04Z</time></trkpt><trkpt lat="43.85402841154296" lon="11.746866882830554"><ele>1170.3333333333335</ele><time>2026-04-05T16:17:05Z</time></trkpt><trkpt lat="43.85393276003184" lon="11.747063961178918"><ele>1163.0</ele><time>2026-04-05T16:17:06Z</time></trkpt><trkpt lat="43.85385173235381" lon="11.747246307044104"><ele>1163.0</ele><time>2026-04-05T16:17:07Z</time></trkpt><trkpt lat="43.85378048669145" lon="11.747409520276927"><ele>1163.0</ele><time>2026-04-05T16:17:08Z</time></trkpt><trkpt lat="43.85369476471145" lon="11.747539678346424"><ele>1163.0</ele><time>2026-04-05T16:17:09Z</time></trkpt><trkpt lat="43.853634130384165" lon="11.747666485543713"><ele>1163.0</ele><time>2026-04-05T16:17:10Z</time></trkpt><trkpt lat="43.853545584552" lon="11.74770380860441"><ele>1163.0</ele><time>2026-04-05T16:17:11Z</time></trkpt><trkpt lat="43.85345842826416" lon="11.747674350936443"><ele>1163.0</ele><time>2026-04-05T16:17:12Z</time></trkpt><trkpt lat="43.85339666045988" lon="11.747576568720875"><ele>1163.0</ele><time>2026-04-05T16:17:13Z</time></trkpt><trkpt lat="43.85337871556582" lon="11.7474384455397"><ele>1163.0</ele><time>2026-04-05T16:17:14Z</time></trkpt><trkpt lat="43.85341816756649" lon="11.74730677577195"><ele>1163.0</ele><time>2026-04-05T16:17:15Z</time></trkpt><trkpt lat="43.853536382179854" lon="11.747251521996107"><ele>1163.0</ele><time>2026-04-05T16:17:16Z</time></trkpt><trkpt lat="43.85363912903121" lon="11.747175568724344"><ele>1163.0</ele><time>2026-04-05T16:17:17Z</time></trkpt><trkpt lat="43.853740613833" lon="11.747055640608414"><ele>1163.0</ele><time>2026-04-05T16:17:18Z</time></trkpt><trkpt lat="43.85381776103233" lon="11.746879920500074"><ele>1163.0</ele><time>2026-04-05T16:17:19Z</time></trkpt><trkpt lat="43.85388749677827" lon="11.746671290021236"><ele>1156.0</ele><time>2026-04-05T16:17:20Z</time></trkpt><trkpt lat="43.85397573473738" lon="11.746430744893246"><ele>1149.0</ele><time>2026-04-05T16:17:21Z</time></trkpt><trkpt lat="43.85405460851087" lon="11.746191234332455"><ele>1142.0</ele><time>2026-04-05T16:17:22Z</time></trkpt><trkpt lat="43.854126794091556" lon="11.745986197592758"><ele>1137.0</ele><time>2026-04-05T16:17:22.999Z</time></trkpt><trkpt lat="43.85418043373895" lon="11.745763202408252"><ele>1132.0</ele><time>2026-04-05T16:17:23.999Z</time></trkpt><trkpt lat="43.85424465220391" lon="11.74557850859446"><ele>1127.0</ele><time>2026-04-05T16:17:24.999Z</time></trkpt><trkpt lat="43.85431477654912" lon="11.745395941748686"><ele>1126.25</ele><time>2026-04-05T16:17:25.999Z</time></trkpt><trkpt lat="43.85436954187023" lon="11.745230155672502"><ele>1125.5</ele><time>2026-04-05T16:17:26.999Z</time></trkpt><trkpt lat="43.85440384382917" lon="11.745095258437804"><ele>1124.75</ele><time>2026-04-05T16:17:27.999Z</time></trkpt><trkpt lat="43.85434688451606" lon="11.744941083024036"><ele>1124.0</ele><time>2026-04-05T16:17:28.999Z</time></trkpt><trkpt lat="43.85422524135777" lon="11.744843548683294"><ele>1124.0</ele><time>2026-04-05T16:17:29.999Z</time></trkpt><trkpt lat="43.85409611554115" lon="11.744780184502503"><ele>1124.0</ele><time>2026-04-05T16:17:30.999Z</time></trkpt><trkpt lat="43.85396610304985" lon="11.744774972738218"><ele>1124.0</ele><time>2026-04-05T16:17:31.999Z</time></trkpt><trkpt lat="43.85384418889653" lon="11.74481744963827"><ele>1124.0</ele><time>2026-04-05T16:17:32.999Z</time></trkpt><trkpt lat="43.85372768587077" lon="11.74490887564866"><ele>1124.0</ele><time>2026-04-05T16:17:33.999Z</time></trkpt><trkpt lat="43.85363591791834" lon="11.74505784268503"><ele>1124.0</ele><time>2026-04-05T16:17:34.999Z</time></trkpt><trkpt lat="43.853567460159844" lon="11.745208705396252"><ele>1124.0</ele><time>2026-04-05T16:17:35.999Z</time></trkpt><trkpt lat="43.85349570034749" lon="11.745344126280731"><ele>1124.0</ele><time>2026-04-05T16:17:36.999Z</time></trkpt><trkpt lat="43.8534013644848" lon="11.745436036984984"><ele>1120.0</ele><time>2026-04-05T16:17:37.999Z</time></trkpt><trkpt lat="43.85327862942044" lon="11.745432159807597"><ele>1116.0</ele><time>2026-04-05T16:17:38.999Z</time></trkpt><trkpt lat="43.85316201194784" lon="11.745414074621575"><ele>1112.0</ele><time>2026-04-05T16:17:39.999Z</time></trkpt><trkpt lat="43.85308911147825" lon="11.745279832961808"><ele>1108.0</ele><time>2026-04-05T16:17:40.999Z</time></trkpt><trkpt lat="43.853043093955904" lon="11.745132904906574"><ele>1108.0</ele><time>2026-04-05T16:17:41.999Z</time></trkpt><trkpt lat="43.85297526826244" lon="11.744989136403019"><ele>1108.0</ele><time>2026-04-05T16:17:42.999Z</time></trkpt><trkpt lat="43.85291431523121" lon="11.744843328741917"><ele>1108.0</ele><time>2026-04-05T16:17:43.999Z</time></trkpt><trkpt lat="43.8528105058586" lon="11.74474955864011"><ele>1108.0</ele><time>2026-04-05T16:17:44.999Z</time></trkpt><trkpt lat="43.8526936813622" lon="11.744658949851152"><ele>1105.75</ele><time>2026-04-05T16:17:45.999Z</time></trkpt><trkpt lat="43.85254695424085" lon="11.744675577653561"><ele>1103.5</ele><time>2026-04-05T16:17:46.999Z</time></trkpt><trkpt lat="43.85241898779568" lon="11.744701266862323"><ele>1101.25</ele><time>2026-04-05T16:17:47.999Z</time></trkpt><trkpt lat="43.852290010400324" lon="11.744770149615867"><ele>1099.0</ele><time>2026-04-05T16:17:48.999Z</time></trkpt><trkpt lat="43.852199023800935" lon="11.74489459812263"><ele>1099.0</ele><time>2026-04-05T16:17:49.999Z</time></trkpt><trkpt lat="43.852126931753" lon="11.745075285685074"><ele>1099.0</ele><time>2026-04-05T16:17:50.999Z</time></trkpt><trkpt lat="43.85211026650383" lon="11.74528935984896"><ele>1099.0</ele><time>2026-04-05T16:17:51.999Z</time></trkpt><trkpt lat="43.85212856597248" lon="11.745517984801037"><ele>1096.0</ele><time>2026-04-05T16:17:52.999Z</time></trkpt><trkpt lat="43.852178055240685" lon="11.745721854418562"><ele>1093.0</ele><time>2026-04-05T16:17:53.999Z</time></trkpt><trkpt lat="43.85225971505384" lon="11.74587942934895"><ele>1090.0</ele><time>2026-04-05T16:17:54.999Z</time></trkpt><trkpt lat="43.852369249027866" lon="11.74597318974808"><ele>1087.0</ele><time>2026-04-05T16:17:55.999Z</time></trkpt><trkpt lat="43.85249734996182" lon="11.746008908830364"><ele>1089.25</ele><time>2026-04-05T16:17:56.999Z</time></trkpt><trkpt lat="43.85262588080068" lon="11.745991891756448"><ele>1091.5</ele><time>2026-04-05T16:17:57.999Z</time></trkpt><trkpt lat="43.85275207878627" lon="11.745916511930785"><ele>1093.75</ele><time>2026-04-05T16:17:58.999Z</time></trkpt><trkpt lat="43.85288630807532" lon="11.745878621158072"><ele>1096.0</ele><time>2026-04-05T16:17:59.999Z</time></trkpt><trkpt lat="43.853028275011255" lon="11.74585181572181"><ele>1096.0</ele><time>2026-04-05T16:18:00.999Z</time></trkpt><trkpt lat="43.853156169986214" lon="11.745845604765071"><ele>1096.0</ele><time>2026-04-05T16:18:01.999Z</time></trkpt><trkpt lat="43.85326058257086" lon="11.745866449283172"><ele>1096.0</ele><time>2026-04-05T16:18:02.999Z</time></trkpt><trkpt lat="43.85332616232386" lon="11.745934351643541"><ele>1096.0</ele><time>2026-04-05T16:18:03.999Z</time></trkpt><trkpt lat="43.853353215135414" lon="11.746046438060212"><ele>1096.0</ele><time>2026-04-05T16:18:04.999Z</time></trkpt><trkpt lat="43.853320911271666" lon="11.746163550814794"><ele>1098.25</ele><time>2026-04-05T16:18:05.999Z</time></trkpt><trkpt lat="43.8532414827302" lon="11.746245935839253"><ele>1100.5</ele><time>2026-04-05T16:18:06.999Z</time></trkpt><trkpt lat="43.85314230930499" lon="11.74634227802604"><ele>1102.75</ele><time>2026-04-05T16:18:07.999Z</time></trkpt><trkpt lat="43.85303462989894" lon="11.746463202185303"><ele>1105.0</ele><time>2026-04-05T16:18:08.999Z</time></trkpt><trkpt lat="43.852914125679106" lon="11.74660928962288"><ele>1105.0</ele><time>2026-04-05T16:18:09.999Z</time></trkpt><trkpt lat="43.8527920248035" lon="11.74675478441832"><ele>1105.0</ele><time>2026-04-05T16:18:10.999Z</time></trkpt><trkpt lat="43.852660815246686" lon="11.746898889810005"><ele>1105.0</ele><time>2026-04-05T16:18:11.999Z</time></trkpt><trkpt lat="43.85252337730817" lon="11.747037460391525"><ele>1100.6666666666665</ele><time>2026-04-05T16:18:12.999Z</time></trkpt><trkpt lat="43.85237753736068" lon="11.747156627217157"><ele>1096.3333333333333</ele><time>2026-04-05T16:18:13.999Z</time></trkpt><trkpt lat="43.85222946905877" lon="11.747248029062176"><ele>1092.0</ele><time>2026-04-05T16:18:14.999Z</time></trkpt><trkpt lat="43.85209124277466" lon="11.747335602343728"><ele>1092.0</ele><time>2026-04-05T16:18:15.999Z</time></trkpt><trkpt lat="43.85197609329865" lon="11.747450324362172"><ele>1092.0</ele><time>2026-04-05T16:18:16.999Z</time></trkpt><trkpt lat="43.85185929873481" lon="11.747591406146741"><ele>1092.0</ele><time>2026-04-05T16:18:17.999Z</time></trkpt><trkpt lat="43.851795403358025" lon="11.747790271159598"><ele>1087.25</ele><time>2026-04-05T16:18:18.999Z</time></trkpt><trkpt lat="43.851736822065526" lon="11.74797678802448"><ele>1082.5</ele><time>2026-04-05T16:18:19.999Z</time></trkpt><trkpt lat="43.85164392050183" lon="11.74813023312618"><ele>1077.75</ele><time>2026-04-05T16:18:20.999Z</time></trkpt><trkpt lat="43.85154166660134" lon="11.748244536932557"><ele>1073.0</ele><time>2026-04-05T16:18:21.999Z</time></trkpt><trkpt lat="43.851428268142854" lon="11.748308621867015"><ele>1073.0</ele><time>2026-04-05T16:18:22.999Z</time></trkpt><trkpt lat="43.851308029858885" lon="11.748278215700301"><ele>1073.0</ele><time>2026-04-05T16:18:23.999Z</time></trkpt><trkpt lat="43.85123488127334" lon="11.74832017451501"><ele>1073.0</ele><time>2026-04-05T16:18:24.999Z</time></trkpt><trkpt lat="43.8511552422816" lon="11.748391574600799"><ele>1073.0</ele><time>2026-04-05T16:18:25.999Z</time></trkpt><trkpt lat="43.851130315118546" lon="11.748563588994243"><ele>1073.0</ele><time>2026-04-05T16:18:26.999Z</time></trkpt><trkpt lat="43.85118368255398" lon="11.748732542116109"><ele>1073.75</ele><time>2026-04-05T16:18:27.999Z</time></trkpt><trkpt lat="43.85132509938329" lon="11.748825635210705"><ele>1074.5</ele><time>2026-04-05T16:18:28.999Z</time></trkpt><trkpt lat="43.85141726190674" lon="11.748936216536535"><ele>1075.25</ele><time>2026-04-05T16:18:30Z</time></trkpt><trkpt lat="43.851496638959276" lon="11.749022704092253"><ele>1076.0</ele><time>2026-04-05T16:18:31Z</time></trkpt><trkpt lat="43.85155301424605" lon="11.749119573854683"><ele>1076.0</ele><time>2026-04-05T16:18:32Z</time></trkpt><trkpt lat="43.85158022240508" lon="11.749220595042983"><ele>1076.0</ele><time>2026-04-05T16:18:33Z</time></trkpt><trkpt lat="43.851568785969555" lon="11.74933299517938"><ele>1076.0</ele><time>2026-04-05T16:18:34Z</time></trkpt><trkpt lat="43.85149426984292" lon="11.749434478747844"><ele>1076.0</ele><time>2026-04-05T16:18:35Z</time></trkpt><trkpt lat="43.851391468512595" lon="11.74950457866641"><ele>1076.0</ele><time>2026-04-05T16:18:36Z</time></trkpt><trkpt lat="43.85128943161971" lon="11.749586706167266"><ele>1079.75</ele><time>2026-04-05T16:18:37Z</time></trkpt><trkpt lat="43.85120451875941" lon="11.749705621982745"><ele>1083.5</ele><time>2026-04-05T16:18:38Z</time></trkpt><trkpt lat="43.85113243151092" lon="11.749857344101597"><ele>1087.25</ele><time>2026-04-05T16:18:39Z</time></trkpt><trkpt lat="43.85105749096798" lon="11.750006706127486"><ele>1091.0</ele><time>2026-04-05T16:18:40Z</time></trkpt><trkpt lat="43.850932177685074" lon="11.750066483342321"><ele>1091.6666666666667</ele><time>2026-04-05T16:18:41Z</time></trkpt><trkpt lat="43.850804907117045" lon="11.750139458691894"><ele>1092.3333333333333</ele><time>2026-04-05T16:18:42Z</time></trkpt><trkpt lat="43.850659221967256" lon="11.750181291559683"><ele>1093.0</ele><time>2026-04-05T16:18:43Z</time></trkpt><trkpt lat="43.85050059020218" lon="11.75024209041886"><ele>1093.0</ele><time>2026-04-05T16:18:44Z</time></trkpt><trkpt lat="43.85034473606352" lon="11.750292368781363"><ele>1093.0</ele><time>2026-04-05T16:18:45Z</time></trkpt><trkpt lat="43.850209797449956" lon="11.750347937236498"><ele>1093.0</ele><time>2026-04-05T16:18:46Z</time></trkpt><trkpt lat="43.8500647853924" lon="11.750439274663478"><ele>1079.3333333333333</ele><time>2026-04-05T16:18:47Z</time></trkpt><trkpt lat="43.84992515300848" lon="11.750580643763987"><ele>1065.6666666666667</ele><time>2026-04-05T16:18:48Z</time></trkpt><trkpt lat="43.84980532226386" lon="11.750727739537876"><ele>1052.0</ele><time>2026-04-05T16:18:49Z</time></trkpt><trkpt lat="43.84969848439614" lon="11.75086645411237"><ele>1052.0</ele><time>2026-04-05T16:18:50Z</time></trkpt><trkpt lat="43.849627145970004" lon="11.751039296318067"><ele>1052.0</ele><time>2026-04-05T16:18:51Z</time></trkpt><trkpt lat="43.8495851243283" lon="11.751225091445233"><ele>1052.0</ele><time>2026-04-05T16:18:52Z</time></trkpt><trkpt lat="43.849557455524454" lon="11.751420985432702"><ele>1052.0</ele><time>2026-04-05T16:18:53Z</time></trkpt><trkpt lat="43.84956271941573" lon="11.751617307849141"><ele>1057.0</ele><time>2026-04-05T16:18:54Z</time></trkpt><trkpt lat="43.84956652230559" lon="11.751785680914201"><ele>1062.0</ele><time>2026-04-05T16:18:55Z</time></trkpt><trkpt lat="43.84953121475346" lon="11.751937879353196"><ele>1067.0</ele><time>2026-04-05T16:18:56Z</time></trkpt><trkpt lat="43.84943471159499" lon="11.752043436393514"><ele>1072.0</ele><time>2026-04-05T16:18:57Z</time></trkpt><trkpt lat="43.84931242193102" lon="11.752088137175726"><ele>1066.25</ele><time>2026-04-05T16:18:58Z</time></trkpt><trkpt lat="43.84917004362217" lon="11.752073972998927"><ele>1060.5</ele><time>2026-04-05T16:18:59Z</time></trkpt><trkpt lat="43.84904325491913" lon="11.752056781280347"><ele>1054.75</ele><time>2026-04-05T16:19:00Z</time></trkpt><trkpt lat="43.848922462150966" lon="11.752073876589757"><ele>1049.0</ele><time>2026-04-05T16:19:01Z</time></trkpt><trkpt lat="43.84883639732868" lon="11.752156265390271"><ele>1049.0</ele><time>2026-04-05T16:19:02Z</time></trkpt><trkpt lat="43.84878997607782" lon="11.75230008700059"><ele>1049.0</ele><time>2026-04-05T16:19:03Z</time></trkpt><trkpt lat="43.84875672463692" lon="11.752448980765168"><ele>1049.0</ele><time>2026-04-05T16:19:04Z</time></trkpt><trkpt lat="43.8487295882896" lon="11.752632339875968"><ele>1049.0</ele><time>2026-04-05T16:19:05Z</time></trkpt><trkpt lat="43.84868356050534" lon="11.75279692955071"><ele>1048.6000000000001</ele><time>2026-04-05T16:19:06Z</time></trkpt><trkpt lat="43.848642198637805" lon="11.752932983900292"><ele>1048.2</ele><time>2026-04-05T16:19:07Z</time></trkpt><trkpt lat="43.84857886278209" lon="11.753045296102727"><ele>1047.8000000000002</ele><time>2026-04-05T16:19:08Z</time></trkpt><trkpt lat="43.848472062844" lon="11.753113107983049"><ele>1047.4</ele><time>2026-04-05T16:19:09Z</time></trkpt><trkpt lat="43.848354201905906" lon="11.75311283073404"><ele>1047.0</ele><time>2026-04-05T16:19:10Z</time></trkpt><trkpt lat="43.84823705898055" lon="11.753043590528248"><ele>1047.0</ele><time>2026-04-05T16:19:11Z</time></trkpt><trkpt lat="43.84812674072186" lon="11.7528990420628"><ele>1047.0</ele><time>2026-04-05T16:19:12Z</time></trkpt><trkpt lat="43.84804983185071" lon="11.752734971594451"><ele>1047.0</ele><time>2026-04-05T16:19:13Z</time></trkpt><trkpt lat="43.848001970805164" lon="11.752537008087172"><ele>1047.0</ele><time>2026-04-05T16:19:14Z</time></trkpt><trkpt lat="43.84795987782115" lon="11.752314054203508"><ele>1040.6666666666667</ele><time>2026-04-05T16:19:15Z</time></trkpt><trkpt lat="43.84789422889217" lon="11.75212742497485"><ele>1034.3333333333335</ele><time>2026-04-05T16:19:16Z</time></trkpt><trkpt lat="43.84783517708231" lon="11.751953435080916"><ele>1028.0</ele><time>2026-04-05T16:19:17Z</time></trkpt><trkpt lat="43.84772439470062" lon="11.75178869032961"><ele>1024.75</ele><time>2026-04-05T16:19:18Z</time></trkpt><trkpt lat="43.84760712017312" lon="11.751669713709752"><ele>1021.5</ele><time>2026-04-05T16:19:19Z</time></trkpt><trkpt lat="43.84747621348872" lon="11.751608286712012"><ele>1018.25</ele><time>2026-04-05T16:19:20Z</time></trkpt><trkpt lat="43.84733177330188" lon="11.751595637515438"><ele>1015.0</ele><time>2026-04-05T16:19:21Z</time></trkpt><trkpt lat="43.84718004352693" lon="11.751584462999432"><ele>1015.0</ele><time>2026-04-05T16:19:22Z</time></trkpt><trkpt lat="43.84702776077915" lon="11.751507767879865"><ele>1015.0</ele><time>2026-04-05T16:19:23Z</time></trkpt><trkpt lat="43.84693459172179" lon="11.751361781864361"><ele>1015.0</ele><time>2026-04-05T16:19:24Z</time></trkpt><trkpt lat="43.84683118331377" lon="11.751258995769396"><ele>1015.0</ele><time>2026-04-05T16:19:25Z</time></trkpt><trkpt lat="43.84672859984172" lon="11.751190277127144"><ele>1016.25</ele><time>2026-04-05T16:19:26Z</time></trkpt><trkpt lat="43.84661275521122" lon="11.751207658064132"><ele>1017.5</ele><time>2026-04-05T16:19:27Z</time></trkpt><trkpt lat="43.84651178452824" lon="11.751281442484169"><ele>1018.75</ele><time>2026-04-05T16:19:28Z</time></trkpt><trkpt lat="43.84641836063018" lon="11.751386662002584"><ele>1020.0</ele><time>2026-04-05T16:19:29Z</time></trkpt><trkpt lat="43.84632806335778" lon="11.751490665132566"><ele>1020.0</ele><time>2026-04-05T16:19:30Z</time></trkpt><trkpt lat="43.846236138873344" lon="11.751579364813391"><ele>1020.0</ele><time>2026-04-05T16:19:31Z</time></trkpt><trkpt lat="43.8461475349255" lon="11.75161970260333"><ele>1020.0</ele><time>2026-04-05T16:19:32Z</time></trkpt><trkpt lat="43.84605140875226" lon="11.751612129583425"><ele>1020.0</ele><time>2026-04-05T16:19:33Z</time></trkpt><trkpt lat="43.845957345624285" lon="11.751512198810547"><ele>1020.0</ele><time>2026-04-05T16:19:34Z</time></trkpt><trkpt lat="43.84592139104918" lon="11.751358399627502"><ele>1020.5</ele><time>2026-04-05T16:19:35Z</time></trkpt><trkpt lat="43.845954511542075" lon="11.751168667020888"><ele>1021.0</ele><time>2026-04-05T16:19:36Z</time></trkpt><trkpt lat="43.84593116570025" lon="11.750969264507686"><ele>1021.5</ele><time>2026-04-05T16:19:37Z</time></trkpt><trkpt lat="43.84587455906811" lon="11.750763337621443"><ele>1022.0</ele><time>2026-04-05T16:19:38Z</time></trkpt><trkpt lat="43.84582177615031" lon="11.750544709433191"><ele>1018.0</ele><time>2026-04-05T16:19:39Z</time></trkpt><trkpt lat="43.84579090238447" lon="11.75033305932234"><ele>1014.0</ele><time>2026-04-05T16:19:40Z</time></trkpt><trkpt lat="43.84576053292439" lon="11.750135424698268"><ele>1010.0</ele><time>2026-04-05T16:19:41Z</time></trkpt><trkpt lat="43.84574818502694" lon="11.749943114506213"><ele>1006.0</ele><time>2026-04-05T16:19:42Z</time></trkpt><trkpt lat="43.84571823859585" lon="11.749791080947492"><ele>1002.8</ele><time>2026-04-05T16:19:42.999Z</time></trkpt><trkpt lat="43.84566431947337" lon="11.749670902767576"><ele>999.5999999999999</ele><time>2026-04-05T16:19:43.999Z</time></trkpt><trkpt lat="43.8455787717086" lon="11.749593742222098"><ele>996.4</ele><time>2026-04-05T16:19:44.999Z</time></trkpt><trkpt lat="43.845471693369575" lon="11.749569452880491"><ele>993.2</ele><time>2026-04-05T16:19:45.999Z</time></trkpt><trkpt lat="43.845347783804435" lon="11.74961471594112"><ele>990.0</ele><time>2026-04-05T16:19:46.999Z</time></trkpt><trkpt lat="43.84524930022363" lon="11.749713274782266"><ele>990.0</ele><time>2026-04-05T16:19:47.999Z</time></trkpt><trkpt lat="43.84517052133565" lon="11.749855698249162"><ele>990.0</ele><time>2026-04-05T16:19:48.999Z</time></trkpt><trkpt lat="43.845078713435015" lon="11.749995678610462"><ele>990.0</ele><time>2026-04-05T16:19:49.999Z</time></trkpt><trkpt lat="43.84497705848352" lon="11.750133654770288"><ele>990.0</ele><time>2026-04-05T16:19:50.999Z</time></trkpt><trkpt lat="43.84489815162756" lon="11.750238074636906"><ele>989.8</ele><time>2026-04-05T16:19:51.999Z</time></trkpt><trkpt lat="43.84482438417854" lon="11.75032978260446"><ele>989.6</ele><time>2026-04-05T16:19:52.999Z</time></trkpt><trkpt lat="43.84474330047081" lon="11.750402903526842"><ele>989.4000000000001</ele><time>2026-04-05T16:19:53.999Z</time></trkpt><trkpt lat="43.84464223064488" lon="11.75035652304196"><ele>989.2</ele><time>2026-04-05T16:19:54.999Z</time></trkpt><trkpt lat="43.84457275125813" lon="11.75022486170227"><ele>989.0</ele><time>2026-04-05T16:19:55.999Z</time></trkpt><trkpt lat="43.84456516225511" lon="11.75005408114978"><ele>989.0</ele><time>2026-04-05T16:19:56.999Z</time></trkpt><trkpt lat="43.844600468718006" lon="11.749901147921872"><ele>989.0</ele><time>2026-04-05T16:19:57.999Z</time></trkpt><trkpt lat="43.844707093793055" lon="11.749798687291415"><ele>989.0</ele><time>2026-04-05T16:19:58.999Z</time></trkpt><trkpt lat="43.84476954388987" lon="11.749658068781756"><ele>989.0</ele><time>2026-04-05T16:19:59.999Z</time></trkpt><trkpt lat="43.84480641818655" lon="11.749533585935032"><ele>989.0</ele><time>2026-04-05T16:20:00.999Z</time></trkpt><trkpt lat="43.844755431146666" lon="11.749395159145951"><ele>989.0</ele><time>2026-04-05T16:20:01.999Z</time></trkpt><trkpt lat="43.84466134525795" lon="11.749276096290984"><ele>989.0</ele><time>2026-04-05T16:20:02.999Z</time></trkpt><trkpt lat="43.84454942075459" lon="11.749206724618242"><ele>989.0</ele><time>2026-04-05T16:20:03.999Z</time></trkpt><trkpt lat="43.844424987773905" lon="11.74915382446391"><ele>987.5</ele><time>2026-04-05T16:20:04.999Z</time></trkpt><trkpt lat="43.844333618550166" lon="11.749048724173871"><ele>986.0</ele><time>2026-04-05T16:20:05.999Z</time></trkpt><trkpt lat="43.8442950872044" lon="11.748880667914598"><ele>984.5</ele><time>2026-04-05T16:20:06.999Z</time></trkpt><trkpt lat="43.84425934738656" lon="11.748696661309017"><ele>983.0</ele><time>2026-04-05T16:20:07.999Z</time></trkpt><trkpt lat="43.84420050909403" lon="11.748546813928996"><ele>977.5</ele><time>2026-04-05T16:20:08.999Z</time></trkpt><trkpt lat="43.844102773170086" lon="11.748450490548336"><ele>972.0</ele><time>2026-04-05T16:20:09.999Z</time></trkpt><trkpt lat="43.843978568095395" lon="11.74841711870609"><ele>966.5</ele><time>2026-04-05T16:20:10.999Z</time></trkpt><trkpt lat="43.84384993191418" lon="11.748443160127044"><ele>961.0</ele><time>2026-04-05T16:20:11.999Z</time></trkpt><trkpt lat="43.84372293342241" lon="11.748533957731153"><ele>968.3333333333333</ele><time>2026-04-05T16:20:12.999Z</time></trkpt><trkpt lat="43.84361157505318" lon="11.748660416085146"><ele>975.6666666666667</ele><time>2026-04-05T16:20:13.999Z</time></trkpt><trkpt lat="43.843481470947964" lon="11.74879236728292"><ele>983.0</ele><time>2026-04-05T16:20:14.999Z</time></trkpt><trkpt lat="43.843352754024274" lon="11.748917347157798"><ele>983.5</ele><time>2026-04-05T16:20:15.999Z</time></trkpt><trkpt lat="43.84321549527595" lon="11.748996927156703"><ele>984.0</ele><time>2026-04-05T16:20:16.999Z</time></trkpt><trkpt lat="43.843116518419954" lon="11.749053803212185"><ele>984.5</ele><time>2026-04-05T16:20:17.999Z</time></trkpt><trkpt lat="43.842991331769625" lon="11.749024055467906"><ele>985.0</ele><time>2026-04-05T16:20:18.999Z</time></trkpt><trkpt lat="43.84290666661298" lon="11.748854785284571"><ele>985.0</ele><time>2026-04-05T16:20:19.999Z</time></trkpt><trkpt lat="43.84286790881622" lon="11.748726097715707"><ele>985.0</ele><time>2026-04-05T16:20:20.999Z</time></trkpt><trkpt lat="43.8429043577153" lon="11.74854053355096"><ele>985.0</ele><time>2026-04-05T16:20:21.999Z</time></trkpt><trkpt lat="43.843010580144195" lon="11.748386296230391"><ele>985.0</ele><time>2026-04-05T16:20:22.999Z</time></trkpt><trkpt lat="43.84307061624701" lon="11.748190988769537"><ele>978.75</ele><time>2026-04-05T16:20:23.999Z</time></trkpt><trkpt lat="43.843093068329665" lon="11.747987202841617"><ele>972.5</ele><time>2026-04-05T16:20:24.999Z</time></trkpt><trkpt lat="43.843109670517855" lon="11.747819191210029"><ele>966.25</ele><time>2026-04-05T16:20:25.999Z</time></trkpt><trkpt lat="43.84312777256099" lon="11.747668426324662"><ele>960.0</ele><time>2026-04-05T16:20:26.999Z</time></trkpt><trkpt lat="43.843187798393316" lon="11.747545731684896"><ele>957.25</ele><time>2026-04-05T16:20:27.999Z</time></trkpt><trkpt lat="43.84329454922631" lon="11.74747235263086"><ele>954.5</ele><time>2026-04-05T16:20:28.999Z</time></trkpt><trkpt lat="43.84341286577419" lon="11.747433612192701"><ele>951.75</ele><time>2026-04-05T16:20:29.999Z</time></trkpt><trkpt lat="43.84353240637512" lon="11.747486075987593"><ele>949.0</ele><time>2026-04-05T16:20:30.999Z</time></trkpt><trkpt lat="43.84364878038105" lon="11.747597462163316"><ele>947.0</ele><time>2026-04-05T16:20:31.999Z</time></trkpt><trkpt lat="43.84379542392266" lon="11.747701161706706"><ele>945.0</ele><time>2026-04-05T16:20:32.999Z</time></trkpt><trkpt lat="43.84395048855054" lon="11.747695715801326"><ele>943.0</ele><time>2026-04-05T16:20:34.999Z</time></trkpt><trkpt lat="43.844029423935716" lon="11.747590063759802"><ele>941.0</ele><time>2026-04-05T16:20:36Z</time></trkpt><trkpt lat="43.84407567780318" lon="11.747445825022515"><ele>941.0</ele><time>2026-04-05T16:20:37Z</time></trkpt><trkpt lat="43.84405925601119" lon="11.747287662473658"><ele>941.0</ele><time>2026-04-05T16:20:38Z</time></trkpt><trkpt lat="43.843992989796554" lon="11.747162415178543"><ele>941.0</ele><time>2026-04-05T16:20:39Z</time></trkpt><trkpt lat="43.843889836983" lon="11.747102739503848"><ele>941.0</ele><time>2026-04-05T16:20:40Z</time></trkpt><trkpt lat="43.843770307667754" lon="11.747094624181033"><ele>941.0</ele><time>2026-04-05T16:20:41Z</time></trkpt><trkpt lat="43.84364622917913" lon="11.74708036467462"><ele>941.0</ele><time>2026-04-05T16:20:42Z</time></trkpt><trkpt lat="43.843519082887546" lon="11.747066500660361"><ele>941.0</ele><time>2026-04-05T16:20:43Z</time></trkpt><trkpt lat="43.84337810880006" lon="11.747040619742778"><ele>941.0</ele><time>2026-04-05T16:20:44Z</time></trkpt><trkpt lat="43.843243972841684" lon="11.747026446957102"><ele>942.5999999999999</ele><time>2026-04-05T16:20:45Z</time></trkpt><trkpt lat="43.84312692301954" lon="11.747056198664941"><ele>944.1999999999999</ele><time>2026-04-05T16:20:46Z</time></trkpt><trkpt lat="43.84304267785723" lon="11.747130846616303"><ele>945.8000000000001</ele><time>2026-04-05T16:20:47Z</time></trkpt><trkpt lat="43.8429911916753" lon="11.747233048537602"><ele>947.4000000000001</ele><time>2026-04-05T16:20:48Z</time></trkpt><trkpt lat="43.842934984368085" lon="11.74728624268896"><ele>949.0</ele><time>2026-04-05T16:20:49Z</time></trkpt><trkpt lat="43.842842699798574" lon="11.747384778465232"><ele>949.0</ele><time>2026-04-05T16:20:51Z</time></trkpt><trkpt lat="43.84286610092923" lon="11.747565127356411"><ele>949.0</ele><time>2026-04-05T16:20:52Z</time></trkpt><trkpt lat="43.842797616963516" lon="11.747699845092207"><ele>949.0</ele><time>2026-04-05T16:20:54Z</time></trkpt><trkpt lat="43.84272383027857" lon="11.74782494027322"><ele>949.0</ele><time>2026-04-05T16:20:56Z</time></trkpt><trkpt lat="43.84263879597056" lon="11.74791386863034"><ele>951.2</ele><time>2026-04-05T16:20:58Z</time></trkpt><trkpt lat="43.84257556235715" lon="11.747937547323074"><ele>953.4000000000001</ele><time>2026-04-05T16:20:59Z</time></trkpt><trkpt lat="43.84246173115626" lon="11.747957382810222"><ele>955.6</ele><time>2026-04-05T16:21:01Z</time></trkpt><trkpt lat="43.842349436940616" lon="11.74796040236946"><ele>957.8</ele><time>2026-04-05T16:21:03Z</time></trkpt><trkpt lat="43.84228192247186" lon="11.747957350565772"><ele>960.0</ele><time>2026-04-05T16:21:04Z</time></trkpt><trkpt lat="43.8421638435978" lon="11.747962955071793"><ele>960.0</ele><time>2026-04-05T16:21:06Z</time></trkpt><trkpt lat="43.842093348242784" lon="11.74796360902206"><ele>960.0</ele><time>2026-04-05T16:21:07Z</time></trkpt><trkpt lat="43.841980739038455" lon="11.747953723675497"><ele>960.0</ele><time>2026-04-05T16:21:09Z</time></trkpt><trkpt lat="43.841920499092915" lon="11.747920960364318"><ele>960.0</ele><time>2026-04-05T16:21:10Z</time></trkpt><trkpt lat="43.84186023470515" lon="11.7478933806493"><ele>960.0</ele><time>2026-04-05T16:21:11Z</time></trkpt><trkpt lat="43.84178800028341" lon="11.747864564068829"><ele>960.0</ele><time>2026-04-05T16:21:12Z</time></trkpt><trkpt lat="43.841679321708035" lon="11.74780418165226"><ele>960.6666666666666</ele><time>2026-04-05T16:21:14Z</time></trkpt><trkpt lat="43.841560973386564" lon="11.747771750046882"><ele>961.3333333333333</ele><time>2026-04-05T16:21:16Z</time></trkpt><trkpt lat="43.84144538999169" lon="11.747798112232841"><ele>962.0</ele><time>2026-04-05T16:21:18Z</time></trkpt><trkpt lat="43.841371589331345" lon="11.747798094621672"><ele>962.6666666666666</ele><time>2026-04-05T16:21:19Z</time></trkpt><trkpt lat="43.84130273442988" lon="11.747816739478349"><ele>963.3333333333333</ele><time>2026-04-05T16:21:20Z</time></trkpt><trkpt lat="43.84123857488532" lon="11.747839753574095"><ele>964.0</ele><time>2026-04-05T16:21:21Z</time></trkpt><trkpt lat="43.84116372520715" lon="11.747852971214595"><ele>964.0</ele><time>2026-04-05T16:21:22Z</time></trkpt><trkpt lat="43.841100015411286" lon="11.747884526032003"><ele>964.0000000000001</ele><time>2026-04-05T16:21:23Z</time></trkpt><trkpt lat="43.841029824731855" lon="11.74789858509468"><ele>964.0000000000001</ele><time>2026-04-05T16:21:24Z</time></trkpt><trkpt lat="43.84088983380898" lon="11.747902215887757"><ele>964.0</ele><time>2026-04-05T16:21:26Z</time></trkpt><trkpt lat="43.84082074338374" lon="11.747910862287462"><ele>964.0</ele><time>2026-04-05T16:21:27Z</time></trkpt><trkpt lat="43.840700288322346" lon="11.7479357254994"><ele>961.9999999999999</ele><time>2026-04-05T16:21:29Z</time></trkpt><trkpt lat="43.84063653873701" lon="11.747954647576853"><ele>960.0</ele><time>2026-04-05T16:21:30Z</time></trkpt><trkpt lat="43.84056921493681" lon="11.747968985439796"><ele>958.0</ele><time>2026-04-05T16:21:31Z</time></trkpt><trkpt lat="43.840460421159015" lon="11.748048542467242"><ele>956.0</ele><time>2026-04-05T16:21:33Z</time></trkpt><trkpt lat="43.84040020323999" lon="11.748098356866336"><ele>953.9999999999999</ele><time>2026-04-05T16:21:34Z</time></trkpt><trkpt lat="43.840338509839654" lon="11.748157505747535"><ele>952.0</ele><time>2026-04-05T16:21:35Z</time></trkpt><trkpt lat="43.840277379535635" lon="11.748215747524414"><ele>952.0</ele><time>2026-04-05T16:21:36Z</time></trkpt><trkpt lat="43.840219273431586" lon="11.748258212126492"><ele>952.0</ele><time>2026-04-05T16:21:37Z</time></trkpt><trkpt lat="43.84017389897814" lon="11.748323560099378"><ele>952.0</ele><time>2026-04-05T16:21:38Z</time></trkpt><trkpt lat="43.8401359690559" lon="11.74839720221484"><ele>952.0</ele><time>2026-04-05T16:21:39Z</time></trkpt><trkpt lat="43.84010288965702" lon="11.748478807046238"><ele>952.0</ele><time>2026-04-05T16:21:40Z</time></trkpt><trkpt lat="43.84007587530636" lon="11.748567102477287"><ele>952.0</ele><time>2026-04-05T16:21:41Z</time></trkpt><trkpt lat="43.840049381142485" lon="11.74865647048789"><ele>952.0</ele><time>2026-04-05T16:21:42Z</time></trkpt><trkpt lat="43.84001724645842" lon="11.748741596113168"><ele>950.4999999999999</ele><time>2026-04-05T16:21:43Z</time></trkpt><trkpt lat="43.83996809836492" lon="11.748827086544892"><ele>949.0</ele><time>2026-04-05T16:21:44Z</time></trkpt><trkpt lat="43.83990528856253" lon="11.748889543675519"><ele>947.5</ele><time>2026-04-05T16:21:45Z</time></trkpt><trkpt lat="43.8398430081695" lon="11.748934103656252"><ele>946.0</ele><time>2026-04-05T16:21:46Z</time></trkpt><trkpt lat="43.83978061780507" lon="11.74896743343171"><ele>944.4999999999999</ele><time>2026-04-05T16:21:47Z</time></trkpt><trkpt lat="43.83967324668926" lon="11.749030985146355"><ele>943.0</ele><time>2026-04-05T16:21:49Z</time></trkpt><trkpt lat="43.83954857899571" lon="11.74902220677714"><ele>943.0</ele><time>2026-04-05T16:21:51Z</time></trkpt><trkpt lat="43.83944637908383" lon="11.749010755709977"><ele>943.0</ele><time>2026-04-05T16:21:53Z</time></trkpt><trkpt lat="43.839348717587825" lon="11.749008781121383"><ele>943.0</ele><time>2026-04-05T16:21:55Z</time></trkpt><trkpt lat="43.839279139336874" lon="11.748990929250787"><ele>943.0</ele><time>2026-04-05T16:21:58Z</time></trkpt><trkpt lat="43.83917109808171" lon="11.749037427185645"><ele>943.0</ele><time>2026-04-05T16:24:24.999Z</time></trkpt><trkpt lat="43.83910491916511" lon="11.749049846344532"><ele>940.4999999999999</ele><time>2026-04-05T16:24:25.999Z</time></trkpt><trkpt lat="43.83903041125109" lon="11.749058313915183"><ele>938.0</ele><time>2026-04-05T16:24:26.999Z</time></trkpt><trkpt lat="43.83895208900794" lon="11.749060940794694"><ele>935.5</ele><time>2026-04-05T16:24:27.999Z</time></trkpt><trkpt lat="43.838862581999216" lon="11.749061842374179"><ele>933.0</ele><time>2026-04-05T16:24:28.999Z</time></trkpt><trkpt lat="43.838769655371266" lon="11.749052441165054"><ele>930.4999999999999</ele><time>2026-04-05T16:24:29.999Z</time></trkpt><trkpt lat="43.83866707203374" lon="11.74901874857581"><ele>928.0</ele><time>2026-04-05T16:24:30.999Z</time></trkpt><trkpt lat="43.83857204435677" lon="11.748942005151427"><ele>928.0</ele><time>2026-04-05T16:24:31.999Z</time></trkpt><trkpt lat="43.83847083269337" lon="11.748860414535713"><ele>928.0</ele><time>2026-04-05T16:24:32.999Z</time></trkpt><trkpt lat="43.83839752700754" lon="11.748764139845878"><ele>928.0</ele><time>2026-04-05T16:24:33.999Z</time></trkpt><trkpt lat="43.838339070735195" lon="11.748662729957251"><ele>928.0</ele><time>2026-04-05T16:24:34.999Z</time></trkpt><trkpt lat="43.838253781938725" lon="11.748567986754452"><ele>928.0</ele><time>2026-04-05T16:24:35.999Z</time></trkpt><trkpt lat="43.83818553099048" lon="11.748480329755898"><ele>925.4</ele><time>2026-04-05T16:24:36.999Z</time></trkpt><trkpt lat="43.8381015006539" lon="11.74839529523031"><ele>922.8</ele><time>2026-04-05T16:24:37.999Z</time></trkpt><trkpt lat="43.837996055898955" lon="11.74834077415699"><ele>920.2</ele><time>2026-04-05T16:24:38.999Z</time></trkpt><trkpt lat="43.83788319360839" lon="11.748309088533112"><ele>917.6</ele><time>2026-04-05T16:24:39.999Z</time></trkpt><trkpt lat="43.83777685911572" lon="11.748318204434456"><ele>915.0</ele><time>2026-04-05T16:24:40.999Z</time></trkpt><trkpt lat="43.83767357243042" lon="11.74836821220544"><ele>912.75</ele><time>2026-04-05T16:24:41.999Z</time></trkpt><trkpt lat="43.83757996381103" lon="11.748463175600959"><ele>910.5</ele><time>2026-04-05T16:24:42.999Z</time></trkpt><trkpt lat="43.837484637089254" lon="11.748581987122206"><ele>908.25</ele><time>2026-04-05T16:24:43.999Z</time></trkpt><trkpt lat="43.83738410146781" lon="11.748688709971777"><ele>906.0</ele><time>2026-04-05T16:24:44.999Z</time></trkpt><trkpt lat="43.837274432786046" lon="11.748784217026945"><ele>912.5</ele><time>2026-04-05T16:24:45.999Z</time></trkpt><trkpt lat="43.83715195889999" lon="11.748848278425378"><ele>919.0</ele><time>2026-04-05T16:24:46.999Z</time></trkpt><trkpt lat="43.83703065366402" lon="11.748908535288251"><ele>925.5</ele><time>2026-04-05T16:24:48Z</time></trkpt><trkpt lat="43.83691893704481" lon="11.74898759429533"><ele>932.0</ele><time>2026-04-05T16:24:49Z</time></trkpt><trkpt lat="43.83682401371911" lon="11.749099216268197"><ele>934.5</ele><time>2026-04-05T16:24:50Z</time></trkpt><trkpt lat="43.83675776867086" lon="11.749235034814719"><ele>937.0</ele><time>2026-04-05T16:24:51Z</time></trkpt><trkpt lat="43.83666871098647" lon="11.749352735647511"><ele>939.5</ele><time>2026-04-05T16:24:52Z</time></trkpt><trkpt lat="43.83656022659203" lon="11.749460081197682"><ele>942.0</ele><time>2026-04-05T16:24:53Z</time></trkpt><trkpt lat="43.83643396605308" lon="11.749514237970617"><ele>942.0</ele><time>2026-04-05T16:24:54Z</time></trkpt><trkpt lat="43.83629922828998" lon="11.749530051351774"><ele>942.0</ele><time>2026-04-05T16:24:55Z</time></trkpt><trkpt lat="43.83616982800255" lon="11.74951716838918"><ele>942.0</ele><time>2026-04-05T16:24:56Z</time></trkpt><trkpt lat="43.83604916474289" lon="11.749488893011863"><ele>942.0</ele><time>2026-04-05T16:24:57Z</time></trkpt><trkpt lat="43.83593509255057" lon="11.749457073897798"><ele>935.0</ele><time>2026-04-05T16:24:58Z</time></trkpt><trkpt lat="43.8358324014337" lon="11.749485368205896"><ele>928.0</ele><time>2026-04-05T16:24:59Z</time></trkpt><trkpt lat="43.835749846453105" lon="11.749585682997287"><ele>921.0</ele><time>2026-04-05T16:25:00Z</time></trkpt><trkpt lat="43.8356755629172" lon="11.749712079131502"><ele>914.0</ele><time>2026-04-05T16:25:01Z</time></trkpt><trkpt lat="43.83561611242161" lon="11.749856294971798"><ele>914.0</ele><time>2026-04-05T16:25:02Z</time></trkpt><trkpt lat="43.83555285739677" lon="11.749989358803708"><ele>914.0</ele><time>2026-04-05T16:25:03Z</time></trkpt><trkpt lat="43.835493395267996" lon="11.750125053554815"><ele>914.0</ele><time>2026-04-05T16:25:04Z</time></trkpt><trkpt lat="43.83546387746747" lon="11.750268198752735"><ele>914.0</ele><time>2026-04-05T16:25:05Z</time></trkpt><trkpt lat="43.835477122345274" lon="11.750432096877622"><ele>913.25</ele><time>2026-04-05T16:25:06Z</time></trkpt><trkpt lat="43.83549684102172" lon="11.750604382385687"><ele>912.5</ele><time>2026-04-05T16:25:07Z</time></trkpt><trkpt lat="43.83552987224273" lon="11.750778933803778"><ele>911.75</ele><time>2026-04-05T16:25:08Z</time></trkpt><trkpt lat="43.835547545990806" lon="11.750955209548295"><ele>911.0</ele><time>2026-04-05T16:25:09Z</time></trkpt><trkpt lat="43.83555270081437" lon="11.751131408982772"><ele>906.0</ele><time>2026-04-05T16:25:10Z</time></trkpt><trkpt lat="43.835566511069764" lon="11.751281625576521"><ele>900.9999999999999</ele><time>2026-04-05T16:25:11Z</time></trkpt><trkpt lat="43.83559296654677" lon="11.751419480626241"><ele>895.9999999999999</ele><time>2026-04-05T16:25:12Z</time></trkpt><trkpt lat="43.83565176294199" lon="11.751530783861307"><ele>891.0</ele><time>2026-04-05T16:25:13Z</time></trkpt><trkpt lat="43.8357348556747" lon="11.751606517426133"><ele>886.0</ele><time>2026-04-05T16:25:14Z</time></trkpt><trkpt lat="43.83582797837323" lon="11.751666080549523"><ele>886.0</ele><time>2026-04-05T16:25:15Z</time></trkpt><trkpt lat="43.83591773010477" lon="11.751740577386368"><ele>885.9999999999999</ele><time>2026-04-05T16:25:16Z</time></trkpt><trkpt lat="43.83599135665721" lon="11.751840601158483"><ele>885.9999999999999</ele><time>2026-04-05T16:25:17Z</time></trkpt><trkpt lat="43.83605028717697" lon="11.751972672809757"><ele>886.0</ele><time>2026-04-05T16:25:18Z</time></trkpt><trkpt lat="43.836095407818426" lon="11.752114998634223"><ele>886.0</ele><time>2026-04-05T16:25:19Z</time></trkpt><trkpt lat="43.836119811845734" lon="11.7522683565708"><ele>886.8</ele><time>2026-04-05T16:25:20Z</time></trkpt><trkpt lat="43.8361295709059" lon="11.752415584326451"><ele>887.5999999999999</ele><time>2026-04-05T16:25:21Z</time></trkpt><trkpt lat="43.836142856063375" lon="11.7525567698374"><ele>888.4</ele><time>2026-04-05T16:25:22Z</time></trkpt><trkpt lat="43.836176607764976" lon="11.752684333821213"><ele>889.2</ele><time>2026-04-05T16:25:23Z</time></trkpt><trkpt lat="43.836234043191794" lon="11.752786392242239"><ele>890.0</ele><time>2026-04-05T16:25:24Z</time></trkpt><trkpt lat="43.83632346850684" lon="11.752872003503228"><ele>890.0</ele><time>2026-04-05T16:25:25Z</time></trkpt><trkpt lat="43.83641160118249" lon="11.752968369389418"><ele>890.0</ele><time>2026-04-05T16:25:26Z</time></trkpt><trkpt lat="43.8364961679793" lon="11.753078193384125"><ele>890.0</ele><time>2026-04-05T16:25:27Z</time></trkpt><trkpt lat="43.83657991186827" lon="11.753200511592816"><ele>890.0</ele><time>2026-04-05T16:25:28Z</time></trkpt><trkpt lat="43.83666397374333" lon="11.753327700709045"><ele>890.0</ele><time>2026-04-05T16:25:29Z</time></trkpt><trkpt lat="43.836734975663546" lon="11.753462944043505"><ele>890.0</ele><time>2026-04-05T16:25:30Z</time></trkpt><trkpt lat="43.83678194391142" lon="11.753595746559183"><ele>890.0</ele><time>2026-04-05T16:25:31Z</time></trkpt><trkpt lat="43.83680474715529" lon="11.75375257351677"><ele>890.0</ele><time>2026-04-05T16:25:32Z</time></trkpt><trkpt lat="43.83682705687207" lon="11.753897919666173"><ele>887.0</ele><time>2026-04-05T16:25:33Z</time></trkpt><trkpt lat="43.83681245163675" lon="11.75402651790807"><ele>884.0</ele><time>2026-04-05T16:25:34Z</time></trkpt><trkpt lat="43.83673264020302" lon="11.754238273707475"><ele>881.0</ele><time>2026-04-05T16:25:35Z</time></trkpt><trkpt lat="43.83670528669711" lon="11.754425569690593"><ele>878.0</ele><time>2026-04-05T16:25:36Z</time></trkpt><trkpt lat="43.83668521385633" lon="11.75459664869504"><ele>876.75</ele><time>2026-04-05T16:25:37Z</time></trkpt><trkpt lat="43.83668405197387" lon="11.75478469156125"><ele>875.5</ele><time>2026-04-05T16:25:38Z</time></trkpt><trkpt lat="43.83668649294466" lon="11.754968165902985"><ele>874.25</ele><time>2026-04-05T16:25:39Z</time></trkpt><trkpt lat="43.836689505787575" lon="11.755159251691484"><ele>873.0</ele><time>2026-04-05T16:25:40Z</time></trkpt><trkpt lat="43.83669494027886" lon="11.755345879088575"><ele>871.75</ele><time>2026-04-05T16:25:41Z</time></trkpt><trkpt lat="43.8366999484161" lon="11.755544959753946"><ele>870.5</ele><time>2026-04-05T16:25:42Z</time></trkpt><trkpt lat="43.83670046610387" lon="11.755739923117394"><ele>869.25</ele><time>2026-04-05T16:25:43Z</time></trkpt><trkpt lat="43.836696254698445" lon="11.755928309518653"><ele>868.0</ele><time>2026-04-05T16:25:44Z</time></trkpt><trkpt lat="43.83669404551931" lon="11.756095054706021"><ele>864.25</ele><time>2026-04-05T16:25:45Z</time></trkpt><trkpt lat="43.8367110640573" lon="11.756247751008216"><ele>860.5</ele><time>2026-04-05T16:25:46Z</time></trkpt><trkpt lat="43.83675275388346" lon="11.756381672821897"><ele>856.75</ele><time>2026-04-05T16:25:47Z</time></trkpt><trkpt lat="43.83686164841943" lon="11.75646596121472"><ele>853.0</ele><time>2026-04-05T16:25:48Z</time></trkpt><trkpt lat="43.83696929013492" lon="11.756529524486169"><ele>857.5</ele><time>2026-04-05T16:25:49Z</time></trkpt><trkpt lat="43.83704982499887" lon="11.756641135981923"><ele>862.0</ele><time>2026-04-05T16:25:50Z</time></trkpt><trkpt lat="43.83711303056294" lon="11.756780277633151"><ele>866.5</ele><time>2026-04-05T16:25:51Z</time></trkpt><trkpt lat="43.837170415246106" lon="11.75694777155072"><ele>871.0</ele><time>2026-04-05T16:25:52Z</time></trkpt><trkpt lat="43.83723066939574" lon="11.757127382004942"><ele>871.0</ele><time>2026-04-05T16:25:53Z</time></trkpt><trkpt lat="43.83730490472882" lon="11.757302063083596"><ele>871.0</ele><time>2026-04-05T16:25:54Z</time></trkpt><trkpt lat="43.837400636444855" lon="11.757457899655781"><ele>871.0</ele><time>2026-04-05T16:25:55Z</time></trkpt><trkpt lat="43.83746592658927" lon="11.757643972713566"><ele>871.0</ele><time>2026-04-05T16:25:56Z</time></trkpt><trkpt lat="43.83746081330291" lon="11.75785063315004"><ele>868.25</ele><time>2026-04-05T16:25:57Z</time></trkpt><trkpt lat="43.83750121088669" lon="11.75803720996195"><ele>865.5</ele><time>2026-04-05T16:25:58Z</time></trkpt><trkpt lat="43.83755229281348" lon="11.758201926583402"><ele>862.75</ele><time>2026-04-05T16:25:59Z</time></trkpt><trkpt lat="43.83755525648398" lon="11.758374916815695"><ele>860.0</ele><time>2026-04-05T16:26:00Z</time></trkpt><trkpt lat="43.8375096937405" lon="11.758554150749912"><ele>859.25</ele><time>2026-04-05T16:26:01Z</time></trkpt><trkpt lat="43.83749424498349" lon="11.758730314575"><ele>858.5</ele><time>2026-04-05T16:26:02Z</time></trkpt><trkpt lat="43.837455216928646" lon="11.758901283287594"><ele>857.75</ele><time>2026-04-05T16:26:03Z</time></trkpt><trkpt lat="43.8374278996739" lon="11.75904461332188"><ele>857.0</ele><time>2026-04-05T16:26:04Z</time></trkpt><trkpt lat="43.83740946748805" lon="11.759181914766238"><ele>857.0</ele><time>2026-04-05T16:26:05Z</time></trkpt><trkpt lat="43.83741030749751" lon="11.75931907996181"><ele>857.0</ele><time>2026-04-05T16:26:06Z</time></trkpt><trkpt lat="43.8374160358068" lon="11.759456496050875"><ele>857.0</ele><time>2026-04-05T16:26:07Z</time></trkpt><trkpt lat="43.83747357531716" lon="11.759605265587595"><ele>857.0</ele><time>2026-04-05T16:26:08Z</time></trkpt><trkpt lat="43.837560130293646" lon="11.759715249247472"><ele>857.0</ele><time>2026-04-05T16:26:09Z</time></trkpt><trkpt lat="43.83762356915746" lon="11.759838332442646"><ele>858.8</ele><time>2026-04-05T16:26:10Z</time></trkpt><trkpt lat="43.83767344696792" lon="11.759970956465361"><ele>860.6</ele><time>2026-04-05T16:26:11Z</time></trkpt><trkpt lat="43.83768621655273" lon="11.760123655174066"><ele>862.3999999999999</ele><time>2026-04-05T16:26:11.999Z</time></trkpt><trkpt lat="43.837649315599045" lon="11.760280416788424"><ele>864.1999999999999</ele><time>2026-04-05T16:26:12.999Z</time></trkpt><trkpt lat="43.83763025664918" lon="11.760431325147307"><ele>866.0</ele><time>2026-04-05T16:26:13.999Z</time></trkpt><trkpt lat="43.837580375532426" lon="11.760572743791819"><ele>866.0</ele><time>2026-04-05T16:26:14.999Z</time></trkpt><trkpt lat="43.83749851579727" lon="11.760679117250069"><ele>866.0</ele><time>2026-04-05T16:26:15.999Z</time></trkpt><trkpt lat="43.837386746105025" lon="11.760725436412654"><ele>866.0</ele><time>2026-04-05T16:26:16.999Z</time></trkpt><trkpt lat="43.83726719452404" lon="11.760713034728074"><ele>866.0</ele><time>2026-04-05T16:26:17.999Z</time></trkpt><trkpt lat="43.83717619281554" lon="11.760605358012016"><ele>866.0</ele><time>2026-04-05T16:26:18.999Z</time></trkpt><trkpt lat="43.83708913599563" lon="11.760461813052375"><ele>866.0</ele><time>2026-04-05T16:26:19.999Z</time></trkpt><trkpt lat="43.837001902385964" lon="11.760350177664684"><ele>866.0</ele><time>2026-04-05T16:26:20.999Z</time></trkpt><trkpt lat="43.83690866499904" lon="11.760203684530833"><ele>866.0</ele><time>2026-04-05T16:26:21.999Z</time></trkpt><trkpt lat="43.83681703130333" lon="11.76005743312297"><ele>865.75</ele><time>2026-04-05T16:26:22.999Z</time></trkpt><trkpt lat="43.83672247582207" lon="11.75992657898999"><ele>865.5</ele><time>2026-04-05T16:26:23.999Z</time></trkpt><trkpt lat="43.83661596561273" lon="11.759779131687774"><ele>865.25</ele><time>2026-04-05T16:26:24.999Z</time></trkpt><trkpt lat="43.83650792791115" lon="11.759623590329662"><ele>865.0</ele><time>2026-04-05T16:26:25.999Z</time></trkpt><trkpt lat="43.836408910000834" lon="11.75945108119686"><ele>859.6666666666666</ele><time>2026-04-05T16:26:26.999Z</time></trkpt><trkpt lat="43.8363678680193" lon="11.75923804467171"><ele>854.3333333333333</ele><time>2026-04-05T16:26:27.999Z</time></trkpt><trkpt lat="43.83633853675076" lon="11.759032745348803"><ele>849.0</ele><time>2026-04-05T16:26:28.999Z</time></trkpt><trkpt lat="43.83632985840961" lon="11.758822753758274"><ele>849.0</ele><time>2026-04-05T16:26:29.999Z</time></trkpt><trkpt lat="43.8363347759748" lon="11.758615307665387"><ele>849.0</ele><time>2026-04-05T16:26:30.999Z</time></trkpt><trkpt lat="43.836348921928455" lon="11.758435453449904"><ele>849.0</ele><time>2026-04-05T16:26:31.999Z</time></trkpt><trkpt lat="43.83633006634377" lon="11.758274345661485"><ele>849.0</ele><time>2026-04-05T16:26:32.999Z</time></trkpt><trkpt lat="43.836249375221044" lon="11.758143893270123"><ele>850.5</ele><time>2026-04-05T16:26:33.999Z</time></trkpt><trkpt lat="43.83613628515226" lon="11.758055720288189"><ele>852.0</ele><time>2026-04-05T16:26:34.999Z</time></trkpt><trkpt lat="43.83600069340401" lon="11.758008505464925"><ele>853.5</ele><time>2026-04-05T16:26:35.999Z</time></trkpt><trkpt lat="43.835853617298866" lon="11.757989127737678"><ele>855.0</ele><time>2026-04-05T16:26:36.999Z</time></trkpt><trkpt lat="43.83573503875083" lon="11.757932786723268"><ele>855.0</ele><time>2026-04-05T16:26:37.999Z</time></trkpt><trkpt lat="43.83560340776411" lon="11.757951117986435"><ele>855.0</ele><time>2026-04-05T16:26:38.999Z</time></trkpt><trkpt lat="43.83549020213099" lon="11.757977426532529"><ele>855.0</ele><time>2026-04-05T16:26:39.999Z</time></trkpt><trkpt lat="43.83538301622979" lon="11.758032457138956"><ele>855.0</ele><time>2026-04-05T16:26:40.999Z</time></trkpt><trkpt lat="43.835271781476216" lon="11.758041098278413"><ele>855.0</ele><time>2026-04-05T16:26:41.999Z</time></trkpt><trkpt lat="43.835161071420785" lon="11.758029278093925"><ele>855.0</ele><time>2026-04-05T16:26:42.999Z</time></trkpt><trkpt lat="43.83506167674796" lon="11.7579301733708"><ele>855.0</ele><time>2026-04-05T16:26:43.999Z</time></trkpt><trkpt lat="43.83498638164137" lon="11.757773172435614"><ele>855.0</ele><time>2026-04-05T16:26:44.999Z</time></trkpt><trkpt lat="43.83494003075652" lon="11.75759983066059"><ele>851.25</ele><time>2026-04-05T16:26:45.999Z</time></trkpt><trkpt lat="43.83491863544872" lon="11.757412138468432"><ele>847.5</ele><time>2026-04-05T16:26:46.999Z</time></trkpt><trkpt lat="43.83491085655483" lon="11.757210427133657"><ele>843.75</ele><time>2026-04-05T16:26:47.999Z</time></trkpt><trkpt lat="43.83489071997989" lon="11.757020308397047"><ele>840.0</ele><time>2026-04-05T16:26:48.999Z</time></trkpt><trkpt lat="43.83484684859939" lon="11.75685013073483"><ele>835.5</ele><time>2026-04-05T16:26:49.999Z</time></trkpt><trkpt lat="43.83478282701483" lon="11.756679304777466"><ele>831.0</ele><time>2026-04-05T16:26:50.999Z</time></trkpt><trkpt lat="43.834699745240286" lon="11.756518308254982"><ele>826.5</ele><time>2026-04-05T16:26:51.999Z</time></trkpt><trkpt lat="43.83458285275856" lon="11.756376261280408"><ele>822.0</ele><time>2026-04-05T16:26:52.999Z</time></trkpt><trkpt lat="43.83447907624405" lon="11.756235243170057"><ele>822.0</ele><time>2026-04-05T16:26:54Z</time></trkpt><trkpt lat="43.834391625574646" lon="11.756086840092374"><ele>822.0</ele><time>2026-04-05T16:26:55Z</time></trkpt><trkpt lat="43.83435349567324" lon="11.755916505037872"><ele>822.0</ele><time>2026-04-05T16:26:56Z</time></trkpt><trkpt lat="43.83433052486997" lon="11.755731234196341"><ele>822.0</ele><time>2026-04-05T16:26:57Z</time></trkpt><trkpt lat="43.83435802675658" lon="11.755539806415777"><ele>823.5</ele><time>2026-04-05T16:26:58Z</time></trkpt><trkpt lat="43.834353540882624" lon="11.755354522941628"><ele>825.0</ele><time>2026-04-05T16:26:59Z</time></trkpt><trkpt lat="43.834308004972804" lon="11.75520761502463"><ele>826.5</ele><time>2026-04-05T16:27:00Z</time></trkpt><trkpt lat="43.834206330999045" lon="11.755097106282683"><ele>828.0</ele><time>2026-04-05T16:27:01Z</time></trkpt><trkpt lat="43.8340884675931" lon="11.75501088408391"><ele>828.0</ele><time>2026-04-05T16:27:02Z</time></trkpt><trkpt lat="43.833982344175524" lon="11.754926273203603"><ele>828.0</ele><time>2026-04-05T16:27:03Z</time></trkpt><trkpt lat="43.83391498891837" lon="11.754792293393017"><ele>828.0</ele><time>2026-04-05T16:27:04Z</time></trkpt><trkpt lat="43.833869024665184" lon="11.754632895479519"><ele>828.0</ele><time>2026-04-05T16:27:05Z</time></trkpt><trkpt lat="43.833850296641494" lon="11.754468948214322"><ele>821.5</ele><time>2026-04-05T16:27:06Z</time></trkpt><trkpt lat="43.833863413002135" lon="11.754300199812917"><ele>815.0</ele><time>2026-04-05T16:27:07Z</time></trkpt><trkpt lat="43.83389293393703" lon="11.754155242301312"><ele>808.5</ele><time>2026-04-05T16:27:08Z</time></trkpt><trkpt lat="43.83390910749484" lon="11.753968825584668"><ele>802.0</ele><time>2026-04-05T16:27:09Z</time></trkpt><trkpt lat="43.83393815140613" lon="11.75379052373437"><ele>802.0</ele><time>2026-04-05T16:27:10Z</time></trkpt><trkpt lat="43.833948517539866" lon="11.753638821780033"><ele>802.0</ele><time>2026-04-05T16:27:11Z</time></trkpt><trkpt lat="43.833912052374075" lon="11.753505807385306"><ele>802.0</ele><time>2026-04-05T16:27:12Z</time></trkpt><trkpt lat="43.833838656461" lon="11.753388080700038"><ele>802.0</ele><time>2026-04-05T16:27:13Z</time></trkpt><trkpt lat="43.83376126916447" lon="11.753280916232576"><ele>802.0</ele><time>2026-04-05T16:27:14Z</time></trkpt><trkpt lat="43.83366232229771" lon="11.753165192703753"><ele>797.0</ele><time>2026-04-05T16:27:15Z</time></trkpt><trkpt lat="43.83355479335856" lon="11.753062411684573"><ele>792.0</ele><time>2026-04-05T16:27:16Z</time></trkpt><trkpt lat="43.83343514605852" lon="11.752976050507966"><ele>787.0</ele><time>2026-04-05T16:27:17Z</time></trkpt><trkpt lat="43.833315972864334" lon="11.752898984597312"><ele>782.0</ele><time>2026-04-05T16:27:18Z</time></trkpt><trkpt lat="43.83321597089399" lon="11.752815597427295"><ele>786.25</ele><time>2026-04-05T16:27:19Z</time></trkpt><trkpt lat="43.833130963376554" lon="11.752692701545074"><ele>790.5</ele><time>2026-04-05T16:27:20Z</time></trkpt><trkpt lat="43.83309346431384" lon="11.752535166460884"><ele>794.75</ele><time>2026-04-05T16:27:21Z</time></trkpt><trkpt lat="43.833080806942434" lon="11.752376507911832"><ele>799.0</ele><time>2026-04-05T16:27:22Z</time></trkpt><trkpt lat="43.833096521341666" lon="11.752218650916486"><ele>799.0</ele><time>2026-04-05T16:27:23Z</time></trkpt><trkpt lat="43.833073095647656" lon="11.752056312643681"><ele>799.0</ele><time>2026-04-05T16:27:24Z</time></trkpt><trkpt lat="43.833045914697124" lon="11.751906847594682"><ele>799.0</ele><time>2026-04-05T16:27:25Z</time></trkpt><trkpt lat="43.83297807647225" lon="11.751775892244199"><ele>799.0</ele><time>2026-04-05T16:27:26Z</time></trkpt><trkpt lat="43.83290981118535" lon="11.751634229978231"><ele>792.75</ele><time>2026-04-05T16:27:27Z</time></trkpt><trkpt lat="43.83285845980416" lon="11.751473461467333"><ele>786.5</ele><time>2026-04-05T16:27:28Z</time></trkpt><trkpt lat="43.83280467193558" lon="11.751304295092432"><ele>780.25</ele><time>2026-04-05T16:27:29Z</time></trkpt><trkpt lat="43.83274174300037" lon="11.751145801283847"><ele>774.0</ele><time>2026-04-05T16:27:30Z</time></trkpt><trkpt lat="43.83265421311943" lon="11.751005702813783"><ele>783.75</ele><time>2026-04-05T16:27:31Z</time></trkpt><trkpt lat="43.83257915997895" lon="11.750866724612925"><ele>793.5</ele><time>2026-04-05T16:27:32Z</time></trkpt><trkpt lat="43.83252950715504" lon="11.750705313315768"><ele>803.25</ele><time>2026-04-05T16:27:33Z</time></trkpt><trkpt lat="43.832575256997146" lon="11.750508444024032"><ele>813.0</ele><time>2026-04-05T16:27:34Z</time></trkpt><trkpt lat="43.83260594003597" lon="11.75030315395161"><ele>806.3333333333333</ele><time>2026-04-05T16:27:35Z</time></trkpt><trkpt lat="43.83263271435715" lon="11.750091229789943"><ele>799.6666666666666</ele><time>2026-04-05T16:27:36Z</time></trkpt><trkpt lat="43.83265381442153" lon="11.74988292970635"><ele>793.0</ele><time>2026-04-05T16:27:37Z</time></trkpt><trkpt lat="43.832634688584214" lon="11.749672698026119"><ele>793.0</ele><time>2026-04-05T16:27:38Z</time></trkpt><trkpt lat="43.832617622002346" lon="11.749477024815189"><ele>793.0</ele><time>2026-04-05T16:27:39Z</time></trkpt><trkpt lat="43.83260313372454" lon="11.749283011051974"><ele>793.0</ele><time>2026-04-05T16:27:40Z</time></trkpt><trkpt lat="43.83260678678396" lon="11.749096762382853"><ele>793.0</ele><time>2026-04-05T16:27:41Z</time></trkpt><trkpt lat="43.83262901641959" lon="11.748922165517364"><ele>790.0</ele><time>2026-04-05T16:27:42Z</time></trkpt><trkpt lat="43.832629258121145" lon="11.748765798562388"><ele>787.0</ele><time>2026-04-05T16:27:43Z</time></trkpt><trkpt lat="43.83258078132061" lon="11.748626613623456"><ele>784.0</ele><time>2026-04-05T16:27:44Z</time></trkpt><trkpt lat="43.83248768932178" lon="11.748526474880945"><ele>781.0</ele><time>2026-04-05T16:27:45Z</time></trkpt><trkpt lat="43.83236786485079" lon="11.748485031807906"><ele>781.0</ele><time>2026-04-05T16:27:46Z</time></trkpt><trkpt lat="43.83224874304861" lon="11.748509747812545"><ele>781.0</ele><time>2026-04-05T16:27:47Z</time></trkpt><trkpt lat="43.83214457508112" lon="11.74860082997694"><ele>781.0</ele><time>2026-04-05T16:27:48Z</time></trkpt><trkpt lat="43.83204525233866" lon="11.748727162149764"><ele>781.0</ele><time>2026-04-05T16:27:49Z</time></trkpt><trkpt lat="43.83194334657233" lon="11.748853831683162"><ele>781.0</ele><time>2026-04-05T16:27:50Z</time></trkpt><trkpt lat="43.83184103975477" lon="11.748961697432604"><ele>781.0</ele><time>2026-04-05T16:27:51Z</time></trkpt><trkpt lat="43.8317392660355" lon="11.74903437024965"><ele>781.0</ele><time>2026-04-05T16:27:52Z</time></trkpt><trkpt lat="43.83163046961881" lon="11.749053470105862"><ele>781.0</ele><time>2026-04-05T16:27:53Z</time></trkpt><trkpt lat="43.83152844247915" lon="11.748970381374875"><ele>781.0</ele><time>2026-04-05T16:27:54Z</time></trkpt><trkpt lat="43.83144900467883" lon="11.748893357076009"><ele>781.0</ele><time>2026-04-05T16:27:55Z</time></trkpt><trkpt lat="43.83135171746082" lon="11.74882270778044"><ele>781.0</ele><time>2026-04-05T16:27:56Z</time></trkpt><trkpt lat="43.831244508461566" lon="11.748756353186868"><ele>781.0</ele><time>2026-04-05T16:27:57Z</time></trkpt><trkpt lat="43.83112486791823" lon="11.748675530454006"><ele>781.0</ele><time>2026-04-05T16:27:58Z</time></trkpt><trkpt lat="43.83099191983453" lon="11.748607767822506"><ele>781.0</ele><time>2026-04-05T16:27:58.999Z</time></trkpt><trkpt lat="43.83085288917308" lon="11.748548485933487"><ele>781.0</ele><time>2026-04-05T16:27:59.999Z</time></trkpt><trkpt lat="43.83071944790582" lon="11.748456336144196"><ele>781.0</ele><time>2026-04-05T16:28:00.999Z</time></trkpt><trkpt lat="43.83062081455475" lon="11.74829630252223"><ele>774.3333333333333</ele><time>2026-04-05T16:28:01.999Z</time></trkpt><trkpt lat="43.83050020625368" lon="11.748148422578025"><ele>767.6666666666666</ele><time>2026-04-05T16:28:02.999Z</time></trkpt><trkpt lat="43.83039089156528" lon="11.747983071576177"><ele>761.0</ele><time>2026-04-05T16:28:03.999Z</time></trkpt><trkpt lat="43.83027935034152" lon="11.74782958777794"><ele>762.0</ele><time>2026-04-05T16:28:04.999Z</time></trkpt><trkpt lat="43.83017455435455" lon="11.747671936339076"><ele>763.0</ele><time>2026-04-05T16:28:05.999Z</time></trkpt><trkpt lat="43.83009611364932" lon="11.747484330059608"><ele>764.0</ele><time>2026-04-05T16:28:06.999Z</time></trkpt><trkpt lat="43.83000769634465" lon="11.747323881084847"><ele>764.0</ele><time>2026-04-05T16:28:07.999Z</time></trkpt><trkpt lat="43.82992459350592" lon="11.747190280403057"><ele>764.0</ele><time>2026-04-05T16:28:08.999Z</time></trkpt><trkpt lat="43.82985142364044" lon="11.747065022345426"><ele>764.0</ele><time>2026-04-05T16:28:09.999Z</time></trkpt><trkpt lat="43.82978745110127" lon="11.746951883294306"><ele>764.0</ele><time>2026-04-05T16:28:10.999Z</time></trkpt><trkpt lat="43.82955869261533" lon="11.7470000939975"><ele>764.0</ele><time>2026-04-05T16:28:11.999Z</time></trkpt><trkpt lat="43.82942025326247" lon="11.74694744572693"><ele>764.0</ele><time>2026-04-05T16:28:12.999Z</time></trkpt><trkpt lat="43.82928485139656" lon="11.74687118406809"><ele>764.0</ele><time>2026-04-05T16:28:13.999Z</time></trkpt><trkpt lat="43.82915178805031" lon="11.7467789783085"><ele>764.0</ele><time>2026-04-05T16:28:14.999Z</time></trkpt><trkpt lat="43.82902559465874" lon="11.746663343239378"><ele>760.25</ele><time>2026-04-05T16:28:15.999Z</time></trkpt><trkpt lat="43.82891173514804" lon="11.746544128782354"><ele>756.5</ele><time>2026-04-05T16:28:16.999Z</time></trkpt><trkpt lat="43.82879785113416" lon="11.746435194847262"><ele>752.75</ele><time>2026-04-05T16:28:17.999Z</time></trkpt><trkpt lat="43.828671992738826" lon="11.746355096764766"><ele>749.0</ele><time>2026-04-05T16:28:18.999Z</time></trkpt><trkpt lat="43.82852025590401" lon="11.746325645670714"><ele>754.25</ele><time>2026-04-05T16:28:19.999Z</time></trkpt><trkpt lat="43.828378358948186" lon="11.746286553429444"><ele>759.5</ele><time>2026-04-05T16:28:20.999Z</time></trkpt><trkpt lat="43.82822953434264" lon="11.746255248721091"><ele>764.75</ele><time>2026-04-05T16:28:21.999Z</time></trkpt><trkpt lat="43.82809467019593" lon="11.746194555420844"><ele>770.0</ele><time>2026-04-05T16:28:22.999Z</time></trkpt><trkpt lat="43.82797397794482" lon="11.746080757033896"><ele>764.0</ele><time>2026-04-05T16:28:23.999Z</time></trkpt><trkpt lat="43.827866877305254" lon="11.745923010488658"><ele>758.0</ele><time>2026-04-05T16:28:24.999Z</time></trkpt><trkpt lat="43.82775095369563" lon="11.745765803252985"><ele>752.0</ele><time>2026-04-05T16:28:25.999Z</time></trkpt><trkpt lat="43.8276249841275" lon="11.74561417652231"><ele>752.0</ele><time>2026-04-05T16:28:26.999Z</time></trkpt><trkpt lat="43.827505909314446" lon="11.74546625168829"><ele>752.0</ele><time>2026-04-05T16:28:27.999Z</time></trkpt><trkpt lat="43.82739148708565" lon="11.74532899683519"><ele>752.0</ele><time>2026-04-05T16:28:28.999Z</time></trkpt><trkpt lat="43.82728455644868" lon="11.745196815422295"><ele>744.5</ele><time>2026-04-05T16:28:29.999Z</time></trkpt><trkpt lat="43.82721378907237" lon="11.74503333685102"><ele>737.0</ele><time>2026-04-05T16:28:30.999Z</time></trkpt><trkpt lat="43.82718817001466" lon="11.744843805585344"><ele>729.5</ele><time>2026-04-05T16:28:31.999Z</time></trkpt><trkpt lat="43.82719705383988" lon="11.744647039683036"><ele>722.0</ele><time>2026-04-05T16:28:32.999Z</time></trkpt><trkpt lat="43.82720624081427" lon="11.74446312455618"><ele>716.5</ele><time>2026-04-05T16:28:33.999Z</time></trkpt><trkpt lat="43.82718197544186" lon="11.744307760662458"><ele>711.0</ele><time>2026-04-05T16:28:34.999Z</time></trkpt><trkpt lat="43.82710941344523" lon="11.744197074752789"><ele>705.5</ele><time>2026-04-05T16:28:35.999Z</time></trkpt><trkpt lat="43.82700612917709" lon="11.74413312268304"><ele>700.0</ele><time>2026-04-05T16:28:36.999Z</time></trkpt><trkpt lat="43.82687973979603" lon="11.744119707147597"><ele>705.0</ele><time>2026-04-05T16:28:37.999Z</time></trkpt><trkpt lat="43.82676573494234" lon="11.744116321729484"><ele>710.0</ele><time>2026-04-05T16:28:38.999Z</time></trkpt><trkpt lat="43.82663532432261" lon="11.744099090659569"><ele>715.0</ele><time>2026-04-05T16:28:39.999Z</time></trkpt><trkpt lat="43.82650549957581" lon="11.74406687396995"><ele>720.0</ele><time>2026-04-05T16:28:40.999Z</time></trkpt><trkpt lat="43.826379442382304" lon="11.744028044542404"><ele>720.0</ele><time>2026-04-05T16:28:41.999Z</time></trkpt><trkpt lat="43.826264834985615" lon="11.744008182014065"><ele>720.0</ele><time>2026-04-05T16:28:42.999Z</time></trkpt><trkpt lat="43.82614955629339" lon="11.744031891662793"><ele>720.0</ele><time>2026-04-05T16:28:43.999Z</time></trkpt><trkpt lat="43.826037818111026" lon="11.744108820864495"><ele>720.0</ele><time>2026-04-05T16:28:44.999Z</time></trkpt><trkpt lat="43.8259254746051" lon="11.74420573226484"><ele>718.5</ele><time>2026-04-05T16:28:45.999Z</time></trkpt><trkpt lat="43.825802800144956" lon="11.74430359683637"><ele>717.0</ele><time>2026-04-05T16:28:46.999Z</time></trkpt><trkpt lat="43.82566665715895" lon="11.744388995379945"><ele>715.5</ele><time>2026-04-05T16:28:47.999Z</time></trkpt><trkpt lat="43.82551798573612" lon="11.744438234817801"><ele>714.0</ele><time>2026-04-05T16:28:48.999Z</time></trkpt><trkpt lat="43.82535528612291" lon="11.744426055684661"><ele>714.0</ele><time>2026-04-05T16:28:49.999Z</time></trkpt><trkpt lat="43.8251846276271" lon="11.74437585651518"><ele>714.0</ele><time>2026-04-05T16:28:50.999Z</time></trkpt><trkpt lat="43.825033045807984" lon="11.744348053058685"><ele>714.0</ele><time>2026-04-05T16:28:51.999Z</time></trkpt><trkpt lat="43.82489085195297" lon="11.744333905381957"><ele>710.6666666666666</ele><time>2026-04-05T16:28:52.999Z</time></trkpt><trkpt lat="43.82475143532639" lon="11.744368469519886"><ele>707.3333333333333</ele><time>2026-04-05T16:28:53.999Z</time></trkpt><trkpt lat="43.82460605551986" lon="11.744456898796221"><ele>704.0</ele><time>2026-04-05T16:28:54.999Z</time></trkpt><trkpt lat="43.824459257391936" lon="11.744548584088104"><ele>710.0</ele><time>2026-04-05T16:28:55.999Z</time></trkpt><trkpt lat="43.824309725909615" lon="11.744617683647846"><ele>716.0</ele><time>2026-04-05T16:28:56.999Z</time></trkpt><trkpt lat="43.82415335568244" lon="11.74465282516958"><ele>722.0</ele><time>2026-04-05T16:28:57.999Z</time></trkpt><trkpt lat="43.82398219330333" lon="11.744671985256586"><ele>722.0</ele><time>2026-04-05T16:28:58.999Z</time></trkpt><trkpt lat="43.823839567883695" lon="11.74464625322009"><ele>722.0</ele><time>2026-04-05T16:29:00Z</time></trkpt><trkpt lat="43.823707089763204" lon="11.744553942962456"><ele>722.0</ele><time>2026-04-05T16:29:01Z</time></trkpt><trkpt lat="43.8236059480667" lon="11.744372803971912"><ele>713.6666666666666</ele><time>2026-04-05T16:29:02Z</time></trkpt><trkpt lat="43.82349537654088" lon="11.744205574672169"><ele>705.3333333333334</ele><time>2026-04-05T16:29:03Z</time></trkpt><trkpt lat="43.82346460964223" lon="11.743982448190605"><ele>697.0</ele><time>2026-04-05T16:29:04Z</time></trkpt><trkpt lat="43.82346795861109" lon="11.743779064528546"><ele>696.75</ele><time>2026-04-05T16:29:05Z</time></trkpt><trkpt lat="43.823456712088316" lon="11.743594363374173"><ele>696.5</ele><time>2026-04-05T16:29:06Z</time></trkpt><trkpt lat="43.82341944465906" lon="11.743433361201177"><ele>696.25</ele><time>2026-04-05T16:29:07Z</time></trkpt><trkpt lat="43.823330937459374" lon="11.743310110801744"><ele>696.0</ele><time>2026-04-05T16:29:08Z</time></trkpt><trkpt lat="43.8232162225916" lon="11.74323292756911"><ele>692.5</ele><time>2026-04-05T16:29:09Z</time></trkpt><trkpt lat="43.823086824013764" lon="11.743192492314435"><ele>689.0</ele><time>2026-04-05T16:29:10Z</time></trkpt><trkpt lat="43.82295141554165" lon="11.743152182013342"><ele>685.5</ele><time>2026-04-05T16:29:11Z</time></trkpt><trkpt lat="43.82280904401289" lon="11.743105477545262"><ele>682.0</ele><time>2026-04-05T16:29:12Z</time></trkpt><trkpt lat="43.82266259678189" lon="11.743047897379926"><ele>684.6666666666667</ele><time>2026-04-05T16:29:13Z</time></trkpt><trkpt lat="43.82250875776323" lon="11.742986989261963"><ele>687.3333333333334</ele><time>2026-04-05T16:29:14Z</time></trkpt><trkpt lat="43.822360726976974" lon="11.742928266977083"><ele>690.0</ele><time>2026-04-05T16:29:15Z</time></trkpt><trkpt lat="43.82221420258329" lon="11.742885700482615"><ele>690.0</ele><time>2026-04-05T16:29:16Z</time></trkpt><trkpt lat="43.82205731010943" lon="11.742875623166212"><ele>690.0</ele><time>2026-04-05T16:29:17Z</time></trkpt><trkpt lat="43.821891086746895" lon="11.742901462239695"><ele>690.0</ele><time>2026-04-05T16:29:18Z</time></trkpt><trkpt lat="43.82172993763547" lon="11.742964534187024"><ele>688.0</ele><time>2026-04-05T16:29:19Z</time></trkpt><trkpt lat="43.821573560934915" lon="11.743049864314736"><ele>686.0</ele><time>2026-04-05T16:29:20Z</time></trkpt><trkpt lat="43.821440215755594" lon="11.743135071292768"><ele>684.0</ele><time>2026-04-05T16:29:21Z</time></trkpt><trkpt lat="43.821309406064906" lon="11.74322083962596"><ele>684.0</ele><time>2026-04-05T16:29:22Z</time></trkpt><trkpt lat="43.82114818369017" lon="11.743264465103266"><ele>684.0</ele><time>2026-04-05T16:29:23Z</time></trkpt><trkpt lat="43.82099207865144" lon="11.74326116780109"><ele>684.0</ele><time>2026-04-05T16:29:24Z</time></trkpt><trkpt lat="43.82083503008511" lon="11.743220885260646"><ele>679.6666666666666</ele><time>2026-04-05T16:29:25Z</time></trkpt><trkpt lat="43.82069509527472" lon="11.74313323164978"><ele>675.3333333333333</ele><time>2026-04-05T16:29:26Z</time></trkpt><trkpt lat="43.82055257998112" lon="11.743023756248778"><ele>671.0</ele><time>2026-04-05T16:29:27Z</time></trkpt><trkpt lat="43.82039760404975" lon="11.742914280407982"><ele>671.0</ele><time>2026-04-05T16:29:28Z</time></trkpt><trkpt lat="43.82025600298122" lon="11.742784089496865"><ele>671.0</ele><time>2026-04-05T16:29:29Z</time></trkpt><trkpt lat="43.820106057533955" lon="11.742697791140069"><ele>671.0</ele><time>2026-04-05T16:29:30Z</time></trkpt><trkpt lat="43.81996361815076" lon="11.742603154058404"><ele>666.3333333333333</ele><time>2026-04-05T16:29:31Z</time></trkpt><trkpt lat="43.819804542558884" lon="11.742519488745213"><ele>661.6666666666666</ele><time>2026-04-05T16:29:32Z</time></trkpt><trkpt lat="43.8196255064926" lon="11.742440546933778"><ele>657.0</ele><time>2026-04-05T16:29:33Z</time></trkpt><trkpt lat="43.81943856413105" lon="11.742318546525642"><ele>660.3333333333334</ele><time>2026-04-05T16:29:34Z</time></trkpt><trkpt lat="43.81924852187084" lon="11.742223284588015"><ele>663.6666666666667</ele><time>2026-04-05T16:29:35Z</time></trkpt><trkpt lat="43.819073790347154" lon="11.742109678448633"><ele>667.0</ele><time>2026-04-05T16:29:36Z</time></trkpt><trkpt lat="43.818906900220014" lon="11.742014089625961"><ele>667.0</ele><time>2026-04-05T16:29:37Z</time></trkpt><trkpt lat="43.81875340578011" lon="11.741926803833305"><ele>667.0</ele><time>2026-04-05T16:29:38Z</time></trkpt><trkpt lat="43.81861417251862" lon="11.74184893125319"><ele>667.0</ele><time>2026-04-05T16:29:39Z</time></trkpt><trkpt lat="43.81846760782239" lon="11.74179920060354"><ele>666.5</ele><time>2026-04-05T16:29:40Z</time></trkpt><trkpt lat="43.81832497132868" lon="11.741798737096605"><ele>666.0</ele><time>2026-04-05T16:29:41Z</time></trkpt><trkpt lat="43.818185114463795" lon="11.741831088379431"><ele>665.5</ele><time>2026-04-05T16:29:42Z</time></trkpt><trkpt lat="43.81805578827183" lon="11.741868597860806"><ele>665.0</ele><time>2026-04-05T16:29:43Z</time></trkpt><trkpt lat="43.81794015838121" lon="11.741883211812137"><ele>660.4</ele><time>2026-04-05T16:29:44Z</time></trkpt><trkpt lat="43.817841326182815" lon="11.741839023128872"><ele>655.8</ele><time>2026-04-05T16:29:45Z</time></trkpt><trkpt lat="43.81777382799851" lon="11.741719174429344"><ele>651.2</ele><time>2026-04-05T16:29:46Z</time></trkpt><trkpt lat="43.817772988034896" lon="11.741565560318453"><ele>646.6</ele><time>2026-04-05T16:29:47Z</time></trkpt><trkpt lat="43.817836598693596" lon="11.741428576811812"><ele>642.0</ele><time>2026-04-05T16:29:48Z</time></trkpt><trkpt lat="43.81795013738793" lon="11.74135078160977"><ele>642.0</ele><time>2026-04-05T16:29:49Z</time></trkpt><trkpt lat="43.81806027694528" lon="11.74142522614926"><ele>642.0</ele><time>2026-04-05T16:29:50Z</time></trkpt><trkpt lat="43.81816851548383" lon="11.741475674984882"><ele>642.0</ele><time>2026-04-05T16:29:51Z</time></trkpt><trkpt lat="43.818294722871094" lon="11.741520955338395"><ele>642.0</ele><time>2026-04-05T16:29:52Z</time></trkpt><trkpt lat="43.81843242535012" lon="11.74156849336132"><ele>640.25</ele><time>2026-04-05T16:29:53Z</time></trkpt><trkpt lat="43.81856935797616" lon="11.74161576560345"><ele>638.5</ele><time>2026-04-05T16:29:54Z</time></trkpt><trkpt lat="43.81870253407376" lon="11.741662743917987"><ele>636.75</ele><time>2026-04-05T16:29:55Z</time></trkpt><trkpt lat="43.81884750687542" lon="11.741715743936302"><ele>635.0</ele><time>2026-04-05T16:29:56Z</time></trkpt><trkpt lat="43.81900128731622" lon="11.741752551020445"><ele>635.0</ele><time>2026-04-05T16:29:57Z</time></trkpt><trkpt lat="43.8191733767613" lon="11.741709907212869"><ele>635.0</ele><time>2026-04-05T16:29:58Z</time></trkpt><trkpt lat="43.819351248240245" lon="11.7416446948328"><ele>635.0</ele><time>2026-04-05T16:29:59Z</time></trkpt><trkpt lat="43.81951408279306" lon="11.741561233822962"><ele>633.3333333333333</ele><time>2026-04-05T16:30:00Z</time></trkpt><trkpt lat="43.819666788641925" lon="11.741549493698448"><ele>631.6666666666666</ele><time>2026-04-05T16:30:00.999Z</time></trkpt><trkpt lat="43.819810923343674" lon="11.741601372936351"><ele>630.0</ele><time>2026-04-05T16:30:01.999Z</time></trkpt><trkpt lat="43.81994906354226" lon="11.741696204382608"><ele>630.0</ele><time>2026-04-05T16:30:02.999Z</time></trkpt><trkpt lat="43.820095648849254" lon="11.741787621724002"><ele>630.0</ele><time>2026-04-05T16:30:03.999Z</time></trkpt><trkpt lat="43.820236168088286" lon="11.741854845042404"><ele>630.0</ele><time>2026-04-05T16:30:04.999Z</time></trkpt><trkpt lat="43.820367687285106" lon="11.741901634305092"><ele>630.0</ele><time>2026-04-05T16:30:05.999Z</time></trkpt><trkpt lat="43.82048562288928" lon="11.741886343832334"><ele>629.6666666666666</ele><time>2026-04-05T16:30:06.999Z</time></trkpt><trkpt lat="43.82061456663967" lon="11.741813047026064"><ele>629.3333333333333</ele><time>2026-04-05T16:30:07.999Z</time></trkpt><trkpt lat="43.820747518975956" lon="11.741693666890951"><ele>629.0</ele><time>2026-04-05T16:30:08.999Z</time></trkpt><trkpt lat="43.82085758815083" lon="11.741473069908757"><ele>629.0</ele><time>2026-04-05T16:30:09.999Z</time></trkpt><trkpt lat="43.82097905117973" lon="11.741313452083698"><ele>629.0</ele><time>2026-04-05T16:30:10.999Z</time></trkpt><trkpt lat="43.821076533605876" lon="11.741174756910516"><ele>629.0</ele><time>2026-04-05T16:30:11.999Z</time></trkpt><trkpt lat="43.821144399468245" lon="11.741063423616692"><ele>629.0</ele><time>2026-04-05T16:30:12.999Z</time></trkpt><trkpt lat="43.82116755312521" lon="11.740949195433927"><ele>628.6</ele><time>2026-04-05T16:30:13.999Z</time></trkpt><trkpt lat="43.82113159076895" lon="11.740844309797081"><ele>628.2</ele><time>2026-04-05T16:30:14.999Z</time></trkpt><trkpt lat="43.821050051497764" lon="11.740744837344263"><ele>627.8000000000001</ele><time>2026-04-05T16:30:15.999Z</time></trkpt><trkpt lat="43.82092205638007" lon="11.740692658282011"><ele>627.4</ele><time>2026-04-05T16:30:16.999Z</time></trkpt><trkpt lat="43.820801031064235" lon="11.74067241734767"><ele>627.0</ele><time>2026-04-05T16:30:17.999Z</time></trkpt><trkpt lat="43.82065715923399" lon="11.740630520712442"><ele>625.0</ele><time>2026-04-05T16:30:18.999Z</time></trkpt><trkpt lat="43.82051727451188" lon="11.740582019843533"><ele>623.0</ele><time>2026-04-05T16:30:19.999Z</time></trkpt><trkpt lat="43.820369733352535" lon="11.740539446022089"><ele>621.0</ele><time>2026-04-05T16:30:20.999Z</time></trkpt><trkpt lat="43.82022690983814" lon="11.740478620144607"><ele>619.0</ele><time>2026-04-05T16:30:21.999Z</time></trkpt><trkpt lat="43.820088948713675" lon="11.74037779965152"><ele>619.0</ele><time>2026-04-05T16:30:22.999Z</time></trkpt><trkpt lat="43.81997298033323" lon="11.740247689924152"><ele>619.0</ele><time>2026-04-05T16:30:23.999Z</time></trkpt><trkpt lat="43.819862020950886" lon="11.740113299194698"><ele>619.0</ele><time>2026-04-05T16:30:24.999Z</time></trkpt><trkpt lat="43.81975022869109" lon="11.739962050620568"><ele>619.0</ele><time>2026-04-05T16:30:25.999Z</time></trkpt><trkpt lat="43.819644414314034" lon="11.739806897695816"><ele>619.0</ele><time>2026-04-05T16:30:26.999Z</time></trkpt><trkpt lat="43.819532002121605" lon="11.739666121633277"><ele>619.0</ele><time>2026-04-05T16:30:27.999Z</time></trkpt><trkpt lat="43.819395863550476" lon="11.73956119232503"><ele>615.5</ele><time>2026-04-05T16:30:28.999Z</time></trkpt><trkpt lat="43.819249315784866" lon="11.739494641418093"><ele>612.0</ele><time>2026-04-05T16:30:29.999Z</time></trkpt><trkpt lat="43.81909982116805" lon="11.739471292657198"><ele>608.5</ele><time>2026-04-05T16:30:30.999Z</time></trkpt><trkpt lat="43.81896858730636" lon="11.739495400903458"><ele>605.0</ele><time>2026-04-05T16:30:31.999Z</time></trkpt><trkpt lat="43.818892445461266" lon="11.739505211706168"><ele>601.5</ele><time>2026-04-05T16:30:32.999Z</time></trkpt><trkpt lat="43.81847542766012" lon="11.739433128668232"><ele>598.0</ele><time>2026-04-05T16:30:34.999Z</time></trkpt><trkpt lat="43.818317630393345" lon="11.739388321202515"><ele>602.75</ele><time>2026-04-05T16:30:35.999Z</time></trkpt><trkpt lat="43.818190731475966" lon="11.739300998797093"><ele>607.5</ele><time>2026-04-05T16:30:36.999Z</time></trkpt><trkpt lat="43.81809968137483" lon="11.73916840759164"><ele>612.25</ele><time>2026-04-05T16:30:37.999Z</time></trkpt><trkpt lat="43.8179957722802" lon="11.73902069318651"><ele>617.0</ele><time>2026-04-05T16:30:38.999Z</time></trkpt><trkpt lat="43.81786976361685" lon="11.738911363291816"><ele>617.0</ele><time>2026-04-05T16:30:39.999Z</time></trkpt><trkpt lat="43.817733497109295" lon="11.738811384486715"><ele>617.0</ele><time>2026-04-05T16:30:40.999Z</time></trkpt><trkpt lat="43.81757788928461" lon="11.73874701269201"><ele>617.0</ele><time>2026-04-05T16:30:41.999Z</time></trkpt><trkpt lat="43.81741287193416" lon="11.738701314023432"><ele>618.5</ele><time>2026-04-05T16:30:42.999Z</time></trkpt><trkpt lat="43.81726096011892" lon="11.738660849570719"><ele>620.0</ele><time>2026-04-05T16:30:43.999Z</time></trkpt><trkpt lat="43.81713064868205" lon="11.738624953995853"><ele>621.5</ele><time>2026-04-05T16:30:44.999Z</time></trkpt><trkpt lat="43.817024083997964" lon="11.73859658298869"><ele>623.0</ele><time>2026-04-05T16:30:45.999Z</time></trkpt><trkpt lat="43.81694773010461" lon="11.738528240392817"><ele>623.0</ele><time>2026-04-05T16:30:46.999Z</time></trkpt><trkpt lat="43.81689963257885" lon="11.738408289568602"><ele>623.0</ele><time>2026-04-05T16:30:47.999Z</time></trkpt><trkpt lat="43.816938848762824" lon="11.738255986143564"><ele>623.0</ele><time>2026-04-05T16:30:48.999Z</time></trkpt><trkpt lat="43.8169832018276" lon="11.738105588847704"><ele>623.0</ele><time>2026-04-05T16:30:49.999Z</time></trkpt><trkpt lat="43.817022486329805" lon="11.737927875449206"><ele>623.0</ele><time>2026-04-05T16:30:50.999Z</time></trkpt><trkpt lat="43.817049898068724" lon="11.7377200249684"><ele>623.0</ele><time>2026-04-05T16:30:51.999Z</time></trkpt><trkpt lat="43.81700740305372" lon="11.737506118331165"><ele>623.0</ele><time>2026-04-05T16:30:52.999Z</time></trkpt><trkpt lat="43.816985329886556" lon="11.737286865881256"><ele>624.0</ele><time>2026-04-05T16:30:53.999Z</time></trkpt><trkpt lat="43.8169642552447" lon="11.737060942668327"><ele>625.0</ele><time>2026-04-05T16:30:54.999Z</time></trkpt><trkpt lat="43.81699636466563" lon="11.7368207433829"><ele>626.0</ele><time>2026-04-05T16:30:55.999Z</time></trkpt><trkpt lat="43.81700857035182" lon="11.736563936985934"><ele>622.3333333333333</ele><time>2026-04-05T16:30:56.999Z</time></trkpt><trkpt lat="43.817038886526696" lon="11.736316805774415"><ele>618.6666666666666</ele><time>2026-04-05T16:30:57.999Z</time></trkpt><trkpt lat="43.81709427883928" lon="11.736101851914063"><ele>615.0</ele><time>2026-04-05T16:30:58.999Z</time></trkpt><trkpt lat="43.81715023419242" lon="11.73591710354059"><ele>614.25</ele><time>2026-04-05T16:30:59.999Z</time></trkpt><trkpt lat="43.8172015863039" lon="11.73576793236398"><ele>613.5</ele><time>2026-04-05T16:31:00.999Z</time></trkpt><trkpt lat="43.81724077303428" lon="11.73560542222174"><ele>612.75</ele><time>2026-04-05T16:31:01.999Z</time></trkpt><trkpt lat="43.8172441025788" lon="11.735440197977155"><ele>612.0</ele><time>2026-04-05T16:31:02.999Z</time></trkpt><trkpt lat="43.81721787914443" lon="11.735260735270026"><ele>612.3333333333334</ele><time>2026-04-05T16:31:03.999Z</time></trkpt><trkpt lat="43.817169572175445" lon="11.735064812633997"><ele>612.6666666666667</ele><time>2026-04-05T16:31:05Z</time></trkpt><trkpt lat="43.81715159805166" lon="11.734860740656865"><ele>613.0</ele><time>2026-04-05T16:31:06Z</time></trkpt><trkpt lat="43.81717904420195" lon="11.734638814442846"><ele>613.0</ele><time>2026-04-05T16:31:07Z</time></trkpt><trkpt lat="43.817231631493875" lon="11.734403740203827"><ele>613.0</ele><time>2026-04-05T16:31:08Z</time></trkpt><trkpt lat="43.8172905456395" lon="11.73416860897216"><ele>613.0</ele><time>2026-04-05T16:31:09Z</time></trkpt><trkpt lat="43.81735285572614" lon="11.733946132642963"><ele>611.0</ele><time>2026-04-05T16:31:10Z</time></trkpt><trkpt lat="43.81740088813671" lon="11.733722449882617"><ele>609.0</ele><time>2026-04-05T16:31:11Z</time></trkpt><trkpt lat="43.81740822327123" lon="11.733457667783455"><ele>607.0</ele><time>2026-04-05T16:31:12Z</time></trkpt><trkpt lat="43.817376953072255" lon="11.733171955139422"><ele>604.0</ele><time>2026-04-05T16:31:13Z</time></trkpt><trkpt lat="43.81734395431362" lon="11.732865184039987"><ele>601.0</ele><time>2026-04-05T16:31:14Z</time></trkpt><trkpt lat="43.81731943293816" lon="11.732578768255744"><ele>598.0</ele><time>2026-04-05T16:31:15Z</time></trkpt><trkpt lat="43.81731373257064" lon="11.732316190885976"><ele>597.6666666666667</ele><time>2026-04-05T16:31:16Z</time></trkpt><trkpt lat="43.81733162223678" lon="11.732084834054193"><ele>597.3333333333334</ele><time>2026-04-05T16:31:17Z</time></trkpt><trkpt lat="43.81732865408315" lon="11.731864526050423"><ele>597.0</ele><time>2026-04-05T16:31:18Z</time></trkpt><trkpt lat="43.81728571025116" lon="11.731644736886077"><ele>596.6666666666666</ele><time>2026-04-05T16:31:19Z</time></trkpt><trkpt lat="43.81724799205775" lon="11.731414190217947"><ele>596.3333333333333</ele><time>2026-04-05T16:31:20Z</time></trkpt><trkpt lat="43.81721955923489" lon="11.731177229840853"><ele>596.0</ele><time>2026-04-05T16:31:21Z</time></trkpt><trkpt lat="43.81718230767744" lon="11.73095703657955"><ele>597.0</ele><time>2026-04-05T16:31:22Z</time></trkpt><trkpt lat="43.81711220927917" lon="11.7307429367497"><ele>598.0</ele><time>2026-04-05T16:31:23Z</time></trkpt><trkpt lat="43.8170123309402" lon="11.730541527150121"><ele>599.0</ele><time>2026-04-05T16:31:24Z</time></trkpt><trkpt lat="43.81688034794655" lon="11.730356317596295"><ele>590.0</ele><time>2026-04-05T16:31:25Z</time></trkpt><trkpt lat="43.81674205077385" lon="11.730166271986612"><ele>581.0</ele><time>2026-04-05T16:31:26Z</time></trkpt><trkpt lat="43.81660988863395" lon="11.729939408205793"><ele>572.0</ele><time>2026-04-05T16:31:27Z</time></trkpt><trkpt lat="43.816500956497414" lon="11.729673698142104"><ele>577.0</ele><time>2026-04-05T16:31:28Z</time></trkpt><trkpt lat="43.816400884642476" lon="11.72937984606345"><ele>582.0</ele><time>2026-04-05T16:31:29Z</time></trkpt><trkpt lat="43.81629257816565" lon="11.729061180720837"><ele>582.0</ele><time>2026-04-05T16:31:30Z</time></trkpt><trkpt lat="43.81617444660406" lon="11.728686829984687"><ele>582.0</ele><time>2026-04-05T16:31:31Z</time></trkpt><trkpt lat="43.8160788266627" lon="11.72836684105515"><ele>584.6666666666666</ele><time>2026-04-05T16:31:32Z</time></trkpt><trkpt lat="43.81601606596226" lon="11.728173466611512"><ele>587.3333333333333</ele><time>2026-04-05T16:31:33Z</time></trkpt><trkpt lat="43.815943110846256" lon="11.727927500085743"><ele>590.0</ele><time>2026-04-05T16:31:34Z</time></trkpt><trkpt lat="43.81587296419423" lon="11.727703240187417"><ele>582.0</ele><time>2026-04-05T16:31:35Z</time></trkpt><trkpt lat="43.81581226627984" lon="11.727492229524417"><ele>574.0</ele><time>2026-04-05T16:31:36Z</time></trkpt><trkpt lat="43.81578609520024" lon="11.727278449238792"><ele>566.0</ele><time>2026-04-05T16:31:36.999Z</time></trkpt><trkpt lat="43.815787766048516" lon="11.727067910904367"><ele>565.25</ele><time>2026-04-05T16:31:37.999Z</time></trkpt><trkpt lat="43.81576754129587" lon="11.72688430108569"><ele>564.5</ele><time>2026-04-05T16:31:38.999Z</time></trkpt><trkpt lat="43.81569925578903" lon="11.726715273991413"><ele>563.75</ele><time>2026-04-05T16:31:39.999Z</time></trkpt><trkpt lat="43.81558955891033" lon="11.726584673250908"><ele>563.0</ele><time>2026-04-05T16:31:40.999Z</time></trkpt><trkpt lat="43.81546106949603" lon="11.726493885832722"><ele>563.0</ele><time>2026-04-05T16:31:41.999Z</time></trkpt><trkpt lat="43.81535134783113" lon="11.726393988938273"><ele>563.0</ele><time>2026-04-05T16:31:42.999Z</time></trkpt><trkpt lat="43.81527718362065" lon="11.726245707066262"><ele>563.0</ele><time>2026-04-05T16:31:43.999Z</time></trkpt><trkpt lat="43.81526111587746" lon="11.72605493240094"><ele>563.0</ele><time>2026-04-05T16:31:44.999Z</time></trkpt><trkpt lat="43.815310913641575" lon="11.72587333194689"><ele>563.75</ele><time>2026-04-05T16:31:45.999Z</time></trkpt><trkpt lat="43.815358665483096" lon="11.725694323428053"><ele>564.5</ele><time>2026-04-05T16:31:46.999Z</time></trkpt><trkpt lat="43.81540791868812" lon="11.72551620123336"><ele>565.25</ele><time>2026-04-05T16:31:47.999Z</time></trkpt><trkpt lat="43.81540814370247" lon="11.725315574903007"><ele>566.0</ele><time>2026-04-05T16:31:48.999Z</time></trkpt><trkpt lat="43.81536310875219" lon="11.725100853036558"><ele>568.6666666666666</ele><time>2026-04-05T16:31:49.999Z</time></trkpt><trkpt lat="43.81528392450966" lon="11.724891358332302"><ele>571.3333333333334</ele><time>2026-04-05T16:31:50.999Z</time></trkpt><trkpt lat="43.81519227800752" lon="11.724683540972228"><ele>574.0</ele><time>2026-04-05T16:31:51.999Z</time></trkpt><trkpt lat="43.81508137619916" lon="11.724471700333133"><ele>566.3333333333334</ele><time>2026-04-05T16:31:52.999Z</time></trkpt><trkpt lat="43.81497153915214" lon="11.724248378109868"><ele>558.6666666666666</ele><time>2026-04-05T16:31:53.999Z</time></trkpt><trkpt lat="43.81485871107579" lon="11.724014753031701"><ele>551.0</ele><time>2026-04-05T16:31:54.999Z</time></trkpt><trkpt lat="43.814747074793345" lon="11.723802042933164"><ele>551.0</ele><time>2026-04-05T16:31:55.999Z</time></trkpt><trkpt lat="43.814646226810076" lon="11.723682629784248"><ele>551.0</ele><time>2026-04-05T16:31:56.999Z</time></trkpt><trkpt lat="43.81453943856317" lon="11.723559806734318"><ele>551.0</ele><time>2026-04-05T16:31:57.999Z</time></trkpt><trkpt lat="43.81445283385214" lon="11.723398621300857"><ele>551.0</ele><time>2026-04-05T16:31:58.999Z</time></trkpt><trkpt lat="43.81441566986418" lon="11.723213569603963"><ele>551.6666666666666</ele><time>2026-04-05T16:31:59.999Z</time></trkpt><trkpt lat="43.81444886434222" lon="11.723002184638712"><ele>552.3333333333334</ele><time>2026-04-05T16:32:00.999Z</time></trkpt><trkpt lat="43.81444431545742" lon="11.722768750031108"><ele>553.0</ele><time>2026-04-05T16:32:01.999Z</time></trkpt><trkpt lat="43.81443219899486" lon="11.722536274880138"><ele>548.3333333333334</ele><time>2026-04-05T16:32:02.999Z</time></trkpt><trkpt lat="43.81438254765007" lon="11.722300199116491"><ele>543.6666666666666</ele><time>2026-04-05T16:32:03.999Z</time></trkpt><trkpt lat="43.81432372313379" lon="11.722063772429117"><ele>539.0</ele><time>2026-04-05T16:32:04.999Z</time></trkpt><trkpt lat="43.81427305847145" lon="11.721841357328785"><ele>535.0</ele><time>2026-04-05T16:32:05.999Z</time></trkpt><trkpt lat="43.81422231740045" lon="11.721634907886145"><ele>531.0</ele><time>2026-04-05T16:32:06.999Z</time></trkpt><trkpt lat="43.81415245525123" lon="11.721450424551675"><ele>527.0</ele><time>2026-04-05T16:32:07.999Z</time></trkpt><trkpt lat="43.81405079939193" lon="11.721293429986872"><ele>527.0</ele><time>2026-04-05T16:32:08.999Z</time></trkpt><trkpt lat="43.81391329701946" lon="11.721167677295982"><ele>527.0</ele><time>2026-04-05T16:32:09.999Z</time></trkpt><trkpt lat="43.8137707440945" lon="11.721076724964043"><ele>527.0</ele><time>2026-04-05T16:32:10.999Z</time></trkpt><trkpt lat="43.81365187322461" lon="11.72097465653882"><ele>530.0</ele><time>2026-04-05T16:32:11.999Z</time></trkpt><trkpt lat="43.813568791359124" lon="11.720838469434437"><ele>533.0</ele><time>2026-04-05T16:32:12.999Z</time></trkpt><trkpt lat="43.81351981764757" lon="11.720668828875253"><ele>536.0</ele><time>2026-04-05T16:32:13.999Z</time></trkpt><trkpt lat="43.81350478551996" lon="11.720483868264548"><ele>539.0</ele><time>2026-04-05T16:32:14.999Z</time></trkpt><trkpt lat="43.81351665631018" lon="11.720287368135759"><ele>541.25</ele><time>2026-04-05T16:32:15.999Z</time></trkpt><trkpt lat="43.81353650800807" lon="11.720111793294508"><ele>543.5</ele><time>2026-04-05T16:32:16.999Z</time></trkpt><trkpt lat="43.81355710214307" lon="11.719942437122521"><ele>545.75</ele><time>2026-04-05T16:32:17.999Z</time></trkpt><trkpt lat="43.81358160459296" lon="11.71977372193799"><ele>548.0</ele><time>2026-04-05T16:32:18.999Z</time></trkpt><trkpt lat="43.81362780652834" lon="11.719615385088137"><ele>548.0</ele><time>2026-04-05T16:32:19.999Z</time></trkpt><trkpt lat="43.81369785885732" lon="11.71947703617229"><ele>548.0</ele><time>2026-04-05T16:32:20.999Z</time></trkpt><trkpt lat="43.81377804685662" lon="11.719356696680649"><ele>548.0</ele><time>2026-04-05T16:32:21.999Z</time></trkpt><trkpt lat="43.81386144592126" lon="11.719243690919372"><ele>548.0</ele><time>2026-04-05T16:32:22.999Z</time></trkpt><trkpt lat="43.813956121965056" lon="11.71915131816275"><ele>543.75</ele><time>2026-04-05T16:32:23.999Z</time></trkpt><trkpt lat="43.81403976693307" lon="11.71905177467552"><ele>539.5</ele><time>2026-04-05T16:32:24.999Z</time></trkpt><trkpt lat="43.8141222177708" lon="11.718953652221057"><ele>535.25</ele><time>2026-04-05T16:32:25.999Z</time></trkpt><trkpt lat="43.81414388828961" lon="11.718771679803046"><ele>531.0</ele><time>2026-04-05T16:32:26.999Z</time></trkpt><trkpt lat="43.814189940453815" lon="11.718638121328992"><ele>528.4</ele><time>2026-04-05T16:32:27.999Z</time></trkpt><trkpt lat="43.814233628130616" lon="11.718505070503118"><ele>525.8</ele><time>2026-04-05T16:32:28.999Z</time></trkpt><trkpt lat="43.81427715146504" lon="11.718380461028483"><ele>523.1999999999999</ele><time>2026-04-05T16:32:29.999Z</time></trkpt><trkpt lat="43.81432435659899" lon="11.7182638638838"><ele>520.6</ele><time>2026-04-05T16:32:30.999Z</time></trkpt><trkpt lat="43.81437489228774" lon="11.71815569970195"><ele>518.0</ele><time>2026-04-05T16:32:31.999Z</time></trkpt><trkpt lat="43.81442594525893" lon="11.718040406223318"><ele>522.5</ele><time>2026-04-05T16:32:32.999Z</time></trkpt><trkpt lat="43.81447521150054" lon="11.71790506775966"><ele>527.0</ele><time>2026-04-05T16:32:33.999Z</time></trkpt><trkpt lat="43.81452916098959" lon="11.71775513446679"><ele>531.5</ele><time>2026-04-05T16:32:34.999Z</time></trkpt><trkpt lat="43.814584411698895" lon="11.71759876854677"><ele>536.0</ele><time>2026-04-05T16:32:35.999Z</time></trkpt><trkpt lat="43.81464635571062" lon="11.717437061976534"><ele>536.0</ele><time>2026-04-05T16:32:36.999Z</time></trkpt><trkpt lat="43.81470695441386" lon="11.717270454044757"><ele>536.0</ele><time>2026-04-05T16:32:37.999Z</time></trkpt><trkpt lat="43.81476060573643" lon="11.717101170992573"><ele>536.0</ele><time>2026-04-05T16:32:38.999Z</time></trkpt><trkpt lat="43.814812038302854" lon="11.71693257345073"><ele>536.0</ele><time>2026-04-05T16:32:39.999Z</time></trkpt><trkpt lat="43.814856058526885" lon="11.716764607283316"><ele>533.25</ele><time>2026-04-05T16:32:40.999Z</time></trkpt><trkpt lat="43.81490074343281" lon="11.716593400982807"><ele>530.5</ele><time>2026-04-05T16:32:41.999Z</time></trkpt><trkpt lat="43.81494770332452" lon="11.71642347272335"><ele>527.75</ele><time>2026-04-05T16:32:42.999Z</time></trkpt><trkpt lat="43.81498618433911" lon="11.716269316215472"><ele>525.0</ele><time>2026-04-05T16:32:43.999Z</time></trkpt><trkpt lat="43.815008764154754" lon="11.71612629388536"><ele>524.3333333333334</ele><time>2026-04-05T16:32:44.999Z</time></trkpt><trkpt lat="43.815010140837735" lon="11.715990924369134"><ele>523.6666666666666</ele><time>2026-04-05T16:32:45.999Z</time></trkpt><trkpt lat="43.81498747788107" lon="11.715870757012036"><ele>523.0</ele><time>2026-04-05T16:32:46.999Z</time></trkpt><trkpt lat="43.814952631661505" lon="11.715757600668772"><ele>522.3333333333333</ele><time>2026-04-05T16:32:47.999Z</time></trkpt><trkpt lat="43.81491248704806" lon="11.715653655988927"><ele>521.6666666666666</ele><time>2026-04-05T16:32:48.999Z</time></trkpt><trkpt lat="43.814865174705254" lon="11.715557199400473"><ele>521.0</ele><time>2026-04-05T16:32:49.999Z</time></trkpt><trkpt lat="43.81481835126122" lon="11.71545674221256"><ele>521.0</ele><time>2026-04-05T16:32:50.999Z</time></trkpt><trkpt lat="43.81477300774629" lon="11.71536420751565"><ele>521.0</ele><time>2026-04-05T16:32:51.999Z</time></trkpt><trkpt lat="43.814733460473896" lon="11.715267445748166"><ele>521.0</ele><time>2026-04-05T16:32:52.999Z</time></trkpt><trkpt lat="43.81469108191972" lon="11.715159434364125"><ele>521.0</ele><time>2026-04-05T16:32:53.999Z</time></trkpt><trkpt lat="43.81465176614614" lon="11.715048545577602"><ele>521.0</ele><time>2026-04-05T16:32:54.999Z</time></trkpt><trkpt lat="43.81460033972226" lon="11.714936575329114"><ele>521.0</ele><time>2026-04-05T16:32:55.999Z</time></trkpt><trkpt lat="43.81454585748497" lon="11.714815806262548"><ele>522.0</ele><time>2026-04-05T16:32:56.999Z</time></trkpt><trkpt lat="43.81449037694665" lon="11.714691359805645"><ele>523.0</ele><time>2026-04-05T16:32:57.999Z</time></trkpt><trkpt lat="43.814428943583074" lon="11.71455730707787"><ele>524.0</ele><time>2026-04-05T16:32:58.999Z</time></trkpt><trkpt lat="43.814356918466984" lon="11.714424850883441"><ele>525.0</ele><time>2026-04-05T16:32:59.999Z</time></trkpt><trkpt lat="43.81426394278076" lon="11.714315014364997"><ele>520.5</ele><time>2026-04-05T16:33:00.999Z</time></trkpt><trkpt lat="43.81415135547108" lon="11.71422058984988"><ele>516.0</ele><time>2026-04-05T16:33:01.999Z</time></trkpt><trkpt lat="43.81402529120672" lon="11.714138843475562"><ele>511.5</ele><time>2026-04-05T16:33:02.999Z</time></trkpt><trkpt lat="43.81389883123917" lon="11.714060501852826"><ele>507.0</ele><time>2026-04-05T16:33:03.999Z</time></trkpt><trkpt lat="43.81378005167872" lon="11.713946324951698"><ele>507.0</ele><time>2026-04-05T16:33:04.999Z</time></trkpt><trkpt lat="43.813671118868434" lon="11.713807852938302"><ele>507.0</ele><time>2026-04-05T16:33:05.999Z</time></trkpt><trkpt lat="43.81357229454182" lon="11.713637920252884"><ele>507.0</ele><time>2026-04-05T16:33:06.999Z</time></trkpt><trkpt lat="43.81348713206175" lon="11.713449849545864"><ele>503.66666666666663</ele><time>2026-04-05T16:33:07.999Z</time></trkpt><trkpt lat="43.81342720539677" lon="11.713239154747178"><ele>500.3333333333333</ele><time>2026-04-05T16:33:08.999Z</time></trkpt><trkpt lat="43.81334204241672" lon="11.713052067082083"><ele>497.0</ele><time>2026-04-05T16:33:09.999Z</time></trkpt><trkpt lat="43.813238298013744" lon="11.712888662429918"><ele>497.0</ele><time>2026-04-05T16:33:11Z</time></trkpt><trkpt lat="43.813108370726674" lon="11.712750034038304"><ele>497.0</ele><time>2026-04-05T16:33:12Z</time></trkpt><trkpt lat="43.81296590799798" lon="11.712644916107276"><ele>497.0</ele><time>2026-04-05T16:33:13Z</time></trkpt><trkpt lat="43.81281331998541" lon="11.712559172223731"><ele>496.75</ele><time>2026-04-05T16:33:14Z</time></trkpt><trkpt lat="43.81267712097733" lon="11.71247641649365"><ele>496.5</ele><time>2026-04-05T16:33:15Z</time></trkpt><trkpt lat="43.812547636657925" lon="11.712374889923653"><ele>496.25</ele><time>2026-04-05T16:33:16Z</time></trkpt><trkpt lat="43.81242852865059" lon="11.712251159203005"><ele>496.0</ele><time>2026-04-05T16:33:17Z</time></trkpt><trkpt lat="43.81232357441394" lon="11.712112816793477"><ele>496.0</ele><time>2026-04-05T16:33:18Z</time></trkpt><trkpt lat="43.81222796976212" lon="11.71196153164194"><ele>496.0</ele><time>2026-04-05T16:33:19Z</time></trkpt><trkpt lat="43.81213029045379" lon="11.711798419121154"><ele>496.0</ele><time>2026-04-05T16:33:20Z</time></trkpt><trkpt lat="43.812019288654206" lon="11.711647272368094"><ele>497.33333333333337</ele><time>2026-04-05T16:33:21Z</time></trkpt><trkpt lat="43.811897164422966" lon="11.711511492963783"><ele>498.66666666666663</ele><time>2026-04-05T16:33:22Z</time></trkpt><trkpt lat="43.81177486135051" lon="11.711375180237104"><ele>500.0</ele><time>2026-04-05T16:33:23Z</time></trkpt><trkpt lat="43.8116581463843" lon="11.71124374465554"><ele>500.75</ele><time>2026-04-05T16:33:24Z</time></trkpt><trkpt lat="43.81154027618083" lon="11.711126832952887"><ele>501.5</ele><time>2026-04-05T16:33:25Z</time></trkpt><trkpt lat="43.811414846482634" lon="11.711036815359247"><ele>502.25</ele><time>2026-04-05T16:33:26Z</time></trkpt><trkpt lat="43.811283726113196" lon="11.710990456652247"><ele>503.0</ele><time>2026-04-05T16:33:27Z</time></trkpt><trkpt lat="43.81115225345336" lon="11.710994103777487"><ele>503.0</ele><time>2026-04-05T16:33:28Z</time></trkpt><trkpt lat="43.81103001462131" lon="11.711028308536918"><ele>503.0</ele><time>2026-04-05T16:33:29Z</time></trkpt><trkpt lat="43.810909546930645" lon="11.711031038521648"><ele>503.0</ele><time>2026-04-05T16:33:30Z</time></trkpt><trkpt lat="43.810794472756804" lon="11.710987873143807"><ele>503.0</ele><time>2026-04-05T16:33:31Z</time></trkpt><trkpt lat="43.81068607891571" lon="11.710908103894345"><ele>501.75</ele><time>2026-04-05T16:33:32Z</time></trkpt><trkpt lat="43.81058291404229" lon="11.710811547304681"><ele>500.5</ele><time>2026-04-05T16:33:33Z</time></trkpt><trkpt lat="43.81047355450069" lon="11.710720344782986"><ele>499.25</ele><time>2026-04-05T16:33:34Z</time></trkpt><trkpt lat="43.81035589709131" lon="11.710640576031002"><ele>498.0</ele><time>2026-04-05T16:33:35Z</time></trkpt><trkpt lat="43.810226919489374" lon="11.71058049010231"><ele>497.25</ele><time>2026-04-05T16:33:36Z</time></trkpt><trkpt lat="43.81009283041175" lon="11.710548389755727"><ele>496.5</ele><time>2026-04-05T16:33:37Z</time></trkpt><trkpt lat="43.809959262974424" lon="11.710542933112992"><ele>495.75</ele><time>2026-04-05T16:33:38Z</time></trkpt><trkpt lat="43.80983225085797" lon="11.71054736776074"><ele>495.0</ele><time>2026-04-05T16:33:39Z</time></trkpt><trkpt lat="43.80970615086941" lon="11.71053263277457"><ele>495.0</ele><time>2026-04-05T16:33:40Z</time></trkpt><trkpt lat="43.80957937469029" lon="11.710487319803272"><ele>495.0</ele><time>2026-04-05T16:33:41Z</time></trkpt><trkpt lat="43.80945401486935" lon="11.71041085530561"><ele>495.0</ele><time>2026-04-05T16:33:42Z</time></trkpt><trkpt lat="43.80933309385088" lon="11.710307395821314"><ele>495.0</ele><time>2026-04-05T16:33:43Z</time></trkpt><trkpt lat="43.80920793602544" lon="11.71019137890468"><ele>494.5</ele><time>2026-04-05T16:33:44Z</time></trkpt><trkpt lat="43.80908441883609" lon="11.710080306574255"><ele>494.0</ele><time>2026-04-05T16:33:45Z</time></trkpt><trkpt lat="43.80895116113743" lon="11.709998814142969"><ele>493.5</ele><time>2026-04-05T16:33:46Z</time></trkpt><trkpt lat="43.80880619132192" lon="11.70994800263798"><ele>493.0</ele><time>2026-04-05T16:33:47Z</time></trkpt><trkpt lat="43.80865596875699" lon="11.709920289681284"><ele>493.0</ele><time>2026-04-05T16:33:48Z</time></trkpt><trkpt lat="43.808502476865854" lon="11.709900334158629"><ele>493.0</ele><time>2026-04-05T16:33:49Z</time></trkpt><trkpt lat="43.80834903365827" lon="11.709869846592998"><ele>493.0</ele><time>2026-04-05T16:33:50Z</time></trkpt><trkpt lat="43.808194632748" lon="11.709808233086175"><ele>491.0</ele><time>2026-04-05T16:33:51Z</time></trkpt><trkpt lat="43.80805101566385" lon="11.709726243100018"><ele>489.0</ele><time>2026-04-05T16:33:52Z</time></trkpt><trkpt lat="43.80790709861042" lon="11.709648141139256"><ele>487.0</ele><time>2026-04-05T16:33:53Z</time></trkpt><trkpt lat="43.80776367725758" lon="11.709572881955303"><ele>485.0</ele><time>2026-04-05T16:33:54Z</time></trkpt><trkpt lat="43.80761747434771" lon="11.709503841134323"><ele>483.0</ele><time>2026-04-05T16:33:55Z</time></trkpt><trkpt lat="43.807466174802265" lon="11.709441541527406"><ele>481.0</ele><time>2026-04-05T16:33:56Z</time></trkpt><trkpt lat="43.80731470173652" lon="11.70938151466961"><ele>487.33333333333337</ele><time>2026-04-05T16:33:57Z</time></trkpt><trkpt lat="43.8071645080611" lon="11.709311785741672"><ele>493.66666666666663</ele><time>2026-04-05T16:33:58Z</time></trkpt><trkpt lat="43.807022215497" lon="11.70922688827824"><ele>500.0</ele><time>2026-04-05T16:33:59Z</time></trkpt><trkpt lat="43.80688708853459" lon="11.709123874479653"><ele>491.3333333333333</ele><time>2026-04-05T16:34:00Z</time></trkpt><trkpt lat="43.80676102085487" lon="11.70900239278703"><ele>482.66666666666663</ele><time>2026-04-05T16:34:01Z</time></trkpt><trkpt lat="43.806638442493885" lon="11.708870785941482"><ele>474.0</ele><time>2026-04-05T16:34:02Z</time></trkpt><trkpt lat="43.80653080450242" lon="11.708722407373704"><ele>476.5</ele><time>2026-04-05T16:34:03Z</time></trkpt><trkpt lat="43.80644701212819" lon="11.70856731252786"><ele>479.0</ele><time>2026-04-05T16:34:04Z</time></trkpt><trkpt lat="43.8063802797046" lon="11.708416438715007"><ele>481.5</ele><time>2026-04-05T16:34:05Z</time></trkpt><trkpt lat="43.806302717107584" lon="11.708292637704853"><ele>484.0</ele><time>2026-04-05T16:34:06Z</time></trkpt><trkpt lat="43.80619778846057" lon="11.708234302844241"><ele>484.0</ele><time>2026-04-05T16:34:07Z</time></trkpt><trkpt lat="43.80607636774635" lon="11.708219627164603"><ele>484.0</ele><time>2026-04-05T16:34:08Z</time></trkpt><trkpt lat="43.805953945382676" lon="11.708231663369428"><ele>484.0</ele><time>2026-04-05T16:34:09Z</time></trkpt><trkpt lat="43.80583181037467" lon="11.708267863266478"><ele>484.0</ele><time>2026-04-05T16:34:09.999Z</time></trkpt><trkpt lat="43.805704360511164" lon="11.708318516929832"><ele>481.25</ele><time>2026-04-05T16:34:10.999Z</time></trkpt><trkpt lat="43.80557541904704" lon="11.708370873299218"><ele>478.5</ele><time>2026-04-05T16:34:11.999Z</time></trkpt><trkpt lat="43.8054435099052" lon="11.708421591912591"><ele>475.75</ele><time>2026-04-05T16:34:12.999Z</time></trkpt><trkpt lat="43.805310251057534" lon="11.708469932962716"><ele>473.0</ele><time>2026-04-05T16:34:13.999Z</time></trkpt><trkpt lat="43.80517489963371" lon="11.708515292898264"><ele>472.25</ele><time>2026-04-05T16:34:14.999Z</time></trkpt><trkpt lat="43.805037946071245" lon="11.708553609243896"><ele>471.5</ele><time>2026-04-05T16:34:15.999Z</time></trkpt><trkpt lat="43.80490031582186" lon="11.70857973504001"><ele>470.75</ele><time>2026-04-05T16:34:16.999Z</time></trkpt><trkpt lat="43.804761962686406" lon="11.708596416297409"><ele>470.0</ele><time>2026-04-05T16:34:17.999Z</time></trkpt><trkpt lat="43.804628031732925" lon="11.708609671288178"><ele>469.6</ele><time>2026-04-05T16:34:18.999Z</time></trkpt><trkpt lat="43.8045097446559" lon="11.708624529457701"><ele>469.2</ele><time>2026-04-05T16:34:19.999Z</time></trkpt><trkpt lat="43.80440750332312" lon="11.708636030517235"><ele>468.79999999999995</ele><time>2026-04-05T16:34:20.999Z</time></trkpt><trkpt lat="43.804316845291396" lon="11.70864893087242"><ele>468.4</ele><time>2026-04-05T16:34:21.999Z</time></trkpt><trkpt lat="43.804231424474494" lon="11.708637930639764"><ele>468.0</ele><time>2026-04-05T16:34:22.999Z</time></trkpt><trkpt lat="43.80416171819699" lon="11.708569378537534"><ele>468.0</ele><time>2026-04-05T16:34:23.999Z</time></trkpt><trkpt lat="43.80412091194125" lon="11.708474217391549"><ele>468.0</ele><time>2026-04-05T16:34:24.999Z</time></trkpt><trkpt lat="43.80408602819009" lon="11.708379052445398"><ele>468.0</ele><time>2026-04-05T16:34:25.999Z</time></trkpt><trkpt lat="43.804046098978944" lon="11.708282505801538"><ele>468.0</ele><time>2026-04-05T16:34:26.999Z</time></trkpt><trkpt lat="43.804001155536795" lon="11.708190868084655"><ele>468.0</ele><time>2026-04-05T16:34:27.999Z</time></trkpt><trkpt lat="43.80395066477809" lon="11.708103390198515"><ele>468.0</ele><time>2026-04-05T16:34:28.999Z</time></trkpt><trkpt lat="43.80389273847636" lon="11.708022810929373"><ele>468.0</ele><time>2026-04-05T16:34:29.999Z</time></trkpt><trkpt lat="43.80382139168723" lon="11.70796276351426"><ele>468.0</ele><time>2026-04-05T16:34:30.999Z</time></trkpt><trkpt lat="43.80374130042129" lon="11.707924829608162"><ele>468.0</ele><time>2026-04-05T16:34:31.999Z</time></trkpt><trkpt lat="43.803655497930855" lon="11.707904491104777"><ele>468.0</ele><time>2026-04-05T16:34:32.999Z</time></trkpt><trkpt lat="43.803568757859075" lon="11.707887395698686"><ele>468.0</ele><time>2026-04-05T16:34:33.999Z</time></trkpt><trkpt lat="43.80348336272254" lon="11.70784780163116"><ele>468.0</ele><time>2026-04-05T16:34:34.999Z</time></trkpt><trkpt lat="43.8033944754373" lon="11.707831731978693"><ele>468.6666666666667</ele><time>2026-04-05T16:34:35.999Z</time></trkpt><trkpt lat="43.80330510527829" lon="11.707834232846523"><ele>469.33333333333337</ele><time>2026-04-05T16:34:36.999Z</time></trkpt><trkpt lat="43.80321688560632" lon="11.707812757503469"><ele>470.0</ele><time>2026-04-05T16:34:37.999Z</time></trkpt><trkpt lat="43.80312582288462" lon="11.707797956781015"><ele>470.6666666666667</ele><time>2026-04-05T16:34:38.999Z</time></trkpt><trkpt lat="43.80303927997808" lon="11.707779540028492"><ele>471.33333333333337</ele><time>2026-04-05T16:34:39.999Z</time></trkpt><trkpt lat="43.80296091774437" lon="11.707754550727556"><ele>472.0</ele><time>2026-04-05T16:34:40.999Z</time></trkpt><trkpt lat="43.802887358822495" lon="11.707708583195277"><ele>472.0</ele><time>2026-04-05T16:34:41.999Z</time></trkpt><trkpt lat="43.80282488191018" lon="11.707632320071989"><ele>472.00000000000006</ele><time>2026-04-05T16:34:42.999Z</time></trkpt><trkpt lat="43.8027659436888" lon="11.707537568327362"><ele>472.00000000000006</ele><time>2026-04-05T16:34:43.999Z</time></trkpt><trkpt lat="43.8027108911484" lon="11.707431252562811"><ele>472.0</ele><time>2026-04-05T16:34:44.999Z</time></trkpt><trkpt lat="43.802658754111505" lon="11.707320807455291"><ele>472.0</ele><time>2026-04-05T16:34:45.999Z</time></trkpt><trkpt lat="43.802607557598535" lon="11.707206648941872"><ele>472.0</ele><time>2026-04-05T16:34:46.999Z</time></trkpt><trkpt lat="43.802557267768535" lon="11.707089667300291"><ele>472.00000000000006</ele><time>2026-04-05T16:34:47.999Z</time></trkpt><trkpt lat="43.80250599621166" lon="11.706973439540482"><ele>472.00000000000006</ele><time>2026-04-05T16:34:48.999Z</time></trkpt><trkpt lat="43.802457800796795" lon="11.706868086512682"><ele>472.0</ele><time>2026-04-05T16:34:49.999Z</time></trkpt><trkpt lat="43.80241004023407" lon="11.706763910034631"><ele>472.0</ele><time>2026-04-05T16:34:50.999Z</time></trkpt><trkpt lat="43.802358627523475" lon="11.706668564523959"><ele>472.00000000000006</ele><time>2026-04-05T16:34:51.999Z</time></trkpt><trkpt lat="43.802292015389476" lon="11.706590329149558"><ele>472.0</ele><time>2026-04-05T16:34:52.999Z</time></trkpt><trkpt lat="43.80222325573004" lon="11.706529749007899"><ele>472.0</ele><time>2026-04-05T16:34:53.999Z</time></trkpt><trkpt lat="43.8021542264119" lon="11.70647468200325"><ele>472.0</ele><time>2026-04-05T16:34:54.999Z</time></trkpt><trkpt lat="43.80209421562487" lon="11.706404492838951"><ele>472.00000000000006</ele><time>2026-04-05T16:34:55.999Z</time></trkpt><trkpt lat="43.80205410472475" lon="11.706317357372798"><ele>472.0</ele><time>2026-04-05T16:34:56.999Z</time></trkpt><trkpt lat="43.80203448516469" lon="11.706210557058753"><ele>472.00000000000006</ele><time>2026-04-05T16:34:57.999Z</time></trkpt><trkpt lat="43.80204895415167" lon="11.706098243950581"><ele>472.0</ele><time>2026-04-05T16:34:58.999Z</time></trkpt><trkpt lat="43.80209002863333" lon="11.705988792677385"><ele>472.0</ele><time>2026-04-05T16:34:59.999Z</time></trkpt><trkpt lat="43.80214773721961" lon="11.70590372330698"><ele>472.0</ele><time>2026-04-05T16:35:00.999Z</time></trkpt><trkpt lat="43.80221202077097" lon="11.705825534639867"><ele>472.00000000000006</ele><time>2026-04-05T16:35:01.999Z</time></trkpt><trkpt lat="43.8022763625969" lon="11.705737318507815"><ele>472.0</ele><time>2026-04-05T16:35:02.999Z</time></trkpt><trkpt lat="43.802339373201406" lon="11.705644232419026"><ele>472.6</ele><time>2026-04-05T16:35:03.999Z</time></trkpt><trkpt lat="43.802405818553396" lon="11.70555424410751"><ele>473.20000000000005</ele><time>2026-04-05T16:35:04.999Z</time></trkpt><trkpt lat="43.80247197799721" lon="11.70546382315598"><ele>473.8</ele><time>2026-04-05T16:35:05.999Z</time></trkpt><trkpt lat="43.80253177570219" lon="11.705374736515338"><ele>474.4</ele><time>2026-04-05T16:35:06.999Z</time></trkpt><trkpt lat="43.802608831486545" lon="11.705278982754946"><ele>475.0</ele><time>2026-04-05T16:35:07.999Z</time></trkpt><trkpt lat="43.802683524688256" lon="11.705195112817139"><ele>475.4</ele><time>2026-04-05T16:35:08.999Z</time></trkpt><trkpt lat="43.80276427894122" lon="11.705111560409497"><ele>475.8</ele><time>2026-04-05T16:35:09.999Z</time></trkpt><trkpt lat="43.802843652201354" lon="11.705026837328491"><ele>476.20000000000005</ele><time>2026-04-05T16:35:10.999Z</time></trkpt><trkpt lat="43.80292308064721" lon="11.70494151661446"><ele>476.6</ele><time>2026-04-05T16:35:11.999Z</time></trkpt><trkpt lat="43.80300345999142" lon="11.704859773217368"><ele>477.0</ele><time>2026-04-05T16:35:12.999Z</time></trkpt><trkpt lat="43.80308451665997" lon="11.70477501161791"><ele>477.0</ele><time>2026-04-05T16:35:13.999Z</time></trkpt><trkpt lat="43.80316473532103" lon="11.704686030990981"><ele>477.00000000000006</ele><time>2026-04-05T16:35:14.999Z</time></trkpt><trkpt lat="43.80324319476978" lon="11.704599865465866"><ele>477.00000000000006</ele><time>2026-04-05T16:35:15.999Z</time></trkpt><trkpt lat="43.80332033006562" lon="11.704514788965797"><ele>477.0</ele><time>2026-04-05T16:35:16.999Z</time></trkpt><trkpt lat="43.803397002394114" lon="11.704434611813138"><ele>477.0</ele><time>2026-04-05T16:35:18Z</time></trkpt><trkpt lat="43.80347582929488" lon="11.704351910247947"><ele>478.8</ele><time>2026-04-05T16:35:19Z</time></trkpt><trkpt lat="43.803553144541354" lon="11.704259679540256"><ele>480.6</ele><time>2026-04-05T16:35:20Z</time></trkpt><trkpt lat="43.80363017615501" lon="11.70416699547384"><ele>482.40000000000003</ele><time>2026-04-05T16:35:21Z</time></trkpt><trkpt lat="43.80370707377917" lon="11.704066145088532"><ele>484.20000000000005</ele><time>2026-04-05T16:35:22Z</time></trkpt><trkpt lat="43.80378306766448" lon="11.703960845568627"><ele>486.0</ele><time>2026-04-05T16:35:23Z</time></trkpt><trkpt lat="43.803864356291676" lon="11.703848179781277"><ele>486.0</ele><time>2026-04-05T16:35:24Z</time></trkpt><trkpt lat="43.80394021113784" lon="11.70372920723909"><ele>486.0</ele><time>2026-04-05T16:35:25Z</time></trkpt><trkpt lat="43.80400676557486" lon="11.703601517096471"><ele>486.0</ele><time>2026-04-05T16:35:26Z</time></trkpt><trkpt lat="43.804068310928834" lon="11.703459799555517"><ele>486.0</ele><time>2026-04-05T16:35:27Z</time></trkpt><trkpt lat="43.804137292899874" lon="11.703315705218454"><ele>484.25</ele><time>2026-04-05T16:35:28Z</time></trkpt><trkpt lat="43.804224494629615" lon="11.703181359666674"><ele>482.5</ele><time>2026-04-05T16:35:29Z</time></trkpt><trkpt lat="43.80431818966097" lon="11.70304701451451"><ele>480.75</ele><time>2026-04-05T16:35:30Z</time></trkpt><trkpt lat="43.80442778678223" lon="11.702902950121818"><ele>479.0</ele><time>2026-04-05T16:35:31Z</time></trkpt><trkpt lat="43.80452706289136" lon="11.70277983162283"><ele>479.75</ele><time>2026-04-05T16:35:32Z</time></trkpt><trkpt lat="43.80463386912064" lon="11.70264602964555"><ele>480.5</ele><time>2026-04-05T16:35:33Z</time></trkpt><trkpt lat="43.804739768935384" lon="11.702497845848235"><ele>481.25</ele><time>2026-04-05T16:35:34Z</time></trkpt><trkpt lat="43.80483779458775" lon="11.70234604038353"><ele>482.0</ele><time>2026-04-05T16:35:35Z</time></trkpt><trkpt lat="43.80493165705323" lon="11.702182940421558"><ele>482.0</ele><time>2026-04-05T16:35:36Z</time></trkpt><trkpt lat="43.80502185124792" lon="11.702019801463399"><ele>482.0</ele><time>2026-04-05T16:35:37Z</time></trkpt><trkpt lat="43.805140630659835" lon="11.701910898339527"><ele>482.0</ele><time>2026-04-05T16:35:38Z</time></trkpt><trkpt lat="43.805271639929934" lon="11.701781976003161"><ele>484.0</ele><time>2026-04-05T16:35:39Z</time></trkpt><trkpt lat="43.80540638682927" lon="11.701685383922053"><ele>486.0</ele><time>2026-04-05T16:35:40Z</time></trkpt><trkpt lat="43.8055348971474" lon="11.701565275460762"><ele>488.0</ele><time>2026-04-05T16:35:41Z</time></trkpt><trkpt lat="43.805607555994975" lon="11.701438388400385"><ele>490.0</ele><time>2026-04-05T16:35:42Z</time></trkpt><trkpt lat="43.80570158216415" lon="11.701204625295228"><ele>486.6666666666667</ele><time>2026-04-05T16:35:43Z</time></trkpt><trkpt lat="43.8057861146496" lon="11.70101274136868"><ele>483.33333333333337</ele><time>2026-04-05T16:35:44Z</time></trkpt><trkpt lat="43.8058502956434" lon="11.700808117612864"><ele>480.0</ele><time>2026-04-05T16:35:45Z</time></trkpt><trkpt lat="43.805915944211144" lon="11.700609324874218"><ele>480.0</ele><time>2026-04-05T16:35:46Z</time></trkpt><trkpt lat="43.80598401107467" lon="11.700418626472919"><ele>480.0</ele><time>2026-04-05T16:35:47Z</time></trkpt><trkpt lat="43.80604791067292" lon="11.700242125422086"><ele>480.0</ele><time>2026-04-05T16:35:48Z</time></trkpt><trkpt lat="43.80609916353827" lon="11.700076022656619"><ele>480.0</ele><time>2026-04-05T16:35:49Z</time></trkpt><trkpt lat="43.80613895994018" lon="11.69990421544134"><ele>484.5</ele><time>2026-04-05T16:35:50Z</time></trkpt><trkpt lat="43.80615382418526" lon="11.699718382146115"><ele>489.0</ele><time>2026-04-05T16:35:51Z</time></trkpt><trkpt lat="43.806157315700474" lon="11.699523384427922"><ele>493.5</ele><time>2026-04-05T16:35:52Z</time></trkpt><trkpt lat="43.80616493637258" lon="11.699326829199547"><ele>498.0</ele><time>2026-04-05T16:35:53Z</time></trkpt><trkpt lat="43.80617929251968" lon="11.699124721790033"><ele>498.25</ele><time>2026-04-05T16:35:54Z</time></trkpt><trkpt lat="43.80619526381277" lon="11.698922361153603"><ele>498.5</ele><time>2026-04-05T16:35:55Z</time></trkpt><trkpt lat="43.80620799746424" lon="11.698721685974704"><ele>498.75</ele><time>2026-04-05T16:35:56Z</time></trkpt><trkpt lat="43.80621713555681" lon="11.698522049129373"><ele>499.0</ele><time>2026-04-05T16:35:57Z</time></trkpt><trkpt lat="43.80622495556331" lon="11.698326795484597"><ele>499.75</ele><time>2026-04-05T16:35:58Z</time></trkpt><trkpt lat="43.80622777034878" lon="11.69814152236058"><ele>500.5</ele><time>2026-04-05T16:35:59Z</time></trkpt><trkpt lat="43.806209016959805" lon="11.697952576921338"><ele>501.25</ele><time>2026-04-05T16:36:00Z</time></trkpt><trkpt lat="43.80616156360132" lon="11.69777484335557"><ele>502.0</ele><time>2026-04-05T16:36:01Z</time></trkpt><trkpt lat="43.8061079585685" lon="11.697597604374575"><ele>502.75</ele><time>2026-04-05T16:36:02Z</time></trkpt><trkpt lat="43.806071021217235" lon="11.69741952033074"><ele>503.5</ele><time>2026-04-05T16:36:03Z</time></trkpt><trkpt lat="43.80605003183489" lon="11.697230899698882"><ele>504.25</ele><time>2026-04-05T16:36:04Z</time></trkpt><trkpt lat="43.80604952752938" lon="11.697034028254063"><ele>505.0</ele><time>2026-04-05T16:36:05Z</time></trkpt><trkpt lat="43.80608128816132" lon="11.696849153733867"><ele>505.0</ele><time>2026-04-05T16:36:06Z</time></trkpt><trkpt lat="43.80612998575111" lon="11.696673628977111"><ele>505.0</ele><time>2026-04-05T16:36:07Z</time></trkpt><trkpt lat="43.80620728833874" lon="11.696506553731826"><ele>505.0</ele><time>2026-04-05T16:36:08Z</time></trkpt><trkpt lat="43.80631080880447" lon="11.696362680619586"><ele>505.0</ele><time>2026-04-05T16:36:09Z</time></trkpt><trkpt lat="43.80640869160745" lon="11.696183224194892"><ele>501.33333333333337</ele><time>2026-04-05T16:36:10Z</time></trkpt><trkpt lat="43.80651583580421" lon="11.696005340661625"><ele>497.66666666666663</ele><time>2026-04-05T16:36:11Z</time></trkpt><trkpt lat="43.80661662269579" lon="11.695822792578939"><ele>494.0</ele><time>2026-04-05T16:36:12Z</time></trkpt><trkpt lat="43.80671986537296" lon="11.695627783511416"><ele>494.0</ele><time>2026-04-05T16:36:13Z</time></trkpt><trkpt lat="43.80682556878883" lon="11.69543188846616"><ele>494.0</ele><time>2026-04-05T16:36:14Z</time></trkpt><trkpt lat="43.8069336622881" lon="11.695229238978195"><ele>494.0</ele><time>2026-04-05T16:36:15Z</time></trkpt><trkpt lat="43.80704188035738" lon="11.695029269002962"><ele>498.0</ele><time>2026-04-05T16:36:16Z</time></trkpt><trkpt lat="43.80714811975034" lon="11.69483059486455"><ele>502.0</ele><time>2026-04-05T16:36:17Z</time></trkpt><trkpt lat="43.80725345401301" lon="11.694653266428265"><ele>506.0</ele><time>2026-04-05T16:36:18Z</time></trkpt><trkpt lat="43.8073527177417" lon="11.694488773684624"><ele>503.75</ele><time>2026-04-05T16:36:19Z</time></trkpt><trkpt lat="43.80743889896613" lon="11.694331657194638"><ele>501.5</ele><time>2026-04-05T16:36:20Z</time></trkpt><trkpt lat="43.80749887854727" lon="11.694166064854938"><ele>499.25</ele><time>2026-04-05T16:36:21Z</time></trkpt><trkpt lat="43.80751788777495" lon="11.693990377396092"><ele>497.0</ele><time>2026-04-05T16:36:22Z</time></trkpt><trkpt lat="43.80749586249298" lon="11.693813837214382"><ele>497.0</ele><time>2026-04-05T16:36:23Z</time></trkpt><trkpt lat="43.8074519772122" lon="11.69363768767861"><ele>497.0</ele><time>2026-04-05T16:36:24Z</time></trkpt><trkpt lat="43.80741350203233" lon="11.693454630070159"><ele>497.0</ele><time>2026-04-05T16:36:25Z</time></trkpt><trkpt lat="43.80738202986293" lon="11.693272970884044"><ele>497.0</ele><time>2026-04-05T16:36:26Z</time></trkpt><trkpt lat="43.80735833607145" lon="11.693094028408424"><ele>496.5</ele><time>2026-04-05T16:36:26.999Z</time></trkpt><trkpt lat="43.80734320088402" lon="11.692935493336428"><ele>496.0</ele><time>2026-04-05T16:36:27.999Z</time></trkpt><trkpt lat="43.80734526688618" lon="11.692777838084604"><ele>495.5</ele><time>2026-04-05T16:36:28.999Z</time></trkpt><trkpt lat="43.807371850765676" lon="11.692623323618042"><ele>495.0</ele><time>2026-04-05T16:36:29.999Z</time></trkpt><trkpt lat="43.80743099121395" lon="11.692482817356376"><ele>493.5</ele><time>2026-04-05T16:36:30.999Z</time></trkpt><trkpt lat="43.807526847488525" lon="11.692398693809787"><ele>492.0</ele><time>2026-04-05T16:36:31.999Z</time></trkpt><trkpt lat="43.80762793186012" lon="11.69237212765422"><ele>490.5</ele><time>2026-04-05T16:36:32.999Z</time></trkpt><trkpt lat="43.80774225395599" lon="11.69234498901783"><ele>489.0</ele><time>2026-04-05T16:36:33.999Z</time></trkpt><trkpt lat="43.80786378751534" lon="11.692313498978082"><ele>492.25</ele><time>2026-04-05T16:36:34.999Z</time></trkpt><trkpt lat="43.80799026671159" lon="11.692304966898734"><ele>495.5</ele><time>2026-04-05T16:36:35.999Z</time></trkpt><trkpt lat="43.80812465651938" lon="11.692290972813646"><ele>498.75</ele><time>2026-04-05T16:36:36.999Z</time></trkpt><trkpt lat="43.808255263841076" lon="11.692248904016452"><ele>502.0</ele><time>2026-04-05T16:36:37.999Z</time></trkpt><trkpt lat="43.80837919590527" lon="11.692159019632413"><ele>502.0</ele><time>2026-04-05T16:36:38.999Z</time></trkpt><trkpt lat="43.80849036017258" lon="11.692029733920453"><ele>502.0</ele><time>2026-04-05T16:36:39.999Z</time></trkpt><trkpt lat="43.808598858817554" lon="11.69188022794664"><ele>502.0</ele><time>2026-04-05T16:36:40.999Z</time></trkpt><trkpt lat="43.80871862487337" lon="11.691729316748749"><ele>504.33333333333337</ele><time>2026-04-05T16:36:41.999Z</time></trkpt><trkpt lat="43.808842136762046" lon="11.691599823037595"><ele>506.66666666666663</ele><time>2026-04-05T16:36:42.999Z</time></trkpt><trkpt lat="43.80898378979683" lon="11.691517978635266"><ele>509.0</ele><time>2026-04-05T16:36:43.999Z</time></trkpt><trkpt lat="43.8091369012387" lon="11.691431722217581"><ele>509.0</ele><time>2026-04-05T16:36:44.999Z</time></trkpt><trkpt lat="43.80928652205914" lon="11.691346803132504"><ele>509.0</ele><time>2026-04-05T16:36:45.999Z</time></trkpt><trkpt lat="43.80945180927039" lon="11.691279253402158"><ele>509.0</ele><time>2026-04-05T16:36:46.999Z</time></trkpt><trkpt lat="43.80962323406356" lon="11.691195679672465"><ele>507.3333333333333</ele><time>2026-04-05T16:36:47.999Z</time></trkpt><trkpt lat="43.80979004021477" lon="11.69110838296076"><ele>505.66666666666663</ele><time>2026-04-05T16:36:48.999Z</time></trkpt><trkpt lat="43.80994155462884" lon="11.691018903616282"><ele>504.0</ele><time>2026-04-05T16:36:49.999Z</time></trkpt><trkpt lat="43.81008019800167" lon="11.69094306914257"><ele>507.0</ele><time>2026-04-05T16:36:50.999Z</time></trkpt><trkpt lat="43.810207002770014" lon="11.6908770506134"><ele>510.0</ele><time>2026-04-05T16:36:51.999Z</time></trkpt><trkpt lat="43.810288991789385" lon="11.690837379083172"><ele>513.0</ele><time>2026-04-05T16:36:52.999Z</time></trkpt><trkpt lat="43.810353141339824" lon="11.690798848180778"><ele>516.0</ele><time>2026-04-05T16:36:53.999Z</time></trkpt><trkpt lat="43.81044243387738" lon="11.690717901815683"><ele>519.0</ele><time>2026-04-05T16:36:55.999Z</time></trkpt><trkpt lat="43.810480174827084" lon="11.690569557206501"><ele>519.0</ele><time>2026-04-05T16:36:57.999Z</time></trkpt><trkpt lat="43.810480248436036" lon="11.690477624255262"><ele>519.0</ele><time>2026-04-05T16:36:58.999Z</time></trkpt><trkpt lat="43.81047848089925" lon="11.6903846104786"><ele>519.0</ele><time>2026-04-05T16:36:59.999Z</time></trkpt><trkpt lat="43.81043168154508" lon="11.690289538529377"><ele>519.0</ele><time>2026-04-05T16:37:00.999Z</time></trkpt><trkpt lat="43.8103214085264" lon="11.690217195571547"><ele>519.0</ele><time>2026-04-05T16:37:01.999Z</time></trkpt><trkpt lat="43.81017630178616" lon="11.69021328662567"><ele>516.0</ele><time>2026-04-05T16:37:02.999Z</time></trkpt><trkpt lat="43.81003548931226" lon="11.690196267665407"><ele>513.0</ele><time>2026-04-05T16:37:03.999Z</time></trkpt><trkpt lat="43.809906923824244" lon="11.690155326091402"><ele>510.0</ele><time>2026-04-05T16:37:04.999Z</time></trkpt><trkpt lat="43.809813012223906" lon="11.690072879482232"><ele>507.0</ele><time>2026-04-05T16:37:05.999Z</time></trkpt><trkpt lat="43.8097513898866" lon="11.68993718081236"><ele>507.0</ele><time>2026-04-05T16:37:06.999Z</time></trkpt><trkpt lat="43.80973537535468" lon="11.689805468140339"><ele>507.0</ele><time>2026-04-05T16:37:07.999Z</time></trkpt><trkpt lat="43.80982046363997" lon="11.689662532033912"><ele>507.0</ele><time>2026-04-05T16:37:08.999Z</time></trkpt><trkpt lat="43.809872428892206" lon="11.689498439977246"><ele>507.0</ele><time>2026-04-05T16:37:09.999Z</time></trkpt><trkpt lat="43.809937524194055" lon="11.68931753159437"><ele>505.33333333333337</ele><time>2026-04-05T16:37:10.999Z</time></trkpt><trkpt lat="43.810018273519816" lon="11.689138663246565"><ele>503.6666666666667</ele><time>2026-04-05T16:37:11.999Z</time></trkpt><trkpt lat="43.810113137908374" lon="11.688981639770828"><ele>502.0</ele><time>2026-04-05T16:37:12.999Z</time></trkpt><trkpt lat="43.810233423974324" lon="11.688833196553706"><ele>507.6666666666667</ele><time>2026-04-05T16:37:13.999Z</time></trkpt><trkpt lat="43.810364622612134" lon="11.688708584009415"><ele>513.3333333333334</ele><time>2026-04-05T16:37:14.999Z</time></trkpt><trkpt lat="43.810494988681626" lon="11.68857213601271"><ele>519.0</ele><time>2026-04-05T16:37:15.999Z</time></trkpt><trkpt lat="43.81060622512099" lon="11.68840790490938"><ele>519.0</ele><time>2026-04-05T16:37:16.999Z</time></trkpt><trkpt lat="43.81071427587464" lon="11.688223945000567"><ele>519.0</ele><time>2026-04-05T16:37:17.999Z</time></trkpt><trkpt lat="43.81080098025188" lon="11.688021370660397"><ele>519.0</ele><time>2026-04-05T16:37:18.999Z</time></trkpt><trkpt lat="43.81087267959863" lon="11.687807603908219"><ele>515.75</ele><time>2026-04-05T16:37:19.999Z</time></trkpt><trkpt lat="43.81093863938899" lon="11.687610625108682"><ele>512.5</ele><time>2026-04-05T16:37:20.999Z</time></trkpt><trkpt lat="43.810986568649604" lon="11.68742820061722"><ele>509.25</ele><time>2026-04-05T16:37:21.999Z</time></trkpt><trkpt lat="43.81099789238108" lon="11.687229214724955"><ele>506.0</ele><time>2026-04-05T16:37:23Z</time></trkpt><trkpt lat="43.810988610336906" lon="11.687010201430095"><ele>505.66666666666663</ele><time>2026-04-05T16:37:24Z</time></trkpt><trkpt lat="43.810976411313014" lon="11.68677635979778"><ele>505.33333333333337</ele><time>2026-04-05T16:37:25Z</time></trkpt><trkpt lat="43.810962433946884" lon="11.686536296632926"><ele>505.0</ele><time>2026-04-05T16:37:26Z</time></trkpt><trkpt lat="43.81094837506633" lon="11.686292411237847"><ele>505.0</ele><time>2026-04-05T16:37:27Z</time></trkpt><trkpt lat="43.81093937387237" lon="11.686067996451358"><ele>505.0</ele><time>2026-04-05T16:37:28Z</time></trkpt><trkpt lat="43.810967193306865" lon="11.685866467406731"><ele>505.0</ele><time>2026-04-05T16:37:29Z</time></trkpt><trkpt lat="43.81100341626603" lon="11.68569960706066"><ele>505.0</ele><time>2026-04-05T16:37:30Z</time></trkpt><trkpt lat="43.81106030093719" lon="11.685510948853123"><ele>510.5</ele><time>2026-04-05T16:37:31Z</time></trkpt><trkpt lat="43.81112190472433" lon="11.685320600068481"><ele>516.0</ele><time>2026-04-05T16:37:32Z</time></trkpt><trkpt lat="43.81117252885044" lon="11.685130175276182"><ele>521.5</ele><time>2026-04-05T16:37:33Z</time></trkpt><trkpt lat="43.811234091832844" lon="11.684949264600508"><ele>527.0</ele><time>2026-04-05T16:37:34Z</time></trkpt><trkpt lat="43.811290150696024" lon="11.684781512312163"><ele>527.0</ele><time>2026-04-05T16:37:35Z</time></trkpt><trkpt lat="43.811362740551075" lon="11.68464577783763"><ele>527.0</ele><time>2026-04-05T16:37:36Z</time></trkpt><trkpt lat="43.811408811489585" lon="11.684498835395457"><ele>527.0</ele><time>2026-04-05T16:37:37Z</time></trkpt><trkpt lat="43.811514384081846" lon="11.684433021493343"><ele>527.0</ele><time>2026-04-05T16:37:38Z</time></trkpt><trkpt lat="43.8116269124987" lon="11.684396823306697"><ele>527.0</ele><time>2026-04-05T16:37:39Z</time></trkpt><trkpt lat="43.81174592022615" lon="11.684429753552887"><ele>527.0</ele><time>2026-04-05T16:37:40Z</time></trkpt><trkpt lat="43.81187873236175" lon="11.684474123921403"><ele>527.0</ele><time>2026-04-05T16:37:41Z</time></trkpt><trkpt lat="43.81201396158323" lon="11.684524429936973"><ele>527.0</ele><time>2026-04-05T16:37:42Z</time></trkpt><trkpt lat="43.81216069997976" lon="11.684556277169012"><ele>528.25</ele><time>2026-04-05T16:37:43Z</time></trkpt><trkpt lat="43.812297150778704" lon="11.684615274981452"><ele>529.5</ele><time>2026-04-05T16:37:44Z</time></trkpt><trkpt lat="43.81241568370709" lon="11.684662347401689"><ele>530.75</ele><time>2026-04-05T16:37:45Z</time></trkpt><trkpt lat="43.81251536190396" lon="11.684702901295699"><ele>532.0</ele><time>2026-04-05T16:37:46Z</time></trkpt><trkpt lat="43.81260403328042" lon="11.684710915335772"><ele>531.6</ele><time>2026-04-05T16:37:47Z</time></trkpt><trkpt lat="43.81268594340239" lon="11.684663611432281"><ele>531.2</ele><time>2026-04-05T16:37:48Z</time></trkpt><trkpt lat="43.812759212853294" lon="11.684554351301298"><ele>530.8</ele><time>2026-04-05T16:37:49Z</time></trkpt><trkpt lat="43.812782087693456" lon="11.68440812865934"><ele>530.4</ele><time>2026-04-05T16:37:50Z</time></trkpt><trkpt lat="43.81274947652605" lon="11.684256611291293"><ele>530.0</ele><time>2026-04-05T16:37:51Z</time></trkpt><trkpt lat="43.81269836873382" lon="11.684110815316838"><ele>526.0</ele><time>2026-04-05T16:37:52Z</time></trkpt><trkpt lat="43.812646392457744" lon="11.683975676455335"><ele>522.0</ele><time>2026-04-05T16:37:53Z</time></trkpt><trkpt lat="43.812574365708265" lon="11.68386408453794"><ele>518.0</ele><time>2026-04-05T16:37:54Z</time></trkpt><trkpt lat="43.8124722552515" lon="11.683785281821404"><ele>514.0</ele><time>2026-04-05T16:37:55Z</time></trkpt><trkpt lat="43.81235972452555" lon="11.683724519437543"><ele>514.0</ele><time>2026-04-05T16:37:56Z</time></trkpt><trkpt lat="43.81225642680076" lon="11.683639781767779"><ele>514.0</ele><time>2026-04-05T16:37:57Z</time></trkpt><trkpt lat="43.81219347149708" lon="11.683503020804789"><ele>514.0</ele><time>2026-04-05T16:37:58Z</time></trkpt><trkpt lat="43.81213794850722" lon="11.683369225446002"><ele>514.0</ele><time>2026-04-05T16:37:59Z</time></trkpt><trkpt lat="43.8121516009243" lon="11.683213118990755"><ele>518.25</ele><time>2026-04-05T16:38:00Z</time></trkpt><trkpt lat="43.81216917360535" lon="11.68304728860787"><ele>522.5</ele><time>2026-04-05T16:38:01Z</time></trkpt><trkpt lat="43.812175197976124" lon="11.682875135140973"><ele>526.75</ele><time>2026-04-05T16:38:02Z</time></trkpt><trkpt lat="43.8122208462127" lon="11.68271583120799"><ele>531.0</ele><time>2026-04-05T16:38:03Z</time></trkpt><trkpt lat="43.81225629117918" lon="11.682552638463633"><ele>531.75</ele><time>2026-04-05T16:38:04Z</time></trkpt><trkpt lat="43.812308976382525" lon="11.682390911237917"><ele>532.5</ele><time>2026-04-05T16:38:05Z</time></trkpt><trkpt lat="43.81238918804513" lon="11.682247459274176"><ele>533.25</ele><time>2026-04-05T16:38:06Z</time></trkpt><trkpt lat="43.81247725688001" lon="11.682089487954809"><ele>534.0</ele><time>2026-04-05T16:38:07Z</time></trkpt><trkpt lat="43.81255221395784" lon="11.681910477350765"><ele>531.6666666666666</ele><time>2026-04-05T16:38:08Z</time></trkpt><trkpt lat="43.812609927224706" lon="11.681718671418613"><ele>529.3333333333333</ele><time>2026-04-05T16:38:09Z</time></trkpt><trkpt lat="43.81265296455512" lon="11.681511718533386"><ele>527.0</ele><time>2026-04-05T16:38:10Z</time></trkpt><trkpt lat="43.81272616881648" lon="11.681315701339454"><ele>537.3333333333333</ele><time>2026-04-05T16:38:11Z</time></trkpt><trkpt lat="43.812785871532796" lon="11.6811135399812"><ele>547.6666666666666</ele><time>2026-04-05T16:38:12Z</time></trkpt><trkpt lat="43.81284688127781" lon="11.680922242249066"><ele>558.0</ele><time>2026-04-05T16:38:13Z</time></trkpt><trkpt lat="43.81292135325598" lon="11.680737212313254"><ele>558.0</ele><time>2026-04-05T16:38:14Z</time></trkpt><trkpt lat="43.81300226444958" lon="11.68053637841119"><ele>558.0</ele><time>2026-04-05T16:38:15Z</time></trkpt><trkpt lat="43.81310613052155" lon="11.680359544665519"><ele>558.0</ele><time>2026-04-05T16:38:16Z</time></trkpt><trkpt lat="43.81321402445577" lon="11.680179561199548"><ele>562.3333333333334</ele><time>2026-04-05T16:38:17Z</time></trkpt><trkpt lat="43.813324501522125" lon="11.6799970799807"><ele>566.6666666666667</ele><time>2026-04-05T16:38:18Z</time></trkpt><trkpt lat="43.81343556926867" lon="11.679805447681451"><ele>571.0</ele><time>2026-04-05T16:38:19Z</time></trkpt><trkpt lat="43.81354659950429" lon="11.679604529528424"><ele>565.6666666666667</ele><time>2026-04-05T16:38:20Z</time></trkpt><trkpt lat="43.813663144117406" lon="11.67940231319444"><ele>560.3333333333334</ele><time>2026-04-05T16:38:21Z</time></trkpt><trkpt lat="43.81378141288865" lon="11.679197040763082"><ele>555.0</ele><time>2026-04-05T16:38:22Z</time></trkpt><trkpt lat="43.81389990647759" lon="11.679002275623375"><ele>555.0</ele><time>2026-04-05T16:38:23Z</time></trkpt><trkpt lat="43.814007528128805" lon="11.678808599006008"><ele>555.0</ele><time>2026-04-05T16:38:24Z</time></trkpt><trkpt lat="43.81410259967759" lon="11.678643525368981"><ele>555.0</ele><time>2026-04-05T16:38:25Z</time></trkpt><trkpt lat="43.81420912346332" lon="11.678481426921666"><ele>560.3333333333334</ele><time>2026-04-05T16:38:26Z</time></trkpt><trkpt lat="43.814350411498964" lon="11.678370246688194"><ele>565.6666666666667</ele><time>2026-04-05T16:38:27Z</time></trkpt><trkpt lat="43.81448920978874" lon="11.678285622190206"><ele>571.0</ele><time>2026-04-05T16:38:28Z</time></trkpt><trkpt lat="43.81462176093306" lon="11.678198840645754"><ele>571.0</ele><time>2026-04-05T16:38:29Z</time></trkpt><trkpt lat="43.81474569818571" lon="11.678144988197712"><ele>571.0</ele><time>2026-04-05T16:38:30Z</time></trkpt><trkpt lat="43.814838273674155" lon="11.678058159675686"><ele>571.0</ele><time>2026-04-05T16:38:31Z</time></trkpt><trkpt lat="43.81488104051907" lon="11.677920760038194"><ele>571.0</ele><time>2026-04-05T16:38:32Z</time></trkpt><trkpt lat="43.81487433629371" lon="11.677769970863649"><ele>568.5</ele><time>2026-04-05T16:38:33Z</time></trkpt><trkpt lat="43.814862263067376" lon="11.67761355973304"><ele>566.0</ele><time>2026-04-05T16:38:34Z</time></trkpt><trkpt lat="43.81488010877699" lon="11.677451707075482"><ele>563.5</ele><time>2026-04-05T16:38:35Z</time></trkpt><trkpt lat="43.81492484361038" lon="11.67728207937367"><ele>561.0</ele><time>2026-04-05T16:38:36Z</time></trkpt><trkpt lat="43.81499547660308" lon="11.677117446395187"><ele>561.0</ele><time>2026-04-05T16:38:37Z</time></trkpt><trkpt lat="43.815067144339345" lon="11.67696209908304"><ele>561.0</ele><time>2026-04-05T16:38:38Z</time></trkpt><trkpt lat="43.81514681692536" lon="11.676806336691532"><ele>561.0</ele><time>2026-04-05T16:38:39Z</time></trkpt><trkpt lat="43.81524545713938" lon="11.67667592237106"><ele>561.0</ele><time>2026-04-05T16:38:40Z</time></trkpt><trkpt lat="43.81537845661709" lon="11.67663071737361"><ele>566.0</ele><time>2026-04-05T16:38:41Z</time></trkpt><trkpt lat="43.815520819814445" lon="11.67659624532339"><ele>571.0</ele><time>2026-04-05T16:38:42Z</time></trkpt><trkpt lat="43.815663906465524" lon="11.676518898696068"><ele>576.0</ele><time>2026-04-05T16:38:43Z</time></trkpt><trkpt lat="43.81578796603072" lon="11.67640364086352"><ele>581.0</ele><time>2026-04-05T16:38:44Z</time></trkpt><trkpt lat="43.81592391399478" lon="11.676295903882126"><ele>582.75</ele><time>2026-04-05T16:38:45Z</time></trkpt><trkpt lat="43.8160583147981" lon="11.676190735979038"><ele>584.5</ele><time>2026-04-05T16:38:46Z</time></trkpt><trkpt lat="43.81618315394794" lon="11.676085203209865"><ele>586.25</ele><time>2026-04-05T16:38:47Z</time></trkpt><trkpt lat="43.816303877462786" lon="11.675980365323552"><ele>588.0</ele><time>2026-04-05T16:38:48Z</time></trkpt><trkpt lat="43.81641159457916" lon="11.675864978051209"><ele>588.0</ele><time>2026-04-05T16:38:49Z</time></trkpt><trkpt lat="43.8164958922936" lon="11.675711951342565"><ele>588.0</ele><time>2026-04-05T16:38:50Z</time></trkpt><trkpt lat="43.81655048003665" lon="11.67553029206217"><ele>588.0</ele><time>2026-04-05T16:38:51Z</time></trkpt><trkpt lat="43.816573727581115" lon="11.675345859296254"><ele>588.0</ele><time>2026-04-05T16:38:52Z</time></trkpt><trkpt lat="43.81659125276689" lon="11.675166502646526"><ele>585.25</ele><time>2026-04-05T16:38:53Z</time></trkpt><trkpt lat="43.816639206367014" lon="11.674995939489895"><ele>582.5</ele><time>2026-04-05T16:38:54Z</time></trkpt><trkpt lat="43.81671947751246" lon="11.674864638858203"><ele>579.75</ele><time>2026-04-05T16:38:55Z</time></trkpt><trkpt lat="43.81682598327092" lon="11.674751778316102"><ele>577.0</ele><time>2026-04-05T16:38:56Z</time></trkpt><trkpt lat="43.81695257351966" lon="11.674665774373155"><ele>581.0</ele><time>2026-04-05T16:38:57Z</time></trkpt><trkpt lat="43.817051582579886" lon="11.674534229384724"><ele>585.0</ele><time>2026-04-05T16:38:58Z</time></trkpt><trkpt lat="43.81713912185098" lon="11.674395142130171"><ele>589.0</ele><time>2026-04-05T16:38:59Z</time></trkpt><trkpt lat="43.817205008156805" lon="11.674232024256954"><ele>593.0</ele><time>2026-04-05T16:38:59.999Z</time></trkpt><trkpt lat="43.817252766883115" lon="11.674053814623507"><ele>593.0</ele><time>2026-04-05T16:39:00.999Z</time></trkpt><trkpt lat="43.81730763133153" lon="11.673886369842156"><ele>593.0</ele><time>2026-04-05T16:39:01.999Z</time></trkpt><trkpt lat="43.81737198250196" lon="11.673730304712775"><ele>593.0</ele><time>2026-04-05T16:39:02.999Z</time></trkpt><trkpt lat="43.81743104462697" lon="11.673584162962955"><ele>593.0</ele><time>2026-04-05T16:39:03.999Z</time></trkpt><trkpt lat="43.817483333861375" lon="11.67344976017038"><ele>591.0</ele><time>2026-04-05T16:39:04.999Z</time></trkpt><trkpt lat="43.81751840184912" lon="11.673309914889584"><ele>589.0</ele><time>2026-04-05T16:39:05.999Z</time></trkpt><trkpt lat="43.81752205835456" lon="11.673158786821947"><ele>587.0</ele><time>2026-04-05T16:39:06.999Z</time></trkpt><trkpt lat="43.81749209945529" lon="11.673004496393906"><ele>585.0</ele><time>2026-04-05T16:39:07.999Z</time></trkpt><trkpt lat="43.81743764783033" lon="11.672855971276654"><ele>585.8</ele><time>2026-04-05T16:39:08.999Z</time></trkpt><trkpt lat="43.81737993152645" lon="11.672709377617418"><ele>586.6</ele><time>2026-04-05T16:39:09.999Z</time></trkpt><trkpt lat="43.8173284565389" lon="11.672564931901027"><ele>587.4</ele><time>2026-04-05T16:39:10.999Z</time></trkpt><trkpt lat="43.817285076167245" lon="11.672426924927393"><ele>588.2</ele><time>2026-04-05T16:39:11.999Z</time></trkpt><trkpt lat="43.81725131066175" lon="11.67229341531038"><ele>589.0</ele><time>2026-04-05T16:39:12.999Z</time></trkpt><trkpt lat="43.817214055813885" lon="11.67217298837993"><ele>589.0</ele><time>2026-04-05T16:39:13.999Z</time></trkpt><trkpt lat="43.81718743118802" lon="11.672053204642603"><ele>589.0</ele><time>2026-04-05T16:39:14.999Z</time></trkpt><trkpt lat="43.81718134225179" lon="11.671930343914497"><ele>589.0</ele><time>2026-04-05T16:39:15.999Z</time></trkpt><trkpt lat="43.81720019563957" lon="11.671813974183369"><ele>589.0</ele><time>2026-04-05T16:39:16.999Z</time></trkpt><trkpt lat="43.81723261282627" lon="11.67170706304589"><ele>589.0</ele><time>2026-04-05T16:39:17.999Z</time></trkpt><trkpt lat="43.81727383665062" lon="11.671610756442812"><ele>589.0</ele><time>2026-04-05T16:39:18.999Z</time></trkpt><trkpt lat="43.817314477644175" lon="11.671509496413696"><ele>589.2</ele><time>2026-04-05T16:39:19.999Z</time></trkpt><trkpt lat="43.817354372250506" lon="11.67140252311644"><ele>589.4</ele><time>2026-04-05T16:39:20.999Z</time></trkpt><trkpt lat="43.81739882744836" lon="11.671295916421514"><ele>589.6</ele><time>2026-04-05T16:39:21.999Z</time></trkpt><trkpt lat="43.817451977694674" lon="11.671190789991543"><ele>589.8</ele><time>2026-04-05T16:39:22.999Z</time></trkpt><trkpt lat="43.81747947425767" lon="11.671069723912934"><ele>590.0</ele><time>2026-04-05T16:39:23.999Z</time></trkpt><trkpt lat="43.81749584261372" lon="11.670944091517384"><ele>587.8</ele><time>2026-04-05T16:39:24.999Z</time></trkpt><trkpt lat="43.817511822120544" lon="11.67082640721829"><ele>585.6</ele><time>2026-04-05T16:39:25.999Z</time></trkpt><trkpt lat="43.817523909535254" lon="11.670710329802185"><ele>583.4</ele><time>2026-04-05T16:39:26.999Z</time></trkpt><trkpt lat="43.817542915471265" lon="11.67058475001883"><ele>581.2</ele><time>2026-04-05T16:39:27.999Z</time></trkpt><trkpt lat="43.81756418695422" lon="11.670452946720149"><ele>579.0</ele><time>2026-04-05T16:39:29Z</time></trkpt><trkpt lat="43.81759052070583" lon="11.670309816478241"><ele>577.75</ele><time>2026-04-05T16:39:30Z</time></trkpt><trkpt lat="43.81761580055056" lon="11.670161736581116"><ele>576.5</ele><time>2026-04-05T16:39:31Z</time></trkpt><trkpt lat="43.81763571098013" lon="11.670008959074746"><ele>575.25</ele><time>2026-04-05T16:39:32Z</time></trkpt><trkpt lat="43.81765480038376" lon="11.66985057419888"><ele>574.0</ele><time>2026-04-05T16:39:33Z</time></trkpt><trkpt lat="43.81767800724999" lon="11.669682057024113"><ele>577.5</ele><time>2026-04-05T16:39:34Z</time></trkpt><trkpt lat="43.81770131598465" lon="11.669514439076298"><ele>581.0</ele><time>2026-04-05T16:39:35Z</time></trkpt><trkpt lat="43.81772683876238" lon="11.669342489890685"><ele>584.5</ele><time>2026-04-05T16:39:36Z</time></trkpt><trkpt lat="43.81776000537909" lon="11.669174564002025"><ele>588.0</ele><time>2026-04-05T16:39:37Z</time></trkpt><trkpt lat="43.81781486097531" lon="11.669029227874203"><ele>588.0</ele><time>2026-04-05T16:39:38Z</time></trkpt><trkpt lat="43.81790148380285" lon="11.66891223689277"><ele>588.0</ele><time>2026-04-05T16:39:39Z</time></trkpt><trkpt lat="43.81801130986103" lon="11.668842222931481"><ele>588.0</ele><time>2026-04-05T16:39:40Z</time></trkpt><trkpt lat="43.81812177455958" lon="11.668840458526267"><ele>588.0</ele><time>2026-04-05T16:39:41Z</time></trkpt><trkpt lat="43.818237891707405" lon="11.668854325491509"><ele>588.0</ele><time>2026-04-05T16:39:42Z</time></trkpt><trkpt lat="43.81835762428527" lon="11.668866909587935"><ele>588.0</ele><time>2026-04-05T16:39:43Z</time></trkpt><trkpt lat="43.8184808219621" lon="11.668877533617401"><ele>588.0</ele><time>2026-04-05T16:39:44Z</time></trkpt><trkpt lat="43.81860654675311" lon="11.668884161193347"><ele>588.0</ele><time>2026-04-05T16:39:45Z</time></trkpt><trkpt lat="43.8187321784105" lon="11.668864869956458"><ele>586.0</ele><time>2026-04-05T16:39:46Z</time></trkpt><trkpt lat="43.818863465997566" lon="11.66883599301217"><ele>584.0</ele><time>2026-04-05T16:39:47Z</time></trkpt><trkpt lat="43.81897623357271" lon="11.668725058816644"><ele>582.0</ele><time>2026-04-05T16:39:48Z</time></trkpt><trkpt lat="43.81908280458355" lon="11.668614729269834"><ele>580.0</ele><time>2026-04-05T16:39:49Z</time></trkpt><trkpt lat="43.81917833356467" lon="11.668487428948989"><ele>580.0</ele><time>2026-04-05T16:39:50Z</time></trkpt><trkpt lat="43.819270109836694" lon="11.668357746100396"><ele>580.0</ele><time>2026-04-05T16:39:51Z</time></trkpt><trkpt lat="43.81935326324701" lon="11.668228203410461"><ele>580.0</ele><time>2026-04-05T16:39:52Z</time></trkpt><trkpt lat="43.81943198479338" lon="11.668089209836735"><ele>580.0</ele><time>2026-04-05T16:39:53Z</time></trkpt><trkpt lat="43.819448577105675" lon="11.667907968942949"><ele>586.25</ele><time>2026-04-05T16:39:54Z</time></trkpt><trkpt lat="43.819452130283" lon="11.667725685610613"><ele>592.5</ele><time>2026-04-05T16:39:55Z</time></trkpt><trkpt lat="43.81943437133089" lon="11.66755297948665"><ele>598.75</ele><time>2026-04-05T16:39:56Z</time></trkpt><trkpt lat="43.8194457350863" lon="11.667377759265094"><ele>605.0</ele><time>2026-04-05T16:39:57Z</time></trkpt><trkpt lat="43.819415940692295" lon="11.667195021293205"><ele>605.0</ele><time>2026-04-05T16:39:58Z</time></trkpt><trkpt lat="43.819390534112046" lon="11.667017169319244"><ele>605.0</ele><time>2026-04-05T16:39:59Z</time></trkpt><trkpt lat="43.81936777708049" lon="11.666837953214797"><ele>605.0</ele><time>2026-04-05T16:40:00Z</time></trkpt><trkpt lat="43.819345198140496" lon="11.666661242939048"><ele>605.0</ele><time>2026-04-05T16:40:01Z</time></trkpt><trkpt lat="43.81932866703252" lon="11.666489317599552"><ele>605.0</ele><time>2026-04-05T16:40:02Z</time></trkpt><trkpt lat="43.819328240996036" lon="11.666314942775122"><ele>605.0</ele><time>2026-04-05T16:40:03Z</time></trkpt><trkpt lat="43.81937032238734" lon="11.666160693381581"><ele>605.0</ele><time>2026-04-05T16:40:04Z</time></trkpt><trkpt lat="43.81942701402191" lon="11.666040525353894"><ele>605.0</ele><time>2026-04-05T16:40:05Z</time></trkpt><trkpt lat="43.819493178803064" lon="11.665936737336887"><ele>605.0</ele><time>2026-04-05T16:40:06Z</time></trkpt><trkpt lat="43.81955618640349" lon="11.665833167557143"><ele>603.8</ele><time>2026-04-05T16:40:07Z</time></trkpt><trkpt lat="43.81961107938019" lon="11.665710272646308"><ele>602.6</ele><time>2026-04-05T16:40:08Z</time></trkpt><trkpt lat="43.819691293756975" lon="11.665614561258762"><ele>601.4</ele><time>2026-04-05T16:40:09Z</time></trkpt><trkpt lat="43.819754429345984" lon="11.665495626534122"><ele>600.2</ele><time>2026-04-05T16:40:10Z</time></trkpt><trkpt lat="43.819795197731" lon="11.665345457895796"><ele>599.0</ele><time>2026-04-05T16:40:11Z</time></trkpt><trkpt lat="43.81984733132851" lon="11.665191596186332"><ele>595.5</ele><time>2026-04-05T16:40:12Z</time></trkpt><trkpt lat="43.81989362499178" lon="11.665035219022338"><ele>592.0</ele><time>2026-04-05T16:40:13Z</time></trkpt><trkpt lat="43.81994481255525" lon="11.664885412366433"><ele>588.5</ele><time>2026-04-05T16:40:14Z</time></trkpt><trkpt lat="43.820018132149094" lon="11.66475760487354"><ele>585.0</ele><time>2026-04-05T16:40:15Z</time></trkpt><trkpt lat="43.8200890285507" lon="11.66463899325321"><ele>589.0</ele><time>2026-04-05T16:40:16Z</time></trkpt><trkpt lat="43.820188772812806" lon="11.664566258387618"><ele>593.0</ele><time>2026-04-05T16:40:17Z</time></trkpt><trkpt lat="43.82029902526499" lon="11.664529141587092"><ele>597.0</ele><time>2026-04-05T16:40:18Z</time></trkpt><trkpt lat="43.82041242663192" lon="11.664532012540098"><ele>601.0</ele><time>2026-04-05T16:40:19Z</time></trkpt><trkpt lat="43.82054317557424" lon="11.664588676031595"><ele>601.0</ele><time>2026-04-05T16:40:20Z</time></trkpt><trkpt lat="43.82063297662591" lon="11.664670299539436"><ele>601.0</ele><time>2026-04-05T16:40:21Z</time></trkpt><trkpt lat="43.82073011050084" lon="11.664779186873092"><ele>601.0</ele><time>2026-04-05T16:40:22Z</time></trkpt><trkpt lat="43.820828076020284" lon="11.6648762306269"><ele>601.0</ele><time>2026-04-05T16:40:23Z</time></trkpt><trkpt lat="43.820924536736385" lon="11.664956753863347"><ele>604.0</ele><time>2026-04-05T16:40:24Z</time></trkpt><trkpt lat="43.821029511539244" lon="11.665003835834522"><ele>607.0</ele><time>2026-04-05T16:40:25Z</time></trkpt><trkpt lat="43.82115170239211" lon="11.664991388848383"><ele>610.0</ele><time>2026-04-05T16:40:26Z</time></trkpt><trkpt lat="43.821274330276694" lon="11.664949742630386"><ele>613.0</ele><time>2026-04-05T16:40:27Z</time></trkpt><trkpt lat="43.821375370623315" lon="11.664873319353463"><ele>613.0</ele><time>2026-04-05T16:40:28Z</time></trkpt><trkpt lat="43.821462802240134" lon="11.664747484315145"><ele>613.0</ele><time>2026-04-05T16:40:29Z</time></trkpt><trkpt lat="43.82152118980814" lon="11.664591842146654"><ele>613.0</ele><time>2026-04-05T16:40:30Z</time></trkpt><trkpt lat="43.82156661036686" lon="11.664422851295582"><ele>613.0</ele><time>2026-04-05T16:40:31Z</time></trkpt><trkpt lat="43.82161715119836" lon="11.664257649351272"><ele>614.75</ele><time>2026-04-05T16:40:32Z</time></trkpt><trkpt lat="43.82167012968264" lon="11.66409439214776"><ele>616.5</ele><time>2026-04-05T16:40:33Z</time></trkpt><trkpt lat="43.821735512592056" lon="11.6639318725479"><ele>618.25</ele><time>2026-04-05T16:40:34Z</time></trkpt><trkpt lat="43.82181653427636" lon="11.663783130443447"><ele>620.0</ele><time>2026-04-05T16:40:35Z</time></trkpt><trkpt lat="43.821936072284586" lon="11.663683122153572"><ele>612.0</ele><time>2026-04-05T16:40:36Z</time></trkpt><trkpt lat="43.82205658813166" lon="11.663586721416033"><ele>604.0</ele><time>2026-04-05T16:40:37Z</time></trkpt><trkpt lat="43.822176628878836" lon="11.663484995369156"><ele>596.0</ele><time>2026-04-05T16:40:38Z</time></trkpt><trkpt lat="43.82230639023096" lon="11.663404749685924"><ele>588.0</ele><time>2026-04-05T16:40:39Z</time></trkpt><trkpt lat="43.822442842283955" lon="11.663338067699327"><ele>588.0</ele><time>2026-04-05T16:40:40Z</time></trkpt><trkpt lat="43.82259035402917" lon="11.663325844329776"><ele>588.0</ele><time>2026-04-05T16:40:41Z</time></trkpt><trkpt lat="43.82273854435981" lon="11.663289482101211"><ele>588.0</ele><time>2026-04-05T16:40:42Z</time></trkpt><trkpt lat="43.82289375878311" lon="11.663278491346658"><ele>592.3333333333334</ele><time>2026-04-05T16:40:43Z</time></trkpt><trkpt lat="43.823047124922205" lon="11.663257908463418"><ele>596.6666666666667</ele><time>2026-04-05T16:40:44Z</time></trkpt><trkpt lat="43.823206566197676" lon="11.66322839981887"><ele>601.0</ele><time>2026-04-05T16:40:45Z</time></trkpt><trkpt lat="43.82337113384624" lon="11.663200250554723"><ele>603.0</ele><time>2026-04-05T16:40:46Z</time></trkpt><trkpt lat="43.82354306246928" lon="11.663177316735968"><ele>605.0</ele><time>2026-04-05T16:40:47Z</time></trkpt><trkpt lat="43.82370526857246" lon="11.663159908080747"><ele>607.0</ele><time>2026-04-05T16:40:48Z</time></trkpt><trkpt lat="43.82385376675394" lon="11.663144857004184"><ele>607.0</ele><time>2026-04-05T16:40:49Z</time></trkpt><trkpt lat="43.823996690915386" lon="11.663119156150694"><ele>607.0</ele><time>2026-04-05T16:40:50Z</time></trkpt><trkpt lat="43.82413903454098" lon="11.663082269755789"><ele>607.0</ele><time>2026-04-05T16:40:51Z</time></trkpt><trkpt lat="43.82425532413556" lon="11.662985617336762"><ele>607.0</ele><time>2026-04-05T16:40:52Z</time></trkpt><trkpt lat="43.824348633658744" lon="11.662838032937326"><ele>606.75</ele><time>2026-04-05T16:40:53Z</time></trkpt><trkpt lat="43.82440121355558" lon="11.662651179550677"><ele>606.5</ele><time>2026-04-05T16:40:54Z</time></trkpt><trkpt lat="43.82443165492568" lon="11.662446804412118"><ele>606.25</ele><time>2026-04-05T16:40:55Z</time></trkpt><trkpt lat="43.82445939203025" lon="11.662241059807696"><ele>606.0</ele><time>2026-04-05T16:40:56Z</time></trkpt><trkpt lat="43.824494394990936" lon="11.662064220015232"><ele>603.5</ele><time>2026-04-05T16:40:57Z</time></trkpt><trkpt lat="43.82455489832321" lon="11.661895380499427"><ele>601.0</ele><time>2026-04-05T16:40:58Z</time></trkpt><trkpt lat="43.824659110754524" lon="11.661771293770647"><ele>598.5</ele><time>2026-04-05T16:40:59Z</time></trkpt><trkpt lat="43.824774729488084" lon="11.661654253407782"><ele>596.0</ele><time>2026-04-05T16:41:00Z</time></trkpt><trkpt lat="43.824887653121294" lon="11.661514427498885"><ele>596.0</ele><time>2026-04-05T16:41:01Z</time></trkpt><trkpt lat="43.82501859467749" lon="11.66138552000056"><ele>596.0</ele><time>2026-04-05T16:41:02Z</time></trkpt><trkpt lat="43.825153067383255" lon="11.66124713688447"><ele>596.0</ele><time>2026-04-05T16:41:03Z</time></trkpt><trkpt lat="43.825281471325184" lon="11.66111076596754"><ele>598.6666666666666</ele><time>2026-04-05T16:41:04Z</time></trkpt><trkpt lat="43.825417607476176" lon="11.660971348473842"><ele>601.3333333333334</ele><time>2026-04-05T16:41:05Z</time></trkpt><trkpt lat="43.82555334136642" lon="11.660824411548795"><ele>604.0</ele><time>2026-04-05T16:41:06Z</time></trkpt><trkpt lat="43.82568705090317" lon="11.660681146233514"><ele>604.0</ele><time>2026-04-05T16:41:07Z</time></trkpt><trkpt lat="43.825796386305946" lon="11.660526210311597"><ele>604.0</ele><time>2026-04-05T16:41:08Z</time></trkpt><trkpt lat="43.82587510426267" lon="11.660332923529175"><ele>604.0</ele><time>2026-04-05T16:41:09Z</time></trkpt><trkpt lat="43.82592800987829" lon="11.660115155945967"><ele>604.6666666666667</ele><time>2026-04-05T16:41:10Z</time></trkpt><trkpt lat="43.82596130659677" lon="11.659883585930254"><ele>605.3333333333334</ele><time>2026-04-05T16:41:11Z</time></trkpt><trkpt lat="43.8259932074742" lon="11.65966065557101"><ele>606.0</ele><time>2026-04-05T16:41:12Z</time></trkpt><trkpt lat="43.826030423303926" lon="11.659445094198258"><ele>606.0</ele><time>2026-04-05T16:41:13Z</time></trkpt><trkpt lat="43.82607221184007" lon="11.6592595588177"><ele>606.0</ele><time>2026-04-05T16:41:14Z</time></trkpt><trkpt lat="43.82611267567263" lon="11.659108417968696"><ele>606.0</ele><time>2026-04-05T16:41:15Z</time></trkpt><trkpt lat="43.82618475670763" lon="11.658955110709272"><ele>606.0</ele><time>2026-04-05T16:41:16Z</time></trkpt><trkpt lat="43.82630197478223" lon="11.658835428477563"><ele>606.0</ele><time>2026-04-05T16:41:17Z</time></trkpt><trkpt lat="43.8264317173232" lon="11.658740777137462"><ele>606.0</ele><time>2026-04-05T16:41:18Z</time></trkpt><trkpt lat="43.82656164209668" lon="11.658674751333502"><ele>606.0</ele><time>2026-04-05T16:41:19Z</time></trkpt><trkpt lat="43.826699230646355" lon="11.658676753541652"><ele>606.0</ele><time>2026-04-05T16:41:20Z</time></trkpt><trkpt lat="43.82682317308105" lon="11.658756627787357"><ele>605.6666666666666</ele><time>2026-04-05T16:41:21Z</time></trkpt><trkpt lat="43.826968345486" lon="11.658832967366259"><ele>605.3333333333333</ele><time>2026-04-05T16:41:22Z</time></trkpt><trkpt lat="43.827118446146265" lon="11.658913974083674"><ele>605.0</ele><time>2026-04-05T16:41:23Z</time></trkpt><trkpt lat="43.82725599207083" lon="11.658983471190009"><ele>605.0</ele><time>2026-04-05T16:41:24Z</time></trkpt><trkpt lat="43.8273968742445" lon="11.65902958040163"><ele>605.0</ele><time>2026-04-05T16:41:25Z</time></trkpt><trkpt lat="43.827541418805296" lon="11.65906716262978"><ele>605.0</ele><time>2026-04-05T16:41:26Z</time></trkpt><trkpt lat="43.82769413939281" lon="11.659069895508482"><ele>605.0</ele><time>2026-04-05T16:41:27Z</time></trkpt><trkpt lat="43.82784994809045" lon="11.659082995819903"><ele>604.0</ele><time>2026-04-05T16:41:28Z</time></trkpt><trkpt lat="43.82800536586142" lon="11.659082995820794"><ele>603.0</ele><time>2026-04-05T16:41:29Z</time></trkpt><trkpt lat="43.82816520227901" lon="11.65908486550499"><ele>602.0</ele><time>2026-04-05T16:41:29.999Z</time></trkpt><trkpt lat="43.8283124114535" lon="11.659055457447492"><ele>602.0</ele><time>2026-04-05T16:41:30.999Z</time></trkpt><trkpt lat="43.82842876188438" lon="11.659046949508394"><ele>602.0</ele><time>2026-04-05T16:41:31.999Z</time></trkpt><trkpt lat="43.82862867729976" lon="11.659058562728163"><ele>602.0</ele><time>2026-04-05T16:41:32.999Z</time></trkpt><trkpt lat="43.82878232463683" lon="11.659070398757907"><ele>600.0</ele><time>2026-04-05T16:41:33.999Z</time></trkpt><trkpt lat="43.82891790948524" lon="11.659150276338504"><ele>598.0</ele><time>2026-04-05T16:41:35Z</time></trkpt><trkpt lat="43.82902874854563" lon="11.659258273100884"><ele>596.0</ele><time>2026-04-05T16:41:36Z</time></trkpt><trkpt lat="43.829132413583196" lon="11.659388119987776"><ele>594.0</ele><time>2026-04-05T16:41:37Z</time></trkpt><trkpt lat="43.82924866941917" lon="11.65951296185537"><ele>604.75</ele><time>2026-04-05T16:41:38Z</time></trkpt><trkpt lat="43.82936379046566" lon="11.659587719319148"><ele>615.5</ele><time>2026-04-05T16:41:39Z</time></trkpt><trkpt lat="43.82948917411395" lon="11.65963460495899"><ele>626.25</ele><time>2026-04-05T16:41:40Z</time></trkpt><trkpt lat="43.82962527399055" lon="11.659610164853465"><ele>637.0</ele><time>2026-04-05T16:41:41Z</time></trkpt><trkpt lat="43.82975275775336" lon="11.659531913937577"><ele>629.5</ele><time>2026-04-05T16:41:42Z</time></trkpt><trkpt lat="43.829867925889374" lon="11.659410705109893"><ele>622.0</ele><time>2026-04-05T16:41:43Z</time></trkpt><trkpt lat="43.829976785938506" lon="11.659286681316031"><ele>614.5</ele><time>2026-04-05T16:41:44Z</time></trkpt><trkpt lat="43.83009136513653" lon="11.659167855826544"><ele>607.0</ele><time>2026-04-05T16:41:45Z</time></trkpt><trkpt lat="43.83020496002646" lon="11.65908977124427"><ele>607.0</ele><time>2026-04-05T16:41:46Z</time></trkpt><trkpt lat="43.83031609524654" lon="11.659031160647435"><ele>607.0</ele><time>2026-04-05T16:41:47Z</time></trkpt><trkpt lat="43.830425027619725" lon="11.65901211579875"><ele>607.0</ele><time>2026-04-05T16:41:48Z</time></trkpt><trkpt lat="43.830526703407266" lon="11.659064340244129"><ele>607.0</ele><time>2026-04-05T16:41:49Z</time></trkpt><trkpt lat="43.83064046204381" lon="11.659108752015392"><ele>607.0</ele><time>2026-04-05T16:41:50Z</time></trkpt><trkpt lat="43.83075791342182" lon="11.659104200764878"><ele>607.0</ele><time>2026-04-05T16:41:51Z</time></trkpt><trkpt lat="43.8308753977776" lon="11.659094054021779"><ele>607.0</ele><time>2026-04-05T16:41:52Z</time></trkpt><trkpt lat="43.8309947489258" lon="11.65906081110533"><ele>607.0</ele><time>2026-04-05T16:41:53Z</time></trkpt><trkpt lat="43.831123128350754" lon="11.6590540916187"><ele>605.5</ele><time>2026-04-05T16:41:54Z</time></trkpt><trkpt lat="43.83125061659458" lon="11.659042890132788"><ele>604.0</ele><time>2026-04-05T16:41:55Z</time></trkpt><trkpt lat="43.831368342992135" lon="11.659081326195116"><ele>602.5</ele><time>2026-04-05T16:41:56Z</time></trkpt><trkpt lat="43.83147013056121" lon="11.659157089478487"><ele>601.0</ele><time>2026-04-05T16:41:57Z</time></trkpt><trkpt lat="43.83156169570344" lon="11.659237327177156"><ele>601.0</ele><time>2026-04-05T16:41:58Z</time></trkpt><trkpt lat="43.831659049599125" lon="11.659327146953668"><ele>601.0</ele><time>2026-04-05T16:41:59Z</time></trkpt><trkpt lat="43.83175812209327" lon="11.659425657814381"><ele>601.0</ele><time>2026-04-05T16:42:00Z</time></trkpt><trkpt lat="43.83186233242587" lon="11.659529277317663"><ele>601.0</ele><time>2026-04-05T16:42:01Z</time></trkpt><trkpt lat="43.8319659083477" lon="11.659624509419178"><ele>602.5</ele><time>2026-04-05T16:42:02Z</time></trkpt><trkpt lat="43.832076451853325" lon="11.659696936504233"><ele>604.0</ele><time>2026-04-05T16:42:03Z</time></trkpt><trkpt lat="43.83218482592231" lon="11.65976433161512"><ele>605.5</ele><time>2026-04-05T16:42:04Z</time></trkpt><trkpt lat="43.832303487732375" lon="11.659783496705233"><ele>607.0</ele><time>2026-04-05T16:42:05Z</time></trkpt><trkpt lat="43.83242544320584" lon="11.65975632622448"><ele>607.0</ele><time>2026-04-05T16:42:06Z</time></trkpt><trkpt lat="43.832541917910426" lon="11.659697764450367"><ele>607.0</ele><time>2026-04-05T16:42:07Z</time></trkpt><trkpt lat="43.832662616650786" lon="11.659645437714351"><ele>607.0</ele><time>2026-04-05T16:42:08Z</time></trkpt><trkpt lat="43.83279042467611" lon="11.659624153313823"><ele>607.0</ele><time>2026-04-05T16:42:09Z</time></trkpt><trkpt lat="43.832914478703216" lon="11.659583787797908"><ele>605.25</ele><time>2026-04-05T16:42:10Z</time></trkpt><trkpt lat="43.833042125505685" lon="11.659543512469318"><ele>603.5</ele><time>2026-04-05T16:42:11Z</time></trkpt><trkpt lat="43.83317387276091" lon="11.659501943357704"><ele>601.75</ele><time>2026-04-05T16:42:12Z</time></trkpt><trkpt lat="43.83330903110673" lon="11.659437637946743"><ele>600.0</ele><time>2026-04-05T16:42:13Z</time></trkpt><trkpt lat="43.83345092407232" lon="11.659407838376659"><ele>601.6666666666666</ele><time>2026-04-05T16:42:14Z</time></trkpt><trkpt lat="43.833595484503924" lon="11.659366490425146"><ele>603.3333333333333</ele><time>2026-04-05T16:42:15Z</time></trkpt><trkpt lat="43.833746315026794" lon="11.659320508306482"><ele>605.0</ele><time>2026-04-05T16:42:16Z</time></trkpt><trkpt lat="43.83389245534249" lon="11.659269709845647"><ele>605.0</ele><time>2026-04-05T16:42:17Z</time></trkpt><trkpt lat="43.83404010219893" lon="11.659215187485257"><ele>605.0</ele><time>2026-04-05T16:42:18Z</time></trkpt><trkpt lat="43.8341880285041" lon="11.659190375871026"><ele>605.0</ele><time>2026-04-05T16:42:19Z</time></trkpt><trkpt lat="43.834327928687024" lon="11.659182499460373"><ele>605.0</ele><time>2026-04-05T16:42:20Z</time></trkpt><trkpt lat="43.8344700716791" lon="11.659211448684959"><ele>606.75</ele><time>2026-04-05T16:42:21Z</time></trkpt><trkpt lat="43.83461390520878" lon="11.65923636328523"><ele>608.5</ele><time>2026-04-05T16:42:22Z</time></trkpt><trkpt lat="43.834753493039344" lon="11.659276629163838"><ele>610.25</ele><time>2026-04-05T16:42:23Z</time></trkpt><trkpt lat="43.83489521075374" lon="11.659285559345015"><ele>612.0</ele><time>2026-04-05T16:42:24Z</time></trkpt><trkpt lat="43.83503035015356" lon="11.659252010709864"><ele>616.5</ele><time>2026-04-05T16:42:25Z</time></trkpt><trkpt lat="43.83516187183083" lon="11.659165431038359"><ele>621.0</ele><time>2026-04-05T16:42:26Z</time></trkpt><trkpt lat="43.835270948283245" lon="11.659033604351942"><ele>625.5</ele><time>2026-04-05T16:42:27Z</time></trkpt><trkpt lat="43.835361831013174" lon="11.658879557569124"><ele>630.0</ele><time>2026-04-05T16:42:28Z</time></trkpt><trkpt lat="43.835455241332255" lon="11.658730196113863"><ele>630.0</ele><time>2026-04-05T16:42:29Z</time></trkpt><trkpt lat="43.83557149517657" lon="11.65861852103701"><ele>630.0</ele><time>2026-04-05T16:42:30Z</time></trkpt><trkpt lat="43.83569083870281" lon="11.658534488707366"><ele>630.0</ele><time>2026-04-05T16:42:31Z</time></trkpt><trkpt lat="43.835825728773735" lon="11.658481427356964"><ele>630.0</ele><time>2026-04-05T16:42:32Z</time></trkpt><trkpt lat="43.83596339957827" lon="11.65843874892627"><ele>628.25</ele><time>2026-04-05T16:42:33Z</time></trkpt><trkpt lat="43.83610173669363" lon="11.658380316903221"><ele>626.5</ele><time>2026-04-05T16:42:34Z</time></trkpt><trkpt lat="43.836238557614095" lon="11.658342082228163"><ele>624.75</ele><time>2026-04-05T16:42:35Z</time></trkpt><trkpt lat="43.836379699972646" lon="11.658293264030435"><ele>623.0</ele><time>2026-04-05T16:42:36Z</time></trkpt><trkpt lat="43.836522342160315" lon="11.658244279892521"><ele>623.0</ele><time>2026-04-05T16:42:37Z</time></trkpt><trkpt lat="43.8366615645833" lon="11.658193464970523"><ele>623.0</ele><time>2026-04-05T16:42:38Z</time></trkpt><trkpt lat="43.8368031247289" lon="11.65814553130381"><ele>623.0</ele><time>2026-04-05T16:42:39Z</time></trkpt><trkpt lat="43.83693569419766" lon="11.658076680611124"><ele>623.0</ele><time>2026-04-05T16:42:40Z</time></trkpt><trkpt lat="43.8370624448666" lon="11.657980107363008"><ele>625.0</ele><time>2026-04-05T16:42:41Z</time></trkpt><trkpt lat="43.83715937013431" lon="11.657837019249678"><ele>627.0</ele><time>2026-04-05T16:42:42Z</time></trkpt><trkpt lat="43.83722913888056" lon="11.657657599879242"><ele>629.0</ele><time>2026-04-05T16:42:43Z</time></trkpt><trkpt lat="43.83729634063229" lon="11.657479223732546"><ele>631.0</ele><time>2026-04-05T16:42:44Z</time></trkpt><trkpt lat="43.837366596771" lon="11.657288954047775"><ele>631.0</ele><time>2026-04-05T16:42:45Z</time></trkpt><trkpt lat="43.837447300449085" lon="11.657107596331695"><ele>631.0</ele><time>2026-04-05T16:42:46Z</time></trkpt><trkpt lat="43.83753008983589" lon="11.656926285349588"><ele>631.0</ele><time>2026-04-05T16:42:47Z</time></trkpt><trkpt lat="43.837611065935825" lon="11.656743792369477"><ele>635.6666666666667</ele><time>2026-04-05T16:42:48Z</time></trkpt><trkpt lat="43.83768991606296" lon="11.65656720641928"><ele>640.3333333333334</ele><time>2026-04-05T16:42:49Z</time></trkpt><trkpt lat="43.837768293417454" lon="11.656386736896586"><ele>645.0</ele><time>2026-04-05T16:42:50Z</time></trkpt><trkpt lat="43.83784548199078" lon="11.656209779349215"><ele>640.0</ele><time>2026-04-05T16:42:51Z</time></trkpt><trkpt lat="43.83792584954522" lon="11.656046354222692"><ele>635.0</ele><time>2026-04-05T16:42:52Z</time></trkpt><trkpt lat="43.838020856375394" lon="11.655919867991345"><ele>630.0</ele><time>2026-04-05T16:42:53Z</time></trkpt><trkpt lat="43.83814805154413" lon="11.655864784076396"><ele>625.0</ele><time>2026-04-05T16:42:54Z</time></trkpt><trkpt lat="43.838278569505725" lon="11.655851288172098"><ele>625.0</ele><time>2026-04-05T16:42:55Z</time></trkpt><trkpt lat="43.83842812836413" lon="11.655843340855814"><ele>625.0</ele><time>2026-04-05T16:42:56Z</time></trkpt><trkpt lat="43.8385738703447" lon="11.655839854080162"><ele>625.0</ele><time>2026-04-05T16:42:57Z</time></trkpt><trkpt lat="43.83872500558896" lon="11.655836240101065"><ele>625.0</ele><time>2026-04-05T16:42:58Z</time></trkpt><trkpt lat="43.83887839623009" lon="11.655812665293686"><ele>628.0</ele><time>2026-04-05T16:42:59Z</time></trkpt><trkpt lat="43.83903053952933" lon="11.655810503542462"><ele>631.0</ele><time>2026-04-05T16:43:00Z</time></trkpt><trkpt lat="43.83917309152672" lon="11.655809712691354"><ele>634.0</ele><time>2026-04-05T16:43:01Z</time></trkpt><trkpt lat="43.83931427124057" lon="11.655807066553901"><ele>637.0</ele><time>2026-04-05T16:43:02Z</time></trkpt><trkpt lat="43.83945061060436" lon="11.655810035730852"><ele>639.75</ele><time>2026-04-05T16:43:03Z</time></trkpt><trkpt lat="43.83957686776003" lon="11.655795875403625"><ele>642.5</ele><time>2026-04-05T16:43:04Z</time></trkpt><trkpt lat="43.83970140607233" lon="11.655771807597528"><ele>645.25</ele><time>2026-04-05T16:43:05Z</time></trkpt><trkpt lat="43.83983001874689" lon="11.65575117008423"><ele>648.0</ele><time>2026-04-05T16:43:06Z</time></trkpt><trkpt lat="43.83994260515192" lon="11.655653011825928"><ele>648.0</ele><time>2026-04-05T16:43:07Z</time></trkpt><trkpt lat="43.840045389962974" lon="11.655545781445621"><ele>648.0</ele><time>2026-04-05T16:43:08Z</time></trkpt><trkpt lat="43.84013381322609" lon="11.655411521444808"><ele>648.0</ele><time>2026-04-05T16:43:09Z</time></trkpt><trkpt lat="43.84021388697319" lon="11.655267650804463"><ele>648.0</ele><time>2026-04-05T16:43:10Z</time></trkpt><trkpt lat="43.840286008991995" lon="11.655119800905641"><ele>651.75</ele><time>2026-04-05T16:43:11Z</time></trkpt><trkpt lat="43.840358081687825" lon="11.654966652430302"><ele>655.5</ele><time>2026-04-05T16:43:12Z</time></trkpt><trkpt lat="43.84043384844312" lon="11.654814364195513"><ele>659.25</ele><time>2026-04-05T16:43:13Z</time></trkpt><trkpt lat="43.840516257995894" lon="11.654669064963167"><ele>663.0</ele><time>2026-04-05T16:43:14Z</time></trkpt><trkpt lat="43.8406091202455" lon="11.654532821608132"><ele>663.0</ele><time>2026-04-05T16:43:15Z</time></trkpt><trkpt lat="43.84071020607224" lon="11.654406722421614"><ele>663.0</ele><time>2026-04-05T16:43:16Z</time></trkpt><trkpt lat="43.840810147888526" lon="11.654279691585279"><ele>663.0</ele><time>2026-04-05T16:43:17Z</time></trkpt><trkpt lat="43.84090508668006" lon="11.65414998675975"><ele>663.0</ele><time>2026-04-05T16:43:18Z</time></trkpt><trkpt lat="43.84099796129911" lon="11.654017550753675"><ele>663.0</ele><time>2026-04-05T16:43:19Z</time></trkpt><trkpt lat="43.841091038919174" lon="11.653886110100176"><ele>663.0</ele><time>2026-04-05T16:43:20Z</time></trkpt><trkpt lat="43.841183708443026" lon="11.653758372634929"><ele>663.0</ele><time>2026-04-05T16:43:21Z</time></trkpt><trkpt lat="43.84127585158581" lon="11.65365222907363"><ele>663.0</ele><time>2026-04-05T16:43:22Z</time></trkpt><trkpt lat="43.84137704929987" lon="11.653575227271222"><ele>663.0</ele><time>2026-04-05T16:43:23Z</time></trkpt><trkpt lat="43.841488148102506" lon="11.653528036756391"><ele>663.0</ele><time>2026-04-05T16:43:24Z</time></trkpt><trkpt lat="43.841592729031454" lon="11.653497173897955"><ele>663.0</ele><time>2026-04-05T16:43:25Z</time></trkpt><trkpt lat="43.84168746515655" lon="11.653464481134113"><ele>663.0</ele><time>2026-04-05T16:43:26Z</time></trkpt><trkpt lat="43.841765545577495" lon="11.653408235554714"><ele>663.0</ele><time>2026-04-05T16:43:27Z</time></trkpt><trkpt lat="43.84182639183118" lon="11.653321690316032"><ele>663.0</ele><time>2026-04-05T16:43:28Z</time></trkpt><trkpt lat="43.841868347580565" lon="11.653211759893841"><ele>663.0</ele><time>2026-04-05T16:43:29Z</time></trkpt><trkpt lat="43.841908750965864" lon="11.653100391702065"><ele>663.0</ele><time>2026-04-05T16:43:30Z</time></trkpt><trkpt lat="43.84194950344175" lon="11.653002491961644"><ele>663.0</ele><time>2026-04-05T16:43:31Z</time></trkpt><trkpt lat="43.841837753000114" lon="11.65279630475488"><ele>663.0</ele><time>2026-04-05T16:43:32Z</time></trkpt><trkpt lat="43.84178849142419" lon="11.652645689434511"><ele>660.8</ele><time>2026-04-05T16:43:33Z</time></trkpt><trkpt lat="43.841744124880734" lon="11.652492006653741"><ele>658.5999999999999</ele><time>2026-04-05T16:43:34Z</time></trkpt><trkpt lat="43.84172287886153" lon="11.652327068246937"><ele>656.4000000000001</ele><time>2026-04-05T16:43:35Z</time></trkpt><trkpt lat="43.84167157448299" lon="11.652275983621765"><ele>654.2</ele><time>2026-04-05T16:43:36Z</time></trkpt><trkpt lat="43.84165462163138" lon="11.652142524440478"><ele>652.0</ele><time>2026-04-05T16:43:37Z</time></trkpt><trkpt lat="43.84166226401166" lon="11.652018823516794"><ele>653.8</ele><time>2026-04-05T16:43:38Z</time></trkpt><trkpt lat="43.841672626032164" lon="11.651896326206884"><ele>655.6</ele><time>2026-04-05T16:43:39Z</time></trkpt><trkpt lat="43.84168182389975" lon="11.651778856298096"><ele>657.4</ele><time>2026-04-05T16:43:40Z</time></trkpt><trkpt lat="43.84168583243209" lon="11.651645819439118"><ele>659.1999999999999</ele><time>2026-04-05T16:43:41Z</time></trkpt><trkpt lat="43.84170322597334" lon="11.651504965203896"><ele>661.0</ele><time>2026-04-05T16:43:42Z</time></trkpt><trkpt lat="43.841719995768365" lon="11.651357231730968"><ele>661.0</ele><time>2026-04-05T16:43:43Z</time></trkpt><trkpt lat="43.841746190730284" lon="11.651191193569048"><ele>661.0</ele><time>2026-04-05T16:43:44Z</time></trkpt><trkpt lat="43.84178394415297" lon="11.651021078829219"><ele>661.0</ele><time>2026-04-05T16:43:45Z</time></trkpt><trkpt lat="43.841828603796635" lon="11.650851687572045"><ele>661.0</ele><time>2026-04-05T16:43:46Z</time></trkpt><trkpt lat="43.84188054185622" lon="11.650684975454224"><ele>661.4</ele><time>2026-04-05T16:43:47Z</time></trkpt><trkpt lat="43.841766858893685" lon="11.650645655549724"><ele>661.8</ele><time>2026-04-05T16:43:48Z</time></trkpt><trkpt lat="43.841776963058635" lon="11.650506972607781"><ele>662.1999999999999</ele><time>2026-04-05T16:43:49Z</time></trkpt><trkpt lat="43.84178644444822" lon="11.650367045883632"><ele>662.5999999999999</ele><time>2026-04-05T16:43:50Z</time></trkpt><trkpt lat="43.8417929564015" lon="11.650269615884438"><ele>663.0</ele><time>2026-04-05T16:43:51Z</time></trkpt><trkpt lat="43.84180477850727" lon="11.650133087780093"><ele>670.2</ele><time>2026-04-05T16:43:52Z</time></trkpt><trkpt lat="43.84181446604459" lon="11.650003452915604"><ele>677.4</ele><time>2026-04-05T16:43:53Z</time></trkpt><trkpt lat="43.841825296639634" lon="11.649876127255517"><ele>684.6</ele><time>2026-04-05T16:43:54Z</time></trkpt><trkpt lat="43.84183947841715" lon="11.64975370097255"><ele>691.8000000000001</ele><time>2026-04-05T16:43:55Z</time></trkpt><trkpt lat="43.84184752978098" lon="11.649628275516964"><ele>699.0</ele><time>2026-04-05T16:43:56Z</time></trkpt><trkpt lat="43.84185291355717" lon="11.64950586461303"><ele>698.6</ele><time>2026-04-05T16:43:57Z</time></trkpt><trkpt lat="43.84185917270845" lon="11.649379927346413"><ele>698.2</ele><time>2026-04-05T16:43:58Z</time></trkpt><trkpt lat="43.8418695988907" lon="11.64925335745201"><ele>697.8000000000001</ele><time>2026-04-05T16:43:59Z</time></trkpt><trkpt lat="43.841879879470184" lon="11.649123488222578"><ele>697.4000000000001</ele><time>2026-04-05T16:44:00Z</time></trkpt><trkpt lat="43.841886153455654" lon="11.648990236323097"><ele>697.0</ele><time>2026-04-05T16:44:01Z</time></trkpt><trkpt lat="43.84188987640963" lon="11.64885546823482"><ele>697.0</ele><time>2026-04-05T16:44:02Z</time></trkpt><trkpt lat="43.84188219049369" lon="11.648717206313473"><ele>697.0</ele><time>2026-04-05T16:44:03Z</time></trkpt><trkpt lat="43.84186176127266" lon="11.648575021899003"><ele>697.0</ele><time>2026-04-05T16:44:04Z</time></trkpt><trkpt lat="43.84183290364788" lon="11.64842501177066"><ele>697.0</ele><time>2026-04-05T16:44:05Z</time></trkpt><trkpt lat="43.84179188269236" lon="11.648276080460706"><ele>697.0</ele><time>2026-04-05T16:44:06Z</time></trkpt><trkpt lat="43.841741450480356" lon="11.648125196055602"><ele>695.25</ele><time>2026-04-05T16:44:07Z</time></trkpt><trkpt lat="43.84168137742245" lon="11.647979837722284"><ele>693.5</ele><time>2026-04-05T16:44:08Z</time></trkpt><trkpt lat="43.84162209896956" lon="11.647826435663461"><ele>691.75</ele><time>2026-04-05T16:44:09Z</time></trkpt><trkpt lat="43.84155904453974" lon="11.647684321993829"><ele>690.0</ele><time>2026-04-05T16:44:10Z</time></trkpt><trkpt lat="43.8414957821709" lon="11.647541870541534"><ele>690.0</ele><time>2026-04-05T16:44:11Z</time></trkpt><trkpt lat="43.841440070749975" lon="11.647386612672626"><ele>690.0</ele><time>2026-04-05T16:44:12Z</time></trkpt><trkpt lat="43.84140330250611" lon="11.647228210596761"><ele>690.0</ele><time>2026-04-05T16:44:13Z</time></trkpt><trkpt lat="43.84139755766298" lon="11.647056979553561"><ele>690.0</ele><time>2026-04-05T16:44:14Z</time></trkpt><trkpt lat="43.84140329369468" lon="11.646870448356331"><ele>692.5</ele><time>2026-04-05T16:44:15Z</time></trkpt><trkpt lat="43.84140549311903" lon="11.646690800738687"><ele>695.0</ele><time>2026-04-05T16:44:16Z</time></trkpt><trkpt lat="43.84139879424711" lon="11.646527059836673"><ele>697.5</ele><time>2026-04-05T16:44:17Z</time></trkpt><trkpt lat="43.84135275785549" lon="11.646377477435253"><ele>700.0</ele><time>2026-04-05T16:44:18Z</time></trkpt><trkpt lat="43.84128832100227" lon="11.646234539427677"><ele>702.75</ele><time>2026-04-05T16:44:19Z</time></trkpt><trkpt lat="43.841190501397136" lon="11.646118552192602"><ele>705.5</ele><time>2026-04-05T16:44:20Z</time></trkpt><trkpt lat="43.84106228671038" lon="11.646028606833497"><ele>708.25</ele><time>2026-04-05T16:44:21Z</time></trkpt><trkpt lat="43.84093125386952" lon="11.645925376393132"><ele>711.0</ele><time>2026-04-05T16:44:22Z</time></trkpt><trkpt lat="43.84085583804178" lon="11.645799438226684"><ele>706.5</ele><time>2026-04-05T16:44:23Z</time></trkpt><trkpt lat="43.84086308177547" lon="11.645647493032802"><ele>702.0</ele><time>2026-04-05T16:44:24Z</time></trkpt><trkpt lat="43.84083107744761" lon="11.645478220220303"><ele>697.5</ele><time>2026-04-05T16:44:25Z</time></trkpt><trkpt lat="43.84082465710474" lon="11.645289594719126"><ele>693.0</ele><time>2026-04-05T16:44:26Z</time></trkpt><trkpt lat="43.840838248720075" lon="11.645075109261137"><ele>693.0</ele><time>2026-04-05T16:44:27Z</time></trkpt><trkpt lat="43.84084867562371" lon="11.64487214901218"><ele>693.0</ele><time>2026-04-05T16:44:28Z</time></trkpt><trkpt lat="43.84076005711649" lon="11.644679268483392"><ele>693.0</ele><time>2026-04-05T16:44:29Z</time></trkpt><trkpt lat="43.84071161178238" lon="11.644477870065899"><ele>695.0</ele><time>2026-04-05T16:44:30Z</time></trkpt><trkpt lat="43.840677441774965" lon="11.644269315006698"><ele>697.0</ele><time>2026-04-05T16:44:31Z</time></trkpt><trkpt lat="43.84064810013187" lon="11.644073977066757"><ele>699.0</ele><time>2026-04-05T16:44:32Z</time></trkpt><trkpt lat="43.840617771636914" lon="11.643876470202631"><ele>701.0</ele><time>2026-04-05T16:44:33Z</time></trkpt><trkpt lat="43.84059253400908" lon="11.643702977054325"><ele>701.25</ele><time>2026-04-05T16:44:34Z</time></trkpt><trkpt lat="43.840587508659375" lon="11.64353125840429"><ele>701.5</ele><time>2026-04-05T16:44:35Z</time></trkpt><trkpt lat="43.840619769124395" lon="11.643352987168095"><ele>701.75</ele><time>2026-04-05T16:44:36Z</time></trkpt><trkpt lat="43.8407524812177" lon="11.64322560433322"><ele>702.0</ele><time>2026-04-05T16:44:37Z</time></trkpt><trkpt lat="43.84087173944024" lon="11.64316428340735"><ele>707.5</ele><time>2026-04-05T16:44:38Z</time></trkpt><trkpt lat="43.84099882098632" lon="11.643102760835072"><ele>713.0</ele><time>2026-04-05T16:44:39Z</time></trkpt><trkpt lat="43.84098205107452" lon="11.642819584731003"><ele>718.5</ele><time>2026-04-05T16:44:40Z</time></trkpt><trkpt lat="43.84104540572415" lon="11.642695370750918"><ele>724.0</ele><time>2026-04-05T16:44:41Z</time></trkpt><trkpt lat="43.841105246281195" lon="11.642591973711085"><ele>724.6</ele><time>2026-04-05T16:44:42Z</time></trkpt><trkpt lat="43.84117861013243" lon="11.642507588105419"><ele>725.2</ele><time>2026-04-05T16:44:43Z</time></trkpt><trkpt lat="43.84126843946276" lon="11.642457645682017"><ele>725.8000000000001</ele><time>2026-04-05T16:44:44Z</time></trkpt><trkpt lat="43.841368641815784" lon="11.642461728035304"><ele>726.4000000000001</ele><time>2026-04-05T16:44:45Z</time></trkpt><trkpt lat="43.84146093144434" lon="11.642526817290612"><ele>727.0</ele><time>2026-04-05T16:44:46Z</time></trkpt><trkpt lat="43.841521682145945" lon="11.642647103726919"><ele>727.0</ele><time>2026-04-05T16:44:47Z</time></trkpt><trkpt lat="43.84154243776859" lon="11.642793225241256"><ele>727.0</ele><time>2026-04-05T16:44:48Z</time></trkpt><trkpt lat="43.841515204838124" lon="11.642941212265931"><ele>727.0</ele><time>2026-04-05T16:44:49Z</time></trkpt><trkpt lat="43.84144554099317" lon="11.643069953212203"><ele>727.0</ele><time>2026-04-05T16:44:50Z</time></trkpt><trkpt lat="43.84136328234097" lon="11.643167582453259"><ele>727.0</ele><time>2026-04-05T16:44:51Z</time></trkpt><trkpt lat="43.8412943503878" lon="11.643270530492925"><ele>726.5</ele><time>2026-04-05T16:44:52Z</time></trkpt><trkpt lat="43.841251910979466" lon="11.643388764509382"><ele>726.0</ele><time>2026-04-05T16:44:53Z</time></trkpt><trkpt lat="43.841235212036274" lon="11.643506346681601"><ele>725.5</ele><time>2026-04-05T16:44:54Z</time></trkpt><trkpt lat="43.841237161014845" lon="11.643619655136206"><ele>725.0</ele><time>2026-04-05T16:44:55Z</time></trkpt><trkpt lat="43.84125899704652" lon="11.643734245059495"><ele>724.5</ele><time>2026-04-05T16:44:56Z</time></trkpt><trkpt lat="43.84129393865684" lon="11.64384818083493"><ele>724.0</ele><time>2026-04-05T16:44:57Z</time></trkpt><trkpt lat="43.841340630356775" lon="11.643961554849442"><ele>723.6</ele><time>2026-04-05T16:44:58Z</time></trkpt><trkpt lat="43.84139085023516" lon="11.644069966969267"><ele>723.2</ele><time>2026-04-05T16:44:59Z</time></trkpt><trkpt lat="43.8414449755595" lon="11.644177977427825"><ele>722.8000000000001</ele><time>2026-04-05T16:45:00Z</time></trkpt><trkpt lat="43.841496562424645" lon="11.644295803327717"><ele>722.4000000000001</ele><time>2026-04-05T16:45:01Z</time></trkpt><trkpt lat="43.84155079059686" lon="11.644415872405284"><ele>722.0</ele><time>2026-04-05T16:45:02Z</time></trkpt><trkpt lat="43.84159036540073" lon="11.644553094410021"><ele>721.25</ele><time>2026-04-05T16:45:03Z</time></trkpt><trkpt lat="43.84163049671233" lon="11.644697653472353"><ele>720.5</ele><time>2026-04-05T16:45:04Z</time></trkpt><trkpt lat="43.84166575143945" lon="11.644849680049166"><ele>719.75</ele><time>2026-04-05T16:45:05Z</time></trkpt><trkpt lat="43.84170244878874" lon="11.644999413392691"><ele>719.0</ele><time>2026-04-05T16:45:06Z</time></trkpt><trkpt lat="43.84173800561308" lon="11.645146840045994"><ele>719.0</ele><time>2026-04-05T16:45:07Z</time></trkpt><trkpt lat="43.84176951045629" lon="11.645292427490551"><ele>719.0</ele><time>2026-04-05T16:45:08Z</time></trkpt><trkpt lat="43.84180533961879" lon="11.645415086265736"><ele>719.0</ele><time>2026-04-05T16:45:09Z</time></trkpt><trkpt lat="43.84185432000974" lon="11.645509187041746"><ele>719.0</ele><time>2026-04-05T16:45:10Z</time></trkpt><trkpt lat="43.84193400506245" lon="11.6455767242044"><ele>719.0</ele><time>2026-04-05T16:45:11Z</time></trkpt><trkpt lat="43.84202609431605" lon="11.64558286091052"><ele>724.8000000000001</ele><time>2026-04-05T16:45:12Z</time></trkpt><trkpt lat="43.84211698813989" lon="11.645524517102714"><ele>730.6</ele><time>2026-04-05T16:45:13Z</time></trkpt><trkpt lat="43.842182172627545" lon="11.645415012754842"><ele>736.4</ele><time>2026-04-05T16:45:14Z</time></trkpt><trkpt lat="43.842199823866935" lon="11.64527034915273"><ele>742.2</ele><time>2026-04-05T16:45:15Z</time></trkpt><trkpt lat="43.84219097611127" lon="11.645119918687872"><ele>748.0</ele><time>2026-04-05T16:45:16Z</time></trkpt><trkpt lat="43.842169919708695" lon="11.644970049816287"><ele>748.0</ele><time>2026-04-05T16:45:17Z</time></trkpt><trkpt lat="43.84214561415615" lon="11.644816583992197"><ele>748.0</ele><time>2026-04-05T16:45:18Z</time></trkpt><trkpt lat="43.842122131554895" lon="11.644662304567436"><ele>748.0</ele><time>2026-04-05T16:45:19Z</time></trkpt><trkpt lat="43.8421035012978" lon="11.644502815982516"><ele>748.0</ele><time>2026-04-05T16:45:20Z</time></trkpt><trkpt lat="43.842087174727034" lon="11.6443447522546"><ele>749.0</ele><time>2026-04-05T16:45:21Z</time></trkpt><trkpt lat="43.84207809512074" lon="11.644184792322319"><ele>750.0</ele><time>2026-04-05T16:45:22Z</time></trkpt><trkpt lat="43.84209328192347" lon="11.644024784737292"><ele>751.0</ele><time>2026-04-05T16:45:23Z</time></trkpt><trkpt lat="43.842120321533734" lon="11.643873237378866"><ele>752.0</ele><time>2026-04-05T16:45:24Z</time></trkpt><trkpt lat="43.84214908610582" lon="11.643710701577787"><ele>752.5</ele><time>2026-04-05T16:45:25Z</time></trkpt><trkpt lat="43.842174532393116" lon="11.64354439985291"><ele>753.0</ele><time>2026-04-05T16:45:26Z</time></trkpt><trkpt lat="43.842196113110084" lon="11.64337640154863"><ele>753.5</ele><time>2026-04-05T16:45:27Z</time></trkpt><trkpt lat="43.84221596778008" lon="11.643203613003942"><ele>754.0</ele><time>2026-04-05T16:45:28Z</time></trkpt><trkpt lat="43.842239179226084" lon="11.64302914162108"><ele>754.0</ele><time>2026-04-05T16:45:29Z</time></trkpt><trkpt lat="43.84226469363455" lon="11.642856976853516"><ele>754.0</ele><time>2026-04-05T16:45:30Z</time></trkpt><trkpt lat="43.842285015465144" lon="11.642691418869383"><ele>754.0</ele><time>2026-04-05T16:45:31Z</time></trkpt><trkpt lat="43.84229884061232" lon="11.642538956854644"><ele>754.0</ele><time>2026-04-05T16:45:32Z</time></trkpt><trkpt lat="43.842287558557906" lon="11.642388804713534"><ele>755.0</ele><time>2026-04-05T16:45:33Z</time></trkpt><trkpt lat="43.842254498452874" lon="11.64224892112045"><ele>756.0</ele><time>2026-04-05T16:45:34Z</time></trkpt><trkpt lat="43.84217953666243" lon="11.642138269363073"><ele>757.0</ele><time>2026-04-05T16:45:35Z</time></trkpt><trkpt lat="43.842096894608034" lon="11.642035940827675"><ele>758.0</ele><time>2026-04-05T16:45:36Z</time></trkpt><trkpt lat="43.842002560129345" lon="11.641952226557024"><ele>759.0</ele><time>2026-04-05T16:45:37Z</time></trkpt><trkpt lat="43.841905215288335" lon="11.641871625919736"><ele>756.4000000000001</ele><time>2026-04-05T16:45:38Z</time></trkpt><trkpt lat="43.84180823669023" lon="11.641789989499141"><ele>753.8</ele><time>2026-04-05T16:45:39Z</time></trkpt><trkpt lat="43.841714956429264" lon="11.641701604098252"><ele>751.2</ele><time>2026-04-05T16:45:40Z</time></trkpt><trkpt lat="43.8416251069024" lon="11.641609056626768"><ele>748.5999999999999</ele><time>2026-04-05T16:45:41Z</time></trkpt><trkpt lat="43.84154957981946" lon="11.64151364349156"><ele>746.0</ele><time>2026-04-05T16:45:42Z</time></trkpt><trkpt lat="43.84149102359466" lon="11.641404497590619"><ele>746.0</ele><time>2026-04-05T16:45:43Z</time></trkpt><trkpt lat="43.841455247543614" lon="11.641275878695936"><ele>746.0</ele><time>2026-04-05T16:45:44Z</time></trkpt><trkpt lat="43.84145148884431" lon="11.64112918187717"><ele>746.0</ele><time>2026-04-05T16:45:45Z</time></trkpt><trkpt lat="43.84147006927986" lon="11.640984348506768"><ele>746.0</ele><time>2026-04-05T16:45:46Z</time></trkpt><trkpt lat="43.84150372311753" lon="11.64081864532211"><ele>746.0</ele><time>2026-04-05T16:45:47Z</time></trkpt><trkpt lat="43.84153903867377" lon="11.640654496629306"><ele>748.75</ele><time>2026-04-05T16:45:48Z</time></trkpt><trkpt lat="43.84157167978111" lon="11.640490079157223"><ele>751.5</ele><time>2026-04-05T16:45:49Z</time></trkpt><trkpt lat="43.84161975782545" lon="11.640328253712815"><ele>754.25</ele><time>2026-04-05T16:45:50Z</time></trkpt><trkpt lat="43.84169983485471" lon="11.640181281709857"><ele>757.0</ele><time>2026-04-05T16:45:51Z</time></trkpt><trkpt lat="43.84179837149662" lon="11.640052323177178"><ele>763.75</ele><time>2026-04-05T16:45:52Z</time></trkpt><trkpt lat="43.84190765116711" lon="11.639938401197577"><ele>770.5</ele><time>2026-04-05T16:45:53Z</time></trkpt><trkpt lat="43.84201565301331" lon="11.639820558411698"><ele>777.25</ele><time>2026-04-05T16:45:54Z</time></trkpt><trkpt lat="43.84211808127159" lon="11.63969546408441"><ele>784.0</ele><time>2026-04-05T16:45:55Z</time></trkpt><trkpt lat="43.84222067759571" lon="11.639565172469934"><ele>786.5</ele><time>2026-04-05T16:45:56Z</time></trkpt><trkpt lat="43.84232463057038" lon="11.639433652930762"><ele>789.0</ele><time>2026-04-05T16:45:57Z</time></trkpt><trkpt lat="43.84242528296188" lon="11.639295269654172"><ele>791.5</ele><time>2026-04-05T16:45:58Z</time></trkpt><trkpt lat="43.842531458693735" lon="11.639157319795117"><ele>794.0</ele><time>2026-04-05T16:45:59Z</time></trkpt><trkpt lat="43.84264629142414" lon="11.639032133556466"><ele>794.0</ele><time>2026-04-05T16:46:00Z</time></trkpt><trkpt lat="43.84276938729799" lon="11.638907682120252"><ele>794.0</ele><time>2026-04-05T16:46:01Z</time></trkpt><trkpt lat="43.84289326589441" lon="11.638783511999561"><ele>794.0</ele><time>2026-04-05T16:46:02Z</time></trkpt><trkpt lat="43.843021606117254" lon="11.638658998850417"><ele>789.3333333333334</ele><time>2026-04-05T16:46:03Z</time></trkpt><trkpt lat="43.84314926307137" lon="11.638536935821966"><ele>784.6666666666667</ele><time>2026-04-05T16:46:04Z</time></trkpt><trkpt lat="43.843283412682204" lon="11.638406393704656"><ele>780.0</ele><time>2026-04-05T16:46:05Z</time></trkpt><trkpt lat="43.84341242941932" lon="11.638285084734488"><ele>787.6666666666667</ele><time>2026-04-05T16:46:06Z</time></trkpt><trkpt lat="43.843541871600976" lon="11.638153865236593"><ele>795.3333333333334</ele><time>2026-04-05T16:46:07Z</time></trkpt><trkpt lat="43.843653688878014" lon="11.63801109045178"><ele>803.0</ele><time>2026-04-05T16:46:08Z</time></trkpt><trkpt lat="43.84374797242751" lon="11.637847232335192"><ele>800.8</ele><time>2026-04-05T16:46:09Z</time></trkpt><trkpt lat="43.843820093495964" lon="11.637685661205214"><ele>798.5999999999999</ele><time>2026-04-05T16:46:10Z</time></trkpt><trkpt lat="43.84387185426054" lon="11.637548003548162"><ele>796.4000000000001</ele><time>2026-04-05T16:46:11Z</time></trkpt><trkpt lat="43.843946583690474" lon="11.637465169923393"><ele>794.2</ele><time>2026-04-05T16:46:12Z</time></trkpt><trkpt lat="43.84404060548337" lon="11.637446305229401"><ele>792.0</ele><time>2026-04-05T16:46:13Z</time></trkpt><trkpt lat="43.8441296088549" lon="11.6374998636398"><ele>792.0</ele><time>2026-04-05T16:46:14Z</time></trkpt><trkpt lat="43.84418588960101" lon="11.637613137363827"><ele>792.0</ele><time>2026-04-05T16:46:15Z</time></trkpt><trkpt lat="43.84419709747461" lon="11.637756231661779"><ele>792.0</ele><time>2026-04-05T16:46:16Z</time></trkpt><trkpt lat="43.8441634586065" lon="11.637896280071923"><ele>792.0</ele><time>2026-04-05T16:46:17Z</time></trkpt><trkpt lat="43.844090696836055" lon="11.638010435754467"><ele>792.0</ele><time>2026-04-05T16:46:18Z</time></trkpt><trkpt lat="43.844003165846985" lon="11.638115762328166"><ele>794.75</ele><time>2026-04-05T16:46:19Z</time></trkpt><trkpt lat="43.843926594636784" lon="11.638228861489488"><ele>797.5</ele><time>2026-04-05T16:46:20Z</time></trkpt><trkpt lat="43.84384736321346" lon="11.638355144146738"><ele>800.25</ele><time>2026-04-05T16:46:21Z</time></trkpt><trkpt lat="43.843765816724705" lon="11.638495335559417"><ele>803.0</ele><time>2026-04-05T16:46:22Z</time></trkpt><trkpt lat="43.84369540643792" lon="11.638655421265575"><ele>800.75</ele><time>2026-04-05T16:46:23Z</time></trkpt><trkpt lat="43.84362619836207" lon="11.638830894227162"><ele>798.5</ele><time>2026-04-05T16:46:24Z</time></trkpt><trkpt lat="43.84355988887788" lon="11.639018645818227"><ele>796.25</ele><time>2026-04-05T16:46:25Z</time></trkpt><trkpt lat="43.84349779544923" lon="11.63920930035214"><ele>794.0</ele><time>2026-04-05T16:46:26Z</time></trkpt><trkpt lat="43.843410575885166" lon="11.639389532850808"><ele>797.5</ele><time>2026-04-05T16:46:27Z</time></trkpt><trkpt lat="43.84334511869065" lon="11.639576882587832"><ele>801.0</ele><time>2026-04-05T16:46:28Z</time></trkpt><trkpt lat="43.843282796429484" lon="11.639755259480134"><ele>804.5</ele><time>2026-04-05T16:46:29Z</time></trkpt><trkpt lat="43.84324141441609" lon="11.639942934792069"><ele>808.0</ele><time>2026-04-05T16:46:30Z</time></trkpt><trkpt lat="43.84320146228742" lon="11.64012846187598"><ele>810.75</ele><time>2026-04-05T16:46:31Z</time></trkpt><trkpt lat="43.84318162177415" lon="11.640327724637897"><ele>813.5</ele><time>2026-04-05T16:46:32Z</time></trkpt><trkpt lat="43.84315106285321" lon="11.640528616933704"><ele>816.25</ele><time>2026-04-05T16:46:33Z</time></trkpt><trkpt lat="43.84313641415907" lon="11.640734258354602"><ele>819.0</ele><time>2026-04-05T16:46:34Z</time></trkpt><trkpt lat="43.8431403339971" lon="11.64092965547656"><ele>819.0</ele><time>2026-04-05T16:46:35Z</time></trkpt><trkpt lat="43.84314157432752" lon="11.641102405359653"><ele>819.0</ele><time>2026-04-05T16:46:36Z</time></trkpt><trkpt lat="43.843178043469834" lon="11.641268101134285"><ele>819.0</ele><time>2026-04-05T16:46:37Z</time></trkpt><trkpt lat="43.843248568619266" lon="11.641419906717308"><ele>819.0</ele><time>2026-04-05T16:46:38Z</time></trkpt><trkpt lat="43.84331644366762" lon="11.641580918238626"><ele>817.75</ele><time>2026-04-05T16:46:39Z</time></trkpt><trkpt lat="43.843389710176275" lon="11.641732047131885"><ele>816.5</ele><time>2026-04-05T16:46:40Z</time></trkpt><trkpt lat="43.84345795948101" lon="11.641880325385213"><ele>815.25</ele><time>2026-04-05T16:46:41Z</time></trkpt><trkpt lat="43.84352004776318" lon="11.642037591161724"><ele>814.0</ele><time>2026-04-05T16:46:42Z</time></trkpt><trkpt lat="43.84355235270263" lon="11.642203980388155"><ele>823.75</ele><time>2026-04-05T16:46:43Z</time></trkpt><trkpt lat="43.843555942320585" lon="11.642380222782435"><ele>833.5</ele><time>2026-04-05T16:46:44Z</time></trkpt><trkpt lat="43.84354690041472" lon="11.642560887780808"><ele>843.25</ele><time>2026-04-05T16:46:45Z</time></trkpt><trkpt lat="43.84355166956884" lon="11.642740566892929"><ele>853.0</ele><time>2026-04-05T16:46:46Z</time></trkpt><trkpt lat="43.84354196362782" lon="11.64291967446313"><ele>853.5</ele><time>2026-04-05T16:46:47Z</time></trkpt><trkpt lat="43.84354730742795" lon="11.643100845022813"><ele>854.0</ele><time>2026-04-05T16:46:48Z</time></trkpt><trkpt lat="43.84355321041362" lon="11.643279650190246"><ele>854.5</ele><time>2026-04-05T16:46:49Z</time></trkpt><trkpt lat="43.84357346739209" lon="11.643447445587395"><ele>855.0</ele><time>2026-04-05T16:46:50Z</time></trkpt><trkpt lat="43.84362557484072" lon="11.64360270436582"><ele>849.75</ele><time>2026-04-05T16:46:51Z</time></trkpt><trkpt lat="43.84371050818903" lon="11.64373448673644"><ele>844.5</ele><time>2026-04-05T16:46:52Z</time></trkpt><trkpt lat="43.843824654179" lon="11.643831197013393"><ele>839.25</ele><time>2026-04-05T16:46:53Z</time></trkpt><trkpt lat="43.843946179161804" lon="11.643897620220772"><ele>834.0</ele><time>2026-04-05T16:46:54Z</time></trkpt><trkpt lat="43.844055697509106" lon="11.64398515631852"><ele>834.0</ele><time>2026-04-05T16:46:55Z</time></trkpt><trkpt lat="43.84416567775437" lon="11.64405657228858"><ele>834.0</ele><time>2026-04-05T16:46:56Z</time></trkpt><trkpt lat="43.844276516755855" lon="11.644134628089375"><ele>834.0</ele><time>2026-04-05T16:46:57Z</time></trkpt><trkpt lat="43.84437560175046" lon="11.644219796570345"><ele>834.0</ele><time>2026-04-05T16:46:58Z</time></trkpt><trkpt lat="43.844461628735516" lon="11.644325452978544"><ele>840.5</ele><time>2026-04-05T16:46:59Z</time></trkpt><trkpt lat="43.84451730885261" lon="11.644463015494855"><ele>847.0</ele><time>2026-04-05T16:47:00Z</time></trkpt><trkpt lat="43.844535303750845" lon="11.644621571895776"><ele>853.5</ele><time>2026-04-05T16:47:01Z</time></trkpt><trkpt lat="43.84451105564103" lon="11.644779593708602"><ele>860.0</ele><time>2026-04-05T16:47:02Z</time></trkpt><trkpt lat="43.844474226188936" lon="11.644940798614979"><ele>860.0</ele><time>2026-04-05T16:47:03Z</time></trkpt><trkpt lat="43.84443170184438" lon="11.645087011463378"><ele>860.0</ele><time>2026-04-05T16:47:04Z</time></trkpt><trkpt lat="43.84440529228017" lon="11.645231473674869"><ele>860.0</ele><time>2026-04-05T16:47:05Z</time></trkpt><trkpt lat="43.84441258123851" lon="11.645390137856484"><ele>860.0</ele><time>2026-04-05T16:47:06Z</time></trkpt><trkpt lat="43.844468623286616" lon="11.645530511297121"><ele>853.75</ele><time>2026-04-05T16:47:07Z</time></trkpt><trkpt lat="43.84456881391714" lon="11.645613766675801"><ele>847.5</ele><time>2026-04-05T16:47:08Z</time></trkpt><trkpt lat="43.844686760267614" lon="11.645643506478443"><ele>841.25</ele><time>2026-04-05T16:47:09Z</time></trkpt><trkpt lat="43.84480158417012" lon="11.645646225569575"><ele>835.0</ele><time>2026-04-05T16:47:10Z</time></trkpt><trkpt lat="43.84491784926214" lon="11.645641521353332"><ele>835.0</ele><time>2026-04-05T16:47:11Z</time></trkpt><trkpt lat="43.84503909476881" lon="11.645642272031647"><ele>835.0</ele><time>2026-04-05T16:47:12Z</time></trkpt><trkpt lat="43.84515949384015" lon="11.645642238475945"><ele>835.0</ele><time>2026-04-05T16:47:13Z</time></trkpt><trkpt lat="43.845279196428464" lon="11.645641837229274"><ele>835.0</ele><time>2026-04-05T16:47:14Z</time></trkpt><trkpt lat="43.84539824265062" lon="11.645660902253706"><ele>839.0</ele><time>2026-04-05T16:47:15Z</time></trkpt><trkpt lat="43.84551849785858" lon="11.645660902250166"><ele>843.0</ele><time>2026-04-05T16:47:16Z</time></trkpt><trkpt lat="43.84564110029427" lon="11.645660343153622"><ele>847.0</ele><time>2026-04-05T16:47:17Z</time></trkpt><trkpt lat="43.84576239235547" lon="11.64563754785815"><ele>851.0</ele><time>2026-04-05T16:47:18Z</time></trkpt><trkpt lat="43.84588083433446" lon="11.645663171560146"><ele>854.8</ele><time>2026-04-05T16:47:19Z</time></trkpt><trkpt lat="43.845980377351594" lon="11.645749443113099"><ele>858.5999999999999</ele><time>2026-04-05T16:47:20Z</time></trkpt><trkpt lat="43.846077150656164" lon="11.645827217418365"><ele>862.4</ele><time>2026-04-05T16:47:21Z</time></trkpt><trkpt lat="43.84617191707642" lon="11.645894014176669"><ele>866.2</ele><time>2026-04-05T16:47:22Z</time></trkpt><trkpt lat="43.84624286739346" lon="11.645978612720011"><ele>870.0</ele><time>2026-04-05T16:47:23Z</time></trkpt><trkpt lat="43.846318624636865" lon="11.64602897120946"><ele>870.0</ele><time>2026-04-05T16:47:24Z</time></trkpt><trkpt lat="43.84639834539061" lon="11.646022570293528"><ele>870.0</ele><time>2026-04-05T16:47:25Z</time></trkpt><trkpt lat="43.846479763713475" lon="11.64597615881796"><ele>870.0</ele><time>2026-04-05T16:47:26Z</time></trkpt><trkpt lat="43.84655162067553" lon="11.645896739601435"><ele>870.0</ele><time>2026-04-05T16:47:27Z</time></trkpt><trkpt lat="43.846602512163784" lon="11.645785216406582"><ele>870.0</ele><time>2026-04-05T16:47:28Z</time></trkpt><trkpt lat="43.84662217957748" lon="11.645651197183616"><ele>870.0</ele><time>2026-04-05T16:47:29Z</time></trkpt><trkpt lat="43.84661118633733" lon="11.645516539074366"><ele>870.0</ele><time>2026-04-05T16:47:30Z</time></trkpt><trkpt lat="43.846537444382626" lon="11.645384379398847"><ele>870.0</ele><time>2026-04-05T16:47:31Z</time></trkpt><trkpt lat="43.84646027371011" lon="11.645308391019073"><ele>870.0</ele><time>2026-04-05T16:47:32Z</time></trkpt><trkpt lat="43.84637245928824" lon="11.645275562986596"><ele>870.0</ele><time>2026-04-05T16:47:33Z</time></trkpt><trkpt lat="43.846302620581454" lon="11.645228057684305"><ele>871.2</ele><time>2026-04-05T16:47:34Z</time></trkpt><trkpt lat="43.846199228795" lon="11.645236925252775"><ele>872.4</ele><time>2026-04-05T16:47:35Z</time></trkpt><trkpt lat="43.84609045919233" lon="11.645240618732235"><ele>873.5999999999999</ele><time>2026-04-05T16:47:36Z</time></trkpt><trkpt lat="43.845979696450776" lon="11.645234048560049"><ele>874.8</ele><time>2026-04-05T16:47:37Z</time></trkpt><trkpt lat="43.84586195575146" lon="11.645221488291341"><ele>876.0</ele><time>2026-04-05T16:47:38Z</time></trkpt><trkpt lat="43.8457426583864" lon="11.645211889764886"><ele>876.0</ele><time>2026-04-05T16:47:39Z</time></trkpt><trkpt lat="43.84561802154155" lon="11.64520405243398"><ele>876.0</ele><time>2026-04-05T16:47:40Z</time></trkpt><trkpt lat="43.84549102922958" lon="11.64519620100136"><ele>876.0</ele><time>2026-04-05T16:47:41Z</time></trkpt><trkpt lat="43.84536843441427" lon="11.645182065235137"><ele>876.0</ele><time>2026-04-05T16:47:42Z</time></trkpt><trkpt lat="43.845251129845785" lon="11.645163963775511"><ele>876.0</ele><time>2026-04-05T16:47:43Z</time></trkpt><trkpt lat="43.84515765349767" lon="11.645106799737825"><ele>875.9999999999999</ele><time>2026-04-05T16:47:44Z</time></trkpt><trkpt lat="43.84510461421682" lon="11.644981260787397"><ele>875.9999999999999</ele><time>2026-04-05T16:47:45Z</time></trkpt><trkpt lat="43.845064485079675" lon="11.644855213800293"><ele>876.0</ele><time>2026-04-05T16:47:46Z</time></trkpt><trkpt lat="43.845092516215885" lon="11.644713271857004"><ele>876.0</ele><time>2026-04-05T16:47:47Z</time></trkpt><trkpt lat="43.845099662005865" lon="11.644565280494493"><ele>875.5999999999999</ele><time>2026-04-05T16:47:48Z</time></trkpt><trkpt lat="43.8451120729713" lon="11.6444150648019"><ele>875.1999999999999</ele><time>2026-04-05T16:47:49Z</time></trkpt><trkpt lat="43.84510538850518" lon="11.644260118956836"><ele>874.8000000000001</ele><time>2026-04-05T16:47:50Z</time></trkpt><trkpt lat="43.845099966762156" lon="11.644118988244804"><ele>874.4000000000001</ele><time>2026-04-05T16:47:51Z</time></trkpt><trkpt lat="43.8450706367957" lon="11.64398240903296"><ele>874.0</ele><time>2026-04-05T16:47:52Z</time></trkpt><trkpt lat="43.845027721461996" lon="11.643854235629027"><ele>874.0</ele><time>2026-04-05T16:47:53Z</time></trkpt><trkpt lat="43.84497016089126" lon="11.643737369132436"><ele>874.0000000000001</ele><time>2026-04-05T16:47:54Z</time></trkpt><trkpt lat="43.844895413825114" lon="11.643634023898246"><ele>874.0000000000001</ele><time>2026-04-05T16:47:55Z</time></trkpt><trkpt lat="43.84482353114747" lon="11.64352518016837"><ele>874.0</ele><time>2026-04-05T16:47:56Z</time></trkpt><trkpt lat="43.844752128936776" lon="11.643412013651233"><ele>874.0</ele><time>2026-04-05T16:47:57Z</time></trkpt><trkpt lat="43.84468071805788" lon="11.643298762378961"><ele>877.8000000000001</ele><time>2026-04-05T16:47:58Z</time></trkpt><trkpt lat="43.844608855310845" lon="11.643186208136012"><ele>881.6000000000001</ele><time>2026-04-05T16:47:59Z</time></trkpt><trkpt lat="43.8445719365241" lon="11.643056593703161"><ele>885.4</ele><time>2026-04-05T16:48:00Z</time></trkpt><trkpt lat="43.8445791057829" lon="11.642918495192836"><ele>889.2</ele><time>2026-04-05T16:48:01Z</time></trkpt><trkpt lat="43.844644379588075" lon="11.64279595213564"><ele>893.0</ele><time>2026-04-05T16:48:02Z</time></trkpt><trkpt lat="43.84474583539097" lon="11.642734241531832"><ele>893.25</ele><time>2026-04-05T16:48:03Z</time></trkpt><trkpt lat="43.84484213060104" lon="11.642653913611634"><ele>893.5</ele><time>2026-04-05T16:48:04Z</time></trkpt><trkpt lat="43.84492720235354" lon="11.642557700083428"><ele>893.75</ele><time>2026-04-05T16:48:05Z</time></trkpt><trkpt lat="43.845003757055025" lon="11.642440844689025"><ele>894.0</ele><time>2026-04-05T16:48:06Z</time></trkpt><trkpt lat="43.845034083767914" lon="11.642279026625102"><ele>894.0</ele><time>2026-04-05T16:48:07Z</time></trkpt><trkpt lat="43.84503131641107" lon="11.642134982978941"><ele>894.0000000000001</ele><time>2026-04-05T16:48:08Z</time></trkpt><trkpt lat="43.844998378691805" lon="11.641987154576803"><ele>894.0000000000001</ele><time>2026-04-05T16:48:09Z</time></trkpt><trkpt lat="43.844961417324754" lon="11.641848995396176"><ele>894.0</ele><time>2026-04-05T16:48:10Z</time></trkpt><trkpt lat="43.84493335437642" lon="11.641706305647745"><ele>894.0</ele><time>2026-04-05T16:48:11Z</time></trkpt><trkpt lat="43.844908025640116" lon="11.641561482085953"><ele>894.6</ele><time>2026-04-05T16:48:12Z</time></trkpt><trkpt lat="43.84488903687652" lon="11.641419723698728"><ele>895.2</ele><time>2026-04-05T16:48:13Z</time></trkpt><trkpt lat="43.84487144134739" lon="11.64127861190323"><ele>895.8000000000001</ele><time>2026-04-05T16:48:14Z</time></trkpt><trkpt lat="43.844858745021796" lon="11.641137585574214"><ele>896.4000000000001</ele><time>2026-04-05T16:48:15Z</time></trkpt><trkpt lat="43.844871742783454" lon="11.640992841882554"><ele>897.0</ele><time>2026-04-05T16:48:16Z</time></trkpt><trkpt lat="43.84490982217646" lon="11.640865119131538"><ele>897.0</ele><time>2026-04-05T16:48:17Z</time></trkpt><trkpt lat="43.844971392000225" lon="11.640728314843454"><ele>897.0</ele><time>2026-04-05T16:48:18Z</time></trkpt><trkpt lat="43.84502963475596" lon="11.640602073513769"><ele>897.0</ele><time>2026-04-05T16:48:19Z</time></trkpt><trkpt lat="43.845086839644004" lon="11.640474357062395"><ele>897.0</ele><time>2026-04-05T16:48:20Z</time></trkpt><trkpt lat="43.84515690926254" lon="11.640359847657239"><ele>897.0</ele><time>2026-04-05T16:48:21Z</time></trkpt><trkpt lat="43.8452429954183" lon="11.640286377292492"><ele>901.8</ele><time>2026-04-05T16:48:22Z</time></trkpt><trkpt lat="43.845348918557676" lon="11.64031366279738"><ele>906.6</ele><time>2026-04-05T16:48:23Z</time></trkpt><trkpt lat="43.84544362008834" lon="11.64032652775304"><ele>911.3999999999999</ele><time>2026-04-05T16:48:24Z</time></trkpt><trkpt lat="43.845541321834" lon="11.640341413552822"><ele>916.1999999999999</ele><time>2026-04-05T16:48:25Z</time></trkpt><trkpt lat="43.84564215043097" lon="11.640354751163716"><ele>921.0</ele><time>2026-04-05T16:48:26Z</time></trkpt><trkpt lat="43.845750118207555" lon="11.640352187080293"><ele>921.0</ele><time>2026-04-05T16:48:27Z</time></trkpt><trkpt lat="43.84585424569925" lon="11.640302733605182"><ele>920.9999999999999</ele><time>2026-04-05T16:48:28Z</time></trkpt><trkpt lat="43.84595618037271" lon="11.640245660953669"><ele>920.9999999999999</ele><time>2026-04-05T16:48:29Z</time></trkpt><trkpt lat="43.846052674567744" lon="11.640164683740483"><ele>921.0</ele><time>2026-04-05T16:48:30Z</time></trkpt><trkpt lat="43.846145425792606" lon="11.640068069170999"><ele>921.0</ele><time>2026-04-05T16:48:31Z</time></trkpt><trkpt lat="43.846241056385736" lon="11.63997118093756"><ele>922.5</ele><time>2026-04-05T16:48:32Z</time></trkpt><trkpt lat="43.846344210732305" lon="11.639881913607185"><ele>924.0</ele><time>2026-04-05T16:48:33Z</time></trkpt><trkpt lat="43.84644880208221" lon="11.639791985270104"><ele>925.5</ele><time>2026-04-05T16:48:34Z</time></trkpt><trkpt lat="43.84655464781764" lon="11.63970453016414"><ele>927.0</ele><time>2026-04-05T16:48:35Z</time></trkpt><trkpt lat="43.846661484818355" lon="11.639614868312693"><ele>927.0</ele><time>2026-04-05T16:48:36Z</time></trkpt><trkpt lat="43.84676850725377" lon="11.639521164633067"><ele>927.0</ele><time>2026-04-05T16:48:37Z</time></trkpt><trkpt lat="43.846876621992855" lon="11.639423594710083"><ele>927.0</ele><time>2026-04-05T16:48:38Z</time></trkpt><trkpt lat="43.846980098819685" lon="11.639331097118637"><ele>927.0</ele><time>2026-04-05T16:48:39Z</time></trkpt><trkpt lat="43.847091255191934" lon="11.639233282721774"><ele>928.75</ele><time>2026-04-05T16:48:40Z</time></trkpt><trkpt lat="43.847200617969264" lon="11.639123440416116"><ele>930.5</ele><time>2026-04-05T16:48:41Z</time></trkpt><trkpt lat="43.84731597589714" lon="11.639015361239109"><ele>932.25</ele><time>2026-04-05T16:48:42Z</time></trkpt><trkpt lat="43.84743195345996" lon="11.638909495658863"><ele>934.0</ele><time>2026-04-05T16:48:43Z</time></trkpt><trkpt lat="43.84754587554055" lon="11.6387990673633"><ele>934.75</ele><time>2026-04-05T16:48:44Z</time></trkpt><trkpt lat="43.84765926768201" lon="11.63868753286831"><ele>935.5</ele><time>2026-04-05T16:48:45Z</time></trkpt><trkpt lat="43.84777169869609" lon="11.638579826512986"><ele>936.25</ele><time>2026-04-05T16:48:46Z</time></trkpt><trkpt lat="43.84788803006676" lon="11.638475519692843"><ele>937.0</ele><time>2026-04-05T16:48:47Z</time></trkpt><trkpt lat="43.84800671323943" lon="11.638373232018598"><ele>937.0</ele><time>2026-04-05T16:48:48Z</time></trkpt><trkpt lat="43.848128900265365" lon="11.638269819580284"><ele>937.0</ele><time>2026-04-05T16:48:49Z</time></trkpt><trkpt lat="43.848252245346885" lon="11.638161069315974"><ele>937.0</ele><time>2026-04-05T16:48:50Z</time></trkpt><trkpt lat="43.84836884448969" lon="11.638058697876385"><ele>937.0</ele><time>2026-04-05T16:48:51Z</time></trkpt><trkpt lat="43.8484791644178" lon="11.637960211042177"><ele>940.5</ele><time>2026-04-05T16:48:52Z</time></trkpt><trkpt lat="43.84857970420263" lon="11.6378834955279"><ele>944.0</ele><time>2026-04-05T16:48:53Z</time></trkpt><trkpt lat="43.848678274596665" lon="11.637837352108976"><ele>947.5</ele><time>2026-04-05T16:48:54Z</time></trkpt><trkpt lat="43.84878928005471" lon="11.637825677513181"><ele>951.0</ele><time>2026-04-05T16:48:55Z</time></trkpt><trkpt lat="43.84889649528196" lon="11.637907632508286"><ele>951.0</ele><time>2026-04-05T16:48:56Z</time></trkpt><trkpt lat="43.8489906495132" lon="11.63800161034665"><ele>951.0</ele><time>2026-04-05T16:48:57Z</time></trkpt><trkpt lat="43.84909150334661" lon="11.638083991783118"><ele>951.0</ele><time>2026-04-05T16:48:58Z</time></trkpt><trkpt lat="43.84919963258342" lon="11.63811500401609"><ele>951.0</ele><time>2026-04-05T16:48:59Z</time></trkpt><trkpt lat="43.84931515055246" lon="11.638105222238584"><ele>954.75</ele><time>2026-04-05T16:49:00Z</time></trkpt><trkpt lat="43.849428730532914" lon="11.63802838184766"><ele>958.5</ele><time>2026-04-05T16:49:01Z</time></trkpt><trkpt lat="43.8495230738218" lon="11.63790292349092"><ele>962.25</ele><time>2026-04-05T16:49:02Z</time></trkpt><trkpt lat="43.84959555318743" lon="11.637741851860135"><ele>966.0</ele><time>2026-04-05T16:49:03Z</time></trkpt><trkpt lat="43.8496668218131" lon="11.63757673360353"><ele>966.0</ele><time>2026-04-05T16:49:04Z</time></trkpt><trkpt lat="43.84974862521002" lon="11.637416177846521"><ele>966.0</ele><time>2026-04-05T16:49:05Z</time></trkpt><trkpt lat="43.84983128586821" lon="11.637250106055482"><ele>966.0</ele><time>2026-04-05T16:49:06Z</time></trkpt><trkpt lat="43.84992257884591" lon="11.637081430295698"><ele>966.0</ele><time>2026-04-05T16:49:07Z</time></trkpt><trkpt lat="43.85001220792103" lon="11.636910407038165"><ele>963.25</ele><time>2026-04-05T16:49:08Z</time></trkpt><trkpt lat="43.85009657686683" lon="11.636746478601587"><ele>960.5</ele><time>2026-04-05T16:49:09Z</time></trkpt><trkpt lat="43.85017140331889" lon="11.636583740477446"><ele>957.75</ele><time>2026-04-05T16:49:10Z</time></trkpt><trkpt lat="43.85025406374765" lon="11.636431133448262"><ele>955.0</ele><time>2026-04-05T16:49:11Z</time></trkpt><trkpt lat="43.85033064800895" lon="11.63628588169466"><ele>956.5</ele><time>2026-04-05T16:49:12Z</time></trkpt><trkpt lat="43.850404468523564" lon="11.63613730060215"><ele>958.0</ele><time>2026-04-05T16:49:13Z</time></trkpt><trkpt lat="43.850479416496164" lon="11.63599181003214"><ele>959.5</ele><time>2026-04-05T16:49:14Z</time></trkpt><trkpt lat="43.85056897209674" lon="11.635857978054757"><ele>961.0</ele><time>2026-04-05T16:49:15Z</time></trkpt><trkpt lat="43.850679556232386" lon="11.635748919447195"><ele>961.0</ele><time>2026-04-05T16:49:16Z</time></trkpt><trkpt lat="43.85081361360883" lon="11.635708596940328"><ele>961.0</ele><time>2026-04-05T16:49:17Z</time></trkpt><trkpt lat="43.850948434712684" lon="11.635689608485073"><ele>961.0</ele><time>2026-04-05T16:49:18Z</time></trkpt><trkpt lat="43.85109189335141" lon="11.635662219329292"><ele>961.0</ele><time>2026-04-05T16:49:19Z</time></trkpt><trkpt lat="43.85123032422104" lon="11.635598576944819"><ele>959.75</ele><time>2026-04-05T16:49:20Z</time></trkpt><trkpt lat="43.851361450871416" lon="11.635526600283809"><ele>958.5</ele><time>2026-04-05T16:49:21Z</time></trkpt><trkpt lat="43.851483348584104" lon="11.635403289263085"><ele>957.25</ele><time>2026-04-05T16:49:22Z</time></trkpt><trkpt lat="43.851594132010234" lon="11.635258030834464"><ele>956.0</ele><time>2026-04-05T16:49:23Z</time></trkpt><trkpt lat="43.85170959366466" lon="11.635099907913647"><ele>957.6666666666667</ele><time>2026-04-05T16:49:24Z</time></trkpt><trkpt lat="43.8518310868768" lon="11.634943143820797"><ele>959.3333333333333</ele><time>2026-04-05T16:49:25Z</time></trkpt><trkpt lat="43.851946881679694" lon="11.63482644370866"><ele>961.0</ele><time>2026-04-05T16:49:26Z</time></trkpt><trkpt lat="43.8520804690639" lon="11.634748778452959"><ele>961.0</ele><time>2026-04-05T16:49:27Z</time></trkpt><trkpt lat="43.85222617448795" lon="11.634762332686526"><ele>961.0</ele><time>2026-04-05T16:49:28Z</time></trkpt><trkpt lat="43.85237326148348" lon="11.634746860499273"><ele>961.0</ele><time>2026-04-05T16:49:29Z</time></trkpt><trkpt lat="43.85252773428119" lon="11.634730637476546"><ele>961.0</ele><time>2026-04-05T16:49:30Z</time></trkpt><trkpt lat="43.85267989528693" lon="11.634720203751169"><ele>957.25</ele><time>2026-04-05T16:49:31Z</time></trkpt><trkpt lat="43.85282419329942" lon="11.634737774742266"><ele>953.5</ele><time>2026-04-05T16:49:32Z</time></trkpt><trkpt lat="43.85294726663824" lon="11.634804861744842"><ele>949.75</ele><time>2026-04-05T16:49:33Z</time></trkpt><trkpt lat="43.85304559630628" lon="11.634906943694848"><ele>946.0</ele><time>2026-04-05T16:49:34Z</time></trkpt><trkpt lat="43.85311986134729" lon="11.635035653650469"><ele>946.0</ele><time>2026-04-05T16:49:35Z</time></trkpt><trkpt lat="43.853202101424095" lon="11.635174565983585"><ele>946.0</ele><time>2026-04-05T16:49:36Z</time></trkpt><trkpt lat="43.853292326446905" lon="11.63529817638509"><ele>946.0</ele><time>2026-04-05T16:49:37Z</time></trkpt><trkpt lat="43.853392678725925" lon="11.635385251035526"><ele>946.0</ele><time>2026-04-05T16:49:38Z</time></trkpt><trkpt lat="43.853506446175025" lon="11.635412109664614"><ele>948.25</ele><time>2026-04-05T16:49:39Z</time></trkpt><trkpt lat="43.85361592348091" lon="11.635376674521867"><ele>950.5</ele><time>2026-04-05T16:49:40Z</time></trkpt><trkpt lat="43.85372285748371" lon="11.635293035346907"><ele>952.75</ele><time>2026-04-05T16:49:41Z</time></trkpt><trkpt lat="43.853815641248104" lon="11.635169673915534"><ele>955.0</ele><time>2026-04-05T16:49:42Z</time></trkpt><trkpt lat="43.8539022075797" lon="11.635015431546439"><ele>955.0</ele><time>2026-04-05T16:49:43Z</time></trkpt><trkpt lat="43.85399284819686" lon="11.634846029000785"><ele>955.0</ele><time>2026-04-05T16:49:44Z</time></trkpt><trkpt lat="43.85408963208351" lon="11.634675135384073"><ele>955.0</ele><time>2026-04-05T16:49:45Z</time></trkpt><trkpt lat="43.854198132578766" lon="11.634502337105854"><ele>957.3333333333333</ele><time>2026-04-05T16:49:46Z</time></trkpt><trkpt lat="43.854310950018814" lon="11.634331864108598"><ele>959.6666666666667</ele><time>2026-04-05T16:49:47Z</time></trkpt><trkpt lat="43.854425980465784" lon="11.63414685699701"><ele>962.0</ele><time>2026-04-05T16:49:48Z</time></trkpt><trkpt lat="43.854537473058734" lon="11.633967179538905"><ele>962.0</ele><time>2026-04-05T16:49:49Z</time></trkpt><trkpt lat="43.85465104423247" lon="11.6337788821212"><ele>962.0</ele><time>2026-04-05T16:49:50Z</time></trkpt><trkpt lat="43.85476654619977" lon="11.63359020484004"><ele>962.0</ele><time>2026-04-05T16:49:51Z</time></trkpt><trkpt lat="43.854884549873844" lon="11.633402785318646"><ele>955.6666666666667</ele><time>2026-04-05T16:49:52Z</time></trkpt><trkpt lat="43.855000393904625" lon="11.633216464049422"><ele>949.3333333333333</ele><time>2026-04-05T16:49:53Z</time></trkpt><trkpt lat="43.855110241214064" lon="11.633040512557187"><ele>943.0</ele><time>2026-04-05T16:49:54Z</time></trkpt><trkpt lat="43.855218906725625" lon="11.632895116199418"><ele>943.0</ele><time>2026-04-05T16:49:55Z</time></trkpt><trkpt lat="43.85534405219095" lon="11.632827112303186"><ele>943.0</ele><time>2026-04-05T16:49:56Z</time></trkpt><trkpt lat="43.85546556428103" lon="11.632819345183774"><ele>943.0</ele><time>2026-04-05T16:49:57Z</time></trkpt><trkpt lat="43.855586112481255" lon="11.632837989380013"><ele>943.0</ele><time>2026-04-05T16:49:58Z</time></trkpt><trkpt lat="43.85571252511588" lon="11.632848788204672"><ele>943.0</ele><time>2026-04-05T16:49:59Z</time></trkpt><trkpt lat="43.85583429218046" lon="11.632891315073925"><ele>943.0</ele><time>2026-04-05T16:50:00Z</time></trkpt><trkpt lat="43.85595060135648" lon="11.632911127497632"><ele>943.0</ele><time>2026-04-05T16:50:01Z</time></trkpt><trkpt lat="43.85607094218223" lon="11.632917042931073"><ele>943.0</ele><time>2026-04-05T16:50:02Z</time></trkpt><trkpt lat="43.856188956897654" lon="11.632873536005283"><ele>939.5</ele><time>2026-04-05T16:50:03Z</time></trkpt><trkpt lat="43.85629577416284" lon="11.63276195065248"><ele>936.0</ele><time>2026-04-05T16:50:04Z</time></trkpt><trkpt lat="43.85639068639891" lon="11.63262304864232"><ele>932.5</ele><time>2026-04-05T16:50:05Z</time></trkpt><trkpt lat="43.85645875705282" lon="11.632440541902309"><ele>929.0</ele><time>2026-04-05T16:50:06Z</time></trkpt><trkpt lat="43.85652493939376" lon="11.632246142951962"><ele>929.0</ele><time>2026-04-05T16:50:07Z</time></trkpt><trkpt lat="43.85659650456802" lon="11.632050108918124"><ele>929.0</ele><time>2026-04-05T16:50:08Z</time></trkpt><trkpt lat="43.856674418346444" lon="11.631846616259928"><ele>929.0</ele><time>2026-04-05T16:50:09Z</time></trkpt><trkpt lat="43.85675160141563" lon="11.631626825412193"><ele>928.3333333333334</ele><time>2026-04-05T16:50:10Z</time></trkpt><trkpt lat="43.85682803321243" lon="11.63140494187978"><ele>927.6666666666667</ele><time>2026-04-05T16:50:11Z</time></trkpt><trkpt lat="43.85690150755125" lon="11.631178136440782"><ele>927.0</ele><time>2026-04-05T16:50:12Z</time></trkpt><trkpt lat="43.85697232134411" lon="11.63096557815341"><ele>927.0</ele><time>2026-04-05T16:50:13Z</time></trkpt><trkpt lat="43.85703940825997" lon="11.630764167285534"><ele>927.0</ele><time>2026-04-05T16:50:14Z</time></trkpt><trkpt lat="43.85708869714692" lon="11.630568925307394"><ele>927.0</ele><time>2026-04-05T16:50:15Z</time></trkpt><trkpt lat="43.85711597121853" lon="11.6303629199436"><ele>924.3333333333333</ele><time>2026-04-05T16:50:16Z</time></trkpt><trkpt lat="43.85712322718672" lon="11.630153110744942"><ele>921.6666666666666</ele><time>2026-04-05T16:50:17Z</time></trkpt><trkpt lat="43.85711707406861" lon="11.629928770728762"><ele>919.0</ele><time>2026-04-05T16:50:18Z</time></trkpt><trkpt lat="43.85711165586048" lon="11.629702372153503"><ele>919.0</ele><time>2026-04-05T16:50:19Z</time></trkpt><trkpt lat="43.8571022326349" lon="11.629480927897012"><ele>919.0</ele><time>2026-04-05T16:50:20Z</time></trkpt><trkpt lat="43.857089633374386" lon="11.629278082248923"><ele>919.0</ele><time>2026-04-05T16:50:21Z</time></trkpt><trkpt lat="43.85705778873382" lon="11.629090805639786"><ele>919.0</ele><time>2026-04-05T16:50:22Z</time></trkpt><trkpt lat="43.856992635569696" lon="11.62893500731796"><ele>919.5</ele><time>2026-04-05T16:50:23Z</time></trkpt><trkpt lat="43.85690224117477" lon="11.628805439584793"><ele>920.0</ele><time>2026-04-05T16:50:24Z</time></trkpt><trkpt lat="43.856813586626394" lon="11.628699031335357"><ele>920.5</ele><time>2026-04-05T16:50:25Z</time></trkpt><trkpt lat="43.85674687600924" lon="11.628577858130056"><ele>921.0</ele><time>2026-04-05T16:50:26Z</time></trkpt><trkpt lat="43.85670662502501" lon="11.628433171331118"><ele>919.25</ele><time>2026-04-05T16:50:27Z</time></trkpt><trkpt lat="43.85671102322276" lon="11.628254765823884"><ele>917.5</ele><time>2026-04-05T16:50:28Z</time></trkpt><trkpt lat="43.85674001754918" lon="11.628066877961757"><ele>915.75</ele><time>2026-04-05T16:50:29Z</time></trkpt><trkpt lat="43.85676765693906" lon="11.627874946524255"><ele>914.0</ele><time>2026-04-05T16:50:30Z</time></trkpt><trkpt lat="43.85680009127496" lon="11.627661976572858"><ele>914.0</ele><time>2026-04-05T16:50:31Z</time></trkpt><trkpt lat="43.85682358358268" lon="11.627443908188694"><ele>914.0</ele><time>2026-04-05T16:50:32Z</time></trkpt><trkpt lat="43.85684819372226" lon="11.627224515394396"><ele>914.0</ele><time>2026-04-05T16:50:33Z</time></trkpt><trkpt lat="43.856883154487505" lon="11.627002188462654"><ele>910.3333333333334</ele><time>2026-04-05T16:50:34Z</time></trkpt><trkpt lat="43.85693868302456" lon="11.626774022930828"><ele>906.6666666666667</ele><time>2026-04-05T16:50:35Z</time></trkpt><trkpt lat="43.85700473315943" lon="11.626543320620181"><ele>903.0</ele><time>2026-04-05T16:50:36Z</time></trkpt><trkpt lat="43.85708140612007" lon="11.626334897472226"><ele>897.6666666666667</ele><time>2026-04-05T16:50:37Z</time></trkpt><trkpt lat="43.85714342599392" lon="11.62609919157841"><ele>892.3333333333334</ele><time>2026-04-05T16:50:38Z</time></trkpt><trkpt lat="43.85721352236357" lon="11.625890442358761"><ele>887.0</ele><time>2026-04-05T16:50:39Z</time></trkpt><trkpt lat="43.85727472429857" lon="11.625700758229755"><ele>887.0</ele><time>2026-04-05T16:50:40Z</time></trkpt><trkpt lat="43.857332008076106" lon="11.625528568149821"><ele>887.0</ele><time>2026-04-05T16:50:41Z</time></trkpt><trkpt lat="43.85738159059993" lon="11.625372688813117"><ele>887.0</ele><time>2026-04-05T16:50:42Z</time></trkpt><trkpt lat="43.857424822060196" lon="11.625235481610922"><ele>887.0</ele><time>2026-04-05T16:50:43Z</time></trkpt><trkpt lat="43.85746042067074" lon="11.625117406495182"><ele>884.4000000000001</ele><time>2026-04-05T16:50:44Z</time></trkpt><trkpt lat="43.85749161640678" lon="11.625009240601225"><ele>881.8000000000001</ele><time>2026-04-05T16:50:45Z</time></trkpt><trkpt lat="43.85750257358053" lon="11.624913400997942"><ele>879.2</ele><time>2026-04-05T16:50:46Z</time></trkpt><trkpt lat="43.857500296619655" lon="11.624760887278695"><ele>876.6</ele><time>2026-04-05T16:50:48Z</time></trkpt><trkpt lat="43.85748904003169" lon="11.624644069451813"><ele>874.0</ele><time>2026-04-05T16:50:50Z</time></trkpt><trkpt lat="43.85748059292296" lon="11.62450228831035"><ele>872.3333333333333</ele><time>2026-04-05T16:50:52Z</time></trkpt><trkpt lat="43.857474790900085" lon="11.624413253314906"><ele>870.6666666666666</ele><time>2026-04-05T16:50:53Z</time></trkpt><trkpt lat="43.857465810964904" lon="11.62430312089637"><ele>869.0</ele><time>2026-04-05T16:50:54Z</time></trkpt><trkpt lat="43.85745341697316" lon="11.624176824024609"><ele>867.3333333333333</ele><time>2026-04-05T16:50:55Z</time></trkpt><trkpt lat="43.857461253408324" lon="11.624036905424703"><ele>865.6666666666666</ele><time>2026-04-05T16:50:56Z</time></trkpt><trkpt lat="43.8575081094989" lon="11.623902660542653"><ele>864.0</ele><time>2026-04-05T16:50:57Z</time></trkpt><trkpt lat="43.857604878631754" lon="11.623827747962213"><ele>864.6</ele><time>2026-04-05T16:50:58Z</time></trkpt><trkpt lat="43.85771297731358" lon="11.62382683483182"><ele>865.2</ele><time>2026-04-05T16:50:59Z</time></trkpt><trkpt lat="43.85781387205548" lon="11.623863644858"><ele>865.8000000000001</ele><time>2026-04-05T16:51:00Z</time></trkpt><trkpt lat="43.857884975299044" lon="11.623958514752035"><ele>866.4000000000001</ele><time>2026-04-05T16:51:01Z</time></trkpt><trkpt lat="43.857956641928766" lon="11.624077434534637"><ele>867.0</ele><time>2026-04-05T16:51:02Z</time></trkpt><trkpt lat="43.85804826624603" lon="11.624178625899257"><ele>867.0</ele><time>2026-04-05T16:51:03Z</time></trkpt><trkpt lat="43.858158192458575" lon="11.624229192459055"><ele>867.0</ele><time>2026-04-05T16:51:04Z</time></trkpt><trkpt lat="43.858280522998044" lon="11.624187088460236"><ele>867.0</ele><time>2026-04-05T16:51:05Z</time></trkpt><trkpt lat="43.85839197105049" lon="11.624147184408232"><ele>867.0</ele><time>2026-04-05T16:51:06Z</time></trkpt><trkpt lat="43.85849876179724" lon="11.624056030428225"><ele>866.25</ele><time>2026-04-05T16:51:07Z</time></trkpt><trkpt lat="43.858614828003844" lon="11.623952021652851"><ele>865.5</ele><time>2026-04-05T16:51:08Z</time></trkpt><trkpt lat="43.858737052297485" lon="11.623866558669565"><ele>864.75</ele><time>2026-04-05T16:51:09Z</time></trkpt><trkpt lat="43.85887262900658" lon="11.623789100685208"><ele>864.0</ele><time>2026-04-05T16:51:10Z</time></trkpt><trkpt lat="43.858998740157915" lon="11.623718200373446"><ele>864.0</ele><time>2026-04-05T16:51:11Z</time></trkpt><trkpt lat="43.85911712190527" lon="11.623663004995116"><ele>864.0</ele><time>2026-04-05T16:51:12Z</time></trkpt><trkpt lat="43.85923225943877" lon="11.62367890788716"><ele>864.0</ele><time>2026-04-05T16:51:13Z</time></trkpt><trkpt lat="43.85932605589726" lon="11.62376847770628"><ele>864.0</ele><time>2026-04-05T16:51:14Z</time></trkpt><trkpt lat="43.859385544320894" lon="11.623884999115818"><ele>863.25</ele><time>2026-04-05T16:51:15Z</time></trkpt><trkpt lat="43.85943980406446" lon="11.624037381312354"><ele>862.5</ele><time>2026-04-05T16:51:16Z</time></trkpt><trkpt lat="43.85951256553912" lon="11.624206692831502"><ele>861.75</ele><time>2026-04-05T16:51:17Z</time></trkpt><trkpt lat="43.85958382907961" lon="11.6243818234926"><ele>861.0</ele><time>2026-04-05T16:51:18Z</time></trkpt><trkpt lat="43.85967829606445" lon="11.62453946281076"><ele>861.0</ele><time>2026-04-05T16:51:19Z</time></trkpt><trkpt lat="43.859796308004405" lon="11.624640507886316"><ele>861.0</ele><time>2026-04-05T16:51:20Z</time></trkpt><trkpt lat="43.859906020492" lon="11.624718302354456"><ele>861.0</ele><time>2026-04-05T16:51:21Z</time></trkpt><trkpt lat="43.86002910254475" lon="11.624759194154523"><ele>861.0</ele><time>2026-04-05T16:51:22Z</time></trkpt><trkpt lat="43.86015412378826" lon="11.624736691834121"><ele>858.25</ele><time>2026-04-05T16:51:23Z</time></trkpt><trkpt lat="43.86026092101539" lon="11.624617071637099"><ele>855.5</ele><time>2026-04-05T16:51:24Z</time></trkpt><trkpt lat="43.86038845077873" lon="11.624529385097917"><ele>852.75</ele><time>2026-04-05T16:51:25Z</time></trkpt><trkpt lat="43.86051154743589" lon="11.624428440234148"><ele>850.0</ele><time>2026-04-05T16:51:26Z</time></trkpt><trkpt lat="43.86065228023655" lon="11.624408327060165"><ele>845.75</ele><time>2026-04-05T16:51:27Z</time></trkpt><trkpt lat="43.8607861838515" lon="11.624395588690575"><ele>841.5</ele><time>2026-04-05T16:51:28Z</time></trkpt><trkpt lat="43.86089486042682" lon="11.624441292343963"><ele>837.25</ele><time>2026-04-05T16:51:29Z</time></trkpt><trkpt lat="43.86096073111731" lon="11.624538368257895"><ele>833.0</ele><time>2026-04-05T16:51:30Z</time></trkpt><trkpt lat="43.86101249764454" lon="11.624666737999572"><ele>832.75</ele><time>2026-04-05T16:51:31Z</time></trkpt><trkpt lat="43.861030101631705" lon="11.624819293071509"><ele>832.5</ele><time>2026-04-05T16:51:32Z</time></trkpt><trkpt lat="43.861046034944174" lon="11.62500261277402"><ele>832.25</ele><time>2026-04-05T16:51:33Z</time></trkpt><trkpt lat="43.861071745911595" lon="11.625170455349263"><ele>832.0</ele><time>2026-04-05T16:51:34Z</time></trkpt><trkpt lat="43.8611456534606" lon="11.625327363529111"><ele>832.0</ele><time>2026-04-05T16:51:35Z</time></trkpt><trkpt lat="43.86123121235538" lon="11.625475541786814"><ele>832.0</ele><time>2026-04-05T16:51:36Z</time></trkpt><trkpt lat="43.86133023538593" lon="11.625623229047601"><ele>832.0</ele><time>2026-04-05T16:51:37Z</time></trkpt><trkpt lat="43.86147209269266" lon="11.625702158362738"><ele>832.0</ele><time>2026-04-05T16:51:38Z</time></trkpt><trkpt lat="43.86160422679306" lon="11.62578922288899"><ele>832.0</ele><time>2026-04-05T16:51:39Z</time></trkpt><trkpt lat="43.8617425785408" lon="11.625904103119495"><ele>832.0</ele><time>2026-04-05T16:51:40Z</time></trkpt><trkpt lat="43.86188001312303" lon="11.625993237804618"><ele>832.0</ele><time>2026-04-05T16:51:41Z</time></trkpt><trkpt lat="43.862007000383564" lon="11.62608115518945"><ele>830.25</ele><time>2026-04-05T16:51:42Z</time></trkpt><trkpt lat="43.86210556228993" lon="11.62619154463214"><ele>828.5</ele><time>2026-04-05T16:51:43Z</time></trkpt><trkpt lat="43.862158744635636" lon="11.626333300588493"><ele>826.75</ele><time>2026-04-05T16:51:44Z</time></trkpt><trkpt lat="43.862209088213746" lon="11.62648622684458"><ele>825.0</ele><time>2026-04-05T16:51:45Z</time></trkpt><trkpt lat="43.86228669627466" lon="11.626613174150082"><ele>825.0</ele><time>2026-04-05T16:51:46Z</time></trkpt><trkpt lat="43.86239763738109" lon="11.626684904292054"><ele>825.0</ele><time>2026-04-05T16:51:47Z</time></trkpt><trkpt lat="43.8625102658355" lon="11.626741187899336"><ele>825.0</ele><time>2026-04-05T16:51:48Z</time></trkpt><trkpt lat="43.86261679471266" lon="11.626732972472766"><ele>825.0</ele><time>2026-04-05T16:51:49Z</time></trkpt><trkpt lat="43.86271523592496" lon="11.626660325015962"><ele>827.25</ele><time>2026-04-05T16:51:50Z</time></trkpt><trkpt lat="43.86279180518081" lon="11.62650734869463"><ele>829.5</ele><time>2026-04-05T16:51:51Z</time></trkpt><trkpt lat="43.86286778252101" lon="11.626374115442216"><ele>831.75</ele><time>2026-04-05T16:51:52Z</time></trkpt><trkpt lat="43.86293098422233" lon="11.626197891610119"><ele>834.0</ele><time>2026-04-05T16:51:53Z</time></trkpt><trkpt lat="43.862973158643" lon="11.625995576474782"><ele>834.0</ele><time>2026-04-05T16:51:54Z</time></trkpt><trkpt lat="43.86300374645095" lon="11.625777779553708"><ele>834.0</ele><time>2026-04-05T16:51:55Z</time></trkpt><trkpt lat="43.86304072463833" lon="11.625540217979582"><ele>834.0</ele><time>2026-04-05T16:51:56Z</time></trkpt><trkpt lat="43.86307442313514" lon="11.625314808901077"><ele>829.6666666666667</ele><time>2026-04-05T16:51:57Z</time></trkpt><trkpt lat="43.86311416198682" lon="11.62509490376064"><ele>825.3333333333334</ele><time>2026-04-05T16:51:58Z</time></trkpt><trkpt lat="43.863157254955695" lon="11.624888255889447"><ele>821.0</ele><time>2026-04-05T16:51:59Z</time></trkpt><trkpt lat="43.863213365285795" lon="11.624683435792674"><ele>821.0</ele><time>2026-04-05T16:52:00Z</time></trkpt><trkpt lat="43.863297371786366" lon="11.624492274111594"><ele>821.0</ele><time>2026-04-05T16:52:01Z</time></trkpt><trkpt lat="43.86340434306321" lon="11.624316373058395"><ele>821.0</ele><time>2026-04-05T16:52:02Z</time></trkpt><trkpt lat="43.86351147175093" lon="11.62412726160368"><ele>821.3333333333334</ele><time>2026-04-05T16:52:03Z</time></trkpt><trkpt lat="43.863614243515315" lon="11.623926790675451"><ele>821.6666666666667</ele><time>2026-04-05T16:52:04Z</time></trkpt><trkpt lat="43.86371348923971" lon="11.623726766786065"><ele>822.0</ele><time>2026-04-05T16:52:05Z</time></trkpt><trkpt lat="43.86381225749042" lon="11.62353404460337"><ele>815.6666666666667</ele><time>2026-04-05T16:52:06Z</time></trkpt><trkpt lat="43.86390836529518" lon="11.623341051623775"><ele>809.3333333333334</ele><time>2026-04-05T16:52:07Z</time></trkpt><trkpt lat="43.86400078597084" lon="11.62315743060446"><ele>803.0</ele><time>2026-04-05T16:52:08Z</time></trkpt><trkpt lat="43.86411179002226" lon="11.622989350604003"><ele>803.0</ele><time>2026-04-05T16:52:09Z</time></trkpt><trkpt lat="43.86424601160048" lon="11.622841399846301"><ele>803.0</ele><time>2026-04-05T16:52:10Z</time></trkpt><trkpt lat="43.86439576352888" lon="11.622695513390617"><ele>803.0</ele><time>2026-04-05T16:52:11Z</time></trkpt><trkpt lat="43.86454107579121" lon="11.622547432777889"><ele>801.6666666666667</ele><time>2026-04-05T16:52:12Z</time></trkpt><trkpt lat="43.86468529078834" lon="11.622375840264544"><ele>800.3333333333333</ele><time>2026-04-05T16:52:13Z</time></trkpt><trkpt lat="43.864827688682084" lon="11.622186279300012"><ele>799.0</ele><time>2026-04-05T16:52:14Z</time></trkpt><trkpt lat="43.864968620994865" lon="11.621984813758488"><ele>798.6666666666666</ele><time>2026-04-05T16:52:15Z</time></trkpt><trkpt lat="43.865092675263355" lon="11.621794381963767"><ele>798.3333333333333</ele><time>2026-04-05T16:52:16Z</time></trkpt><trkpt lat="43.865199245058044" lon="11.621607689140788"><ele>798.0</ele><time>2026-04-05T16:52:17Z</time></trkpt><trkpt lat="43.865282004392846" lon="11.621406539762333"><ele>794.3333333333333</ele><time>2026-04-05T16:52:18Z</time></trkpt><trkpt lat="43.865392409663606" lon="11.62113662759417"><ele>790.6666666666666</ele><time>2026-04-05T16:52:19Z</time></trkpt><trkpt lat="43.86547025153067" lon="11.620892463018198"><ele>787.0</ele><time>2026-04-05T16:52:20Z</time></trkpt><trkpt lat="43.86555911845966" lon="11.620658071216742"><ele>787.0</ele><time>2026-04-05T16:52:21Z</time></trkpt><trkpt lat="43.86566889934266" lon="11.620436656021555"><ele>787.0</ele><time>2026-04-05T16:52:22Z</time></trkpt><trkpt lat="43.86578982326438" lon="11.620229734869792"><ele>787.0</ele><time>2026-04-05T16:52:23Z</time></trkpt><trkpt lat="43.86589513978467" lon="11.620029159001268"><ele>785.6666666666666</ele><time>2026-04-05T16:52:24Z</time></trkpt><trkpt lat="43.8659844402443" lon="11.619823799881235"><ele>784.3333333333333</ele><time>2026-04-05T16:52:25Z</time></trkpt><trkpt lat="43.86605657775342" lon="11.619600501357402"><ele>783.0</ele><time>2026-04-05T16:52:26Z</time></trkpt><trkpt lat="43.866122481536365" lon="11.619374829192079"><ele>779.3333333333333</ele><time>2026-04-05T16:52:27Z</time></trkpt><trkpt lat="43.866184193475696" lon="11.619148915132518"><ele>775.6666666666666</ele><time>2026-04-05T16:52:28Z</time></trkpt><trkpt lat="43.866259354005855" lon="11.618946277336125"><ele>772.0</ele><time>2026-04-05T16:52:29Z</time></trkpt><trkpt lat="43.866342560164334" lon="11.618740432786153"><ele>769.0</ele><time>2026-04-05T16:52:30Z</time></trkpt><trkpt lat="43.86645877959431" lon="11.618550471497384"><ele>766.0</ele><time>2026-04-05T16:52:31Z</time></trkpt><trkpt lat="43.86658621604006" lon="11.618382930151487"><ele>763.0</ele><time>2026-04-05T16:52:32Z</time></trkpt><trkpt lat="43.866715970913994" lon="11.618189489389408"><ele>760.0</ele><time>2026-04-05T16:52:33Z</time></trkpt><trkpt lat="43.86683983129168" lon="11.61798443748761"><ele>757.0</ele><time>2026-04-05T16:52:34Z</time></trkpt><trkpt lat="43.866954067606635" lon="11.617748713363188"><ele>754.0</ele><time>2026-04-05T16:52:35Z</time></trkpt><trkpt lat="43.86705334283599" lon="11.617540275206066"><ele>753.6666666666667</ele><time>2026-04-05T16:52:36Z</time></trkpt><trkpt lat="43.8671498875661" lon="11.617316026094395"><ele>753.3333333333334</ele><time>2026-04-05T16:52:37Z</time></trkpt><trkpt lat="43.867239182865106" lon="11.617099446156972"><ele>753.0</ele><time>2026-04-05T16:52:38Z</time></trkpt><trkpt lat="43.86732797313535" lon="11.616890094834163"><ele>753.5</ele><time>2026-04-05T16:52:39Z</time></trkpt><trkpt lat="43.8674014090823" lon="11.616692811860911"><ele>754.0</ele><time>2026-04-05T16:52:40Z</time></trkpt><trkpt lat="43.867436389415055" lon="11.616495511801315"><ele>754.5</ele><time>2026-04-05T16:52:41Z</time></trkpt><trkpt lat="43.86744254469005" lon="11.616298299686543"><ele>755.0</ele><time>2026-04-05T16:52:42Z</time></trkpt><trkpt lat="43.8674310786801" lon="11.616084456286291"><ele>755.0</ele><time>2026-04-05T16:52:43Z</time></trkpt><trkpt lat="43.867412111736854" lon="11.615875518754116"><ele>755.0</ele><time>2026-04-05T16:52:44Z</time></trkpt><trkpt lat="43.86739521043191" lon="11.615693375497479"><ele>755.0</ele><time>2026-04-05T16:52:45Z</time></trkpt><trkpt lat="43.86738566019513" lon="11.615522378795456"><ele>755.0</ele><time>2026-04-05T16:52:46Z</time></trkpt><trkpt lat="43.86737583517806" lon="11.615367192702104"><ele>754.2</ele><time>2026-04-05T16:52:47Z</time></trkpt><trkpt lat="43.86736012903501" lon="11.615225086925742"><ele>753.4</ele><time>2026-04-05T16:52:48Z</time></trkpt><trkpt lat="43.86733448875595" lon="11.615087279813169"><ele>752.5999999999999</ele><time>2026-04-05T16:52:49Z</time></trkpt><trkpt lat="43.86730449025198" lon="11.614957074017333"><ele>751.8</ele><time>2026-04-05T16:52:50Z</time></trkpt><trkpt lat="43.86726837383582" lon="11.61483323870711"><ele>751.0</ele><time>2026-04-05T16:52:51Z</time></trkpt><trkpt lat="43.86722618081499" lon="11.61471654172579"><ele>751.0</ele><time>2026-04-05T16:52:52Z</time></trkpt><trkpt lat="43.867182058514665" lon="11.61460256651638"><ele>751.0</ele><time>2026-04-05T16:52:53Z</time></trkpt><trkpt lat="43.86713654723822" lon="11.61447315083693"><ele>751.0</ele><time>2026-04-05T16:52:54Z</time></trkpt><trkpt lat="43.86708183005063" lon="11.614319089126534"><ele>751.0</ele><time>2026-04-05T16:52:55Z</time></trkpt><trkpt lat="43.86702021615256" lon="11.61417946252962"><ele>751.0</ele><time>2026-04-05T16:52:56Z</time></trkpt><trkpt lat="43.86694326640366" lon="11.6140467854722"><ele>750.25</ele><time>2026-04-05T16:52:57Z</time></trkpt><trkpt lat="43.86683571111949" lon="11.613931340459512"><ele>749.5</ele><time>2026-04-05T16:52:58Z</time></trkpt><trkpt lat="43.86670707509037" lon="11.613839557355336"><ele>748.75</ele><time>2026-04-05T16:52:59Z</time></trkpt><trkpt lat="43.86656208741206" lon="11.613794142928905"><ele>748.0</ele><time>2026-04-05T16:53:00Z</time></trkpt><trkpt lat="43.86641733878948" lon="11.613795175048379"><ele>748.0</ele><time>2026-04-05T16:53:01Z</time></trkpt><trkpt lat="43.866270191393525" lon="11.613847529990785"><ele>748.0</ele><time>2026-04-05T16:53:02Z</time></trkpt><trkpt lat="43.86613332341214" lon="11.613945617740724"><ele>748.0</ele><time>2026-04-05T16:53:03Z</time></trkpt><trkpt lat="43.86602357259488" lon="11.614075153877572"><ele>748.0</ele><time>2026-04-05T16:53:04Z</time></trkpt><trkpt lat="43.8659486668558" lon="11.614240699972376"><ele>748.0</ele><time>2026-04-05T16:53:05Z</time></trkpt><trkpt lat="43.865896493391496" lon="11.614444118742284"><ele>748.0</ele><time>2026-04-05T16:53:06Z</time></trkpt><trkpt lat="43.86582798435037" lon="11.614641618674492"><ele>746.0</ele><time>2026-04-05T16:53:07Z</time></trkpt><trkpt lat="43.86576193703935" lon="11.614835036607662"><ele>744.0</ele><time>2026-04-05T16:53:08Z</time></trkpt><trkpt lat="43.865697997835625" lon="11.615013639932926"><ele>742.0</ele><time>2026-04-05T16:53:09Z</time></trkpt><trkpt lat="43.865668116518464" lon="11.615191705611652"><ele>740.0</ele><time>2026-04-05T16:53:10Z</time></trkpt><trkpt lat="43.86564254141687" lon="11.615362261646393"><ele>740.0</ele><time>2026-04-05T16:53:11Z</time></trkpt><trkpt lat="43.86564603800007" lon="11.61554507592544"><ele>740.0</ele><time>2026-04-05T16:53:12Z</time></trkpt><trkpt lat="43.8656439253467" lon="11.615741932735471"><ele>740.0</ele><time>2026-04-05T16:53:13Z</time></trkpt><trkpt lat="43.86565915939105" lon="11.615944734303461"><ele>740.0</ele><time>2026-04-05T16:53:14Z</time></trkpt><trkpt lat="43.86567453681458" lon="11.616149444622858"><ele>739.3333333333333</ele><time>2026-04-05T16:53:15Z</time></trkpt><trkpt lat="43.86570324415381" lon="11.61635281651668"><ele>738.6666666666666</ele><time>2026-04-05T16:53:16Z</time></trkpt><trkpt lat="43.8656630108687" lon="11.616555524016578"><ele>738.0</ele><time>2026-04-05T16:53:17Z</time></trkpt><trkpt lat="43.86562358002757" lon="11.61676632306395"><ele>738.0</ele><time>2026-04-05T16:53:18Z</time></trkpt><trkpt lat="43.86558567616592" lon="11.616962152966872"><ele>738.0</ele><time>2026-04-05T16:53:19Z</time></trkpt><trkpt lat="43.86554777790342" lon="11.617139803331126"><ele>738.0</ele><time>2026-04-05T16:53:20Z</time></trkpt><trkpt lat="43.86549212931287" lon="11.617292194896578"><ele>738.0</ele><time>2026-04-05T16:53:21Z</time></trkpt><trkpt lat="43.86539444920692" lon="11.617389894021287"><ele>739.25</ele><time>2026-04-05T16:53:22Z</time></trkpt><trkpt lat="43.865270801232974" lon="11.617464201608843"><ele>740.5</ele><time>2026-04-05T16:53:23Z</time></trkpt><trkpt lat="43.86513438302483" lon="11.617551735487417"><ele>741.75</ele><time>2026-04-05T16:53:24Z</time></trkpt><trkpt lat="43.8650072097412" lon="11.61764740943825"><ele>743.0</ele><time>2026-04-05T16:53:25Z</time></trkpt><trkpt lat="43.86487736579955" lon="11.617723781534625"><ele>740.25</ele><time>2026-04-05T16:53:26Z</time></trkpt><trkpt lat="43.86475700999982" lon="11.617803274959781"><ele>737.5</ele><time>2026-04-05T16:53:27Z</time></trkpt><trkpt lat="43.86466324844332" lon="11.617898913425417"><ele>734.75</ele><time>2026-04-05T16:53:28Z</time></trkpt><trkpt lat="43.86460498456228" lon="11.618028290558438"><ele>732.0</ele><time>2026-04-05T16:53:29Z</time></trkpt><trkpt lat="43.86458010280501" lon="11.618182815114492"><ele>732.0</ele><time>2026-04-05T16:53:30Z</time></trkpt><trkpt lat="43.86460091843662" lon="11.618344357781085"><ele>732.0</ele><time>2026-04-05T16:53:31Z</time></trkpt><trkpt lat="43.86460688542496" lon="11.618515148027155"><ele>732.0</ele><time>2026-04-05T16:53:32Z</time></trkpt><trkpt lat="43.86462520778452" lon="11.618676355282611"><ele>732.0</ele><time>2026-04-05T16:53:33Z</time></trkpt><trkpt lat="43.86461909490115" lon="11.618823321324543"><ele>732.75</ele><time>2026-04-05T16:53:34Z</time></trkpt><trkpt lat="43.86455914792355" lon="11.618945782574423"><ele>733.5</ele><time>2026-04-05T16:53:35Z</time></trkpt><trkpt lat="43.86447684443701" lon="11.619087328156366"><ele>734.25</ele><time>2026-04-05T16:53:36Z</time></trkpt><trkpt lat="43.864382399328214" lon="11.619238899246433"><ele>735.0</ele><time>2026-04-05T16:53:37Z</time></trkpt><trkpt lat="43.86428136300735" lon="11.619396198337613"><ele>729.6666666666666</ele><time>2026-04-05T16:53:38Z</time></trkpt><trkpt lat="43.86417243223485" lon="11.619565272234768"><ele>724.3333333333333</ele><time>2026-04-05T16:53:39Z</time></trkpt><trkpt lat="43.86405997459458" lon="11.619739820085734"><ele>719.0</ele><time>2026-04-05T16:53:40Z</time></trkpt><trkpt lat="43.863946701464805" lon="11.619911402361907"><ele>719.0</ele><time>2026-04-05T16:53:41Z</time></trkpt><trkpt lat="43.8638320038756" lon="11.620084410766717"><ele>719.0</ele><time>2026-04-05T16:53:42Z</time></trkpt><trkpt lat="43.86373469339699" lon="11.62026167328042"><ele>719.0</ele><time>2026-04-05T16:53:43Z</time></trkpt><trkpt lat="43.863631182119946" lon="11.62041629153226"><ele>717.5</ele><time>2026-04-05T16:53:44Z</time></trkpt><trkpt lat="43.86354297136106" lon="11.62055566370893"><ele>716.0</ele><time>2026-04-05T16:53:45Z</time></trkpt><trkpt lat="43.86343692563087" lon="11.620669893159956"><ele>714.5</ele><time>2026-04-05T16:53:46Z</time></trkpt><trkpt lat="43.86333662175187" lon="11.620773465178655"><ele>713.0</ele><time>2026-04-05T16:53:47Z</time></trkpt><trkpt lat="43.86324130159935" lon="11.620852604292663"><ele>713.0</ele><time>2026-04-05T16:53:48Z</time></trkpt><trkpt lat="43.86314759457083" lon="11.620833506965761"><ele>713.0</ele><time>2026-04-05T16:53:49Z</time></trkpt><trkpt lat="43.86306603560694" lon="11.620748594264633"><ele>713.0</ele><time>2026-04-05T16:53:50Z</time></trkpt><trkpt lat="43.8630197504549" lon="11.620605895051826"><ele>713.0</ele><time>2026-04-05T16:53:51Z</time></trkpt><trkpt lat="43.863053215372176" lon="11.620435815485246"><ele>713.0</ele><time>2026-04-05T16:53:52Z</time></trkpt><trkpt lat="43.86312371028386" lon="11.620299382375013"><ele>714.5</ele><time>2026-04-05T16:53:53Z</time></trkpt><trkpt lat="43.863206343909916" lon="11.620163909741969"><ele>716.0</ele><time>2026-04-05T16:53:54Z</time></trkpt><trkpt lat="43.86330716637235" lon="11.620034034604567"><ele>717.5</ele><time>2026-04-05T16:53:55Z</time></trkpt><trkpt lat="43.863409303614056" lon="11.619892752569633"><ele>719.0</ele><time>2026-04-05T16:53:56Z</time></trkpt><trkpt lat="43.86351021493539" lon="11.619737675249405"><ele>719.0</ele><time>2026-04-05T16:53:57Z</time></trkpt><trkpt lat="43.86360647898911" lon="11.619584575484414"><ele>719.0</ele><time>2026-04-05T16:53:58Z</time></trkpt><trkpt lat="43.86369363318973" lon="11.619415743258"><ele>719.0</ele><time>2026-04-05T16:53:59Z</time></trkpt><trkpt lat="43.863747457308634" lon="11.61922620607223"><ele>719.0</ele><time>2026-04-05T16:54:00Z</time></trkpt><trkpt lat="43.86376881842862" lon="11.619024460321638"><ele>714.3333333333333</ele><time>2026-04-05T16:54:01Z</time></trkpt><trkpt lat="43.8637878597616" lon="11.618841811551967"><ele>709.6666666666666</ele><time>2026-04-05T16:54:02Z</time></trkpt><trkpt lat="43.86384150345196" lon="11.618525387744835"><ele>705.0</ele><time>2026-04-05T16:54:03Z</time></trkpt><trkpt lat="43.863866189761865" lon="11.618297080519103"><ele>704.0</ele><time>2026-04-05T16:54:04Z</time></trkpt><trkpt lat="43.863890714504564" lon="11.618087461041249"><ele>703.0</ele><time>2026-04-05T16:54:04.999Z</time></trkpt><trkpt lat="43.86390923890407" lon="11.617891346444836"><ele>702.0</ele><time>2026-04-05T16:54:05.999Z</time></trkpt><trkpt lat="43.863912139112514" lon="11.617703872018783"><ele>701.0</ele><time>2026-04-05T16:54:06.999Z</time></trkpt><trkpt lat="43.863840123370274" lon="11.617535284435121"><ele>700.25</ele><time>2026-04-05T16:54:07.999Z</time></trkpt><trkpt lat="43.86374620136108" lon="11.617400624629232"><ele>699.5</ele><time>2026-04-05T16:54:08.999Z</time></trkpt><trkpt lat="43.8636573407661" lon="11.61724137663907"><ele>698.75</ele><time>2026-04-05T16:54:09.999Z</time></trkpt><trkpt lat="43.86355893470958" lon="11.617104486397464"><ele>698.0</ele><time>2026-04-05T16:54:11Z</time></trkpt><trkpt lat="43.86350601567816" lon="11.616940661958258"><ele>695.5</ele><time>2026-04-05T16:54:12Z</time></trkpt><trkpt lat="43.86352504846099" lon="11.616754437541148"><ele>693.0</ele><time>2026-04-05T16:54:13Z</time></trkpt><trkpt lat="43.863618093322266" lon="11.61660117034769"><ele>690.5</ele><time>2026-04-05T16:54:14Z</time></trkpt><trkpt lat="43.8637013145994" lon="11.616415777093142"><ele>688.0</ele><time>2026-04-05T16:54:15Z</time></trkpt><trkpt lat="43.86378325773523" lon="11.616217814003996"><ele>684.6666666666667</ele><time>2026-04-05T16:54:16Z</time></trkpt><trkpt lat="43.86384669659442" lon="11.616015619528955"><ele>681.3333333333334</ele><time>2026-04-05T16:54:17Z</time></trkpt><trkpt lat="43.86390582589172" lon="11.615805960525183"><ele>678.0</ele><time>2026-04-05T16:54:18Z</time></trkpt><trkpt lat="43.863939814181784" lon="11.615584147428857"><ele>678.0</ele><time>2026-04-05T16:54:19Z</time></trkpt><trkpt lat="43.863954317779516" lon="11.61534519225368"><ele>678.0</ele><time>2026-04-05T16:54:20Z</time></trkpt><trkpt lat="43.863945783129836" lon="11.615101894214066"><ele>678.0</ele><time>2026-04-05T16:54:21Z</time></trkpt><trkpt lat="43.863929037331644" lon="11.614870200702402"><ele>679.3333333333334</ele><time>2026-04-05T16:54:22Z</time></trkpt><trkpt lat="43.86390996709883" lon="11.614652767284406"><ele>680.6666666666667</ele><time>2026-04-05T16:54:23Z</time></trkpt><trkpt lat="43.86386213525967" lon="11.61444798892681"><ele>682.0</ele><time>2026-04-05T16:54:24Z</time></trkpt><trkpt lat="43.86378409487583" lon="11.614263359461987"><ele>682.25</ele><time>2026-04-05T16:54:25Z</time></trkpt><trkpt lat="43.863674461695545" lon="11.614106834633281"><ele>682.5</ele><time>2026-04-05T16:54:26Z</time></trkpt><trkpt lat="43.86359174941671" lon="11.61394396749754"><ele>682.75</ele><time>2026-04-05T16:54:27Z</time></trkpt><trkpt lat="43.86351375027959" lon="11.613778392680546"><ele>683.0</ele><time>2026-04-05T16:54:28Z</time></trkpt><trkpt lat="43.86345280026551" lon="11.613603484672963"><ele>675.75</ele><time>2026-04-05T16:54:29Z</time></trkpt><trkpt lat="43.86341283806909" lon="11.613419445753989"><ele>668.5</ele><time>2026-04-05T16:54:30Z</time></trkpt><trkpt lat="43.86339517430567" lon="11.613229140844632"><ele>661.25</ele><time>2026-04-05T16:54:31Z</time></trkpt><trkpt lat="43.86339131156031" lon="11.613025341127816"><ele>654.0</ele><time>2026-04-05T16:54:32Z</time></trkpt><trkpt lat="43.8634012672072" lon="11.612803448884698"><ele>652.6666666666666</ele><time>2026-04-05T16:54:33Z</time></trkpt><trkpt lat="43.86341132517355" lon="11.612564356398035"><ele>651.3333333333333</ele><time>2026-04-05T16:54:34Z</time></trkpt><trkpt lat="43.863422014437845" lon="11.612304766230812"><ele>650.0</ele><time>2026-04-05T16:54:35Z</time></trkpt><trkpt lat="43.86342990983615" lon="11.612050763200987"><ele>655.6666666666666</ele><time>2026-04-05T16:54:36Z</time></trkpt><trkpt lat="43.863448519518016" lon="11.611814644995498"><ele>661.3333333333334</ele><time>2026-04-05T16:54:37Z</time></trkpt><trkpt lat="43.863484942314294" lon="11.61158375490323"><ele>667.0</ele><time>2026-04-05T16:54:38Z</time></trkpt><trkpt lat="43.86355708466844" lon="11.611349028740714"><ele>663.6666666666667</ele><time>2026-04-05T16:54:39Z</time></trkpt><trkpt lat="43.86363674485062" lon="11.611101710074283"><ele>660.3333333333334</ele><time>2026-04-05T16:54:40Z</time></trkpt><trkpt lat="43.86371937607403" lon="11.610836890991317"><ele>657.0</ele><time>2026-04-05T16:54:41Z</time></trkpt><trkpt lat="43.863800273052526" lon="11.610558513827415"><ele>651.0</ele><time>2026-04-05T16:54:42Z</time></trkpt><trkpt lat="43.863871075106836" lon="11.610259181243062"><ele>645.0</ele><time>2026-04-05T16:54:43Z</time></trkpt><trkpt lat="43.86392538794798" lon="11.60995899745247"><ele>645.0</ele><time>2026-04-05T16:54:44Z</time></trkpt><trkpt lat="43.86395955671696" lon="11.60967891055677"><ele>645.0</ele><time>2026-04-05T16:54:45Z</time></trkpt><trkpt lat="43.86399662442728" lon="11.609404827838123"><ele>645.0</ele><time>2026-04-05T16:54:46Z</time></trkpt><trkpt lat="43.8640390086414" lon="11.609155471061497"><ele>641.6666666666666</ele><time>2026-04-05T16:54:47Z</time></trkpt><trkpt lat="43.86409821910863" lon="11.608923714793384"><ele>638.3333333333333</ele><time>2026-04-05T16:54:48Z</time></trkpt><trkpt lat="43.864183548931884" lon="11.60869552117351"><ele>635.0</ele><time>2026-04-05T16:54:49Z</time></trkpt><trkpt lat="43.8642791383978" lon="11.608473817789674"><ele>636.0</ele><time>2026-04-05T16:54:50Z</time></trkpt><trkpt lat="43.864384679070604" lon="11.608245493694278"><ele>637.0</ele><time>2026-04-05T16:54:51Z</time></trkpt><trkpt lat="43.86448620191042" lon="11.608024790885382"><ele>638.0</ele><time>2026-04-05T16:54:52Z</time></trkpt><trkpt lat="43.86458669770547" lon="11.60781653638022"><ele>634.0</ele><time>2026-04-05T16:54:53Z</time></trkpt><trkpt lat="43.86468209024691" lon="11.607604632321491"><ele>630.0</ele><time>2026-04-05T16:54:54Z</time></trkpt><trkpt lat="43.86477003101812" lon="11.607403165832872"><ele>626.0</ele><time>2026-04-05T16:54:55Z</time></trkpt><trkpt lat="43.86484926692916" lon="11.607215234009287"><ele>626.0</ele><time>2026-04-05T16:54:56Z</time></trkpt><trkpt lat="43.86494531712221" lon="11.607055581554613"><ele>626.0</ele><time>2026-04-05T16:54:57Z</time></trkpt><trkpt lat="43.86507433720902" lon="11.606968357472983"><ele>626.0</ele><time>2026-04-05T16:54:58Z</time></trkpt><trkpt lat="43.865212278495925" lon="11.60688560581022"><ele>626.0</ele><time>2026-04-05T16:54:59Z</time></trkpt><trkpt lat="43.86534353547776" lon="11.60680819515853"><ele>620.6</ele><time>2026-04-05T16:55:00Z</time></trkpt><trkpt lat="43.86545780480721" lon="11.606750268593146"><ele>615.2</ele><time>2026-04-05T16:55:01Z</time></trkpt><trkpt lat="43.865543447052616" lon="11.606673581253865"><ele>609.8</ele><time>2026-04-05T16:55:02Z</time></trkpt><trkpt lat="43.86558730696787" lon="11.606568083402104"><ele>604.4</ele><time>2026-04-05T16:55:03Z</time></trkpt><trkpt lat="43.865586553691514" lon="11.606451977494926"><ele>599.0</ele><time>2026-04-05T16:55:04Z</time></trkpt><trkpt lat="43.865550982884635" lon="11.60632803996449"><ele>599.0</ele><time>2026-04-05T16:55:05Z</time></trkpt><trkpt lat="43.8654937033911" lon="11.60620583263898"><ele>599.0</ele><time>2026-04-05T16:55:06Z</time></trkpt><trkpt lat="43.86539134997288" lon="11.606126520430895"><ele>599.0</ele><time>2026-04-05T16:55:07Z</time></trkpt><trkpt lat="43.86528491986126" lon="11.606110121650984"><ele>599.0</ele><time>2026-04-05T16:55:08Z</time></trkpt><trkpt lat="43.8651781088418" lon="11.606161989926115"><ele>599.0</ele><time>2026-04-05T16:55:09Z</time></trkpt><trkpt lat="43.86509785719472" lon="11.606252061254148"><ele>601.75</ele><time>2026-04-05T16:55:10Z</time></trkpt><trkpt lat="43.865011925714775" lon="11.606360765205451"><ele>604.5</ele><time>2026-04-05T16:55:11Z</time></trkpt><trkpt lat="43.864901535426135" lon="11.606438454848801"><ele>607.25</ele><time>2026-04-05T16:55:12Z</time></trkpt><trkpt lat="43.864799208395105" lon="11.606559141484563"><ele>610.0</ele><time>2026-04-05T16:55:13Z</time></trkpt><trkpt lat="43.86468538422052" lon="11.606657416233961"><ele>610.0</ele><time>2026-04-05T16:55:14Z</time></trkpt><trkpt lat="43.86457575860755" lon="11.606749231981773"><ele>610.0</ele><time>2026-04-05T16:55:15Z</time></trkpt><trkpt lat="43.864475423704945" lon="11.606852460014542"><ele>610.0</ele><time>2026-04-05T16:55:16Z</time></trkpt><trkpt lat="43.86438042647333" lon="11.606963043733858"><ele>610.0</ele><time>2026-04-05T16:55:17Z</time></trkpt><trkpt lat="43.86430487702965" lon="11.607114824717303"><ele>607.6666666666667</ele><time>2026-04-05T16:55:18Z</time></trkpt><trkpt lat="43.86423334153722" lon="11.607301476803325"><ele>605.3333333333334</ele><time>2026-04-05T16:55:19Z</time></trkpt><trkpt lat="43.864150798433954" lon="11.607491618769892"><ele>603.0</ele><time>2026-04-05T16:55:20Z</time></trkpt><trkpt lat="43.864038356558645" lon="11.60767285897307"><ele>608.3333333333334</ele><time>2026-04-05T16:55:21Z</time></trkpt><trkpt lat="43.863921724680054" lon="11.607863602299714"><ele>613.6666666666667</ele><time>2026-04-05T16:55:22Z</time></trkpt><trkpt lat="43.863807140960446" lon="11.608037750208991"><ele>619.0</ele><time>2026-04-05T16:55:23Z</time></trkpt><trkpt lat="43.863700583481894" lon="11.608195568117159"><ele>619.0</ele><time>2026-04-05T16:55:24Z</time></trkpt><trkpt lat="43.86359349030614" lon="11.60835412049907"><ele>619.0</ele><time>2026-04-05T16:55:25Z</time></trkpt><trkpt lat="43.863502984362775" lon="11.608488975304331"><ele>619.0</ele><time>2026-04-05T16:55:26Z</time></trkpt><trkpt lat="43.86341162533149" lon="11.608619379637465"><ele>619.0</ele><time>2026-04-05T16:55:27Z</time></trkpt><trkpt lat="43.863317924317556" lon="11.608738534598759"><ele>615.75</ele><time>2026-04-05T16:55:28Z</time></trkpt><trkpt lat="43.86321366942676" lon="11.60884453828618"><ele>612.5</ele><time>2026-04-05T16:55:29Z</time></trkpt><trkpt lat="43.86310497602503" lon="11.608941909322256"><ele>609.25</ele><time>2026-04-05T16:55:30Z</time></trkpt><trkpt lat="43.86299453213381" lon="11.609034544863862"><ele>606.0</ele><time>2026-04-05T16:55:31Z</time></trkpt><trkpt lat="43.86288773257773" lon="11.609123000203388"><ele>606.0</ele><time>2026-04-05T16:55:32Z</time></trkpt><trkpt lat="43.86278132432875" lon="11.60921113148025"><ele>606.0</ele><time>2026-04-05T16:55:33Z</time></trkpt><trkpt lat="43.862675127987565" lon="11.609299007654679"><ele>606.0</ele><time>2026-04-05T16:55:34Z</time></trkpt><trkpt lat="43.8625707109532" lon="11.609387588647545"><ele>606.0</ele><time>2026-04-05T16:55:35Z</time></trkpt><trkpt lat="43.86247003253387" lon="11.609480880491098"><ele>603.25</ele><time>2026-04-05T16:55:36Z</time></trkpt><trkpt lat="43.86237313917729" lon="11.609581137725495"><ele>600.5</ele><time>2026-04-05T16:55:37Z</time></trkpt><trkpt lat="43.86226526620357" lon="11.609694653378773"><ele>597.75</ele><time>2026-04-05T16:55:38Z</time></trkpt><trkpt lat="43.86215119852155" lon="11.609812927297517"><ele>595.0</ele><time>2026-04-05T16:55:39Z</time></trkpt><trkpt lat="43.862042098916646" lon="11.609969459478599"><ele>595.0</ele><time>2026-04-05T16:55:40Z</time></trkpt><trkpt lat="43.861915794511376" lon="11.610093424380757"><ele>595.0</ele><time>2026-04-05T16:55:41Z</time></trkpt><trkpt lat="43.86178849459548" lon="11.610219924411"><ele>595.0</ele><time>2026-04-05T16:55:42Z</time></trkpt><trkpt lat="43.86166917236553" lon="11.610342391422867"><ele>590.75</ele><time>2026-04-05T16:55:43Z</time></trkpt><trkpt lat="43.86155230677069" lon="11.61043402204425"><ele>586.5</ele><time>2026-04-05T16:55:44Z</time></trkpt><trkpt lat="43.86146566437225" lon="11.610548219251505"><ele>582.25</ele><time>2026-04-05T16:55:45Z</time></trkpt><trkpt lat="43.86140001792745" lon="11.610669183786435"><ele>578.0</ele><time>2026-04-05T16:55:46Z</time></trkpt><trkpt lat="43.86135336719312" lon="11.610793515110267"><ele>578.0</ele><time>2026-04-05T16:55:47Z</time></trkpt><trkpt lat="43.86131030745038" lon="11.610916078120002"><ele>578.0</ele><time>2026-04-05T16:55:48Z</time></trkpt><trkpt lat="43.861278376319476" lon="11.611056726881197"><ele>578.0</ele><time>2026-04-05T16:55:49Z</time></trkpt><trkpt lat="43.861260948259016" lon="11.611198014264927"><ele>578.0</ele><time>2026-04-05T16:55:50Z</time></trkpt><trkpt lat="43.86125663211913" lon="11.61134892933826"><ele>578.0</ele><time>2026-04-05T16:55:51Z</time></trkpt><trkpt lat="43.86126715820792" lon="11.611525898499519"><ele>579.75</ele><time>2026-04-05T16:55:52Z</time></trkpt><trkpt lat="43.86128448104653" lon="11.611713279763178"><ele>581.5</ele><time>2026-04-05T16:55:53Z</time></trkpt><trkpt lat="43.86130304196856" lon="11.611914599204008"><ele>583.25</ele><time>2026-04-05T16:55:54Z</time></trkpt><trkpt lat="43.86132191029744" lon="11.612125306766456"><ele>585.0</ele><time>2026-04-05T16:55:55Z</time></trkpt><trkpt lat="43.86133881900969" lon="11.612341653686345"><ele>585.0</ele><time>2026-04-05T16:55:56Z</time></trkpt><trkpt lat="43.86135433344473" lon="11.612565632698383"><ele>585.0</ele><time>2026-04-05T16:55:57Z</time></trkpt><trkpt lat="43.86137496734181" lon="11.612780272370005"><ele>585.0</ele><time>2026-04-05T16:55:58Z</time></trkpt><trkpt lat="43.86137569643411" lon="11.61300264587732"><ele>585.3333333333334</ele><time>2026-04-05T16:55:59Z</time></trkpt><trkpt lat="43.86136880015771" lon="11.613222951694429"><ele>585.6666666666667</ele><time>2026-04-05T16:56:00Z</time></trkpt><trkpt lat="43.86135558268798" lon="11.613451989914866"><ele>586.0</ele><time>2026-04-05T16:56:01Z</time></trkpt><trkpt lat="43.861336093615925" lon="11.613683380232246"><ele>586.0</ele><time>2026-04-05T16:56:02Z</time></trkpt><trkpt lat="43.86131561388731" lon="11.613916014247158"><ele>586.0</ele><time>2026-04-05T16:56:03Z</time></trkpt><trkpt lat="43.86129431120621" lon="11.61414361234975"><ele>586.0</ele><time>2026-04-05T16:56:04Z</time></trkpt><trkpt lat="43.86127310171084" lon="11.614367997984509"><ele>587.6666666666667</ele><time>2026-04-05T16:56:05Z</time></trkpt><trkpt lat="43.86123630504645" lon="11.614582520570297"><ele>589.3333333333334</ele><time>2026-04-05T16:56:06Z</time></trkpt><trkpt lat="43.861217216247034" lon="11.614794992668305"><ele>591.0</ele><time>2026-04-05T16:56:07Z</time></trkpt><trkpt lat="43.86119958948876" lon="11.614995400150276"><ele>591.0</ele><time>2026-04-05T16:56:07.999Z</time></trkpt><trkpt lat="43.861182990420645" lon="11.615187839614636"><ele>591.0</ele><time>2026-04-05T16:56:08.999Z</time></trkpt><trkpt lat="43.86116767256223" lon="11.61535908172472"><ele>591.0</ele><time>2026-04-05T16:56:09.999Z</time></trkpt><trkpt lat="43.86114554188359" lon="11.615500652580108"><ele>591.0</ele><time>2026-04-05T16:56:10.999Z</time></trkpt><trkpt lat="43.86111620095863" lon="11.615634684944183"><ele>589.0</ele><time>2026-04-05T16:56:11.999Z</time></trkpt><trkpt lat="43.86103667393192" lon="11.615719118510949"><ele>587.0</ele><time>2026-04-05T16:56:12.999Z</time></trkpt><trkpt lat="43.86094663527435" lon="11.615746586671662"><ele>585.0</ele><time>2026-04-05T16:56:13.999Z</time></trkpt><trkpt lat="43.86084924804821" lon="11.615695190476547"><ele>583.0</ele><time>2026-04-05T16:56:14.999Z</time></trkpt><trkpt lat="43.86076378943022" lon="11.615573185366777"><ele>581.0</ele><time>2026-04-05T16:56:16Z</time></trkpt><trkpt lat="43.860708206825706" lon="11.615421684793613"><ele>577.25</ele><time>2026-04-05T16:56:17Z</time></trkpt><trkpt lat="43.860657087177884" lon="11.615263327841662"><ele>573.5</ele><time>2026-04-05T16:56:18Z</time></trkpt><trkpt lat="43.86060504118929" lon="11.615102425113456"><ele>569.75</ele><time>2026-04-05T16:56:19Z</time></trkpt><trkpt lat="43.860549069605334" lon="11.61492402971223"><ele>566.0</ele><time>2026-04-05T16:56:20Z</time></trkpt><trkpt lat="43.8604930642131" lon="11.61472946532654"><ele>566.0</ele><time>2026-04-05T16:56:21Z</time></trkpt><trkpt lat="43.860428382417936" lon="11.614530056317106"><ele>566.0</ele><time>2026-04-05T16:56:22Z</time></trkpt><trkpt lat="43.86036252625547" lon="11.614336127426734"><ele>566.0</ele><time>2026-04-05T16:56:23Z</time></trkpt><trkpt lat="43.86030463897229" lon="11.614158284037307"><ele>565.25</ele><time>2026-04-05T16:56:24Z</time></trkpt><trkpt lat="43.860239064987965" lon="11.614011177758398"><ele>564.5</ele><time>2026-04-05T16:56:25Z</time></trkpt><trkpt lat="43.860141709131945" lon="11.613894157273684"><ele>563.75</ele><time>2026-04-05T16:56:26Z</time></trkpt><trkpt lat="43.860018480801074" lon="11.613821330953858"><ele>563.0</ele><time>2026-04-05T16:56:27Z</time></trkpt><trkpt lat="43.859877897551584" lon="11.613764885111578"><ele>563.0</ele><time>2026-04-05T16:56:28Z</time></trkpt><trkpt lat="43.85975280348017" lon="11.613666323889381"><ele>563.0</ele><time>2026-04-05T16:56:29Z</time></trkpt><trkpt lat="43.85966703505263" lon="11.613515848599997"><ele>563.0</ele><time>2026-04-05T16:56:30Z</time></trkpt><trkpt lat="43.859623095037314" lon="11.613327718065642"><ele>563.0</ele><time>2026-04-05T16:56:31Z</time></trkpt><trkpt lat="43.859592962295096" lon="11.613122781643359"><ele>555.0</ele><time>2026-04-05T16:56:32Z</time></trkpt><trkpt lat="43.85955582596736" lon="11.612914638356335"><ele>547.0</ele><time>2026-04-05T16:56:33Z</time></trkpt><trkpt lat="43.85949875524742" lon="11.612711010535252"><ele>539.0</ele><time>2026-04-05T16:56:34Z</time></trkpt><trkpt lat="43.85942094965979" lon="11.61251226589371"><ele>537.6666666666666</ele><time>2026-04-05T16:56:35Z</time></trkpt><trkpt lat="43.8593255066902" lon="11.612318036443668"><ele>536.3333333333334</ele><time>2026-04-05T16:56:36Z</time></trkpt><trkpt lat="43.859233345585025" lon="11.61210868649817"><ele>535.0</ele><time>2026-04-05T16:56:37Z</time></trkpt><trkpt lat="43.85915028808246" lon="11.611901268159132"><ele>535.0</ele><time>2026-04-05T16:56:38Z</time></trkpt><trkpt lat="43.8590700487841" lon="11.611709118213918"><ele>535.0</ele><time>2026-04-05T16:56:39Z</time></trkpt><trkpt lat="43.859006944368325" lon="11.611532567002754"><ele>535.0</ele><time>2026-04-05T16:56:40Z</time></trkpt><trkpt lat="43.858951939055764" lon="11.61137202291254"><ele>535.0</ele><time>2026-04-05T16:56:41Z</time></trkpt><trkpt lat="43.85890112516038" lon="11.611230016330492"><ele>533.4</ele><time>2026-04-05T16:56:42Z</time></trkpt><trkpt lat="43.858843206190976" lon="11.61111109182283"><ele>531.8</ele><time>2026-04-05T16:56:43Z</time></trkpt><trkpt lat="43.85876251965638" lon="11.61102767177541"><ele>530.2</ele><time>2026-04-05T16:56:44Z</time></trkpt><trkpt lat="43.85865544783357" lon="11.610994652953758"><ele>528.6</ele><time>2026-04-05T16:56:45Z</time></trkpt><trkpt lat="43.85854804159881" lon="11.61102230923153"><ele>527.0</ele><time>2026-04-05T16:56:46Z</time></trkpt><trkpt lat="43.8584507720575" lon="11.611108289996825"><ele>529.6</ele><time>2026-04-05T16:56:47Z</time></trkpt><trkpt lat="43.858363151990474" lon="11.611219108176433"><ele>532.2</ele><time>2026-04-05T16:56:48Z</time></trkpt><trkpt lat="43.85827708430014" lon="11.611330540274993"><ele>534.8</ele><time>2026-04-05T16:56:49Z</time></trkpt><trkpt lat="43.858194379083656" lon="11.611412705182682"><ele>537.4</ele><time>2026-04-05T16:56:50Z</time></trkpt><trkpt lat="43.858136006749525" lon="11.611512514369968"><ele>540.0</ele><time>2026-04-05T16:56:51Z</time></trkpt><trkpt lat="43.85809474943368" lon="11.611631812356299"><ele>540.0</ele><time>2026-04-05T16:56:52Z</time></trkpt><trkpt lat="43.858092390693024" lon="11.611770425094456"><ele>540.0</ele><time>2026-04-05T16:56:53Z</time></trkpt><trkpt lat="43.85812648841906" lon="11.611900757767092"><ele>540.0</ele><time>2026-04-05T16:56:54Z</time></trkpt><trkpt lat="43.85816165869091" lon="11.612028807955705"><ele>540.0</ele><time>2026-04-05T16:56:55Z</time></trkpt><trkpt lat="43.858173457205716" lon="11.612150280489342"><ele>540.0</ele><time>2026-04-05T16:56:56Z</time></trkpt><trkpt lat="43.858164732228346" lon="11.612261796511808"><ele>541.8</ele><time>2026-04-05T16:56:57Z</time></trkpt><trkpt lat="43.85811724640077" lon="11.612360863049117"><ele>543.6</ele><time>2026-04-05T16:56:58Z</time></trkpt><trkpt lat="43.858034065699734" lon="11.612433360150659"><ele>545.4</ele><time>2026-04-05T16:56:59Z</time></trkpt><trkpt lat="43.85794086816932" lon="11.61241917716753"><ele>547.2</ele><time>2026-04-05T16:57:00Z</time></trkpt><trkpt lat="43.8578503240308" lon="11.612397724021914"><ele>549.0</ele><time>2026-04-05T16:57:01Z</time></trkpt><trkpt lat="43.85776387077008" lon="11.612307365306805"><ele>549.0</ele><time>2026-04-05T16:57:02Z</time></trkpt><trkpt lat="43.85767989983917" lon="11.612189560282255"><ele>549.0</ele><time>2026-04-05T16:57:03Z</time></trkpt><trkpt lat="43.85758932828977" lon="11.612076951515078"><ele>549.0</ele><time>2026-04-05T16:57:04Z</time></trkpt><trkpt lat="43.857507354863905" lon="11.611943829331251"><ele>549.0</ele><time>2026-04-05T16:57:05Z</time></trkpt><trkpt lat="43.8574236231614" lon="11.6118004701888"><ele>546.0</ele><time>2026-04-05T16:57:06Z</time></trkpt><trkpt lat="43.857338138277456" lon="11.61164614846359"><ele>543.0</ele><time>2026-04-05T16:57:07Z</time></trkpt><trkpt lat="43.857254525878965" lon="11.611489258266687"><ele>540.0</ele><time>2026-04-05T16:57:08Z</time></trkpt><trkpt lat="43.85719003749233" lon="11.611329381231306"><ele>537.0</ele><time>2026-04-05T16:57:09Z</time></trkpt><trkpt lat="43.85713930882407" lon="11.611171786352193"><ele>536.1666666666666</ele><time>2026-04-05T16:57:10Z</time></trkpt><trkpt lat="43.85708864886884" lon="11.61102636027807"><ele>535.3333333333334</ele><time>2026-04-05T16:57:11Z</time></trkpt><trkpt lat="43.85704499606718" lon="11.610917902288953"><ele>534.5</ele><time>2026-04-05T16:57:12Z</time></trkpt><trkpt lat="43.85699247249465" lon="11.61085104333688"><ele>533.6666666666667</ele><time>2026-04-05T16:57:13Z</time></trkpt><trkpt lat="43.85691268709805" lon="11.61082239473868"><ele>532.8333333333334</ele><time>2026-04-05T16:57:14Z</time></trkpt><trkpt lat="43.856837439428595" lon="11.610838044021257"><ele>532.0</ele><time>2026-04-05T16:57:15Z</time></trkpt><trkpt lat="43.85677178011726" lon="11.610898584693484"><ele>532.0</ele><time>2026-04-05T16:57:16Z</time></trkpt><trkpt lat="43.85672090502939" lon="11.610962518382863"><ele>532.0</ele><time>2026-04-05T16:57:17Z</time></trkpt><trkpt lat="43.85663276172496" lon="11.611053297669383"><ele>532.0</ele><time>2026-04-05T16:57:19Z</time></trkpt><trkpt lat="43.85655913545015" lon="11.611113152539211"><ele>532.0</ele><time>2026-04-05T17:01:09Z</time></trkpt><trkpt lat="43.856457540837525" lon="11.61120956764737"><ele>532.0</ele><time>2026-04-05T17:01:11Z</time></trkpt><trkpt lat="43.85638998486066" lon="11.611274135167735"><ele>534.8333333333334</ele><time>2026-04-05T17:01:12Z</time></trkpt><trkpt lat="43.85631019876479" lon="11.611336516565574"><ele>537.6666666666667</ele><time>2026-04-05T17:01:13Z</time></trkpt><trkpt lat="43.85625209959274" lon="11.611374702522816"><ele>540.5</ele><time>2026-04-05T17:01:14Z</time></trkpt><trkpt lat="43.85617253358188" lon="11.61142635855066"><ele>543.3333333333334</ele><time>2026-04-05T17:01:15Z</time></trkpt><trkpt lat="43.856096557181885" lon="11.611467336540443"><ele>546.1666666666666</ele><time>2026-04-05T17:01:16Z</time></trkpt><trkpt lat="43.85602814618303" lon="11.611501882512794"><ele>549.0</ele><time>2026-04-05T17:01:17Z</time></trkpt><trkpt lat="43.8559605030784" lon="11.611536356404311"><ele>547.5714285714286</ele><time>2026-04-05T17:01:18Z</time></trkpt><trkpt lat="43.855899069583835" lon="11.61156547182427"><ele>546.1428571428571</ele><time>2026-04-05T17:01:19Z</time></trkpt><trkpt lat="43.85583830452261" lon="11.611595494497719"><ele>544.7142857142858</ele><time>2026-04-05T17:01:20Z</time></trkpt><trkpt lat="43.85577073312877" lon="11.611633730612997"><ele>543.2857142857142</ele><time>2026-04-05T17:01:21Z</time></trkpt><trkpt lat="43.855699251916526" lon="11.611671958154291"><ele>541.8571428571429</ele><time>2026-04-05T17:01:22Z</time></trkpt><trkpt lat="43.85562113723361" lon="11.611690115575"><ele>540.4285714285714</ele><time>2026-04-05T17:01:23Z</time></trkpt><trkpt lat="43.85555120419802" lon="11.611742741756387"><ele>539.0</ele><time>2026-04-05T17:01:24Z</time></trkpt><trkpt lat="43.855467888419426" lon="11.611768785243642"><ele>539.0</ele><time>2026-04-05T17:01:25Z</time></trkpt><trkpt lat="43.85538314865342" lon="11.61180283689256"><ele>539.0</ele><time>2026-04-05T17:01:26Z</time></trkpt><trkpt lat="43.855299323270344" lon="11.611858200550863"><ele>539.0</ele><time>2026-04-05T17:01:27Z</time></trkpt><trkpt lat="43.855215924450874" lon="11.611928670362788"><ele>539.0</ele><time>2026-04-05T17:01:28Z</time></trkpt><trkpt lat="43.85511953178072" lon="11.612001999470804"><ele>539.0</ele><time>2026-04-05T17:01:29Z</time></trkpt><trkpt lat="43.85505143965646" lon="11.612103441837803"><ele>539.2</ele><time>2026-04-05T17:01:30Z</time></trkpt><trkpt lat="43.85497891335003" lon="11.612182308914585"><ele>539.4</ele><time>2026-04-05T17:01:31Z</time></trkpt><trkpt lat="43.854901755542016" lon="11.612251201743295"><ele>539.6</ele><time>2026-04-05T17:01:32Z</time></trkpt><trkpt lat="43.85482085325008" lon="11.612313379492385"><ele>539.8</ele><time>2026-04-05T17:01:33Z</time></trkpt><trkpt lat="43.85473261544044" lon="11.61237032800754"><ele>540.0</ele><time>2026-04-05T17:01:34Z</time></trkpt><trkpt lat="43.85464137047508" lon="11.61242796189158"><ele>540.0</ele><time>2026-04-05T17:01:35Z</time></trkpt><trkpt lat="43.8545398318279" lon="11.612482501631417"><ele>540.0</ele><time>2026-04-05T17:01:36Z</time></trkpt><trkpt lat="43.85444036720792" lon="11.612549620124483"><ele>540.0</ele><time>2026-04-05T17:01:37Z</time></trkpt><trkpt lat="43.854334953950094" lon="11.612629226308277"><ele>540.0</ele><time>2026-04-05T17:01:38Z</time></trkpt><trkpt lat="43.85423621026887" lon="11.612724840964175"><ele>541.75</ele><time>2026-04-05T17:01:39Z</time></trkpt><trkpt lat="43.85414219815584" lon="11.61282027120969"><ele>543.5</ele><time>2026-04-05T17:01:40Z</time></trkpt><trkpt lat="43.854047337562456" lon="11.612903338944502"><ele>545.25</ele><time>2026-04-05T17:01:41Z</time></trkpt><trkpt lat="43.8539242958132" lon="11.61290835314746"><ele>547.0</ele><time>2026-04-05T17:01:42Z</time></trkpt><trkpt lat="43.85381616034958" lon="11.612845182526318"><ele>544.0</ele><time>2026-04-05T17:01:43Z</time></trkpt><trkpt lat="43.8537006086292" lon="11.612815589183374"><ele>541.0</ele><time>2026-04-05T17:01:43.999Z</time></trkpt><trkpt lat="43.85358772944959" lon="11.612751564334397"><ele>538.0</ele><time>2026-04-05T17:01:44.999Z</time></trkpt><trkpt lat="43.85349219072258" lon="11.612678369040639"><ele>535.0</ele><time>2026-04-05T17:01:45.999Z</time></trkpt><trkpt lat="43.85342893526681" lon="11.612558229271043"><ele>535.0</ele><time>2026-04-05T17:01:46.999Z</time></trkpt><trkpt lat="43.85339689833596" lon="11.612399547920457"><ele>535.0</ele><time>2026-04-05T17:01:47.999Z</time></trkpt><trkpt lat="43.85339140089193" lon="11.612228476039265"><ele>535.0</ele><time>2026-04-05T17:01:48.999Z</time></trkpt><trkpt lat="43.853403040092736" lon="11.612056404990447"><ele>535.0</ele><time>2026-04-05T17:01:49.999Z</time></trkpt><trkpt lat="43.85343983648273" lon="11.611918605326334"><ele>530.2</ele><time>2026-04-05T17:01:50.999Z</time></trkpt><trkpt lat="43.85349660559069" lon="11.611797228505587"><ele>525.4</ele><time>2026-04-05T17:01:51.999Z</time></trkpt><trkpt lat="43.85354749980358" lon="11.61167488399417"><ele>520.6</ele><time>2026-04-05T17:01:52.999Z</time></trkpt><trkpt lat="43.853603422705966" lon="11.611569702020487"><ele>515.8</ele><time>2026-04-05T17:01:53.999Z</time></trkpt><trkpt lat="43.85362634826226" lon="11.611442517268182"><ele>511.0</ele><time>2026-04-05T17:01:54.999Z</time></trkpt><trkpt lat="43.85361134355965" lon="11.6112918204979"><ele>510.0</ele><time>2026-04-05T17:01:55.999Z</time></trkpt><trkpt lat="43.85356181747631" lon="11.611148002864404"><ele>509.0</ele><time>2026-04-05T17:01:56.999Z</time></trkpt><trkpt lat="43.85348105026228" lon="11.611037695781393"><ele>508.0</ele><time>2026-04-05T17:01:57.999Z</time></trkpt><trkpt lat="43.853382993670756" lon="11.610951226536919"><ele>507.0</ele><time>2026-04-05T17:01:58.999Z</time></trkpt><trkpt lat="43.85326551783709" lon="11.610885942270924"><ele>512.4</ele><time>2026-04-05T17:01:59.999Z</time></trkpt><trkpt lat="43.85318122516802" lon="11.610808646055407"><ele>517.8000000000001</ele><time>2026-04-05T17:02:00.999Z</time></trkpt><trkpt lat="43.85315702198448" lon="11.610695835973928"><ele>523.2</ele><time>2026-04-05T17:02:01.999Z</time></trkpt><trkpt lat="43.85316216938615" lon="11.610551121253868"><ele>528.6</ele><time>2026-04-05T17:02:02.999Z</time></trkpt><trkpt lat="43.85319570115823" lon="11.61042689617589"><ele>534.0</ele><time>2026-04-05T17:02:03.999Z</time></trkpt><trkpt lat="43.853284883026156" lon="11.610338914611024"><ele>537.5</ele><time>2026-04-05T17:02:04.999Z</time></trkpt><trkpt lat="43.8533959182682" lon="11.610310282123104"><ele>541.0</ele><time>2026-04-05T17:02:05.999Z</time></trkpt><trkpt lat="43.85351615463757" lon="11.610263731962549"><ele>544.5</ele><time>2026-04-05T17:02:06.999Z</time></trkpt><trkpt lat="43.85362590396303" lon="11.610193788185516"><ele>548.0</ele><time>2026-04-05T17:02:07.999Z</time></trkpt><trkpt lat="43.85372287725978" lon="11.61011167842214"><ele>543.25</ele><time>2026-04-05T17:02:08.999Z</time></trkpt><trkpt lat="43.853804264234775" lon="11.609973282025678"><ele>538.5</ele><time>2026-04-05T17:02:09.999Z</time></trkpt><trkpt lat="43.85386690371109" lon="11.609805340620978"><ele>533.75</ele><time>2026-04-05T17:02:10.999Z</time></trkpt><trkpt lat="43.85392177392039" lon="11.609645156123346"><ele>529.0</ele><time>2026-04-05T17:02:11.999Z</time></trkpt><trkpt lat="43.85398951550529" lon="11.609462878287006"><ele>529.0</ele><time>2026-04-05T17:02:12.999Z</time></trkpt><trkpt lat="43.85410147785846" lon="11.609341374671905"><ele>529.0</ele><time>2026-04-05T17:02:13.999Z</time></trkpt><trkpt lat="43.854187991387306" lon="11.609206869019399"><ele>529.0</ele><time>2026-04-05T17:02:14.999Z</time></trkpt><trkpt lat="43.85427907873637" lon="11.609098372882777"><ele>529.0</ele><time>2026-04-05T17:02:15.999Z</time></trkpt><trkpt lat="43.8543336810658" lon="11.608941608262436"><ele>532.25</ele><time>2026-04-05T17:02:16.999Z</time></trkpt><trkpt lat="43.85432910836116" lon="11.608770915420612"><ele>535.5</ele><time>2026-04-05T17:02:17.999Z</time></trkpt><trkpt lat="43.85432117796802" lon="11.60859035391185"><ele>538.75</ele><time>2026-04-05T17:02:18.999Z</time></trkpt><trkpt lat="43.85427554104167" lon="11.608414696260997"><ele>542.0</ele><time>2026-04-05T17:02:19.999Z</time></trkpt><trkpt lat="43.854246912456546" lon="11.608226202018749"><ele>542.0</ele><time>2026-04-05T17:02:20.999Z</time></trkpt><trkpt lat="43.85426095434962" lon="11.608030787140565"><ele>542.0</ele><time>2026-04-05T17:02:21.999Z</time></trkpt><trkpt lat="43.85429961215958" lon="11.607859388048412"><ele>542.0</ele><time>2026-04-05T17:02:22.999Z</time></trkpt><trkpt lat="43.85434199288711" lon="11.60769545923461"><ele>542.0</ele><time>2026-04-05T17:02:23.999Z</time></trkpt><trkpt lat="43.854352579347236" lon="11.607528430938"><ele>541.5</ele><time>2026-04-05T17:02:24.999Z</time></trkpt><trkpt lat="43.85431909435109" lon="11.6073737763116"><ele>541.0</ele><time>2026-04-05T17:02:25.999Z</time></trkpt><trkpt lat="43.854255395001935" lon="11.607243116501959"><ele>540.5</ele><time>2026-04-05T17:02:26.999Z</time></trkpt><trkpt lat="43.854184213975415" lon="11.607114348682922"><ele>540.0</ele><time>2026-04-05T17:02:27.999Z</time></trkpt><trkpt lat="43.854143643639446" lon="11.606982492810095"><ele>542.0</ele><time>2026-04-05T17:02:28.999Z</time></trkpt><trkpt lat="43.85414214291152" lon="11.606850779500917"><ele>544.0</ele><time>2026-04-05T17:02:29.999Z</time></trkpt><trkpt lat="43.85419620156678" lon="11.606743668029686"><ele>546.0</ele><time>2026-04-05T17:02:30.999Z</time></trkpt><trkpt lat="43.85430466374265" lon="11.606738893296471"><ele>548.0</ele><time>2026-04-05T17:02:31.999Z</time></trkpt><trkpt lat="43.85440033889758" lon="11.606735156120957"><ele>550.0</ele><time>2026-04-05T17:02:33Z</time></trkpt><trkpt lat="43.85450429873116" lon="11.606737383142002"><ele>543.75</ele><time>2026-04-05T17:02:34Z</time></trkpt><trkpt lat="43.8546107458681" lon="11.606732496451627"><ele>537.5</ele><time>2026-04-05T17:02:35Z</time></trkpt><trkpt lat="43.85475843721269" lon="11.606706406789002"><ele>531.25</ele><time>2026-04-05T17:02:36Z</time></trkpt><trkpt lat="43.85488820563598" lon="11.606590715739902"><ele>525.0</ele><time>2026-04-05T17:02:37Z</time></trkpt><trkpt lat="43.855020503344626" lon="11.606539703373011"><ele>517.75</ele><time>2026-04-05T17:02:38Z</time></trkpt><trkpt lat="43.855143114432444" lon="11.6065641261668"><ele>510.5</ele><time>2026-04-05T17:02:39Z</time></trkpt><trkpt lat="43.85526000856132" lon="11.606548849646037"><ele>503.25</ele><time>2026-04-05T17:02:40Z</time></trkpt><trkpt lat="43.85535878480152" lon="11.606488437655996"><ele>496.0</ele><time>2026-04-05T17:02:41Z</time></trkpt><trkpt lat="43.855453430155265" lon="11.606394608171684"><ele>496.0</ele><time>2026-04-05T17:02:42Z</time></trkpt><trkpt lat="43.855540133460394" lon="11.606250170413311"><ele>496.0</ele><time>2026-04-05T17:02:43Z</time></trkpt><trkpt lat="43.85561346647747" lon="11.60608380466213"><ele>496.0</ele><time>2026-04-05T17:02:44Z</time></trkpt><trkpt lat="43.85566712183301" lon="11.605881819075691"><ele>496.0</ele><time>2026-04-05T17:02:45Z</time></trkpt><trkpt lat="43.85572956254751" lon="11.605686443437543"><ele>502.33333333333337</ele><time>2026-04-05T17:02:46Z</time></trkpt><trkpt lat="43.85578620639753" lon="11.605465016634938"><ele>508.66666666666663</ele><time>2026-04-05T17:02:47Z</time></trkpt><trkpt lat="43.85584813419568" lon="11.605269666731303"><ele>515.0</ele><time>2026-04-05T17:02:48Z</time></trkpt><trkpt lat="43.85590222070381" lon="11.605087779849066"><ele>514.5</ele><time>2026-04-05T17:02:49Z</time></trkpt><trkpt lat="43.855931473634634" lon="11.60490399585279"><ele>514.0</ele><time>2026-04-05T17:02:50Z</time></trkpt><trkpt lat="43.855928881640466" lon="11.604724330880742"><ele>513.5</ele><time>2026-04-05T17:02:51Z</time></trkpt><trkpt lat="43.85593727171042" lon="11.604562063326929"><ele>513.0</ele><time>2026-04-05T17:02:52Z</time></trkpt><trkpt lat="43.855988822229634" lon="11.604431901233278"><ele>513.0</ele><time>2026-04-05T17:02:53Z</time></trkpt><trkpt lat="43.85602466744681" lon="11.604311922390947"><ele>513.0</ele><time>2026-04-05T17:02:54Z</time></trkpt><trkpt lat="43.85619226865297" lon="11.604300122096612"><ele>513.0</ele><time>2026-04-05T17:02:55Z</time></trkpt><trkpt lat="43.85631817014782" lon="11.604292904557594"><ele>513.0</ele><time>2026-04-05T17:02:56Z</time></trkpt><trkpt lat="43.85644403016691" lon="11.604266712805627"><ele>513.0</ele><time>2026-04-05T17:02:57Z</time></trkpt><trkpt lat="43.85656762469734" lon="11.604208172811008"><ele>513.0</ele><time>2026-04-05T17:02:58Z</time></trkpt><trkpt lat="43.856673771440306" lon="11.604103726740897"><ele>513.0</ele><time>2026-04-05T17:02:59Z</time></trkpt><trkpt lat="43.85676132365578" lon="11.603949960633583"><ele>513.0</ele><time>2026-04-05T17:03:00Z</time></trkpt><trkpt lat="43.85681083130857" lon="11.603765732440715"><ele>511.5</ele><time>2026-04-05T17:03:01Z</time></trkpt><trkpt lat="43.856823247607906" lon="11.603572301527981"><ele>510.0</ele><time>2026-04-05T17:03:02Z</time></trkpt><trkpt lat="43.85682159605314" lon="11.603386508831237"><ele>508.5</ele><time>2026-04-05T17:03:03Z</time></trkpt><trkpt lat="43.856831023138696" lon="11.603226828370266"><ele>507.0</ele><time>2026-04-05T17:03:04Z</time></trkpt><trkpt lat="43.85688546896756" lon="11.603067275682625"><ele>507.0</ele><time>2026-04-05T17:03:05Z</time></trkpt><trkpt lat="43.856967013545045" lon="11.60293140770601"><ele>507.0</ele><time>2026-04-05T17:03:06Z</time></trkpt><trkpt lat="43.857077514374396" lon="11.602817130485644"><ele>507.0</ele><time>2026-04-05T17:03:07Z</time></trkpt><trkpt lat="43.8571968451725" lon="11.60271010628117"><ele>507.0</ele><time>2026-04-05T17:03:08Z</time></trkpt><trkpt lat="43.85731643543464" lon="11.602596229645787"><ele>505.25</ele><time>2026-04-05T17:03:09Z</time></trkpt><trkpt lat="43.857428662298354" lon="11.60247103556379"><ele>503.5</ele><time>2026-04-05T17:03:10Z</time></trkpt><trkpt lat="43.85753732604506" lon="11.602331328082126"><ele>501.75</ele><time>2026-04-05T17:03:11Z</time></trkpt><trkpt lat="43.857643479282935" lon="11.602199416587247"><ele>500.0</ele><time>2026-04-05T17:03:12Z</time></trkpt><trkpt lat="43.85775929869064" lon="11.602089680527829"><ele>500.0</ele><time>2026-04-05T17:03:13Z</time></trkpt><trkpt lat="43.85788850011056" lon="11.602010371896107"><ele>500.0</ele><time>2026-04-05T17:03:14Z</time></trkpt><trkpt lat="43.858028085517375" lon="11.601966326576033"><ele>500.0</ele><time>2026-04-05T17:03:15Z</time></trkpt><trkpt lat="43.858144114828804" lon="11.601923204781759"><ele>500.0</ele><time>2026-04-05T17:03:16Z</time></trkpt><trkpt lat="43.85824341443247" lon="11.60185138765722"><ele>505.25</ele><time>2026-04-05T17:03:17Z</time></trkpt><trkpt lat="43.85831578422617" lon="11.601734408714421"><ele>510.5</ele><time>2026-04-05T17:03:18Z</time></trkpt><trkpt lat="43.85836315029779" lon="11.601578125060264"><ele>515.75</ele><time>2026-04-05T17:03:19Z</time></trkpt><trkpt lat="43.858388704796" lon="11.601395014845934"><ele>521.0</ele><time>2026-04-05T17:03:20Z</time></trkpt><trkpt lat="43.85841601787136" lon="11.601214366207769"><ele>515.25</ele><time>2026-04-05T17:03:21Z</time></trkpt><trkpt lat="43.85848546890012" lon="11.601039558580998"><ele>509.5</ele><time>2026-04-05T17:03:22Z</time></trkpt><trkpt lat="43.85855550149075" lon="11.600867582627126"><ele>503.75</ele><time>2026-04-05T17:03:23Z</time></trkpt><trkpt lat="43.85863938125688" lon="11.600692168847837"><ele>498.0</ele><time>2026-04-05T17:03:24Z</time></trkpt><trkpt lat="43.85872511091067" lon="11.600527907643016"><ele>498.0</ele><time>2026-04-05T17:03:25Z</time></trkpt><trkpt lat="43.858809539826815" lon="11.600385782538856"><ele>498.0</ele><time>2026-04-05T17:03:26Z</time></trkpt><trkpt lat="43.8588949369592" lon="11.600260370824977"><ele>498.0</ele><time>2026-04-05T17:03:27Z</time></trkpt><trkpt lat="43.858970728395235" lon="11.600117026215047"><ele>498.0</ele><time>2026-04-05T17:03:28Z</time></trkpt><trkpt lat="43.85901631565417" lon="11.599948143513627"><ele>501.0</ele><time>2026-04-05T17:03:29Z</time></trkpt><trkpt lat="43.85901660234615" lon="11.599755260734339"><ele>504.0</ele><time>2026-04-05T17:03:30Z</time></trkpt><trkpt lat="43.858967122759275" lon="11.599574145355252"><ele>507.0</ele><time>2026-04-05T17:03:31Z</time></trkpt><trkpt lat="43.85892107076838" lon="11.599402451094912"><ele>510.0</ele><time>2026-04-05T17:03:32Z</time></trkpt><trkpt lat="43.85890410740174" lon="11.599206951142454"><ele>510.5</ele><time>2026-04-05T17:03:33Z</time></trkpt><trkpt lat="43.8589196185992" lon="11.59900197660292"><ele>511.0</ele><time>2026-04-05T17:03:34Z</time></trkpt><trkpt lat="43.85894692267111" lon="11.598813273397926"><ele>511.5</ele><time>2026-04-05T17:03:35Z</time></trkpt><trkpt lat="43.858987717384686" lon="11.598653886618159"><ele>512.0</ele><time>2026-04-05T17:03:36Z</time></trkpt><trkpt lat="43.85905302885903" lon="11.598515418390896"><ele>514.25</ele><time>2026-04-05T17:03:37Z</time></trkpt><trkpt lat="43.85914900086224" lon="11.598401453788822"><ele>516.5</ele><time>2026-04-05T17:03:38Z</time></trkpt><trkpt lat="43.85925607678733" lon="11.598295865495851"><ele>518.75</ele><time>2026-04-05T17:03:39Z</time></trkpt><trkpt lat="43.85933916492183" lon="11.598159277484537"><ele>521.0</ele><time>2026-04-05T17:03:40Z</time></trkpt><trkpt lat="43.85939135643989" lon="11.597987957015638"><ele>516.75</ele><time>2026-04-05T17:03:41Z</time></trkpt><trkpt lat="43.85944118092049" lon="11.597805364326023"><ele>512.5</ele><time>2026-04-05T17:03:42Z</time></trkpt><trkpt lat="43.859505727017236" lon="11.597637155611531"><ele>508.25</ele><time>2026-04-05T17:03:43Z</time></trkpt><trkpt lat="43.85959769502018" lon="11.597486732700272"><ele>504.0</ele><time>2026-04-05T17:03:44Z</time></trkpt><trkpt lat="43.859708475819666" lon="11.59734767687421"><ele>504.0</ele><time>2026-04-05T17:03:45Z</time></trkpt><trkpt lat="43.859814404474996" lon="11.597217188786757"><ele>504.0</ele><time>2026-04-05T17:03:46Z</time></trkpt><trkpt lat="43.859912171182835" lon="11.597088343974892"><ele>504.0</ele><time>2026-04-05T17:03:47Z</time></trkpt><trkpt lat="43.859989045440436" lon="11.596948215805902"><ele>504.0</ele><time>2026-04-05T17:03:48Z</time></trkpt><trkpt lat="43.86004270773109" lon="11.596792193695952"><ele>506.5</ele><time>2026-04-05T17:03:49Z</time></trkpt><trkpt lat="43.86007954363266" lon="11.596607595714223"><ele>509.0</ele><time>2026-04-05T17:03:50Z</time></trkpt><trkpt lat="43.860104021249306" lon="11.596412131034107"><ele>511.5</ele><time>2026-04-05T17:03:51Z</time></trkpt><trkpt lat="43.860113181516375" lon="11.596197490599065"><ele>514.0</ele><time>2026-04-05T17:03:52Z</time></trkpt><trkpt lat="43.86010832279636" lon="11.595973759762"><ele>514.6666666666667</ele><time>2026-04-05T17:03:53Z</time></trkpt><trkpt lat="43.86011006637627" lon="11.595742151408563"><ele>515.3333333333334</ele><time>2026-04-05T17:03:54Z</time></trkpt><trkpt lat="43.8601152338921" lon="11.59551236574611"><ele>516.0</ele><time>2026-04-05T17:03:55Z</time></trkpt><trkpt lat="43.86012020947239" lon="11.595295021656206"><ele>515.5</ele><time>2026-04-05T17:03:56Z</time></trkpt><trkpt lat="43.86012597368013" lon="11.595100477449293"><ele>515.0</ele><time>2026-04-05T17:03:57Z</time></trkpt><trkpt lat="43.86011623108844" lon="11.594909890371706"><ele>514.5</ele><time>2026-04-05T17:03:58Z</time></trkpt><trkpt lat="43.86008617711502" lon="11.594725396341662"><ele>514.0</ele><time>2026-04-05T17:03:59Z</time></trkpt><trkpt lat="43.860025992462624" lon="11.594560649025828"><ele>513.0</ele><time>2026-04-05T17:04:00Z</time></trkpt><trkpt lat="43.85996135379688" lon="11.594407098045417"><ele>512.0</ele><time>2026-04-05T17:04:01Z</time></trkpt><trkpt lat="43.859907095632344" lon="11.594266044178445"><ele>511.0</ele><time>2026-04-05T17:04:02Z</time></trkpt><trkpt lat="43.859900472045524" lon="11.594120933388188"><ele>510.0</ele><time>2026-04-05T17:04:03Z</time></trkpt><trkpt lat="43.85993064884376" lon="11.593980146150242"><ele>510.0</ele><time>2026-04-05T17:04:04Z</time></trkpt><trkpt lat="43.85999879522798" lon="11.593863618899356"><ele>510.0</ele><time>2026-04-05T17:04:05Z</time></trkpt><trkpt lat="43.86009361879825" lon="11.593757086365473"><ele>510.0</ele><time>2026-04-05T17:04:06Z</time></trkpt><trkpt lat="43.86021353468534" lon="11.593659433725763"><ele>510.0</ele><time>2026-04-05T17:04:07Z</time></trkpt><trkpt lat="43.86034020139003" lon="11.59357034597206"><ele>502.75</ele><time>2026-04-05T17:04:08Z</time></trkpt><trkpt lat="43.86045881337584" lon="11.593469560449115"><ele>495.5</ele><time>2026-04-05T17:04:09Z</time></trkpt><trkpt lat="43.860553569565084" lon="11.593333889651708"><ele>488.25</ele><time>2026-04-05T17:04:10Z</time></trkpt><trkpt lat="43.860623790810536" lon="11.593164586344148"><ele>481.0</ele><time>2026-04-05T17:04:11Z</time></trkpt><trkpt lat="43.86066198798594" lon="11.59295609494864"><ele>483.0</ele><time>2026-04-05T17:04:12Z</time></trkpt><trkpt lat="43.86067906193674" lon="11.592720051060546"><ele>485.0</ele><time>2026-04-05T17:04:13Z</time></trkpt><trkpt lat="43.86069879512994" lon="11.592466712090474"><ele>487.0</ele><time>2026-04-05T17:04:14Z</time></trkpt><trkpt lat="43.86071897311078" lon="11.592220877970103"><ele>486.33333333333337</ele><time>2026-04-05T17:04:15Z</time></trkpt><trkpt lat="43.86074119290538" lon="11.591997290345901"><ele>485.66666666666663</ele><time>2026-04-05T17:04:16Z</time></trkpt><trkpt lat="43.8607603203144" lon="11.591783571758294"><ele>485.0</ele><time>2026-04-05T17:04:17Z</time></trkpt><trkpt lat="43.86077178441638" lon="11.59158042761798"><ele>485.0</ele><time>2026-04-05T17:04:18Z</time></trkpt><trkpt lat="43.860754732947285" lon="11.591379937736374"><ele>485.0</ele><time>2026-04-05T17:04:19Z</time></trkpt><trkpt lat="43.860711861040926" lon="11.59114853000461"><ele>485.0</ele><time>2026-04-05T17:04:20Z</time></trkpt><trkpt lat="43.860661044512675" lon="11.5909133813999"><ele>483.3333333333333</ele><time>2026-04-05T17:04:21Z</time></trkpt><trkpt lat="43.860607657563264" lon="11.59069693662323"><ele>481.66666666666663</ele><time>2026-04-05T17:04:22Z</time></trkpt><trkpt lat="43.86056215039702" lon="11.590492732097607"><ele>480.0</ele><time>2026-04-05T17:04:23Z</time></trkpt><trkpt lat="43.860532492795926" lon="11.59029030155843"><ele>478.33333333333337</ele><time>2026-04-05T17:04:24Z</time></trkpt><trkpt lat="43.86052726753032" lon="11.590087733829337"><ele>476.6666666666667</ele><time>2026-04-05T17:04:25Z</time></trkpt><trkpt lat="43.86055638130179" lon="11.589881061210596"><ele>475.0</ele><time>2026-04-05T17:04:26Z</time></trkpt><trkpt lat="43.860605230548295" lon="11.589680639976674"><ele>475.0</ele><time>2026-04-05T17:04:27Z</time></trkpt><trkpt lat="43.86064758423062" lon="11.589510388778859"><ele>475.0</ele><time>2026-04-05T17:04:28Z</time></trkpt><trkpt lat="43.86069434805755" lon="11.58937281521835"><ele>475.0</ele><time>2026-04-05T17:04:29Z</time></trkpt><trkpt lat="43.86077038739691" lon="11.589292935429341"><ele>475.0</ele><time>2026-04-05T17:04:30Z</time></trkpt><trkpt lat="43.86086462647895" lon="11.589277040165316"><ele>475.0</ele><time>2026-04-05T17:04:31Z</time></trkpt><trkpt lat="43.86095772907463" lon="11.589286433296449"><ele>470.0</ele><time>2026-04-05T17:04:32Z</time></trkpt><trkpt lat="43.86104918199778" lon="11.589290086172786"><ele>465.0</ele><time>2026-04-05T17:04:33Z</time></trkpt><trkpt lat="43.861147472364046" lon="11.589278615402428"><ele>460.0</ele><time>2026-04-05T17:04:34Z</time></trkpt><trkpt lat="43.86123515264659" lon="11.589229538934534"><ele>455.0</ele><time>2026-04-05T17:04:35Z</time></trkpt><trkpt lat="43.861313609860154" lon="11.589151252579123"><ele>450.0</ele><time>2026-04-05T17:04:36Z</time></trkpt><trkpt lat="43.861374424054084" lon="11.589021493363028"><ele>450.0</ele><time>2026-04-05T17:04:37Z</time></trkpt><trkpt lat="43.86141738734373" lon="11.588862100272848"><ele>450.0</ele><time>2026-04-05T17:04:38Z</time></trkpt><trkpt lat="43.86143592354554" lon="11.588676024769486"><ele>450.0</ele><time>2026-04-05T17:04:39Z</time></trkpt><trkpt lat="43.861441250221986" lon="11.588485072709995"><ele>450.0</ele><time>2026-04-05T17:04:40Z</time></trkpt><trkpt lat="43.86143790221763" lon="11.588278466838963"><ele>452.0</ele><time>2026-04-05T17:04:41Z</time></trkpt><trkpt lat="43.861429220893626" lon="11.588062687774215"><ele>454.0</ele><time>2026-04-05T17:04:42Z</time></trkpt><trkpt lat="43.86141780697971" lon="11.58783970453802"><ele>456.0</ele><time>2026-04-05T17:04:43Z</time></trkpt><trkpt lat="43.86142740224432" lon="11.5876283281484"><ele>456.0</ele><time>2026-04-05T17:04:44Z</time></trkpt><trkpt lat="43.86143947197095" lon="11.587419301425156"><ele>456.0</ele><time>2026-04-05T17:04:45Z</time></trkpt><trkpt lat="43.86148192708121" lon="11.587201892410128"><ele>456.0</ele><time>2026-04-05T17:04:46Z</time></trkpt><trkpt lat="43.861532975314134" lon="11.586982690670581"><ele>456.33333333333337</ele><time>2026-04-05T17:04:47Z</time></trkpt><trkpt lat="43.8615812617964" lon="11.586785906775706"><ele>456.6666666666667</ele><time>2026-04-05T17:04:48Z</time></trkpt><trkpt lat="43.861631980596364" lon="11.586568227450064"><ele>457.0</ele><time>2026-04-05T17:04:49Z</time></trkpt><trkpt lat="43.86167937212728" lon="11.586359305633623"><ele>456.5</ele><time>2026-04-05T17:04:50Z</time></trkpt><trkpt lat="43.861723715846416" lon="11.586159421708475"><ele>456.0</ele><time>2026-04-05T17:04:51Z</time></trkpt><trkpt lat="43.86175642127379" lon="11.585984198605884"><ele>455.5</ele><time>2026-04-05T17:04:52Z</time></trkpt><trkpt lat="43.861785212131544" lon="11.58582449570793"><ele>455.0</ele><time>2026-04-05T17:04:53Z</time></trkpt><trkpt lat="43.86180400164146" lon="11.585662944445371"><ele>453.99999999999994</ele><time>2026-04-05T17:04:54Z</time></trkpt><trkpt lat="43.86181007684827" lon="11.585520002037654"><ele>453.0</ele><time>2026-04-05T17:04:55Z</time></trkpt><trkpt lat="43.86180221113003" lon="11.585397616015872"><ele>452.0</ele><time>2026-04-05T17:04:56Z</time></trkpt><trkpt lat="43.86178150713964" lon="11.585292473580177"><ele>451.0</ele><time>2026-04-05T17:04:57Z</time></trkpt><trkpt lat="43.86174775053459" lon="11.585200936080291"><ele>449.99999999999994</ele><time>2026-04-05T17:04:58Z</time></trkpt><trkpt lat="43.86169823408483" lon="11.585130027930632"><ele>449.0</ele><time>2026-04-05T17:04:59Z</time></trkpt><trkpt lat="43.86163873263793" lon="11.585079170983917"><ele>448.99999999999994</ele><time>2026-04-05T17:05:00Z</time></trkpt><trkpt lat="43.861574453768235" lon="11.58504406111706"><ele>449.0</ele><time>2026-04-05T17:05:01Z</time></trkpt><trkpt lat="43.86150837283224" lon="11.585018153351337"><ele>449.0</ele><time>2026-04-05T17:05:02Z</time></trkpt><trkpt lat="43.8614451534116" lon="11.585011033352915"><ele>449.0</ele><time>2026-04-05T17:05:03Z</time></trkpt><trkpt lat="43.861303507928284" lon="11.58502058365643"><ele>448.99999999999994</ele><time>2026-04-05T17:05:05Z</time></trkpt><trkpt lat="43.86123792264263" lon="11.585066951640654"><ele>449.0</ele><time>2026-04-05T17:05:06Z</time></trkpt><trkpt lat="43.861178706195396" lon="11.585125205012865"><ele>449.0</ele><time>2026-04-05T17:05:07Z</time></trkpt><trkpt lat="43.86112495219567" lon="11.585193344786015"><ele>448.99999999999994</ele><time>2026-04-05T17:05:08Z</time></trkpt><trkpt lat="43.861064078763604" lon="11.585250958772846"><ele>449.0</ele><time>2026-04-05T17:05:09Z</time></trkpt><trkpt lat="43.86100420553262" lon="11.58531667567737"><ele>449.0</ele><time>2026-04-05T17:05:10Z</time></trkpt><trkpt lat="43.86094881483254" lon="11.585378915644283"><ele>448.99999999999994</ele><time>2026-04-05T17:05:11Z</time></trkpt><trkpt lat="43.86089287183181" lon="11.585442740023984"><ele>449.0</ele><time>2026-04-05T17:05:12Z</time></trkpt><trkpt lat="43.8608357602265" lon="11.585508346358607"><ele>449.0</ele><time>2026-04-05T17:05:13Z</time></trkpt><trkpt lat="43.86077529405039" lon="11.585573194185939"><ele>449.79999999999995</ele><time>2026-04-05T17:05:14Z</time></trkpt><trkpt lat="43.860708437152994" lon="11.58563440834569"><ele>450.59999999999997</ele><time>2026-04-05T17:05:15Z</time></trkpt><trkpt lat="43.86062627784891" lon="11.58570336202531"><ele>451.4</ele><time>2026-04-05T17:05:16Z</time></trkpt><trkpt lat="43.86052163653255" lon="11.585765458721964"><ele>452.2</ele><time>2026-04-05T17:05:17Z</time></trkpt><trkpt lat="43.860404606437214" lon="11.585811896760871"><ele>453.0</ele><time>2026-04-05T17:05:18Z</time></trkpt><trkpt lat="43.860275011118986" lon="11.585844295323161"><ele>453.0</ele><time>2026-04-05T17:05:19Z</time></trkpt><trkpt lat="43.8601359805876" lon="11.58588094726753"><ele>453.0</ele><time>2026-04-05T17:05:20Z</time></trkpt><trkpt lat="43.859982475577304" lon="11.585910581894385"><ele>453.0</ele><time>2026-04-05T17:05:21Z</time></trkpt><trkpt lat="43.85982448053165" lon="11.58594029181203"><ele>448.66666666666663</ele><time>2026-04-05T17:05:22Z</time></trkpt><trkpt lat="43.859659118880224" lon="11.585955313324634"><ele>444.3333333333333</ele><time>2026-04-05T17:05:23Z</time></trkpt><trkpt lat="43.859483410021724" lon="11.585941075252224"><ele>440.0</ele><time>2026-04-05T17:05:24Z</time></trkpt><trkpt lat="43.85930876660467" lon="11.585966063930703"><ele>440.0</ele><time>2026-04-05T17:05:25Z</time></trkpt><trkpt lat="43.859145741161484" lon="11.585963926266547"><ele>440.0</ele><time>2026-04-05T17:05:26Z</time></trkpt><trkpt lat="43.85898491943467" lon="11.585937887655145"><ele>440.0</ele><time>2026-04-05T17:05:27Z</time></trkpt><trkpt lat="43.85884217935325" lon="11.585868995768683"><ele>440.0</ele><time>2026-04-05T17:05:28Z</time></trkpt><trkpt lat="43.85870037859611" lon="11.58573333173329"><ele>440.0</ele><time>2026-04-05T17:05:29Z</time></trkpt><trkpt lat="43.858536767916256" lon="11.585566462000987"><ele>440.0</ele><time>2026-04-05T17:05:30Z</time></trkpt><trkpt lat="43.85845753954691" lon="11.58548724739248"><ele>442.75</ele><time>2026-04-05T17:05:31Z</time></trkpt><trkpt lat="43.85834840868389" lon="11.585358608550077"><ele>445.5</ele><time>2026-04-05T17:05:32Z</time></trkpt><trkpt lat="43.858245369125115" lon="11.585257072862307"><ele>448.25</ele><time>2026-04-05T17:05:33Z</time></trkpt><trkpt lat="43.858151706967526" lon="11.585175551332673"><ele>451.0</ele><time>2026-04-05T17:05:34Z</time></trkpt><trkpt lat="43.85805683171405" lon="11.585129164999792"><ele>445.0</ele><time>2026-04-05T17:05:35Z</time></trkpt><trkpt lat="43.85795324730676" lon="11.585118145491139"><ele>439.0</ele><time>2026-04-05T17:05:36Z</time></trkpt><trkpt lat="43.857836576412936" lon="11.585122740335068"><ele>433.0</ele><time>2026-04-05T17:05:37Z</time></trkpt><trkpt lat="43.857703116719186" lon="11.585138141494637"><ele>427.0</ele><time>2026-04-05T17:05:38Z</time></trkpt><trkpt lat="43.85756537373056" lon="11.585171464851477"><ele>425.5</ele><time>2026-04-05T17:05:39Z</time></trkpt><trkpt lat="43.857431187399115" lon="11.585233446280995"><ele>424.0</ele><time>2026-04-05T17:05:40Z</time></trkpt><trkpt lat="43.85730552986742" lon="11.585341072709877"><ele>422.5</ele><time>2026-04-05T17:05:41Z</time></trkpt><trkpt lat="43.857188823778905" lon="11.585479332507143"><ele>421.0</ele><time>2026-04-05T17:05:42Z</time></trkpt><trkpt lat="43.85707528237121" lon="11.585630726682753"><ele>421.0</ele><time>2026-04-05T17:05:43Z</time></trkpt><trkpt lat="43.85695037507452" lon="11.585773400385518"><ele>421.0</ele><time>2026-04-05T17:05:44Z</time></trkpt><trkpt lat="43.8568274892089" lon="11.5859105892534"><ele>421.0</ele><time>2026-04-05T17:05:45Z</time></trkpt><trkpt lat="43.85670535980527" lon="11.586044460761855"><ele>421.0</ele><time>2026-04-05T17:05:46Z</time></trkpt><trkpt lat="43.85659165342546" lon="11.586164323210033"><ele>421.0</ele><time>2026-04-05T17:05:47Z</time></trkpt><trkpt lat="43.85648548926086" lon="11.586279384760745"><ele>421.0</ele><time>2026-04-05T17:05:48Z</time></trkpt><trkpt lat="43.85639263497993" lon="11.586386500275774"><ele>421.0</ele><time>2026-04-05T17:05:49Z</time></trkpt><trkpt lat="43.85630131334048" lon="11.586475953071359"><ele>422.20000000000005</ele><time>2026-04-05T17:05:50Z</time></trkpt><trkpt lat="43.856203749122294" lon="11.586534596853053"><ele>423.40000000000003</ele><time>2026-04-05T17:05:51Z</time></trkpt><trkpt lat="43.85609183141658" lon="11.586491579455476"><ele>424.6</ele><time>2026-04-05T17:05:52Z</time></trkpt><trkpt lat="43.85600627256309" lon="11.586424783547677"><ele>425.8</ele><time>2026-04-05T17:05:53Z</time></trkpt><trkpt lat="43.855927125324875" lon="11.586318885650043"><ele>427.0</ele><time>2026-04-05T17:05:54Z</time></trkpt><trkpt lat="43.855870271314586" lon="11.586178754737917"><ele>425.5</ele><time>2026-04-05T17:05:55Z</time></trkpt><trkpt lat="43.855859231615625" lon="11.586029392458931"><ele>424.0</ele><time>2026-04-05T17:05:56Z</time></trkpt><trkpt lat="43.85587194372721" lon="11.585868188967334"><ele>422.5</ele><time>2026-04-05T17:05:57Z</time></trkpt><trkpt lat="43.85593244332914" lon="11.585738070735227"><ele>421.0</ele><time>2026-04-05T17:05:58Z</time></trkpt><trkpt lat="43.85603112703829" lon="11.585639067674329"><ele>421.0</ele><time>2026-04-05T17:05:59Z</time></trkpt><trkpt lat="43.856157321228174" lon="11.585529172440134"><ele>421.0</ele><time>2026-04-05T17:06:00Z</time></trkpt><trkpt lat="43.856291577107925" lon="11.58541584291342"><ele>421.0</ele><time>2026-04-05T17:06:01Z</time></trkpt><trkpt lat="43.8564356771292" lon="11.585294203905029"><ele>421.0</ele><time>2026-04-05T17:06:02Z</time></trkpt><trkpt lat="43.85658330217995" lon="11.585169589174628"><ele>421.0</ele><time>2026-04-05T17:06:03Z</time></trkpt><trkpt lat="43.8567402765481" lon="11.58503708240465"><ele>421.0</ele><time>2026-04-05T17:06:04Z</time></trkpt><trkpt lat="43.856900888984036" lon="11.584898434015741"><ele>421.0</ele><time>2026-04-05T17:06:05Z</time></trkpt><trkpt lat="43.85706436629369" lon="11.584735858654629"><ele>421.0</ele><time>2026-04-05T17:06:06Z</time></trkpt><trkpt lat="43.85724292117666" lon="11.584580071580223"><ele>421.0</ele><time>2026-04-05T17:06:07Z</time></trkpt><trkpt lat="43.857427634755624" lon="11.58441477653242"><ele>416.0</ele><time>2026-04-05T17:06:08Z</time></trkpt><trkpt lat="43.85759585567548" lon="11.584258009850691"><ele>411.0</ele><time>2026-04-05T17:06:09Z</time></trkpt><trkpt lat="43.85775851000443" lon="11.584104300953918"><ele>406.0</ele><time>2026-04-05T17:06:10Z</time></trkpt><trkpt lat="43.85791185920685" lon="11.583960140060416"><ele>406.0</ele><time>2026-04-05T17:06:11Z</time></trkpt><trkpt lat="43.85804684594957" lon="11.583830077569738"><ele>406.0</ele><time>2026-04-05T17:06:12Z</time></trkpt><trkpt lat="43.85817806494211" lon="11.583716545923538"><ele>406.0</ele><time>2026-04-05T17:06:13Z</time></trkpt><trkpt lat="43.85832695485107" lon="11.58368580430254"><ele>401.0</ele><time>2026-04-05T17:06:14Z</time></trkpt><trkpt lat="43.85847383169337" lon="11.583649011342738"><ele>396.0</ele><time>2026-04-05T17:06:15Z</time></trkpt><trkpt lat="43.85863572737409" lon="11.583574065950021"><ele>391.0</ele><time>2026-04-05T17:06:16Z</time></trkpt><trkpt lat="43.858804735550734" lon="11.583470988395554"><ele>391.0</ele><time>2026-04-05T17:06:17Z</time></trkpt><trkpt lat="43.858981681242454" lon="11.583372519452585"><ele>391.0</ele><time>2026-04-05T17:06:18Z</time></trkpt><trkpt lat="43.85916471334907" lon="11.58326487816156"><ele>391.0</ele><time>2026-04-05T17:06:19Z</time></trkpt><trkpt lat="43.85934767328064" lon="11.583161636621478"><ele>393.0</ele><time>2026-04-05T17:06:20Z</time></trkpt><trkpt lat="43.85952962447391" lon="11.583042313158145"><ele>395.0</ele><time>2026-04-05T17:06:21Z</time></trkpt><trkpt lat="43.85969671166881" lon="11.582891383248327"><ele>397.0</ele><time>2026-04-05T17:06:22Z</time></trkpt><trkpt lat="43.85985090590496" lon="11.582724309976575"><ele>394.0</ele><time>2026-04-05T17:06:23Z</time></trkpt><trkpt lat="43.85999709076308" lon="11.582559905573167"><ele>391.0</ele><time>2026-04-05T17:06:24Z</time></trkpt><trkpt lat="43.86015837561919" lon="11.58245564534001"><ele>388.0</ele><time>2026-04-05T17:06:25Z</time></trkpt><trkpt lat="43.86030010863" lon="11.582414845811622"><ele>388.0</ele><time>2026-04-05T17:06:26Z</time></trkpt><trkpt lat="43.860438199167575" lon="11.582413027212512"><ele>388.0</ele><time>2026-04-05T17:06:27Z</time></trkpt><trkpt lat="43.860570701560086" lon="11.582403593586868"><ele>388.0</ele><time>2026-04-05T17:06:28Z</time></trkpt><trkpt lat="43.860686215710814" lon="11.582381167782867"><ele>388.0</ele><time>2026-04-05T17:06:29Z</time></trkpt><trkpt lat="43.860792810996806" lon="11.582362182905504"><ele>388.0</ele><time>2026-04-05T17:06:30Z</time></trkpt><trkpt lat="43.86087253904457" lon="11.58229001956097"><ele>388.0</ele><time>2026-04-05T17:06:31Z</time></trkpt><trkpt lat="43.86092007326994" lon="11.582174891032194"><ele>388.0</ele><time>2026-04-05T17:06:32Z</time></trkpt><trkpt lat="43.8609210055064" lon="11.582029327676665"><ele>388.0</ele><time>2026-04-05T17:06:33Z</time></trkpt><trkpt lat="43.860877276683006" lon="11.581902233133391"><ele>388.0</ele><time>2026-04-05T17:06:34Z</time></trkpt><trkpt lat="43.86079392768205" lon="11.581810689633668"><ele>383.5</ele><time>2026-04-05T17:06:35Z</time></trkpt><trkpt lat="43.86068462826672" lon="11.581765895601468"><ele>379.0</ele><time>2026-04-05T17:06:36Z</time></trkpt><trkpt lat="43.860546781255934" lon="11.581779548464"><ele>374.5</ele><time>2026-04-05T17:06:37Z</time></trkpt><trkpt lat="43.86040448696124" lon="11.581811844827351"><ele>370.0</ele><time>2026-04-05T17:06:38Z</time></trkpt><trkpt lat="43.86023870481428" lon="11.581836927924405"><ele>368.0</ele><time>2026-04-05T17:06:39Z</time></trkpt><trkpt lat="43.860058338438044" lon="11.58184160147305"><ele>366.0</ele><time>2026-04-05T17:06:40Z</time></trkpt><trkpt lat="43.85987748554488" lon="11.581838212106284"><ele>364.0</ele><time>2026-04-05T17:06:41Z</time></trkpt><trkpt lat="43.85969025726315" lon="11.581825469839302"><ele>364.0</ele><time>2026-04-05T17:06:42Z</time></trkpt><trkpt lat="43.85950459198376" lon="11.581808769297464"><ele>364.0</ele><time>2026-04-05T17:06:43Z</time></trkpt><trkpt lat="43.85933796718201" lon="11.581796738207801"><ele>364.0</ele><time>2026-04-05T17:06:44Z</time></trkpt><trkpt lat="43.859191015950984" lon="11.581802144507956"><ele>363.5</ele><time>2026-04-05T17:06:45Z</time></trkpt><trkpt lat="43.85905158090521" lon="11.58180065192478"><ele>363.0</ele><time>2026-04-05T17:06:46Z</time></trkpt><trkpt lat="43.85892395328266" lon="11.581806520680948"><ele>362.5</ele><time>2026-04-05T17:06:47Z</time></trkpt><trkpt lat="43.85880655177764" lon="11.581815086195261"><ele>362.0</ele><time>2026-04-05T17:06:48Z</time></trkpt><trkpt lat="43.858697721479516" lon="11.581821612995343"><ele>362.0</ele><time>2026-04-05T17:06:49Z</time></trkpt><trkpt lat="43.85859366266018" lon="11.581812491845874"><ele>362.0</ele><time>2026-04-05T17:06:50Z</time></trkpt><trkpt lat="43.858486748153304" lon="11.581827274794295"><ele>362.0</ele><time>2026-04-05T17:06:51Z</time></trkpt><trkpt lat="43.85837739238433" lon="11.5818675676267"><ele>362.0</ele><time>2026-04-05T17:06:52Z</time></trkpt><trkpt lat="43.85825734132245" lon="11.581916762714147"><ele>361.0</ele><time>2026-04-05T17:06:53Z</time></trkpt><trkpt lat="43.85813363526616" lon="11.581992463108007"><ele>360.0</ele><time>2026-04-05T17:06:54Z</time></trkpt><trkpt lat="43.8579952871205" lon="11.582047367839575"><ele>359.0</ele><time>2026-04-05T17:06:55Z</time></trkpt><trkpt lat="43.85786357195583" lon="11.58212838195557"><ele>358.0</ele><time>2026-04-05T17:06:56Z</time></trkpt><trkpt lat="43.85774664273889" lon="11.58223863442853"><ele>358.0</ele><time>2026-04-05T17:06:57Z</time></trkpt><trkpt lat="43.857646871162544" lon="11.582375904789826"><ele>358.0</ele><time>2026-04-05T17:06:58Z</time></trkpt><trkpt lat="43.857532734114955" lon="11.582488856998253"><ele>358.0</ele><time>2026-04-05T17:06:59Z</time></trkpt><trkpt lat="43.85738858144184" lon="11.582561199181415"><ele>358.0</ele><time>2026-04-05T17:07:00Z</time></trkpt><trkpt lat="43.857229072698864" lon="11.582583026944551"><ele>358.0</ele><time>2026-04-05T17:07:01Z</time></trkpt><trkpt lat="43.85708484931274" lon="11.582591123853472"><ele>358.0</ele><time>2026-04-05T17:07:02Z</time></trkpt><trkpt lat="43.85694786700249" lon="11.582611896875987"><ele>358.0</ele><time>2026-04-05T17:07:03Z</time></trkpt><trkpt lat="43.856824078125925" lon="11.582656694987504"><ele>358.0</ele><time>2026-04-05T17:07:04Z</time></trkpt><trkpt lat="43.856702644966816" lon="11.58275104109619"><ele>359.75</ele><time>2026-04-05T17:07:05Z</time></trkpt><trkpt lat="43.856599113202876" lon="11.582878280417859"><ele>361.5</ele><time>2026-04-05T17:07:06Z</time></trkpt><trkpt lat="43.85649972987828" lon="11.582981347630135"><ele>363.25</ele><time>2026-04-05T17:07:07Z</time></trkpt><trkpt lat="43.856418119468444" lon="11.583068827835437"><ele>365.0</ele><time>2026-04-05T17:07:08Z</time></trkpt><trkpt lat="43.85633415560316" lon="11.58313836794463"><ele>365.0</ele><time>2026-04-05T17:07:09Z</time></trkpt><trkpt lat="43.85623345509217" lon="11.583157724957962"><ele>365.0</ele><time>2026-04-05T17:07:10Z</time></trkpt><trkpt lat="43.85613505833028" lon="11.583097936764359"><ele>365.0</ele><time>2026-04-05T17:07:11Z</time></trkpt><trkpt lat="43.856081151275575" lon="11.582976342931628"><ele>365.0</ele><time>2026-04-05T17:07:12Z</time></trkpt><trkpt lat="43.85607579479867" lon="11.582817157031238"><ele>365.0</ele><time>2026-04-05T17:07:13Z</time></trkpt><trkpt lat="43.85608779665094" lon="11.5826514480821"><ele>361.0</ele><time>2026-04-05T17:07:14Z</time></trkpt><trkpt lat="43.856114774987205" lon="11.582472140797298"><ele>357.0</ele><time>2026-04-05T17:07:15Z</time></trkpt><trkpt lat="43.85615016837289" lon="11.582276290700625"><ele>353.0</ele><time>2026-04-05T17:07:16Z</time></trkpt><trkpt lat="43.85617855391488" lon="11.58207840890684"><ele>349.0</ele><time>2026-04-05T17:07:17Z</time></trkpt><trkpt lat="43.85618729510665" lon="11.581879299310506"><ele>346.5</ele><time>2026-04-05T17:07:18Z</time></trkpt><trkpt lat="43.856214515873546" lon="11.58170807728303"><ele>344.0</ele><time>2026-04-05T17:07:19Z</time></trkpt><trkpt lat="43.856251880944406" lon="11.581541906317316"><ele>341.5</ele><time>2026-04-05T17:07:20Z</time></trkpt><trkpt lat="43.8563458548222" lon="11.581457906878562"><ele>339.0</ele><time>2026-04-05T17:07:21Z</time></trkpt><trkpt lat="43.85645622649703" lon="11.581427530002516"><ele>339.0</ele><time>2026-04-05T17:07:22Z</time></trkpt><trkpt lat="43.85657239554883" lon="11.581354790935613"><ele>339.0</ele><time>2026-04-05T17:07:23Z</time></trkpt><trkpt lat="43.856683547633665" lon="11.581242024118254"><ele>339.0</ele><time>2026-04-05T17:07:24Z</time></trkpt><trkpt lat="43.856797059343315" lon="11.581106953435869"><ele>339.0</ele><time>2026-04-05T17:07:25Z</time></trkpt><trkpt lat="43.85692002444368" lon="11.58098079973428"><ele>337.0</ele><time>2026-04-05T17:07:26Z</time></trkpt><trkpt lat="43.85704161940504" lon="11.580803452019792"><ele>335.0</ele><time>2026-04-05T17:07:27Z</time></trkpt><trkpt lat="43.85717262820104" lon="11.580668874787483"><ele>333.0</ele><time>2026-04-05T17:07:28Z</time></trkpt><trkpt lat="43.857308281403604" lon="11.580525462746913"><ele>333.0</ele><time>2026-04-05T17:07:29Z</time></trkpt><trkpt lat="43.85744499656927" lon="11.580365725102952"><ele>333.0</ele><time>2026-04-05T17:07:30Z</time></trkpt><trkpt lat="43.85757789896773" lon="11.580192667349452"><ele>333.0</ele><time>2026-04-05T17:07:31Z</time></trkpt><trkpt lat="43.857713945590746" lon="11.580023778575871"><ele>331.3333333333333</ele><time>2026-04-05T17:07:32Z</time></trkpt><trkpt lat="43.85784662082979" lon="11.579857045024584"><ele>329.66666666666663</ele><time>2026-04-05T17:07:33Z</time></trkpt><trkpt lat="43.857980040084456" lon="11.57968486056309"><ele>328.0</ele><time>2026-04-05T17:07:34Z</time></trkpt><trkpt lat="43.85811122621991" lon="11.579515965479034"><ele>322.3333333333333</ele><time>2026-04-05T17:07:35Z</time></trkpt><trkpt lat="43.858243315341724" lon="11.579353549210838"><ele>316.6666666666667</ele><time>2026-04-05T17:07:36Z</time></trkpt><trkpt lat="43.85838467521778" lon="11.579201602173779"><ele>311.0</ele><time>2026-04-05T17:07:37Z</time></trkpt><trkpt lat="43.85853422767019" lon="11.579069495456288"><ele>311.0</ele><time>2026-04-05T17:07:38Z</time></trkpt><trkpt lat="43.85869757813203" lon="11.578991515507122"><ele>311.0</ele><time>2026-04-05T17:07:39Z</time></trkpt><trkpt lat="43.858856258521485" lon="11.57890193525913"><ele>311.0</ele><time>2026-04-05T17:07:40Z</time></trkpt><trkpt lat="43.85901614332847" lon="11.578842975204479"><ele>311.0</ele><time>2026-04-05T17:07:41Z</time></trkpt><trkpt lat="43.85917331265541" lon="11.578846631414951"><ele>311.0</ele><time>2026-04-05T17:07:42Z</time></trkpt><trkpt lat="43.85932855381456" lon="11.578908845972494"><ele>311.0</ele><time>2026-04-05T17:07:43Z</time></trkpt><trkpt lat="43.85947210036251" lon="11.578988603272204"><ele>310.25</ele><time>2026-04-05T17:07:44Z</time></trkpt><trkpt lat="43.8596106914652" lon="11.579059562638255"><ele>309.5</ele><time>2026-04-05T17:07:45Z</time></trkpt><trkpt lat="43.85974658922359" lon="11.579080516757127"><ele>308.75</ele><time>2026-04-05T17:07:46Z</time></trkpt><trkpt lat="43.859880494547" lon="11.579064627899328"><ele>308.0</ele><time>2026-04-05T17:07:47Z</time></trkpt><trkpt lat="43.86000578114877" lon="11.578990322540482"><ele>310.33333333333337</ele><time>2026-04-05T17:07:48Z</time></trkpt><trkpt lat="43.860124445714035" lon="11.57886238368814"><ele>312.6666666666667</ele><time>2026-04-05T17:07:49Z</time></trkpt><trkpt lat="43.86023813445693" lon="11.578710772674333"><ele>315.0</ele><time>2026-04-05T17:07:50Z</time></trkpt><trkpt lat="43.860357919952975" lon="11.578548264483647"><ele>310.0</ele><time>2026-04-05T17:07:51Z</time></trkpt><trkpt lat="43.860477791215345" lon="11.578380394722572"><ele>305.0</ele><time>2026-04-05T17:07:52Z</time></trkpt><trkpt lat="43.860581692999354" lon="11.578202700070348"><ele>300.0</ele><time>2026-04-05T17:07:53Z</time></trkpt><trkpt lat="43.86066790706976" lon="11.57801522974431"><ele>296.75</ele><time>2026-04-05T17:07:54Z</time></trkpt><trkpt lat="43.86074497601036" lon="11.57783121872861"><ele>293.5</ele><time>2026-04-05T17:07:55Z</time></trkpt><trkpt lat="43.86082502136142" lon="11.577667555895484"><ele>290.25</ele><time>2026-04-05T17:07:56Z</time></trkpt><trkpt lat="43.86091882666608" lon="11.577520597282875"><ele>287.0</ele><time>2026-04-05T17:07:57Z</time></trkpt><trkpt lat="43.86104651751049" lon="11.577442426335832"><ele>287.0</ele><time>2026-04-05T17:07:58Z</time></trkpt><trkpt lat="43.861162423187736" lon="11.57742927077004"><ele>287.0</ele><time>2026-04-05T17:07:59Z</time></trkpt><trkpt lat="43.86127229371999" lon="11.577449547397773"><ele>287.0</ele><time>2026-04-05T17:08:00Z</time></trkpt><trkpt lat="43.8613692416465" lon="11.577531297607287"><ele>287.0</ele><time>2026-04-05T17:08:01Z</time></trkpt><trkpt lat="43.86146621415278" lon="11.577640155635097"><ele>287.0</ele><time>2026-04-05T17:08:02Z</time></trkpt><trkpt lat="43.86157191954013" lon="11.577729479619357"><ele>287.0</ele><time>2026-04-05T17:08:03Z</time></trkpt><trkpt lat="43.86170490869896" lon="11.577748527742285"><ele>287.0</ele><time>2026-04-05T17:08:04Z</time></trkpt><trkpt lat="43.861836687320704" lon="11.577730172292688"><ele>287.0</ele><time>2026-04-05T17:08:05Z</time></trkpt><trkpt lat="43.86197975866761" lon="11.577704094388645"><ele>283.33333333333337</ele><time>2026-04-05T17:08:06Z</time></trkpt><trkpt lat="43.862118273638956" lon="11.577675125836127"><ele>279.6666666666667</ele><time>2026-04-05T17:08:07Z</time></trkpt><trkpt lat="43.86226284955869" lon="11.577695426263741"><ele>276.0</ele><time>2026-04-05T17:08:08Z</time></trkpt><trkpt lat="43.86242259783778" lon="11.577748987913898"><ele>276.0</ele><time>2026-04-05T17:08:09Z</time></trkpt><trkpt lat="43.8625801191137" lon="11.577810866301904"><ele>276.0</ele><time>2026-04-05T17:08:10Z</time></trkpt><trkpt lat="43.86272917668056" lon="11.577868920951056"><ele>276.0</ele><time>2026-04-05T17:08:11Z</time></trkpt><trkpt lat="43.86285519173464" lon="11.577926215181968"><ele>274.75</ele><time>2026-04-05T17:08:12Z</time></trkpt><trkpt lat="43.862947778459876" lon="11.577998849793872"><ele>273.5</ele><time>2026-04-05T17:08:13Z</time></trkpt><trkpt lat="43.86301416468553" lon="11.57811868639528"><ele>272.25</ele><time>2026-04-05T17:08:14Z</time></trkpt><trkpt lat="43.86304506308996" lon="11.578271901320424"><ele>271.0</ele><time>2026-04-05T17:08:15Z</time></trkpt><trkpt lat="43.86309736861515" lon="11.578441322554818"><ele>271.0</ele><time>2026-04-05T17:08:16Z</time></trkpt><trkpt lat="43.863172678186224" lon="11.57861032490687"><ele>271.0</ele><time>2026-04-05T17:08:17Z</time></trkpt><trkpt lat="43.86326821359569" lon="11.578790528799228"><ele>271.0</ele><time>2026-04-05T17:08:18Z</time></trkpt><trkpt lat="43.86337843305377" lon="11.57895284727304"><ele>271.3333333333333</ele><time>2026-04-05T17:08:19Z</time></trkpt><trkpt lat="43.86350142373682" lon="11.579127585517565"><ele>271.6666666666667</ele><time>2026-04-05T17:08:20Z</time></trkpt><trkpt lat="43.86361461010501" lon="11.579327008342277"><ele>272.0</ele><time>2026-04-05T17:08:21Z</time></trkpt><trkpt lat="43.86372664348514" lon="11.579529635945194"><ele>272.0</ele><time>2026-04-05T17:08:22Z</time></trkpt><trkpt lat="43.86382445349924" lon="11.579726496232524"><ele>272.0</ele><time>2026-04-05T17:08:23Z</time></trkpt><trkpt lat="43.86390567439636" lon="11.57991830292546"><ele>272.0</ele><time>2026-04-05T17:08:24Z</time></trkpt><trkpt lat="43.86398692502144" lon="11.580088220956688"><ele>272.0</ele><time>2026-04-05T17:08:25Z</time></trkpt><trkpt lat="43.86405526651375" lon="11.580245825490218"><ele>272.0</ele><time>2026-04-05T17:08:26Z</time></trkpt><trkpt lat="43.864131354725714" lon="11.580358364349754"><ele>272.0</ele><time>2026-04-05T17:08:27Z</time></trkpt><trkpt lat="43.86421798676752" lon="11.580426704038066"><ele>272.0</ele><time>2026-04-05T17:08:28Z</time></trkpt><trkpt lat="43.86430859362112" lon="11.58046664593275"><ele>272.0</ele><time>2026-04-05T17:08:29Z</time></trkpt><trkpt lat="43.86441688296568" lon="11.580376200526597"><ele>271.75</ele><time>2026-04-05T17:08:30Z</time></trkpt><trkpt lat="43.86450660095703" lon="11.580270574786669"><ele>271.5</ele><time>2026-04-05T17:08:31Z</time></trkpt><trkpt lat="43.864589868720934" lon="11.580158589940988"><ele>271.25</ele><time>2026-04-05T17:08:32Z</time></trkpt><trkpt lat="43.86466246209636" lon="11.58004441611053"><ele>271.0</ele><time>2026-04-05T17:08:33Z</time></trkpt><trkpt lat="43.86470564147601" lon="11.579886788085684"><ele>271.0</ele><time>2026-04-05T17:08:34Z</time></trkpt><trkpt lat="43.86469664065604" lon="11.579701857184524"><ele>271.0</ele><time>2026-04-05T17:08:35Z</time></trkpt><trkpt lat="43.86466353476466" lon="11.579511074857164"><ele>271.0</ele><time>2026-04-05T17:08:36Z</time></trkpt><trkpt lat="43.86461266490344" lon="11.579316862664577"><ele>271.0</ele><time>2026-04-05T17:08:37Z</time></trkpt><trkpt lat="43.8645621986983" lon="11.5791173506365"><ele>271.25</ele><time>2026-04-05T17:08:38Z</time></trkpt><trkpt lat="43.864510767994815" lon="11.578926961744568"><ele>271.5</ele><time>2026-04-05T17:08:39Z</time></trkpt><trkpt lat="43.86443682579667" lon="11.57875387350637"><ele>271.75</ele><time>2026-04-05T17:08:40Z</time></trkpt><trkpt lat="43.86433237070072" lon="11.578601817440873"><ele>272.0</ele><time>2026-04-05T17:08:41Z</time></trkpt><trkpt lat="43.86419482368031" lon="11.578496691183753"><ele>272.0</ele><time>2026-04-05T17:08:42Z</time></trkpt><trkpt lat="43.86406539474523" lon="11.578392281155173"><ele>272.0</ele><time>2026-04-05T17:08:43Z</time></trkpt><trkpt lat="43.86395443313573" lon="11.578271108964591"><ele>272.0</ele><time>2026-04-05T17:08:44Z</time></trkpt><trkpt lat="43.86386609834422" lon="11.578119728364554"><ele>272.0</ele><time>2026-04-05T17:08:45Z</time></trkpt><trkpt lat="43.8638033254186" lon="11.577938823874238"><ele>277.33333333333337</ele><time>2026-04-05T17:08:46Z</time></trkpt><trkpt lat="43.86376694508408" lon="11.577737930633493"><ele>282.6666666666667</ele><time>2026-04-05T17:08:47Z</time></trkpt><trkpt lat="43.86373001100722" lon="11.577530524612987"><ele>288.0</ele><time>2026-04-05T17:08:48Z</time></trkpt><trkpt lat="43.863670476859944" lon="11.577331001121273"><ele>288.0</ele><time>2026-04-05T17:08:49Z</time></trkpt><trkpt lat="43.86358783786801" lon="11.577141428730213"><ele>288.0</ele><time>2026-04-05T17:08:50Z</time></trkpt><trkpt lat="43.86349251722797" lon="11.576978641260556"><ele>288.0</ele><time>2026-04-05T17:08:51Z</time></trkpt><trkpt lat="43.8633821707843" lon="11.576834384877946"><ele>281.75</ele><time>2026-04-05T17:08:52Z</time></trkpt><trkpt lat="43.86325802344365" lon="11.57670569005178"><ele>275.5</ele><time>2026-04-05T17:08:53Z</time></trkpt><trkpt lat="43.86313436031563" lon="11.576587362893557"><ele>269.25</ele><time>2026-04-05T17:08:54Z</time></trkpt><trkpt lat="43.8630207144274" lon="11.576465797692943"><ele>263.0</ele><time>2026-04-05T17:08:55Z</time></trkpt><trkpt lat="43.862926694064136" lon="11.57632209718172"><ele>266.25</ele><time>2026-04-05T17:08:56Z</time></trkpt><trkpt lat="43.862851173877765" lon="11.57614973449875"><ele>269.5</ele><time>2026-04-05T17:08:57Z</time></trkpt><trkpt lat="43.86279068595098" lon="11.575970752209699"><ele>272.75</ele><time>2026-04-05T17:08:58Z</time></trkpt><trkpt lat="43.862750560099904" lon="11.57577533425515"><ele>276.0</ele><time>2026-04-05T17:08:59Z</time></trkpt><trkpt lat="43.86272659057881" lon="11.575571717293707"><ele>276.0</ele><time>2026-04-05T17:09:00Z</time></trkpt><trkpt lat="43.86270563089205" lon="11.575362344972719"><ele>276.0</ele><time>2026-04-05T17:09:01Z</time></trkpt><trkpt lat="43.86268545642639" lon="11.575140844573502"><ele>276.0</ele><time>2026-04-05T17:09:02Z</time></trkpt><trkpt lat="43.8626641389081" lon="11.574919752815473"><ele>279.5</ele><time>2026-04-05T17:09:03Z</time></trkpt><trkpt lat="43.8626429584306" lon="11.574701645093446"><ele>283.0</ele><time>2026-04-05T17:09:04Z</time></trkpt><trkpt lat="43.862623476037676" lon="11.574498564878233"><ele>286.5</ele><time>2026-04-05T17:09:05Z</time></trkpt><trkpt lat="43.86260568003815" lon="11.574301938078179"><ele>290.0</ele><time>2026-04-05T17:09:06Z</time></trkpt><trkpt lat="43.86257204727515" lon="11.574111345146614"><ele>281.5</ele><time>2026-04-05T17:09:07Z</time></trkpt><trkpt lat="43.86251425120829" lon="11.573941481163565"><ele>273.0</ele><time>2026-04-05T17:09:08Z</time></trkpt><trkpt lat="43.86243047914239" lon="11.57379667068014"><ele>264.5</ele><time>2026-04-05T17:09:09Z</time></trkpt><trkpt lat="43.862343186803066" lon="11.573655923343587"><ele>256.0</ele><time>2026-04-05T17:09:10Z</time></trkpt><trkpt lat="43.862265671563414" lon="11.573472463394127"><ele>256.0</ele><time>2026-04-05T17:09:11Z</time></trkpt><trkpt lat="43.86222980908981" lon="11.573332343758137"><ele>256.0</ele><time>2026-04-05T17:09:12Z</time></trkpt><trkpt lat="43.86219437517994" lon="11.573138871478594"><ele>256.0</ele><time>2026-04-05T17:09:13Z</time></trkpt><trkpt lat="43.86218313548452" lon="11.572937179143876"><ele>256.0</ele><time>2026-04-05T17:09:14Z</time></trkpt><trkpt lat="43.86218426760992" lon="11.572737194068393"><ele>255.75</ele><time>2026-04-05T17:09:15Z</time></trkpt><trkpt lat="43.8621809684054" lon="11.572545488519715"><ele>255.5</ele><time>2026-04-05T17:09:16Z</time></trkpt><trkpt lat="43.862179862923554" lon="11.57235377431397"><ele>255.25</ele><time>2026-04-05T17:09:17Z</time></trkpt><trkpt lat="43.86218463116697" lon="11.572173057537272"><ele>255.0</ele><time>2026-04-05T17:09:18Z</time></trkpt><trkpt lat="43.86220019655359" lon="11.571997221035978"><ele>255.0</ele><time>2026-04-05T17:09:19Z</time></trkpt><trkpt lat="43.86223496710295" lon="11.571817977633799"><ele>255.0</ele><time>2026-04-05T17:09:20Z</time></trkpt><trkpt lat="43.862274449326186" lon="11.571646338696263"><ele>255.0</ele><time>2026-04-05T17:09:21Z</time></trkpt><trkpt lat="43.86230662072211" lon="11.571470096700445"><ele>255.0</ele><time>2026-04-05T17:09:22Z</time></trkpt><trkpt lat="43.862319937962255" lon="11.571307404225863"><ele>255.8</ele><time>2026-04-05T17:09:23Z</time></trkpt><trkpt lat="43.86229132955963" lon="11.571157979929911"><ele>256.6</ele><time>2026-04-05T17:09:24Z</time></trkpt><trkpt lat="43.862256392121054" lon="11.571021927880093"><ele>257.4</ele><time>2026-04-05T17:09:25Z</time></trkpt><trkpt lat="43.86219958806383" lon="11.570897656331814"><ele>258.2</ele><time>2026-04-05T17:09:26Z</time></trkpt><trkpt lat="43.86214122182658" lon="11.570776624363392"><ele>259.0</ele><time>2026-04-05T17:09:27Z</time></trkpt><trkpt lat="43.86208743649396" lon="11.570666379491856"><ele>259.0</ele><time>2026-04-05T17:09:28Z</time></trkpt><trkpt lat="43.86204027241552" lon="11.570563357093283"><ele>259.0</ele><time>2026-04-05T17:09:29Z</time></trkpt><trkpt lat="43.86200636441721" lon="11.570473489126217"><ele>259.0</ele><time>2026-04-05T17:09:30Z</time></trkpt><trkpt lat="43.86198415996985" lon="11.570384456017738"><ele>259.0</ele><time>2026-04-05T17:09:31Z</time></trkpt><trkpt lat="43.86195483712213" lon="11.570288991861654"><ele>259.0</ele><time>2026-04-05T17:09:32Z</time></trkpt><trkpt lat="43.861928410077745" lon="11.57018666857476"><ele>259.0</ele><time>2026-04-05T17:09:33Z</time></trkpt><trkpt lat="43.86189049924457" lon="11.570076802412567"><ele>260.2</ele><time>2026-04-05T17:09:34Z</time></trkpt><trkpt lat="43.861859368334905" lon="11.56996320534875"><ele>261.4</ele><time>2026-04-05T17:09:35Z</time></trkpt><trkpt lat="43.861824120100515" lon="11.569846010131767"><ele>262.6</ele><time>2026-04-05T17:09:36Z</time></trkpt><trkpt lat="43.86179205795245" lon="11.56970883024708"><ele>263.8</ele><time>2026-04-05T17:09:37Z</time></trkpt><trkpt lat="43.86174817208136" lon="11.56958497130263"><ele>265.0</ele><time>2026-04-05T17:09:38Z</time></trkpt><trkpt lat="43.86170316899712" lon="11.569462545572957"><ele>259.4</ele><time>2026-04-05T17:09:39Z</time></trkpt><trkpt lat="43.861658093385586" lon="11.569334928262547"><ele>253.8</ele><time>2026-04-05T17:09:40Z</time></trkpt><trkpt lat="43.86160889421141" lon="11.569208367171841"><ele>248.2</ele><time>2026-04-05T17:09:41Z</time></trkpt><trkpt lat="43.86155860009234" lon="11.569085646701367"><ele>242.6</ele><time>2026-04-05T17:09:42Z</time></trkpt><trkpt lat="43.861512395261684" lon="11.56895815905145"><ele>237.0</ele><time>2026-04-05T17:09:43Z</time></trkpt><trkpt lat="43.86147379483343" lon="11.568825876276922"><ele>238.39999999999998</ele><time>2026-04-05T17:09:44Z</time></trkpt><trkpt lat="43.86145037458026" lon="11.568685044241146"><ele>239.79999999999998</ele><time>2026-04-05T17:09:45Z</time></trkpt><trkpt lat="43.86144604772105" lon="11.568539211568279"><ele>241.2</ele><time>2026-04-05T17:09:46Z</time></trkpt><trkpt lat="43.86145355511952" lon="11.568389784855418"><ele>242.6</ele><time>2026-04-05T17:09:47Z</time></trkpt><trkpt lat="43.86145921269869" lon="11.568245695843222"><ele>244.0</ele><time>2026-04-05T17:09:48Z</time></trkpt><trkpt lat="43.86144677990085" lon="11.56810952715136"><ele>244.0</ele><time>2026-04-05T17:09:49Z</time></trkpt><trkpt lat="43.86142181172356" lon="11.567976613978571"><ele>243.99999999999997</ele><time>2026-04-05T17:09:50Z</time></trkpt><trkpt lat="43.86137808927673" lon="11.567846696285487"><ele>243.99999999999997</ele><time>2026-04-05T17:09:51Z</time></trkpt><trkpt lat="43.861324208021806" lon="11.567724833688372"><ele>244.0</ele><time>2026-04-05T17:09:52Z</time></trkpt><trkpt lat="43.86126022683848" lon="11.56761265038721"><ele>244.0</ele><time>2026-04-05T17:09:53Z</time></trkpt><trkpt lat="43.86119866207247" lon="11.567500831409955"><ele>244.33333333333331</ele><time>2026-04-05T17:09:54Z</time></trkpt><trkpt lat="43.86113804707955" lon="11.567394755694446"><ele>244.66666666666666</ele><time>2026-04-05T17:09:55Z</time></trkpt><trkpt lat="43.861082950510855" lon="11.567290822901162"><ele>245.0</ele><time>2026-04-05T17:09:56Z</time></trkpt><trkpt lat="43.86103750359072" lon="11.567183632766964"><ele>245.33333333333331</ele><time>2026-04-05T17:09:57Z</time></trkpt><trkpt lat="43.86100026192801" lon="11.567080947668781"><ele>245.66666666666666</ele><time>2026-04-05T17:09:58Z</time></trkpt><trkpt lat="43.86098010044788" lon="11.566981178714443"><ele>246.0</ele><time>2026-04-05T17:09:59Z</time></trkpt><trkpt lat="43.86097836156872" lon="11.566878271499213"><ele>244.5</ele><time>2026-04-05T17:10:00Z</time></trkpt><trkpt lat="43.86098349735171" lon="11.566780199000094"><ele>243.0</ele><time>2026-04-05T17:10:01Z</time></trkpt><trkpt lat="43.86102650809481" lon="11.566688871693183"><ele>241.5</ele><time>2026-04-05T17:10:02Z</time></trkpt><trkpt lat="43.861055745172784" lon="11.566602704351629"><ele>240.0</ele><time>2026-04-05T17:10:03Z</time></trkpt><trkpt lat="43.86108953522724" lon="11.5665170350092"><ele>238.5</ele><time>2026-04-05T17:10:04Z</time></trkpt><trkpt lat="43.86110964625328" lon="11.566419756730019"><ele>237.0</ele><time>2026-04-05T17:10:05Z</time></trkpt><trkpt lat="43.861169552450576" lon="11.566265749517418"><ele>233.83333333333334</ele><time>2026-04-05T17:10:07Z</time></trkpt><trkpt lat="43.861216418294454" lon="11.56617288873603"><ele>230.66666666666669</ele><time>2026-04-05T17:10:08Z</time></trkpt><trkpt lat="43.86126109263095" lon="11.566082250858814"><ele>227.5</ele><time>2026-04-05T17:10:09Z</time></trkpt><trkpt lat="43.86131128376089" lon="11.565989372828483"><ele>224.33333333333334</ele><time>2026-04-05T17:10:10Z</time></trkpt><trkpt lat="43.86137251547245" lon="11.56590510336188"><ele>221.16666666666669</ele><time>2026-04-05T17:10:11Z</time></trkpt><trkpt lat="43.86143258814236" lon="11.565826577565794"><ele>218.0</ele><time>2026-04-05T17:10:12Z</time></trkpt><trkpt lat="43.86149730295481" lon="11.565744000531158"><ele>218.00000000000003</ele><time>2026-04-05T17:10:13Z</time></trkpt><trkpt lat="43.86156411768827" lon="11.56566572345063"><ele>218.0</ele><time>2026-04-05T17:10:14Z</time></trkpt><trkpt lat="43.86163741630937" lon="11.565598100385616"><ele>218.0</ele><time>2026-04-05T17:10:15Z</time></trkpt><trkpt lat="43.8617115445745" lon="11.56553933965244"><ele>218.0</ele><time>2026-04-05T17:10:16Z</time></trkpt><trkpt lat="43.86178375955235" lon="11.565477492950803"><ele>218.00000000000003</ele><time>2026-04-05T17:10:17Z</time></trkpt><trkpt lat="43.86186445906536" lon="11.565411373431886"><ele>218.0</ele><time>2026-04-05T17:10:18Z</time></trkpt><trkpt lat="43.86194408278578" lon="11.565331270822142"><ele>217.0</ele><time>2026-04-05T17:10:19Z</time></trkpt><trkpt lat="43.862026901967035" lon="11.565252666627307"><ele>216.0</ele><time>2026-04-05T17:10:20Z</time></trkpt><trkpt lat="43.86210930729858" lon="11.565173748104828"><ele>215.0</ele><time>2026-04-05T17:10:21Z</time></trkpt><trkpt lat="43.86219127111262" lon="11.56509689745585"><ele>214.0</ele><time>2026-04-05T17:10:22Z</time></trkpt><trkpt lat="43.86227606858177" lon="11.565016753627491"><ele>213.0</ele><time>2026-04-05T17:10:23Z</time></trkpt><trkpt lat="43.86236022803169" lon="11.564939096042686"><ele>213.0</ele><time>2026-04-05T17:10:24Z</time></trkpt><trkpt lat="43.86245129071063" lon="11.564860274269018"><ele>213.0</ele><time>2026-04-05T17:10:25Z</time></trkpt><trkpt lat="43.862548302093785" lon="11.564772695315902"><ele>213.0</ele><time>2026-04-05T17:10:26Z</time></trkpt><trkpt lat="43.86264923804022" lon="11.564674415646005"><ele>213.0</ele><time>2026-04-05T17:10:27Z</time></trkpt><trkpt lat="43.86275032855946" lon="11.564572162223538"><ele>212.5</ele><time>2026-04-05T17:10:28Z</time></trkpt><trkpt lat="43.862863150396414" lon="11.564467776733727"><ele>212.0</ele><time>2026-04-05T17:10:29Z</time></trkpt><trkpt lat="43.8629715175034" lon="11.564343407697782"><ele>211.5</ele><time>2026-04-05T17:10:30Z</time></trkpt><trkpt lat="43.86308016440968" lon="11.564222237146705"><ele>211.0</ele><time>2026-04-05T17:10:31Z</time></trkpt><trkpt lat="43.863189623714455" lon="11.564104069300656"><ele>211.0</ele><time>2026-04-05T17:10:32Z</time></trkpt><trkpt lat="43.86329746881405" lon="11.563973132687591"><ele>211.0</ele><time>2026-04-05T17:10:33Z</time></trkpt><trkpt lat="43.86339397164283" lon="11.563843776841034"><ele>211.0</ele><time>2026-04-05T17:10:34Z</time></trkpt><trkpt lat="43.86349727303797" lon="11.563700428708886"><ele>211.0</ele><time>2026-04-05T17:10:35Z</time></trkpt><trkpt lat="43.86359040790803" lon="11.563566427327773"><ele>211.5</ele><time>2026-04-05T17:10:36Z</time></trkpt><trkpt lat="43.86368093508181" lon="11.563441820702776"><ele>212.0</ele><time>2026-04-05T17:10:37Z</time></trkpt><trkpt lat="43.863768706836055" lon="11.563311439119174"><ele>212.5</ele><time>2026-04-05T17:10:38Z</time></trkpt><trkpt lat="43.863854703823165" lon="11.56318233623498"><ele>213.0</ele><time>2026-04-05T17:10:38.999Z</time></trkpt><trkpt lat="43.86393609234877" lon="11.563051996606077"><ele>213.0</ele><time>2026-04-05T17:10:39.999Z</time></trkpt><trkpt lat="43.86401654921885" lon="11.562924564494764"><ele>213.0</ele><time>2026-04-05T17:10:40.999Z</time></trkpt><trkpt lat="43.86409415014733" lon="11.562789934079733"><ele>213.0</ele><time>2026-04-05T17:10:41.999Z</time></trkpt><trkpt lat="43.86417303873857" lon="11.562649390808303"><ele>213.0</ele><time>2026-04-05T17:10:42.999Z</time></trkpt><trkpt lat="43.864246559464284" lon="11.562500913622767"><ele>214.0</ele><time>2026-04-05T17:10:43.999Z</time></trkpt><trkpt lat="43.86432007779147" lon="11.56235117236447"><ele>215.0</ele><time>2026-04-05T17:10:44.999Z</time></trkpt><trkpt lat="43.86438972719674" lon="11.562198502745575"><ele>216.0</ele><time>2026-04-05T17:10:45.999Z</time></trkpt><trkpt lat="43.86446264639125" lon="11.562052209783541"><ele>217.0</ele><time>2026-04-05T17:10:46.999Z</time></trkpt><trkpt lat="43.86454003602291" lon="11.56189937415144"><ele>214.5</ele><time>2026-04-05T17:10:47.999Z</time></trkpt><trkpt lat="43.86460660104879" lon="11.561742059993804"><ele>212.0</ele><time>2026-04-05T17:10:48.999Z</time></trkpt><trkpt lat="43.86468153853166" lon="11.561603596872576"><ele>209.5</ele><time>2026-04-05T17:10:49.999Z</time></trkpt><trkpt lat="43.86475095980411" lon="11.561466392999012"><ele>207.0</ele><time>2026-04-05T17:10:50.999Z</time></trkpt><trkpt lat="43.86481556288547" lon="11.561331958655098"><ele>205.39999999999998</ele><time>2026-04-05T17:10:51.999Z</time></trkpt><trkpt lat="43.86487853830068" lon="11.56119761489996"><ele>203.79999999999998</ele><time>2026-04-05T17:10:52.999Z</time></trkpt><trkpt lat="43.864942242091026" lon="11.561080154083111"><ele>202.2</ele><time>2026-04-05T17:10:53.999Z</time></trkpt><trkpt lat="43.865003590902994" lon="11.560958446448875"><ele>200.6</ele><time>2026-04-05T17:10:54.999Z</time></trkpt><trkpt lat="43.86506563759372" lon="11.56082912295737"><ele>199.0</ele><time>2026-04-05T17:10:55.999Z</time></trkpt><trkpt lat="43.86513212889681" lon="11.560696682883938"><ele>201.75</ele><time>2026-04-05T17:10:57Z</time></trkpt><trkpt lat="43.86519827317267" lon="11.56055727482311"><ele>204.5</ele><time>2026-04-05T17:10:58Z</time></trkpt><trkpt lat="43.86526267895522" lon="11.560417368926272"><ele>207.25</ele><time>2026-04-05T17:10:59Z</time></trkpt><trkpt lat="43.86532552650278" lon="11.560282360262708"><ele>210.0</ele><time>2026-04-05T17:11:00Z</time></trkpt><trkpt lat="43.86539081819531" lon="11.560140045231277"><ele>210.0</ele><time>2026-04-05T17:11:01Z</time></trkpt><trkpt lat="43.86545227759546" lon="11.559990297158503"><ele>210.0</ele><time>2026-04-05T17:11:02Z</time></trkpt><trkpt lat="43.86550846751336" lon="11.55982258538758"><ele>210.0</ele><time>2026-04-05T17:11:03Z</time></trkpt><trkpt lat="43.86555712183786" lon="11.559646325653008"><ele>210.0</ele><time>2026-04-05T17:11:04Z</time></trkpt><trkpt lat="43.86559823502652" lon="11.559458105506579"><ele>208.66666666666669</ele><time>2026-04-05T17:11:05Z</time></trkpt><trkpt lat="43.86563434257369" lon="11.559248248055257"><ele>207.33333333333334</ele><time>2026-04-05T17:11:06Z</time></trkpt><trkpt lat="43.86567405232636" lon="11.559024080745825"><ele>206.0</ele><time>2026-04-05T17:11:07Z</time></trkpt><trkpt lat="43.86570628733996" lon="11.558792040507086"><ele>206.33333333333334</ele><time>2026-04-05T17:11:08Z</time></trkpt><trkpt lat="43.865742306559675" lon="11.558550713440756"><ele>206.66666666666669</ele><time>2026-04-05T17:11:09Z</time></trkpt><trkpt lat="43.8657706046495" lon="11.558322586565469"><ele>207.0</ele><time>2026-04-05T17:11:10Z</time></trkpt><trkpt lat="43.86579113670008" lon="11.558099977863517"><ele>205.33333333333331</ele><time>2026-04-05T17:11:11Z</time></trkpt><trkpt lat="43.86581777703149" lon="11.557838881903296"><ele>203.66666666666666</ele><time>2026-04-05T17:11:12Z</time></trkpt><trkpt lat="43.86583702084777" lon="11.55754617543156"><ele>202.0</ele><time>2026-04-05T17:11:13Z</time></trkpt><trkpt lat="43.865843251694166" lon="11.55724028313641"><ele>199.0</ele><time>2026-04-05T17:11:14Z</time></trkpt><trkpt lat="43.865868997134115" lon="11.556936673162888"><ele>196.0</ele><time>2026-04-05T17:11:15Z</time></trkpt><trkpt lat="43.865891675709065" lon="11.556641571297398"><ele>193.0</ele><time>2026-04-05T17:11:16Z</time></trkpt><trkpt lat="43.86591033311078" lon="11.55637891903872"><ele>192.33333333333331</ele><time>2026-04-05T17:11:17Z</time></trkpt><trkpt lat="43.86593200925407" lon="11.556131954979971"><ele>191.66666666666666</ele><time>2026-04-05T17:11:18Z</time></trkpt><trkpt lat="43.86595252490909" lon="11.555899319462553"><ele>191.0</ele><time>2026-04-05T17:11:19Z</time></trkpt><trkpt lat="43.86596332182721" lon="11.555673926269952"><ele>192.33333333333331</ele><time>2026-04-05T17:11:20Z</time></trkpt><trkpt lat="43.86594555044045" lon="11.555442550567914"><ele>193.66666666666666</ele><time>2026-04-05T17:11:21Z</time></trkpt><trkpt lat="43.86589242911256" lon="11.555215254742457"><ele>195.0</ele><time>2026-04-05T17:11:22Z</time></trkpt><trkpt lat="43.86580470166332" lon="11.555022491514212"><ele>195.0</ele><time>2026-04-05T17:11:23Z</time></trkpt><trkpt lat="43.865716412361806" lon="11.554837413976413"><ele>195.0</ele><time>2026-04-05T17:11:24Z</time></trkpt><trkpt lat="43.865625215441" lon="11.554692797658044"><ele>195.0</ele><time>2026-04-05T17:11:25Z</time></trkpt><trkpt lat="43.86555042389648" lon="11.554560360399243"><ele>195.0</ele><time>2026-04-05T17:11:26Z</time></trkpt><trkpt lat="43.86550588779735" lon="11.554438102797196"><ele>193.75</ele><time>2026-04-05T17:11:27Z</time></trkpt><trkpt lat="43.86542004511582" lon="11.554325447341672"><ele>192.5</ele><time>2026-04-05T17:11:28Z</time></trkpt><trkpt lat="43.86541992721279" lon="11.554165990487617"><ele>191.25</ele><time>2026-04-05T17:11:29Z</time></trkpt><trkpt lat="43.86544255008435" lon="11.554017284723958"><ele>190.0</ele><time>2026-04-05T17:11:30Z</time></trkpt><trkpt lat="43.86548893368457" lon="11.553871332755463"><ele>190.0</ele><time>2026-04-05T17:11:31Z</time></trkpt><trkpt lat="43.86554602073769" lon="11.553707586657522"><ele>190.0</ele><time>2026-04-05T17:11:32Z</time></trkpt><trkpt lat="43.86560636450651" lon="11.553547669678423"><ele>190.0</ele><time>2026-04-05T17:11:33Z</time></trkpt><trkpt lat="43.86566504421418" lon="11.553376208948984"><ele>190.0</ele><time>2026-04-05T17:11:34Z</time></trkpt><trkpt lat="43.86572370617872" lon="11.553191315107027"><ele>188.33333333333334</ele><time>2026-04-05T17:11:35Z</time></trkpt><trkpt lat="43.86578597114575" lon="11.552992118646737"><ele>186.66666666666666</ele><time>2026-04-05T17:11:36Z</time></trkpt><trkpt lat="43.86584264547884" lon="11.552788137035817"><ele>185.0</ele><time>2026-04-05T17:11:37Z</time></trkpt><trkpt lat="43.86589330871253" lon="11.552559466055605"><ele>184.66666666666666</ele><time>2026-04-05T17:11:38Z</time></trkpt><trkpt lat="43.865936938386994" lon="11.55230546892517"><ele>184.33333333333334</ele><time>2026-04-05T17:11:39Z</time></trkpt><trkpt lat="43.86596015928108" lon="11.552036493063905"><ele>184.0</ele><time>2026-04-05T17:11:40Z</time></trkpt><trkpt lat="43.86597965997202" lon="11.551797382766589"><ele>191.0</ele><time>2026-04-05T17:11:41Z</time></trkpt><trkpt lat="43.86599927637044" lon="11.551573262314951"><ele>198.0</ele><time>2026-04-05T17:11:42Z</time></trkpt><trkpt lat="43.86601263286677" lon="11.551379371518157"><ele>205.0</ele><time>2026-04-05T17:11:43Z</time></trkpt><trkpt lat="43.86603103600795" lon="11.551189898310453"><ele>212.0</ele><time>2026-04-05T17:11:44Z</time></trkpt><trkpt lat="43.866048376923295" lon="11.551001445710794"><ele>212.0</ele><time>2026-04-05T17:11:45Z</time></trkpt><trkpt lat="43.866069481675474" lon="11.55081348465018"><ele>212.0</ele><time>2026-04-05T17:11:46Z</time></trkpt><trkpt lat="43.86604532004302" lon="11.550648267376406"><ele>212.0</ele><time>2026-04-05T17:11:47Z</time></trkpt><trkpt lat="43.86600910983912" lon="11.550470694976235"><ele>212.0</ele><time>2026-04-05T17:11:48Z</time></trkpt><trkpt lat="43.8659511214507" lon="11.550292252333985"><ele>204.5</ele><time>2026-04-05T17:11:49Z</time></trkpt><trkpt lat="43.86587049167662" lon="11.550118556692926"><ele>197.0</ele><time>2026-04-05T17:11:50Z</time></trkpt><trkpt lat="43.865781335409686" lon="11.549949381366599"><ele>189.5</ele><time>2026-04-05T17:11:51Z</time></trkpt><trkpt lat="43.865696492438865" lon="11.549788390490319"><ele>182.0</ele><time>2026-04-05T17:11:52Z</time></trkpt><trkpt lat="43.86562252060509" lon="11.54962453835355"><ele>185.5</ele><time>2026-04-05T17:11:53Z</time></trkpt><trkpt lat="43.86553559078087" lon="11.549470075979245"><ele>189.0</ele><time>2026-04-05T17:11:54Z</time></trkpt><trkpt lat="43.865452608586715" lon="11.54930697087919"><ele>192.5</ele><time>2026-04-05T17:11:55Z</time></trkpt><trkpt lat="43.86536743584371" lon="11.549142770034507"><ele>196.0</ele><time>2026-04-05T17:11:56Z</time></trkpt><trkpt lat="43.8652844715004" lon="11.548986093384475"><ele>196.0</ele><time>2026-04-05T17:11:57Z</time></trkpt><trkpt lat="43.865219213089624" lon="11.548806574463969"><ele>196.0</ele><time>2026-04-05T17:11:58Z</time></trkpt><trkpt lat="43.86515004489256" lon="11.548628763892644"><ele>196.0</ele><time>2026-04-05T17:11:59Z</time></trkpt><trkpt lat="43.86508823429304" lon="11.548437726775743"><ele>196.0</ele><time>2026-04-05T17:12:00Z</time></trkpt><trkpt lat="43.86503540866126" lon="11.548225653708819"><ele>189.33333333333331</ele><time>2026-04-05T17:12:01Z</time></trkpt><trkpt lat="43.865000305795924" lon="11.547988842059567"><ele>182.66666666666666</ele><time>2026-04-05T17:12:02Z</time></trkpt><trkpt lat="43.86497084328223" lon="11.547731535755657"><ele>176.0</ele><time>2026-04-05T17:12:03Z</time></trkpt><trkpt lat="43.86495726077893" lon="11.547446238089758"><ele>176.0</ele><time>2026-04-05T17:12:04Z</time></trkpt><trkpt lat="43.86492745419546" lon="11.547142984396514"><ele>176.0</ele><time>2026-04-05T17:12:05Z</time></trkpt><trkpt lat="43.86489727957351" lon="11.546820462091947"><ele>176.0</ele><time>2026-04-05T17:12:06Z</time></trkpt><trkpt lat="43.86486883972811" lon="11.546499779970917"><ele>176.0</ele><time>2026-04-05T17:12:07Z</time></trkpt><trkpt lat="43.86483715942098" lon="11.546189636213189"><ele>176.33333333333331</ele><time>2026-04-05T17:12:08Z</time></trkpt><trkpt lat="43.86482242509214" lon="11.54591387888133"><ele>176.66666666666666</ele><time>2026-04-05T17:12:09Z</time></trkpt><trkpt lat="43.86480967853519" lon="11.545653285267953"><ele>177.0</ele><time>2026-04-05T17:12:10Z</time></trkpt><trkpt lat="43.86478987046324" lon="11.545409742324342"><ele>177.66666666666666</ele><time>2026-04-05T17:12:11Z</time></trkpt><trkpt lat="43.86475527550767" lon="11.545145047837297"><ele>178.33333333333331</ele><time>2026-04-05T17:12:12Z</time></trkpt><trkpt lat="43.86470755175232" lon="11.544860707396532"><ele>179.0</ele><time>2026-04-05T17:12:13Z</time></trkpt><trkpt lat="43.86467027449177" lon="11.54456379380537"><ele>180.0</ele><time>2026-04-05T17:12:14Z</time></trkpt><trkpt lat="43.8646387378928" lon="11.544288780911826"><ele>181.0</ele><time>2026-04-05T17:12:15Z</time></trkpt><trkpt lat="43.864605394182774" lon="11.544022622119346"><ele>182.0</ele><time>2026-04-05T17:12:16Z</time></trkpt><trkpt lat="43.86456491131471" lon="11.543754388613223"><ele>183.66666666666666</ele><time>2026-04-05T17:12:17Z</time></trkpt><trkpt lat="43.86452627433273" lon="11.543493252187357"><ele>185.33333333333334</ele><time>2026-04-05T17:12:18Z</time></trkpt><trkpt lat="43.8644906997428" lon="11.543241668475561"><ele>187.0</ele><time>2026-04-05T17:12:19Z</time></trkpt><trkpt lat="43.86445591932331" lon="11.5430158351538"><ele>187.33333333333334</ele><time>2026-04-05T17:12:20Z</time></trkpt><trkpt lat="43.86439572363241" lon="11.54282287045218"><ele>187.66666666666666</ele><time>2026-04-05T17:12:21Z</time></trkpt><trkpt lat="43.864298341294415" lon="11.542658944992635"><ele>188.0</ele><time>2026-04-05T17:12:22Z</time></trkpt><trkpt lat="43.86417141812355" lon="11.54254532679804"><ele>184.25</ele><time>2026-04-05T17:12:23Z</time></trkpt><trkpt lat="43.864044334847506" lon="11.542447009224933"><ele>180.5</ele><time>2026-04-05T17:12:24Z</time></trkpt><trkpt lat="43.86393705245003" lon="11.542325479371625"><ele>176.75</ele><time>2026-04-05T17:12:25Z</time></trkpt><trkpt lat="43.86386818230156" lon="11.542163826954928"><ele>173.0</ele><time>2026-04-05T17:12:26Z</time></trkpt><trkpt lat="43.86382805543049" lon="11.541970237054075"><ele>173.0</ele><time>2026-04-05T17:12:27Z</time></trkpt><trkpt lat="43.86381763770907" lon="11.541754975828466"><ele>173.0</ele><time>2026-04-05T17:12:28Z</time></trkpt><trkpt lat="43.8638312170387" lon="11.541521428159601"><ele>173.0</ele><time>2026-04-05T17:12:29Z</time></trkpt><trkpt lat="43.86384178800222" lon="11.541282305655713"><ele>172.33333333333331</ele><time>2026-04-05T17:12:30Z</time></trkpt><trkpt lat="43.863850165761" lon="11.541041790317548"><ele>171.66666666666666</ele><time>2026-04-05T17:12:31Z</time></trkpt><trkpt lat="43.863848719964196" lon="11.540800352319671"><ele>171.0</ele><time>2026-04-05T17:12:32Z</time></trkpt><trkpt lat="43.86384756273118" lon="11.540566073755985"><ele>170.0</ele><time>2026-04-05T17:12:33Z</time></trkpt><trkpt lat="43.86384548998636" lon="11.540347558169175"><ele>169.0</ele><time>2026-04-05T17:12:34Z</time></trkpt><trkpt lat="43.863839263738825" lon="11.54013452034701"><ele>168.0</ele><time>2026-04-05T17:12:34.999Z</time></trkpt><trkpt lat="43.86380888592147" lon="11.5399305844496"><ele>168.0</ele><time>2026-04-05T17:12:35.999Z</time></trkpt><trkpt lat="43.86374503325497" lon="11.539726968438016"><ele>168.0</ele><time>2026-04-05T17:12:36.999Z</time></trkpt><trkpt lat="43.863669867563324" lon="11.539524719535171"><ele>168.0</ele><time>2026-04-05T17:12:37.999Z</time></trkpt><trkpt lat="43.863599266654276" lon="11.53932505142458"><ele>168.0</ele><time>2026-04-05T17:12:38.999Z</time></trkpt><trkpt lat="43.86354027148235" lon="11.539140845999267"><ele>168.0</ele><time>2026-04-05T17:12:39.999Z</time></trkpt><trkpt lat="43.86349370413759" lon="11.538966962676081"><ele>168.0</ele><time>2026-04-05T17:12:40.999Z</time></trkpt><trkpt lat="43.86347064865838" lon="11.538796302583544"><ele>168.0</ele><time>2026-04-05T17:12:41.999Z</time></trkpt><trkpt lat="43.86347811628669" lon="11.538620817978666"><ele>168.0</ele><time>2026-04-05T17:12:42.999Z</time></trkpt><trkpt lat="43.863499355688106" lon="11.538453911040353"><ele>168.0</ele><time>2026-04-05T17:12:43.999Z</time></trkpt><trkpt lat="43.863528913812424" lon="11.538297571522854"><ele>168.0</ele><time>2026-04-05T17:12:44.999Z</time></trkpt><trkpt lat="43.86355720975161" lon="11.538147685515028"><ele>168.0</ele><time>2026-04-05T17:12:45.999Z</time></trkpt><trkpt lat="43.86359281353314" lon="11.537977753097785"><ele>167.5</ele><time>2026-04-05T17:12:46.999Z</time></trkpt><trkpt lat="43.863611887223236" lon="11.53779530479414"><ele>167.0</ele><time>2026-04-05T17:12:47.999Z</time></trkpt><trkpt lat="43.863628823716894" lon="11.537601485727889"><ele>166.5</ele><time>2026-04-05T17:12:48.999Z</time></trkpt><trkpt lat="43.86364739816436" lon="11.537401899606953"><ele>166.0</ele><time>2026-04-05T17:12:49.999Z</time></trkpt><trkpt lat="43.863635693094416" lon="11.537197736967196"><ele>166.0</ele><time>2026-04-05T17:12:50.999Z</time></trkpt><trkpt lat="43.863601835953425" lon="11.536988717337259"><ele>166.0</ele><time>2026-04-05T17:12:51.999Z</time></trkpt><trkpt lat="43.86355978822748" lon="11.536783550661086"><ele>166.0</ele><time>2026-04-05T17:12:52.999Z</time></trkpt><trkpt lat="43.86351691674095" lon="11.536596063333162"><ele>166.0</ele><time>2026-04-05T17:12:53.999Z</time></trkpt><trkpt lat="43.86348007637628" lon="11.536413029307703"><ele>166.0</ele><time>2026-04-05T17:12:54.999Z</time></trkpt><trkpt lat="43.86344928466164" lon="11.536229199240044"><ele>166.0</ele><time>2026-04-05T17:12:55.999Z</time></trkpt><trkpt lat="43.86343008811785" lon="11.536050563141025"><ele>166.0</ele><time>2026-04-05T17:12:56.999Z</time></trkpt><trkpt lat="43.86341738299574" lon="11.535871369050469"><ele>165.25</ele><time>2026-04-05T17:12:57.999Z</time></trkpt><trkpt lat="43.86341465735356" lon="11.535688866445016"><ele>164.5</ele><time>2026-04-05T17:12:58.999Z</time></trkpt><trkpt lat="43.863421099754355" lon="11.535505681575016"><ele>163.75</ele><time>2026-04-05T17:12:59.999Z</time></trkpt><trkpt lat="43.86344482846071" lon="11.535321047996137"><ele>163.0</ele><time>2026-04-05T17:13:00.999Z</time></trkpt><trkpt lat="43.86346854171597" lon="11.535124227490988"><ele>163.0</ele><time>2026-04-05T17:13:01.999Z</time></trkpt><trkpt lat="43.86348911344984" lon="11.534921773578102"><ele>163.0</ele><time>2026-04-05T17:13:03Z</time></trkpt><trkpt lat="43.86350034496225" lon="11.534712875619162"><ele>163.0</ele><time>2026-04-05T17:13:04Z</time></trkpt><trkpt lat="43.86350490985774" lon="11.534502242472614"><ele>163.0</ele><time>2026-04-05T17:13:05Z</time></trkpt><trkpt lat="43.863496889538865" lon="11.534300520902207"><ele>163.0</ele><time>2026-04-05T17:13:06Z</time></trkpt><trkpt lat="43.863475382576645" lon="11.534107612729212"><ele>163.0</ele><time>2026-04-05T17:13:07Z</time></trkpt><trkpt lat="43.86344478409183" lon="11.533907085808563"><ele>163.0</ele><time>2026-04-05T17:13:08Z</time></trkpt><trkpt lat="43.86341321453228" lon="11.533705968175509"><ele>158.25</ele><time>2026-04-05T17:13:09Z</time></trkpt><trkpt lat="43.86338696717677" lon="11.533502466447466"><ele>153.5</ele><time>2026-04-05T17:13:10Z</time></trkpt><trkpt lat="43.863361391029336" lon="11.533311307142819"><ele>148.75</ele><time>2026-04-05T17:13:11Z</time></trkpt><trkpt lat="43.863338502643984" lon="11.533121127156988"><ele>144.0</ele><time>2026-04-05T17:13:12Z</time></trkpt><trkpt lat="43.863319426950845" lon="11.5329467323478"><ele>144.0</ele><time>2026-04-05T17:13:13Z</time></trkpt><trkpt lat="43.86329837068775" lon="11.532792405246997"><ele>144.0</ele><time>2026-04-05T17:13:14Z</time></trkpt><trkpt lat="43.863283105504735" lon="11.53266609886046"><ele>144.0</ele><time>2026-04-05T17:13:15Z</time></trkpt><trkpt lat="43.863275228215514" lon="11.532563006578597"><ele>144.0</ele><time>2026-04-05T17:13:16Z</time></trkpt><trkpt lat="43.86326282223426" lon="11.53243591606938"><ele>144.0</ele><time>2026-04-05T17:13:18Z</time></trkpt><trkpt lat="43.86325595297276" lon="11.532331085596429"><ele>144.0</ele><time>2026-04-05T17:13:20Z</time></trkpt><trkpt lat="43.863245482498954" lon="11.532235559551353"><ele>144.0</ele><time>2026-04-05T17:13:23Z</time></trkpt><trkpt lat="43.863229420664204" lon="11.532353726717966"><ele>144.0</ele><time>2026-04-05T17:14:36.999Z</time></trkpt><trkpt lat="43.86323632082808" lon="11.532213184729153"><ele>144.0</ele><time>2026-04-05T17:14:38.999Z</time></trkpt><trkpt lat="43.86315197494554" lon="11.532639156662148"><ele>143.5</ele><time>2026-04-05T17:14:39.999Z</time></trkpt><trkpt lat="43.86351480785493" lon="11.532985738881928"><ele>143.0</ele><time>2026-04-05T17:14:42.999Z</time></trkpt><trkpt lat="43.863620182496916" lon="11.53248182769443"><ele>143.0</ele><time>2026-04-05T17:14:45.999Z</time></trkpt><trkpt lat="43.86366065573154" lon="11.53240538565721"><ele>143.0</ele><time>2026-04-05T17:14:46.999Z</time></trkpt><trkpt lat="43.86370768070809" lon="11.532319333944173"><ele>143.0</ele><time>2026-04-05T17:14:48.999Z</time></trkpt><trkpt lat="43.86368182785067" lon="11.532171288105861"><ele>143.0</ele><time>2026-04-05T17:14:50.999Z</time></trkpt><trkpt lat="43.86373395451656" lon="11.53210608086602"><ele>143.0</ele><time>2026-04-05T17:14:51.999Z</time></trkpt><trkpt lat="43.86383023380137" lon="11.532221022385922"><ele>143.0</ele><time>2026-04-05T17:14:52.999Z</time></trkpt><trkpt lat="43.86389576807165" lon="11.532249717773063"><ele>143.0</ele><time>2026-04-05T17:14:53.999Z</time></trkpt><trkpt lat="43.86401760276544" lon="11.53232076469024"><ele>143.0</ele><time>2026-04-05T17:14:55.999Z</time></trkpt><trkpt lat="43.86408192201072" lon="11.532334651837662"><ele>143.0</ele><time>2026-04-05T17:14:56.999Z</time></trkpt><trkpt lat="43.864150214992684" lon="11.53227531673123"><ele>143.0</ele><time>2026-04-05T17:14:57.999Z</time></trkpt><trkpt lat="43.864161313568516" lon="11.532142477145696"><ele>143.0</ele><time>2026-04-05T17:14:58.999Z</time></trkpt><trkpt lat="43.86420281410079" lon="11.53206557522113"><ele>143.0</ele><time>2026-04-05T17:14:59.999Z</time></trkpt><trkpt lat="43.86424408525841" lon="11.531972772911118"><ele>143.0</ele><time>2026-04-05T17:15:00.999Z</time></trkpt><trkpt lat="43.86427908703527" lon="11.531884112463498"><ele>143.0</ele><time>2026-04-05T17:15:01.999Z</time></trkpt><trkpt lat="43.86436139077558" lon="11.531894937355831"><ele>143.0</ele><time>2026-04-05T17:15:02.999Z</time></trkpt><trkpt lat="43.864457009428634" lon="11.531899221991774"><ele>143.0</ele><time>2026-04-05T17:15:03.999Z</time></trkpt><trkpt lat="43.864552779348074" lon="11.531862993667827"><ele>143.0</ele><time>2026-04-05T17:15:04.999Z</time></trkpt><trkpt lat="43.864646614474964" lon="11.531860890089309"><ele>143.0</ele><time>2026-04-05T17:15:05.999Z</time></trkpt><trkpt lat="43.86473925445117" lon="11.531837621912361"><ele>143.0</ele><time>2026-04-05T17:15:06.999Z</time></trkpt><trkpt lat="43.86483424203545" lon="11.531824625100427"><ele>143.0</ele><time>2026-04-05T17:15:07.999Z</time></trkpt><trkpt lat="43.864930930133305" lon="11.531818686686611"><ele>143.0</ele><time>2026-04-05T17:15:09Z</time></trkpt><trkpt lat="43.865027653597195" lon="11.531816313554183"><ele>143.0</ele><time>2026-04-05T17:15:10Z</time></trkpt><trkpt lat="43.86513456320532" lon="11.531821710398404"><ele>143.0</ele><time>2026-04-05T17:15:11Z</time></trkpt><trkpt lat="43.86524565807436" lon="11.531836246684337"><ele>143.0</ele><time>2026-04-05T17:15:12Z</time></trkpt><trkpt lat="43.865358261267225" lon="11.531868873238027"><ele>143.0</ele><time>2026-04-05T17:15:13Z</time></trkpt><trkpt lat="43.865472001988685" lon="11.531894784307383"><ele>143.0</ele><time>2026-04-05T17:15:14Z</time></trkpt><trkpt lat="43.86559037043935" lon="11.531926509677008"><ele>143.0</ele><time>2026-04-05T17:15:15Z</time></trkpt><trkpt lat="43.86571048041392" lon="11.531954534430147"><ele>143.0</ele><time>2026-04-05T17:15:16Z</time></trkpt><trkpt lat="43.865834360969515" lon="11.531981764429998"><ele>143.0</ele><time>2026-04-05T17:15:17Z</time></trkpt><trkpt lat="43.865962962271176" lon="11.532010666574246"><ele>143.0</ele><time>2026-04-05T17:15:18Z</time></trkpt><trkpt lat="43.86608529043718" lon="11.532046739718375"><ele>144.0</ele><time>2026-04-05T17:15:19Z</time></trkpt><trkpt lat="43.866204126757246" lon="11.53207122479959"><ele>145.0</ele><time>2026-04-05T17:15:20Z</time></trkpt><trkpt lat="43.8663277137056" lon="11.53210217186163"><ele>146.0</ele><time>2026-04-05T17:15:21Z</time></trkpt><trkpt lat="43.86643255514091" lon="11.532140484136159"><ele>147.0</ele><time>2026-04-05T17:15:22Z</time></trkpt><trkpt lat="43.86658829602823" lon="11.532244703441823"><ele>147.0</ele><time>2026-04-05T17:15:24Z</time></trkpt><trkpt lat="43.86679107103665" lon="11.532150913184987"><ele>147.0</ele><time>2026-04-05T17:15:25Z</time></trkpt><trkpt lat="43.86688377873224" lon="11.532085070424076"><ele>147.0</ele><time>2026-04-05T17:15:26Z</time></trkpt><trkpt lat="43.86696185321616" lon="11.531984284721842"><ele>147.0</ele><time>2026-04-05T17:15:27Z</time></trkpt><trkpt lat="43.86703033261432" lon="11.53185587437724"><ele>147.0</ele><time>2026-04-05T17:15:28Z</time></trkpt><trkpt lat="43.867108874992816" lon="11.531740304429498"><ele>147.0</ele><time>2026-04-05T17:15:29Z</time></trkpt><trkpt lat="43.86719410237112" lon="11.531616979832975"><ele>147.0</ele><time>2026-04-05T17:15:30Z</time></trkpt><trkpt lat="43.86728514895658" lon="11.531495155792525"><ele>147.0</ele><time>2026-04-05T17:15:31Z</time></trkpt><trkpt lat="43.86737515308272" lon="11.531375836305664"><ele>147.0</ele><time>2026-04-05T17:15:32Z</time></trkpt><trkpt lat="43.86747154462444" lon="11.53125101823971"><ele>147.0</ele><time>2026-04-05T17:15:33Z</time></trkpt><trkpt lat="43.8675705570195" lon="11.531127073015734"><ele>147.0</ele><time>2026-04-05T17:15:34Z</time></trkpt><trkpt lat="43.867665539109" lon="11.53100353202473"><ele>147.0</ele><time>2026-04-05T17:15:35Z</time></trkpt><trkpt lat="43.867752613860354" lon="11.530887425941753"><ele>147.79999999999998</ele><time>2026-04-05T17:15:36Z</time></trkpt><trkpt lat="43.867842129996745" lon="11.530800695337044"><ele>148.6</ele><time>2026-04-05T17:15:37Z</time></trkpt><trkpt lat="43.86789905271138" lon="11.530697465367965"><ele>149.39999999999998</ele><time>2026-04-05T17:15:38Z</time></trkpt><trkpt lat="43.86796593739462" lon="11.530620226346581"><ele>150.2</ele><time>2026-04-05T17:15:39Z</time></trkpt><trkpt lat="43.868035830692655" lon="11.530545212970628"><ele>151.0</ele><time>2026-04-05T17:15:40Z</time></trkpt><trkpt lat="43.86812726549386" lon="11.530494052097977"><ele>151.0</ele><time>2026-04-05T17:15:41Z</time></trkpt><trkpt lat="43.86822667199323" lon="11.530469063582855"><ele>151.0</ele><time>2026-04-05T17:15:42Z</time></trkpt><trkpt lat="43.868312561894264" lon="11.530414081503407"><ele>151.0</ele><time>2026-04-05T17:15:43Z</time></trkpt><trkpt lat="43.86837985074444" lon="11.53036286182895"><ele>151.0</ele><time>2026-04-05T17:15:44Z</time></trkpt><trkpt lat="43.8684340300045" lon="11.53029261484475"><ele>151.0</ele><time>2026-04-05T17:15:45Z</time></trkpt><trkpt lat="43.868417121441205" lon="11.53014388899498"><ele>151.2</ele><time>2026-04-05T17:15:46Z</time></trkpt><trkpt lat="43.86841616924176" lon="11.530034311467446"><ele>151.39999999999998</ele><time>2026-04-05T17:15:48Z</time></trkpt><trkpt lat="43.868529767995234" lon="11.529990079371569"><ele>151.6</ele><time>2026-04-05T17:15:49Z</time></trkpt><trkpt lat="43.8686286660055" lon="11.529954497887974"><ele>151.79999999999998</ele><time>2026-04-05T17:15:50Z</time></trkpt><trkpt lat="43.868733631388686" lon="11.529894839475277"><ele>152.0</ele><time>2026-04-05T17:15:51Z</time></trkpt><trkpt lat="43.868847165560126" lon="11.529866314559284"><ele>152.0</ele><time>2026-04-05T17:15:52Z</time></trkpt><trkpt lat="43.86896466377056" lon="11.529822545062576"><ele>152.0</ele><time>2026-04-05T17:15:53Z</time></trkpt><trkpt lat="43.86908399302002" lon="11.529774710676731"><ele>152.0</ele><time>2026-04-05T17:15:54Z</time></trkpt><trkpt lat="43.86920686523403" lon="11.529726837660018"><ele>152.0</ele><time>2026-04-05T17:15:55Z</time></trkpt><trkpt lat="43.86932030822044" lon="11.529695500802081"><ele>151.2</ele><time>2026-04-05T17:15:56Z</time></trkpt><trkpt lat="43.869424447464596" lon="11.52973551189266"><ele>150.39999999999998</ele><time>2026-04-05T17:15:57Z</time></trkpt><trkpt lat="43.86952233551657" lon="11.529788788856232"><ele>149.60000000000002</ele><time>2026-04-05T17:15:58Z</time></trkpt><trkpt lat="43.86961547771769" lon="11.529877796037388"><ele>148.8</ele><time>2026-04-05T17:15:59Z</time></trkpt><trkpt lat="43.869719802329406" lon="11.52996346423234"><ele>148.0</ele><time>2026-04-05T17:16:00Z</time></trkpt><trkpt lat="43.86983373076339" lon="11.530035856456053"><ele>148.0</ele><time>2026-04-05T17:16:01Z</time></trkpt><trkpt lat="43.86994978000619" lon="11.530119179657293"><ele>148.0</ele><time>2026-04-05T17:16:02Z</time></trkpt><trkpt lat="43.870073945126286" lon="11.530194975796231"><ele>148.0</ele><time>2026-04-05T17:16:03Z</time></trkpt><trkpt lat="43.87019887671296" lon="11.530217537132408"><ele>148.0</ele><time>2026-04-05T17:16:04Z</time></trkpt><trkpt lat="43.870337757521035" lon="11.53022192120104"><ele>147.5</ele><time>2026-04-05T17:16:05Z</time></trkpt><trkpt lat="43.8704725793843" lon="11.53020033736484"><ele>147.0</ele><time>2026-04-05T17:16:06Z</time></trkpt><trkpt lat="43.87062130059285" lon="11.530158760200726"><ele>146.5</ele><time>2026-04-05T17:16:07Z</time></trkpt><trkpt lat="43.870768624236874" lon="11.53010265219439"><ele>146.0</ele><time>2026-04-05T17:16:08Z</time></trkpt><trkpt lat="43.870920900188985" lon="11.53003773264779"><ele>147.33333333333331</ele><time>2026-04-05T17:16:09Z</time></trkpt><trkpt lat="43.8710848671811" lon="11.529978005096789"><ele>148.66666666666666</ele><time>2026-04-05T17:16:10Z</time></trkpt><trkpt lat="43.87126136180952" lon="11.529907570699809"><ele>150.0</ele><time>2026-04-05T17:16:11Z</time></trkpt><trkpt lat="43.871426155863254" lon="11.529843838828288"><ele>150.0</ele><time>2026-04-05T17:16:12Z</time></trkpt><trkpt lat="43.87159720225009" lon="11.529779596262975"><ele>150.0</ele><time>2026-04-05T17:16:12.999Z</time></trkpt><trkpt lat="43.871771159766865" lon="11.529714325764973"><ele>150.0</ele><time>2026-04-05T17:16:13.999Z</time></trkpt><trkpt lat="43.87195414363352" lon="11.529644010868987"><ele>151.33333333333334</ele><time>2026-04-05T17:16:14.999Z</time></trkpt><trkpt lat="43.872151405942894" lon="11.529567794688752"><ele>152.66666666666669</ele><time>2026-04-05T17:16:15.999Z</time></trkpt><trkpt lat="43.87234757510021" lon="11.529491657585387"><ele>154.0</ele><time>2026-04-05T17:16:16.999Z</time></trkpt><trkpt lat="43.87255317901282" lon="11.529410425649493"><ele>151.66666666666669</ele><time>2026-04-05T17:16:17.999Z</time></trkpt><trkpt lat="43.87275720031876" lon="11.529339787963762"><ele>149.33333333333334</ele><time>2026-04-05T17:16:18.999Z</time></trkpt><trkpt lat="43.87294204333156" lon="11.529267945410531"><ele>147.0</ele><time>2026-04-05T17:16:19.999Z</time></trkpt><trkpt lat="43.87311226977289" lon="11.529205459337948"><ele>147.0</ele><time>2026-04-05T17:16:20.999Z</time></trkpt><trkpt lat="43.87327209934937" lon="11.529151400113811"><ele>147.0</ele><time>2026-04-05T17:16:21.999Z</time></trkpt><trkpt lat="43.87342841052274" lon="11.529151889659573"><ele>147.0</ele><time>2026-04-05T17:16:22.999Z</time></trkpt><trkpt lat="43.87357714180557" lon="11.529184289725633"><ele>146.0</ele><time>2026-04-05T17:16:23.999Z</time></trkpt><trkpt lat="43.87371332695985" lon="11.529270036891576"><ele>145.0</ele><time>2026-04-05T17:16:24.999Z</time></trkpt><trkpt lat="43.87385895771769" lon="11.52937264537595"><ele>144.0</ele><time>2026-04-05T17:16:25.999Z</time></trkpt><trkpt lat="43.87401194453824" lon="11.52947567420396"><ele>146.66666666666666</ele><time>2026-04-05T17:16:26.999Z</time></trkpt><trkpt lat="43.8741861959832" lon="11.529570019492558"><ele>149.33333333333331</ele><time>2026-04-05T17:16:27.999Z</time></trkpt><trkpt lat="43.874352763748476" lon="11.529680057407045"><ele>152.0</ele><time>2026-04-05T17:16:28.999Z</time></trkpt><trkpt lat="43.87452551257065" lon="11.529788261534183"><ele>152.0</ele><time>2026-04-05T17:16:29.999Z</time></trkpt><trkpt lat="43.874712512204646" lon="11.529872461489411"><ele>152.0</ele><time>2026-04-05T17:16:30.999Z</time></trkpt><trkpt lat="43.87490672412642" lon="11.529934133940595"><ele>152.0</ele><time>2026-04-05T17:16:31.999Z</time></trkpt><trkpt lat="43.875113468713174" lon="11.529978650374083"><ele>152.0</ele><time>2026-04-05T17:16:32.999Z</time></trkpt><trkpt lat="43.875323888190074" lon="11.529982726903075"><ele>152.0</ele><time>2026-04-05T17:16:33.999Z</time></trkpt><trkpt lat="43.87554159728519" lon="11.52994574725385"><ele>152.0</ele><time>2026-04-05T17:16:34.999Z</time></trkpt><trkpt lat="43.87575795757266" lon="11.52988666056522"><ele>154.0</ele><time>2026-04-05T17:16:35.999Z</time></trkpt><trkpt lat="43.875955559054475" lon="11.529812021718884"><ele>156.0</ele><time>2026-04-05T17:16:36.999Z</time></trkpt><trkpt lat="43.876143832385026" lon="11.52976981898523"><ele>158.0</ele><time>2026-04-05T17:16:37.999Z</time></trkpt><trkpt lat="43.876306076409385" lon="11.529715687752288"><ele>158.0</ele><time>2026-04-05T17:16:38.999Z</time></trkpt><trkpt lat="43.876471762594335" lon="11.529664373385224"><ele>158.0</ele><time>2026-04-05T17:16:39.999Z</time></trkpt><trkpt lat="43.87662558788231" lon="11.529590261559969"><ele>158.0</ele><time>2026-04-05T17:16:40.999Z</time></trkpt><trkpt lat="43.87678828927108" lon="11.529568390111386"><ele>156.0</ele><time>2026-04-05T17:16:41.999Z</time></trkpt><trkpt lat="43.8769319331439" lon="11.529547885974585"><ele>154.0</ele><time>2026-04-05T17:16:42.999Z</time></trkpt><trkpt lat="43.87706686925231" lon="11.529528209458519"><ele>152.0</ele><time>2026-04-05T17:16:43.999Z</time></trkpt><trkpt lat="43.877205588592545" lon="11.529507981296838"><ele>150.0</ele><time>2026-04-05T17:16:44.999Z</time></trkpt><trkpt lat="43.87734446736382" lon="11.529487729881854"><ele>150.0</ele><time>2026-04-05T17:16:45.999Z</time></trkpt><trkpt lat="43.87748059648974" lon="11.529467879408775"><ele>150.0</ele><time>2026-04-05T17:16:46.999Z</time></trkpt><trkpt lat="43.877618746621124" lon="11.52944773423413"><ele>150.0</ele><time>2026-04-05T17:16:47.999Z</time></trkpt><trkpt lat="43.877754304829004" lon="11.529427967023768"><ele>150.0</ele><time>2026-04-05T17:16:48.999Z</time></trkpt><trkpt lat="43.8778873017435" lon="11.529408467446888"><ele>150.75</ele><time>2026-04-05T17:16:49.999Z</time></trkpt><trkpt lat="43.8780210682393" lon="11.529388533805072"><ele>151.5</ele><time>2026-04-05T17:16:50.999Z</time></trkpt><trkpt lat="43.87814856417633" lon="11.52939031378359"><ele>152.25</ele><time>2026-04-05T17:16:51.999Z</time></trkpt><trkpt lat="43.87826998639555" lon="11.529413936038608"><ele>153.0</ele><time>2026-04-05T17:16:52.999Z</time></trkpt><trkpt lat="43.87838783404435" lon="11.529465748131265"><ele>153.25</ele><time>2026-04-05T17:16:53.999Z</time></trkpt><trkpt lat="43.878518042221636" lon="11.529491552439428"><ele>153.5</ele><time>2026-04-05T17:16:54.999Z</time></trkpt><trkpt lat="43.87863031829835" lon="11.52953851374653"><ele>153.75</ele><time>2026-04-05T17:16:55.999Z</time></trkpt><trkpt lat="43.87875247760178" lon="11.529552915634833"><ele>154.0</ele><time>2026-04-05T17:16:56.999Z</time></trkpt><trkpt lat="43.87887626426357" lon="11.529529334637253"><ele>154.0</ele><time>2026-04-05T17:16:57.999Z</time></trkpt><trkpt lat="43.87900366792367" lon="11.529455130723008"><ele>154.0</ele><time>2026-04-05T17:16:58.999Z</time></trkpt><trkpt lat="43.87912461328377" lon="11.529370518663193"><ele>154.0</ele><time>2026-04-05T17:16:59.999Z</time></trkpt><trkpt lat="43.87924846338784" lon="11.52930284816824"><ele>154.0</ele><time>2026-04-05T17:17:00.999Z</time></trkpt><trkpt lat="43.87936671698709" lon="11.529241633644006"><ele>154.25</ele><time>2026-04-05T17:17:01.999Z</time></trkpt><trkpt lat="43.879482744638764" lon="11.529220915264945"><ele>154.5</ele><time>2026-04-05T17:17:02.999Z</time></trkpt><trkpt lat="43.879595882628095" lon="11.529229348309066"><ele>154.75</ele><time>2026-04-05T17:17:03.999Z</time></trkpt><trkpt lat="43.87971587872144" lon="11.529283651439528"><ele>155.0</ele><time>2026-04-05T17:17:04.999Z</time></trkpt><trkpt lat="43.87984146593988" lon="11.529352671062975"><ele>155.0</ele><time>2026-04-05T17:17:05.999Z</time></trkpt><trkpt lat="43.87997476650338" lon="11.529431654495065"><ele>155.0</ele><time>2026-04-05T17:17:06.999Z</time></trkpt><trkpt lat="43.88010174126123" lon="11.529510708950315"><ele>155.0</ele><time>2026-04-05T17:17:07.999Z</time></trkpt><trkpt lat="43.8802272549584" lon="11.529581325922106"><ele>155.0</ele><time>2026-04-05T17:17:08.999Z</time></trkpt><trkpt lat="43.880341599739886" lon="11.529594955338"><ele>158.4</ele><time>2026-04-05T17:17:09.999Z</time></trkpt><trkpt lat="43.88043784734429" lon="11.529633127077151"><ele>161.8</ele><time>2026-04-05T17:17:10.999Z</time></trkpt><trkpt lat="43.88052984420646" lon="11.529611934189491"><ele>165.2</ele><time>2026-04-05T17:17:11.999Z</time></trkpt><trkpt lat="43.88062947614223" lon="11.529629319518106"><ele>168.6</ele><time>2026-04-05T17:17:12.999Z</time></trkpt><trkpt lat="43.88075020893124" lon="11.529621283616558"><ele>172.0</ele><time>2026-04-05T17:17:13.999Z</time></trkpt><trkpt lat="43.88088679944214" lon="11.529613788650433"><ele>175.66666666666669</ele><time>2026-04-05T17:17:15Z</time></trkpt><trkpt lat="43.88103420170249" lon="11.529573512516269"><ele>179.33333333333334</ele><time>2026-04-05T17:17:16Z</time></trkpt><trkpt lat="43.881189296405005" lon="11.529520443262454"><ele>183.0</ele><time>2026-04-05T17:17:17Z</time></trkpt><trkpt lat="43.881350417142016" lon="11.529429222371514"><ele>176.66666666666666</ele><time>2026-04-05T17:17:18Z</time></trkpt><trkpt lat="43.88151024469053" lon="11.529377017490955"><ele>170.33333333333331</ele><time>2026-04-05T17:17:19Z</time></trkpt><trkpt lat="43.881668284747306" lon="11.529301557928287"><ele>164.0</ele><time>2026-04-05T17:17:20Z</time></trkpt><trkpt lat="43.881820547147434" lon="11.529198797142602"><ele>164.0</ele><time>2026-04-05T17:17:21Z</time></trkpt><trkpt lat="43.881969761260514" lon="11.529123343672701"><ele>164.0</ele><time>2026-04-05T17:17:22Z</time></trkpt><trkpt lat="43.88211954819429" lon="11.529045190624823"><ele>164.0</ele><time>2026-04-05T17:17:23Z</time></trkpt><trkpt lat="43.882265435638914" lon="11.528966938084814"><ele>164.0</ele><time>2026-04-05T17:17:24Z</time></trkpt><trkpt lat="43.88241043893939" lon="11.528893905772716"><ele>164.0</ele><time>2026-04-05T17:17:25Z</time></trkpt><trkpt lat="43.88255180053533" lon="11.52882098095613"><ele>164.0</ele><time>2026-04-05T17:17:26Z</time></trkpt><trkpt lat="43.882687194887346" lon="11.528743191337227"><ele>162.75</ele><time>2026-04-05T17:17:27Z</time></trkpt><trkpt lat="43.88281173526829" lon="11.528664667210538"><ele>161.5</ele><time>2026-04-05T17:17:28Z</time></trkpt><trkpt lat="43.88292356527924" lon="11.52858594301958"><ele>160.25</ele><time>2026-04-05T17:17:29Z</time></trkpt><trkpt lat="43.88302624010593" lon="11.528504093040153"><ele>159.0</ele><time>2026-04-05T17:17:30Z</time></trkpt><trkpt lat="43.88311261496858" lon="11.528423438533604"><ele>159.0</ele><time>2026-04-05T17:17:31Z</time></trkpt><trkpt lat="43.8831896769858" lon="11.528341807824702"><ele>159.0</ele><time>2026-04-05T17:17:32Z</time></trkpt><trkpt lat="43.8832666614827" lon="11.528255886164091"><ele>159.0</ele><time>2026-04-05T17:17:33Z</time></trkpt><trkpt lat="43.883339430056324" lon="11.528149387205614"><ele>159.0</ele><time>2026-04-05T17:17:34Z</time></trkpt><trkpt lat="43.88341564105606" lon="11.528018925258099"><ele>159.0</ele><time>2026-04-05T17:17:35Z</time></trkpt><trkpt lat="43.883501944933776" lon="11.52788140025588"><ele>160.0</ele><time>2026-04-05T17:17:36Z</time></trkpt><trkpt lat="43.883598668976504" lon="11.52773098574883"><ele>161.0</ele><time>2026-04-05T17:17:37Z</time></trkpt><trkpt lat="43.88370118298214" lon="11.527570948972102"><ele>162.0</ele><time>2026-04-05T17:17:38Z</time></trkpt><trkpt lat="43.88380372681026" lon="11.527408568407006"><ele>162.0</ele><time>2026-04-05T17:17:39Z</time></trkpt><trkpt lat="43.88390826773997" lon="11.527237904848297"><ele>162.0</ele><time>2026-04-05T17:17:40Z</time></trkpt><trkpt lat="43.88402276478486" lon="11.52706690060047"><ele>162.0</ele><time>2026-04-05T17:17:41Z</time></trkpt><trkpt lat="43.88416710045986" lon="11.526932684481475"><ele>161.66666666666666</ele><time>2026-04-05T17:17:42Z</time></trkpt><trkpt lat="43.884309996348534" lon="11.526787178174404"><ele>161.33333333333331</ele><time>2026-04-05T17:17:43Z</time></trkpt><trkpt lat="43.884457002451434" lon="11.526674197838066"><ele>161.0</ele><time>2026-04-05T17:17:44Z</time></trkpt><trkpt lat="43.88461058868787" lon="11.526577550795551"><ele>161.0</ele><time>2026-04-05T17:17:45Z</time></trkpt><trkpt lat="43.884776654473825" lon="11.526485952487167"><ele>161.0</ele><time>2026-04-05T17:17:46Z</time></trkpt><trkpt lat="43.88494763675948" lon="11.52640600642154"><ele>161.0</ele><time>2026-04-05T17:17:47Z</time></trkpt><trkpt lat="43.88512298075971" lon="11.526332064593657"><ele>163.66666666666666</ele><time>2026-04-05T17:17:48Z</time></trkpt><trkpt lat="43.8853001240754" lon="11.526262059827857"><ele>166.33333333333334</ele><time>2026-04-05T17:17:49Z</time></trkpt><trkpt lat="43.885480328760416" lon="11.526190886142198"><ele>169.0</ele><time>2026-04-05T17:17:50Z</time></trkpt><trkpt lat="43.88566065933415" lon="11.526119662608167"><ele>165.66666666666669</ele><time>2026-04-05T17:17:51Z</time></trkpt><trkpt lat="43.8858380005097" lon="11.526049620001567"><ele>162.33333333333334</ele><time>2026-04-05T17:17:52Z</time></trkpt><trkpt lat="43.8860339127825" lon="11.525972255176328"><ele>159.0</ele><time>2026-04-05T17:17:53Z</time></trkpt><trkpt lat="43.886219831811644" lon="11.525898839786748"><ele>159.0</ele><time>2026-04-05T17:17:54Z</time></trkpt><trkpt lat="43.88640267532949" lon="11.525830005884599"><ele>159.0</ele><time>2026-04-05T17:17:55Z</time></trkpt><trkpt lat="43.88657842943831" lon="11.52575300527566"><ele>159.0</ele><time>2026-04-05T17:17:56Z</time></trkpt><trkpt lat="43.88672621423125" lon="11.525719778912126"><ele>158.66666666666666</ele><time>2026-04-05T17:17:57Z</time></trkpt><trkpt lat="43.88688991260827" lon="11.525667008026916"><ele>158.33333333333331</ele><time>2026-04-05T17:17:58Z</time></trkpt><trkpt lat="43.88703013786302" lon="11.525632689247729"><ele>158.0</ele><time>2026-04-05T17:17:59Z</time></trkpt><trkpt lat="43.88717762032274" lon="11.525606403770189"><ele>158.0</ele><time>2026-04-05T17:18:00Z</time></trkpt><trkpt lat="43.887314072535865" lon="11.525580755710575"><ele>158.0</ele><time>2026-04-05T17:18:01Z</time></trkpt><trkpt lat="43.88744494129402" lon="11.525554599727771"><ele>158.0</ele><time>2026-04-05T17:18:02Z</time></trkpt><trkpt lat="43.88756411792652" lon="11.525529729967388"><ele>158.0</ele><time>2026-04-05T17:18:03Z</time></trkpt><trkpt lat="43.887687961543755" lon="11.525502779300727"><ele>157.8</ele><time>2026-04-05T17:18:04Z</time></trkpt><trkpt lat="43.88780600581358" lon="11.525474990933809"><ele>157.60000000000002</ele><time>2026-04-05T17:18:05Z</time></trkpt><trkpt lat="43.88791280114712" lon="11.525447174573182"><ele>157.39999999999998</ele><time>2026-04-05T17:18:06Z</time></trkpt><trkpt lat="43.88801087757931" lon="11.525419325644366"><ele>157.2</ele><time>2026-04-05T17:18:07Z</time></trkpt><trkpt lat="43.888105030424164" lon="11.525389602303981"><ele>157.0</ele><time>2026-04-05T17:18:08Z</time></trkpt><trkpt lat="43.88818489990565" lon="11.525338103401204"><ele>156.16666666666669</ele><time>2026-04-05T17:18:09Z</time></trkpt><trkpt lat="43.88826556420738" lon="11.525313978304569"><ele>155.33333333333334</ele><time>2026-04-05T17:18:10Z</time></trkpt><trkpt lat="43.888334551073854" lon="11.525302131169823"><ele>154.5</ele><time>2026-04-05T17:18:11Z</time></trkpt><trkpt lat="43.888439256339964" lon="11.525351118282865"><ele>153.66666666666666</ele><time>2026-04-05T17:18:13Z</time></trkpt><trkpt lat="43.88850857291249" lon="11.52535428616819"><ele>152.83333333333331</ele><time>2026-04-05T17:18:15Z</time></trkpt><trkpt lat="43.88858027889903" lon="11.52534100874215"><ele>152.0</ele><time>2026-04-05T17:23:44Z</time></trkpt><trkpt lat="43.88864800307408" lon="11.525327699444707"><ele>152.0</ele><time>2026-04-05T17:23:47Z</time></trkpt><trkpt lat="43.888659365896125" lon="11.525203451655049"><ele>152.0</ele><time>2026-04-05T17:23:50Z</time></trkpt><trkpt lat="43.88871432106461" lon="11.52509050453542"><ele>152.0</ele><time>2026-04-05T17:23:53Z</time></trkpt><trkpt lat="43.888774545980965" lon="11.52505317592153"><ele>152.0</ele><time>2026-04-05T17:23:54Z</time></trkpt><trkpt lat="43.888855047981814" lon="11.525020350062206"><ele>152.0</ele><time>2026-04-05T17:23:55Z</time></trkpt><trkpt lat="43.8889336955749" lon="11.524983966873386"><ele>152.0</ele><time>2026-04-05T17:23:56Z</time></trkpt><trkpt lat="43.889011756045186" lon="11.524933687270536"><ele>152.0</ele><time>2026-04-05T17:23:57Z</time></trkpt><trkpt lat="43.88909101764773" lon="11.52487546111598"><ele>152.0</ele><time>2026-04-05T17:23:58Z</time></trkpt><trkpt lat="43.88916928522438" lon="11.524802270731307"><ele>152.0</ele><time>2026-04-05T17:23:59Z</time></trkpt><trkpt lat="43.889254105225774" lon="11.524719674685858"><ele>152.0</ele><time>2026-04-05T17:24:00Z</time></trkpt><trkpt lat="43.889349313159585" lon="11.524627595709129"><ele>152.0</ele><time>2026-04-05T17:24:01Z</time></trkpt><trkpt lat="43.88943744651185" lon="11.524539993247947"><ele>152.4</ele><time>2026-04-05T17:24:02Z</time></trkpt><trkpt lat="43.88953574409159" lon="11.524448109149244"><ele>152.79999999999998</ele><time>2026-04-05T17:24:03Z</time></trkpt><trkpt lat="43.88962435982508" lon="11.524372901432757"><ele>153.2</ele><time>2026-04-05T17:24:04Z</time></trkpt><trkpt lat="43.889727421975884" lon="11.524323729970249"><ele>153.6</ele><time>2026-04-05T17:24:05Z</time></trkpt><trkpt lat="43.88983994953904" lon="11.52431582257439"><ele>154.0</ele><time>2026-04-05T17:24:06Z</time></trkpt><trkpt lat="43.88995787836937" lon="11.524367043702604"><ele>154.0</ele><time>2026-04-05T17:24:07Z</time></trkpt><trkpt lat="43.89008284470539" lon="11.524407894960195"><ele>154.0</ele><time>2026-04-05T17:24:08Z</time></trkpt><trkpt lat="43.890204701696554" lon="11.524438786541797"><ele>154.0</ele><time>2026-04-05T17:24:09Z</time></trkpt><trkpt lat="43.890325746571094" lon="11.524476342064387"><ele>154.0</ele><time>2026-04-05T17:24:10Z</time></trkpt><trkpt lat="43.89045386883651" lon="11.524518860973151"><ele>154.8</ele><time>2026-04-05T17:24:11Z</time></trkpt><trkpt lat="43.890574353584284" lon="11.524563675369807"><ele>155.60000000000002</ele><time>2026-04-05T17:24:12Z</time></trkpt><trkpt lat="43.89068840764701" lon="11.524605546092044"><ele>156.4</ele><time>2026-04-05T17:24:13Z</time></trkpt><trkpt lat="43.89078497149377" lon="11.524640883640034"><ele>157.20000000000002</ele><time>2026-04-05T17:24:14Z</time></trkpt><trkpt lat="43.89087559093103" lon="11.524675483660163"><ele>158.0</ele><time>2026-04-05T17:24:15Z</time></trkpt><trkpt lat="43.89095032497285" lon="11.524697537019506"><ele>159.33333333333331</ele><time>2026-04-05T17:24:16Z</time></trkpt><trkpt lat="43.89101861841357" lon="11.524709040401193"><ele>160.66666666666666</ele><time>2026-04-05T17:24:17Z</time></trkpt><trkpt lat="43.891122183464134" lon="11.524712786647422"><ele>162.0</ele><time>2026-04-05T17:24:19Z</time></trkpt><trkpt lat="43.89118285077933" lon="11.524811147011329"><ele>163.33333333333334</ele><time>2026-04-05T17:24:21Z</time></trkpt><trkpt lat="43.89121425447194" lon="11.52489985269315"><ele>164.66666666666669</ele><time>2026-04-05T17:24:22Z</time></trkpt><trkpt lat="43.891244156593885" lon="11.52500847310302"><ele>166.0</ele><time>2026-04-05T17:24:23Z</time></trkpt><trkpt lat="43.89127703959208" lon="11.52512753866118"><ele>166.0</ele><time>2026-04-05T17:24:24Z</time></trkpt><trkpt lat="43.891324848479265" lon="11.52527769230541"><ele>166.0</ele><time>2026-04-05T17:24:25Z</time></trkpt><trkpt lat="43.89136003013232" lon="11.525413844726755"><ele>166.0</ele><time>2026-04-05T17:24:26Z</time></trkpt><trkpt lat="43.891400674339664" lon="11.525559978804315"><ele>166.0</ele><time>2026-04-05T17:24:27Z</time></trkpt><trkpt lat="43.89143557569221" lon="11.525721651702689"><ele>165.8</ele><time>2026-04-05T17:24:28Z</time></trkpt><trkpt lat="43.891496498619865" lon="11.525864602290309"><ele>165.60000000000002</ele><time>2026-04-05T17:24:29Z</time></trkpt><trkpt lat="43.89154228396982" lon="11.52598796549828"><ele>165.4</ele><time>2026-04-05T17:24:30Z</time></trkpt><trkpt lat="43.89159901119035" lon="11.52611348134766"><ele>165.2</ele><time>2026-04-05T17:24:31Z</time></trkpt><trkpt lat="43.89167685942972" lon="11.526227558778"><ele>165.0</ele><time>2026-04-05T17:24:32Z</time></trkpt><trkpt lat="43.891742911559184" lon="11.526349583894635"><ele>167.8</ele><time>2026-04-05T17:24:33Z</time></trkpt><trkpt lat="43.89181527529962" lon="11.526458131854532"><ele>170.6</ele><time>2026-04-05T17:24:34Z</time></trkpt><trkpt lat="43.89187108751656" lon="11.526573534079482"><ele>173.39999999999998</ele><time>2026-04-05T17:24:35Z</time></trkpt><trkpt lat="43.89193334530228" lon="11.526695224672212"><ele>176.2</ele><time>2026-04-05T17:24:36Z</time></trkpt><trkpt lat="43.892000913435396" lon="11.5268336948126"><ele>179.0</ele><time>2026-04-05T17:24:37Z</time></trkpt><trkpt lat="43.89205157390803" lon="11.526993554121889"><ele>178.75</ele><time>2026-04-05T17:24:38Z</time></trkpt><trkpt lat="43.89207018753451" lon="11.527189631656576"><ele>178.5</ele><time>2026-04-05T17:24:39Z</time></trkpt><trkpt lat="43.89211568763721" lon="11.527385823448114"><ele>178.25</ele><time>2026-04-05T17:24:40Z</time></trkpt><trkpt lat="43.892148464037874" lon="11.527527151955313"><ele>178.0</ele><time>2026-04-05T17:24:41Z</time></trkpt><trkpt lat="43.89218619688617" lon="11.527692820305573"><ele>178.0</ele><time>2026-04-05T17:24:42Z</time></trkpt><trkpt lat="43.89221980665704" lon="11.527856258610766"><ele>178.0</ele><time>2026-04-05T17:24:43Z</time></trkpt><trkpt lat="43.892249777002085" lon="11.528033587615832"><ele>178.0</ele><time>2026-04-05T17:24:43.999Z</time></trkpt><trkpt lat="43.89227602987958" lon="11.528213516642648"><ele>178.0</ele><time>2026-04-05T17:24:44.999Z</time></trkpt><trkpt lat="43.892301431852665" lon="11.528399805610153"><ele>177.0</ele><time>2026-04-05T17:24:45.999Z</time></trkpt><trkpt lat="43.89232081535869" lon="11.528574112632684"><ele>176.0</ele><time>2026-04-05T17:24:46.999Z</time></trkpt><trkpt lat="43.89233341787923" lon="11.528753126909352"><ele>175.0</ele><time>2026-04-05T17:24:47.999Z</time></trkpt><trkpt lat="43.89234166414941" lon="11.528934250846264"><ele>174.0</ele><time>2026-04-05T17:24:48.999Z</time></trkpt><trkpt lat="43.89234879104735" lon="11.529120020948007"><ele>173.25</ele><time>2026-04-05T17:24:49.999Z</time></trkpt><trkpt lat="43.89235598867177" lon="11.52930763452919"><ele>172.5</ele><time>2026-04-05T17:24:50.999Z</time></trkpt><trkpt lat="43.8923624000421" lon="11.529493112612844"><ele>171.75</ele><time>2026-04-05T17:24:51.999Z</time></trkpt><trkpt lat="43.89236254600234" lon="11.529684514666917"><ele>171.0</ele><time>2026-04-05T17:24:52.999Z</time></trkpt><trkpt lat="43.89235984453613" lon="11.529878078184732"><ele>170.75</ele><time>2026-04-05T17:24:53.999Z</time></trkpt><trkpt lat="43.8923558087056" lon="11.530068323488315"><ele>170.5</ele><time>2026-04-05T17:24:54.999Z</time></trkpt><trkpt lat="43.892351089013275" lon="11.53025602611865"><ele>170.25</ele><time>2026-04-05T17:24:55.999Z</time></trkpt><trkpt lat="43.89234709894246" lon="11.530435608953267"><ele>170.0</ele><time>2026-04-05T17:24:56.999Z</time></trkpt><trkpt lat="43.89234397055148" lon="11.530621813329484"><ele>169.75</ele><time>2026-04-05T17:24:57.999Z</time></trkpt><trkpt lat="43.89233812914924" lon="11.530800917907284"><ele>169.5</ele><time>2026-04-05T17:24:58.999Z</time></trkpt><trkpt lat="43.89232696240671" lon="11.530983365180994"><ele>169.25</ele><time>2026-04-05T17:24:59.999Z</time></trkpt><trkpt lat="43.89230664034895" lon="11.531170487220745"><ele>169.0</ele><time>2026-04-05T17:25:00.999Z</time></trkpt><trkpt lat="43.89228750662475" lon="11.531362798141856"><ele>169.0</ele><time>2026-04-05T17:25:01.999Z</time></trkpt><trkpt lat="43.89226571781586" lon="11.53156323848614"><ele>169.0</ele><time>2026-04-05T17:25:02.999Z</time></trkpt><trkpt lat="43.89224439614205" lon="11.53175938164464"><ele>169.0</ele><time>2026-04-05T17:25:03.999Z</time></trkpt><trkpt lat="43.892228115918556" lon="11.531934656478954"><ele>169.0</ele><time>2026-04-05T17:25:04.999Z</time></trkpt><trkpt lat="43.89222050572036" lon="11.532100828008804"><ele>169.0</ele><time>2026-04-05T17:25:05.999Z</time></trkpt><trkpt lat="43.892236138531736" lon="11.532270463596745"><ele>169.0</ele><time>2026-04-05T17:25:06.999Z</time></trkpt><trkpt lat="43.89230629534815" lon="11.532443609677932"><ele>169.0</ele><time>2026-04-05T17:25:07.999Z</time></trkpt><trkpt lat="43.89238404265892" lon="11.532616526481508"><ele>169.0</ele><time>2026-04-05T17:25:08.999Z</time></trkpt><trkpt lat="43.892463117271426" lon="11.532798034939761"><ele>168.66666666666669</ele><time>2026-04-05T17:25:09.999Z</time></trkpt><trkpt lat="43.89254165963871" lon="11.532986923986998"><ele>168.33333333333334</ele><time>2026-04-05T17:25:10.999Z</time></trkpt><trkpt lat="43.89261694912488" lon="11.533169622178729"><ele>168.0</ele><time>2026-04-05T17:25:11.999Z</time></trkpt><trkpt lat="43.89268887529809" lon="11.533354420767315"><ele>174.33333333333334</ele><time>2026-04-05T17:25:12.999Z</time></trkpt><trkpt lat="43.89274108956494" lon="11.53354731125255"><ele>180.66666666666669</ele><time>2026-04-05T17:25:13.999Z</time></trkpt><trkpt lat="43.89276843068242" lon="11.533752618335402"><ele>187.0</ele><time>2026-04-05T17:25:14.999Z</time></trkpt><trkpt lat="43.89278208015025" lon="11.533970313971851"><ele>187.0</ele><time>2026-04-05T17:25:15.999Z</time></trkpt><trkpt lat="43.89279399864666" lon="11.534216289731624"><ele>187.0</ele><time>2026-04-05T17:25:16.999Z</time></trkpt><trkpt lat="43.89280535554742" lon="11.5344481518481"><ele>187.0</ele><time>2026-04-05T17:25:17.999Z</time></trkpt><trkpt lat="43.89283114301569" lon="11.534672515155169"><ele>185.0</ele><time>2026-04-05T17:25:18.999Z</time></trkpt><trkpt lat="43.89285078963683" lon="11.534895290844664"><ele>183.0</ele><time>2026-04-05T17:25:19.999Z</time></trkpt><trkpt lat="43.89287802088426" lon="11.53511195657004"><ele>181.0</ele><time>2026-04-05T17:25:20.999Z</time></trkpt><trkpt lat="43.892959928658335" lon="11.53530966452563"><ele>179.0</ele><time>2026-04-05T17:25:21.999Z</time></trkpt><trkpt lat="43.89304020597265" lon="11.535504598577035"><ele>177.0</ele><time>2026-04-05T17:25:22.999Z</time></trkpt><trkpt lat="43.89309994366833" lon="11.535697417840419"><ele>175.0</ele><time>2026-04-05T17:25:23.999Z</time></trkpt><trkpt lat="43.89318392447153" lon="11.535893011140525"><ele>175.0</ele><time>2026-04-05T17:25:24.999Z</time></trkpt><trkpt lat="43.893252317451086" lon="11.53605453026603"><ele>175.0</ele><time>2026-04-05T17:25:25.999Z</time></trkpt><trkpt lat="43.89333731310602" lon="11.536191964969868"><ele>175.0</ele><time>2026-04-05T17:25:26.999Z</time></trkpt><trkpt lat="43.893452422357036" lon="11.536297144704076"><ele>175.0</ele><time>2026-04-05T17:25:27.999Z</time></trkpt><trkpt lat="43.89359266773131" lon="11.536378886387354"><ele>176.25</ele><time>2026-04-05T17:25:28.999Z</time></trkpt><trkpt lat="43.89372498530464" lon="11.536491651368287"><ele>177.5</ele><time>2026-04-05T17:25:29.999Z</time></trkpt><trkpt lat="43.89384272746205" lon="11.53658095444331"><ele>178.75</ele><time>2026-04-05T17:25:30.999Z</time></trkpt><trkpt lat="43.89394221148891" lon="11.536688245241228"><ele>180.0</ele><time>2026-04-05T17:25:31.999Z</time></trkpt><trkpt lat="43.894002018230864" lon="11.536844389021107"><ele>180.0</ele><time>2026-04-05T17:25:32.999Z</time></trkpt><trkpt lat="43.894042459799806" lon="11.537037106279078"><ele>180.0</ele><time>2026-04-05T17:25:33.999Z</time></trkpt><trkpt lat="43.89409006933763" lon="11.537255465570098"><ele>180.0</ele><time>2026-04-05T17:25:34.999Z</time></trkpt><trkpt lat="43.894151188064086" lon="11.537489120330228"><ele>179.66666666666666</ele><time>2026-04-05T17:25:35.999Z</time></trkpt><trkpt lat="43.894203438283185" lon="11.537736079008258"><ele>179.33333333333331</ele><time>2026-04-05T17:25:36.999Z</time></trkpt><trkpt lat="43.89426236761398" lon="11.53799628064047"><ele>179.0</ele><time>2026-04-05T17:25:37.999Z</time></trkpt><trkpt lat="43.89432164070232" lon="11.538263475891068"><ele>183.66666666666666</ele><time>2026-04-05T17:25:39Z</time></trkpt><trkpt lat="43.894381434478376" lon="11.538545527490257"><ele>188.33333333333331</ele><time>2026-04-05T17:25:40Z</time></trkpt><trkpt lat="43.89444474398975" lon="11.538833988871753"><ele>193.0</ele><time>2026-04-05T17:25:41Z</time></trkpt><trkpt lat="43.8945106677563" lon="11.5391281566392"><ele>193.0</ele><time>2026-04-05T17:25:42Z</time></trkpt><trkpt lat="43.89457053241301" lon="11.539418549476798"><ele>193.0</ele><time>2026-04-05T17:25:43Z</time></trkpt><trkpt lat="43.89460664010158" lon="11.53972045128621"><ele>193.0</ele><time>2026-04-05T17:25:44Z</time></trkpt><trkpt lat="43.89464526238008" lon="11.540035849591868"><ele>194.5</ele><time>2026-04-05T17:25:45Z</time></trkpt><trkpt lat="43.89469740077501" lon="11.540353121988392"><ele>196.0</ele><time>2026-04-05T17:25:46Z</time></trkpt><trkpt lat="43.89473199023185" lon="11.540670735826101"><ele>196.0</ele><time>2026-04-05T17:25:47Z</time></trkpt><trkpt lat="43.89476231125346" lon="11.540985707559534"><ele>196.0</ele><time>2026-04-05T17:25:48Z</time></trkpt><trkpt lat="43.894794734749524" lon="11.541290713633868"><ele>195.0</ele><time>2026-04-05T17:25:49Z</time></trkpt><trkpt lat="43.89482354991003" lon="11.541583594233535"><ele>194.0</ele><time>2026-04-05T17:25:50Z</time></trkpt><trkpt lat="43.8948503579797" lon="11.541861296212899"><ele>193.0</ele><time>2026-04-05T17:25:51Z</time></trkpt><trkpt lat="43.89487790296789" lon="11.54212540081662"><ele>192.33333333333331</ele><time>2026-04-05T17:25:52Z</time></trkpt><trkpt lat="43.89489900981755" lon="11.542374832781377"><ele>191.66666666666666</ele><time>2026-04-05T17:25:53Z</time></trkpt><trkpt lat="43.89498116011427" lon="11.542600189897014"><ele>191.0</ele><time>2026-04-05T17:25:54Z</time></trkpt><trkpt lat="43.89506349334639" lon="11.542831262478389"><ele>196.33333333333331</ele><time>2026-04-05T17:25:55Z</time></trkpt><trkpt lat="43.89515372701331" lon="11.54308437060371"><ele>201.66666666666666</ele><time>2026-04-05T17:25:56Z</time></trkpt><trkpt lat="43.89523410454452" lon="11.54331185690646"><ele>207.0</ele><time>2026-04-05T17:25:57Z</time></trkpt><trkpt lat="43.895321505774014" lon="11.543523621317926"><ele>207.0</ele><time>2026-04-05T17:25:58Z</time></trkpt><trkpt lat="43.89542000002674" lon="11.543706054307997"><ele>207.0</ele><time>2026-04-05T17:25:59Z</time></trkpt><trkpt lat="43.89553324492236" lon="11.543861124801"><ele>207.0</ele><time>2026-04-05T17:26:00Z</time></trkpt><trkpt lat="43.89564569089971" lon="11.543989326322698"><ele>207.5</ele><time>2026-04-05T17:26:01Z</time></trkpt><trkpt lat="43.89576565531165" lon="11.544089511193203"><ele>208.0</ele><time>2026-04-05T17:26:02Z</time></trkpt><trkpt lat="43.895896158055194" lon="11.544151423165614"><ele>208.5</ele><time>2026-04-05T17:26:03Z</time></trkpt><trkpt lat="43.896031869937964" lon="11.544212197927385"><ele>209.0</ele><time>2026-04-05T17:26:04Z</time></trkpt><trkpt lat="43.89616757563469" lon="11.544309582970254"><ele>209.0</ele><time>2026-04-05T17:26:05Z</time></trkpt><trkpt lat="43.89630151135157" lon="11.544389252331152"><ele>209.0</ele><time>2026-04-05T17:26:06Z</time></trkpt><trkpt lat="43.89641756179864" lon="11.544476132851788"><ele>209.0</ele><time>2026-04-05T17:26:07Z</time></trkpt><trkpt lat="43.89650413857369" lon="11.544593423429266"><ele>209.0</ele><time>2026-04-05T17:26:08Z</time></trkpt><trkpt lat="43.89657308646915" lon="11.544740491623413"><ele>210.0</ele><time>2026-04-05T17:26:09Z</time></trkpt><trkpt lat="43.89663088726179" lon="11.54491855043606"><ele>211.0</ele><time>2026-04-05T17:26:10Z</time></trkpt><trkpt lat="43.89668651543187" lon="11.545112912038261"><ele>212.0</ele><time>2026-04-05T17:26:11Z</time></trkpt><trkpt lat="43.89674476834261" lon="11.545312975985548"><ele>213.0</ele><time>2026-04-05T17:26:12Z</time></trkpt><trkpt lat="43.896812236589966" lon="11.545525461293536"><ele>213.0</ele><time>2026-04-05T17:26:13Z</time></trkpt><trkpt lat="43.89688381339944" lon="11.545748692314938"><ele>213.0</ele><time>2026-04-05T17:26:14Z</time></trkpt><trkpt lat="43.89695865349776" lon="11.545981011907871"><ele>213.0</ele><time>2026-04-05T17:26:15Z</time></trkpt><trkpt lat="43.897036622043686" lon="11.54621886344527"><ele>210.0</ele><time>2026-04-05T17:26:16Z</time></trkpt><trkpt lat="43.89712916982058" lon="11.546443307578961"><ele>207.0</ele><time>2026-04-05T17:26:17Z</time></trkpt><trkpt lat="43.897213858016585" lon="11.54669772911049"><ele>204.0</ele><time>2026-04-05T17:26:18Z</time></trkpt><trkpt lat="43.89730080280413" lon="11.54694479584373"><ele>201.33333333333331</ele><time>2026-04-05T17:26:19Z</time></trkpt><trkpt lat="43.89738139715072" lon="11.547177593170826"><ele>198.66666666666666</ele><time>2026-04-05T17:26:20Z</time></trkpt><trkpt lat="43.89745720603728" lon="11.547397454031302"><ele>196.0</ele><time>2026-04-05T17:26:21Z</time></trkpt><trkpt lat="43.89753318638828" lon="11.547608950406204"><ele>199.66666666666666</ele><time>2026-04-05T17:26:22Z</time></trkpt><trkpt lat="43.89761125693332" lon="11.547807158022351"><ele>203.33333333333331</ele><time>2026-04-05T17:26:23Z</time></trkpt><trkpt lat="43.897719461207764" lon="11.547979595366389"><ele>207.0</ele><time>2026-04-05T17:26:24Z</time></trkpt><trkpt lat="43.89786097322233" lon="11.548125219237312"><ele>207.0</ele><time>2026-04-05T17:26:25Z</time></trkpt><trkpt lat="43.89801643537916" lon="11.548212521429287"><ele>207.0</ele><time>2026-04-05T17:26:26Z</time></trkpt><trkpt lat="43.8981856633611" lon="11.548257055657674"><ele>207.0</ele><time>2026-04-05T17:26:27Z</time></trkpt><trkpt lat="43.898369472494046" lon="11.548277926758637"><ele>208.33333333333331</ele><time>2026-04-05T17:26:28Z</time></trkpt><trkpt lat="43.89855666425051" lon="11.548339344347015"><ele>209.66666666666666</ele><time>2026-04-05T17:26:29Z</time></trkpt><trkpt lat="43.89873431193805" lon="11.548388594385154"><ele>211.0</ele><time>2026-04-05T17:26:30Z</time></trkpt><trkpt lat="43.898922587523835" lon="11.548497447366424"><ele>211.0</ele><time>2026-04-05T17:26:31Z</time></trkpt><trkpt lat="43.89909517724291" lon="11.548645724148379"><ele>211.0</ele><time>2026-04-05T17:26:32Z</time></trkpt><trkpt lat="43.89925954364276" lon="11.548834879779205"><ele>211.0</ele><time>2026-04-05T17:26:33Z</time></trkpt><trkpt lat="43.89941940020088" lon="11.54904522426471"><ele>202.0</ele><time>2026-04-05T17:26:34Z</time></trkpt><trkpt lat="43.89958902169158" lon="11.54925737730429"><ele>193.0</ele><time>2026-04-05T17:26:35Z</time></trkpt><trkpt lat="43.899759602666805" lon="11.549470643132853"><ele>194.33333333333331</ele><time>2026-04-05T17:26:35.999Z</time></trkpt><trkpt lat="43.89991737373998" lon="11.549670871745755"><ele>195.66666666666669</ele><time>2026-04-05T17:26:36.999Z</time></trkpt><trkpt lat="43.9000670403547" lon="11.549866538418328"><ele>197.0</ele><time>2026-04-05T17:26:37.999Z</time></trkpt><trkpt lat="43.90019233584553" lon="11.550073477173681"><ele>197.33333333333334</ele><time>2026-04-05T17:26:38.999Z</time></trkpt><trkpt lat="43.900289595267395" lon="11.550304982583103"><ele>197.66666666666669</ele><time>2026-04-05T17:26:39.999Z</time></trkpt><trkpt lat="43.900386557011764" lon="11.55056724689667"><ele>198.0</ele><time>2026-04-05T17:26:40.999Z</time></trkpt><trkpt lat="43.90045647835141" lon="11.550838229460332"><ele>198.66666666666669</ele><time>2026-04-05T17:26:41.999Z</time></trkpt><trkpt lat="43.90053078388713" lon="11.551085612824814"><ele>199.33333333333334</ele><time>2026-04-05T17:26:42.999Z</time></trkpt><trkpt lat="43.90059897740007" lon="11.551311951668197"><ele>200.0</ele><time>2026-04-05T17:26:43.999Z</time></trkpt><trkpt lat="43.900737774457866" lon="11.551495065571768"><ele>200.0</ele><time>2026-04-05T17:26:44.999Z</time></trkpt><trkpt lat="43.90088400241706" lon="11.551689308121945"><ele>200.0</ele><time>2026-04-05T17:26:45.999Z</time></trkpt><trkpt lat="43.90103371838573" lon="11.55187802852379"><ele>200.0</ele><time>2026-04-05T17:26:46.999Z</time></trkpt><trkpt lat="43.90116658805192" lon="11.552087069798107"><ele>201.0</ele><time>2026-04-05T17:26:47.999Z</time></trkpt><trkpt lat="43.901324521162444" lon="11.552263267067822"><ele>202.0</ele><time>2026-04-05T17:26:48.999Z</time></trkpt><trkpt lat="43.90148432603947" lon="11.552428316114227"><ele>203.0</ele><time>2026-04-05T17:26:49.999Z</time></trkpt><trkpt lat="43.90164445771878" lon="11.552546544485878"><ele>201.33333333333334</ele><time>2026-04-05T17:26:50.999Z</time></trkpt><trkpt lat="43.901784712881444" lon="11.552683074868517"><ele>199.66666666666669</ele><time>2026-04-05T17:26:51.999Z</time></trkpt><trkpt lat="43.90191980822925" lon="11.552792579878693"><ele>198.0</ele><time>2026-04-05T17:26:52.999Z</time></trkpt><trkpt lat="43.90203800017381" lon="11.552888383394354"><ele>200.2</ele><time>2026-04-05T17:26:53.999Z</time></trkpt><trkpt lat="43.90213867211036" lon="11.5529699856543"><ele>202.4</ele><time>2026-04-05T17:26:54.999Z</time></trkpt><trkpt lat="43.90222750576462" lon="11.553041992050908"><ele>204.6</ele><time>2026-04-05T17:26:55.999Z</time></trkpt><trkpt lat="43.902312370817796" lon="11.55311078158066"><ele>206.79999999999998</ele><time>2026-04-05T17:26:56.999Z</time></trkpt><trkpt lat="43.90240772276121" lon="11.553188071609004"><ele>209.0</ele><time>2026-04-05T17:26:57.999Z</time></trkpt><trkpt lat="43.902505359242" lon="11.553263224000736"><ele>208.0</ele><time>2026-04-05T17:26:58.999Z</time></trkpt><trkpt lat="43.90260998442286" lon="11.553321703168503"><ele>207.0</ele><time>2026-04-05T17:26:59.999Z</time></trkpt><trkpt lat="43.90274874003928" lon="11.553362087267999"><ele>206.0</ele><time>2026-04-05T17:27:00.999Z</time></trkpt><trkpt lat="43.902900666372176" lon="11.553387532389884"><ele>205.0</ele><time>2026-04-05T17:27:01.999Z</time></trkpt><trkpt lat="43.903064952721245" lon="11.55341312265931"><ele>205.0</ele><time>2026-04-05T17:27:02.999Z</time></trkpt><trkpt lat="43.903228129435384" lon="11.55343946640027"><ele>205.0</ele><time>2026-04-05T17:27:03.999Z</time></trkpt><trkpt lat="43.90340138175673" lon="11.553468533103127"><ele>205.0</ele><time>2026-04-05T17:27:04.999Z</time></trkpt><trkpt lat="43.9035788960496" lon="11.553499521084827"><ele>206.0</ele><time>2026-04-05T17:27:05.999Z</time></trkpt><trkpt lat="43.903741335629284" lon="11.55352774087654"><ele>207.0</ele><time>2026-04-05T17:27:06.999Z</time></trkpt><trkpt lat="43.90391816768575" lon="11.553558414634022"><ele>208.0</ele><time>2026-04-05T17:27:07.999Z</time></trkpt><trkpt lat="43.90408818252535" lon="11.553566623099123"><ele>208.33333333333331</ele><time>2026-04-05T17:27:08.999Z</time></trkpt><trkpt lat="43.90425038283896" lon="11.553600919054103"><ele>208.66666666666669</ele><time>2026-04-05T17:27:09.999Z</time></trkpt><trkpt lat="43.904415341774076" lon="11.553622905593311"><ele>209.0</ele><time>2026-04-05T17:27:10.999Z</time></trkpt><trkpt lat="43.90457010716016" lon="11.553672835659118"><ele>209.0</ele><time>2026-04-05T17:27:11.999Z</time></trkpt><trkpt lat="43.904721355082934" lon="11.55369975417212"><ele>209.0</ele><time>2026-04-05T17:27:12.999Z</time></trkpt><trkpt lat="43.90486768858467" lon="11.553730725189114"><ele>209.0</ele><time>2026-04-05T17:27:13.999Z</time></trkpt><trkpt lat="43.905003222156445" lon="11.553785611430955"><ele>209.0</ele><time>2026-04-05T17:27:14.999Z</time></trkpt><trkpt lat="43.90512766089326" lon="11.553876927322408"><ele>209.0</ele><time>2026-04-05T17:27:15.999Z</time></trkpt><trkpt lat="43.90526248015888" lon="11.553990057639083"><ele>209.0</ele><time>2026-04-05T17:27:16.999Z</time></trkpt><trkpt lat="43.90538659180057" lon="11.554094952801243"><ele>209.0</ele><time>2026-04-05T17:27:17.999Z</time></trkpt><trkpt lat="43.90550073987112" lon="11.554206876611826"><ele>209.0</ele><time>2026-04-05T17:27:18.999Z</time></trkpt><trkpt lat="43.90561330835755" lon="11.554350369555847"><ele>209.0</ele><time>2026-04-05T17:27:19.999Z</time></trkpt><trkpt lat="43.9057392986657" lon="11.55451844841417"><ele>209.0</ele><time>2026-04-05T17:27:20.999Z</time></trkpt><trkpt lat="43.90586862970874" lon="11.554692247706933"><ele>209.0</ele><time>2026-04-05T17:27:21.999Z</time></trkpt><trkpt lat="43.905990768666506" lon="11.554856384231137"><ele>209.66666666666669</ele><time>2026-04-05T17:27:22.999Z</time></trkpt><trkpt lat="43.90610960529112" lon="11.555016082912388"><ele>210.33333333333331</ele><time>2026-04-05T17:27:23.999Z</time></trkpt><trkpt lat="43.9062342271662" lon="11.555140017493356"><ele>211.0</ele><time>2026-04-05T17:27:24.999Z</time></trkpt><trkpt lat="43.906340706984025" lon="11.555287073283068"><ele>211.5</ele><time>2026-04-05T17:27:25.999Z</time></trkpt><trkpt lat="43.906445688672726" lon="11.555436196122036"><ele>212.0</ele><time>2026-04-05T17:27:26.999Z</time></trkpt><trkpt lat="43.906554383151104" lon="11.555579453524816"><ele>212.5</ele><time>2026-04-05T17:27:27.999Z</time></trkpt><trkpt lat="43.90665950990159" lon="11.555715100717858"><ele>213.0</ele><time>2026-04-05T17:27:28.999Z</time></trkpt><trkpt lat="43.90675214456909" lon="11.555859818661727"><ele>213.0</ele><time>2026-04-05T17:27:29.999Z</time></trkpt><trkpt lat="43.906851330273824" lon="11.555999551284474"><ele>213.0</ele><time>2026-04-05T17:27:30.999Z</time></trkpt><trkpt lat="43.90695484655765" lon="11.556142201616636"><ele>213.0</ele><time>2026-04-05T17:27:31.999Z</time></trkpt><trkpt lat="43.907063435692656" lon="11.556280844500654"><ele>213.0</ele><time>2026-04-05T17:27:32.999Z</time></trkpt><trkpt lat="43.90716873889277" lon="11.556414729292493"><ele>213.5</ele><time>2026-04-05T17:27:33.999Z</time></trkpt><trkpt lat="43.90729634942657" lon="11.556516986664654"><ele>214.0</ele><time>2026-04-05T17:27:34.999Z</time></trkpt><trkpt lat="43.907438718443416" lon="11.556575566263772"><ele>214.5</ele><time>2026-04-05T17:27:35.999Z</time></trkpt><trkpt lat="43.907569524405325" lon="11.556567423219835"><ele>215.0</ele><time>2026-04-05T17:27:36.999Z</time></trkpt><trkpt lat="43.90767876616866" lon="11.55654359392128"><ele>216.4</ele><time>2026-04-05T17:27:37.999Z</time></trkpt><trkpt lat="43.90777919639465" lon="11.556514152619737"><ele>217.8</ele><time>2026-04-05T17:27:38.999Z</time></trkpt><trkpt lat="43.90787449866285" lon="11.5564895240009"><ele>219.2</ele><time>2026-04-05T17:27:39.999Z</time></trkpt><trkpt lat="43.90796843716962" lon="11.55649963976731"><ele>220.6</ele><time>2026-04-05T17:27:40.999Z</time></trkpt><trkpt lat="43.90805134824474" lon="11.556559708722778"><ele>222.0</ele><time>2026-04-05T17:27:41.999Z</time></trkpt><trkpt lat="43.90811243783026" lon="11.556668407333666"><ele>222.0</ele><time>2026-04-05T17:27:42.999Z</time></trkpt><trkpt lat="43.90816417598713" lon="11.556810502680998"><ele>222.0</ele><time>2026-04-05T17:27:43.999Z</time></trkpt><trkpt lat="43.90822413755968" lon="11.556970041258591"><ele>222.0</ele><time>2026-04-05T17:27:45Z</time></trkpt><trkpt lat="43.90829676325937" lon="11.557126337330105"><ele>222.0</ele><time>2026-04-05T17:27:46Z</time></trkpt><trkpt lat="43.9083777896848" lon="11.557280310333287"><ele>223.25</ele><time>2026-04-05T17:27:47Z</time></trkpt><trkpt lat="43.90845720863127" lon="11.557429122754236"><ele>224.5</ele><time>2026-04-05T17:27:48Z</time></trkpt><trkpt lat="43.908530508750424" lon="11.55756734721547"><ele>225.75</ele><time>2026-04-05T17:27:49Z</time></trkpt><trkpt lat="43.9085972382408" lon="11.557700589892073"><ele>227.0</ele><time>2026-04-05T17:27:50Z</time></trkpt><trkpt lat="43.908671188986624" lon="11.55781946074461"><ele>227.0</ele><time>2026-04-05T17:27:51Z</time></trkpt><trkpt lat="43.90876790391914" lon="11.557895046003114"><ele>227.0</ele><time>2026-04-05T17:27:52Z</time></trkpt><trkpt lat="43.90888157379973" lon="11.557924068986706"><ele>227.0</ele><time>2026-04-05T17:27:53Z</time></trkpt><trkpt lat="43.90900027246821" lon="11.557912563316046"><ele>227.0</ele><time>2026-04-05T17:27:54Z</time></trkpt><trkpt lat="43.90911225248036" lon="11.557860157457961"><ele>227.0</ele><time>2026-04-05T17:27:55Z</time></trkpt><trkpt lat="43.909215150894944" lon="11.557802531474895"><ele>227.0</ele><time>2026-04-05T17:27:56Z</time></trkpt><trkpt lat="43.909321766095445" lon="11.557756646663965"><ele>227.0</ele><time>2026-04-05T17:27:57Z</time></trkpt><trkpt lat="43.90943508984033" lon="11.55774418576512"><ele>227.0</ele><time>2026-04-05T17:27:58Z</time></trkpt><trkpt lat="43.90955533770124" lon="11.55776333535453"><ele>226.0</ele><time>2026-04-05T17:27:59Z</time></trkpt><trkpt lat="43.90967792161952" lon="11.557818204771806"><ele>225.0</ele><time>2026-04-05T17:28:00Z</time></trkpt><trkpt lat="43.909790141879085" lon="11.55787737405991"><ele>224.0</ele><time>2026-04-05T17:28:01Z</time></trkpt><trkpt lat="43.909905844004506" lon="11.55794742261755"><ele>223.0</ele><time>2026-04-05T17:28:02Z</time></trkpt><trkpt lat="43.91001045494077" lon="11.558035147777852"><ele>229.60000000000002</ele><time>2026-04-05T17:28:03Z</time></trkpt><trkpt lat="43.9100999089472" lon="11.558128721648995"><ele>236.20000000000002</ele><time>2026-04-05T17:28:04Z</time></trkpt><trkpt lat="43.91017992736878" lon="11.558222240718932"><ele>242.8</ele><time>2026-04-05T17:28:05Z</time></trkpt><trkpt lat="43.91025065979878" lon="11.558309103808014"><ele>249.4</ele><time>2026-04-05T17:28:06Z</time></trkpt><trkpt lat="43.91031031400475" lon="11.558376947634383"><ele>256.0</ele><time>2026-04-05T17:28:07Z</time></trkpt><trkpt lat="43.91036076300981" lon="11.558438751827305"><ele>255.99999999999997</ele><time>2026-04-05T17:28:08Z</time></trkpt><trkpt lat="43.910399836436255" lon="11.558512962275696"><ele>256.0</ele><time>2026-04-05T17:28:09Z</time></trkpt><trkpt lat="43.910456596795" lon="11.558639480315245"><ele>256.0</ele><time>2026-04-05T17:28:11Z</time></trkpt><trkpt lat="43.91049720611767" lon="11.558707725564965"><ele>256.0</ele><time>2026-04-05T17:28:13Z</time></trkpt><trkpt lat="43.91054366755613" lon="11.558796562460058"><ele>255.99999999999997</ele><time>2026-04-05T17:28:16Z</time></trkpt><trkpt lat="43.91058825126077" lon="11.558911147960165"><ele>256.0</ele><time>2026-04-05T17:28:46.999Z</time></trkpt><trkpt lat="43.910649011953275" lon="11.559040147079111"><ele>252.0</ele><time>2026-04-05T17:28:48.999Z</time></trkpt><trkpt lat="43.91069085463116" lon="11.559125797819965"><ele>248.00000000000003</ele><time>2026-04-05T17:28:49.999Z</time></trkpt><trkpt lat="43.91073740761396" lon="11.55922852104153"><ele>244.00000000000003</ele><time>2026-04-05T17:28:50.999Z</time></trkpt><trkpt lat="43.910782357024985" lon="11.559347724860144"><ele>240.0</ele><time>2026-04-05T17:28:51.999Z</time></trkpt><trkpt lat="43.91082743061438" lon="11.559472525348674"><ele>236.0</ele><time>2026-04-05T17:28:52.999Z</time></trkpt><trkpt lat="43.9108668607064" lon="11.55958640565558"><ele>235.0</ele><time>2026-04-05T17:28:53.999Z</time></trkpt><trkpt lat="43.910899562443596" lon="11.559711729210767"><ele>234.00000000000003</ele><time>2026-04-05T17:28:54.999Z</time></trkpt><trkpt lat="43.91093251257078" lon="11.559842373499917"><ele>233.00000000000003</ele><time>2026-04-05T17:28:55.999Z</time></trkpt><trkpt lat="43.910971724438966" lon="11.559968664605393"><ele>232.0</ele><time>2026-04-05T17:28:56.999Z</time></trkpt><trkpt lat="43.91100409501658" lon="11.560078415521064"><ele>231.0</ele><time>2026-04-05T17:28:57.999Z</time></trkpt><trkpt lat="43.911034313966454" lon="11.56018939215391"><ele>235.25</ele><time>2026-04-05T17:28:58.999Z</time></trkpt><trkpt lat="43.911073247334684" lon="11.560315535877482"><ele>239.5</ele><time>2026-04-05T17:28:59.999Z</time></trkpt><trkpt lat="43.91111713452839" lon="11.56046336331015"><ele>243.75</ele><time>2026-04-05T17:29:00.999Z</time></trkpt><trkpt lat="43.91117599918749" lon="11.560626652795094"><ele>248.0</ele><time>2026-04-05T17:29:01.999Z</time></trkpt><trkpt lat="43.911248883035796" lon="11.560794850431023"><ele>248.0</ele><time>2026-04-05T17:29:02.999Z</time></trkpt><trkpt lat="43.911323796142106" lon="11.560964807096648"><ele>248.0</ele><time>2026-04-05T17:29:03.999Z</time></trkpt><trkpt lat="43.91140091079627" lon="11.561129644432643"><ele>248.0</ele><time>2026-04-05T17:29:04.999Z</time></trkpt><trkpt lat="43.91149032783001" lon="11.561286319980365"><ele>248.0</ele><time>2026-04-05T17:29:05.999Z</time></trkpt><trkpt lat="43.91159524345554" lon="11.561428663248734"><ele>245.25</ele><time>2026-04-05T17:29:06.999Z</time></trkpt><trkpt lat="43.9117191449555" lon="11.561537473198186"><ele>242.5</ele><time>2026-04-05T17:29:07.999Z</time></trkpt><trkpt lat="43.91185015742511" lon="11.561599598367835"><ele>239.75</ele><time>2026-04-05T17:29:08.999Z</time></trkpt><trkpt lat="43.91198508199027" lon="11.561632213744533"><ele>237.0</ele><time>2026-04-05T17:29:09.999Z</time></trkpt><trkpt lat="43.912127589968144" lon="11.561628955030551"><ele>237.0</ele><time>2026-04-05T17:29:10.999Z</time></trkpt><trkpt lat="43.912278960024025" lon="11.561596117227301"><ele>237.0</ele><time>2026-04-05T17:29:11.999Z</time></trkpt><trkpt lat="43.912440283837746" lon="11.561533524471644"><ele>237.0</ele><time>2026-04-05T17:29:12.999Z</time></trkpt><trkpt lat="43.91258643594231" lon="11.561489510257164"><ele>238.75</ele><time>2026-04-05T17:29:13.999Z</time></trkpt><trkpt lat="43.912721489656946" lon="11.561480829343838"><ele>240.5</ele><time>2026-04-05T17:29:14.999Z</time></trkpt><trkpt lat="43.91284262256699" lon="11.561520394924452"><ele>242.25</ele><time>2026-04-05T17:29:15.999Z</time></trkpt><trkpt lat="43.91295573938601" lon="11.56157308263386"><ele>244.0</ele><time>2026-04-05T17:29:16.999Z</time></trkpt><trkpt lat="43.91306117506867" lon="11.561626777465639"><ele>244.0</ele><time>2026-04-05T17:29:17.999Z</time></trkpt><trkpt lat="43.91317856877535" lon="11.56166807371637"><ele>244.0</ele><time>2026-04-05T17:29:18.999Z</time></trkpt><trkpt lat="43.913311289461944" lon="11.5617155250558"><ele>244.0</ele><time>2026-04-05T17:29:19.999Z</time></trkpt><trkpt lat="43.913450328302055" lon="11.56176325962453"><ele>244.0</ele><time>2026-04-05T17:29:20.999Z</time></trkpt><trkpt lat="43.9136050471811" lon="11.561803858468547"><ele>247.0</ele><time>2026-04-05T17:29:21.999Z</time></trkpt><trkpt lat="43.91378191045436" lon="11.5618525725769"><ele>250.0</ele><time>2026-04-05T17:29:22.999Z</time></trkpt><trkpt lat="43.91395728123188" lon="11.561908471597294"><ele>253.0</ele><time>2026-04-05T17:29:23.999Z</time></trkpt><trkpt lat="43.91414142751156" lon="11.561968997084662"><ele>250.0</ele><time>2026-04-05T17:29:24.999Z</time></trkpt><trkpt lat="43.91432298071234" lon="11.562032581588605"><ele>247.0</ele><time>2026-04-05T17:29:25.999Z</time></trkpt><trkpt lat="43.914492683004966" lon="11.562131937271486"><ele>244.0</ele><time>2026-04-05T17:29:26.999Z</time></trkpt><trkpt lat="43.91465866384991" lon="11.562272458744339"><ele>244.0</ele><time>2026-04-05T17:29:27.999Z</time></trkpt><trkpt lat="43.91484343740824" lon="11.562457080499836"><ele>244.0</ele><time>2026-04-05T17:29:28.999Z</time></trkpt><trkpt lat="43.91505545793855" lon="11.562666737130389"><ele>251.0</ele><time>2026-04-05T17:29:29.999Z</time></trkpt><trkpt lat="43.915257630470016" lon="11.562870013927919"><ele>258.0</ele><time>2026-04-05T17:29:30.999Z</time></trkpt><trkpt lat="43.91541032333489" lon="11.563061243934705"><ele>258.0</ele><time>2026-04-05T17:29:31.999Z</time></trkpt><trkpt lat="43.91550476402655" lon="11.563296097634874"><ele>258.0</ele><time>2026-04-05T17:29:32.999Z</time></trkpt><trkpt lat="43.91570097259386" lon="11.563644190801519"><ele>263.0</ele><time>2026-04-05T17:29:33.999Z</time></trkpt><trkpt lat="43.915816181796075" lon="11.563969205323499"><ele>268.0</ele><time>2026-04-05T17:29:34.999Z</time></trkpt><trkpt lat="43.91594114812453" lon="11.564292128895733"><ele>263.0</ele><time>2026-04-05T17:29:35.999Z</time></trkpt><trkpt lat="43.91606221628043" lon="11.564604412872017"><ele>258.0</ele><time>2026-04-05T17:29:36.999Z</time></trkpt><trkpt lat="43.916169231214546" lon="11.564889457705544"><ele>258.0</ele><time>2026-04-05T17:29:37.999Z</time></trkpt><trkpt lat="43.91625290132257" lon="11.565152985524202"><ele>258.0</ele><time>2026-04-05T17:29:38.999Z</time></trkpt><trkpt lat="43.91633762043188" lon="11.565400724949118"><ele>258.0</ele><time>2026-04-05T17:29:39.999Z</time></trkpt><trkpt lat="43.916444750209344" lon="11.565642847188863"><ele>254.0</ele><time>2026-04-05T17:29:40.999Z</time></trkpt><trkpt lat="43.91656804154747" lon="11.565888341444241"><ele>250.0</ele><time>2026-04-05T17:29:41.999Z</time></trkpt><trkpt lat="43.91669327883204" lon="11.566148907510623"><ele>246.0</ele><time>2026-04-05T17:29:42.999Z</time></trkpt><trkpt lat="43.91679741358373" lon="11.566446679096709"><ele>244.5</ele><time>2026-04-05T17:29:43.999Z</time></trkpt><trkpt lat="43.916883598947855" lon="11.566773097477483"><ele>243.0</ele><time>2026-04-05T17:29:44.999Z</time></trkpt><trkpt lat="43.91695728700655" lon="11.567119142888336"><ele>249.0</ele><time>2026-04-05T17:29:45.999Z</time></trkpt><trkpt lat="43.91702321809154" lon="11.56745901945079"><ele>255.0</ele><time>2026-04-05T17:29:46.999Z</time></trkpt><trkpt lat="43.91707688251695" lon="11.567781150441203"><ele>256.0</ele><time>2026-04-05T17:29:47.999Z</time></trkpt><trkpt lat="43.917127902325085" lon="11.568077733475555"><ele>257.0</ele><time>2026-04-05T17:29:48.999Z</time></trkpt><trkpt lat="43.91720177127101" lon="11.568327656702142"><ele>258.0</ele><time>2026-04-05T17:29:49.999Z</time></trkpt><trkpt lat="43.91731293365617" lon="11.568549735658175"><ele>258.0</ele><time>2026-04-05T17:29:51Z</time></trkpt><trkpt lat="43.91745257312047" lon="11.568763122076469"><ele>258.0</ele><time>2026-04-05T17:29:52Z</time></trkpt><trkpt lat="43.917623669447295" lon="11.568968982994862"><ele>258.0</ele><time>2026-04-05T17:29:53Z</time></trkpt><trkpt lat="43.917823385194154" lon="11.569164740409908"><ele>258.0</ele><time>2026-04-05T17:29:54Z</time></trkpt><trkpt lat="43.918033607986075" lon="11.569374816897492"><ele>258.0</ele><time>2026-04-05T17:29:55Z</time></trkpt><trkpt lat="43.91824914794037" lon="11.569598907687409"><ele>261.0</ele><time>2026-04-05T17:29:56Z</time></trkpt><trkpt lat="43.91845489624211" lon="11.569815814212982"><ele>264.0</ele><time>2026-04-05T17:29:57Z</time></trkpt><trkpt lat="43.91865493425764" lon="11.570027340433287"><ele>264.0</ele><time>2026-04-05T17:29:58Z</time></trkpt><trkpt lat="43.918835400493016" lon="11.57021722235992"><ele>264.0</ele><time>2026-04-05T17:29:59Z</time></trkpt><trkpt lat="43.91899232723737" lon="11.570385691191174"><ele>264.0</ele><time>2026-04-05T17:30:00Z</time></trkpt><trkpt lat="43.91913675060615" lon="11.57052569260387"><ele>259.0</ele><time>2026-04-05T17:30:01Z</time></trkpt><trkpt lat="43.91928217404656" lon="11.570594333344594"><ele>254.0</ele><time>2026-04-05T17:30:02Z</time></trkpt><trkpt lat="43.91945098702315" lon="11.570585266249354"><ele>249.0</ele><time>2026-04-05T17:30:03Z</time></trkpt><trkpt lat="43.91963373141409" lon="11.570580390512424"><ele>249.0</ele><time>2026-04-05T17:30:04Z</time></trkpt><trkpt lat="43.919826239638766" lon="11.570600721493719"><ele>249.0</ele><time>2026-04-05T17:30:05Z</time></trkpt><trkpt lat="43.92002290907496" lon="11.570659601613094"><ele>249.0</ele><time>2026-04-05T17:30:06Z</time></trkpt><trkpt lat="43.920219660742795" lon="11.570762207301897"><ele>249.0</ele><time>2026-04-05T17:30:07Z</time></trkpt><trkpt lat="43.9203973878734" lon="11.570879101985886"><ele>249.0</ele><time>2026-04-05T17:30:08Z</time></trkpt><trkpt lat="43.92056366157975" lon="11.571020079490903"><ele>249.0</ele><time>2026-04-05T17:30:09Z</time></trkpt><trkpt lat="43.92073080025601" lon="11.57119907227651"><ele>258.5</ele><time>2026-04-05T17:30:10Z</time></trkpt><trkpt lat="43.92090015861285" lon="11.571408083435065"><ele>268.0</ele><time>2026-04-05T17:30:11Z</time></trkpt><trkpt lat="43.92106234729435" lon="11.57165228750694"><ele>268.0</ele><time>2026-04-05T17:30:12Z</time></trkpt><trkpt lat="43.92120200987109" lon="11.571977072450121"><ele>268.0</ele><time>2026-04-05T17:30:13Z</time></trkpt><trkpt lat="43.92131576168717" lon="11.572279974717228"><ele>264.0</ele><time>2026-04-05T17:30:14Z</time></trkpt><trkpt lat="43.92140331261189" lon="11.572577905882184"><ele>260.0</ele><time>2026-04-05T17:30:15Z</time></trkpt><trkpt lat="43.92148169622839" lon="11.572858789156339"><ele>256.0</ele><time>2026-04-05T17:30:16Z</time></trkpt><trkpt lat="43.92156548670721" lon="11.573129034559946"><ele>255.66666666666666</ele><time>2026-04-05T17:30:17Z</time></trkpt><trkpt lat="43.921685131919034" lon="11.57338674097274"><ele>255.33333333333331</ele><time>2026-04-05T17:30:18Z</time></trkpt><trkpt lat="43.92183657373749" lon="11.573615024259947"><ele>255.0</ele><time>2026-04-05T17:30:19Z</time></trkpt><trkpt lat="43.921995638001405" lon="11.573801127967352"><ele>255.0</ele><time>2026-04-05T17:30:20Z</time></trkpt><trkpt lat="43.92214277412966" lon="11.573974664565903"><ele>255.0</ele><time>2026-04-05T17:30:21Z</time></trkpt><trkpt lat="43.92229412994236" lon="11.574128883302773"><ele>255.0</ele><time>2026-04-05T17:30:22Z</time></trkpt><trkpt lat="43.922446489601924" lon="11.57424740318447"><ele>255.0</ele><time>2026-04-05T17:30:23Z</time></trkpt><trkpt lat="43.92259968502304" lon="11.574332530613823"><ele>255.0</ele><time>2026-04-05T17:30:24Z</time></trkpt><trkpt lat="43.922728360404165" lon="11.574426221929546"><ele>255.0</ele><time>2026-04-05T17:30:25Z</time></trkpt><trkpt lat="43.922852311687606" lon="11.57454396723273"><ele>255.0</ele><time>2026-04-05T17:30:26Z</time></trkpt><trkpt lat="43.92296073695017" lon="11.574685383353449"><ele>255.0</ele><time>2026-04-05T17:30:27Z</time></trkpt><trkpt lat="43.92306630602154" lon="11.574843365973628"><ele>255.0</ele><time>2026-04-05T17:30:28Z</time></trkpt><trkpt lat="43.92318587646581" lon="11.57501486464117"><ele>255.0</ele><time>2026-04-05T17:30:29Z</time></trkpt><trkpt lat="43.923307838587796" lon="11.575173402108565"><ele>255.0</ele><time>2026-04-05T17:30:30Z</time></trkpt><trkpt lat="43.92342339825197" lon="11.575326254745645"><ele>255.0</ele><time>2026-04-05T17:30:31Z</time></trkpt><trkpt lat="43.923536732282706" lon="11.575475513065273"><ele>255.75</ele><time>2026-04-05T17:30:32Z</time></trkpt><trkpt lat="43.92364511128451" lon="11.57562083167299"><ele>256.5</ele><time>2026-04-05T17:30:33Z</time></trkpt><trkpt lat="43.92374934957428" lon="11.575762050085189"><ele>257.25</ele><time>2026-04-05T17:30:34Z</time></trkpt><trkpt lat="43.923849024081775" lon="11.5758990539284"><ele>258.0</ele><time>2026-04-05T17:30:35Z</time></trkpt><trkpt lat="43.92393708715031" lon="11.576030711388666"><ele>258.0</ele><time>2026-04-05T17:30:36Z</time></trkpt><trkpt lat="43.92401632871204" lon="11.576155622321098"><ele>258.0</ele><time>2026-04-05T17:30:37Z</time></trkpt><trkpt lat="43.924088874865454" lon="11.576279658849158"><ele>258.0</ele><time>2026-04-05T17:30:38Z</time></trkpt><trkpt lat="43.92416237783475" lon="11.576407431984018"><ele>258.0</ele><time>2026-04-05T17:30:39Z</time></trkpt><trkpt lat="43.92423613191429" lon="11.576526973550001"><ele>260.0</ele><time>2026-04-05T17:30:40Z</time></trkpt><trkpt lat="43.92431336088383" lon="11.57665643137179"><ele>262.0</ele><time>2026-04-05T17:30:41Z</time></trkpt><trkpt lat="43.9244019002838" lon="11.57680464250893"><ele>264.0</ele><time>2026-04-05T17:30:42Z</time></trkpt><trkpt lat="43.92450410128324" lon="11.57697262313782"><ele>266.0</ele><time>2026-04-05T17:30:43Z</time></trkpt><trkpt lat="43.924615181176534" lon="11.577151743496813"><ele>266.0</ele><time>2026-04-05T17:30:44Z</time></trkpt><trkpt lat="43.92473560594387" lon="11.577337348171191"><ele>266.0</ele><time>2026-04-05T17:30:45Z</time></trkpt><trkpt lat="43.924848502861764" lon="11.577530338776276"><ele>266.0</ele><time>2026-04-05T17:30:46Z</time></trkpt><trkpt lat="43.92493826595782" lon="11.577747065972822"><ele>266.33333333333337</ele><time>2026-04-05T17:30:47Z</time></trkpt><trkpt lat="43.92499093218982" lon="11.578009569273183"><ele>266.6666666666667</ele><time>2026-04-05T17:30:48Z</time></trkpt><trkpt lat="43.9250130912923" lon="11.578306286970223"><ele>267.0</ele><time>2026-04-05T17:30:49Z</time></trkpt><trkpt lat="43.925040953089635" lon="11.578628350538107"><ele>278.0</ele><time>2026-04-05T17:30:50Z</time></trkpt><trkpt lat="43.925084531519786" lon="11.578951057827155"><ele>289.0</ele><time>2026-04-05T17:30:51Z</time></trkpt><trkpt lat="43.92512362856356" lon="11.579259215179887"><ele>284.3333333333333</ele><time>2026-04-05T17:30:52Z</time></trkpt><trkpt lat="43.92515269053606" lon="11.579539935559458"><ele>279.6666666666667</ele><time>2026-04-05T17:30:53Z</time></trkpt><trkpt lat="43.92518387280787" lon="11.579786524360777"><ele>275.0</ele><time>2026-04-05T17:30:54Z</time></trkpt><trkpt lat="43.925241301466706" lon="11.580000858840394"><ele>275.0</ele><time>2026-04-05T17:30:55Z</time></trkpt><trkpt lat="43.925334700842974" lon="11.580184796389242"><ele>275.0</ele><time>2026-04-05T17:30:56Z</time></trkpt><trkpt lat="43.92547099192048" lon="11.58033308815175"><ele>275.0</ele><time>2026-04-05T17:30:57Z</time></trkpt><trkpt lat="43.92563570790768" lon="11.580450736948912"><ele>276.0</ele><time>2026-04-05T17:30:58Z</time></trkpt><trkpt lat="43.925784119636106" lon="11.5806281036207"><ele>277.0</ele><time>2026-04-05T17:30:59Z</time></trkpt><trkpt lat="43.92589226522869" lon="11.580822459700801"><ele>278.0</ele><time>2026-04-05T17:31:00Z</time></trkpt><trkpt lat="43.92600560243359" lon="11.581069717404441"><ele>273.5</ele><time>2026-04-05T17:31:01Z</time></trkpt><trkpt lat="43.92614349147312" lon="11.581356253609039"><ele>269.0</ele><time>2026-04-05T17:31:02Z</time></trkpt><trkpt lat="43.92631189957196" lon="11.58161485749949"><ele>269.0</ele><time>2026-04-05T17:31:03Z</time></trkpt><trkpt lat="43.92647753344183" lon="11.581846234288365"><ele>269.0</ele><time>2026-04-05T17:31:04Z</time></trkpt><trkpt lat="43.92661790404633" lon="11.58206245151724"><ele>269.0</ele><time>2026-04-05T17:31:04.999Z</time></trkpt><trkpt lat="43.92674586751212" lon="11.582278712993238"><ele>277.6666666666667</ele><time>2026-04-05T17:31:05.999Z</time></trkpt><trkpt lat="43.92687906798009" lon="11.582452096926428"><ele>286.3333333333333</ele><time>2026-04-05T17:31:06.999Z</time></trkpt><trkpt lat="43.92700509081206" lon="11.58260505613385"><ele>295.0</ele><time>2026-04-05T17:31:07.999Z</time></trkpt><trkpt lat="43.92711286601113" lon="11.582746600284342"><ele>293.0</ele><time>2026-04-05T17:31:08.999Z</time></trkpt><trkpt lat="43.92720728925203" lon="11.582861484546843"><ele>291.0</ele><time>2026-04-05T17:31:09.999Z</time></trkpt><trkpt lat="43.92727836514932" lon="11.582982122922687"><ele>289.0</ele><time>2026-04-05T17:31:10.999Z</time></trkpt><trkpt lat="43.927308799011215" lon="11.583118849542325"><ele>287.0</ele><time>2026-04-05T17:31:11.999Z</time></trkpt><trkpt lat="43.92727396258455" lon="11.583271826604037"><ele>287.0</ele><time>2026-04-05T17:31:12.999Z</time></trkpt><trkpt lat="43.927210665328396" lon="11.583423137714108"><ele>287.0</ele><time>2026-04-05T17:31:13.999Z</time></trkpt><trkpt lat="43.92714594949103" lon="11.583615364272017"><ele>287.0</ele><time>2026-04-05T17:31:14.999Z</time></trkpt><trkpt lat="43.9270412202469" lon="11.583801998187578"><ele>287.0</ele><time>2026-04-05T17:31:15.999Z</time></trkpt><trkpt lat="43.92692509536058" lon="11.583983005171103"><ele>290.6666666666667</ele><time>2026-04-05T17:31:16.999Z</time></trkpt><trkpt lat="43.926804042602065" lon="11.584139393998433"><ele>294.3333333333333</ele><time>2026-04-05T17:31:17.999Z</time></trkpt><trkpt lat="43.926668696223544" lon="11.584299652690135"><ele>298.0</ele><time>2026-04-05T17:31:18.999Z</time></trkpt><trkpt lat="43.92653193639628" lon="11.584475393682258"><ele>297.3333333333333</ele><time>2026-04-05T17:31:19.999Z</time></trkpt><trkpt lat="43.92638730016834" lon="11.584658269385406"><ele>296.6666666666667</ele><time>2026-04-05T17:31:20.999Z</time></trkpt><trkpt lat="43.92624368535877" lon="11.584828658601102"><ele>296.0</ele><time>2026-04-05T17:31:21.999Z</time></trkpt><trkpt lat="43.926110204251614" lon="11.584985120793624"><ele>296.0</ele><time>2026-04-05T17:31:22.999Z</time></trkpt><trkpt lat="43.92600371622329" lon="11.585146689028404"><ele>296.0</ele><time>2026-04-05T17:31:23.999Z</time></trkpt><trkpt lat="43.925935069208194" lon="11.585343983056209"><ele>296.0</ele><time>2026-04-05T17:31:24.999Z</time></trkpt><trkpt lat="43.92588306031323" lon="11.585563423136476"><ele>291.33333333333337</ele><time>2026-04-05T17:31:25.999Z</time></trkpt><trkpt lat="43.925845130058086" lon="11.585790715397959"><ele>286.6666666666667</ele><time>2026-04-05T17:31:26.999Z</time></trkpt><trkpt lat="43.92583592536274" lon="11.586033918464612"><ele>282.0</ele><time>2026-04-05T17:31:27.999Z</time></trkpt><trkpt lat="43.92586304598839" lon="11.586297427506437"><ele>282.0</ele><time>2026-04-05T17:31:28.999Z</time></trkpt><trkpt lat="43.92587735384315" lon="11.586584530521238"><ele>282.0</ele><time>2026-04-05T17:31:29.999Z</time></trkpt><trkpt lat="43.9259085118949" lon="11.586889174510302"><ele>282.0</ele><time>2026-04-05T17:31:30.999Z</time></trkpt><trkpt lat="43.92594049004375" lon="11.587202780836057"><ele>287.0</ele><time>2026-04-05T17:31:31.999Z</time></trkpt><trkpt lat="43.92598355773529" lon="11.587499499535118"><ele>292.0</ele><time>2026-04-05T17:31:32.999Z</time></trkpt><trkpt lat="43.92605349871893" lon="11.587755127534265"><ele>297.0</ele><time>2026-04-05T17:31:33.999Z</time></trkpt><trkpt lat="43.926124058267504" lon="11.587986032054332"><ele>297.3333333333333</ele><time>2026-04-05T17:31:34.999Z</time></trkpt><trkpt lat="43.92621336067638" lon="11.58819382133632"><ele>297.66666666666663</ele><time>2026-04-05T17:31:35.999Z</time></trkpt><trkpt lat="43.926339261482234" lon="11.588364683295035"><ele>298.0</ele><time>2026-04-05T17:31:36.999Z</time></trkpt><trkpt lat="43.92646678387536" lon="11.588531442256095"><ele>298.0</ele><time>2026-04-05T17:31:37.999Z</time></trkpt><trkpt lat="43.92659363743577" lon="11.58867281116646"><ele>298.0</ele><time>2026-04-05T17:31:38.999Z</time></trkpt><trkpt lat="43.92669560476818" lon="11.588801123575308"><ele>298.0</ele><time>2026-04-05T17:31:39.999Z</time></trkpt><trkpt lat="43.926773053181165" lon="11.588934553076044"><ele>298.0</ele><time>2026-04-05T17:31:40.999Z</time></trkpt><trkpt lat="43.92683474318121" lon="11.589098152587749"><ele>307.3333333333333</ele><time>2026-04-05T17:31:41.999Z</time></trkpt><trkpt lat="43.92688647544238" lon="11.589298107216605"><ele>316.6666666666667</ele><time>2026-04-05T17:31:42.999Z</time></trkpt><trkpt lat="43.92690492757022" lon="11.589528753006132"><ele>326.0</ele><time>2026-04-05T17:31:43.999Z</time></trkpt><trkpt lat="43.92689406450993" lon="11.589773594629099"><ele>326.0</ele><time>2026-04-05T17:31:44.999Z</time></trkpt><trkpt lat="43.9268810880111" lon="11.590017751946533"><ele>326.0</ele><time>2026-04-05T17:31:45.999Z</time></trkpt><trkpt lat="43.92684287287574" lon="11.590230662477664"><ele>326.0</ele><time>2026-04-05T17:31:46.999Z</time></trkpt><trkpt lat="43.92675845976904" lon="11.59040022039582"><ele>319.0</ele><time>2026-04-05T17:31:47.999Z</time></trkpt><trkpt lat="43.92667011873957" lon="11.590565680321625"><ele>312.0</ele><time>2026-04-05T17:31:48.999Z</time></trkpt><trkpt lat="43.926571654745345" lon="11.590690997947181"><ele>305.0</ele><time>2026-04-05T17:31:49.999Z</time></trkpt><trkpt lat="43.92647959056906" lon="11.590832319606276"><ele>298.0</ele><time>2026-04-05T17:31:50.999Z</time></trkpt><trkpt lat="43.92641096816087" lon="11.591018580800387"><ele>299.0</ele><time>2026-04-05T17:31:51.999Z</time></trkpt><trkpt lat="43.92637990612699" lon="11.591229844376805"><ele>300.0</ele><time>2026-04-05T17:31:52.999Z</time></trkpt><trkpt lat="43.92639676999857" lon="11.591436465468218"><ele>301.0</ele><time>2026-04-05T17:31:53.999Z</time></trkpt><trkpt lat="43.926438656467" lon="11.59163828436899"><ele>301.0</ele><time>2026-04-05T17:31:54.999Z</time></trkpt><trkpt lat="43.92644883559914" lon="11.591847332472108"><ele>301.0</ele><time>2026-04-05T17:31:55.999Z</time></trkpt><trkpt lat="43.926430204047556" lon="11.592056007959926"><ele>301.0</ele><time>2026-04-05T17:31:57Z</time></trkpt><trkpt lat="43.9263829567433" lon="11.592279826059869"><ele>302.3333333333333</ele><time>2026-04-05T17:31:58Z</time></trkpt><trkpt lat="43.926332181037004" lon="11.592533344700906"><ele>303.6666666666667</ele><time>2026-04-05T17:31:59Z</time></trkpt><trkpt lat="43.9262843557689" lon="11.592804159700083"><ele>305.0</ele><time>2026-04-05T17:32:00Z</time></trkpt><trkpt lat="43.92624760312823" lon="11.593092595522572"><ele>309.33333333333337</ele><time>2026-04-05T17:32:01Z</time></trkpt><trkpt lat="43.92621603183883" lon="11.59338287142573"><ele>313.6666666666667</ele><time>2026-04-05T17:32:02Z</time></trkpt><trkpt lat="43.92618940913647" lon="11.593644089133523"><ele>318.0</ele><time>2026-04-05T17:32:03Z</time></trkpt><trkpt lat="43.92616206423548" lon="11.59391189523568"><ele>320.0</ele><time>2026-04-05T17:32:04Z</time></trkpt><trkpt lat="43.92615122984619" lon="11.594176322151347"><ele>322.0</ele><time>2026-04-05T17:32:05Z</time></trkpt><trkpt lat="43.92611100362983" lon="11.594406090645194"><ele>324.0</ele><time>2026-04-05T17:32:06Z</time></trkpt><trkpt lat="43.92608957989626" lon="11.594617214763337"><ele>324.25</ele><time>2026-04-05T17:32:07Z</time></trkpt><trkpt lat="43.926093993296575" lon="11.594834010041174"><ele>324.5</ele><time>2026-04-05T17:32:08Z</time></trkpt><trkpt lat="43.926140953488705" lon="11.594997947548105"><ele>324.75</ele><time>2026-04-05T17:32:09Z</time></trkpt><trkpt lat="43.926224663025415" lon="11.595122705951377"><ele>325.0</ele><time>2026-04-05T17:32:10Z</time></trkpt><trkpt lat="43.92629956765169" lon="11.595238790702906"><ele>321.5</ele><time>2026-04-05T17:32:11Z</time></trkpt><trkpt lat="43.92636115936315" lon="11.59535115010887"><ele>318.0</ele><time>2026-04-05T17:32:12Z</time></trkpt><trkpt lat="43.926391028440136" lon="11.595487386168646"><ele>314.5</ele><time>2026-04-05T17:32:13Z</time></trkpt><trkpt lat="43.92639276033234" lon="11.595659109919865"><ele>311.0</ele><time>2026-04-05T17:32:14Z</time></trkpt><trkpt lat="43.926386878198365" lon="11.595853781599972"><ele>311.0</ele><time>2026-04-05T17:32:15Z</time></trkpt><trkpt lat="43.92635846630492" lon="11.596055082743947"><ele>311.0</ele><time>2026-04-05T17:32:16Z</time></trkpt><trkpt lat="43.926313230854035" lon="11.596257361630178"><ele>311.0</ele><time>2026-04-05T17:32:17Z</time></trkpt><trkpt lat="43.92625348913189" lon="11.596455643153801"><ele>311.25</ele><time>2026-04-05T17:32:18Z</time></trkpt><trkpt lat="43.92618038645637" lon="11.596630934691369"><ele>311.5</ele><time>2026-04-05T17:32:19Z</time></trkpt><trkpt lat="43.92609520835905" lon="11.596797546677394"><ele>311.75</ele><time>2026-04-05T17:32:20Z</time></trkpt><trkpt lat="43.926012379678916" lon="11.596960912445345"><ele>312.0</ele><time>2026-04-05T17:32:21Z</time></trkpt><trkpt lat="43.925919797373396" lon="11.597097226422658"><ele>309.75</ele><time>2026-04-05T17:32:22Z</time></trkpt><trkpt lat="43.92579861400596" lon="11.59719445906947"><ele>307.5</ele><time>2026-04-05T17:32:23Z</time></trkpt><trkpt lat="43.92570008270387" lon="11.597288336065166"><ele>305.25</ele><time>2026-04-05T17:32:24Z</time></trkpt><trkpt lat="43.92560233984525" lon="11.597368430033331"><ele>303.0</ele><time>2026-04-05T17:32:25Z</time></trkpt><trkpt lat="43.92550477344269" lon="11.59744942246467"><ele>303.0</ele><time>2026-04-05T17:32:26Z</time></trkpt><trkpt lat="43.925412938040736" lon="11.597522731026114"><ele>303.0</ele><time>2026-04-05T17:32:27Z</time></trkpt><trkpt lat="43.925323254610156" lon="11.597608744077355"><ele>303.0</ele><time>2026-04-05T17:32:28Z</time></trkpt><trkpt lat="43.92524632276925" lon="11.59771803898059"><ele>303.0</ele><time>2026-04-05T17:32:29Z</time></trkpt><trkpt lat="43.9251711091421" lon="11.59785107419001"><ele>303.0</ele><time>2026-04-05T17:32:30Z</time></trkpt><trkpt lat="43.92512636587094" lon="11.598026442961954"><ele>307.5</ele><time>2026-04-05T17:32:31Z</time></trkpt><trkpt lat="43.925101258736966" lon="11.598210654482404"><ele>312.0</ele><time>2026-04-05T17:32:32Z</time></trkpt><trkpt lat="43.925090577917786" lon="11.598381146742392"><ele>316.5</ele><time>2026-04-05T17:32:33Z</time></trkpt><trkpt lat="43.925114733691856" lon="11.59857256318627"><ele>321.0</ele><time>2026-04-05T17:32:34Z</time></trkpt><trkpt lat="43.92517800656744" lon="11.598753786809514"><ele>322.6666666666667</ele><time>2026-04-05T17:32:35Z</time></trkpt><trkpt lat="43.92525433457629" lon="11.598934872320196"><ele>324.33333333333337</ele><time>2026-04-05T17:32:36Z</time></trkpt><trkpt lat="43.92535105020017" lon="11.599117622622389"><ele>326.0</ele><time>2026-04-05T17:32:37Z</time></trkpt><trkpt lat="43.925467585461526" lon="11.599281815921808"><ele>326.0</ele><time>2026-04-05T17:32:38Z</time></trkpt><trkpt lat="43.925586527572186" lon="11.599436188654767"><ele>326.0</ele><time>2026-04-05T17:32:39Z</time></trkpt><trkpt lat="43.92569730910964" lon="11.59959126171307"><ele>326.0</ele><time>2026-04-05T17:32:40Z</time></trkpt><trkpt lat="43.925803815188246" lon="11.599751148264982"><ele>335.33333333333337</ele><time>2026-04-05T17:32:41Z</time></trkpt><trkpt lat="43.92590156067122" lon="11.599924935657766"><ele>344.6666666666667</ele><time>2026-04-05T17:32:42Z</time></trkpt><trkpt lat="43.92600292646116" lon="11.600075744834475"><ele>354.0</ele><time>2026-04-05T17:32:43Z</time></trkpt><trkpt lat="43.92610055725505" lon="11.600222638088225"><ele>349.25</ele><time>2026-04-05T17:32:44Z</time></trkpt><trkpt lat="43.92618955178928" lon="11.60036650768834"><ele>344.5</ele><time>2026-04-05T17:32:45Z</time></trkpt><trkpt lat="43.92625101307259" lon="11.600517112709356"><ele>339.75</ele><time>2026-04-05T17:32:46Z</time></trkpt><trkpt lat="43.92626799722292" lon="11.600694750158336"><ele>335.0</ele><time>2026-04-05T17:32:47Z</time></trkpt><trkpt lat="43.92628658648529" lon="11.60090687633292"><ele>335.0</ele><time>2026-04-05T17:32:48Z</time></trkpt><trkpt lat="43.92630689948917" lon="11.601126527874284"><ele>335.0</ele><time>2026-04-05T17:32:49Z</time></trkpt><trkpt lat="43.9263276051909" lon="11.601367202041926"><ele>335.0</ele><time>2026-04-05T17:32:50Z</time></trkpt><trkpt lat="43.926333283544885" lon="11.601650878945442"><ele>330.5</ele><time>2026-04-05T17:32:51Z</time></trkpt><trkpt lat="43.92633021878828" lon="11.601968595216473"><ele>326.0</ele><time>2026-04-05T17:32:52Z</time></trkpt><trkpt lat="43.92632519720081" lon="11.602314563099263"><ele>326.0</ele><time>2026-04-05T17:32:53Z</time></trkpt><trkpt lat="43.92631990350492" lon="11.602679278168326"><ele>326.0</ele><time>2026-04-05T17:32:54Z</time></trkpt><trkpt lat="43.92631576971244" lon="11.603029951261352"><ele>323.0</ele><time>2026-04-05T17:32:55Z</time></trkpt><trkpt lat="43.92631365076931" lon="11.603380470040694"><ele>320.0</ele><time>2026-04-05T17:32:56Z</time></trkpt><trkpt lat="43.92631441351566" lon="11.603742848348574"><ele>320.0</ele><time>2026-04-05T17:32:57Z</time></trkpt><trkpt lat="43.92631777514248" lon="11.604115227680483"><ele>320.0</ele><time>2026-04-05T17:32:58Z</time></trkpt><trkpt lat="43.92632823247525" lon="11.60449535229914"><ele>320.5</ele><time>2026-04-05T17:32:59Z</time></trkpt><trkpt lat="43.926343601721435" lon="11.60487618118621"><ele>321.0</ele><time>2026-04-05T17:33:00Z</time></trkpt><trkpt lat="43.92635991284174" lon="11.605244150035505"><ele>320.5</ele><time>2026-04-05T17:33:01Z</time></trkpt><trkpt lat="43.926395509702736" lon="11.605596173555375"><ele>320.0</ele><time>2026-04-05T17:33:02Z</time></trkpt><trkpt lat="43.926419771758354" lon="11.605932399853959"><ele>319.5</ele><time>2026-04-05T17:33:03Z</time></trkpt><trkpt lat="43.926459883879495" lon="11.606261572345545"><ele>319.0</ele><time>2026-04-05T17:33:04Z</time></trkpt><trkpt lat="43.9265560675042" lon="11.606586755911888"><ele>319.0</ele><time>2026-04-05T17:33:05Z</time></trkpt><trkpt lat="43.92665659468618" lon="11.606932031419564"><ele>319.0</ele><time>2026-04-05T17:33:06Z</time></trkpt><trkpt lat="43.926730023703946" lon="11.607249234311338"><ele>319.66666666666663</ele><time>2026-04-05T17:33:07Z</time></trkpt><trkpt lat="43.92680589863298" lon="11.607523628361513"><ele>320.3333333333333</ele><time>2026-04-05T17:33:08Z</time></trkpt><trkpt lat="43.92689221702207" lon="11.607758729784244"><ele>321.0</ele><time>2026-04-05T17:33:09Z</time></trkpt><trkpt lat="43.92697825198566" lon="11.607980672210008"><ele>321.0</ele><time>2026-04-05T17:33:10Z</time></trkpt><trkpt lat="43.927094923617645" lon="11.608173996314909"><ele>321.0</ele><time>2026-04-05T17:33:11Z</time></trkpt><trkpt lat="43.927215332840426" lon="11.608382593095687"><ele>321.0</ele><time>2026-04-05T17:33:12Z</time></trkpt><trkpt lat="43.92733793218802" lon="11.608569437843201"><ele>320.0</ele><time>2026-04-05T17:33:13Z</time></trkpt><trkpt lat="43.92744088217829" lon="11.608727091359853"><ele>319.0</ele><time>2026-04-05T17:33:14Z</time></trkpt><trkpt lat="43.92752135194523" lon="11.608897882659079"><ele>318.0</ele><time>2026-04-05T17:33:15Z</time></trkpt><trkpt lat="43.92756348316283" lon="11.609134148904449"><ele>322.0</ele><time>2026-04-05T17:33:16Z</time></trkpt><trkpt lat="43.92761881158779" lon="11.609387848776525"><ele>326.0</ele><time>2026-04-05T17:33:17Z</time></trkpt><trkpt lat="43.92767408112282" lon="11.60962951823313"><ele>330.0</ele><time>2026-04-05T17:33:18Z</time></trkpt><trkpt lat="43.92772280454901" lon="11.609844774777539"><ele>334.25</ele><time>2026-04-05T17:33:18.999Z</time></trkpt><trkpt lat="43.92776664490654" lon="11.610047731444444"><ele>338.5</ele><time>2026-04-05T17:33:19.999Z</time></trkpt><trkpt lat="43.92778263555116" lon="11.610244761454966"><ele>342.75</ele><time>2026-04-05T17:33:20.999Z</time></trkpt><trkpt lat="43.927750255213326" lon="11.610438034390882"><ele>347.0</ele><time>2026-04-05T17:33:21.999Z</time></trkpt><trkpt lat="43.92767326936082" lon="11.610598986288345"><ele>343.0</ele><time>2026-04-05T17:33:22.999Z</time></trkpt><trkpt lat="43.92756200346385" lon="11.610731184153517"><ele>339.0</ele><time>2026-04-05T17:33:23.999Z</time></trkpt><trkpt lat="43.92740577116741" lon="11.610820482698308"><ele>335.0</ele><time>2026-04-05T17:33:24.999Z</time></trkpt><trkpt lat="43.92724153014888" lon="11.610880321051694"><ele>335.0</ele><time>2026-04-05T17:33:25.999Z</time></trkpt><trkpt lat="43.92707372171821" lon="11.610950804526148"><ele>335.0</ele><time>2026-04-05T17:33:26.999Z</time></trkpt><trkpt lat="43.92690571659256" lon="11.611000418853726"><ele>335.0</ele><time>2026-04-05T17:33:27.999Z</time></trkpt><trkpt lat="43.92675630590047" lon="11.61102555224543"><ele>334.0</ele><time>2026-04-05T17:33:28.999Z</time></trkpt><trkpt lat="43.92662341741042" lon="11.611015147846398"><ele>333.0</ele><time>2026-04-05T17:33:29.999Z</time></trkpt><trkpt lat="43.92651007903124" lon="11.611002150610496"><ele>332.0</ele><time>2026-04-05T17:33:30.999Z</time></trkpt><trkpt lat="43.92641656281467" lon="11.611009435353266"><ele>331.0</ele><time>2026-04-05T17:33:31.999Z</time></trkpt><trkpt lat="43.926332839008396" lon="11.611036658266528"><ele>330.0</ele><time>2026-04-05T17:33:32.999Z</time></trkpt><trkpt lat="43.92621191631881" lon="11.611129315999197"><ele>332.8</ele><time>2026-04-05T17:33:33.999Z</time></trkpt><trkpt lat="43.92612349086521" lon="11.61124845272487"><ele>335.6</ele><time>2026-04-05T17:33:34.999Z</time></trkpt><trkpt lat="43.92603867117999" lon="11.611367748371432"><ele>338.4</ele><time>2026-04-05T17:33:35.999Z</time></trkpt><trkpt lat="43.925976489293646" lon="11.611476625428025"><ele>341.2</ele><time>2026-04-05T17:33:36.999Z</time></trkpt><trkpt lat="43.925946379528774" lon="11.611599954130265"><ele>344.0</ele><time>2026-04-05T17:33:37.999Z</time></trkpt><trkpt lat="43.92597264482797" lon="11.611760750262464"><ele>344.0</ele><time>2026-04-05T17:33:38.999Z</time></trkpt><trkpt lat="43.926043998266394" lon="11.61188581882514"><ele>344.0</ele><time>2026-04-05T17:33:39.999Z</time></trkpt><trkpt lat="43.926131037261264" lon="11.611950464323543"><ele>344.0</ele><time>2026-04-05T17:33:40.999Z</time></trkpt><trkpt lat="43.92624618568922" lon="11.61195016429242"><ele>344.0</ele><time>2026-04-05T17:33:41.999Z</time></trkpt><trkpt lat="43.926358987273225" lon="11.611921843268323"><ele>344.0</ele><time>2026-04-05T17:33:42.999Z</time></trkpt><trkpt lat="43.92647088531499" lon="11.611905778047575"><ele>344.0</ele><time>2026-04-05T17:33:43.999Z</time></trkpt><trkpt lat="43.926581883858745" lon="11.611929218699139"><ele>344.0</ele><time>2026-04-05T17:33:44.999Z</time></trkpt><trkpt lat="43.92667918635321" lon="11.612029721359354"><ele>344.0</ele><time>2026-04-05T17:33:45.999Z</time></trkpt><trkpt lat="43.926760297859325" lon="11.612089329560495"><ele>344.0</ele><time>2026-04-05T17:33:46.999Z</time></trkpt><trkpt lat="43.92677942455111" lon="11.612368723658664"><ele>345.0</ele><time>2026-04-05T17:33:47.999Z</time></trkpt><trkpt lat="43.92676563803996" lon="11.612567617705228"><ele>346.0</ele><time>2026-04-05T17:33:48.999Z</time></trkpt><trkpt lat="43.92671645472964" lon="11.612756917912836"><ele>347.0</ele><time>2026-04-05T17:33:49.999Z</time></trkpt><trkpt lat="43.92667257121353" lon="11.612926348608266"><ele>348.0</ele><time>2026-04-05T17:33:50.999Z</time></trkpt><trkpt lat="43.926635094284734" lon="11.613093662291265"><ele>348.0</ele><time>2026-04-05T17:33:51.999Z</time></trkpt><trkpt lat="43.92660750917377" lon="11.61324379085945"><ele>348.0</ele><time>2026-04-05T17:33:52.999Z</time></trkpt><trkpt lat="43.92655604251234" lon="11.613347856386913"><ele>348.0</ele><time>2026-04-05T17:33:53.999Z</time></trkpt><trkpt lat="43.92647380689026" lon="11.613385331413916"><ele>348.0</ele><time>2026-04-05T17:33:54.999Z</time></trkpt><trkpt lat="43.92638418387164" lon="11.613344633954656"><ele>348.0</ele><time>2026-04-05T17:33:55.999Z</time></trkpt><trkpt lat="43.926308388601356" lon="11.613243400513156"><ele>348.0</ele><time>2026-04-05T17:33:56.999Z</time></trkpt><trkpt lat="43.926241169426575" lon="11.613131155216331"><ele>348.0</ele><time>2026-04-05T17:33:57.999Z</time></trkpt><trkpt lat="43.926156241812045" lon="11.613017364276567"><ele>348.0</ele><time>2026-04-05T17:33:58.999Z</time></trkpt><trkpt lat="43.92606229241146" lon="11.612923484323897"><ele>348.0</ele><time>2026-04-05T17:33:59.999Z</time></trkpt><trkpt lat="43.925961717535664" lon="11.612860487388723"><ele>348.0</ele><time>2026-04-05T17:34:00.999Z</time></trkpt><trkpt lat="43.92585634382012" lon="11.612857179046511"><ele>348.2</ele><time>2026-04-05T17:34:01.999Z</time></trkpt><trkpt lat="43.92577309532006" lon="11.61291930767372"><ele>348.4</ele><time>2026-04-05T17:34:03Z</time></trkpt><trkpt lat="43.92569497414275" lon="11.613032324139278"><ele>348.59999999999997</ele><time>2026-04-05T17:34:04Z</time></trkpt><trkpt lat="43.9256472190712" lon="11.613188896737093"><ele>348.79999999999995</ele><time>2026-04-05T17:34:05Z</time></trkpt><trkpt lat="43.925626697724944" lon="11.613348351524003"><ele>349.0</ele><time>2026-04-05T17:34:06Z</time></trkpt><trkpt lat="43.92564354309654" lon="11.613527528581118"><ele>351.5</ele><time>2026-04-05T17:34:07Z</time></trkpt><trkpt lat="43.92566357788214" lon="11.613711062063526"><ele>354.0</ele><time>2026-04-05T17:34:08Z</time></trkpt><trkpt lat="43.92567130878773" lon="11.613900806550568"><ele>356.5</ele><time>2026-04-05T17:34:09Z</time></trkpt><trkpt lat="43.92566898401673" lon="11.614104021283323"><ele>359.0</ele><time>2026-04-05T17:34:10Z</time></trkpt><trkpt lat="43.92566957070723" lon="11.614323764314127"><ele>360.0</ele><time>2026-04-05T17:34:11Z</time></trkpt><trkpt lat="43.925685008753774" lon="11.614547196151571"><ele>361.0</ele><time>2026-04-05T17:34:12Z</time></trkpt><trkpt lat="43.92572069508056" lon="11.614798750652541"><ele>362.0</ele><time>2026-04-05T17:34:13Z</time></trkpt><trkpt lat="43.9257698769117" lon="11.615054029605927"><ele>362.0</ele><time>2026-04-05T17:34:14Z</time></trkpt><trkpt lat="43.92581981513858" lon="11.61531404995602"><ele>362.0</ele><time>2026-04-05T17:34:15Z</time></trkpt><trkpt lat="43.92583289779874" lon="11.615604319600468"><ele>362.0</ele><time>2026-04-05T17:34:16Z</time></trkpt><trkpt lat="43.92582481771897" lon="11.615895029163598"><ele>366.0</ele><time>2026-04-05T17:34:17Z</time></trkpt><trkpt lat="43.925810705961176" lon="11.616175027979004"><ele>370.0</ele><time>2026-04-05T17:34:18Z</time></trkpt><trkpt lat="43.92580135192322" lon="11.616404657334114"><ele>374.0</ele><time>2026-04-05T17:34:19Z</time></trkpt><trkpt lat="43.92577810401182" lon="11.61660566930134"><ele>374.0</ele><time>2026-04-05T17:34:20Z</time></trkpt><trkpt lat="43.92574450085451" lon="11.61676952336361"><ele>374.0</ele><time>2026-04-05T17:34:21Z</time></trkpt><trkpt lat="43.92569948449673" lon="11.616935971430667"><ele>374.0</ele><time>2026-04-05T17:34:22Z</time></trkpt><trkpt lat="43.92564692774925" lon="11.617107229999178"><ele>374.0</ele><time>2026-04-05T17:34:23Z</time></trkpt><trkpt lat="43.92557641823074" lon="11.617283221588096"><ele>379.0</ele><time>2026-04-05T17:34:24Z</time></trkpt><trkpt lat="43.9254870086665" lon="11.617440930033242"><ele>384.0</ele><time>2026-04-05T17:34:25Z</time></trkpt><trkpt lat="43.925381059186535" lon="11.617594848212427"><ele>389.0</ele><time>2026-04-05T17:34:26Z</time></trkpt><trkpt lat="43.92526905328056" lon="11.617741481502106"><ele>391.75</ele><time>2026-04-05T17:34:27Z</time></trkpt><trkpt lat="43.92516548049448" lon="11.617878269218354"><ele>394.5</ele><time>2026-04-05T17:34:28Z</time></trkpt><trkpt lat="43.92508720323524" lon="11.617998063689893"><ele>397.25</ele><time>2026-04-05T17:34:29Z</time></trkpt><trkpt lat="43.925039558096756" lon="11.618150314424065"><ele>400.0</ele><time>2026-04-05T17:34:30Z</time></trkpt><trkpt lat="43.9250249134388" lon="11.61833441272374"><ele>396.5</ele><time>2026-04-05T17:34:31Z</time></trkpt><trkpt lat="43.92499089719916" lon="11.618536189883912"><ele>393.0</ele><time>2026-04-05T17:34:32Z</time></trkpt><trkpt lat="43.924970665862574" lon="11.618714837400159"><ele>389.5</ele><time>2026-04-05T17:34:33Z</time></trkpt><trkpt lat="43.924952122795766" lon="11.618870369276625"><ele>386.0</ele><time>2026-04-05T17:34:34Z</time></trkpt><trkpt lat="43.92493726590153" lon="11.618996861934471"><ele>385.99999999999994</ele><time>2026-04-05T17:34:35Z</time></trkpt><trkpt lat="43.924924418326995" lon="11.619110984060889"><ele>386.0</ele><time>2026-04-05T17:34:36Z</time></trkpt><trkpt lat="43.92491829888819" lon="11.61920465189046"><ele>386.0</ele><time>2026-04-05T17:34:37Z</time></trkpt><trkpt lat="43.92497371911158" lon="11.619337797248129"><ele>386.0</ele><time>2026-04-05T17:34:39Z</time></trkpt><trkpt lat="43.92505434883378" lon="11.619337672783377"><ele>385.99999999999994</ele><time>2026-04-05T17:34:40Z</time></trkpt><trkpt lat="43.92511704738896" lon="11.619320518423045"><ele>386.0</ele><time>2026-04-05T17:34:41Z</time></trkpt><trkpt lat="43.9251745397958" lon="11.619248243385334"><ele>390.0</ele><time>2026-04-05T17:34:42Z</time></trkpt><trkpt lat="43.92523208492523" lon="11.619177706110321"><ele>394.0</ele><time>2026-04-05T17:34:43Z</time></trkpt><trkpt lat="43.925278420934234" lon="11.6190858904547"><ele>398.0</ele><time>2026-04-05T17:34:44Z</time></trkpt><trkpt lat="43.92531460993608" lon="11.618967734880888"><ele>402.0</ele><time>2026-04-05T17:34:45Z</time></trkpt><trkpt lat="43.92531455582379" lon="11.618826965685544"><ele>406.0</ele><time>2026-04-05T17:34:46Z</time></trkpt><trkpt lat="43.925294754357424" lon="11.618693131363148"><ele>404.8</ele><time>2026-04-05T17:34:47Z</time></trkpt><trkpt lat="43.92528945991596" lon="11.61855033238557"><ele>403.6</ele><time>2026-04-05T17:34:48Z</time></trkpt><trkpt lat="43.92533118973285" lon="11.618414369117497"><ele>402.4</ele><time>2026-04-05T17:34:49Z</time></trkpt><trkpt lat="43.925413945715256" lon="11.618307318174269"><ele>401.2</ele><time>2026-04-05T17:34:50Z</time></trkpt><trkpt lat="43.925497810642625" lon="11.618184072308026"><ele>400.0</ele><time>2026-04-05T17:34:51Z</time></trkpt><trkpt lat="43.92556927299721" lon="11.618051636887062"><ele>400.00000000000006</ele><time>2026-04-05T17:34:52Z</time></trkpt><trkpt lat="43.92564144285034" lon="11.617958421297187"><ele>400.0</ele><time>2026-04-05T17:34:53Z</time></trkpt><trkpt lat="43.9257111708534" lon="11.617908643684443"><ele>400.0</ele><time>2026-04-05T17:34:54Z</time></trkpt><trkpt lat="43.92577475061012" lon="11.617868567662464"><ele>400.0</ele><time>2026-04-05T17:34:55Z</time></trkpt><trkpt lat="43.92584435720418" lon="11.617870004177545"><ele>400.00000000000006</ele><time>2026-04-05T17:34:56Z</time></trkpt><trkpt lat="43.925906264768685" lon="11.617934771103881"><ele>400.0</ele><time>2026-04-05T17:34:57Z</time></trkpt><trkpt lat="43.925978377607514" lon="11.617969777179384"><ele>397.8</ele><time>2026-04-05T17:34:58Z</time></trkpt><trkpt lat="43.92605122113261" lon="11.61800425176989"><ele>395.6</ele><time>2026-04-05T17:34:59Z</time></trkpt><trkpt lat="43.92615208737935" lon="11.618050308291023"><ele>393.4</ele><time>2026-04-05T17:35:01Z</time></trkpt><trkpt lat="43.92623821357493" lon="11.618098098783152"><ele>391.2</ele><time>2026-04-05T17:35:03Z</time></trkpt><trkpt lat="43.92631237883596" lon="11.61822295109886"><ele>389.0</ele><time>2026-04-05T17:35:05Z</time></trkpt><trkpt lat="43.92631273353872" lon="11.618338954043994"><ele>388.99999999999994</ele><time>2026-04-05T17:35:06Z</time></trkpt><trkpt lat="43.92633562620374" lon="11.618481907581536"><ele>389.0</ele><time>2026-04-05T17:35:07Z</time></trkpt><trkpt lat="43.926355489662456" lon="11.61860594542189"><ele>389.0</ele><time>2026-04-05T17:35:08Z</time></trkpt><trkpt lat="43.92637790373437" lon="11.618720645223053"><ele>389.0</ele><time>2026-04-05T17:35:09Z</time></trkpt><trkpt lat="43.92641994622872" lon="11.618818871004724"><ele>388.99999999999994</ele><time>2026-04-05T17:35:10Z</time></trkpt><trkpt lat="43.926453522520994" lon="11.618909901258391"><ele>389.0</ele><time>2026-04-05T17:35:11Z</time></trkpt><trkpt lat="43.92650745500608" lon="11.618983763258525"><ele>388.5</ele><time>2026-04-05T17:35:12Z</time></trkpt><trkpt lat="43.926580440009346" lon="11.619064287906614"><ele>388.0</ele><time>2026-04-05T17:35:13Z</time></trkpt><trkpt lat="43.92665535934988" lon="11.619178781424667"><ele>387.5</ele><time>2026-04-05T17:35:14Z</time></trkpt><trkpt lat="43.92677126349943" lon="11.619277328764365"><ele>387.0</ele><time>2026-04-05T17:35:15Z</time></trkpt><trkpt lat="43.926901146437494" lon="11.619393364221516"><ele>387.0</ele><time>2026-04-05T17:35:16Z</time></trkpt><trkpt lat="43.92700525680578" lon="11.619471516038978"><ele>387.0</ele><time>2026-04-05T17:35:16.999Z</time></trkpt><trkpt lat="43.9271427040259" lon="11.619524342837572"><ele>387.0</ele><time>2026-04-05T17:35:17.999Z</time></trkpt><trkpt lat="43.927274717121264" lon="11.619605913835167"><ele>387.0</ele><time>2026-04-05T17:35:18.999Z</time></trkpt><trkpt lat="43.92739567718677" lon="11.61969042925548"><ele>389.33333333333337</ele><time>2026-04-05T17:35:19.999Z</time></trkpt><trkpt lat="43.9275046589487" lon="11.619809078200392"><ele>391.6666666666667</ele><time>2026-04-05T17:35:20.999Z</time></trkpt><trkpt lat="43.9276126166661" lon="11.619967975569919"><ele>394.0</ele><time>2026-04-05T17:35:21.999Z</time></trkpt><trkpt lat="43.927733827536706" lon="11.620148510689946"><ele>396.6666666666667</ele><time>2026-04-05T17:35:22.999Z</time></trkpt><trkpt lat="43.92786063213072" lon="11.620337595574233"><ele>399.33333333333337</ele><time>2026-04-05T17:35:23.999Z</time></trkpt><trkpt lat="43.92799238359944" lon="11.62053770164395"><ele>402.0</ele><time>2026-04-05T17:35:24.999Z</time></trkpt><trkpt lat="43.928133571862894" lon="11.620748690766023"><ele>402.0</ele><time>2026-04-05T17:35:25.999Z</time></trkpt><trkpt lat="43.92827391694908" lon="11.620961110576237"><ele>402.0</ele><time>2026-04-05T17:35:26.999Z</time></trkpt><trkpt lat="43.92840127452579" lon="11.621154420193546"><ele>402.0</ele><time>2026-04-05T17:35:27.999Z</time></trkpt><trkpt lat="43.928521795035785" lon="11.621337444435888"><ele>402.66666666666663</ele><time>2026-04-05T17:35:28.999Z</time></trkpt><trkpt lat="43.92865549847012" lon="11.621482259695712"><ele>403.3333333333333</ele><time>2026-04-05T17:35:29.999Z</time></trkpt><trkpt lat="43.92876289903248" lon="11.621651374892453"><ele>404.0</ele><time>2026-04-05T17:35:30.999Z</time></trkpt><trkpt lat="43.928866447836846" lon="11.621813951061572"><ele>408.3333333333333</ele><time>2026-04-05T17:35:31.999Z</time></trkpt><trkpt lat="43.92896925058887" lon="11.621990981155035"><ele>412.66666666666663</ele><time>2026-04-05T17:35:32.999Z</time></trkpt><trkpt lat="43.92903296835016" lon="11.622185486056129"><ele>417.0</ele><time>2026-04-05T17:35:33.999Z</time></trkpt><trkpt lat="43.929105631119086" lon="11.622362383235288"><ele>417.0</ele><time>2026-04-05T17:35:34.999Z</time></trkpt><trkpt lat="43.929185686642334" lon="11.622516528236757"><ele>417.0</ele><time>2026-04-05T17:35:35.999Z</time></trkpt><trkpt lat="43.92927297328329" lon="11.622659301074723"><ele>417.0</ele><time>2026-04-05T17:35:36.999Z</time></trkpt><trkpt lat="43.929361339695376" lon="11.622743599875365"><ele>417.0</ele><time>2026-04-05T17:35:37.999Z</time></trkpt><trkpt lat="43.929450267410516" lon="11.622785250467635"><ele>416.8</ele><time>2026-04-05T17:35:38.999Z</time></trkpt><trkpt lat="43.929522078182906" lon="11.62271724834019"><ele>416.6</ele><time>2026-04-05T17:35:39.999Z</time></trkpt><trkpt lat="43.92960278888807" lon="11.622661453864817"><ele>416.40000000000003</ele><time>2026-04-05T17:35:40.999Z</time></trkpt><trkpt lat="43.92968018503358" lon="11.622586696006751"><ele>416.20000000000005</ele><time>2026-04-05T17:35:41.999Z</time></trkpt><trkpt lat="43.92975273381464" lon="11.622504162120237"><ele>416.0</ele><time>2026-04-05T17:35:42.999Z</time></trkpt><trkpt lat="43.929821121566825" lon="11.622414932910726"><ele>416.0</ele><time>2026-04-05T17:35:43.999Z</time></trkpt><trkpt lat="43.92989742517344" lon="11.622327981293612"><ele>416.0</ele><time>2026-04-05T17:35:44.999Z</time></trkpt><trkpt lat="43.92996341562715" lon="11.622225757209375"><ele>416.0</ele><time>2026-04-05T17:35:45.999Z</time></trkpt><trkpt lat="43.9300018999236" lon="11.622100447541142"><ele>416.0</ele><time>2026-04-05T17:35:46.999Z</time></trkpt><trkpt lat="43.930023538971156" lon="11.621956093670788"><ele>416.0</ele><time>2026-04-05T17:35:47.999Z</time></trkpt><trkpt lat="43.93002271857147" lon="11.621801232376464"><ele>416.75</ele><time>2026-04-05T17:35:48.999Z</time></trkpt><trkpt lat="43.93000171495097" lon="11.621641997462804"><ele>417.5</ele><time>2026-04-05T17:35:49.999Z</time></trkpt><trkpt lat="43.929960646763725" lon="11.621483710432173"><ele>418.25</ele><time>2026-04-05T17:35:50.999Z</time></trkpt><trkpt lat="43.92989940620678" lon="11.621335227765224"><ele>419.0</ele><time>2026-04-05T17:35:51.999Z</time></trkpt><trkpt lat="43.929829566221294" lon="11.621189365303364"><ele>421.79999999999995</ele><time>2026-04-05T17:35:52.999Z</time></trkpt><trkpt lat="43.929777655490525" lon="11.621071171941606"><ele>424.59999999999997</ele><time>2026-04-05T17:35:53.999Z</time></trkpt><trkpt lat="43.92973615526716" lon="11.62094840179088"><ele>427.4</ele><time>2026-04-05T17:35:54.999Z</time></trkpt><trkpt lat="43.929700635710866" lon="11.620830654192304"><ele>430.2</ele><time>2026-04-05T17:35:55.999Z</time></trkpt><trkpt lat="43.92968578606599" lon="11.620705146914089"><ele>433.0</ele><time>2026-04-05T17:35:56.999Z</time></trkpt><trkpt lat="43.929696233018674" lon="11.620583493416154"><ele>433.00000000000006</ele><time>2026-04-05T17:35:57.999Z</time></trkpt><trkpt lat="43.92974479486444" lon="11.620497321901707"><ele>433.0</ele><time>2026-04-05T17:35:58.999Z</time></trkpt><trkpt lat="43.92982057105685" lon="11.620459050219619"><ele>433.0</ele><time>2026-04-05T17:35:59.999Z</time></trkpt><trkpt lat="43.929900281646574" lon="11.620480121304038"><ele>433.0</ele><time>2026-04-05T17:36:00.999Z</time></trkpt><trkpt lat="43.92995491383746" lon="11.62056531945792"><ele>433.00000000000006</ele><time>2026-04-05T17:36:01.999Z</time></trkpt><trkpt lat="43.929959773915265" lon="11.620698567694928"><ele>433.0</ele><time>2026-04-05T17:36:02.999Z</time></trkpt><trkpt lat="43.92992201665355" lon="11.620815881797135"><ele>433.0</ele><time>2026-04-05T17:36:03.999Z</time></trkpt><trkpt lat="43.92993371563528" lon="11.620957552940697"><ele>432.99999999999994</ele><time>2026-04-05T17:36:04.999Z</time></trkpt><trkpt lat="43.9299307509193" lon="11.62110238708071"><ele>432.99999999999994</ele><time>2026-04-05T17:36:05.999Z</time></trkpt><trkpt lat="43.92996561095522" lon="11.621245140021056"><ele>433.0</ele><time>2026-04-05T17:36:06.999Z</time></trkpt><trkpt lat="43.930032541590855" lon="11.621376819740581"><ele>433.0</ele><time>2026-04-05T17:36:07.999Z</time></trkpt><trkpt lat="43.93011926668489" lon="11.62147460900272"><ele>436.75</ele><time>2026-04-05T17:36:09Z</time></trkpt><trkpt lat="43.930233030410626" lon="11.621510665707023"><ele>440.5</ele><time>2026-04-05T17:36:10Z</time></trkpt><trkpt lat="43.93035332102344" lon="11.621485848902026"><ele>444.25</ele><time>2026-04-05T17:36:11Z</time></trkpt><trkpt lat="43.93047009199296" lon="11.621458183793962"><ele>448.0</ele><time>2026-04-05T17:36:12Z</time></trkpt><trkpt lat="43.93058405360256" lon="11.621435925998268"><ele>448.0</ele><time>2026-04-05T17:36:13Z</time></trkpt><trkpt lat="43.930688620112896" lon="11.621437636962952"><ele>447.99999999999994</ele><time>2026-04-05T17:36:14Z</time></trkpt><trkpt lat="43.93076780253435" lon="11.621502353198865"><ele>447.99999999999994</ele><time>2026-04-05T17:36:15Z</time></trkpt><trkpt lat="43.93081878294799" lon="11.621609576794839"><ele>448.0</ele><time>2026-04-05T17:36:16Z</time></trkpt><trkpt lat="43.930849370350025" lon="11.621733687492176"><ele>448.0</ele><time>2026-04-05T17:36:17Z</time></trkpt><trkpt lat="43.93078917326085" lon="11.62186695024113"><ele>448.0</ele><time>2026-04-05T17:36:18Z</time></trkpt><trkpt lat="43.930724486686294" lon="11.621970807069276"><ele>447.99999999999994</ele><time>2026-04-05T17:36:19Z</time></trkpt><trkpt lat="43.93067280829356" lon="11.62210465162917"><ele>447.99999999999994</ele><time>2026-04-05T17:36:20Z</time></trkpt><trkpt lat="43.93062606094998" lon="11.622223551520408"><ele>448.0</ele><time>2026-04-05T17:36:21Z</time></trkpt><trkpt lat="43.930612774504915" lon="11.622333549710609"><ele>448.0</ele><time>2026-04-05T17:36:22Z</time></trkpt><trkpt lat="43.93063287416225" lon="11.622453057582455"><ele>450.0</ele><time>2026-04-05T17:36:23Z</time></trkpt><trkpt lat="43.93072832928653" lon="11.622531055936062"><ele>452.0</ele><time>2026-04-05T17:36:24Z</time></trkpt><trkpt lat="43.93084605448132" lon="11.622555942931761"><ele>454.0</ele><time>2026-04-05T17:36:25Z</time></trkpt><trkpt lat="43.93096562456444" lon="11.622557287334898"><ele>456.0</ele><time>2026-04-05T17:36:26Z</time></trkpt><trkpt lat="43.93109359442237" lon="11.622563369791976"><ele>456.0</ele><time>2026-04-05T17:36:27Z</time></trkpt><trkpt lat="43.931215703638166" lon="11.622576373577695"><ele>456.0</ele><time>2026-04-05T17:36:28Z</time></trkpt><trkpt lat="43.93134497532875" lon="11.622590471493107"><ele>456.0</ele><time>2026-04-05T17:36:29Z</time></trkpt><trkpt lat="43.9314708425352" lon="11.622602286026488"><ele>456.0</ele><time>2026-04-05T17:36:30Z</time></trkpt><trkpt lat="43.93160359539625" lon="11.62256646583863"><ele>460.25</ele><time>2026-04-05T17:36:31Z</time></trkpt><trkpt lat="43.93173230946942" lon="11.622476733656411"><ele>464.5</ele><time>2026-04-05T17:36:32Z</time></trkpt><trkpt lat="43.93185609612523" lon="11.622398415312055"><ele>468.75</ele><time>2026-04-05T17:36:33Z</time></trkpt><trkpt lat="43.932002832647136" lon="11.62233301849933"><ele>473.0</ele><time>2026-04-05T17:36:34Z</time></trkpt><trkpt lat="43.93213628238437" lon="11.62232545221882"><ele>473.0</ele><time>2026-04-05T17:36:35Z</time></trkpt><trkpt lat="43.93224642261812" lon="11.622315388154748"><ele>472.99999999999994</ele><time>2026-04-05T17:36:36Z</time></trkpt><trkpt lat="43.932340978730124" lon="11.622322659341592"><ele>472.99999999999994</ele><time>2026-04-05T17:36:37Z</time></trkpt><trkpt lat="43.93242737200097" lon="11.622383772417901"><ele>473.0</ele><time>2026-04-05T17:36:38Z</time></trkpt><trkpt lat="43.93249484362792" lon="11.622488402762881"><ele>473.0</ele><time>2026-04-05T17:36:39Z</time></trkpt><trkpt lat="43.932528190977635" lon="11.622621536598778"><ele>473.0</ele><time>2026-04-05T17:36:40Z</time></trkpt><trkpt lat="43.93252686353526" lon="11.622759012626277"><ele>472.99999999999994</ele><time>2026-04-05T17:36:41Z</time></trkpt><trkpt lat="43.93248877118352" lon="11.622893728843442"><ele>472.99999999999994</ele><time>2026-04-05T17:36:42Z</time></trkpt><trkpt lat="43.93242661982876" lon="11.623003502402312"><ele>473.0</ele><time>2026-04-05T17:36:43Z</time></trkpt><trkpt lat="43.93238318346245" lon="11.623140653922835"><ele>473.0</ele><time>2026-04-05T17:36:44Z</time></trkpt><trkpt lat="43.93234971257186" lon="11.623260506251608"><ele>471.4</ele><time>2026-04-05T17:36:45Z</time></trkpt><trkpt lat="43.93234031553423" lon="11.623374142169244"><ele>469.79999999999995</ele><time>2026-04-05T17:36:46Z</time></trkpt><trkpt lat="43.93240785259124" lon="11.623477734294804"><ele>468.2</ele><time>2026-04-05T17:36:47Z</time></trkpt><trkpt lat="43.93250181113093" lon="11.623544754102113"><ele>466.6</ele><time>2026-04-05T17:36:48Z</time></trkpt><trkpt lat="43.93261366181639" lon="11.62359212302546"><ele>465.0</ele><time>2026-04-05T17:36:49Z</time></trkpt><trkpt lat="43.93273882092538" lon="11.623646427535569"><ele>467.25</ele><time>2026-04-05T17:36:50Z</time></trkpt><trkpt lat="43.93286186463149" lon="11.623718072144364"><ele>469.5</ele><time>2026-04-05T17:36:51Z</time></trkpt><trkpt lat="43.93298285065085" lon="11.623792238929054"><ele>471.75</ele><time>2026-04-05T17:36:52Z</time></trkpt><trkpt lat="43.933094379948045" lon="11.623862508089612"><ele>474.0</ele><time>2026-04-05T17:36:53Z</time></trkpt><trkpt lat="43.93321337449143" lon="11.623908588620477"><ele>474.0</ele><time>2026-04-05T17:36:54Z</time></trkpt><trkpt lat="43.933342781068895" lon="11.62391021024223"><ele>474.0</ele><time>2026-04-05T17:36:55Z</time></trkpt><trkpt lat="43.93345196427506" lon="11.623906060942852"><ele>474.0</ele><time>2026-04-05T17:36:56Z</time></trkpt><trkpt lat="43.93357595390292" lon="11.623926832344827"><ele>474.0</ele><time>2026-04-05T17:36:57Z</time></trkpt><trkpt lat="43.933676362379686" lon="11.624020324262517"><ele>478.75</ele><time>2026-04-05T17:36:58Z</time></trkpt><trkpt lat="43.93375987419414" lon="11.624155565868994"><ele>483.5</ele><time>2026-04-05T17:36:59Z</time></trkpt><trkpt lat="43.93384361815702" lon="11.624320294789522"><ele>488.25</ele><time>2026-04-05T17:37:00Z</time></trkpt><trkpt lat="43.93392598101914" lon="11.6244663285551"><ele>493.0</ele><time>2026-04-05T17:37:01Z</time></trkpt><trkpt lat="43.93399592750765" lon="11.624580942742249"><ele>493.0</ele><time>2026-04-05T17:37:02Z</time></trkpt><trkpt lat="43.93403729331099" lon="11.624728329617158"><ele>492.99999999999994</ele><time>2026-04-05T17:37:03Z</time></trkpt><trkpt lat="43.93402540451469" lon="11.624882066364533"><ele>492.99999999999994</ele><time>2026-04-05T17:37:04Z</time></trkpt><trkpt lat="43.93402782002752" lon="11.62502324854734"><ele>493.0</ele><time>2026-04-05T17:37:05Z</time></trkpt><trkpt lat="43.93404879871757" lon="11.625159026627134"><ele>493.0</ele><time>2026-04-05T17:37:06Z</time></trkpt><trkpt lat="43.93411360389243" lon="11.625283377586308"><ele>492.0</ele><time>2026-04-05T17:37:07Z</time></trkpt><trkpt lat="43.934206622563366" lon="11.625393526363549"><ele>491.0</ele><time>2026-04-05T17:37:08Z</time></trkpt><trkpt lat="43.93432735834226" lon="11.625459887537104"><ele>490.0</ele><time>2026-04-05T17:37:09Z</time></trkpt><trkpt lat="43.934466763367155" lon="11.62549326938184"><ele>489.0</ele><time>2026-04-05T17:37:10Z</time></trkpt><trkpt lat="43.93462448345918" lon="11.625506855230142"><ele>489.0</ele><time>2026-04-05T17:37:11Z</time></trkpt><trkpt lat="43.93479694088136" lon="11.625519077366809"><ele>489.0</ele><time>2026-04-05T17:37:12Z</time></trkpt><trkpt lat="43.9349544162477" lon="11.625550568428077"><ele>489.0</ele><time>2026-04-05T17:37:13Z</time></trkpt><trkpt lat="43.93510649759113" lon="11.625583827556726"><ele>486.75</ele><time>2026-04-05T17:37:14Z</time></trkpt><trkpt lat="43.93524512152657" lon="11.625588421147915"><ele>484.5</ele><time>2026-04-05T17:37:15Z</time></trkpt><trkpt lat="43.93536428473151" lon="11.625545988455505"><ele>482.25</ele><time>2026-04-05T17:37:16Z</time></trkpt><trkpt lat="43.935446950676926" lon="11.625446411459672"><ele>480.0</ele><time>2026-04-05T17:37:17Z</time></trkpt><trkpt lat="43.935504384327814" lon="11.625295278605769"><ele>484.0</ele><time>2026-04-05T17:37:18Z</time></trkpt><trkpt lat="43.9355348977245" lon="11.625133464909716"><ele>488.0</ele><time>2026-04-05T17:37:19Z</time></trkpt><trkpt lat="43.935594217832474" lon="11.625000397935613"><ele>492.0</ele><time>2026-04-05T17:37:20Z</time></trkpt><trkpt lat="43.93563804820723" lon="11.624870204316732"><ele>496.0</ele><time>2026-04-05T17:37:21Z</time></trkpt><trkpt lat="43.93569031255232" lon="11.6247440411749"><ele>500.0</ele><time>2026-04-05T17:37:22Z</time></trkpt><trkpt lat="43.93575110741296" lon="11.62461381803216"><ele>500.0</ele><time>2026-04-05T17:37:23Z</time></trkpt><trkpt lat="43.935831269212315" lon="11.624503950183243"><ele>500.0</ele><time>2026-04-05T17:37:23.999Z</time></trkpt><trkpt lat="43.9359229772514" lon="11.624400556959184"><ele>500.0</ele><time>2026-04-05T17:37:24.999Z</time></trkpt><trkpt lat="43.93603130953916" lon="11.624306349134102"><ele>500.0</ele><time>2026-04-05T17:37:25.999Z</time></trkpt><trkpt lat="43.93615534540368" lon="11.624235065493083"><ele>504.0</ele><time>2026-04-05T17:37:26.999Z</time></trkpt><trkpt lat="43.93629442924252" lon="11.624168649585556"><ele>508.0</ele><time>2026-04-05T17:37:27.999Z</time></trkpt><trkpt lat="43.936428473872944" lon="11.624106558065025"><ele>512.0</ele><time>2026-04-05T17:37:28.999Z</time></trkpt><trkpt lat="43.936545961830866" lon="11.624068129626734"><ele>516.0</ele><time>2026-04-05T17:37:29.999Z</time></trkpt><trkpt lat="43.936666793936034" lon="11.62408173932585"><ele>518.25</ele><time>2026-04-05T17:37:30.999Z</time></trkpt><trkpt lat="43.936783086124564" lon="11.624132476744085"><ele>520.5</ele><time>2026-04-05T17:37:31.999Z</time></trkpt><trkpt lat="43.93688946051025" lon="11.624188533037385"><ele>522.75</ele><time>2026-04-05T17:37:32.999Z</time></trkpt><trkpt lat="43.93698801332732" lon="11.624237562191574"><ele>525.0</ele><time>2026-04-05T17:37:33.999Z</time></trkpt><trkpt lat="43.93711477728677" lon="11.62425994243401"><ele>525.0</ele><time>2026-04-05T17:37:34.999Z</time></trkpt><trkpt lat="43.93724784817639" lon="11.624260555457143"><ele>525.0</ele><time>2026-04-05T17:37:35.999Z</time></trkpt><trkpt lat="43.93731740012178" lon="11.6240880342575"><ele>525.0</ele><time>2026-04-05T17:37:36.999Z</time></trkpt><trkpt lat="43.937432135226274" lon="11.624024693468817"><ele>525.0</ele><time>2026-04-05T17:37:37.999Z</time></trkpt><trkpt lat="43.93756419907543" lon="11.623995101057634"><ele>530.3333333333334</ele><time>2026-04-05T17:37:38.999Z</time></trkpt><trkpt lat="43.93771629793585" lon="11.624073473292182"><ele>535.6666666666667</ele><time>2026-04-05T17:37:39.999Z</time></trkpt><trkpt lat="43.93788012812693" lon="11.624147224343886"><ele>541.0</ele><time>2026-04-05T17:37:40.999Z</time></trkpt><trkpt lat="43.938033587917296" lon="11.624209215246731"><ele>541.0</ele><time>2026-04-05T17:37:41.999Z</time></trkpt><trkpt lat="43.93816810360357" lon="11.624264607623918"><ele>541.0</ele><time>2026-04-05T17:37:42.999Z</time></trkpt><trkpt lat="43.93827682574412" lon="11.624334219268073"><ele>541.0</ele><time>2026-04-05T17:37:43.999Z</time></trkpt><trkpt lat="43.93836735198619" lon="11.624426134885272"><ele>541.0</ele><time>2026-04-05T17:37:44.999Z</time></trkpt><trkpt lat="43.93843874989787" lon="11.62455629378218"><ele>544.5</ele><time>2026-04-05T17:37:45.999Z</time></trkpt><trkpt lat="43.93851309025515" lon="11.624692834657912"><ele>548.0</ele><time>2026-04-05T17:37:46.999Z</time></trkpt><trkpt lat="43.93858240378779" lon="11.624827653099418"><ele>551.5</ele><time>2026-04-05T17:37:47.999Z</time></trkpt><trkpt lat="43.93863697961606" lon="11.624969266379571"><ele>555.0</ele><time>2026-04-05T17:37:48.999Z</time></trkpt><trkpt lat="43.938590438508726" lon="11.625142871971018"><ele>555.0</ele><time>2026-04-05T17:37:49.999Z</time></trkpt><trkpt lat="43.93857041226036" lon="11.625304712538817"><ele>555.0</ele><time>2026-04-05T17:37:50.999Z</time></trkpt><trkpt lat="43.938481141518174" lon="11.625408872304199"><ele>555.0</ele><time>2026-04-05T17:37:51.999Z</time></trkpt><trkpt lat="43.93835436684707" lon="11.625405808374689"><ele>555.0</ele><time>2026-04-05T17:37:52.999Z</time></trkpt><trkpt lat="43.93822151681592" lon="11.625413810976205"><ele>554.6</ele><time>2026-04-05T17:37:53.999Z</time></trkpt><trkpt lat="43.938106981196164" lon="11.625427075607695"><ele>554.2</ele><time>2026-04-05T17:37:54.999Z</time></trkpt><trkpt lat="43.937978458025654" lon="11.625452821639549"><ele>553.8</ele><time>2026-04-05T17:37:55.999Z</time></trkpt><trkpt lat="43.937873175958025" lon="11.6254997385235"><ele>553.4</ele><time>2026-04-05T17:37:56.999Z</time></trkpt><trkpt lat="43.93780480296254" lon="11.62553719956121"><ele>553.0</ele><time>2026-04-05T17:37:57.999Z</time></trkpt><trkpt lat="43.93773194456007" lon="11.625600194474844"><ele>553.0</ele><time>2026-04-05T17:37:58.999Z</time></trkpt><trkpt lat="43.937632116487364" lon="11.625773557689667"><ele>553.0</ele><time>2026-04-05T17:37:59.999Z</time></trkpt><trkpt lat="43.93761775706287" lon="11.625937942278169"><ele>553.0</ele><time>2026-04-05T17:38:00.999Z</time></trkpt><trkpt lat="43.937566482534976" lon="11.626055445479665"><ele>553.0</ele><time>2026-04-05T17:38:01.999Z</time></trkpt><trkpt lat="43.93748785972344" lon="11.626136308112189"><ele>552.8</ele><time>2026-04-05T17:38:02.999Z</time></trkpt><trkpt lat="43.93742692546521" lon="11.6262517204274"><ele>552.5999999999999</ele><time>2026-04-05T17:38:03.999Z</time></trkpt><trkpt lat="43.937393089742734" lon="11.62639886021413"><ele>552.4000000000001</ele><time>2026-04-05T17:38:04.999Z</time></trkpt><trkpt lat="43.93739238116484" lon="11.626535531350633"><ele>552.2</ele><time>2026-04-05T17:38:05.999Z</time></trkpt><trkpt lat="43.9373854975516" lon="11.62666788061522"><ele>552.0</ele><time>2026-04-05T17:38:06.999Z</time></trkpt><trkpt lat="43.93736807207006" lon="11.626801879338817"><ele>552.0</ele><time>2026-04-05T17:38:07.999Z</time></trkpt><trkpt lat="43.93733103307457" lon="11.626923149740849"><ele>552.0</ele><time>2026-04-05T17:38:08.999Z</time></trkpt><trkpt lat="43.9372787747979" lon="11.627034272412754"><ele>552.0</ele><time>2026-04-05T17:38:09.999Z</time></trkpt><trkpt lat="43.93720677069493" lon="11.627129130948976"><ele>552.0</ele><time>2026-04-05T17:38:10.999Z</time></trkpt><trkpt lat="43.93712649171599" lon="11.627221392730894"><ele>552.0</ele><time>2026-04-05T17:38:11.999Z</time></trkpt><trkpt lat="43.93704414731251" lon="11.627322724332238"><ele>556.8000000000001</ele><time>2026-04-05T17:38:12.999Z</time></trkpt><trkpt lat="43.93697413859487" lon="11.627432860605126"><ele>561.6</ele><time>2026-04-05T17:38:13.999Z</time></trkpt><trkpt lat="43.93692306564057" lon="11.62757189519707"><ele>566.4000000000001</ele><time>2026-04-05T17:38:15Z</time></trkpt><trkpt lat="43.93689928192622" lon="11.62768801564625"><ele>571.2</ele><time>2026-04-05T17:38:16Z</time></trkpt><trkpt lat="43.936878638795" lon="11.627819271918478"><ele>576.0</ele><time>2026-04-05T17:38:17Z</time></trkpt><trkpt lat="43.93685978416515" lon="11.627941731056591"><ele>572.6666666666666</ele><time>2026-04-05T17:38:18Z</time></trkpt><trkpt lat="43.93684085855085" lon="11.628072539366496"><ele>569.3333333333334</ele><time>2026-04-05T17:38:19Z</time></trkpt><trkpt lat="43.93682185925872" lon="11.62820045592084"><ele>566.0</ele><time>2026-04-05T17:38:20Z</time></trkpt><trkpt lat="43.93679691959269" lon="11.628312883966752"><ele>562.6666666666667</ele><time>2026-04-05T17:38:21Z</time></trkpt><trkpt lat="43.9367489073623" lon="11.628413341170672"><ele>559.3333333333334</ele><time>2026-04-05T17:38:22Z</time></trkpt><trkpt lat="43.93667864602128" lon="11.628470142367386"><ele>556.0</ele><time>2026-04-05T17:38:23Z</time></trkpt><trkpt lat="43.9366043429751" lon="11.62856872494079"><ele>560.0</ele><time>2026-04-05T17:38:24Z</time></trkpt><trkpt lat="43.93654321393347" lon="11.6286442781745"><ele>564.0</ele><time>2026-04-05T17:38:25Z</time></trkpt><trkpt lat="43.936476287076616" lon="11.628733075334594"><ele>568.0</ele><time>2026-04-05T17:38:26Z</time></trkpt><trkpt lat="43.936493553116335" lon="11.628867229835588"><ele>572.0</ele><time>2026-04-05T17:38:27Z</time></trkpt><trkpt lat="43.936524379817435" lon="11.629025498763095"><ele>576.0</ele><time>2026-04-05T17:38:28Z</time></trkpt><trkpt lat="43.93655335481668" lon="11.629185240585112"><ele>576.0</ele><time>2026-04-05T17:38:29Z</time></trkpt><trkpt lat="43.93654195145702" lon="11.629339688867956"><ele>576.0</ele><time>2026-04-05T17:38:30Z</time></trkpt><trkpt lat="43.93651051313769" lon="11.629478664573769"><ele>576.0</ele><time>2026-04-05T17:38:31Z</time></trkpt><trkpt lat="43.93642812229977" lon="11.629558452475019"><ele>576.0</ele><time>2026-04-05T17:38:32Z</time></trkpt><trkpt lat="43.93635400590355" lon="11.629670831485546"><ele>576.0</ele><time>2026-04-05T17:38:33Z</time></trkpt><trkpt lat="43.936302033799514" lon="11.62979188677793"><ele>579.0</ele><time>2026-04-05T17:38:34Z</time></trkpt><trkpt lat="43.9363010502541" lon="11.62995562489695"><ele>582.0</ele><time>2026-04-05T17:38:35Z</time></trkpt><trkpt lat="43.936316233991604" lon="11.630087749933608"><ele>585.0</ele><time>2026-04-05T17:38:36Z</time></trkpt><trkpt lat="43.936310861515516" lon="11.6302247554642"><ele>588.0</ele><time>2026-04-05T17:38:37Z</time></trkpt><trkpt lat="43.936277013200296" lon="11.630355210340527"><ele>591.0</ele><time>2026-04-05T17:38:38Z</time></trkpt><trkpt lat="43.93622082898823" lon="11.630473894323318"><ele>596.75</ele><time>2026-04-05T17:38:39Z</time></trkpt><trkpt lat="43.93616126395391" lon="11.630607883219323"><ele>602.5</ele><time>2026-04-05T17:38:40Z</time></trkpt><trkpt lat="43.93609974596057" lon="11.630742038038054"><ele>608.25</ele><time>2026-04-05T17:38:41Z</time></trkpt><trkpt lat="43.93603523621391" lon="11.630882156615778"><ele>614.0</ele><time>2026-04-05T17:38:42Z</time></trkpt><trkpt lat="43.935968337022736" lon="11.631026816287529"><ele>616.8</ele><time>2026-04-05T17:38:43Z</time></trkpt><trkpt lat="43.935921122851006" lon="11.631179231574464"><ele>619.5999999999999</ele><time>2026-04-05T17:38:44Z</time></trkpt><trkpt lat="43.93587005650545" lon="11.631307865904498"><ele>622.4</ele><time>2026-04-05T17:38:45Z</time></trkpt><trkpt lat="43.93585500225445" lon="11.631445211291547"><ele>625.1999999999999</ele><time>2026-04-05T17:38:46Z</time></trkpt><trkpt lat="43.93587889426115" lon="11.631578416868214"><ele>628.0</ele><time>2026-04-05T17:38:47Z</time></trkpt><trkpt lat="43.935948165550826" lon="11.631686577227969"><ele>628.0</ele><time>2026-04-05T17:38:48Z</time></trkpt><trkpt lat="43.93602297088794" lon="11.631801604530848"><ele>628.0</ele><time>2026-04-05T17:38:49Z</time></trkpt><trkpt lat="43.936058119254405" lon="11.631914490068043"><ele>628.0</ele><time>2026-04-05T17:38:50Z</time></trkpt><trkpt lat="43.93605177058376" lon="11.632020211661915"><ele>628.0</ele><time>2026-04-05T17:38:51Z</time></trkpt><trkpt lat="43.93600363808302" lon="11.632153667542301"><ele>628.0</ele><time>2026-04-05T17:38:52Z</time></trkpt><trkpt lat="43.93590150118371" lon="11.632225899029862"><ele>621.75</ele><time>2026-04-05T17:38:53Z</time></trkpt><trkpt lat="43.93579031605979" lon="11.632280460625479"><ele>615.5</ele><time>2026-04-05T17:38:54Z</time></trkpt><trkpt lat="43.93568731127171" lon="11.632336940147136"><ele>609.25</ele><time>2026-04-05T17:38:55Z</time></trkpt><trkpt lat="43.935579694414606" lon="11.632403191000273"><ele>603.0</ele><time>2026-04-05T17:38:56Z</time></trkpt><trkpt lat="43.93547085745532" lon="11.632468034923114"><ele>603.0</ele><time>2026-04-05T17:38:57Z</time></trkpt><trkpt lat="43.93536737197371" lon="11.632528795997548"><ele>603.0</ele><time>2026-04-05T17:38:58Z</time></trkpt><trkpt lat="43.935292684369486" lon="11.632609466662489"><ele>603.0</ele><time>2026-04-05T17:38:59Z</time></trkpt><trkpt lat="43.935253995270465" lon="11.63272630440718"><ele>603.0</ele><time>2026-04-05T17:39:00Z</time></trkpt><trkpt lat="43.93525685097304" lon="11.632865918034955"><ele>603.0</ele><time>2026-04-05T17:39:01Z</time></trkpt><trkpt lat="43.93530278650065" lon="11.63301462793707"><ele>607.0</ele><time>2026-04-05T17:39:02Z</time></trkpt><trkpt lat="43.93532892555998" lon="11.633176837719288"><ele>611.0</ele><time>2026-04-05T17:39:03Z</time></trkpt><trkpt lat="43.935357919787585" lon="11.633332491401786"><ele>615.0</ele><time>2026-04-05T17:39:04Z</time></trkpt><trkpt lat="43.93539793266976" lon="11.633485045748607"><ele>619.0</ele><time>2026-04-05T17:39:05Z</time></trkpt><trkpt lat="43.93537821110884" lon="11.633635918477031"><ele>618.8</ele><time>2026-04-05T17:39:06Z</time></trkpt><trkpt lat="43.935390599969125" lon="11.633770482059541"><ele>618.5999999999999</ele><time>2026-04-05T17:39:07Z</time></trkpt><trkpt lat="43.93539601855554" lon="11.63390540593066"><ele>618.4</ele><time>2026-04-05T17:39:08Z</time></trkpt><trkpt lat="43.93543824357265" lon="11.634019828462108"><ele>618.1999999999999</ele><time>2026-04-05T17:39:09Z</time></trkpt><trkpt lat="43.9355156307618" lon="11.634116373032168"><ele>618.0</ele><time>2026-04-05T17:39:10Z</time></trkpt><trkpt lat="43.93562413367547" lon="11.634127842570782"><ele>618.0</ele><time>2026-04-05T17:39:11Z</time></trkpt><trkpt lat="43.93569307261202" lon="11.634166969957448"><ele>618.0</ele><time>2026-04-05T17:39:12Z</time></trkpt><trkpt lat="43.93573977036184" lon="11.634234169338464"><ele>618.0</ele><time>2026-04-05T17:39:13Z</time></trkpt><trkpt lat="43.93573992684543" lon="11.634336166936388"><ele>618.0</ele><time>2026-04-05T17:39:14Z</time></trkpt><trkpt lat="43.93568738384163" lon="11.634425793663285"><ele>618.0</ele><time>2026-04-05T17:39:15Z</time></trkpt><trkpt lat="43.93561278553668" lon="11.634473028081219"><ele>618.0</ele><time>2026-04-05T17:39:16Z</time></trkpt><trkpt lat="43.935528971211674" lon="11.634510893510418"><ele>620.4</ele><time>2026-04-05T17:39:17Z</time></trkpt><trkpt lat="43.93543850823857" lon="11.634556004636368"><ele>622.8</ele><time>2026-04-05T17:39:18Z</time></trkpt><trkpt lat="43.93533520785827" lon="11.634597577091009"><ele>625.2</ele><time>2026-04-05T17:39:19Z</time></trkpt><trkpt lat="43.93523901883042" lon="11.634625733577865"><ele>627.6</ele><time>2026-04-05T17:39:20Z</time></trkpt><trkpt lat="43.93513936496752" lon="11.634638019084072"><ele>630.0</ele><time>2026-04-05T17:39:21Z</time></trkpt><trkpt lat="43.93503497314335" lon="11.634633250644757"><ele>630.0</ele><time>2026-04-05T17:39:22Z</time></trkpt><trkpt lat="43.93493271479541" lon="11.63458370859774"><ele>630.0</ele><time>2026-04-05T17:39:23Z</time></trkpt><trkpt lat="43.9348342673829" lon="11.634493221026739"><ele>630.0</ele><time>2026-04-05T17:39:24Z</time></trkpt><trkpt lat="43.93475201712736" lon="11.634379457126467"><ele>630.0</ele><time>2026-04-05T17:39:24.999Z</time></trkpt><trkpt lat="43.93467535368818" lon="11.634290509600858"><ele>630.0</ele><time>2026-04-05T17:39:25.999Z</time></trkpt><trkpt lat="43.934594506033065" lon="11.634256272941652"><ele>630.0</ele><time>2026-04-05T17:39:26.999Z</time></trkpt><trkpt lat="43.93451011438519" lon="11.63428534334326"><ele>630.0</ele><time>2026-04-05T17:39:27.999Z</time></trkpt><trkpt lat="43.934452124542176" lon="11.634377124432012"><ele>630.0</ele><time>2026-04-05T17:39:28.999Z</time></trkpt><trkpt lat="43.934427949751324" lon="11.634495304862522"><ele>630.0</ele><time>2026-04-05T17:39:29.999Z</time></trkpt><trkpt lat="43.934415706198884" lon="11.63463631758001"><ele>630.0</ele><time>2026-04-05T17:39:30.999Z</time></trkpt><trkpt lat="43.93436849414974" lon="11.634780139943466"><ele>630.0</ele><time>2026-04-05T17:39:31.999Z</time></trkpt><trkpt lat="43.934336140790734" lon="11.634930503133415"><ele>630.0</ele><time>2026-04-05T17:39:32.999Z</time></trkpt><trkpt lat="43.934320070247715" lon="11.635078975333098"><ele>630.0</ele><time>2026-04-05T17:39:33.999Z</time></trkpt><trkpt lat="43.93429706617244" lon="11.635208637608775"><ele>630.0</ele><time>2026-04-05T17:39:34.999Z</time></trkpt><trkpt lat="43.93431941178311" lon="11.635317952950697"><ele>630.0</ele><time>2026-04-05T17:39:35.999Z</time></trkpt><trkpt lat="43.93438304577596" lon="11.635424794004631"><ele>631.5</ele><time>2026-04-05T17:39:36.999Z</time></trkpt><trkpt lat="43.934468388935834" lon="11.63553730454137"><ele>633.0</ele><time>2026-04-05T17:39:37.999Z</time></trkpt><trkpt lat="43.93454031084276" lon="11.635674489882632"><ele>634.5</ele><time>2026-04-05T17:39:38.999Z</time></trkpt><trkpt lat="43.934632842746375" lon="11.635779097249824"><ele>636.0</ele><time>2026-04-05T17:39:39.999Z</time></trkpt><trkpt lat="43.93470034863043" lon="11.635890047792156"><ele>636.0</ele><time>2026-04-05T17:39:40.999Z</time></trkpt><trkpt lat="43.93478246379848" lon="11.63595267773533"><ele>636.0</ele><time>2026-04-05T17:39:41.999Z</time></trkpt><trkpt lat="43.93488638759574" lon="11.635964219034745"><ele>636.0</ele><time>2026-04-05T17:39:42.999Z</time></trkpt><trkpt lat="43.93499156597649" lon="11.635904973487753"><ele>636.0</ele><time>2026-04-05T17:39:43.999Z</time></trkpt><trkpt lat="43.93510842345303" lon="11.635861636578717"><ele>636.0</ele><time>2026-04-05T17:39:44.999Z</time></trkpt><trkpt lat="43.93523342402461" lon="11.63583488871642"><ele>638.25</ele><time>2026-04-05T17:39:45.999Z</time></trkpt><trkpt lat="43.93536108070693" lon="11.635829676689568"><ele>640.5</ele><time>2026-04-05T17:39:46.999Z</time></trkpt><trkpt lat="43.93550612457396" lon="11.635821505067023"><ele>642.75</ele><time>2026-04-05T17:39:47.999Z</time></trkpt><trkpt lat="43.935655342491074" lon="11.635819823416337"><ele>645.0</ele><time>2026-04-05T17:39:48.999Z</time></trkpt><trkpt lat="43.93579906321025" lon="11.635854735131272"><ele>653.0</ele><time>2026-04-05T17:39:49.999Z</time></trkpt><trkpt lat="43.93594297704156" lon="11.635902238490837"><ele>661.0</ele><time>2026-04-05T17:39:50.999Z</time></trkpt><trkpt lat="43.936083489737236" lon="11.635983290860736"><ele>669.0</ele><time>2026-04-05T17:39:51.999Z</time></trkpt><trkpt lat="43.9362202469936" lon="11.636097716737027"><ele>667.5</ele><time>2026-04-05T17:39:52.999Z</time></trkpt><trkpt lat="43.93634511582273" lon="11.636219635813228"><ele>666.0</ele><time>2026-04-05T17:39:53.999Z</time></trkpt><trkpt lat="43.93644571270524" lon="11.636338467495044"><ele>664.5</ele><time>2026-04-05T17:39:54.999Z</time></trkpt><trkpt lat="43.936509528579144" lon="11.636458169464287"><ele>663.0</ele><time>2026-04-05T17:39:55.999Z</time></trkpt><trkpt lat="43.93653185347635" lon="11.636572377780299"><ele>663.0</ele><time>2026-04-05T17:39:56.999Z</time></trkpt><trkpt lat="43.93651439770306" lon="11.636716776904898"><ele>663.0</ele><time>2026-04-05T17:39:57.999Z</time></trkpt><trkpt lat="43.93647077675814" lon="11.636859552993077"><ele>663.0</ele><time>2026-04-05T17:39:58.999Z</time></trkpt><trkpt lat="43.9364239617924" lon="11.637008087337462"><ele>663.0</ele><time>2026-04-05T17:39:59.999Z</time></trkpt><trkpt lat="43.93633095881278" lon="11.637101400129657"><ele>663.0</ele><time>2026-04-05T17:40:00.999Z</time></trkpt><trkpt lat="43.93620228021253" lon="11.637102302866783"><ele>665.25</ele><time>2026-04-05T17:40:01.999Z</time></trkpt><trkpt lat="43.93606908265974" lon="11.637084361975782"><ele>667.5</ele><time>2026-04-05T17:40:02.999Z</time></trkpt><trkpt lat="43.93592852357728" lon="11.63708376692054"><ele>669.75</ele><time>2026-04-05T17:40:03.999Z</time></trkpt><trkpt lat="43.93578491637309" lon="11.637085827951045"><ele>672.0</ele><time>2026-04-05T17:40:04.999Z</time></trkpt><trkpt lat="43.93563988618554" lon="11.637105178514684"><ele>672.0</ele><time>2026-04-05T17:40:05.999Z</time></trkpt><trkpt lat="43.935494336582146" lon="11.637153799654996"><ele>672.0</ele><time>2026-04-05T17:40:06.999Z</time></trkpt><trkpt lat="43.93535315767309" lon="11.637244510531788"><ele>672.0</ele><time>2026-04-05T17:40:07.999Z</time></trkpt><trkpt lat="43.93523365005472" lon="11.637364758789943"><ele>672.0</ele><time>2026-04-05T17:40:08.999Z</time></trkpt><trkpt lat="43.93513919310435" lon="11.637479334725844"><ele>672.0</ele><time>2026-04-05T17:40:09.999Z</time></trkpt><trkpt lat="43.93506764896208" lon="11.637591410972542"><ele>672.0</ele><time>2026-04-05T17:40:10.999Z</time></trkpt><trkpt lat="43.93504189632735" lon="11.637724312123423"><ele>672.0</ele><time>2026-04-05T17:40:11.999Z</time></trkpt><trkpt lat="43.93506537618348" lon="11.637852516070419"><ele>672.0</ele><time>2026-04-05T17:40:12.999Z</time></trkpt><trkpt lat="43.93512954487539" lon="11.63799366249434"><ele>679.25</ele><time>2026-04-05T17:40:13.999Z</time></trkpt><trkpt lat="43.935168250301814" lon="11.638156183832589"><ele>686.5</ele><time>2026-04-05T17:40:14.999Z</time></trkpt><trkpt lat="43.935198543087076" lon="11.638327590847066"><ele>693.75</ele><time>2026-04-05T17:40:15.999Z</time></trkpt><trkpt lat="43.93520753223233" lon="11.638467922765797"><ele>701.0</ele><time>2026-04-05T17:40:16.999Z</time></trkpt><trkpt lat="43.93521002043387" lon="11.638620231208016"><ele>699.4</ele><time>2026-04-05T17:40:17.999Z</time></trkpt><trkpt lat="43.935209233090504" lon="11.638740806007432"><ele>697.8</ele><time>2026-04-05T17:40:18.999Z</time></trkpt><trkpt lat="43.93520072723272" lon="11.6388410011099"><ele>696.1999999999999</ele><time>2026-04-05T17:40:19.999Z</time></trkpt><trkpt lat="43.93512556210799" lon="11.638897920760929"><ele>694.5999999999999</ele><time>2026-04-05T17:40:21Z</time></trkpt><trkpt lat="43.93503407532973" lon="11.63889131242241"><ele>693.0</ele><time>2026-04-05T17:40:22Z</time></trkpt><trkpt lat="43.93494635638398" lon="11.638788061642868"><ele>693.0</ele><time>2026-04-05T17:40:23Z</time></trkpt><trkpt lat="43.93486028976995" lon="11.63869055958932"><ele>693.0</ele><time>2026-04-05T17:40:24Z</time></trkpt><trkpt lat="43.93477492688008" lon="11.638583442457834"><ele>693.0</ele><time>2026-04-05T17:40:25Z</time></trkpt><trkpt lat="43.93467021606743" lon="11.638504781564102"><ele>693.0</ele><time>2026-04-05T17:40:26Z</time></trkpt><trkpt lat="43.9345476988009" lon="11.638455536561317"><ele>689.0</ele><time>2026-04-05T17:40:27Z</time></trkpt><trkpt lat="43.9344222653905" lon="11.638427982041836"><ele>685.0</ele><time>2026-04-05T17:40:28Z</time></trkpt><trkpt lat="43.93430332255427" lon="11.638415173156806"><ele>681.0</ele><time>2026-04-05T17:40:29Z</time></trkpt><trkpt lat="43.934184417342784" lon="11.638423642989386"><ele>677.0</ele><time>2026-04-05T17:40:30Z</time></trkpt><trkpt lat="43.934061330669486" lon="11.638444156070356"><ele>675.6</ele><time>2026-04-05T17:40:31Z</time></trkpt><trkpt lat="43.93395398198672" lon="11.63848147670481"><ele>674.2</ele><time>2026-04-05T17:40:32Z</time></trkpt><trkpt lat="43.9338605881226" lon="11.638543349386532"><ele>672.8</ele><time>2026-04-05T17:40:33Z</time></trkpt><trkpt lat="43.93380181628895" lon="11.63864928386564"><ele>671.4</ele><time>2026-04-05T17:40:34Z</time></trkpt><trkpt lat="43.93376806496135" lon="11.638791038024948"><ele>670.0</ele><time>2026-04-05T17:40:35Z</time></trkpt><trkpt lat="43.93372392670454" lon="11.638930836803224"><ele>677.0</ele><time>2026-04-05T17:40:36Z</time></trkpt><trkpt lat="43.93368107782385" lon="11.639086664151971"><ele>684.0</ele><time>2026-04-05T17:40:37Z</time></trkpt><trkpt lat="43.933630414416854" lon="11.63924142032887"><ele>691.0</ele><time>2026-04-05T17:40:38Z</time></trkpt><trkpt lat="43.933571263424774" lon="11.639414574372484"><ele>698.0</ele><time>2026-04-05T17:40:39Z</time></trkpt><trkpt lat="43.93350721706622" lon="11.639553780545523"><ele>699.5999999999999</ele><time>2026-04-05T17:40:40Z</time></trkpt><trkpt lat="43.93343968536983" lon="11.639664070713788"><ele>701.1999999999999</ele><time>2026-04-05T17:40:41Z</time></trkpt><trkpt lat="43.93337000979855" lon="11.639787364753342"><ele>702.8</ele><time>2026-04-05T17:40:42Z</time></trkpt><trkpt lat="43.93333007695616" lon="11.639932505767518"><ele>704.4</ele><time>2026-04-05T17:40:43Z</time></trkpt><trkpt lat="43.93336000642045" lon="11.640086275117573"><ele>706.0</ele><time>2026-04-05T17:40:44Z</time></trkpt><trkpt lat="43.93333276667745" lon="11.640176752465928"><ele>706.0</ele><time>2026-04-05T17:40:45Z</time></trkpt><trkpt lat="43.93331997699111" lon="11.640273682981718"><ele>706.0</ele><time>2026-04-05T17:40:46Z</time></trkpt><trkpt lat="43.933249871019356" lon="11.640315412534548"><ele>706.0</ele><time>2026-04-05T17:40:47Z</time></trkpt><trkpt lat="43.93316546439981" lon="11.640281506370204"><ele>706.0</ele><time>2026-04-05T17:40:48Z</time></trkpt><trkpt lat="43.93310306129736" lon="11.640184755095534"><ele>706.0</ele><time>2026-04-05T17:40:49Z</time></trkpt><trkpt lat="43.93305199755599" lon="11.640071286415063"><ele>706.0</ele><time>2026-04-05T17:40:50Z</time></trkpt><trkpt lat="43.933008008258675" lon="11.639956699794338"><ele>706.0</ele><time>2026-04-05T17:40:51Z</time></trkpt><trkpt lat="43.932958731235814" lon="11.639840532753288"><ele>706.0</ele><time>2026-04-05T17:40:52Z</time></trkpt><trkpt lat="43.93291595089999" lon="11.639710959787857"><ele>706.0</ele><time>2026-04-05T17:40:53Z</time></trkpt><trkpt lat="43.932896830499956" lon="11.639560686310453"><ele>706.0</ele><time>2026-04-05T17:40:54Z</time></trkpt><trkpt lat="43.932901193426034" lon="11.639414051008595"><ele>706.0</ele><time>2026-04-05T17:40:55Z</time></trkpt><trkpt lat="43.93290478885435" lon="11.639283327950412"><ele>703.1999999999999</ele><time>2026-04-05T17:40:56Z</time></trkpt><trkpt lat="43.932884206149055" lon="11.639166943150709"><ele>700.4</ele><time>2026-04-05T17:40:57Z</time></trkpt><trkpt lat="43.9328459765303" lon="11.639040332319594"><ele>697.6</ele><time>2026-04-05T17:40:58Z</time></trkpt><trkpt lat="43.93279236303057" lon="11.638920239148732"><ele>694.8</ele><time>2026-04-05T17:40:59Z</time></trkpt><trkpt lat="43.93272826194479" lon="11.638793418644113"><ele>692.0</ele><time>2026-04-05T17:41:00Z</time></trkpt><trkpt lat="43.93265974494238" lon="11.63868360580751"><ele>694.4000000000001</ele><time>2026-04-05T17:41:01Z</time></trkpt><trkpt lat="43.932578611788436" lon="11.638577846736911"><ele>696.8000000000001</ele><time>2026-04-05T17:41:02Z</time></trkpt><trkpt lat="43.932502098046754" lon="11.63847305125773"><ele>699.2</ele><time>2026-04-05T17:41:03Z</time></trkpt><trkpt lat="43.93242482832443" lon="11.638361979902031"><ele>701.6</ele><time>2026-04-05T17:41:04Z</time></trkpt><trkpt lat="43.93235396072746" lon="11.638253964233076"><ele>704.0</ele><time>2026-04-05T17:41:05Z</time></trkpt><trkpt lat="43.932286491241896" lon="11.638135856858842"><ele>704.0</ele><time>2026-04-05T17:41:06Z</time></trkpt><trkpt lat="43.93222928828238" lon="11.638000908500599"><ele>704.0</ele><time>2026-04-05T17:41:07Z</time></trkpt><trkpt lat="43.932195478328104" lon="11.637849333745935"><ele>704.0</ele><time>2026-04-05T17:41:08Z</time></trkpt><trkpt lat="43.93218007239278" lon="11.637699466607343"><ele>704.0</ele><time>2026-04-05T17:41:09Z</time></trkpt><trkpt lat="43.93216781122451" lon="11.637551809893719"><ele>704.0</ele><time>2026-04-05T17:41:10Z</time></trkpt><trkpt lat="43.932158979676544" lon="11.637417930461263"><ele>701.8333333333333</ele><time>2026-04-05T17:41:11Z</time></trkpt><trkpt lat="43.93213676870075" lon="11.63729704601803"><ele>699.6666666666666</ele><time>2026-04-05T17:41:12Z</time></trkpt><trkpt lat="43.93209912778615" lon="11.637218833823901"><ele>697.5</ele><time>2026-04-05T17:41:13Z</time></trkpt><trkpt lat="43.93203961067299" lon="11.637178540401164"><ele>695.3333333333334</ele><time>2026-04-05T17:41:14Z</time></trkpt><trkpt lat="43.93196951829924" lon="11.637172962186598"><ele>693.1666666666667</ele><time>2026-04-05T17:41:15Z</time></trkpt><trkpt lat="43.93190818609585" lon="11.637253896988593"><ele>691.0</ele><time>2026-04-05T17:41:16Z</time></trkpt><trkpt lat="43.93189875119765" lon="11.637362198421085"><ele>691.0</ele><time>2026-04-05T17:41:17Z</time></trkpt><trkpt lat="43.931907996601" lon="11.637460046153803"><ele>691.0</ele><time>2026-04-05T17:41:18Z</time></trkpt><trkpt lat="43.931891219041006" lon="11.637591207357731"><ele>691.0</ele><time>2026-04-05T17:41:20Z</time></trkpt><trkpt lat="43.93188582267051" lon="11.637689172660815"><ele>691.0</ele><time>2026-04-05T17:41:22Z</time></trkpt><trkpt lat="43.93189346953283" lon="11.637781236876439"><ele>691.0</ele><time>2026-04-05T17:42:28Z</time></trkpt><trkpt lat="43.931866669295395" lon="11.637885074822302"><ele>691.0</ele><time>2026-04-05T17:42:39Z</time></trkpt><trkpt lat="43.93185414565" lon="11.637978872586386"><ele>694.25</ele><time>2026-04-05T17:42:40Z</time></trkpt><trkpt lat="43.93183668013437" lon="11.638099176433641"><ele>697.5</ele><time>2026-04-05T17:42:41Z</time></trkpt><trkpt lat="43.931819346511695" lon="11.638219449193468"><ele>700.75</ele><time>2026-04-05T17:42:42Z</time></trkpt><trkpt lat="43.93178172332842" lon="11.6384448696971"><ele>704.0</ele><time>2026-04-05T17:42:44Z</time></trkpt><trkpt lat="43.93174404810027" lon="11.638588722670514"><ele>704.8000000000001</ele><time>2026-04-05T17:42:45Z</time></trkpt><trkpt lat="43.93169516614191" lon="11.638735137412956"><ele>705.6</ele><time>2026-04-05T17:42:46Z</time></trkpt><trkpt lat="43.93164836980146" lon="11.638875930168266"><ele>706.4</ele><time>2026-04-05T17:42:47Z</time></trkpt><trkpt lat="43.931603419220735" lon="11.639014628365237"><ele>707.2</ele><time>2026-04-05T17:42:48Z</time></trkpt><trkpt lat="43.93157270537922" lon="11.639149596961694"><ele>708.0</ele><time>2026-04-05T17:42:49Z</time></trkpt><trkpt lat="43.931563721525606" lon="11.639293184258735"><ele>708.0</ele><time>2026-04-05T17:42:50Z</time></trkpt><trkpt lat="43.931614808942996" lon="11.639450363601853"><ele>708.0</ele><time>2026-04-05T17:42:51Z</time></trkpt><trkpt lat="43.93167379205436" lon="11.639610889637437"><ele>708.0</ele><time>2026-04-05T17:42:52Z</time></trkpt><trkpt lat="43.9317254957952" lon="11.639793281056129"><ele>708.0</ele><time>2026-04-05T17:42:53Z</time></trkpt><trkpt lat="43.931786349387295" lon="11.639978944168904"><ele>711.75</ele><time>2026-04-05T17:42:54Z</time></trkpt><trkpt lat="43.931849499089985" lon="11.640174608926609"><ele>715.5</ele><time>2026-04-05T17:42:55Z</time></trkpt><trkpt lat="43.93191607196327" lon="11.640345940314354"><ele>719.25</ele><time>2026-04-05T17:42:56Z</time></trkpt><trkpt lat="43.931978241953054" lon="11.640513135221553"><ele>723.0</ele><time>2026-04-05T17:42:57Z</time></trkpt><trkpt lat="43.932061241580705" lon="11.640663900755927"><ele>724.5</ele><time>2026-04-05T17:42:58Z</time></trkpt><trkpt lat="43.932165862794356" lon="11.640779981798383"><ele>726.0</ele><time>2026-04-05T17:42:59Z</time></trkpt><trkpt lat="43.93226310375022" lon="11.640901554270394"><ele>727.5</ele><time>2026-04-05T17:43:00Z</time></trkpt><trkpt lat="43.93230690125687" lon="11.641071760510023"><ele>729.0</ele><time>2026-04-05T17:43:01Z</time></trkpt><trkpt lat="43.93230299649195" lon="11.641259260117579"><ele>733.25</ele><time>2026-04-05T17:43:02Z</time></trkpt><trkpt lat="43.93229148891157" lon="11.641449223195202"><ele>737.5</ele><time>2026-04-05T17:43:03Z</time></trkpt><trkpt lat="43.93225905599344" lon="11.641610487850835"><ele>741.75</ele><time>2026-04-05T17:43:04Z</time></trkpt><trkpt lat="43.93219995773674" lon="11.64173384505103"><ele>746.0</ele><time>2026-04-05T17:43:05Z</time></trkpt><trkpt lat="43.93209041434724" lon="11.641868333024828"><ele>750.5</ele><time>2026-04-05T17:43:06Z</time></trkpt><trkpt lat="43.93199119223899" lon="11.641981978620702"><ele>755.0</ele><time>2026-04-05T17:43:07Z</time></trkpt><trkpt lat="43.93191720796096" lon="11.6421051896877"><ele>759.5</ele><time>2026-04-05T17:43:08Z</time></trkpt><trkpt lat="43.93184868694156" lon="11.64224765203724"><ele>764.0</ele><time>2026-04-05T17:43:09Z</time></trkpt><trkpt lat="43.931820116831794" lon="11.642436893936956"><ele>764.0</ele><time>2026-04-05T17:43:10Z</time></trkpt><trkpt lat="43.93180555844953" lon="11.642641436051129"><ele>764.0</ele><time>2026-04-05T17:43:11Z</time></trkpt><trkpt lat="43.93186207869869" lon="11.642808474279763"><ele>764.0</ele><time>2026-04-05T17:43:12Z</time></trkpt><trkpt lat="43.93193316010834" lon="11.642975880529935"><ele>764.0</ele><time>2026-04-05T17:43:13Z</time></trkpt><trkpt lat="43.9320138014157" lon="11.643152616842524"><ele>765.75</ele><time>2026-04-05T17:43:14Z</time></trkpt><trkpt lat="43.93208055899918" lon="11.643315491204334"><ele>767.5</ele><time>2026-04-05T17:43:15Z</time></trkpt><trkpt lat="43.93210913521707" lon="11.643477482597152"><ele>769.25</ele><time>2026-04-05T17:43:16Z</time></trkpt><trkpt lat="43.93209852449466" lon="11.643623734462684"><ele>771.0</ele><time>2026-04-05T17:43:17Z</time></trkpt><trkpt lat="43.932054004015654" lon="11.643774813782384"><ele>772.5</ele><time>2026-04-05T17:43:18Z</time></trkpt><trkpt lat="43.93199983648384" lon="11.643950678989166"><ele>774.0</ele><time>2026-04-05T17:43:19Z</time></trkpt><trkpt lat="43.93199917828473" lon="11.644103142005852"><ele>775.5</ele><time>2026-04-05T17:43:20Z</time></trkpt><trkpt lat="43.93199835191999" lon="11.64424350777392"><ele>777.0</ele><time>2026-04-05T17:43:21Z</time></trkpt><trkpt lat="43.93196659504411" lon="11.644381132430233"><ele>777.0</ele><time>2026-04-05T17:43:22Z</time></trkpt><trkpt lat="43.931876184097085" lon="11.644448431046365"><ele>777.0</ele><time>2026-04-05T17:43:23Z</time></trkpt><trkpt lat="43.93175781783699" lon="11.644465795788301"><ele>777.0</ele><time>2026-04-05T17:43:24Z</time></trkpt><trkpt lat="43.93166352144613" lon="11.644491147850143"><ele>777.0</ele><time>2026-04-05T17:43:25Z</time></trkpt><trkpt lat="43.93157109902288" lon="11.644517405676716"><ele>777.0</ele><time>2026-04-05T17:43:26Z</time></trkpt><trkpt lat="43.931473255721095" lon="11.644535326497586"><ele>772.8</ele><time>2026-04-05T17:43:27Z</time></trkpt><trkpt lat="43.93138011910267" lon="11.644571219524776"><ele>768.6</ele><time>2026-04-05T17:43:28Z</time></trkpt><trkpt lat="43.931318831462534" lon="11.644648411551811"><ele>764.4</ele><time>2026-04-05T17:43:29Z</time></trkpt><trkpt lat="43.93130042198104" lon="11.64476634236682"><ele>760.1999999999999</ele><time>2026-04-05T17:43:30Z</time></trkpt><trkpt lat="43.93132558901418" lon="11.644906659497622"><ele>756.0</ele><time>2026-04-05T17:43:31Z</time></trkpt><trkpt lat="43.93135520563294" lon="11.645065805725984"><ele>756.0</ele><time>2026-04-05T17:43:32Z</time></trkpt><trkpt lat="43.93136110455062" lon="11.645241195599036"><ele>756.0</ele><time>2026-04-05T17:43:33Z</time></trkpt><trkpt lat="43.93134803849855" lon="11.64542250537461"><ele>756.0</ele><time>2026-04-05T17:43:34Z</time></trkpt><trkpt lat="43.93132938224617" lon="11.645587787526887"><ele>756.0</ele><time>2026-04-05T17:43:35Z</time></trkpt><trkpt lat="43.93133596428242" lon="11.645733735856817"><ele>755.5999999999999</ele><time>2026-04-05T17:43:36Z</time></trkpt><trkpt lat="43.931362300879854" lon="11.645854317830516"><ele>755.2</ele><time>2026-04-05T17:43:37Z</time></trkpt><trkpt lat="43.93146283058517" lon="11.645901518232671"><ele>754.8</ele><time>2026-04-05T17:43:38Z</time></trkpt><trkpt lat="43.931566699701186" lon="11.645901051871776"><ele>754.4000000000001</ele><time>2026-04-05T17:43:39Z</time></trkpt><trkpt lat="43.93166806754501" lon="11.645902753344556"><ele>754.0</ele><time>2026-04-05T17:43:40Z</time></trkpt><trkpt lat="43.93178331664745" lon="11.645977208918383"><ele>756.5</ele><time>2026-04-05T17:43:41Z</time></trkpt><trkpt lat="43.931893576211756" lon="11.646074607377484"><ele>759.0</ele><time>2026-04-05T17:43:41.999Z</time></trkpt><trkpt lat="43.93203342060223" lon="11.646169806809905"><ele>761.5</ele><time>2026-04-05T17:43:42.999Z</time></trkpt><trkpt lat="43.932177031417154" lon="11.64626515656269"><ele>764.0</ele><time>2026-04-05T17:43:43.999Z</time></trkpt><trkpt lat="43.93232956009949" lon="11.646339964366698"><ele>764.0</ele><time>2026-04-05T17:43:44.999Z</time></trkpt><trkpt lat="43.93245714921644" lon="11.646370003760829"><ele>764.0</ele><time>2026-04-05T17:43:45.999Z</time></trkpt><trkpt lat="43.93255568470571" lon="11.646412741259558"><ele>764.0</ele><time>2026-04-05T17:43:46.999Z</time></trkpt><trkpt lat="43.93262427128719" lon="11.646489812226998"><ele>764.0</ele><time>2026-04-05T17:43:47.999Z</time></trkpt><trkpt lat="43.93264576020416" lon="11.646610548378199"><ele>764.0</ele><time>2026-04-05T17:43:48.999Z</time></trkpt><trkpt lat="43.93261104631873" lon="11.646739273887496"><ele>764.0</ele><time>2026-04-05T17:43:49.999Z</time></trkpt><trkpt lat="43.93254336178874" lon="11.64685281927991"><ele>764.0</ele><time>2026-04-05T17:43:50.999Z</time></trkpt><trkpt lat="43.932444431646346" lon="11.646931352792787"><ele>764.0</ele><time>2026-04-05T17:43:51.999Z</time></trkpt><trkpt lat="43.93234781597614" lon="11.64700567090703"><ele>764.0</ele><time>2026-04-05T17:43:52.999Z</time></trkpt><trkpt lat="43.932273287589716" lon="11.64707866696277"><ele>764.0</ele><time>2026-04-05T17:43:53.999Z</time></trkpt><trkpt lat="43.93223223296514" lon="11.647185820989975"><ele>763.2</ele><time>2026-04-05T17:43:54.999Z</time></trkpt><trkpt lat="43.93223624504768" lon="11.647315341107241"><ele>762.4000000000001</ele><time>2026-04-05T17:43:55.999Z</time></trkpt><trkpt lat="43.93229122669657" lon="11.647426920134942"><ele>761.6</ele><time>2026-04-05T17:43:56.999Z</time></trkpt><trkpt lat="43.93237187470474" lon="11.64751662248027"><ele>760.8</ele><time>2026-04-05T17:43:57.999Z</time></trkpt><trkpt lat="43.93248695676656" lon="11.64749722228319"><ele>760.0</ele><time>2026-04-05T17:43:58.999Z</time></trkpt><trkpt lat="43.932577135882894" lon="11.647421928456023"><ele>764.5</ele><time>2026-04-05T17:43:59.999Z</time></trkpt><trkpt lat="43.932629190549875" lon="11.647292338323242"><ele>769.0</ele><time>2026-04-05T17:44:00.999Z</time></trkpt><trkpt lat="43.932649877545614" lon="11.647131650054959"><ele>773.5</ele><time>2026-04-05T17:44:01.999Z</time></trkpt><trkpt lat="43.932668605425825" lon="11.646969906367652"><ele>778.0</ele><time>2026-04-05T17:44:02.999Z</time></trkpt><trkpt lat="43.932720621540476" lon="11.646821511308236"><ele>781.4</ele><time>2026-04-05T17:44:03.999Z</time></trkpt><trkpt lat="43.932803303381235" lon="11.64669131202324"><ele>784.8</ele><time>2026-04-05T17:44:04.999Z</time></trkpt><trkpt lat="43.93288971342978" lon="11.646575441147949"><ele>788.2</ele><time>2026-04-05T17:44:05.999Z</time></trkpt><trkpt lat="43.93295769633505" lon="11.646454583849"><ele>791.6</ele><time>2026-04-05T17:44:06.999Z</time></trkpt><trkpt lat="43.932970971838365" lon="11.646336546546674"><ele>795.0</ele><time>2026-04-05T17:44:07.999Z</time></trkpt><trkpt lat="43.93292199777163" lon="11.646223375933424"><ele>795.0</ele><time>2026-04-05T17:44:08.999Z</time></trkpt><trkpt lat="43.932840491021395" lon="11.646137630235994"><ele>795.0</ele><time>2026-04-05T17:44:09.999Z</time></trkpt><trkpt lat="43.932728468078146" lon="11.646080475594776"><ele>795.0</ele><time>2026-04-05T17:44:10.999Z</time></trkpt><trkpt lat="43.932614457499426" lon="11.64601790843007"><ele>795.0</ele><time>2026-04-05T17:44:11.999Z</time></trkpt><trkpt lat="43.93250621396253" lon="11.645936339408195"><ele>793.0</ele><time>2026-04-05T17:44:12.999Z</time></trkpt><trkpt lat="43.932392810863675" lon="11.645838797009766"><ele>791.0</ele><time>2026-04-05T17:44:13.999Z</time></trkpt><trkpt lat="43.93227527626961" lon="11.645733970304825"><ele>789.0</ele><time>2026-04-05T17:44:14.999Z</time></trkpt><trkpt lat="43.932170629874484" lon="11.645634040241493"><ele>787.0</ele><time>2026-04-05T17:44:15.999Z</time></trkpt><trkpt lat="43.93208821522035" lon="11.645547645326364"><ele>786.9999999999999</ele><time>2026-04-05T17:44:16.999Z</time></trkpt><trkpt lat="43.93203961284292" lon="11.645465753004128"><ele>787.0</ele><time>2026-04-05T17:44:17.999Z</time></trkpt><trkpt lat="43.932032033842816" lon="11.645366190426246"><ele>787.0</ele><time>2026-04-05T17:44:18.999Z</time></trkpt><trkpt lat="43.93207083878036" lon="11.645259722508188"><ele>787.0</ele><time>2026-04-05T17:44:19.999Z</time></trkpt><trkpt lat="43.93214148207855" lon="11.645187006618109"><ele>786.9999999999999</ele><time>2026-04-05T17:44:20.999Z</time></trkpt><trkpt lat="43.932250235415935" lon="11.645180996410827"><ele>787.0</ele><time>2026-04-05T17:44:21.999Z</time></trkpt><trkpt lat="43.93236069204029" lon="11.645123150835303"><ele>788.25</ele><time>2026-04-05T17:44:22.999Z</time></trkpt><trkpt lat="43.9324763047612" lon="11.645051211305187"><ele>789.5</ele><time>2026-04-05T17:44:23.999Z</time></trkpt><trkpt lat="43.93257545119457" lon="11.64493955484218"><ele>790.75</ele><time>2026-04-05T17:44:24.999Z</time></trkpt><trkpt lat="43.932687132504256" lon="11.644823859935057"><ele>792.0</ele><time>2026-04-05T17:44:25.999Z</time></trkpt><trkpt lat="43.93277656332358" lon="11.644700666643212"><ele>800.5</ele><time>2026-04-05T17:44:26.999Z</time></trkpt><trkpt lat="43.9328541952842" lon="11.644584373908604"><ele>809.0</ele><time>2026-04-05T17:44:27.999Z</time></trkpt><trkpt lat="43.93286143405066" lon="11.644403078496447"><ele>817.5</ele><time>2026-04-05T17:44:28.999Z</time></trkpt><trkpt lat="43.93285154470068" lon="11.644228803589998"><ele>826.0</ele><time>2026-04-05T17:44:29.999Z</time></trkpt><trkpt lat="43.93287003086566" lon="11.644027572870877"><ele>826.0</ele><time>2026-04-05T17:44:30.999Z</time></trkpt><trkpt lat="43.93294333896326" lon="11.643874891775557"><ele>826.0</ele><time>2026-04-05T17:44:31.999Z</time></trkpt><trkpt lat="43.93299583223936" lon="11.643698366751403"><ele>826.0</ele><time>2026-04-05T17:44:33Z</time></trkpt><trkpt lat="43.93304519394802" lon="11.643520918599998"><ele>826.0</ele><time>2026-04-05T17:44:34Z</time></trkpt><trkpt lat="43.933055772722746" lon="11.643338315804623"><ele>822.0</ele><time>2026-04-05T17:44:35Z</time></trkpt><trkpt lat="43.93302684792398" lon="11.643169625796663"><ele>818.0</ele><time>2026-04-05T17:44:36Z</time></trkpt><trkpt lat="43.93299137488674" lon="11.643007124303344"><ele>814.0</ele><time>2026-04-05T17:44:37Z</time></trkpt><trkpt lat="43.932966399463815" lon="11.642887628173339"><ele>810.0</ele><time>2026-04-05T17:44:38Z</time></trkpt><trkpt lat="43.93302476194567" lon="11.642751602891368"><ele>810.0</ele><time>2026-04-05T17:44:40Z</time></trkpt><trkpt lat="43.93309405873605" lon="11.642758645918153"><ele>810.0</ele><time>2026-04-05T17:44:41Z</time></trkpt><trkpt lat="43.93315055369949" lon="11.642846762732617"><ele>810.0</ele><time>2026-04-05T17:44:42Z</time></trkpt><trkpt lat="43.933192170371214" lon="11.64295925093234"><ele>810.0</ele><time>2026-04-05T17:44:43Z</time></trkpt><trkpt lat="43.9332532571202" lon="11.643062373903874"><ele>810.0</ele><time>2026-04-05T17:44:44Z</time></trkpt><trkpt lat="43.93333382889005" lon="11.643162653544842"><ele>809.0</ele><time>2026-04-05T17:44:45Z</time></trkpt><trkpt lat="43.93339963808833" lon="11.643280348744865"><ele>808.0</ele><time>2026-04-05T17:44:46Z</time></trkpt><trkpt lat="43.93346649435707" lon="11.643395488831658"><ele>807.0</ele><time>2026-04-05T17:44:47Z</time></trkpt><trkpt lat="43.933545243857296" lon="11.643505203976828"><ele>806.0</ele><time>2026-04-05T17:44:48Z</time></trkpt><trkpt lat="43.933634778056714" lon="11.64361739349194"><ele>805.0</ele><time>2026-04-05T17:44:49Z</time></trkpt><trkpt lat="43.933740557236774" lon="11.643724365539969"><ele>814.0</ele><time>2026-04-05T17:44:50Z</time></trkpt><trkpt lat="43.933874156979016" lon="11.643839157930056"><ele>823.0</ele><time>2026-04-05T17:44:51Z</time></trkpt><trkpt lat="43.934006980885" lon="11.643965614362068"><ele>832.0</ele><time>2026-04-05T17:44:52Z</time></trkpt><trkpt lat="43.934142862577" lon="11.644111183057413"><ele>828.3333333333333</ele><time>2026-04-05T17:44:53Z</time></trkpt><trkpt lat="43.934282504590534" lon="11.64425645158129"><ele>824.6666666666667</ele><time>2026-04-05T17:44:54Z</time></trkpt><trkpt lat="43.934430379067514" lon="11.644387178204987"><ele>821.0</ele><time>2026-04-05T17:44:55Z</time></trkpt><trkpt lat="43.93459688725758" lon="11.644486099860805"><ele>833.0</ele><time>2026-04-05T17:44:56Z</time></trkpt><trkpt lat="43.93477491042964" lon="11.644544336420987"><ele>845.0</ele><time>2026-04-05T17:44:57Z</time></trkpt><trkpt lat="43.93493427092688" lon="11.644621622951465"><ele>857.0</ele><time>2026-04-05T17:44:58Z</time></trkpt><trkpt lat="43.93507803930086" lon="11.644673413045386"><ele>858.75</ele><time>2026-04-05T17:44:59Z</time></trkpt><trkpt lat="43.93519777728618" lon="11.644737700958574"><ele>860.5</ele><time>2026-04-05T17:45:00Z</time></trkpt><trkpt lat="43.93533759377941" lon="11.64471278051783"><ele>862.25</ele><time>2026-04-05T17:45:01Z</time></trkpt><trkpt lat="43.93541355899239" lon="11.644583855995348"><ele>864.0</ele><time>2026-04-05T17:45:02Z</time></trkpt><trkpt lat="43.93552630343178" lon="11.644508447661535"><ele>864.0</ele><time>2026-04-05T17:45:03Z</time></trkpt><trkpt lat="43.93564003360803" lon="11.644499191605698"><ele>864.0000000000001</ele><time>2026-04-05T17:45:04Z</time></trkpt><trkpt lat="43.93573348300287" lon="11.644548689446252"><ele>864.0000000000001</ele><time>2026-04-05T17:45:05Z</time></trkpt><trkpt lat="43.935798263518244" lon="11.644678670418914"><ele>864.0</ele><time>2026-04-05T17:45:06Z</time></trkpt><trkpt lat="43.93588291038108" lon="11.644752006607316"><ele>864.0</ele><time>2026-04-05T17:45:07Z</time></trkpt><trkpt lat="43.935979601222016" lon="11.644742710935496"><ele>866.25</ele><time>2026-04-05T17:45:08Z</time></trkpt><trkpt lat="43.936070670859294" lon="11.644722264367475"><ele>868.5</ele><time>2026-04-05T17:45:09Z</time></trkpt><trkpt lat="43.93612468969288" lon="11.644546590581381"><ele>870.75</ele><time>2026-04-05T17:45:10Z</time></trkpt><trkpt lat="43.93616662903256" lon="11.64437616067505"><ele>873.0</ele><time>2026-04-05T17:45:11Z</time></trkpt><trkpt lat="43.93620964035716" lon="11.64416770472188"><ele>873.0</ele><time>2026-04-05T17:45:12Z</time></trkpt><trkpt lat="43.93624799530208" lon="11.643985652482055"><ele>873.0</ele><time>2026-04-05T17:45:13Z</time></trkpt><trkpt lat="43.93626291483651" lon="11.643821179983126"><ele>873.0</ele><time>2026-04-05T17:45:14Z</time></trkpt><trkpt lat="43.93622588326899" lon="11.643686566378529"><ele>873.0</ele><time>2026-04-05T17:45:15Z</time></trkpt><trkpt lat="43.936145121043246" lon="11.643552338446383"><ele>870.6666666666666</ele><time>2026-04-05T17:45:16Z</time></trkpt><trkpt lat="43.93604940578706" lon="11.643492139887158"><ele>868.3333333333333</ele><time>2026-04-05T17:45:17Z</time></trkpt><trkpt lat="43.935978235633414" lon="11.643411727737462"><ele>866.0</ele><time>2026-04-05T17:45:18Z</time></trkpt><trkpt lat="43.93594063502816" lon="11.643319100250341"><ele>863.6666666666666</ele><time>2026-04-05T17:45:19Z</time></trkpt><trkpt lat="43.9359305538372" lon="11.643207089920475"><ele>861.3333333333333</ele><time>2026-04-05T17:45:20Z</time></trkpt><trkpt lat="43.93597299653563" lon="11.643102747564555"><ele>859.0</ele><time>2026-04-05T17:45:21Z</time></trkpt><trkpt lat="43.93605425880328" lon="11.643055518416134"><ele>859.0</ele><time>2026-04-05T17:45:22Z</time></trkpt><trkpt lat="43.93614178574055" lon="11.643089085733846"><ele>859.0000000000001</ele><time>2026-04-05T17:45:23Z</time></trkpt><trkpt lat="43.93620741904978" lon="11.643184495955579"><ele>859.0000000000001</ele><time>2026-04-05T17:45:24Z</time></trkpt><trkpt lat="43.93624789147729" lon="11.643313129060509"><ele>859.0</ele><time>2026-04-05T17:45:25Z</time></trkpt><trkpt lat="43.93626005485025" lon="11.64345539572148"><ele>859.0</ele><time>2026-04-05T17:45:26Z</time></trkpt><trkpt lat="43.93625508881941" lon="11.643583744546445"><ele>863.6666666666666</ele><time>2026-04-05T17:45:27Z</time></trkpt><trkpt lat="43.93641937003417" lon="11.643777970763184"><ele>868.3333333333333</ele><time>2026-04-05T17:45:28Z</time></trkpt><trkpt lat="43.93644731175221" lon="11.64397295251888"><ele>873.0</ele><time>2026-04-05T17:45:29Z</time></trkpt><trkpt lat="43.93647984299657" lon="11.64418924619997"><ele>873.0</ele><time>2026-04-05T17:45:30Z</time></trkpt><trkpt lat="43.93652559561662" lon="11.644412326479518"><ele>873.0</ele><time>2026-04-05T17:45:31Z</time></trkpt><trkpt lat="43.93660522488037" lon="11.644627499126841"><ele>873.0</ele><time>2026-04-05T17:45:32Z</time></trkpt><trkpt lat="43.93668584961708" lon="11.64478954110156"><ele>873.8</ele><time>2026-04-05T17:45:33Z</time></trkpt><trkpt lat="43.93673786514941" lon="11.644940205479617"><ele>874.5999999999999</ele><time>2026-04-05T17:45:34Z</time></trkpt><trkpt lat="43.93675655158127" lon="11.64507890086544"><ele>875.4000000000001</ele><time>2026-04-05T17:45:35Z</time></trkpt><trkpt lat="43.93668143480493" lon="11.64517439613958"><ele>876.2</ele><time>2026-04-05T17:45:36Z</time></trkpt><trkpt lat="43.93658824661913" lon="11.645186527913909"><ele>877.0</ele><time>2026-04-05T17:45:37Z</time></trkpt><trkpt lat="43.93647749000756" lon="11.645206413543677"><ele>877.0</ele><time>2026-04-05T17:45:38Z</time></trkpt><trkpt lat="43.936344738896395" lon="11.64524879437303"><ele>877.0</ele><time>2026-04-05T17:45:39Z</time></trkpt><trkpt lat="43.936200461021876" lon="11.64529604862322"><ele>877.0</ele><time>2026-04-05T17:45:40Z</time></trkpt><trkpt lat="43.936052325718975" lon="11.645361553126175"><ele>877.0</ele><time>2026-04-05T17:45:41Z</time></trkpt><trkpt lat="43.93589978559431" lon="11.645419203542074"><ele>880.3333333333333</ele><time>2026-04-05T17:45:42Z</time></trkpt><trkpt lat="43.93573854304203" lon="11.645472048008997"><ele>883.6666666666667</ele><time>2026-04-05T17:45:43Z</time></trkpt><trkpt lat="43.93558946922643" lon="11.645568116644805"><ele>887.0</ele><time>2026-04-05T17:45:43.999Z</time></trkpt><trkpt lat="43.935452022597815" lon="11.645650172672836"><ele>887.0</ele><time>2026-04-05T17:45:44.999Z</time></trkpt><trkpt lat="43.93531241643691" lon="11.64567936482347"><ele>887.0</ele><time>2026-04-05T17:45:45.999Z</time></trkpt><trkpt lat="43.93518123604318" lon="11.645681383053825"><ele>887.0</ele><time>2026-04-05T17:45:46.999Z</time></trkpt><trkpt lat="43.935071876719995" lon="11.64567771285984"><ele>887.0</ele><time>2026-04-05T17:45:47.999Z</time></trkpt><trkpt lat="43.93497877656742" lon="11.64568064200082"><ele>884.6</ele><time>2026-04-05T17:45:48.999Z</time></trkpt><trkpt lat="43.93490474643237" lon="11.645724103274057"><ele>882.2</ele><time>2026-04-05T17:45:49.999Z</time></trkpt><trkpt lat="43.9348747039593" lon="11.64583385846156"><ele>879.8</ele><time>2026-04-05T17:45:50.999Z</time></trkpt><trkpt lat="43.934904200106374" lon="11.645960790644686"><ele>877.4</ele><time>2026-04-05T17:45:51.999Z</time></trkpt><trkpt lat="43.93498377663529" lon="11.646061320367304"><ele>875.0</ele><time>2026-04-05T17:45:52.999Z</time></trkpt><trkpt lat="43.93507650151409" lon="11.646155781008016"><ele>882.25</ele><time>2026-04-05T17:45:53.999Z</time></trkpt><trkpt lat="43.93516792208775" lon="11.646266378268264"><ele>889.5</ele><time>2026-04-05T17:45:54.999Z</time></trkpt><trkpt lat="43.93525980728874" lon="11.64637865599944"><ele>896.75</ele><time>2026-04-05T17:45:55.999Z</time></trkpt><trkpt lat="43.93536733797083" lon="11.646474120177503"><ele>904.0</ele><time>2026-04-05T17:45:56.999Z</time></trkpt><trkpt lat="43.93547860734225" lon="11.646544949789606"><ele>904.0</ele><time>2026-04-05T17:45:57.999Z</time></trkpt><trkpt lat="43.93557177903061" lon="11.646647829728122"><ele>904.0</ele><time>2026-04-05T17:45:58.999Z</time></trkpt><trkpt lat="43.9355907997198" lon="11.646829692494206"><ele>904.0</ele><time>2026-04-05T17:45:59.999Z</time></trkpt><trkpt lat="43.93562405208356" lon="11.647007631014555"><ele>904.0</ele><time>2026-04-05T17:46:00.999Z</time></trkpt><trkpt lat="43.935663851233635" lon="11.64717646554931"><ele>902.0</ele><time>2026-04-05T17:46:01.999Z</time></trkpt><trkpt lat="43.93572957095684" lon="11.647333382226215"><ele>900.0</ele><time>2026-04-05T17:46:02.999Z</time></trkpt><trkpt lat="43.935811019873725" lon="11.647479047462433"><ele>898.0</ele><time>2026-04-05T17:46:03.999Z</time></trkpt><trkpt lat="43.93592131739695" lon="11.647606517197971"><ele>896.0</ele><time>2026-04-05T17:46:04.999Z</time></trkpt><trkpt lat="43.93601884456785" lon="11.64775771647642"><ele>905.75</ele><time>2026-04-05T17:46:05.999Z</time></trkpt><trkpt lat="43.93610788125096" lon="11.64792095642389"><ele>915.5</ele><time>2026-04-05T17:46:06.999Z</time></trkpt><trkpt lat="43.93616981646259" lon="11.6481033483248"><ele>925.25</ele><time>2026-04-05T17:46:07.999Z</time></trkpt><trkpt lat="43.936200683101205" lon="11.648271999734012"><ele>935.0</ele><time>2026-04-05T17:46:08.999Z</time></trkpt><trkpt lat="43.93614897275876" lon="11.648404387740406"><ele>935.0</ele><time>2026-04-05T17:46:09.999Z</time></trkpt><trkpt lat="43.93609237791982" lon="11.64852272668343"><ele>935.0</ele><time>2026-04-05T17:46:10.999Z</time></trkpt><trkpt lat="43.93606730529607" lon="11.648667755020881"><ele>935.0</ele><time>2026-04-05T17:46:11.999Z</time></trkpt><trkpt lat="43.93611842019235" lon="11.64881928552104"><ele>935.0</ele><time>2026-04-05T17:46:12.999Z</time></trkpt><trkpt lat="43.93618331972034" lon="11.648963377889606"><ele>936.0</ele><time>2026-04-05T17:46:13.999Z</time></trkpt><trkpt lat="43.93624726246178" lon="11.649110631068211"><ele>937.0</ele><time>2026-04-05T17:46:14.999Z</time></trkpt><trkpt lat="43.93625934743785" lon="11.649286033667131"><ele>938.0</ele><time>2026-04-05T17:46:15.999Z</time></trkpt><trkpt lat="43.93625407560439" lon="11.649474050692785"><ele>939.0</ele><time>2026-04-05T17:46:16.999Z</time></trkpt><trkpt lat="43.936243030607365" lon="11.649665028625622"><ele>940.25</ele><time>2026-04-05T17:46:17.999Z</time></trkpt><trkpt lat="43.93619701901785" lon="11.649832488446492"><ele>941.5</ele><time>2026-04-05T17:46:18.999Z</time></trkpt><trkpt lat="43.936106333129686" lon="11.649939106927215"><ele>942.75</ele><time>2026-04-05T17:46:19.999Z</time></trkpt><trkpt lat="43.93599540037062" lon="11.649974494976895"><ele>944.0</ele><time>2026-04-05T17:46:20.999Z</time></trkpt><trkpt lat="43.935892693207066" lon="11.650057107134506"><ele>934.75</ele><time>2026-04-05T17:46:21.999Z</time></trkpt><trkpt lat="43.935806247687964" lon="11.65016105882334"><ele>925.5</ele><time>2026-04-05T17:46:22.999Z</time></trkpt><trkpt lat="43.935761106267464" lon="11.650334564854623"><ele>916.25</ele><time>2026-04-05T17:46:23.999Z</time></trkpt><trkpt lat="43.93570996908979" lon="11.650490885167889"><ele>907.0</ele><time>2026-04-05T17:46:24.999Z</time></trkpt><trkpt lat="43.93567130359719" lon="11.650658922203554"><ele>907.0</ele><time>2026-04-05T17:46:25.999Z</time></trkpt><trkpt lat="43.93564525608314" lon="11.650845460201756"><ele>907.0</ele><time>2026-04-05T17:46:26.999Z</time></trkpt><trkpt lat="43.93562718847764" lon="11.651034724766598"><ele>907.0</ele><time>2026-04-05T17:46:27.999Z</time></trkpt><trkpt lat="43.93557606573008" lon="11.651221084168606"><ele>907.0</ele><time>2026-04-05T17:46:28.999Z</time></trkpt><trkpt lat="43.93547559369525" lon="11.65137168251082"><ele>915.3333333333333</ele><time>2026-04-05T17:46:29.999Z</time></trkpt><trkpt lat="43.93538368365122" lon="11.651543523393206"><ele>923.6666666666667</ele><time>2026-04-05T17:46:30.999Z</time></trkpt><trkpt lat="43.93528687086378" lon="11.651726648340386"><ele>932.0</ele><time>2026-04-05T17:46:31.999Z</time></trkpt><trkpt lat="43.93519408343027" lon="11.651906746555088"><ele>932.75</ele><time>2026-04-05T17:46:32.999Z</time></trkpt><trkpt lat="43.93510714866745" lon="11.652078599175667"><ele>933.5</ele><time>2026-04-05T17:46:33.999Z</time></trkpt><trkpt lat="43.9350186604512" lon="11.652236000809895"><ele>934.25</ele><time>2026-04-05T17:46:34.999Z</time></trkpt><trkpt lat="43.93491772261421" lon="11.652361460142826"><ele>935.0</ele><time>2026-04-05T17:46:35.999Z</time></trkpt><trkpt lat="43.93478842753867" lon="11.652450202171568"><ele>930.25</ele><time>2026-04-05T17:46:36.999Z</time></trkpt><trkpt lat="43.93465163775334" lon="11.652519529109084"><ele>925.5</ele><time>2026-04-05T17:46:37.999Z</time></trkpt><trkpt lat="43.93452410834682" lon="11.652593766302049"><ele>920.75</ele><time>2026-04-05T17:46:39Z</time></trkpt><trkpt lat="43.93440282191299" lon="11.652646379191939"><ele>916.0</ele><time>2026-04-05T17:46:40Z</time></trkpt><trkpt lat="43.934288034526375" lon="11.652689477639903"><ele>915.75</ele><time>2026-04-05T17:46:41Z</time></trkpt><trkpt lat="43.93418939164448" lon="11.652781993077523"><ele>915.5</ele><time>2026-04-05T17:46:42Z</time></trkpt><trkpt lat="43.934112835540056" lon="11.652943955501152"><ele>915.25</ele><time>2026-04-05T17:46:43Z</time></trkpt><trkpt lat="43.934049826809456" lon="11.653104199082549"><ele>915.0</ele><time>2026-04-05T17:46:44Z</time></trkpt><trkpt lat="43.933970663448875" lon="11.65328320471668"><ele>915.0</ele><time>2026-04-05T17:46:45Z</time></trkpt><trkpt lat="43.93389314973554" lon="11.653448486403573"><ele>915.0</ele><time>2026-04-05T17:46:46Z</time></trkpt><trkpt lat="43.93380214040392" lon="11.65359357219755"><ele>915.0</ele><time>2026-04-05T17:46:47Z</time></trkpt><trkpt lat="43.933691911856876" lon="11.65370820086568"><ele>915.0</ele><time>2026-04-05T17:46:48Z</time></trkpt><trkpt lat="43.9335707918213" lon="11.653788287996486"><ele>912.5</ele><time>2026-04-05T17:46:49Z</time></trkpt><trkpt lat="43.93345411078776" lon="11.653865315832437"><ele>910.0</ele><time>2026-04-05T17:46:50Z</time></trkpt><trkpt lat="43.933347897790476" lon="11.653961243524966"><ele>907.5</ele><time>2026-04-05T17:46:51Z</time></trkpt><trkpt lat="43.93325806732663" lon="11.654088039748936"><ele>905.0</ele><time>2026-04-05T17:46:52Z</time></trkpt><trkpt lat="43.933181453615" lon="11.654230933225545"><ele>905.0</ele><time>2026-04-05T17:46:53Z</time></trkpt><trkpt lat="43.9331258364521" lon="11.654361581388326"><ele>905.0</ele><time>2026-04-05T17:46:54Z</time></trkpt><trkpt lat="43.9330705650687" lon="11.654473980980294"><ele>905.0</ele><time>2026-04-05T17:46:55Z</time></trkpt><trkpt lat="43.93302237283775" lon="11.654584195501533"><ele>905.0</ele><time>2026-04-05T17:46:56Z</time></trkpt><trkpt lat="43.9329673209744" lon="11.654673429573451"><ele>905.0</ele><time>2026-04-05T17:46:57Z</time></trkpt><trkpt lat="43.93291786940317" lon="11.65475502042159"><ele>906.0000000000001</ele><time>2026-04-05T17:46:58Z</time></trkpt><trkpt lat="43.93286680690846" lon="11.654833977613503"><ele>907.0</ele><time>2026-04-05T17:46:59Z</time></trkpt><trkpt lat="43.93282118295309" lon="11.654900853585296"><ele>908.0</ele><time>2026-04-05T17:47:00Z</time></trkpt><trkpt lat="43.93273832543808" lon="11.655003902902601"><ele>909.0</ele><time>2026-04-05T17:47:02Z</time></trkpt><trkpt lat="43.93267841711332" lon="11.655071012899166"><ele>910.0000000000001</ele><time>2026-04-05T17:47:05Z</time></trkpt><trkpt lat="43.932646778453694" lon="11.65515617213176"><ele>911.0</ele><time>2026-04-05T17:52:50.999Z</time></trkpt><trkpt lat="43.932611205108856" lon="11.655275856892072"><ele>909.75</ele><time>2026-04-05T17:52:52.999Z</time></trkpt><trkpt lat="43.93257271973409" lon="11.655383660031056"><ele>908.5</ele><time>2026-04-05T17:52:54.999Z</time></trkpt><trkpt lat="43.932484784830756" lon="11.655573057862544"><ele>907.25</ele><time>2026-04-05T17:52:57Z</time></trkpt><trkpt lat="43.93243856880482" lon="11.655692584325026"><ele>906.0</ele><time>2026-04-05T17:52:58Z</time></trkpt><trkpt lat="43.93239825624425" lon="11.655860179849405"><ele>906.0</ele><time>2026-04-05T17:52:59Z</time></trkpt><trkpt lat="43.932375671477494" lon="11.656030035118244"><ele>906.0</ele><time>2026-04-05T17:53:00Z</time></trkpt><trkpt lat="43.93235822759039" lon="11.656204562713278"><ele>906.0</ele><time>2026-04-05T17:53:01Z</time></trkpt><trkpt lat="43.93242213996827" lon="11.656355209597892"><ele>906.0</ele><time>2026-04-05T17:53:03Z</time></trkpt><trkpt lat="43.93245571971493" lon="11.656457225466694"><ele>905.5999999999999</ele><time>2026-04-05T17:53:04Z</time></trkpt><trkpt lat="43.93251372447431" lon="11.656556370042408"><ele>905.1999999999999</ele><time>2026-04-05T17:53:05Z</time></trkpt><trkpt lat="43.93258656983291" lon="11.656645074493413"><ele>904.8000000000001</ele><time>2026-04-05T17:53:06Z</time></trkpt><trkpt lat="43.932679141713514" lon="11.656708451008173"><ele>904.4000000000001</ele><time>2026-04-05T17:53:07Z</time></trkpt><trkpt lat="43.932789015310426" lon="11.656742610699242"><ele>904.0</ele><time>2026-04-05T17:53:08Z</time></trkpt><trkpt lat="43.932911081016634" lon="11.656770980454015"><ele>904.0</ele><time>2026-04-05T17:53:09Z</time></trkpt><trkpt lat="43.9330437250605" lon="11.656797328280001"><ele>904.0</ele><time>2026-04-05T17:53:10Z</time></trkpt><trkpt lat="43.933180306598736" lon="11.656834841554035"><ele>904.0</ele><time>2026-04-05T17:53:11Z</time></trkpt><trkpt lat="43.93332713677506" lon="11.656883357606864"><ele>904.0</ele><time>2026-04-05T17:53:12Z</time></trkpt><trkpt lat="43.93347971001957" lon="11.656979576345789"><ele>903.75</ele><time>2026-04-05T17:53:13Z</time></trkpt><trkpt lat="43.93361500301204" lon="11.657060614740764"><ele>903.5</ele><time>2026-04-05T17:53:14Z</time></trkpt><trkpt lat="43.933737368380065" lon="11.657172334559082"><ele>903.25</ele><time>2026-04-05T17:53:15Z</time></trkpt><trkpt lat="43.93384022145368" lon="11.657285020835516"><ele>903.0</ele><time>2026-04-05T17:53:16Z</time></trkpt><trkpt lat="43.93392114152405" lon="11.657407253064887"><ele>903.0</ele><time>2026-04-05T17:53:17Z</time></trkpt><trkpt lat="43.93396328211119" lon="11.657521489805506"><ele>903.0</ele><time>2026-04-05T17:53:18Z</time></trkpt><trkpt lat="43.93398074314377" lon="11.657649656563606"><ele>903.0</ele><time>2026-04-05T17:53:20Z</time></trkpt><trkpt lat="43.93402189066456" lon="11.657857476663532"><ele>903.0</ele><time>2026-04-05T17:53:22Z</time></trkpt><trkpt lat="43.9345316693286" lon="11.657862518129846"><ele>906.0</ele><time>2026-04-05T17:53:24Z</time></trkpt><trkpt lat="43.934642943983555" lon="11.657822163903234"><ele>909.0</ele><time>2026-04-05T17:53:25Z</time></trkpt><trkpt lat="43.934764349307926" lon="11.657788912169345"><ele>912.0</ele><time>2026-04-05T17:53:26Z</time></trkpt><trkpt lat="43.93489219445214" lon="11.657800452569665"><ele>915.0</ele><time>2026-04-05T17:53:27Z</time></trkpt><trkpt lat="43.935034584759805" lon="11.657830878060267"><ele>912.25</ele><time>2026-04-05T17:53:28Z</time></trkpt><trkpt lat="43.935175131254255" lon="11.657894602901408"><ele>909.5</ele><time>2026-04-05T17:53:29Z</time></trkpt><trkpt lat="43.93528908214522" lon="11.658003951402346"><ele>906.75</ele><time>2026-04-05T17:53:30Z</time></trkpt><trkpt lat="43.93541649923086" lon="11.658094545655953"><ele>904.0</ele><time>2026-04-05T17:53:31Z</time></trkpt><trkpt lat="43.93556512164716" lon="11.65811881665789"><ele>904.0</ele><time>2026-04-05T17:53:32Z</time></trkpt><trkpt lat="43.93571102159647" lon="11.658040264849252"><ele>904.0</ele><time>2026-04-05T17:53:33Z</time></trkpt><trkpt lat="43.9358640096199" lon="11.657964640070178"><ele>904.0</ele><time>2026-04-05T17:53:34Z</time></trkpt><trkpt lat="43.93603321217696" lon="11.657936571218015"><ele>903.3333333333333</ele><time>2026-04-05T17:53:35Z</time></trkpt><trkpt lat="43.93620921737068" lon="11.657949811891985"><ele>902.6666666666667</ele><time>2026-04-05T17:53:36Z</time></trkpt><trkpt lat="43.93639103177312" lon="11.657989960923851"><ele>902.0</ele><time>2026-04-05T17:53:37Z</time></trkpt><trkpt lat="43.936594247070914" lon="11.65803670159996"><ele>899.0</ele><time>2026-04-05T17:53:38Z</time></trkpt><trkpt lat="43.936792542777255" lon="11.658081490617745"><ele>896.0</ele><time>2026-04-05T17:53:39Z</time></trkpt><trkpt lat="43.93697416860725" lon="11.658126532056537"><ele>893.0</ele><time>2026-04-05T17:53:40Z</time></trkpt><trkpt lat="43.93714295819168" lon="11.658174645291648"><ele>893.0</ele><time>2026-04-05T17:53:41Z</time></trkpt><trkpt lat="43.93727872863998" lon="11.65827080472958"><ele>893.0</ele><time>2026-04-05T17:53:42Z</time></trkpt><trkpt lat="43.93739454849513" lon="11.658400135287646"><ele>893.0</ele><time>2026-04-05T17:53:43Z</time></trkpt><trkpt lat="43.937531510116564" lon="11.658480588067627"><ele>892.0</ele><time>2026-04-05T17:53:44Z</time></trkpt><trkpt lat="43.937686105488424" lon="11.658430899918102"><ele>891.0</ele><time>2026-04-05T17:53:45Z</time></trkpt><trkpt lat="43.93782435915172" lon="11.658340333043384"><ele>890.0</ele><time>2026-04-05T17:53:46Z</time></trkpt><trkpt lat="43.937971759531344" lon="11.658285495265485"><ele>890.0</ele><time>2026-04-05T17:53:47Z</time></trkpt><trkpt lat="43.938122785407934" lon="11.658246639440328"><ele>890.0</ele><time>2026-04-05T17:53:48Z</time></trkpt><trkpt lat="43.93826718309456" lon="11.658256310559857"><ele>890.0</ele><time>2026-04-05T17:53:49Z</time></trkpt><trkpt lat="43.93840208646962" lon="11.658326831412227"><ele>890.0</ele><time>2026-04-05T17:53:50Z</time></trkpt><trkpt lat="43.93856035685376" lon="11.658414591150464"><ele>893.0</ele><time>2026-04-05T17:53:51Z</time></trkpt><trkpt lat="43.938734027415144" lon="11.658510631427259"><ele>896.0</ele><time>2026-04-05T17:53:52Z</time></trkpt><trkpt lat="43.93891550534205" lon="11.658600156900278"><ele>899.0</ele><time>2026-04-05T17:53:53Z</time></trkpt><trkpt lat="43.939100643353875" lon="11.658659382759184"><ele>897.6666666666667</ele><time>2026-04-05T17:53:54Z</time></trkpt><trkpt lat="43.93928455420225" lon="11.658682005520209"><ele>896.3333333333333</ele><time>2026-04-05T17:53:55Z</time></trkpt><trkpt lat="43.93946847090566" lon="11.658660465880983"><ele>895.0</ele><time>2026-04-05T17:53:56Z</time></trkpt><trkpt lat="43.93965546578692" lon="11.658565908075621"><ele>888.0</ele><time>2026-04-05T17:53:57Z</time></trkpt><trkpt lat="43.93984981422581" lon="11.658465128626336"><ele>881.0</ele><time>2026-04-05T17:53:58Z</time></trkpt><trkpt lat="43.94005142446213" lon="11.658392504045866"><ele>874.0</ele><time>2026-04-05T17:53:59Z</time></trkpt><trkpt lat="43.94023387060068" lon="11.65830679974351"><ele>872.75</ele><time>2026-04-05T17:54:00Z</time></trkpt><trkpt lat="43.94038553878418" lon="11.658234769618144"><ele>871.5</ele><time>2026-04-05T17:54:01Z</time></trkpt><trkpt lat="43.940521249091574" lon="11.658182925573339"><ele>870.25</ele><time>2026-04-05T17:54:02Z</time></trkpt><trkpt lat="43.94064083421881" lon="11.658165606650703"><ele>869.0</ele><time>2026-04-05T17:54:03Z</time></trkpt><trkpt lat="43.940748899328064" lon="11.658220769129846"><ele>869.0</ele><time>2026-04-05T17:54:04Z</time></trkpt><trkpt lat="43.940838216766394" lon="11.65832337716423"><ele>869.0</ele><time>2026-04-05T17:54:05Z</time></trkpt><trkpt lat="43.94089455740603" lon="11.658479658121475"><ele>869.0</ele><time>2026-04-05T17:54:06Z</time></trkpt><trkpt lat="43.94094641460319" lon="11.658649787376712"><ele>869.0</ele><time>2026-04-05T17:54:06.999Z</time></trkpt><trkpt lat="43.941010205285664" lon="11.658786857251275"><ele>862.25</ele><time>2026-04-05T17:54:07.999Z</time></trkpt><trkpt lat="43.94104924577344" lon="11.658859757819906"><ele>855.5</ele><time>2026-04-05T17:54:08.999Z</time></trkpt><trkpt lat="43.941167268767046" lon="11.659066329445821"><ele>848.75</ele><time>2026-04-05T17:54:09.999Z</time></trkpt><trkpt lat="43.94118506885182" lon="11.659226418048755"><ele>842.0</ele><time>2026-04-05T17:54:10.999Z</time></trkpt><trkpt lat="43.94116273941896" lon="11.659418722645073"><ele>845.5</ele><time>2026-04-05T17:54:11.999Z</time></trkpt><trkpt lat="43.94116265744661" lon="11.659633759361773"><ele>849.0</ele><time>2026-04-05T17:54:12.999Z</time></trkpt><trkpt lat="43.9411749828647" lon="11.65982042050284"><ele>852.5</ele><time>2026-04-05T17:54:13.999Z</time></trkpt><trkpt lat="43.941197947908" lon="11.659988363636993"><ele>856.0</ele><time>2026-04-05T17:54:14.999Z</time></trkpt><trkpt lat="43.94123477603463" lon="11.660138681774127"><ele>856.0</ele><time>2026-04-05T17:54:15.999Z</time></trkpt><trkpt lat="43.94132424334275" lon="11.660270444939234"><ele>856.0</ele><time>2026-04-05T17:54:16.999Z</time></trkpt><trkpt lat="43.9414408117994" lon="11.66035588231042"><ele>856.0</ele><time>2026-04-05T17:54:17.999Z</time></trkpt><trkpt lat="43.94156925684873" lon="11.660438371695511"><ele>856.0</ele><time>2026-04-05T17:54:18.999Z</time></trkpt><trkpt lat="43.941715662546166" lon="11.660488991231913"><ele>854.6666666666666</ele><time>2026-04-05T17:54:19.999Z</time></trkpt><trkpt lat="43.94188119428827" lon="11.660486900662526"><ele>853.3333333333333</ele><time>2026-04-05T17:54:20.999Z</time></trkpt><trkpt lat="43.94205566378968" lon="11.660449866608793"><ele>852.0</ele><time>2026-04-05T17:54:21.999Z</time></trkpt><trkpt lat="43.94223777231649" lon="11.66041046359256"><ele>852.0</ele><time>2026-04-05T17:54:22.999Z</time></trkpt><trkpt lat="43.942419658234634" lon="11.660357309225564"><ele>852.0</ele><time>2026-04-05T17:54:23.999Z</time></trkpt><trkpt lat="43.942604257786904" lon="11.660283166739326"><ele>852.0</ele><time>2026-04-05T17:54:24.999Z</time></trkpt><trkpt lat="43.94277034938482" lon="11.66021822265381"><ele>848.25</ele><time>2026-04-05T17:54:25.999Z</time></trkpt><trkpt lat="43.942918134940186" lon="11.660172310103476"><ele>844.5</ele><time>2026-04-05T17:54:26.999Z</time></trkpt><trkpt lat="43.94305562526928" lon="11.660137095806322"><ele>840.75</ele><time>2026-04-05T17:54:27.999Z</time></trkpt><trkpt lat="43.943172256147506" lon="11.660109060873914"><ele>837.0</ele><time>2026-04-05T17:54:28.999Z</time></trkpt><trkpt lat="43.94325834712424" lon="11.660070443745388"><ele>837.0</ele><time>2026-04-05T17:54:29.999Z</time></trkpt><trkpt lat="43.94331465471128" lon="11.66000528634272"><ele>837.0</ele><time>2026-04-05T17:54:30.999Z</time></trkpt><trkpt lat="43.94332661432765" lon="11.659899893908383"><ele>837.0</ele><time>2026-04-05T17:54:31.999Z</time></trkpt><trkpt lat="43.943257348006235" lon="11.659690389531706"><ele>837.0</ele><time>2026-04-05T17:54:32.999Z</time></trkpt><trkpt lat="43.943195261630635" lon="11.659725956706767"><ele>837.0</ele><time>2026-04-05T17:54:33.999Z</time></trkpt><trkpt lat="43.943086456188944" lon="11.659731916847706"><ele>837.0</ele><time>2026-04-05T17:54:34.999Z</time></trkpt><trkpt lat="43.94297215841921" lon="11.65977950716922"><ele>837.0</ele><time>2026-04-05T17:54:35.999Z</time></trkpt><trkpt lat="43.942842449173774" lon="11.659847404580189"><ele>837.0</ele><time>2026-04-05T17:54:36.999Z</time></trkpt><trkpt lat="43.942689838589445" lon="11.659904955129043"><ele>837.0</ele><time>2026-04-05T17:54:37.999Z</time></trkpt><trkpt lat="43.94251701677648" lon="11.659925008478838"><ele>839.0</ele><time>2026-04-05T17:54:38.999Z</time></trkpt><trkpt lat="43.94234062481436" lon="11.659939665912706"><ele>841.0</ele><time>2026-04-05T17:54:39.999Z</time></trkpt><trkpt lat="43.942181069460226" lon="11.659952621549253"><ele>843.0</ele><time>2026-04-05T17:54:40.999Z</time></trkpt><trkpt lat="43.94203533125889" lon="11.659966171792739"><ele>843.0</ele><time>2026-04-05T17:54:41.999Z</time></trkpt><trkpt lat="43.941903236355415" lon="11.65998442530409"><ele>843.0</ele><time>2026-04-05T17:54:42.999Z</time></trkpt><trkpt lat="43.94180039510488" lon="11.659966550420403"><ele>843.0</ele><time>2026-04-05T17:54:43.999Z</time></trkpt><trkpt lat="43.94172101633822" lon="11.659953263074376"><ele>843.0</ele><time>2026-04-05T17:54:44.999Z</time></trkpt><trkpt lat="43.94167706761811" lon="11.659829136145916"><ele>843.0</ele><time>2026-04-05T17:54:46.999Z</time></trkpt><trkpt lat="43.941822203295885" lon="11.659758944232616"><ele>843.0</ele><time>2026-04-05T17:54:48.999Z</time></trkpt><trkpt lat="43.94192399586036" lon="11.65974726988289"><ele>843.0</ele><time>2026-04-05T17:54:49.999Z</time></trkpt><trkpt lat="43.94205401868346" lon="11.659726326360365"><ele>843.0</ele><time>2026-04-05T17:54:50.999Z</time></trkpt><trkpt lat="43.94219874166222" lon="11.65970095250388"><ele>843.0</ele><time>2026-04-05T17:54:51.999Z</time></trkpt><trkpt lat="43.942351400587626" lon="11.659674529469289"><ele>843.0</ele><time>2026-04-05T17:54:52.999Z</time></trkpt><trkpt lat="43.9425019231443" lon="11.659614602931358"><ele>843.0</ele><time>2026-04-05T17:54:53.999Z</time></trkpt><trkpt lat="43.942665704685" lon="11.659541403644663"><ele>843.0</ele><time>2026-04-05T17:54:54.999Z</time></trkpt><trkpt lat="43.94282228279444" lon="11.659442774887372"><ele>836.25</ele><time>2026-04-05T17:54:55.999Z</time></trkpt><trkpt lat="43.94295608370354" lon="11.659326862812248"><ele>829.5</ele><time>2026-04-05T17:54:56.999Z</time></trkpt><trkpt lat="43.94306855699941" lon="11.6592142010103"><ele>822.75</ele><time>2026-04-05T17:54:57.999Z</time></trkpt><trkpt lat="43.94316318893637" lon="11.659117960907862"><ele>816.0</ele><time>2026-04-05T17:54:58.999Z</time></trkpt><trkpt lat="43.94322599943023" lon="11.6590270769022"><ele>816.0</ele><time>2026-04-05T17:54:59.999Z</time></trkpt><trkpt lat="43.9432294212748" lon="11.65892497281085"><ele>816.0</ele><time>2026-04-05T17:55:00.999Z</time></trkpt><trkpt lat="43.94317168819146" lon="11.65882943654588"><ele>816.0</ele><time>2026-04-05T17:55:02Z</time></trkpt><trkpt lat="43.94306840098752" lon="11.65877854377068"><ele>816.0</ele><time>2026-04-05T17:55:03Z</time></trkpt><trkpt lat="43.94296464805726" lon="11.658768122436058"><ele>816.0</ele><time>2026-04-05T17:55:04Z</time></trkpt><trkpt lat="43.94279232280524" lon="11.658945572731165"><ele>816.0</ele><time>2026-04-05T17:55:05Z</time></trkpt><trkpt lat="43.94266861278404" lon="11.659043214114332"><ele>816.0</ele><time>2026-04-05T17:55:06Z</time></trkpt><trkpt lat="43.94253277083299" lon="11.659125060965629"><ele>816.0</ele><time>2026-04-05T17:55:07Z</time></trkpt><trkpt lat="43.942401446824455" lon="11.659186444974715"><ele>816.0</ele><time>2026-04-05T17:55:08Z</time></trkpt><trkpt lat="43.9422775762897" lon="11.659188312009507"><ele>816.5999999999999</ele><time>2026-04-05T17:55:09Z</time></trkpt><trkpt lat="43.942176566913524" lon="11.659186130947129"><ele>817.2</ele><time>2026-04-05T17:55:10Z</time></trkpt><trkpt lat="43.942091284619686" lon="11.659174695847705"><ele>817.8</ele><time>2026-04-05T17:55:11Z</time></trkpt><trkpt lat="43.94202790277252" lon="11.6591478271664"><ele>818.4000000000001</ele><time>2026-04-05T17:55:12Z</time></trkpt><trkpt lat="43.942025168203756" lon="11.659036672906096"><ele>819.0</ele><time>2026-04-05T17:55:13Z</time></trkpt><trkpt lat="43.942173649306724" lon="11.658925267922667"><ele>819.0</ele><time>2026-04-05T17:55:15Z</time></trkpt><trkpt lat="43.94227670995515" lon="11.658858656410214"><ele>819.0</ele><time>2026-04-05T17:55:16Z</time></trkpt><trkpt lat="43.94240709909274" lon="11.658794808587997"><ele>819.0</ele><time>2026-04-05T17:55:17Z</time></trkpt><trkpt lat="43.94254804671043" lon="11.658704762943572"><ele>819.0</ele><time>2026-04-05T17:55:18Z</time></trkpt><trkpt lat="43.94269572291542" lon="11.65862677446394"><ele>818.25</ele><time>2026-04-05T17:55:19Z</time></trkpt><trkpt lat="43.942850625450866" lon="11.658584160394097"><ele>817.5</ele><time>2026-04-05T17:55:20Z</time></trkpt><trkpt lat="43.943004566108215" lon="11.658548683215342"><ele>816.75</ele><time>2026-04-05T17:55:21Z</time></trkpt><trkpt lat="43.94313977255512" lon="11.658560657372076"><ele>816.0</ele><time>2026-04-05T17:55:22Z</time></trkpt><trkpt lat="43.94323135984305" lon="11.658643975191703"><ele>816.0</ele><time>2026-04-05T17:55:23Z</time></trkpt><trkpt lat="43.94331956398445" lon="11.658772539140957"><ele>816.0</ele><time>2026-04-05T17:55:24Z</time></trkpt><trkpt lat="43.943379891838845" lon="11.658947259964775"><ele>816.0</ele><time>2026-04-05T17:55:25Z</time></trkpt><trkpt lat="43.943448781802786" lon="11.659145497666973"><ele>816.0</ele><time>2026-04-05T17:55:26Z</time></trkpt><trkpt lat="43.943537031416284" lon="11.659354913994802"><ele>813.0</ele><time>2026-04-05T17:55:27Z</time></trkpt><trkpt lat="43.943642773330396" lon="11.659523092591487"><ele>810.0</ele><time>2026-04-05T17:55:28Z</time></trkpt><trkpt lat="43.943786519468794" lon="11.659650199016474"><ele>807.0</ele><time>2026-04-05T17:55:29Z</time></trkpt><trkpt lat="43.943957866782846" lon="11.65971195539285"><ele>807.0</ele><time>2026-04-05T17:55:30Z</time></trkpt><trkpt lat="43.94412387750893" lon="11.659732060579595"><ele>807.0</ele><time>2026-04-05T17:55:31Z</time></trkpt><trkpt lat="43.94426337629914" lon="11.65977445351799"><ele>807.0</ele><time>2026-04-05T17:55:32Z</time></trkpt><trkpt lat="43.94438010261974" lon="11.659808128514038"><ele>807.0</ele><time>2026-04-05T17:55:33Z</time></trkpt><trkpt lat="43.94446626678294" lon="11.659821710030007"><ele>802.4000000000001</ele><time>2026-04-05T17:55:34Z</time></trkpt><trkpt lat="43.944514822662164" lon="11.659760821482562"><ele>797.8000000000001</ele><time>2026-04-05T17:55:35Z</time></trkpt><trkpt lat="43.944529810329705" lon="11.659653784057923"><ele>793.2</ele><time>2026-04-05T17:55:36Z</time></trkpt><trkpt lat="43.94450197852085" lon="11.659538778275582"><ele>788.6</ele><time>2026-04-05T17:55:37Z</time></trkpt><trkpt lat="43.944399932140065" lon="11.6594613451972"><ele>784.0</ele><time>2026-04-05T17:55:38Z</time></trkpt><trkpt lat="43.94430659839004" lon="11.659383003091628"><ele>786.25</ele><time>2026-04-05T17:55:39Z</time></trkpt><trkpt lat="43.94421358803516" lon="11.659292974168045"><ele>788.5</ele><time>2026-04-05T17:55:40Z</time></trkpt><trkpt lat="43.94413672199397" lon="11.65917755269794"><ele>790.75</ele><time>2026-04-05T17:55:41Z</time></trkpt><trkpt lat="43.944105744183105" lon="11.659000335599172"><ele>793.0</ele><time>2026-04-05T17:55:42Z</time></trkpt><trkpt lat="43.944093512376774" lon="11.658817841637651"><ele>793.0</ele><time>2026-04-05T17:55:43Z</time></trkpt><trkpt lat="43.94406675282431" lon="11.658680932357148"><ele>793.0</ele><time>2026-04-05T17:55:44Z</time></trkpt><trkpt lat="43.944012106417254" lon="11.658550455626186"><ele>793.0</ele><time>2026-04-05T17:55:45Z</time></trkpt><trkpt lat="43.94391561216868" lon="11.658440743667446"><ele>793.0</ele><time>2026-04-05T17:55:46Z</time></trkpt><trkpt lat="43.94378361499376" lon="11.65840069932892"><ele>792.5</ele><time>2026-04-05T17:55:47Z</time></trkpt><trkpt lat="43.943650905293374" lon="11.658397613562233"><ele>792.0</ele><time>2026-04-05T17:55:48Z</time></trkpt><trkpt lat="43.943537196905396" lon="11.658373098295712"><ele>791.5</ele><time>2026-04-05T17:55:49Z</time></trkpt><trkpt lat="43.943420409063854" lon="11.658299653416753"><ele>791.0</ele><time>2026-04-05T17:55:50Z</time></trkpt><trkpt lat="43.94334366561699" lon="11.65819650237576"><ele>791.0</ele><time>2026-04-05T17:55:51Z</time></trkpt><trkpt lat="43.94328627809513" lon="11.65809188385444"><ele>791.0</ele><time>2026-04-05T17:55:52Z</time></trkpt><trkpt lat="43.94324709490327" lon="11.65797926891917"><ele>791.0</ele><time>2026-04-05T17:55:53Z</time></trkpt><trkpt lat="43.943292992550475" lon="11.657844268144542"><ele>791.0</ele><time>2026-04-05T17:55:54Z</time></trkpt><trkpt lat="43.94338841436093" lon="11.657761391324769"><ele>791.0</ele><time>2026-04-05T17:55:55Z</time></trkpt><trkpt lat="43.943521059678616" lon="11.657784046526722"><ele>787.75</ele><time>2026-04-05T17:55:56Z</time></trkpt><trkpt lat="43.943647823294405" lon="11.657813716988219"><ele>784.5</ele><time>2026-04-05T17:55:57Z</time></trkpt><trkpt lat="43.943767763801404" lon="11.65793147762752"><ele>781.25</ele><time>2026-04-05T17:55:58Z</time></trkpt><trkpt lat="43.943906547183325" lon="11.658062234640513"><ele>778.0</ele><time>2026-04-05T17:55:59Z</time></trkpt><trkpt lat="43.94402906674573" lon="11.658176094669866"><ele>778.0</ele><time>2026-04-05T17:56:00Z</time></trkpt><trkpt lat="43.94413674905187" lon="11.658308864552374"><ele>778.0</ele><time>2026-04-05T17:56:01Z</time></trkpt><trkpt lat="43.944231263840116" lon="11.658463767561594"><ele>778.0</ele><time>2026-04-05T17:56:02Z</time></trkpt><trkpt lat="43.94432817857187" lon="11.658650365560433"><ele>775.3333333333333</ele><time>2026-04-05T17:56:03Z</time></trkpt><trkpt lat="43.94445301934784" lon="11.658813533530596"><ele>772.6666666666667</ele><time>2026-04-05T17:56:04Z</time></trkpt><trkpt lat="43.94459225895438" lon="11.658942890334226"><ele>770.0</ele><time>2026-04-05T17:56:05Z</time></trkpt><trkpt lat="43.94473179114856" lon="11.659026544544492"><ele>770.0</ele><time>2026-04-05T17:56:06Z</time></trkpt><trkpt lat="43.944853648616274" lon="11.659086806053505"><ele>770.0</ele><time>2026-04-05T17:56:07Z</time></trkpt><trkpt lat="43.94493285454521" lon="11.659190873294921"><ele>770.0</ele><time>2026-04-05T17:56:08Z</time></trkpt><trkpt lat="43.94499439795376" lon="11.659261240809554"><ele>770.0</ele><time>2026-04-05T17:56:09Z</time></trkpt><trkpt lat="43.9451524038243" lon="11.659366202686462"><ele>770.0</ele><time>2026-04-05T17:56:10.999Z</time></trkpt><trkpt lat="43.94522424497785" lon="11.659267645482592"><ele>770.0</ele><time>2026-04-05T17:56:11.999Z</time></trkpt><trkpt lat="43.94519974334817" lon="11.65909438086338"><ele>770.0</ele><time>2026-04-05T17:56:12.999Z</time></trkpt><trkpt lat="43.94512068002387" lon="11.658966779556117"><ele>770.0</ele><time>2026-04-05T17:56:13.999Z</time></trkpt><trkpt lat="43.945010528412716" lon="11.658890073261187"><ele>770.0</ele><time>2026-04-05T17:56:14.999Z</time></trkpt><trkpt lat="43.94487910435143" lon="11.658832720817887"><ele>770.0</ele><time>2026-04-05T17:56:15.999Z</time></trkpt><trkpt lat="43.944752900387144" lon="11.658762899730938"><ele>770.0</ele><time>2026-04-05T17:56:16.999Z</time></trkpt><trkpt lat="43.944638796888995" lon="11.658650024125922"><ele>770.0</ele><time>2026-04-05T17:56:17.999Z</time></trkpt><trkpt lat="43.94456375811071" lon="11.658492840430787"><ele>767.5</ele><time>2026-04-05T17:56:18.999Z</time></trkpt><trkpt lat="43.94450111865758" lon="11.65833965745149"><ele>765.0</ele><time>2026-04-05T17:56:19.999Z</time></trkpt><trkpt lat="43.94446565809943" lon="11.658180721664657"><ele>762.5</ele><time>2026-04-05T17:56:20.999Z</time></trkpt><trkpt lat="43.94450220472761" lon="11.658004508681074"><ele>760.0</ele><time>2026-04-05T17:56:21.999Z</time></trkpt><trkpt lat="43.94461128289133" lon="11.657879206473556"><ele>761.5</ele><time>2026-04-05T17:56:22.999Z</time></trkpt><trkpt lat="43.944689314912516" lon="11.657723939437156"><ele>763.0</ele><time>2026-04-05T17:56:23.999Z</time></trkpt><trkpt lat="43.94480266794228" lon="11.65762764342369"><ele>764.5</ele><time>2026-04-05T17:56:24.999Z</time></trkpt><trkpt lat="43.944920551007755" lon="11.657588713366735"><ele>766.0</ele><time>2026-04-05T17:56:25.999Z</time></trkpt><trkpt lat="43.94504835102382" lon="11.657614031455319"><ele>765.3333333333334</ele><time>2026-04-05T17:56:26.999Z</time></trkpt><trkpt lat="43.945178142402405" lon="11.657726334873708"><ele>764.6666666666666</ele><time>2026-04-05T17:56:27.999Z</time></trkpt><trkpt lat="43.945311163731226" lon="11.657867958743351"><ele>764.0</ele><time>2026-04-05T17:56:28.999Z</time></trkpt><trkpt lat="43.94544379285023" lon="11.658018000152985"><ele>764.0</ele><time>2026-04-05T17:56:29.999Z</time></trkpt><trkpt lat="43.94558052710225" lon="11.658165783463234"><ele>764.0</ele><time>2026-04-05T17:56:30.999Z</time></trkpt><trkpt lat="43.945717346323306" lon="11.658321746731902"><ele>764.0</ele><time>2026-04-05T17:56:31.999Z</time></trkpt><trkpt lat="43.94586117224244" lon="11.658485325648837"><ele>763.3333333333333</ele><time>2026-04-05T17:56:32.999Z</time></trkpt><trkpt lat="43.94600483259276" lon="11.658654589576436"><ele>762.6666666666666</ele><time>2026-04-05T17:56:33.999Z</time></trkpt><trkpt lat="43.946135359559335" lon="11.658818615870826"><ele>762.0</ele><time>2026-04-05T17:56:34.999Z</time></trkpt><trkpt lat="43.94624555726143" lon="11.658997432951825"><ele>762.0</ele><time>2026-04-05T17:56:35.999Z</time></trkpt><trkpt lat="43.94632841393079" lon="11.659178288494177"><ele>762.0</ele><time>2026-04-05T17:56:36.999Z</time></trkpt><trkpt lat="43.946416284425425" lon="11.659324105026325"><ele>762.0</ele><time>2026-04-05T17:56:37.999Z</time></trkpt><trkpt lat="43.946530463106804" lon="11.659387285470203"><ele>762.0</ele><time>2026-04-05T17:56:38.999Z</time></trkpt><trkpt lat="43.94666262221065" lon="11.659362370128791"><ele>763.0</ele><time>2026-04-05T17:56:39.999Z</time></trkpt><trkpt lat="43.946806938288645" lon="11.65929844903266"><ele>764.0</ele><time>2026-04-05T17:56:40.999Z</time></trkpt><trkpt lat="43.94695901396365" lon="11.65928036178506"><ele>765.0</ele><time>2026-04-05T17:56:41.999Z</time></trkpt><trkpt lat="43.947112947492215" lon="11.659338044349237"><ele>765.0</ele><time>2026-04-05T17:56:42.999Z</time></trkpt><trkpt lat="43.94726061935214" lon="11.659424974021093"><ele>765.0</ele><time>2026-04-05T17:56:43.999Z</time></trkpt><trkpt lat="43.947393764929444" lon="11.659501812895975"><ele>765.0</ele><time>2026-04-05T17:56:44.999Z</time></trkpt><trkpt lat="43.947517887526274" lon="11.65955695699815"><ele>765.0</ele><time>2026-04-05T17:56:45.999Z</time></trkpt><trkpt lat="43.947631117600736" lon="11.659568138542527"><ele>764.0</ele><time>2026-04-05T17:56:46.999Z</time></trkpt><trkpt lat="43.94773695984625" lon="11.659508365861692"><ele>763.0</ele><time>2026-04-05T17:56:47.999Z</time></trkpt><trkpt lat="43.94783053718149" lon="11.659384792780441"><ele>762.0</ele><time>2026-04-05T17:56:48.999Z</time></trkpt><trkpt lat="43.94791566130849" lon="11.659231160256958"><ele>761.0</ele><time>2026-04-05T17:56:49.999Z</time></trkpt><trkpt lat="43.947998190329294" lon="11.659099141600452"><ele>761.0</ele><time>2026-04-05T17:56:50.999Z</time></trkpt><trkpt lat="43.94808370122816" lon="11.659035895463548"><ele>761.0</ele><time>2026-04-05T17:56:51.999Z</time></trkpt><trkpt lat="43.94818244150639" lon="11.659067824453778"><ele>761.0</ele><time>2026-04-05T17:56:52.999Z</time></trkpt><trkpt lat="43.94826036371226" lon="11.659154091423261"><ele>761.0</ele><time>2026-04-05T17:56:53.999Z</time></trkpt><trkpt lat="43.94831271455773" lon="11.659288756964356"><ele>761.0</ele><time>2026-04-05T17:56:54.999Z</time></trkpt><trkpt lat="43.9483133918744" lon="11.659444044794913"><ele>761.5</ele><time>2026-04-05T17:56:55.999Z</time></trkpt><trkpt lat="43.94829027668705" lon="11.65959164893997"><ele>762.0</ele><time>2026-04-05T17:56:56.999Z</time></trkpt><trkpt lat="43.94827822525778" lon="11.659754255440232"><ele>762.5</ele><time>2026-04-05T17:56:57.999Z</time></trkpt><trkpt lat="43.948311434399976" lon="11.659908510493059"><ele>763.0</ele><time>2026-04-05T17:56:58.999Z</time></trkpt><trkpt lat="43.948386784414225" lon="11.660064558515154"><ele>763.0</ele><time>2026-04-05T17:56:59.999Z</time></trkpt><trkpt lat="43.94847196916634" lon="11.660232354141565"><ele>763.0</ele><time>2026-04-05T17:57:00.999Z</time></trkpt><trkpt lat="43.948555358653465" lon="11.660376642861214"><ele>763.0</ele><time>2026-04-05T17:57:01.999Z</time></trkpt><trkpt lat="43.94865163668457" lon="11.66049170215972"><ele>763.0</ele><time>2026-04-05T17:57:02.999Z</time></trkpt><trkpt lat="43.94875133772294" lon="11.660541278759881"><ele>758.4</ele><time>2026-04-05T17:57:03.999Z</time></trkpt><trkpt lat="43.94887002464534" lon="11.660550880864665"><ele>753.8</ele><time>2026-04-05T17:57:04.999Z</time></trkpt><trkpt lat="43.9489945142423" lon="11.660537791019184"><ele>749.2</ele><time>2026-04-05T17:57:05.999Z</time></trkpt><trkpt lat="43.949080953271356" lon="11.66056320013659"><ele>744.6</ele><time>2026-04-05T17:57:06.999Z</time></trkpt><trkpt lat="43.94918272343007" lon="11.660533582554057"><ele>740.0</ele><time>2026-04-05T17:57:08Z</time></trkpt><trkpt lat="43.94935263932738" lon="11.660416103189254"><ele>740.0</ele><time>2026-04-05T17:57:09Z</time></trkpt><trkpt lat="43.949509043760706" lon="11.660328206720296"><ele>740.0</ele><time>2026-04-05T17:57:10Z</time></trkpt><trkpt lat="43.94970413668048" lon="11.660234680470483"><ele>740.0</ele><time>2026-04-05T17:57:11Z</time></trkpt><trkpt lat="43.94987233550378" lon="11.660185726361048"><ele>744.25</ele><time>2026-04-05T17:57:12Z</time></trkpt><trkpt lat="43.94995638239916" lon="11.660235655214679"><ele>748.5</ele><time>2026-04-05T17:57:13Z</time></trkpt><trkpt lat="43.95009939296235" lon="11.660268803134882"><ele>752.75</ele><time>2026-04-05T17:57:14Z</time></trkpt><trkpt lat="43.95024202532428" lon="11.660302338389172"><ele>757.0</ele><time>2026-04-05T17:57:15Z</time></trkpt><trkpt lat="43.95036190466483" lon="11.660416821470713"><ele>757.0</ele><time>2026-04-05T17:57:16Z</time></trkpt><trkpt lat="43.950482859088204" lon="11.660509931875465"><ele>757.0</ele><time>2026-04-05T17:57:17Z</time></trkpt><trkpt lat="43.95059222550959" lon="11.660577160125802"><ele>757.0</ele><time>2026-04-05T17:57:18Z</time></trkpt><trkpt lat="43.9506869589834" lon="11.660642400903063"><ele>757.0</ele><time>2026-04-05T17:57:19Z</time></trkpt><trkpt lat="43.95076678132599" lon="11.660754853971685"><ele>757.0</ele><time>2026-04-05T17:57:20Z</time></trkpt><trkpt lat="43.950797867616345" lon="11.660900826294377"><ele>757.0</ele><time>2026-04-05T17:57:21Z</time></trkpt><trkpt lat="43.95077750964503" lon="11.661065314548924"><ele>757.0</ele><time>2026-04-05T17:57:22Z</time></trkpt><trkpt lat="43.95071175499498" lon="11.661210146049163"><ele>757.0</ele><time>2026-04-05T17:57:23Z</time></trkpt><trkpt lat="43.95062697550063" lon="11.661349013263349"><ele>757.25</ele><time>2026-04-05T17:57:24Z</time></trkpt><trkpt lat="43.950566865534896" lon="11.66151244105125"><ele>757.5</ele><time>2026-04-05T17:57:25Z</time></trkpt><trkpt lat="43.95053364694821" lon="11.6617030747999"><ele>757.75</ele><time>2026-04-05T17:57:26Z</time></trkpt><trkpt lat="43.950509845632496" lon="11.661899277808569"><ele>758.0</ele><time>2026-04-05T17:57:27Z</time></trkpt><trkpt lat="43.95047679776746" lon="11.662078356978997"><ele>755.25</ele><time>2026-04-05T17:57:28Z</time></trkpt><trkpt lat="43.95045477784523" lon="11.662241365709093"><ele>752.5</ele><time>2026-04-05T17:57:29Z</time></trkpt><trkpt lat="43.95045965105105" lon="11.66240210302119"><ele>749.75</ele><time>2026-04-05T17:57:30Z</time></trkpt><trkpt lat="43.950509652276814" lon="11.66254247203274"><ele>747.0</ele><time>2026-04-05T17:57:31Z</time></trkpt><trkpt lat="43.95060546514164" lon="11.662644474358427"><ele>747.0</ele><time>2026-04-05T17:57:32Z</time></trkpt><trkpt lat="43.950737959067325" lon="11.662703933889444"><ele>747.0</ele><time>2026-04-05T17:57:33Z</time></trkpt><trkpt lat="43.95088329791211" lon="11.662741554725423"><ele>747.0</ele><time>2026-04-05T17:57:34Z</time></trkpt><trkpt lat="43.95104184951132" lon="11.66272384762171"><ele>747.0</ele><time>2026-04-05T17:57:35Z</time></trkpt><trkpt lat="43.951199762196815" lon="11.662691054555845"><ele>747.75</ele><time>2026-04-05T17:57:36Z</time></trkpt><trkpt lat="43.9513512327116" lon="11.66268441245991"><ele>748.5</ele><time>2026-04-05T17:57:37Z</time></trkpt><trkpt lat="43.95149449890918" lon="11.662666459629662"><ele>749.25</ele><time>2026-04-05T17:57:38Z</time></trkpt><trkpt lat="43.95161132251638" lon="11.662736321889165"><ele>750.0</ele><time>2026-04-05T17:57:39Z</time></trkpt><trkpt lat="43.951712865119774" lon="11.662847341598003"><ele>750.0</ele><time>2026-04-05T17:57:40Z</time></trkpt><trkpt lat="43.95179377277384" lon="11.662957227735623"><ele>750.0</ele><time>2026-04-05T17:57:41Z</time></trkpt><trkpt lat="43.951880439196614" lon="11.66306620155481"><ele>750.0</ele><time>2026-04-05T17:57:42Z</time></trkpt><trkpt lat="43.95198806690864" lon="11.663107188110006"><ele>750.0</ele><time>2026-04-05T17:57:43Z</time></trkpt><trkpt lat="43.952094110927355" lon="11.663065796165634"><ele>750.0</ele><time>2026-04-05T17:57:44Z</time></trkpt><trkpt lat="43.95217754394134" lon="11.662999107677145"><ele>750.0</ele><time>2026-04-05T17:57:45Z</time></trkpt><trkpt lat="43.95226365791738" lon="11.662946536846148"><ele>750.0</ele><time>2026-04-05T17:57:46Z</time></trkpt><trkpt lat="43.95235351821299" lon="11.662866830782757"><ele>750.0</ele><time>2026-04-05T17:57:47Z</time></trkpt><trkpt lat="43.95244183609728" lon="11.662814748371085"><ele>750.0</ele><time>2026-04-05T17:57:48Z</time></trkpt><trkpt lat="43.95250842309055" lon="11.662823742355307"><ele>750.0</ele><time>2026-04-05T17:57:49Z</time></trkpt><trkpt lat="43.95258514510328" lon="11.662855428139835"><ele>750.0</ele><time>2026-04-05T17:57:50Z</time></trkpt><trkpt lat="43.952627251257894" lon="11.662984732154197"><ele>750.0</ele><time>2026-04-05T17:57:51Z</time></trkpt><trkpt lat="43.95261454354185" lon="11.663152385237023"><ele>750.0</ele><time>2026-04-05T17:57:52Z</time></trkpt><trkpt lat="43.952553663841854" lon="11.66329519414446"><ele>750.0</ele><time>2026-04-05T17:57:53Z</time></trkpt><trkpt lat="43.95245073831202" lon="11.663412446430579"><ele>750.0</ele><time>2026-04-05T17:57:54Z</time></trkpt><trkpt lat="43.95236103952125" lon="11.66353451311029"><ele>750.0</ele><time>2026-04-05T17:57:55Z</time></trkpt><trkpt lat="43.95227594588221" lon="11.663693343428255"><ele>750.0</ele><time>2026-04-05T17:57:56Z</time></trkpt><trkpt lat="43.952218566858654" lon="11.663882810430245"><ele>750.0</ele><time>2026-04-05T17:57:57Z</time></trkpt><trkpt lat="43.95218368202833" lon="11.664072758017467"><ele>748.5</ele><time>2026-04-05T17:57:58Z</time></trkpt><trkpt lat="43.952193211039614" lon="11.664245849896025"><ele>747.0</ele><time>2026-04-05T17:57:59Z</time></trkpt><trkpt lat="43.952243094846736" lon="11.664410020224892"><ele>745.5</ele><time>2026-04-05T17:58:00Z</time></trkpt><trkpt lat="43.95232893134899" lon="11.664584818177241"><ele>744.0</ele><time>2026-04-05T17:58:01Z</time></trkpt><trkpt lat="43.95242438021216" lon="11.664761339702533"><ele>742.75</ele><time>2026-04-05T17:58:02Z</time></trkpt><trkpt lat="43.95251767495357" lon="11.664912887403693"><ele>741.5</ele><time>2026-04-05T17:58:03Z</time></trkpt><trkpt lat="43.95262051059128" lon="11.665027115594132"><ele>740.25</ele><time>2026-04-05T17:58:04Z</time></trkpt><trkpt lat="43.95272895855858" lon="11.665077823152162"><ele>739.0</ele><time>2026-04-05T17:58:05Z</time></trkpt><trkpt lat="43.952851474666716" lon="11.665067785367127"><ele>739.0</ele><time>2026-04-05T17:58:06Z</time></trkpt><trkpt lat="43.95299048292049" lon="11.664990915235467"><ele>739.0</ele><time>2026-04-05T17:58:06.999Z</time></trkpt><trkpt lat="43.95312087871274" lon="11.664916474174502"><ele>739.0</ele><time>2026-04-05T17:58:07.999Z</time></trkpt><trkpt lat="43.95328569912712" lon="11.664851274519984"><ele>743.25</ele><time>2026-04-05T17:58:08.999Z</time></trkpt><trkpt lat="43.953445989814405" lon="11.664806062364521"><ele>747.5</ele><time>2026-04-05T17:58:09.999Z</time></trkpt><trkpt lat="43.95358359395387" lon="11.664771376487423"><ele>751.75</ele><time>2026-04-05T17:58:10.999Z</time></trkpt><trkpt lat="43.9537024281294" lon="11.664730777121255"><ele>756.0</ele><time>2026-04-05T17:58:11.999Z</time></trkpt><trkpt lat="43.95380818337862" lon="11.664729058286872"><ele>756.0</ele><time>2026-04-05T17:58:12.999Z</time></trkpt><trkpt lat="43.953886874619464" lon="11.664797136177931"><ele>756.0</ele><time>2026-04-05T17:58:13.999Z</time></trkpt><trkpt lat="43.9539323890342" lon="11.664920746469383"><ele>756.0</ele><time>2026-04-05T17:58:14.999Z</time></trkpt><trkpt lat="43.953908728967455" lon="11.6650630067076"><ele>756.0</ele><time>2026-04-05T17:58:15.999Z</time></trkpt><trkpt lat="43.95383864617741" lon="11.665184815885594"><ele>756.0</ele><time>2026-04-05T17:58:16.999Z</time></trkpt><trkpt lat="43.953732170759956" lon="11.66529335397117"><ele>759.5</ele><time>2026-04-05T17:58:17.999Z</time></trkpt><trkpt lat="43.95361892609029" lon="11.66541539739597"><ele>763.0</ele><time>2026-04-05T17:58:18.999Z</time></trkpt><trkpt lat="43.953501127474034" lon="11.665554060097936"><ele>766.5</ele><time>2026-04-05T17:58:19.999Z</time></trkpt><trkpt lat="43.953384701835994" lon="11.6656856389612"><ele>770.0</ele><time>2026-04-05T17:58:20.999Z</time></trkpt><trkpt lat="43.95329601912852" lon="11.665821732838578"><ele>758.5</ele><time>2026-04-05T17:58:21.999Z</time></trkpt><trkpt lat="43.95323942095363" lon="11.665953422722044"><ele>747.0</ele><time>2026-04-05T17:58:22.999Z</time></trkpt><trkpt lat="43.95323085061757" lon="11.666116368685516"><ele>735.5</ele><time>2026-04-05T17:58:23.999Z</time></trkpt><trkpt lat="43.9532771193381" lon="11.666285186655434"><ele>724.0</ele><time>2026-04-05T17:58:24.999Z</time></trkpt><trkpt lat="43.953324855061375" lon="11.666487140873372"><ele>722.25</ele><time>2026-04-05T17:58:25.999Z</time></trkpt><trkpt lat="43.95336309889068" lon="11.666697692342046"><ele>720.5</ele><time>2026-04-05T17:58:26.999Z</time></trkpt><trkpt lat="43.953392718831864" lon="11.666876489281266"><ele>718.75</ele><time>2026-04-05T17:58:27.999Z</time></trkpt><trkpt lat="43.95344483407903" lon="11.66701349070239"><ele>717.0</ele><time>2026-04-05T17:58:28.999Z</time></trkpt><trkpt lat="43.95354143591293" lon="11.667098815595955"><ele>715.0</ele><time>2026-04-05T17:58:29.999Z</time></trkpt><trkpt lat="43.95367478096347" lon="11.667144199816539"><ele>713.0</ele><time>2026-04-05T17:58:30.999Z</time></trkpt><trkpt lat="43.953830905602075" lon="11.66719343424544"><ele>711.0</ele><time>2026-04-05T17:58:31.999Z</time></trkpt><trkpt lat="43.95396484005412" lon="11.667252599072244"><ele>709.0</ele><time>2026-04-05T17:58:32.999Z</time></trkpt><trkpt lat="43.954106570357524" lon="11.66726922797466"><ele>708.0</ele><time>2026-04-05T17:58:33.999Z</time></trkpt><trkpt lat="43.9542408809821" lon="11.667229932024878"><ele>707.0</ele><time>2026-04-05T17:58:34.999Z</time></trkpt><trkpt lat="43.9543950015168" lon="11.667170249405489"><ele>706.0</ele><time>2026-04-05T17:58:35.999Z</time></trkpt><trkpt lat="43.954585908987845" lon="11.667085480227048"><ele>706.0</ele><time>2026-04-05T17:58:36.999Z</time></trkpt><trkpt lat="43.95480554772333" lon="11.667036736542922"><ele>706.0</ele><time>2026-04-05T17:58:37.999Z</time></trkpt><trkpt lat="43.954924931575434" lon="11.667124845314055"><ele>706.0</ele><time>2026-04-05T17:58:38.999Z</time></trkpt><trkpt lat="43.95507514964977" lon="11.667216729733893"><ele>704.25</ele><time>2026-04-05T17:58:39.999Z</time></trkpt><trkpt lat="43.95520577792201" lon="11.66735327644584"><ele>702.5</ele><time>2026-04-05T17:58:40.999Z</time></trkpt><trkpt lat="43.955329768325086" lon="11.667464451925047"><ele>700.75</ele><time>2026-04-05T17:58:41.999Z</time></trkpt><trkpt lat="43.95544296786353" lon="11.667540372249896"><ele>699.0</ele><time>2026-04-05T17:58:42.999Z</time></trkpt><trkpt lat="43.95556384139247" lon="11.667535827157444"><ele>699.0</ele><time>2026-04-05T17:58:43.999Z</time></trkpt><trkpt lat="43.955681061905736" lon="11.66747209802282"><ele>699.0</ele><time>2026-04-05T17:58:44.999Z</time></trkpt><trkpt lat="43.95575158555225" lon="11.667342443548026"><ele>699.0</ele><time>2026-04-05T17:58:45.999Z</time></trkpt><trkpt lat="43.95583062040997" lon="11.66719209138252"><ele>699.0</ele><time>2026-04-05T17:58:46.999Z</time></trkpt><trkpt lat="43.95592734864161" lon="11.66704329512334"><ele>705.5</ele><time>2026-04-05T17:58:47.999Z</time></trkpt><trkpt lat="43.95602888271654" lon="11.666913197406329"><ele>712.0</ele><time>2026-04-05T17:58:48.999Z</time></trkpt><trkpt lat="43.956124145753" lon="11.666802788481748"><ele>718.5</ele><time>2026-04-05T17:58:49.999Z</time></trkpt><trkpt lat="43.95621718134994" lon="11.666755201080024"><ele>725.0</ele><time>2026-04-05T17:58:50.999Z</time></trkpt><trkpt lat="43.95631391978617" lon="11.666776768179483"><ele>725.0</ele><time>2026-04-05T17:58:51.999Z</time></trkpt><trkpt lat="43.956382939636605" lon="11.666868495475983"><ele>725.0</ele><time>2026-04-05T17:58:52.999Z</time></trkpt><trkpt lat="43.95641416916179" lon="11.667005933844441"><ele>725.0</ele><time>2026-04-05T17:58:53.999Z</time></trkpt><trkpt lat="43.956399437980714" lon="11.667166060305476"><ele>725.0</ele><time>2026-04-05T17:58:54.999Z</time></trkpt><trkpt lat="43.95639155123795" lon="11.667309635484191"><ele>725.0</ele><time>2026-04-05T17:58:55.999Z</time></trkpt><trkpt lat="43.95642571772418" lon="11.667447620109424"><ele>718.5</ele><time>2026-04-05T17:58:56.999Z</time></trkpt><trkpt lat="43.956517635569924" lon="11.667568344256663"><ele>712.0</ele><time>2026-04-05T17:58:57.999Z</time></trkpt><trkpt lat="43.95664026952388" lon="11.667638267507808"><ele>705.5</ele><time>2026-04-05T17:58:58.999Z</time></trkpt><trkpt lat="43.95678085317654" lon="11.667645928154066"><ele>699.0</ele><time>2026-04-05T17:58:59.999Z</time></trkpt><trkpt lat="43.95692605940229" lon="11.6675769240273"><ele>699.0</ele><time>2026-04-05T17:59:00.999Z</time></trkpt><trkpt lat="43.957051337095294" lon="11.667501827240503"><ele>699.0</ele><time>2026-04-05T17:59:01.999Z</time></trkpt><trkpt lat="43.9571857953266" lon="11.667463330385925"><ele>699.0</ele><time>2026-04-05T17:59:02.999Z</time></trkpt><trkpt lat="43.95733612655903" lon="11.66751021239573"><ele>699.0</ele><time>2026-04-05T17:59:03.999Z</time></trkpt><trkpt lat="43.95750263723566" lon="11.667580402964797"><ele>704.0</ele><time>2026-04-05T17:59:04.999Z</time></trkpt><trkpt lat="43.95767138389093" lon="11.667644579693109"><ele>709.0</ele><time>2026-04-05T17:59:05.999Z</time></trkpt><trkpt lat="43.95783130206024" lon="11.667725332155383"><ele>714.0</ele><time>2026-04-05T17:59:06.999Z</time></trkpt><trkpt lat="43.957979570317356" lon="11.66783549799107"><ele>703.0</ele><time>2026-04-05T17:59:07.999Z</time></trkpt><trkpt lat="43.95809744143344" lon="11.66799428791191"><ele>692.0</ele><time>2026-04-05T17:59:08.999Z</time></trkpt><trkpt lat="43.95819382048094" lon="11.668163338178026"><ele>681.0</ele><time>2026-04-05T17:59:09.999Z</time></trkpt><trkpt lat="43.958287868634386" lon="11.668300689570255"><ele>682.25</ele><time>2026-04-05T17:59:10.999Z</time></trkpt><trkpt lat="43.958390856913724" lon="11.668379980079907"><ele>683.5</ele><time>2026-04-05T17:59:11.999Z</time></trkpt><trkpt lat="43.95850008318174" lon="11.668392745122253"><ele>684.75</ele><time>2026-04-05T17:59:12.999Z</time></trkpt><trkpt lat="43.95860735102972" lon="11.668341657914596"><ele>686.0</ele><time>2026-04-05T17:59:14Z</time></trkpt><trkpt lat="43.9587112678864" lon="11.668260000983137"><ele>686.0</ele><time>2026-04-05T17:59:15Z</time></trkpt><trkpt lat="43.9588246413418" lon="11.668190997030813"><ele>686.0</ele><time>2026-04-05T17:59:16Z</time></trkpt><trkpt lat="43.958938926023194" lon="11.668184725364302"><ele>686.0</ele><time>2026-04-05T17:59:17Z</time></trkpt><trkpt lat="43.95905980399721" lon="11.668225259831312"><ele>686.0</ele><time>2026-04-05T17:59:18Z</time></trkpt><trkpt lat="43.95917795378025" lon="11.668341616085122"><ele>691.3333333333333</ele><time>2026-04-05T17:59:19Z</time></trkpt><trkpt lat="43.95929906695417" lon="11.66847844984545"><ele>696.6666666666666</ele><time>2026-04-05T17:59:20Z</time></trkpt><trkpt lat="43.95942580960854" lon="11.668606971534222"><ele>702.0</ele><time>2026-04-05T17:59:21Z</time></trkpt><trkpt lat="43.95957927327394" lon="11.66872535603724"><ele>689.6666666666666</ele><time>2026-04-05T17:59:22Z</time></trkpt><trkpt lat="43.959729167086685" lon="11.66883068343993"><ele>677.3333333333333</ele><time>2026-04-05T17:59:23Z</time></trkpt><trkpt lat="43.95987307744656" lon="11.668918580072132"><ele>665.0</ele><time>2026-04-05T17:59:24Z</time></trkpt><trkpt lat="43.96002385306502" lon="11.669001391877652"><ele>667.0</ele><time>2026-04-05T17:59:25Z</time></trkpt><trkpt lat="43.96016739870569" lon="11.66904704477049"><ele>669.0</ele><time>2026-04-05T17:59:26Z</time></trkpt><trkpt lat="43.96032818506458" lon="11.669037759900512"><ele>671.0</ele><time>2026-04-05T17:59:27Z</time></trkpt><trkpt lat="43.96048027907547" lon="11.668999723371499"><ele>671.0</ele><time>2026-04-05T17:59:28Z</time></trkpt><trkpt lat="43.96062016381741" lon="11.668978230057586"><ele>671.0</ele><time>2026-04-05T17:59:29Z</time></trkpt><trkpt lat="43.960755292383304" lon="11.669017651196581"><ele>671.0</ele><time>2026-04-05T17:59:30Z</time></trkpt><trkpt lat="43.96087079509852" lon="11.669123239097882"><ele>671.0</ele><time>2026-04-05T17:59:31Z</time></trkpt><trkpt lat="43.96097608280845" lon="11.669264908658867"><ele>672.75</ele><time>2026-04-05T17:59:32Z</time></trkpt><trkpt lat="43.961081304365244" lon="11.669366389799642"><ele>674.5</ele><time>2026-04-05T17:59:33Z</time></trkpt><trkpt lat="43.96122180611172" lon="11.669399830069711"><ele>676.25</ele><time>2026-04-05T17:59:34Z</time></trkpt><trkpt lat="43.96137754705902" lon="11.66941136897612"><ele>678.0</ele><time>2026-04-05T17:59:35Z</time></trkpt><trkpt lat="43.96154808920484" lon="11.669421539948276"><ele>681.0</ele><time>2026-04-05T17:59:36Z</time></trkpt><trkpt lat="43.961726940472985" lon="11.669432841138256"><ele>684.0</ele><time>2026-04-05T17:59:37Z</time></trkpt><trkpt lat="43.96190012093232" lon="11.669467944711215"><ele>687.0</ele><time>2026-04-05T17:59:38Z</time></trkpt><trkpt lat="43.96205586276859" lon="11.669565407031243"><ele>677.6666666666666</ele><time>2026-04-05T17:59:39Z</time></trkpt><trkpt lat="43.96222643240424" lon="11.669682603670084"><ele>668.3333333333333</ele><time>2026-04-05T17:59:40Z</time></trkpt><trkpt lat="43.962386861378405" lon="11.669793507642199"><ele>659.0</ele><time>2026-04-05T17:59:41Z</time></trkpt><trkpt lat="43.96256317594454" lon="11.66991776586457"><ele>659.0</ele><time>2026-04-05T17:59:42Z</time></trkpt><trkpt lat="43.96271869045907" lon="11.67006790613741"><ele>659.0</ele><time>2026-04-05T17:59:43Z</time></trkpt><trkpt lat="43.962841465657284" lon="11.67022928976484"><ele>659.0</ele><time>2026-04-05T17:59:44Z</time></trkpt><trkpt lat="43.962943521153505" lon="11.670365192881173"><ele>651.5</ele><time>2026-04-05T17:59:45Z</time></trkpt><trkpt lat="43.963030673028555" lon="11.670480189798273"><ele>644.0</ele><time>2026-04-05T17:59:46Z</time></trkpt><trkpt lat="43.963158679488636" lon="11.670585206662532"><ele>636.5</ele><time>2026-04-05T17:59:47Z</time></trkpt><trkpt lat="43.96327175618626" lon="11.67049725951409"><ele>629.0</ele><time>2026-04-05T17:59:48Z</time></trkpt><trkpt lat="43.963434165546374" lon="11.67044385176059"><ele>628.3333333333333</ele><time>2026-04-05T17:59:49Z</time></trkpt><trkpt lat="43.96359820425782" lon="11.67034163616745"><ele>627.6666666666666</ele><time>2026-04-05T17:59:50Z</time></trkpt><trkpt lat="43.963783947460094" lon="11.67023890324692"><ele>627.0</ele><time>2026-04-05T17:59:51Z</time></trkpt><trkpt lat="43.96395910686597" lon="11.67014987571232"><ele>625.0</ele><time>2026-04-05T17:59:52Z</time></trkpt><trkpt lat="43.96417720208017" lon="11.670081078917342"><ele>623.0</ele><time>2026-04-05T17:59:53Z</time></trkpt><trkpt lat="43.964309633919754" lon="11.670068308248673"><ele>621.0</ele><time>2026-04-05T17:59:54Z</time></trkpt><trkpt lat="43.9644807526649" lon="11.670068499754002"><ele>621.0</ele><time>2026-04-05T17:59:55Z</time></trkpt><trkpt lat="43.96462177859124" lon="11.67004609467427"><ele>621.0</ele><time>2026-04-05T17:59:56Z</time></trkpt><trkpt lat="43.964760901505834" lon="11.670038490096497"><ele>621.0</ele><time>2026-04-05T17:59:57Z</time></trkpt><trkpt lat="43.96489197365929" lon="11.669963795137045"><ele>621.0</ele><time>2026-04-05T17:59:58Z</time></trkpt><trkpt lat="43.96500569248937" lon="11.669831161670453"><ele>624.0</ele><time>2026-04-05T17:59:59Z</time></trkpt><trkpt lat="43.96508723514034" lon="11.669665596985261"><ele>627.0</ele><time>2026-04-05T18:00:00Z</time></trkpt><trkpt lat="43.96517434620563" lon="11.669523303914403"><ele>630.0</ele><time>2026-04-05T18:00:01Z</time></trkpt><trkpt lat="43.96525102830814" lon="11.669394201441362"><ele>633.0</ele><time>2026-04-05T18:00:02Z</time></trkpt><trkpt lat="43.965329890138314" lon="11.669321817130081"><ele>633.0</ele><time>2026-04-05T18:00:03Z</time></trkpt><trkpt lat="43.96541982439478" lon="11.66932343715517"><ele>633.0</ele><time>2026-04-05T18:00:04Z</time></trkpt><trkpt lat="43.96551864645684" lon="11.669358878509817"><ele>633.0</ele><time>2026-04-05T18:00:05Z</time></trkpt><trkpt lat="43.96555884350659" lon="11.669548814069675"><ele>633.0</ele><time>2026-04-05T18:00:06Z</time></trkpt><trkpt lat="43.96557823867649" lon="11.669702550563787"><ele>633.0</ele><time>2026-04-05T18:00:07Z</time></trkpt><trkpt lat="43.96559533016109" lon="11.669842346288455"><ele>633.0</ele><time>2026-04-05T18:00:08Z</time></trkpt><trkpt lat="43.96562126667645" lon="11.67005448785569"><ele>633.0</ele><time>2026-04-05T18:00:09Z</time></trkpt><trkpt lat="43.96565361433901" lon="11.670272228407242"><ele>633.0</ele><time>2026-04-05T18:00:10Z</time></trkpt><trkpt lat="43.96570398830084" lon="11.67045538261141"><ele>635.6666666666666</ele><time>2026-04-05T18:00:11Z</time></trkpt><trkpt lat="43.96580181814449" lon="11.670606299809048"><ele>638.3333333333333</ele><time>2026-04-05T18:00:12Z</time></trkpt><trkpt lat="43.96591802814057" lon="11.670764265706326"><ele>641.0</ele><time>2026-04-05T18:00:13Z</time></trkpt><trkpt lat="43.966045953939734" lon="11.670919863497108"><ele>636.0</ele><time>2026-04-05T18:00:14Z</time></trkpt><trkpt lat="43.96616972940454" lon="11.67111483581285"><ele>631.0</ele><time>2026-04-05T18:00:15Z</time></trkpt><trkpt lat="43.96629568883023" lon="11.671293751142265"><ele>626.0</ele><time>2026-04-05T18:00:16Z</time></trkpt><trkpt lat="43.96641593999605" lon="11.671466270237454"><ele>626.0</ele><time>2026-04-05T18:00:16.999Z</time></trkpt><trkpt lat="43.96652156246087" lon="11.671644586641595"><ele>626.0</ele><time>2026-04-05T18:00:17.999Z</time></trkpt><trkpt lat="43.96660110693585" lon="11.67184563880434"><ele>626.0</ele><time>2026-04-05T18:00:18.999Z</time></trkpt><trkpt lat="43.96667219784556" lon="11.67205411108966"><ele>629.25</ele><time>2026-04-05T18:00:19.999Z</time></trkpt><trkpt lat="43.96671074109415" lon="11.672256224260092"><ele>632.5</ele><time>2026-04-05T18:00:20.999Z</time></trkpt><trkpt lat="43.96671735166951" lon="11.672458640183391"><ele>635.75</ele><time>2026-04-05T18:00:21.999Z</time></trkpt><trkpt lat="43.96671662775054" lon="11.672669958035378"><ele>639.0</ele><time>2026-04-05T18:00:22.999Z</time></trkpt><trkpt lat="43.96671243451333" lon="11.672878601042363"><ele>639.0</ele><time>2026-04-05T18:00:23.999Z</time></trkpt><trkpt lat="43.966721761841214" lon="11.673094910822298"><ele>639.0</ele><time>2026-04-05T18:00:24.999Z</time></trkpt><trkpt lat="43.96678439499345" lon="11.673274258940813"><ele>639.0</ele><time>2026-04-05T18:00:25.999Z</time></trkpt><trkpt lat="43.96683303087789" lon="11.673440573925948"><ele>639.0</ele><time>2026-04-05T18:00:26.999Z</time></trkpt><trkpt lat="43.96690425610673" lon="11.673563535801312"><ele>635.5</ele><time>2026-04-05T18:00:27.999Z</time></trkpt><trkpt lat="43.96700949232706" lon="11.673641273149263"><ele>632.0</ele><time>2026-04-05T18:00:28.999Z</time></trkpt><trkpt lat="43.96712557765299" lon="11.673678136570857"><ele>628.5</ele><time>2026-04-05T18:00:29.999Z</time></trkpt><trkpt lat="43.96720225258668" lon="11.673792632704172"><ele>625.0</ele><time>2026-04-05T18:00:30.999Z</time></trkpt><trkpt lat="43.967253013720935" lon="11.673940560029068"><ele>625.0</ele><time>2026-04-05T18:00:31.999Z</time></trkpt><trkpt lat="43.96727271744531" lon="11.674115253781563"><ele>625.0</ele><time>2026-04-05T18:00:32.999Z</time></trkpt><trkpt lat="43.967292432996636" lon="11.674293723936346"><ele>625.0</ele><time>2026-04-05T18:00:33.999Z</time></trkpt><trkpt lat="43.967317339572126" lon="11.674453999856839"><ele>625.0</ele><time>2026-04-05T18:00:34.999Z</time></trkpt><trkpt lat="43.96737491924999" lon="11.674593671099663"><ele>622.0</ele><time>2026-04-05T18:00:35.999Z</time></trkpt><trkpt lat="43.967463448982656" lon="11.674703711179161"><ele>619.0</ele><time>2026-04-05T18:00:36.999Z</time></trkpt><trkpt lat="43.96758176544516" lon="11.674785485176077"><ele>616.0</ele><time>2026-04-05T18:00:37.999Z</time></trkpt><trkpt lat="43.96771469085233" lon="11.674874788610119"><ele>613.0</ele><time>2026-04-05T18:00:38.999Z</time></trkpt><trkpt lat="43.967844253505135" lon="11.67497587443284"><ele>613.0</ele><time>2026-04-05T18:00:39.999Z</time></trkpt><trkpt lat="43.967947768738654" lon="11.67506098851933"><ele>613.0</ele><time>2026-04-05T18:00:40.999Z</time></trkpt><trkpt lat="43.96803965718161" lon="11.675101161370328"><ele>613.0</ele><time>2026-04-05T18:00:41.999Z</time></trkpt><trkpt lat="43.968134380257744" lon="11.675073896935208"><ele>613.0</ele><time>2026-04-05T18:00:42.999Z</time></trkpt><trkpt lat="43.96824250533883" lon="11.674988266713674"><ele>613.0</ele><time>2026-04-05T18:00:43.999Z</time></trkpt><trkpt lat="43.968357528613815" lon="11.674897883836964"><ele>614.25</ele><time>2026-04-05T18:00:44.999Z</time></trkpt><trkpt lat="43.968496045574746" lon="11.674830585645688"><ele>615.5</ele><time>2026-04-05T18:00:45.999Z</time></trkpt><trkpt lat="43.968643462410554" lon="11.674823400678676"><ele>616.75</ele><time>2026-04-05T18:00:46.999Z</time></trkpt><trkpt lat="43.9687961975135" lon="11.674813825058385"><ele>618.0</ele><time>2026-04-05T18:00:47.999Z</time></trkpt><trkpt lat="43.96893662326317" lon="11.674807011704097"><ele>618.0</ele><time>2026-04-05T18:00:48.999Z</time></trkpt><trkpt lat="43.96906918129647" lon="11.674801894882112"><ele>618.0</ele><time>2026-04-05T18:00:49.999Z</time></trkpt><trkpt lat="43.96918933705395" lon="11.674917476798399"><ele>618.0</ele><time>2026-04-05T18:00:50.999Z</time></trkpt><trkpt lat="43.96932749987884" lon="11.67501834790937"><ele>618.0</ele><time>2026-04-05T18:00:51.999Z</time></trkpt><trkpt lat="43.9694370149317" lon="11.675125211943042"><ele>618.0</ele><time>2026-04-05T18:00:52.999Z</time></trkpt><trkpt lat="43.9695482735863" lon="11.675186700155777"><ele>618.0</ele><time>2026-04-05T18:00:53.999Z</time></trkpt><trkpt lat="43.96967957926408" lon="11.675192739156383"><ele>618.0</ele><time>2026-04-05T18:00:54.999Z</time></trkpt><trkpt lat="43.969837204212915" lon="11.67516803733718"><ele>618.0</ele><time>2026-04-05T18:00:55.999Z</time></trkpt><trkpt lat="43.96999227313322" lon="11.675141244897903"><ele>618.0</ele><time>2026-04-05T18:00:56.999Z</time></trkpt><trkpt lat="43.970124833120224" lon="11.675102430840276"><ele>618.0</ele><time>2026-04-05T18:00:57.999Z</time></trkpt><trkpt lat="43.970226841717896" lon="11.675010703958339"><ele>618.0</ele><time>2026-04-05T18:00:58.999Z</time></trkpt><trkpt lat="43.970310394436595" lon="11.674874871444631"><ele>618.0</ele><time>2026-04-05T18:00:59.999Z</time></trkpt><trkpt lat="43.97039436479398" lon="11.67473383953434"><ele>618.0</ele><time>2026-04-05T18:01:00.999Z</time></trkpt><trkpt lat="43.9704847305515" lon="11.674641498605778"><ele>618.0</ele><time>2026-04-05T18:01:01.999Z</time></trkpt><trkpt lat="43.970594475166386" lon="11.674621647935254"><ele>618.0</ele><time>2026-04-05T18:01:02.999Z</time></trkpt><trkpt lat="43.970698249844304" lon="11.674686352752373"><ele>618.0</ele><time>2026-04-05T18:01:03.999Z</time></trkpt><trkpt lat="43.97075480250334" lon="11.674818629818855"><ele>618.0</ele><time>2026-04-05T18:01:04.999Z</time></trkpt><trkpt lat="43.970758805696626" lon="11.674984277784256"><ele>618.0</ele><time>2026-04-05T18:01:05.999Z</time></trkpt><trkpt lat="43.97081211515434" lon="11.675141190812099"><ele>618.0</ele><time>2026-04-05T18:01:06.999Z</time></trkpt><trkpt lat="43.970873153073725" lon="11.675299847077612"><ele>618.0</ele><time>2026-04-05T18:01:07.999Z</time></trkpt><trkpt lat="43.970977374256954" lon="11.675423600967852"><ele>618.0</ele><time>2026-04-05T18:01:08.999Z</time></trkpt><trkpt lat="43.971112665167084" lon="11.67552957998609"><ele>616.0</ele><time>2026-04-05T18:01:09.999Z</time></trkpt><trkpt lat="43.97123869411204" lon="11.675626096770332"><ele>614.0</ele><time>2026-04-05T18:01:10.999Z</time></trkpt><trkpt lat="43.97135353942141" lon="11.675705589387643"><ele>612.0</ele><time>2026-04-05T18:01:11.999Z</time></trkpt><trkpt lat="43.9714856658065" lon="11.675749784469996"><ele>610.0</ele><time>2026-04-05T18:01:12.999Z</time></trkpt><trkpt lat="43.97161671285116" lon="11.675752151002335"><ele>609.25</ele><time>2026-04-05T18:01:13.999Z</time></trkpt><trkpt lat="43.97176385876008" lon="11.675768953450032"><ele>608.5</ele><time>2026-04-05T18:01:14.999Z</time></trkpt><trkpt lat="43.971871071096864" lon="11.67586261109602"><ele>607.75</ele><time>2026-04-05T18:01:15.999Z</time></trkpt><trkpt lat="43.97197638109169" lon="11.675893788036724"><ele>607.0</ele><time>2026-04-05T18:01:16.999Z</time></trkpt><trkpt lat="43.97207248947651" lon="11.675881586215423"><ele>607.0</ele><time>2026-04-05T18:01:17.999Z</time></trkpt><trkpt lat="43.97216209956913" lon="11.675790653733078"><ele>607.0</ele><time>2026-04-05T18:01:18.999Z</time></trkpt><trkpt lat="43.972233519712766" lon="11.675654863266098"><ele>607.0</ele><time>2026-04-05T18:01:20Z</time></trkpt><trkpt lat="43.97232066256702" lon="11.675521421421967"><ele>607.0</ele><time>2026-04-05T18:01:21Z</time></trkpt><trkpt lat="43.972444569253184" lon="11.675474803945514"><ele>611.6</ele><time>2026-04-05T18:01:22Z</time></trkpt><trkpt lat="43.97258321537791" lon="11.675441073719542"><ele>616.2</ele><time>2026-04-05T18:01:23Z</time></trkpt><trkpt lat="43.972694449992574" lon="11.675405408366089"><ele>620.8</ele><time>2026-04-05T18:01:24Z</time></trkpt><trkpt lat="43.97279493992918" lon="11.675379054810499"><ele>625.4</ele><time>2026-04-05T18:01:25Z</time></trkpt><trkpt lat="43.97288006671425" lon="11.675378361346825"><ele>630.0</ele><time>2026-04-05T18:01:26Z</time></trkpt><trkpt lat="43.97295079799788" lon="11.675428109722159"><ele>630.0</ele><time>2026-04-05T18:01:27Z</time></trkpt><trkpt lat="43.97294590801991" lon="11.675548312753177"><ele>630.0</ele><time>2026-04-05T18:01:28Z</time></trkpt><trkpt lat="43.97290302630572" lon="11.675639905646669"><ele>630.0</ele><time>2026-04-05T18:01:29Z</time></trkpt><trkpt lat="43.9729606131589" lon="11.675814788738013"><ele>630.0</ele><time>2026-04-05T18:01:30Z</time></trkpt><trkpt lat="43.97294498378102" lon="11.675991148496756"><ele>630.0</ele><time>2026-04-05T18:01:31Z</time></trkpt><trkpt lat="43.97297606149274" lon="11.676158802252107"><ele>625.8</ele><time>2026-04-05T18:01:32Z</time></trkpt><trkpt lat="43.97304045926515" lon="11.676269966635266"><ele>621.6</ele><time>2026-04-05T18:01:33Z</time></trkpt><trkpt lat="43.973069600019365" lon="11.676417956407974"><ele>617.4</ele><time>2026-04-05T18:01:34Z</time></trkpt><trkpt lat="43.97307104787251" lon="11.6765420893774"><ele>613.2</ele><time>2026-04-05T18:01:35Z</time></trkpt><trkpt lat="43.973080283723185" lon="11.676661501857856"><ele>609.0</ele><time>2026-04-05T18:01:36Z</time></trkpt><trkpt lat="43.97309182379159" lon="11.676787407883827"><ele>609.0</ele><time>2026-04-05T18:01:37Z</time></trkpt><trkpt lat="43.97311028084889" lon="11.676891077119608"><ele>609.0</ele><time>2026-04-05T18:01:38Z</time></trkpt><trkpt lat="43.97318716462247" lon="11.676970820369108"><ele>609.0</ele><time>2026-04-05T18:01:39Z</time></trkpt><trkpt lat="43.97329384294835" lon="11.676962746959612"><ele>609.0</ele><time>2026-04-05T18:01:40Z</time></trkpt><trkpt lat="43.973386795376065" lon="11.676934175026894"><ele>609.0</ele><time>2026-04-05T18:01:41Z</time></trkpt><trkpt lat="43.97348123572689" lon="11.676900489502207"><ele>607.1666666666666</ele><time>2026-04-05T18:01:42Z</time></trkpt><trkpt lat="43.97357337821356" lon="11.67688904670609"><ele>605.3333333333334</ele><time>2026-04-05T18:01:43Z</time></trkpt><trkpt lat="43.973645342149894" lon="11.676950192050985"><ele>603.5</ele><time>2026-04-05T18:01:44Z</time></trkpt><trkpt lat="43.97369609949102" lon="11.677034812259361"><ele>601.6666666666667</ele><time>2026-04-05T18:01:45Z</time></trkpt><trkpt lat="43.97373620763851" lon="11.677137055853299"><ele>599.8333333333334</ele><time>2026-04-05T18:01:46Z</time></trkpt><trkpt lat="43.97375375024921" lon="11.677257774312823"><ele>598.0</ele><time>2026-04-05T18:01:47Z</time></trkpt><trkpt lat="43.973784648304985" lon="11.677343515578903"><ele>598.0</ele><time>2026-04-05T18:01:48Z</time></trkpt><trkpt lat="43.97388069164246" lon="11.67743996034461"><ele>598.0</ele><time>2026-04-05T18:01:50Z</time></trkpt><trkpt lat="43.973953854591066" lon="11.677495337816962"><ele>598.0</ele><time>2026-04-05T18:01:51Z</time></trkpt><trkpt lat="43.97403648206704" lon="11.677552883358908"><ele>598.0</ele><time>2026-04-05T18:01:52Z</time></trkpt><trkpt lat="43.974130132481896" lon="11.677607831820485"><ele>598.0</ele><time>2026-04-05T18:01:53Z</time></trkpt><trkpt lat="43.97421853055084" lon="11.67765435647148"><ele>597.4</ele><time>2026-04-05T18:01:54Z</time></trkpt><trkpt lat="43.97430994481245" lon="11.67769705647448"><ele>596.8</ele><time>2026-04-05T18:01:55Z</time></trkpt><trkpt lat="43.97440207873867" lon="11.677720295495087"><ele>596.2</ele><time>2026-04-05T18:01:56Z</time></trkpt><trkpt lat="43.974481600504355" lon="11.67774746377919"><ele>595.6</ele><time>2026-04-05T18:01:57Z</time></trkpt><trkpt lat="43.97456933277441" lon="11.677724121495192"><ele>595.0</ele><time>2026-04-05T18:01:58Z</time></trkpt><trkpt lat="43.974624209270594" lon="11.67760371671414"><ele>595.0</ele><time>2026-04-05T18:01:59Z</time></trkpt><trkpt lat="43.97467991346832" lon="11.67749355072154"><ele>595.0</ele><time>2026-04-05T18:02:00Z</time></trkpt><trkpt lat="43.974746107988665" lon="11.677397552172962"><ele>595.0</ele><time>2026-04-05T18:02:01Z</time></trkpt><trkpt lat="43.97484083438198" lon="11.67738430318264"><ele>595.0</ele><time>2026-04-05T18:02:02Z</time></trkpt><trkpt lat="43.9749251913337" lon="11.67737487635183"><ele>595.0</ele><time>2026-04-05T18:02:03Z</time></trkpt><trkpt lat="43.97499645625192" lon="11.677485589481037"><ele>596.2</ele><time>2026-04-05T18:02:04Z</time></trkpt><trkpt lat="43.9750783031128" lon="11.67755664279945"><ele>597.4</ele><time>2026-04-05T18:02:05Z</time></trkpt><trkpt lat="43.9751645232815" lon="11.677613327198308"><ele>598.6</ele><time>2026-04-05T18:02:06Z</time></trkpt><trkpt lat="43.97522807116479" lon="11.677725072439179"><ele>599.8</ele><time>2026-04-05T18:02:07Z</time></trkpt><trkpt lat="43.97526682812962" lon="11.677850256078692"><ele>601.0</ele><time>2026-04-05T18:02:08Z</time></trkpt><trkpt lat="43.97524095160958" lon="11.67798298621484"><ele>601.0</ele><time>2026-04-05T18:02:09Z</time></trkpt><trkpt lat="43.97522867272002" lon="11.67811107583608"><ele>601.0</ele><time>2026-04-05T18:02:10Z</time></trkpt><trkpt lat="43.975227061204535" lon="11.678247330386089"><ele>601.0</ele><time>2026-04-05T18:02:11Z</time></trkpt><trkpt lat="43.97521319031354" lon="11.678379692224194"><ele>601.0</ele><time>2026-04-05T18:02:12Z</time></trkpt><trkpt lat="43.97523282970154" lon="11.67851074952851"><ele>601.0</ele><time>2026-04-05T18:02:13Z</time></trkpt><trkpt lat="43.97528437291355" lon="11.678667312552998"><ele>593.6</ele><time>2026-04-05T18:02:14Z</time></trkpt><trkpt lat="43.975350004756194" lon="11.678749778904008"><ele>586.2</ele><time>2026-04-05T18:02:15Z</time></trkpt><trkpt lat="43.975413123217685" lon="11.678862240086337"><ele>578.8</ele><time>2026-04-05T18:02:16Z</time></trkpt><trkpt lat="43.9754920587413" lon="11.67894265181224"><ele>571.4</ele><time>2026-04-05T18:02:16.999Z</time></trkpt><trkpt lat="43.975567846512945" lon="11.67898440199608"><ele>564.0</ele><time>2026-04-05T18:02:17.999Z</time></trkpt><trkpt lat="43.975673685292264" lon="11.678965879965657"><ele>564.0</ele><time>2026-04-05T18:02:18.999Z</time></trkpt><trkpt lat="43.975770056994534" lon="11.678876633629399"><ele>564.0</ele><time>2026-04-05T18:02:19.999Z</time></trkpt><trkpt lat="43.9758557403757" lon="11.678820880453344"><ele>564.0</ele><time>2026-04-05T18:02:20.999Z</time></trkpt><trkpt lat="43.9759737230458" lon="11.678799651503489"><ele>564.0</ele><time>2026-04-05T18:02:21.999Z</time></trkpt><trkpt lat="43.97606903151913" lon="11.678843505726036"><ele>564.0</ele><time>2026-04-05T18:02:22.999Z</time></trkpt><trkpt lat="43.97616698494433" lon="11.678874417599198"><ele>562.4</ele><time>2026-04-05T18:02:23.999Z</time></trkpt><trkpt lat="43.97626839961714" lon="11.678873623610327"><ele>560.8</ele><time>2026-04-05T18:02:24.999Z</time></trkpt><trkpt lat="43.9763642826217" lon="11.678817576895266"><ele>559.2</ele><time>2026-04-05T18:02:25.999Z</time></trkpt><trkpt lat="43.97646015024095" lon="11.67875335352475"><ele>557.6</ele><time>2026-04-05T18:02:26.999Z</time></trkpt><trkpt lat="43.97654834529889" lon="11.678661952531241"><ele>556.0</ele><time>2026-04-05T18:02:27.999Z</time></trkpt><trkpt lat="43.97664993991668" lon="11.678609590886808"><ele>559.0</ele><time>2026-04-05T18:02:28.999Z</time></trkpt><trkpt lat="43.976743020335846" lon="11.67855077334957"><ele>562.0</ele><time>2026-04-05T18:02:29.999Z</time></trkpt><trkpt lat="43.97683112786689" lon="11.678550032926141"><ele>565.0</ele><time>2026-04-05T18:02:30.999Z</time></trkpt><trkpt lat="43.976915867307675" lon="11.67858277523494"><ele>568.0</ele><time>2026-04-05T18:02:31.999Z</time></trkpt><trkpt lat="43.97699073184263" lon="11.678661348644026"><ele>571.0</ele><time>2026-04-05T18:02:32.999Z</time></trkpt><trkpt lat="43.97704268456206" lon="11.678772511482071"><ele>571.0</ele><time>2026-04-05T18:02:33.999Z</time></trkpt><trkpt lat="43.97709364529336" lon="11.678898906789952"><ele>571.0</ele><time>2026-04-05T18:02:34.999Z</time></trkpt><trkpt lat="43.977157348340576" lon="11.67901618591736"><ele>571.0</ele><time>2026-04-05T18:02:35.999Z</time></trkpt><trkpt lat="43.97723889881977" lon="11.679124328590886"><ele>571.0</ele><time>2026-04-05T18:02:36.999Z</time></trkpt><trkpt lat="43.9773372239301" lon="11.67922611608407"><ele>571.0</ele><time>2026-04-05T18:02:37.999Z</time></trkpt><trkpt lat="43.977434395349555" lon="11.67933823750272"><ele>573.25</ele><time>2026-04-05T18:02:38.999Z</time></trkpt><trkpt lat="43.97750923777932" lon="11.679467473818018"><ele>575.5</ele><time>2026-04-05T18:02:39.999Z</time></trkpt><trkpt lat="43.97755417747245" lon="11.679623336833297"><ele>577.75</ele><time>2026-04-05T18:02:40.999Z</time></trkpt><trkpt lat="43.977602974828706" lon="11.679778839976459"><ele>580.0</ele><time>2026-04-05T18:02:41.999Z</time></trkpt><trkpt lat="43.97768441016008" lon="11.67991239997659"><ele>580.0</ele><time>2026-04-05T18:02:42.999Z</time></trkpt><trkpt lat="43.97777580949014" lon="11.680033505925481"><ele>580.0</ele><time>2026-04-05T18:02:43.999Z</time></trkpt><trkpt lat="43.97787480233191" lon="11.680154421565065"><ele>580.0</ele><time>2026-04-05T18:02:44.999Z</time></trkpt><trkpt lat="43.97795614049035" lon="11.680285701944804"><ele>580.0</ele><time>2026-04-05T18:02:45.999Z</time></trkpt><trkpt lat="43.978064098493604" lon="11.680408954299063"><ele>576.6</ele><time>2026-04-05T18:02:46.999Z</time></trkpt><trkpt lat="43.97815697240025" lon="11.68057056585188"><ele>573.2</ele><time>2026-04-05T18:02:47.999Z</time></trkpt><trkpt lat="43.978218274729926" lon="11.680631941138486"><ele>569.8</ele><time>2026-04-05T18:02:48.999Z</time></trkpt><trkpt lat="43.97828081704415" lon="11.680752574265563"><ele>566.4</ele><time>2026-04-05T18:02:49.999Z</time></trkpt><trkpt lat="43.97832038769593" lon="11.680897442517573"><ele>563.0</ele><time>2026-04-05T18:02:50.999Z</time></trkpt><trkpt lat="43.978320430332055" lon="11.681047873511945"><ele>560.0</ele><time>2026-04-05T18:02:51.999Z</time></trkpt><trkpt lat="43.978301067652296" lon="11.681214598755446"><ele>557.0</ele><time>2026-04-05T18:02:52.999Z</time></trkpt><trkpt lat="43.97828319953598" lon="11.681367310256729"><ele>554.0</ele><time>2026-04-05T18:02:53.999Z</time></trkpt><trkpt lat="43.97825869309201" lon="11.681488911432842"><ele>551.0</ele><time>2026-04-05T18:02:54.999Z</time></trkpt><trkpt lat="43.97826802174905" lon="11.681601663322644"><ele>548.0</ele><time>2026-04-05T18:02:55.999Z</time></trkpt><trkpt lat="43.978298223437356" lon="11.68171151384755"><ele>556.25</ele><time>2026-04-05T18:02:56.999Z</time></trkpt><trkpt lat="43.97839654079927" lon="11.68176821670486"><ele>564.5</ele><time>2026-04-05T18:02:57.999Z</time></trkpt><trkpt lat="43.97851348450444" lon="11.681809844467798"><ele>572.75</ele><time>2026-04-05T18:02:58.999Z</time></trkpt><trkpt lat="43.97862019722197" lon="11.681826782241624"><ele>581.0</ele><time>2026-04-05T18:02:59.999Z</time></trkpt><trkpt lat="43.97872809599974" lon="11.681887026143597"><ele>575.75</ele><time>2026-04-05T18:03:00.999Z</time></trkpt><trkpt lat="43.97883966384789" lon="11.68196815611726"><ele>570.5</ele><time>2026-04-05T18:03:01.999Z</time></trkpt><trkpt lat="43.97893708343679" lon="11.68206051099708"><ele>565.25</ele><time>2026-04-05T18:03:02.999Z</time></trkpt><trkpt lat="43.9790221065337" lon="11.682226383860094"><ele>560.0</ele><time>2026-04-05T18:03:03.999Z</time></trkpt><trkpt lat="43.979097001465604" lon="11.682429172733947"><ele>560.0</ele><time>2026-04-05T18:03:04.999Z</time></trkpt><trkpt lat="43.979148986936266" lon="11.682671261736811"><ele>560.0</ele><time>2026-04-05T18:03:05.999Z</time></trkpt><trkpt lat="43.97917138247139" lon="11.6829038933174"><ele>560.0</ele><time>2026-04-05T18:03:06.999Z</time></trkpt><trkpt lat="43.979151801795766" lon="11.683000828964847"><ele>560.0</ele><time>2026-04-05T18:03:08.999Z</time></trkpt><trkpt lat="43.979118778226436" lon="11.683158070903419"><ele>556.5</ele><time>2026-04-05T18:03:09.999Z</time></trkpt><trkpt lat="43.979075985482474" lon="11.683308111786069"><ele>553.0</ele><time>2026-04-05T18:03:10.999Z</time></trkpt><trkpt lat="43.97904983618922" lon="11.683464097861274"><ele>549.5</ele><time>2026-04-05T18:03:11.999Z</time></trkpt><trkpt lat="43.979044028831936" lon="11.683622819338005"><ele>546.0</ele><time>2026-04-05T18:03:12.999Z</time></trkpt><trkpt lat="43.97909595972405" lon="11.683782565737966"><ele>543.5</ele><time>2026-04-05T18:03:13.999Z</time></trkpt><trkpt lat="43.979174233927715" lon="11.683925616452122"><ele>541.0</ele><time>2026-04-05T18:03:14.999Z</time></trkpt><trkpt lat="43.97926864251226" lon="11.684052047192717"><ele>538.5</ele><time>2026-04-05T18:03:15.999Z</time></trkpt><trkpt lat="43.97935787534493" lon="11.684186253171474"><ele>536.0</ele><time>2026-04-05T18:03:16.999Z</time></trkpt><trkpt lat="43.9793942096323" lon="11.684369438879926"><ele>541.25</ele><time>2026-04-05T18:03:17.999Z</time></trkpt><trkpt lat="43.97941280696033" lon="11.684545755826024"><ele>546.5</ele><time>2026-04-05T18:03:18.999Z</time></trkpt><trkpt lat="43.97943616971297" lon="11.684720423193447"><ele>551.75</ele><time>2026-04-05T18:03:19.999Z</time></trkpt><trkpt lat="43.979458779024036" lon="11.684906780068397"><ele>557.0</ele><time>2026-04-05T18:03:20.999Z</time></trkpt><trkpt lat="43.97946830322722" lon="11.685092427151682"><ele>555.0</ele><time>2026-04-05T18:03:21.999Z</time></trkpt><trkpt lat="43.97946349094998" lon="11.685286432016204"><ele>553.0</ele><time>2026-04-05T18:03:22.999Z</time></trkpt><trkpt lat="43.97945416832585" lon="11.685489041139117"><ele>551.0</ele><time>2026-04-05T18:03:23.999Z</time></trkpt><trkpt lat="43.9794448865946" lon="11.685696942822494"><ele>549.0</ele><time>2026-04-05T18:03:24.999Z</time></trkpt><trkpt lat="43.979435403464834" lon="11.685905880550965"><ele>545.5</ele><time>2026-04-05T18:03:26Z</time></trkpt><trkpt lat="43.97942610067724" lon="11.686110253097482"><ele>542.0</ele><time>2026-04-05T18:03:27Z</time></trkpt><trkpt lat="43.97941727788812" lon="11.686304080594594"><ele>538.5</ele><time>2026-04-05T18:03:28Z</time></trkpt><trkpt lat="43.97942534448184" lon="11.68649382019436"><ele>535.0</ele><time>2026-04-05T18:03:29Z</time></trkpt><trkpt lat="43.97939952582949" lon="11.686665690646096"><ele>535.0</ele><time>2026-04-05T18:03:30Z</time></trkpt><trkpt lat="43.979412721278266" lon="11.686796107421527"><ele>535.0</ele><time>2026-04-05T18:03:31Z</time></trkpt><trkpt lat="43.979423229280385" lon="11.68690999688362"><ele>535.0</ele><time>2026-04-05T18:03:32Z</time></trkpt><trkpt lat="43.979473090720774" lon="11.687000319883131"><ele>535.0</ele><time>2026-04-05T18:03:33Z</time></trkpt><trkpt lat="43.97953473793112" lon="11.687040088815454"><ele>535.0</ele><time>2026-04-05T18:03:34Z</time></trkpt><trkpt lat="43.97965300131566" lon="11.687042054095986"><ele>535.0</ele><time>2026-04-05T18:03:36Z</time></trkpt><trkpt lat="43.97972869914764" lon="11.687047902101453"><ele>532.2</ele><time>2026-04-05T18:03:37Z</time></trkpt><trkpt lat="43.97981958303787" lon="11.68705030068503"><ele>529.4</ele><time>2026-04-05T18:03:38Z</time></trkpt><trkpt lat="43.97992024887906" lon="11.687049053839933"><ele>526.6</ele><time>2026-04-05T18:03:39Z</time></trkpt><trkpt lat="43.98002976246902" lon="11.687051747906649"><ele>523.8</ele><time>2026-04-05T18:03:40Z</time></trkpt><trkpt lat="43.98014055792529" lon="11.687055882028027"><ele>521.0</ele><time>2026-04-05T18:03:41Z</time></trkpt><trkpt lat="43.98024881303371" lon="11.687078537776928"><ele>521.0</ele><time>2026-04-05T18:03:42Z</time></trkpt><trkpt lat="43.980346261160285" lon="11.687147155376291"><ele>521.0</ele><time>2026-04-05T18:03:43Z</time></trkpt><trkpt lat="43.98043953183583" lon="11.687221670696713"><ele>521.0</ele><time>2026-04-05T18:03:44Z</time></trkpt><trkpt lat="43.98052230797262" lon="11.687318465729756"><ele>521.0</ele><time>2026-04-05T18:03:45Z</time></trkpt><trkpt lat="43.980597328482006" lon="11.687429981587714"><ele>521.0</ele><time>2026-04-05T18:03:46Z</time></trkpt><trkpt lat="43.98066271649465" lon="11.687547420824457"><ele>521.0</ele><time>2026-04-05T18:03:47Z</time></trkpt><trkpt lat="43.980717216080635" lon="11.68767736611075"><ele>521.0</ele><time>2026-04-05T18:03:48Z</time></trkpt><trkpt lat="43.98075601386297" lon="11.687819604120628"><ele>521.0</ele><time>2026-04-05T18:03:49Z</time></trkpt><trkpt lat="43.98079539411536" lon="11.687973432686908"><ele>521.0</ele><time>2026-04-05T18:03:50Z</time></trkpt><trkpt lat="43.98083240660627" lon="11.688106128787618"><ele>521.0</ele><time>2026-04-05T18:03:51Z</time></trkpt><trkpt lat="43.98087872424789" lon="11.688228961725665"><ele>517.1666666666666</ele><time>2026-04-05T18:03:52Z</time></trkpt><trkpt lat="43.980902047740635" lon="11.688359032527911"><ele>513.3333333333333</ele><time>2026-04-05T18:03:53Z</time></trkpt><trkpt lat="43.980941244762974" lon="11.688459317778273"><ele>509.5</ele><time>2026-04-05T18:03:54Z</time></trkpt><trkpt lat="43.980993660170654" lon="11.688517431270466"><ele>505.66666666666663</ele><time>2026-04-05T18:03:55Z</time></trkpt><trkpt lat="43.98106528492794" lon="11.688498341272838"><ele>501.8333333333333</ele><time>2026-04-05T18:03:56Z</time></trkpt><trkpt lat="43.9811341875879" lon="11.688440077894686"><ele>498.0</ele><time>2026-04-05T18:03:57Z</time></trkpt><trkpt lat="43.981189915510484" lon="11.68837222435451"><ele>498.0</ele><time>2026-04-05T18:03:58Z</time></trkpt><trkpt lat="43.981241039843894" lon="11.688300818182217"><ele>498.0</ele><time>2026-04-05T18:03:59Z</time></trkpt><trkpt lat="43.98130244810082" lon="11.68823964174645"><ele>498.0</ele><time>2026-04-05T18:04:00Z</time></trkpt><trkpt lat="43.981360984198965" lon="11.688196745617377"><ele>498.0</ele><time>2026-04-05T18:04:01Z</time></trkpt><trkpt lat="43.981424552598206" lon="11.6881564470853"><ele>498.0</ele><time>2026-04-05T18:04:02Z</time></trkpt><trkpt lat="43.981489223917336" lon="11.68811904948819"><ele>498.0</ele><time>2026-04-05T18:04:03Z</time></trkpt><trkpt lat="43.98160203656445" lon="11.688074434131874"><ele>497.6666666666667</ele><time>2026-04-05T18:04:05Z</time></trkpt><trkpt lat="43.98169540595764" lon="11.68815451295348"><ele>497.33333333333337</ele><time>2026-04-05T18:04:07Z</time></trkpt><trkpt lat="43.981796449525355" lon="11.688243768362145"><ele>497.0</ele><time>2026-04-05T18:04:09Z</time></trkpt><trkpt lat="43.98186357613101" lon="11.688229268958386"><ele>496.6666666666667</ele><time>2026-04-05T18:04:10Z</time></trkpt><trkpt lat="43.98193049700655" lon="11.688252499147701"><ele>496.33333333333337</ele><time>2026-04-05T18:04:11Z</time></trkpt><trkpt lat="43.98201056038385" lon="11.6882405189416"><ele>496.0</ele><time>2026-04-05T18:04:12Z</time></trkpt><trkpt lat="43.982089423339445" lon="11.688229923629699"><ele>496.00000000000006</ele><time>2026-04-05T18:04:13Z</time></trkpt><trkpt lat="43.98217548393169" lon="11.688216229460927"><ele>496.0</ele><time>2026-04-05T18:04:14Z</time></trkpt><trkpt lat="43.98226083335419" lon="11.688202137108581"><ele>496.0</ele><time>2026-04-05T18:04:15Z</time></trkpt><trkpt lat="43.98233721805506" lon="11.688189263899185"><ele>496.0</ele><time>2026-04-05T18:04:16Z</time></trkpt><trkpt lat="43.982403534184776" lon="11.68818440830124"><ele>496.00000000000006</ele><time>2026-04-05T18:04:17Z</time></trkpt><trkpt lat="43.98247394128821" lon="11.68817082508836"><ele>496.0</ele><time>2026-04-05T18:04:18Z</time></trkpt><trkpt lat="43.98254537201281" lon="11.688153597284094"><ele>497.4</ele><time>2026-04-05T18:04:19Z</time></trkpt><trkpt lat="43.98262582702405" lon="11.688139220775314"><ele>498.8</ele><time>2026-04-05T18:04:20Z</time></trkpt><trkpt lat="43.98272128977869" lon="11.688122589916581"><ele>500.19999999999993</ele><time>2026-04-05T18:04:21Z</time></trkpt><trkpt lat="43.98282786286148" lon="11.688149892521643"><ele>501.59999999999997</ele><time>2026-04-05T18:04:22Z</time></trkpt><trkpt lat="43.9829401913084" lon="11.68816193916684"><ele>503.0</ele><time>2026-04-05T18:04:23Z</time></trkpt><trkpt lat="43.98305786232309" lon="11.688184934206754"><ele>503.0</ele><time>2026-04-05T18:04:23.999Z</time></trkpt><trkpt lat="43.9831825342652" lon="11.68822028515614"><ele>503.0</ele><time>2026-04-05T18:04:24.999Z</time></trkpt><trkpt lat="43.98331201175971" lon="11.688273669362069"><ele>503.0</ele><time>2026-04-05T18:04:25.999Z</time></trkpt><trkpt lat="43.98343535473906" lon="11.688347010244788"><ele>503.0</ele><time>2026-04-05T18:04:26.999Z</time></trkpt><trkpt lat="43.98355169505754" lon="11.688442932919022"><ele>502.3333333333333</ele><time>2026-04-05T18:04:27.999Z</time></trkpt><trkpt lat="43.983664575741706" lon="11.688571623201026"><ele>501.66666666666663</ele><time>2026-04-05T18:04:28.999Z</time></trkpt><trkpt lat="43.98376920656195" lon="11.688726750180729"><ele>501.0</ele><time>2026-04-05T18:04:29.999Z</time></trkpt><trkpt lat="43.9838697070809" lon="11.688894969477344"><ele>501.0</ele><time>2026-04-05T18:04:30.999Z</time></trkpt><trkpt lat="43.983969480539905" lon="11.689065746682825"><ele>501.0</ele><time>2026-04-05T18:04:31.999Z</time></trkpt><trkpt lat="43.98406884246218" lon="11.689235819663034"><ele>501.0</ele><time>2026-04-05T18:04:32.999Z</time></trkpt><trkpt lat="43.98416916207615" lon="11.689407531767342"><ele>501.0</ele><time>2026-04-05T18:04:33.999Z</time></trkpt><trkpt lat="43.984280994413446" lon="11.689572008639994"><ele>501.0</ele><time>2026-04-05T18:04:34.999Z</time></trkpt><trkpt lat="43.98437444144474" lon="11.689728773659526"><ele>501.0</ele><time>2026-04-05T18:04:35.999Z</time></trkpt><trkpt lat="43.98447154742641" lon="11.689893816175637"><ele>501.0</ele><time>2026-04-05T18:04:36.999Z</time></trkpt><trkpt lat="43.984567755022674" lon="11.690054163740257"><ele>501.0</ele><time>2026-04-05T18:04:37.999Z</time></trkpt><trkpt lat="43.984659842191114" lon="11.690206168395354"><ele>501.0</ele><time>2026-04-05T18:04:38.999Z</time></trkpt><trkpt lat="43.9847583020166" lon="11.690331743508992"><ele>501.0</ele><time>2026-04-05T18:04:39.999Z</time></trkpt><trkpt lat="43.98487140694734" lon="11.690428380081789"><ele>500.75</ele><time>2026-04-05T18:04:40.999Z</time></trkpt><trkpt lat="43.984996406630394" lon="11.69050277899134"><ele>500.5</ele><time>2026-04-05T18:04:41.999Z</time></trkpt><trkpt lat="43.98512799831863" lon="11.690550366985757"><ele>500.25</ele><time>2026-04-05T18:04:42.999Z</time></trkpt><trkpt lat="43.98527293053933" lon="11.69055253297068"><ele>500.0</ele><time>2026-04-05T18:04:43.999Z</time></trkpt><trkpt lat="43.98541620212236" lon="11.690558769798667"><ele>499.5</ele><time>2026-04-05T18:04:44.999Z</time></trkpt><trkpt lat="43.98556399526971" lon="11.690565632077151"><ele>499.0</ele><time>2026-04-05T18:04:45.999Z</time></trkpt><trkpt lat="43.985702496913675" lon="11.690573437403367"><ele>498.5</ele><time>2026-04-05T18:04:46.999Z</time></trkpt><trkpt lat="43.98583718398951" lon="11.690583409795842"><ele>498.0</ele><time>2026-04-05T18:04:47.999Z</time></trkpt><trkpt lat="43.985958907164964" lon="11.690596195486476"><ele>501.79999999999995</ele><time>2026-04-05T18:04:48.999Z</time></trkpt><trkpt lat="43.98606812068384" lon="11.690593886927852"><ele>505.59999999999997</ele><time>2026-04-05T18:04:49.999Z</time></trkpt><trkpt lat="43.9861599680263" lon="11.690644158872567"><ele>509.40000000000003</ele><time>2026-04-05T18:04:50.999Z</time></trkpt><trkpt lat="43.98623044951738" lon="11.690718898894817"><ele>513.2</ele><time>2026-04-05T18:04:51.999Z</time></trkpt><trkpt lat="43.98626374698527" lon="11.690828217653436"><ele>517.0</ele><time>2026-04-05T18:04:52.999Z</time></trkpt><trkpt lat="43.986263190747565" lon="11.690950379208383"><ele>517.0</ele><time>2026-04-05T18:04:53.999Z</time></trkpt><trkpt lat="43.98619723159138" lon="11.691071326058482"><ele>517.0</ele><time>2026-04-05T18:04:54.999Z</time></trkpt><trkpt lat="43.98617219734653" lon="11.691219770523393"><ele>517.0</ele><time>2026-04-05T18:04:55.999Z</time></trkpt><trkpt lat="43.9861727947387" lon="11.691372672496856"><ele>517.0</ele><time>2026-04-05T18:04:56.999Z</time></trkpt><trkpt lat="43.98616152837001" lon="11.691530798231572"><ele>517.0</ele><time>2026-04-05T18:04:57.999Z</time></trkpt><trkpt lat="43.98614261737606" lon="11.691688203837648"><ele>516.4</ele><time>2026-04-05T18:04:58.999Z</time></trkpt><trkpt lat="43.98612571912735" lon="11.691865288066"><ele>515.8000000000001</ele><time>2026-04-05T18:04:59.999Z</time></trkpt><trkpt lat="43.98610683046672" lon="11.692009931207057"><ele>515.2</ele><time>2026-04-05T18:05:00.999Z</time></trkpt><trkpt lat="43.986085056497416" lon="11.692150427116637"><ele>514.6</ele><time>2026-04-05T18:05:01.999Z</time></trkpt><trkpt lat="43.986063231293286" lon="11.692285658371327"><ele>514.0</ele><time>2026-04-05T18:05:02.999Z</time></trkpt><trkpt lat="43.98603921200249" lon="11.692434484572669"><ele>512.8</ele><time>2026-04-05T18:05:03.999Z</time></trkpt><trkpt lat="43.98601384644806" lon="11.692575130085407"><ele>511.59999999999997</ele><time>2026-04-05T18:05:04.999Z</time></trkpt><trkpt lat="43.98598310682133" lon="11.69270637133339"><ele>510.4</ele><time>2026-04-05T18:05:05.999Z</time></trkpt><trkpt lat="43.985944688145764" lon="11.692839693756673"><ele>509.2</ele><time>2026-04-05T18:05:06.999Z</time></trkpt><trkpt lat="43.985898432846895" lon="11.692968441521197"><ele>508.0</ele><time>2026-04-05T18:05:07.999Z</time></trkpt><trkpt lat="43.98585481829087" lon="11.693123791822757"><ele>504.0</ele><time>2026-04-05T18:05:08.999Z</time></trkpt><trkpt lat="43.985797296391844" lon="11.69327104190219"><ele>500.0</ele><time>2026-04-05T18:05:09.999Z</time></trkpt><trkpt lat="43.98573791812981" lon="11.693427307917798"><ele>496.0</ele><time>2026-04-05T18:05:10.999Z</time></trkpt><trkpt lat="43.98568289305904" lon="11.693576386513492"><ele>492.0</ele><time>2026-04-05T18:05:11.999Z</time></trkpt><trkpt lat="43.985632306044266" lon="11.693684827255417"><ele>491.0</ele><time>2026-04-05T18:05:12.999Z</time></trkpt><trkpt lat="43.98560441352984" lon="11.693854125451791"><ele>490.0</ele><time>2026-04-05T18:05:13.999Z</time></trkpt><trkpt lat="43.98560605845991" lon="11.694104775704158"><ele>489.0</ele><time>2026-04-05T18:05:14.999Z</time></trkpt><trkpt lat="43.985592690446076" lon="11.694274420443246"><ele>488.0</ele><time>2026-04-05T18:05:15.999Z</time></trkpt><trkpt lat="43.98556237016901" lon="11.694434921891938"><ele>487.2</ele><time>2026-04-05T18:05:16.999Z</time></trkpt><trkpt lat="43.985467253570455" lon="11.69454321641023"><ele>486.4</ele><time>2026-04-05T18:05:17.999Z</time></trkpt><trkpt lat="43.98542659567531" lon="11.694658655039039"><ele>485.59999999999997</ele><time>2026-04-05T18:05:18.999Z</time></trkpt><trkpt lat="43.98539609586539" lon="11.694748939668049"><ele>484.79999999999995</ele><time>2026-04-05T18:05:19.999Z</time></trkpt><trkpt lat="43.98544930328824" lon="11.694867746218607"><ele>484.0</ele><time>2026-04-05T18:05:20.999Z</time></trkpt><trkpt lat="43.98556438633299" lon="11.694932627396808"><ele>484.0</ele><time>2026-04-05T18:05:21.999Z</time></trkpt><trkpt lat="43.9856843118473" lon="11.69496549985052"><ele>484.0</ele><time>2026-04-05T18:05:22.999Z</time></trkpt><trkpt lat="43.98581606589328" lon="11.694933508123826"><ele>484.0</ele><time>2026-04-05T18:05:23.999Z</time></trkpt><trkpt lat="43.98595137149755" lon="11.6949036512578"><ele>484.0</ele><time>2026-04-05T18:05:24.999Z</time></trkpt><trkpt lat="43.98610026948637" lon="11.694876506893063"><ele>486.0</ele><time>2026-04-05T18:05:25.999Z</time></trkpt><trkpt lat="43.986236302295104" lon="11.694948678433086"><ele>488.0</ele><time>2026-04-05T18:05:26.999Z</time></trkpt><trkpt lat="43.98637000092488" lon="11.694980526603356"><ele>490.0</ele><time>2026-04-05T18:05:27.999Z</time></trkpt><trkpt lat="43.9865108952189" lon="11.695014088851426"><ele>492.0</ele><time>2026-04-05T18:05:28.999Z</time></trkpt><trkpt lat="43.986650199775475" lon="11.695051023877456"><ele>496.75</ele><time>2026-04-05T18:05:29.999Z</time></trkpt><trkpt lat="43.986786354833" lon="11.69506910953571"><ele>501.5</ele><time>2026-04-05T18:05:30.999Z</time></trkpt><trkpt lat="43.9869437831496" lon="11.695061188629749"><ele>506.25</ele><time>2026-04-05T18:05:32Z</time></trkpt><trkpt lat="43.987097724435245" lon="11.69503642728433"><ele>511.0</ele><time>2026-04-05T18:05:33Z</time></trkpt><trkpt lat="43.98724448848824" lon="11.695014870961641"><ele>511.0</ele><time>2026-04-05T18:05:34Z</time></trkpt><trkpt lat="43.98736858544935" lon="11.695026248362637"><ele>511.0</ele><time>2026-04-05T18:05:35Z</time></trkpt><trkpt lat="43.98747548795195" lon="11.695080497053326"><ele>511.0</ele><time>2026-04-05T18:05:36Z</time></trkpt><trkpt lat="43.987555520274796" lon="11.695192482092779"><ele>511.0</ele><time>2026-04-05T18:05:37Z</time></trkpt><trkpt lat="43.98763306658865" lon="11.695333513249254"><ele>518.75</ele><time>2026-04-05T18:05:38Z</time></trkpt><trkpt lat="43.987709842935885" lon="11.695491968196583"><ele>526.5</ele><time>2026-04-05T18:05:39Z</time></trkpt><trkpt lat="43.98778863768955" lon="11.695650243576459"><ele>534.25</ele><time>2026-04-05T18:05:40Z</time></trkpt><trkpt lat="43.98786082991333" lon="11.695798170797495"><ele>542.0</ele><time>2026-04-05T18:05:41Z</time></trkpt><trkpt lat="43.987922654929385" lon="11.695943572942591"><ele>542.5</ele><time>2026-04-05T18:05:42Z</time></trkpt><trkpt lat="43.98796704646092" lon="11.696105011202778"><ele>543.0</ele><time>2026-04-05T18:05:43Z</time></trkpt><trkpt lat="43.98796507743201" lon="11.696267705217107"><ele>543.5</ele><time>2026-04-05T18:05:44Z</time></trkpt><trkpt lat="43.9879247421674" lon="11.696421278720635"><ele>544.0</ele><time>2026-04-05T18:05:45Z</time></trkpt><trkpt lat="43.98784131174034" lon="11.696556487570088"><ele>544.0</ele><time>2026-04-05T18:05:46Z</time></trkpt><trkpt lat="43.98773401733631" lon="11.696679215639964"><ele>544.0</ele><time>2026-04-05T18:05:47Z</time></trkpt><trkpt lat="43.98763222485333" lon="11.696782142450099"><ele>544.0</ele><time>2026-04-05T18:05:48Z</time></trkpt><trkpt lat="43.98753145355061" lon="11.696907545189465"><ele>544.0</ele><time>2026-04-05T18:05:49Z</time></trkpt><trkpt lat="43.98744182172672" lon="11.697017751451515"><ele>539.1666666666667</ele><time>2026-04-05T18:05:50Z</time></trkpt><trkpt lat="43.98735581717046" lon="11.697115473461286"><ele>534.3333333333334</ele><time>2026-04-05T18:05:51Z</time></trkpt><trkpt lat="43.9872888325588" lon="11.697196478719103"><ele>529.5</ele><time>2026-04-05T18:05:52Z</time></trkpt><trkpt lat="43.98724697547934" lon="11.697286310850215"><ele>524.6666666666666</ele><time>2026-04-05T18:05:53Z</time></trkpt><trkpt lat="43.98722468342823" lon="11.697387366079353"><ele>519.8333333333333</ele><time>2026-04-05T18:05:54Z</time></trkpt><trkpt lat="43.987268223147474" lon="11.697485972294661"><ele>515.0</ele><time>2026-04-05T18:05:55Z</time></trkpt><trkpt lat="43.98735834880013" lon="11.69752722712793"><ele>515.0</ele><time>2026-04-05T18:05:56Z</time></trkpt><trkpt lat="43.98743798809194" lon="11.697602850259816"><ele>515.0</ele><time>2026-04-05T18:05:57Z</time></trkpt><trkpt lat="43.98753341919833" lon="11.697665126367863"><ele>515.0</ele><time>2026-04-05T18:05:58Z</time></trkpt><trkpt lat="43.987629870209744" lon="11.697730576229038"><ele>515.0</ele><time>2026-04-05T18:05:59Z</time></trkpt><trkpt lat="43.98774323759551" lon="11.697802091524355"><ele>515.0</ele><time>2026-04-05T18:06:00Z</time></trkpt><trkpt lat="43.987882030159305" lon="11.697903200823777"><ele>518.3333333333333</ele><time>2026-04-05T18:06:01Z</time></trkpt><trkpt lat="43.98801087268509" lon="11.698033714743973"><ele>521.6666666666666</ele><time>2026-04-05T18:06:02Z</time></trkpt><trkpt lat="43.988124350652" lon="11.69817403637926"><ele>525.0</ele><time>2026-04-05T18:06:03Z</time></trkpt><trkpt lat="43.98821912433806" lon="11.698348138219307"><ele>525.0</ele><time>2026-04-05T18:06:04Z</time></trkpt><trkpt lat="43.98830911626959" lon="11.698540991268464"><ele>525.0</ele><time>2026-04-05T18:06:05Z</time></trkpt><trkpt lat="43.98839953931575" lon="11.698726420107244"><ele>525.0</ele><time>2026-04-05T18:06:06Z</time></trkpt><trkpt lat="43.9884872603933" lon="11.698891864484684"><ele>522.6</ele><time>2026-04-05T18:06:07Z</time></trkpt><trkpt lat="43.98858683550401" lon="11.69902413850868"><ele>520.2</ele><time>2026-04-05T18:06:08Z</time></trkpt><trkpt lat="43.98867700276573" lon="11.699115782499437"><ele>517.8</ele><time>2026-04-05T18:06:09Z</time></trkpt><trkpt lat="43.98877481111776" lon="11.699137824198038"><ele>515.4</ele><time>2026-04-05T18:06:10Z</time></trkpt><trkpt lat="43.9888688843255" lon="11.699100538991203"><ele>513.0</ele><time>2026-04-05T18:06:11Z</time></trkpt><trkpt lat="43.988958788273784" lon="11.699054375772587"><ele>513.0</ele><time>2026-04-05T18:06:12Z</time></trkpt><trkpt lat="43.98906073641197" lon="11.699004483772343"><ele>513.0</ele><time>2026-04-05T18:06:13Z</time></trkpt><trkpt lat="43.9891766692686" lon="11.698984514151086"><ele>513.0</ele><time>2026-04-05T18:06:14Z</time></trkpt><trkpt lat="43.989298114057675" lon="11.699009391239114"><ele>513.0</ele><time>2026-04-05T18:06:15Z</time></trkpt><trkpt lat="43.989398430591415" lon="11.699112623393383"><ele>509.5</ele><time>2026-04-05T18:06:16Z</time></trkpt><trkpt lat="43.98948721688942" lon="11.69922809693963"><ele>506.0</ele><time>2026-04-05T18:06:17Z</time></trkpt><trkpt lat="43.98956253922834" lon="11.699393730163129"><ele>502.5</ele><time>2026-04-05T18:06:18Z</time></trkpt><trkpt lat="43.989678806987705" lon="11.699499806608367"><ele>499.0</ele><time>2026-04-05T18:06:19Z</time></trkpt><trkpt lat="43.98979711519261" lon="11.69959690396867"><ele>499.0</ele><time>2026-04-05T18:06:20Z</time></trkpt><trkpt lat="43.989921488532765" lon="11.699695349533076"><ele>499.0</ele><time>2026-04-05T18:06:21Z</time></trkpt><trkpt lat="43.99004958677512" lon="11.699794860479848"><ele>499.0</ele><time>2026-04-05T18:06:22Z</time></trkpt><trkpt lat="43.99018089591124" lon="11.699894088964555"><ele>499.0</ele><time>2026-04-05T18:06:23Z</time></trkpt><trkpt lat="43.99030634973633" lon="11.699985945168738"><ele>503.2</ele><time>2026-04-05T18:06:24Z</time></trkpt><trkpt lat="43.990426222399236" lon="11.700072036362561"><ele>507.4</ele><time>2026-04-05T18:06:25Z</time></trkpt><trkpt lat="43.990526948311896" lon="11.700161376468028"><ele>511.6</ele><time>2026-04-05T18:06:26Z</time></trkpt><trkpt lat="43.99057966259715" lon="11.700265153037636"><ele>515.8</ele><time>2026-04-05T18:06:27Z</time></trkpt><trkpt lat="43.99058937740133" lon="11.700367971825154"><ele>520.0</ele><time>2026-04-05T18:06:28Z</time></trkpt><trkpt lat="43.99052901895881" lon="11.700443271840284"><ele>520.0</ele><time>2026-04-05T18:06:29Z</time></trkpt><trkpt lat="43.990495581979225" lon="11.700565453615829"><ele>520.0</ele><time>2026-04-05T18:06:30Z</time></trkpt><trkpt lat="43.990466673723496" lon="11.70070102402929"><ele>520.0</ele><time>2026-04-05T18:06:31Z</time></trkpt><trkpt lat="43.99045428356751" lon="11.700854474629685"><ele>520.0</ele><time>2026-04-05T18:06:32Z</time></trkpt><trkpt lat="43.9904848949387" lon="11.701008662873663"><ele>520.0</ele><time>2026-04-05T18:06:33Z</time></trkpt><trkpt lat="43.990508443065174" lon="11.701153857362618"><ele>519.6</ele><time>2026-04-05T18:06:33.999Z</time></trkpt><trkpt lat="43.990530558951804" lon="11.701285403592737"><ele>519.2</ele><time>2026-04-05T18:06:34.999Z</time></trkpt><trkpt lat="43.990530957034075" lon="11.701417621480498"><ele>518.8</ele><time>2026-04-05T18:06:35.999Z</time></trkpt><trkpt lat="43.9904814893913" lon="11.701532954646925"><ele>518.4</ele><time>2026-04-05T18:06:36.999Z</time></trkpt><trkpt lat="43.99042696396485" lon="11.70166245973321"><ele>518.0</ele><time>2026-04-05T18:06:37.999Z</time></trkpt><trkpt lat="43.990369748250544" lon="11.70180356022501"><ele>515.4</ele><time>2026-04-05T18:06:38.999Z</time></trkpt><trkpt lat="43.990314934479876" lon="11.701944822859485"><ele>512.8</ele><time>2026-04-05T18:06:39.999Z</time></trkpt><trkpt lat="43.990291796183925" lon="11.7020766287697"><ele>510.2</ele><time>2026-04-05T18:06:40.999Z</time></trkpt><trkpt lat="43.990301748619004" lon="11.702224408510594"><ele>507.6</ele><time>2026-04-05T18:06:41.999Z</time></trkpt><trkpt lat="43.99034134931248" lon="11.702386685260832"><ele>505.0</ele><time>2026-04-05T18:06:42.999Z</time></trkpt><trkpt lat="43.99039085911987" lon="11.702548977642524"><ele>505.0</ele><time>2026-04-05T18:06:43.999Z</time></trkpt><trkpt lat="43.990448503222424" lon="11.702723677001076"><ele>505.0</ele><time>2026-04-05T18:06:44.999Z</time></trkpt><trkpt lat="43.990506873298315" lon="11.7029076931206"><ele>505.0</ele><time>2026-04-05T18:06:45.999Z</time></trkpt><trkpt lat="43.99059966405689" lon="11.703065457936482"><ele>505.0</ele><time>2026-04-05T18:06:46.999Z</time></trkpt><trkpt lat="43.99069993485551" lon="11.70323254198259"><ele>502.75</ele><time>2026-04-05T18:06:47.999Z</time></trkpt><trkpt lat="43.99080453024453" lon="11.703383376287183"><ele>500.5</ele><time>2026-04-05T18:06:48.999Z</time></trkpt><trkpt lat="43.990900223581434" lon="11.703540798128728"><ele>498.25</ele><time>2026-04-05T18:06:49.999Z</time></trkpt><trkpt lat="43.991014980818846" lon="11.703665570182245"><ele>496.0</ele><time>2026-04-05T18:06:50.999Z</time></trkpt><trkpt lat="43.99113199649193" lon="11.703776109490748"><ele>496.0</ele><time>2026-04-05T18:06:51.999Z</time></trkpt><trkpt lat="43.99123471894602" lon="11.703884285196368"><ele>496.0</ele><time>2026-04-05T18:06:52.999Z</time></trkpt><trkpt lat="43.99133159807664" lon="11.703994876401591"><ele>496.0</ele><time>2026-04-05T18:06:53.999Z</time></trkpt><trkpt lat="43.99142358982446" lon="11.704104981546633"><ele>496.0</ele><time>2026-04-05T18:06:54.999Z</time></trkpt><trkpt lat="43.991505014536614" lon="11.704212044593275"><ele>496.0</ele><time>2026-04-05T18:06:55.999Z</time></trkpt><trkpt lat="43.991582162229925" lon="11.704330292916856"><ele>496.0</ele><time>2026-04-05T18:06:56.999Z</time></trkpt><trkpt lat="43.99164912521537" lon="11.704439292802327"><ele>496.0</ele><time>2026-04-05T18:06:57.999Z</time></trkpt><trkpt lat="43.99171265842629" lon="11.70455238599591"><ele>496.0</ele><time>2026-04-05T18:06:58.999Z</time></trkpt><trkpt lat="43.99176864098184" lon="11.704666509984122"><ele>496.0</ele><time>2026-04-05T18:06:59.999Z</time></trkpt><trkpt lat="43.99182014144982" lon="11.704774407725285"><ele>494.00000000000006</ele><time>2026-04-05T18:07:00.999Z</time></trkpt><trkpt lat="43.99187119023752" lon="11.704848802392117"><ele>492.0</ele><time>2026-04-05T18:07:01.999Z</time></trkpt><trkpt lat="43.991910217413306" lon="11.704943421813311"><ele>490.0</ele><time>2026-04-05T18:07:02.999Z</time></trkpt><trkpt lat="43.991950578517944" lon="11.705025256573434"><ele>488.0</ele><time>2026-04-05T18:07:03.999Z</time></trkpt><trkpt lat="43.991992587938824" lon="11.705105485476777"><ele>486.00000000000006</ele><time>2026-04-05T18:07:04.999Z</time></trkpt><trkpt lat="43.992043888027354" lon="11.705190172642288"><ele>484.0</ele><time>2026-04-05T18:07:05.999Z</time></trkpt><trkpt lat="43.99210671290306" lon="11.705290809781348"><ele>484.0</ele><time>2026-04-05T18:07:06.999Z</time></trkpt><trkpt lat="43.99220846657286" lon="11.705332355807679"><ele>484.0</ele><time>2026-04-05T18:07:07.999Z</time></trkpt><trkpt lat="43.992322735968706" lon="11.705294546871059"><ele>484.0</ele><time>2026-04-05T18:07:08.999Z</time></trkpt><trkpt lat="43.99242670282148" lon="11.705188896231164"><ele>484.0</ele><time>2026-04-05T18:07:09.999Z</time></trkpt><trkpt lat="43.99254665691515" lon="11.705133402243318"><ele>482.75</ele><time>2026-04-05T18:07:10.999Z</time></trkpt><trkpt lat="43.992657170683536" lon="11.705073979768853"><ele>481.5</ele><time>2026-04-05T18:07:11.999Z</time></trkpt><trkpt lat="43.99277069265778" lon="11.705044160327933"><ele>480.25</ele><time>2026-04-05T18:07:12.999Z</time></trkpt><trkpt lat="43.99288422878985" lon="11.7050330016509"><ele>479.0</ele><time>2026-04-05T18:07:13.999Z</time></trkpt><trkpt lat="43.99300397852214" lon="11.705024802127484"><ele>479.0</ele><time>2026-04-05T18:07:14.999Z</time></trkpt><trkpt lat="43.99312571795128" lon="11.705020404933967"><ele>479.0</ele><time>2026-04-05T18:07:15.999Z</time></trkpt><trkpt lat="43.99324598812028" lon="11.705018760876538"><ele>479.0</ele><time>2026-04-05T18:07:16.999Z</time></trkpt><trkpt lat="43.99334874934706" lon="11.70504841010549"><ele>479.0</ele><time>2026-04-05T18:07:17.999Z</time></trkpt><trkpt lat="43.993502645431654" lon="11.70509686781161"><ele>475.25</ele><time>2026-04-05T18:07:18.999Z</time></trkpt><trkpt lat="43.99362211029721" lon="11.705167784930206"><ele>471.5</ele><time>2026-04-05T18:07:19.999Z</time></trkpt><trkpt lat="43.993720995474234" lon="11.705238529078212"><ele>467.75</ele><time>2026-04-05T18:07:20.999Z</time></trkpt><trkpt lat="43.99384022394391" lon="11.705344008628181"><ele>464.0</ele><time>2026-04-05T18:07:21.999Z</time></trkpt><trkpt lat="43.99394077151719" lon="11.705466453592948"><ele>464.0</ele><time>2026-04-05T18:07:22.999Z</time></trkpt><trkpt lat="43.99404064133477" lon="11.705619757395931"><ele>464.0</ele><time>2026-04-05T18:07:23.999Z</time></trkpt><trkpt lat="43.99414317606326" lon="11.705775480034173"><ele>464.0</ele><time>2026-04-05T18:07:24.999Z</time></trkpt><trkpt lat="43.994215576892536" lon="11.705947793541563"><ele>464.0</ele><time>2026-04-05T18:07:25.999Z</time></trkpt><trkpt lat="43.994278225367964" lon="11.706117544211695"><ele>461.0</ele><time>2026-04-05T18:07:26.999Z</time></trkpt><trkpt lat="43.99441564606004" lon="11.706240185710007"><ele>458.0</ele><time>2026-04-05T18:07:27.999Z</time></trkpt><trkpt lat="43.994503290169405" lon="11.706330989246071"><ele>455.0</ele><time>2026-04-05T18:07:28.999Z</time></trkpt><trkpt lat="43.99461407782741" lon="11.706385154474834"><ele>452.0</ele><time>2026-04-05T18:07:29.999Z</time></trkpt><trkpt lat="43.9947448665665" lon="11.706330299379184"><ele>452.0</ele><time>2026-04-05T18:07:30.999Z</time></trkpt><trkpt lat="43.99487025421957" lon="11.70630396642433"><ele>452.0</ele><time>2026-04-05T18:07:31.999Z</time></trkpt><trkpt lat="43.99500327644482" lon="11.706280888497549"><ele>452.0</ele><time>2026-04-05T18:07:32.999Z</time></trkpt><trkpt lat="43.99514599326911" lon="11.706322892608098"><ele>452.0</ele><time>2026-04-05T18:07:33.999Z</time></trkpt><trkpt lat="43.99527146455994" lon="11.7063977922909"><ele>453.5</ele><time>2026-04-05T18:07:34.999Z</time></trkpt><trkpt lat="43.9953914954256" lon="11.706485412199465"><ele>455.0</ele><time>2026-04-05T18:07:35.999Z</time></trkpt><trkpt lat="43.995481578379305" lon="11.7065834163263"><ele>456.5</ele><time>2026-04-05T18:07:36.999Z</time></trkpt><trkpt lat="43.99556398608894" lon="11.706712655726335"><ele>458.0</ele><time>2026-04-05T18:07:38Z</time></trkpt><trkpt lat="43.9955921902762" lon="11.706857522008612"><ele>462.25</ele><time>2026-04-05T18:07:39Z</time></trkpt><trkpt lat="43.99556833441048" lon="11.706974868242474"><ele>466.5</ele><time>2026-04-05T18:07:40Z</time></trkpt><trkpt lat="43.99554200589955" lon="11.70718841740187"><ele>470.75</ele><time>2026-04-05T18:07:41Z</time></trkpt><trkpt lat="43.99551150077354" lon="11.707388070305875"><ele>475.0</ele><time>2026-04-05T18:07:42Z</time></trkpt><trkpt lat="43.99546473483061" lon="11.707535775228155"><ele>475.0</ele><time>2026-04-05T18:07:43Z</time></trkpt><trkpt lat="43.99538756867868" lon="11.707678701930295"><ele>475.0</ele><time>2026-04-05T18:07:44Z</time></trkpt><trkpt lat="43.995291073208215" lon="11.707805178269716"><ele>475.0</ele><time>2026-04-05T18:07:45Z</time></trkpt><trkpt lat="43.99517560238246" lon="11.707933185639858"><ele>475.0</ele><time>2026-04-05T18:07:46Z</time></trkpt><trkpt lat="43.99507396181204" lon="11.708045818575624"><ele>475.2</ele><time>2026-04-05T18:07:47Z</time></trkpt><trkpt lat="43.99497339338811" lon="11.708153004205979"><ele>475.4</ele><time>2026-04-05T18:07:48Z</time></trkpt><trkpt lat="43.99488620819806" lon="11.708253815508996"><ele>475.6</ele><time>2026-04-05T18:07:49Z</time></trkpt><trkpt lat="43.99483088847199" lon="11.7083581586097"><ele>475.8</ele><time>2026-04-05T18:07:50Z</time></trkpt><trkpt lat="43.994796468268056" lon="11.70850876980506"><ele>476.0</ele><time>2026-04-05T18:07:51Z</time></trkpt><trkpt lat="43.994749366022816" lon="11.708671745702349"><ele>476.0</ele><time>2026-04-05T18:07:52Z</time></trkpt><trkpt lat="43.994698280172955" lon="11.708855695944901"><ele>476.0</ele><time>2026-04-05T18:07:53Z</time></trkpt><trkpt lat="43.99464997822193" lon="11.709056165721913"><ele>476.0</ele><time>2026-04-05T18:07:54Z</time></trkpt><trkpt lat="43.99459284377371" lon="11.709254833798882"><ele>476.0</ele><time>2026-04-05T18:07:55Z</time></trkpt><trkpt lat="43.99453316903322" lon="11.70945631965399"><ele>476.25</ele><time>2026-04-05T18:07:56Z</time></trkpt><trkpt lat="43.99448329400909" lon="11.709655758159702"><ele>476.5</ele><time>2026-04-05T18:07:57Z</time></trkpt><trkpt lat="43.994446531687004" lon="11.709848773046408"><ele>476.75</ele><time>2026-04-05T18:07:58Z</time></trkpt><trkpt lat="43.99444557016406" lon="11.71004648493237"><ele>477.0</ele><time>2026-04-05T18:07:59Z</time></trkpt><trkpt lat="43.994460528920634" lon="11.710243880907106"><ele>472.0</ele><time>2026-04-05T18:08:00Z</time></trkpt><trkpt lat="43.99450909495274" lon="11.710436266854716"><ele>467.0</ele><time>2026-04-05T18:08:01Z</time></trkpt><trkpt lat="43.99459133043155" lon="11.710624140488756"><ele>462.0</ele><time>2026-04-05T18:08:02Z</time></trkpt><trkpt lat="43.994699503183675" lon="11.710793959215678"><ele>462.0</ele><time>2026-04-05T18:08:03Z</time></trkpt><trkpt lat="43.99480865848984" lon="11.710954140852328"><ele>462.0</ele><time>2026-04-05T18:08:04Z</time></trkpt><trkpt lat="43.99492742696906" lon="11.711083904350414"><ele>462.0</ele><time>2026-04-05T18:08:05Z</time></trkpt><trkpt lat="43.9950611814132" lon="11.71118957649446"><ele>459.0</ele><time>2026-04-05T18:08:06Z</time></trkpt><trkpt lat="43.995188688581436" lon="11.711262592922564"><ele>456.0</ele><time>2026-04-05T18:08:07Z</time></trkpt><trkpt lat="43.995320491271904" lon="11.711300058731899"><ele>453.0</ele><time>2026-04-05T18:08:08Z</time></trkpt><trkpt lat="43.99546585182619" lon="11.71130269655455"><ele>450.0</ele><time>2026-04-05T18:08:09Z</time></trkpt><trkpt lat="43.99561548104232" lon="11.711333618325074"><ele>450.0</ele><time>2026-04-05T18:08:10Z</time></trkpt><trkpt lat="43.99575958100995" lon="11.711350033802054"><ele>450.0</ele><time>2026-04-05T18:08:11Z</time></trkpt><trkpt lat="43.99589959315108" lon="11.711382209021568"><ele>450.0</ele><time>2026-04-05T18:08:12Z</time></trkpt><trkpt lat="43.99603694950999" lon="11.711442102507538"><ele>450.0</ele><time>2026-04-05T18:08:13Z</time></trkpt><trkpt lat="43.996184236097136" lon="11.711538971877468"><ele>453.33333333333337</ele><time>2026-04-05T18:08:14Z</time></trkpt><trkpt lat="43.996334095107635" lon="11.71165932016635"><ele>456.6666666666667</ele><time>2026-04-05T18:08:15Z</time></trkpt><trkpt lat="43.99648137515352" lon="11.711784742623912"><ele>460.0</ele><time>2026-04-05T18:08:16Z</time></trkpt><trkpt lat="43.99661279896528" lon="11.7119171972494"><ele>477.6666666666667</ele><time>2026-04-05T18:08:17Z</time></trkpt><trkpt lat="43.99670156678019" lon="11.712076848846475"><ele>495.33333333333337</ele><time>2026-04-05T18:08:18Z</time></trkpt><trkpt lat="43.99678320651729" lon="11.71226518946961"><ele>513.0</ele><time>2026-04-05T18:08:19Z</time></trkpt><trkpt lat="43.99685079454478" lon="11.712471757529157"><ele>513.0</ele><time>2026-04-05T18:08:20Z</time></trkpt><trkpt lat="43.99689480237233" lon="11.712732239023365"><ele>513.0</ele><time>2026-04-05T18:08:21Z</time></trkpt><trkpt lat="43.99690592091176" lon="11.713015461290334"><ele>513.0</ele><time>2026-04-05T18:08:22Z</time></trkpt><trkpt lat="43.99688575628665" lon="11.713313543718895"><ele>505.66666666666663</ele><time>2026-04-05T18:08:23Z</time></trkpt><trkpt lat="43.996858400824834" lon="11.713582409605834"><ele>498.3333333333333</ele><time>2026-04-05T18:08:24Z</time></trkpt><trkpt lat="43.99678243450049" lon="11.713827122737134"><ele>491.0</ele><time>2026-04-05T18:08:25Z</time></trkpt><trkpt lat="43.99669103736698" lon="11.714054888771853"><ele>482.5</ele><time>2026-04-05T18:08:26Z</time></trkpt><trkpt lat="43.99660310506746" lon="11.714273789608848"><ele>474.0</ele><time>2026-04-05T18:08:27Z</time></trkpt><trkpt lat="43.996565127546674" lon="11.714382401166551"><ele>465.5</ele><time>2026-04-05T18:08:28Z</time></trkpt><trkpt lat="43.99655419224141" lon="11.714545924831734"><ele>457.0</ele><time>2026-04-05T18:08:29Z</time></trkpt><trkpt lat="43.996585201754336" lon="11.714716116943125"><ele>457.0</ele><time>2026-04-05T18:08:30Z</time></trkpt><trkpt lat="43.99662768976311" lon="11.714862223552682"><ele>457.0</ele><time>2026-04-05T18:08:31Z</time></trkpt><trkpt lat="43.99662072653686" lon="11.715017419921155"><ele>457.0</ele><time>2026-04-05T18:08:32Z</time></trkpt><trkpt lat="43.9965696997869" lon="11.715146440622586"><ele>457.0</ele><time>2026-04-05T18:08:33Z</time></trkpt><trkpt lat="43.99648459812797" lon="11.715266341815639"><ele>462.25</ele><time>2026-04-05T18:08:34Z</time></trkpt><trkpt lat="43.99639955848127" lon="11.715388698229248"><ele>467.5</ele><time>2026-04-05T18:08:35Z</time></trkpt><trkpt lat="43.996295440227456" lon="11.715436942104345"><ele>472.75</ele><time>2026-04-05T18:08:36Z</time></trkpt><trkpt lat="43.996180732466286" lon="11.715412178757203"><ele>478.0</ele><time>2026-04-05T18:08:37Z</time></trkpt><trkpt lat="43.9960677155137" lon="11.715404303569308"><ele>478.0</ele><time>2026-04-05T18:08:38Z</time></trkpt><trkpt lat="43.99596733255974" lon="11.715401846653743"><ele>477.99999999999994</ele><time>2026-04-05T18:08:39Z</time></trkpt><trkpt lat="43.99588305368377" lon="11.71544678760593"><ele>477.99999999999994</ele><time>2026-04-05T18:08:40Z</time></trkpt><trkpt lat="43.99581962174484" lon="11.71554903765833"><ele>478.0</ele><time>2026-04-05T18:08:41Z</time></trkpt><trkpt lat="43.995798161677115" lon="11.715689726704664"><ele>478.0</ele><time>2026-04-05T18:08:42Z</time></trkpt><trkpt lat="43.99581500512801" lon="11.715846949519323"><ele>478.0</ele><time>2026-04-05T18:08:42.999Z</time></trkpt><trkpt lat="43.995841399356515" lon="11.716007439904587"><ele>477.99999999999994</ele><time>2026-04-05T18:08:43.999Z</time></trkpt><trkpt lat="43.99584921601023" lon="11.716152603827345"><ele>477.99999999999994</ele><time>2026-04-05T18:08:44.999Z</time></trkpt><trkpt lat="43.99586840348574" lon="11.71629289308442"><ele>478.0</ele><time>2026-04-05T18:08:45.999Z</time></trkpt><trkpt lat="43.995900129121225" lon="11.716437835136915"><ele>478.0</ele><time>2026-04-05T18:08:46.999Z</time></trkpt><trkpt lat="43.9959211694968" lon="11.716595523130755"><ele>484.25</ele><time>2026-04-05T18:08:47.999Z</time></trkpt><trkpt lat="43.99594475561884" lon="11.716769057314732"><ele>490.5</ele><time>2026-04-05T18:08:48.999Z</time></trkpt><trkpt lat="43.99594403429744" lon="11.716966426484321"><ele>496.75</ele><time>2026-04-05T18:08:49.999Z</time></trkpt><trkpt lat="43.995950617838965" lon="11.717132377704043"><ele>503.0</ele><time>2026-04-05T18:08:50.999Z</time></trkpt><trkpt lat="43.99595520509079" lon="11.717298616860283"><ele>506.5</ele><time>2026-04-05T18:08:51.999Z</time></trkpt><trkpt lat="43.99595891586403" lon="11.7174614806571"><ele>510.0</ele><time>2026-04-05T18:08:52.999Z</time></trkpt><trkpt lat="43.99596235497482" lon="11.717632486812047"><ele>513.5</ele><time>2026-04-05T18:08:53.999Z</time></trkpt><trkpt lat="43.995965405346396" lon="11.717801599338548"><ele>517.0</ele><time>2026-04-05T18:08:54.999Z</time></trkpt><trkpt lat="43.99594378338861" lon="11.717943982469652"><ele>520.6</ele><time>2026-04-05T18:08:55.999Z</time></trkpt><trkpt lat="43.995905746827745" lon="11.718083770001309"><ele>524.2</ele><time>2026-04-05T18:08:56.999Z</time></trkpt><trkpt lat="43.995866333796485" lon="11.71820825314097"><ele>527.8</ele><time>2026-04-05T18:08:57.999Z</time></trkpt><trkpt lat="43.99582255463079" lon="11.718329204522234"><ele>531.4</ele><time>2026-04-05T18:08:58.999Z</time></trkpt><trkpt lat="43.995775448497504" lon="11.718437947835085"><ele>535.0</ele><time>2026-04-05T18:08:59.999Z</time></trkpt><trkpt lat="43.995710474228176" lon="11.71849814928736"><ele>528.6</ele><time>2026-04-05T18:09:00.999Z</time></trkpt><trkpt lat="43.99563338785852" lon="11.718569388656283"><ele>522.2</ele><time>2026-04-05T18:09:01.999Z</time></trkpt><trkpt lat="43.99555375084021" lon="11.718648456249213"><ele>515.8</ele><time>2026-04-05T18:09:02.999Z</time></trkpt><trkpt lat="43.995473704625766" lon="11.718727951384311"><ele>509.4</ele><time>2026-04-05T18:09:03.999Z</time></trkpt><trkpt lat="43.99539425776144" lon="11.718807398258981"><ele>503.0</ele><time>2026-04-05T18:09:04.999Z</time></trkpt><trkpt lat="43.995315642392015" lon="11.718886013629742"><ele>503.0</ele><time>2026-04-05T18:09:05.999Z</time></trkpt><trkpt lat="43.99523898118424" lon="11.718982034046636"><ele>502.99999999999994</ele><time>2026-04-05T18:09:06.999Z</time></trkpt><trkpt lat="43.995147982571964" lon="11.719061396255942"><ele>502.99999999999994</ele><time>2026-04-05T18:09:07.999Z</time></trkpt><trkpt lat="43.995061438226294" lon="11.71916199445164"><ele>503.0</ele><time>2026-04-05T18:09:08.999Z</time></trkpt><trkpt lat="43.99497770708121" lon="11.719282867415696"><ele>503.0</ele><time>2026-04-05T18:09:09.999Z</time></trkpt><trkpt lat="43.994904173265354" lon="11.719433871780497"><ele>496.5</ele><time>2026-04-05T18:09:10.999Z</time></trkpt><trkpt lat="43.99482881627005" lon="11.719590381319767"><ele>490.0</ele><time>2026-04-05T18:09:11.999Z</time></trkpt><trkpt lat="43.994750422892494" lon="11.71975030785117"><ele>483.5</ele><time>2026-04-05T18:09:12.999Z</time></trkpt><trkpt lat="43.99468761737106" lon="11.719897034084571"><ele>477.0</ele><time>2026-04-05T18:09:13.999Z</time></trkpt><trkpt lat="43.994624399621934" lon="11.72001644604155"><ele>477.0</ele><time>2026-04-05T18:09:14.999Z</time></trkpt><trkpt lat="43.99457091029158" lon="11.720130571791803"><ele>477.00000000000006</ele><time>2026-04-05T18:09:15.999Z</time></trkpt><trkpt lat="43.994539905223455" lon="11.720239484228044"><ele>477.00000000000006</ele><time>2026-04-05T18:09:16.999Z</time></trkpt><trkpt lat="43.994519525648734" lon="11.720381453328779"><ele>477.0</ele><time>2026-04-05T18:09:17.999Z</time></trkpt><trkpt lat="43.99453856945659" lon="11.720526587362166"><ele>477.0</ele><time>2026-04-05T18:09:18.999Z</time></trkpt><trkpt lat="43.99459949753891" lon="11.720671895006388"><ele>477.0</ele><time>2026-04-05T18:09:19.999Z</time></trkpt><trkpt lat="43.99468959078556" lon="11.720801381291036"><ele>477.00000000000006</ele><time>2026-04-05T18:09:20.999Z</time></trkpt><trkpt lat="43.99475267390255" lon="11.720921786846532"><ele>477.00000000000006</ele><time>2026-04-05T18:09:21.999Z</time></trkpt><trkpt lat="43.99481992585402" lon="11.721016765927732"><ele>477.0</ele><time>2026-04-05T18:09:22.999Z</time></trkpt><trkpt lat="43.99488500207948" lon="11.721107134376636"><ele>477.0</ele><time>2026-04-05T18:09:23.999Z</time></trkpt><trkpt lat="43.99495815531591" lon="11.721208824614827"><ele>481.25</ele><time>2026-04-05T18:09:24.999Z</time></trkpt><trkpt lat="43.9950375202115" lon="11.721319909599762"><ele>485.5</ele><time>2026-04-05T18:09:25.999Z</time></trkpt><trkpt lat="43.995120333599" lon="11.721438300781225"><ele>489.75</ele><time>2026-04-05T18:09:26.999Z</time></trkpt><trkpt lat="43.99519753230289" lon="11.721559235784207"><ele>494.0</ele><time>2026-04-05T18:09:27.999Z</time></trkpt><trkpt lat="43.99526336953224" lon="11.72168496578455"><ele>494.0</ele><time>2026-04-05T18:09:28.999Z</time></trkpt><trkpt lat="43.9953225706799" lon="11.721820939167944"><ele>494.0</ele><time>2026-04-05T18:09:29.999Z</time></trkpt><trkpt lat="43.99538099946754" lon="11.72196497396187"><ele>494.0</ele><time>2026-04-05T18:09:30.999Z</time></trkpt><trkpt lat="43.99545531309093" lon="11.72210831704357"><ele>494.0</ele><time>2026-04-05T18:09:31.999Z</time></trkpt><trkpt lat="43.99550638011766" lon="11.722260991425486"><ele>493.66666666666663</ele><time>2026-04-05T18:09:32.999Z</time></trkpt><trkpt lat="43.995593090741366" lon="11.722397225486882"><ele>493.33333333333337</ele><time>2026-04-05T18:09:33.999Z</time></trkpt><trkpt lat="43.995712329044245" lon="11.722539376529294"><ele>493.0</ele><time>2026-04-05T18:09:34.999Z</time></trkpt><trkpt lat="43.995856123963655" lon="11.722718941803581"><ele>485.0</ele><time>2026-04-05T18:09:35.999Z</time></trkpt><trkpt lat="43.99603802324784" lon="11.72291317677376"><ele>477.0</ele><time>2026-04-05T18:09:36.999Z</time></trkpt><trkpt lat="43.996212392668546" lon="11.723077941979973"><ele>469.0</ele><time>2026-04-05T18:09:37.999Z</time></trkpt><trkpt lat="43.99637583519271" lon="11.72323525668668"><ele>469.0</ele><time>2026-04-05T18:09:38.999Z</time></trkpt><trkpt lat="43.99651042057993" lon="11.723384619446664"><ele>469.0</ele><time>2026-04-05T18:09:39.999Z</time></trkpt><trkpt lat="43.99661514156632" lon="11.723516706283755"><ele>469.0</ele><time>2026-04-05T18:09:40.999Z</time></trkpt><trkpt lat="43.996719120733744" lon="11.723654036125119"><ele>473.6666666666667</ele><time>2026-04-05T18:09:41.999Z</time></trkpt><trkpt lat="43.99684199417493" lon="11.723842226214344"><ele>478.33333333333337</ele><time>2026-04-05T18:09:42.999Z</time></trkpt><trkpt lat="43.9969531913135" lon="11.724016398873731"><ele>483.0</ele><time>2026-04-05T18:09:44Z</time></trkpt><trkpt lat="43.99693006382914" lon="11.724254131349168"><ele>471.33333333333337</ele><time>2026-04-05T18:09:45Z</time></trkpt><trkpt lat="43.99693071543959" lon="11.724465896569233"><ele>459.6666666666667</ele><time>2026-04-05T18:09:46Z</time></trkpt><trkpt lat="43.99692760399474" lon="11.724682640647096"><ele>448.0</ele><time>2026-04-05T18:09:47Z</time></trkpt><trkpt lat="43.99691216585892" lon="11.72488846706695"><ele>448.0</ele><time>2026-04-05T18:09:48Z</time></trkpt><trkpt lat="43.996875458168425" lon="11.725067912157122"><ele>447.99999999999994</ele><time>2026-04-05T18:09:49Z</time></trkpt><trkpt lat="43.99682281131737" lon="11.725218718264545"><ele>447.99999999999994</ele><time>2026-04-05T18:09:50Z</time></trkpt><trkpt lat="43.9968154905993" lon="11.725337449905886"><ele>448.0</ele><time>2026-04-05T18:09:51Z</time></trkpt><trkpt lat="43.996805151315066" lon="11.725446995394327"><ele>448.0</ele><time>2026-04-05T18:09:52Z</time></trkpt><trkpt lat="43.99686727780798" lon="11.725548114695346"><ele>440.75</ele><time>2026-04-05T18:09:53Z</time></trkpt><trkpt lat="43.99696909536212" lon="11.72558753807263"><ele>433.5</ele><time>2026-04-05T18:09:54Z</time></trkpt><trkpt lat="43.997089307074575" lon="11.725541402278775"><ele>426.25</ele><time>2026-04-05T18:09:55Z</time></trkpt><trkpt lat="43.99721074846069" lon="11.725515367081597"><ele>419.0</ele><time>2026-04-05T18:09:56Z</time></trkpt><trkpt lat="43.997350210638615" lon="11.725518907846613"><ele>419.0</ele><time>2026-04-05T18:09:57Z</time></trkpt><trkpt lat="43.99749593581133" lon="11.725469399846423"><ele>419.0</ele><time>2026-04-05T18:09:58Z</time></trkpt><trkpt lat="43.99764031910295" lon="11.725416258086076"><ele>419.0</ele><time>2026-04-05T18:09:59Z</time></trkpt><trkpt lat="43.99778378643046" lon="11.725415989218124"><ele>419.0</ele><time>2026-04-05T18:10:00Z</time></trkpt><trkpt lat="43.997943612640036" lon="11.725443278320856"><ele>419.3333333333333</ele><time>2026-04-05T18:10:01Z</time></trkpt><trkpt lat="43.9981222039195" lon="11.72547612896501"><ele>419.66666666666663</ele><time>2026-04-05T18:10:02Z</time></trkpt><trkpt lat="43.99831764569629" lon="11.72551210235354"><ele>420.0</ele><time>2026-04-05T18:10:03Z</time></trkpt><trkpt lat="43.9985197947288" lon="11.725549440021593"><ele>420.0</ele><time>2026-04-05T18:10:04Z</time></trkpt><trkpt lat="43.998705704370174" lon="11.725588588948868"><ele>420.0</ele><time>2026-04-05T18:10:05Z</time></trkpt><trkpt lat="43.99889025759977" lon="11.725631253292486"><ele>420.0</ele><time>2026-04-05T18:10:06Z</time></trkpt><trkpt lat="43.999088338294314" lon="11.725709457432226"><ele>420.0</ele><time>2026-04-05T18:10:07Z</time></trkpt><trkpt lat="43.99928439289503" lon="11.72582744744936"><ele>420.0</ele><time>2026-04-05T18:10:08Z</time></trkpt><trkpt lat="43.99947139558194" lon="11.72597988679696"><ele>420.0</ele><time>2026-04-05T18:10:09Z</time></trkpt><trkpt lat="43.99965207697096" lon="11.726175587992293"><ele>420.0</ele><time>2026-04-05T18:10:10Z</time></trkpt><trkpt lat="43.99983490518391" lon="11.726391496634767"><ele>420.0</ele><time>2026-04-05T18:10:11Z</time></trkpt><trkpt lat="44.00004224488526" lon="11.72665725787463"><ele>415.5</ele><time>2026-04-05T18:10:12Z</time></trkpt><trkpt lat="44.00025509679893" lon="11.726943493736234"><ele>411.0</ele><time>2026-04-05T18:10:13Z</time></trkpt><trkpt lat="44.00041526857532" lon="11.727160815194614"><ele>411.0</ele><time>2026-04-05T18:10:14Z</time></trkpt><trkpt lat="44.00056796583929" lon="11.727419046967233"><ele>411.0</ele><time>2026-04-05T18:10:15Z</time></trkpt><trkpt lat="44.00064025776206" lon="11.727648962608738"><ele>411.0</ele><time>2026-04-05T18:10:17Z</time></trkpt><trkpt lat="44.00073570826918" lon="11.727879414070628"><ele>413.66666666666663</ele><time>2026-04-05T18:10:18Z</time></trkpt><trkpt lat="44.000851178689146" lon="11.728088728379168"><ele>416.3333333333333</ele><time>2026-04-05T18:10:19Z</time></trkpt><trkpt lat="44.0009880086565" lon="11.728283574292945"><ele>419.0</ele><time>2026-04-05T18:10:20Z</time></trkpt><trkpt lat="44.00113436871507" lon="11.728482018134123"><ele>414.0</ele><time>2026-04-05T18:10:21Z</time></trkpt><trkpt lat="44.001282729165446" lon="11.728684554344435"><ele>409.0</ele><time>2026-04-05T18:10:22Z</time></trkpt><trkpt lat="44.00141617442999" lon="11.728867201703602"><ele>404.0</ele><time>2026-04-05T18:10:23Z</time></trkpt><trkpt lat="44.00152929010627" lon="11.729025771963947"><ele>404.0</ele><time>2026-04-05T18:10:24Z</time></trkpt><trkpt lat="44.00160659979947" lon="11.729174017015731"><ele>404.0</ele><time>2026-04-05T18:10:25Z</time></trkpt><trkpt lat="44.001604307377484" lon="11.729328635335653"><ele>404.0</ele><time>2026-04-05T18:10:26Z</time></trkpt><trkpt lat="44.00161637133308" lon="11.7294946095325"><ele>404.0</ele><time>2026-04-05T18:10:27Z</time></trkpt><trkpt lat="44.00163075983467" lon="11.729658079413792"><ele>404.25</ele><time>2026-04-05T18:10:28Z</time></trkpt><trkpt lat="44.00165577097571" lon="11.729831499394914"><ele>404.5</ele><time>2026-04-05T18:10:29Z</time></trkpt><trkpt lat="44.001711628759786" lon="11.72999575687959"><ele>404.75</ele><time>2026-04-05T18:10:30Z</time></trkpt><trkpt lat="44.00176241655007" lon="11.730158439107752"><ele>405.0</ele><time>2026-04-05T18:10:31Z</time></trkpt><trkpt lat="44.001824653924096" lon="11.730311107760283"><ele>405.0</ele><time>2026-04-05T18:10:32Z</time></trkpt><trkpt lat="44.001907476179916" lon="11.73045444354819"><ele>405.0</ele><time>2026-04-05T18:10:33Z</time></trkpt><trkpt lat="44.00202370442453" lon="11.73057712328235"><ele>405.0</ele><time>2026-04-05T18:10:34Z</time></trkpt><trkpt lat="44.00214408593353" lon="11.730702974773694"><ele>405.0</ele><time>2026-04-05T18:10:35Z</time></trkpt><trkpt lat="44.00225975074075" lon="11.730823009005178"><ele>405.0</ele><time>2026-04-05T18:10:36Z</time></trkpt><trkpt lat="44.00239643659457" lon="11.730919924788305"><ele>405.0</ele><time>2026-04-05T18:10:37Z</time></trkpt><trkpt lat="44.002546080966184" lon="11.731001402806802"><ele>405.0</ele><time>2026-04-05T18:10:38Z</time></trkpt><trkpt lat="44.00270026069148" lon="11.731106782624371"><ele>404.0</ele><time>2026-04-05T18:10:39Z</time></trkpt><trkpt lat="44.00284541441298" lon="11.731177860703728"><ele>403.0</ele><time>2026-04-05T18:10:39.999Z</time></trkpt><trkpt lat="44.00299079107993" lon="11.73125291953452"><ele>402.0</ele><time>2026-04-05T18:10:40.999Z</time></trkpt><trkpt lat="44.00311198274317" lon="11.731317825116966"><ele>401.0</ele><time>2026-04-05T18:10:41.999Z</time></trkpt><trkpt lat="44.00322489078433" lon="11.731382255685732"><ele>406.25</ele><time>2026-04-05T18:10:42.999Z</time></trkpt><trkpt lat="44.00333241503269" lon="11.731456167647394"><ele>411.5</ele><time>2026-04-05T18:10:43.999Z</time></trkpt><trkpt lat="44.00342355114223" lon="11.731526197772544"><ele>416.75</ele><time>2026-04-05T18:10:44.999Z</time></trkpt><trkpt lat="44.003519460848516" lon="11.731626467914683"><ele>422.0</ele><time>2026-04-05T18:10:45.999Z</time></trkpt><trkpt lat="44.003621301007236" lon="11.731724340573436"><ele>422.0</ele><time>2026-04-05T18:10:46.999Z</time></trkpt><trkpt lat="44.003712624688845" lon="11.73183586638931"><ele>422.0</ele><time>2026-04-05T18:10:47.999Z</time></trkpt><trkpt lat="44.00380819970892" lon="11.731958896887226"><ele>422.0</ele><time>2026-04-05T18:10:48.999Z</time></trkpt><trkpt lat="44.00388437656391" lon="11.732083409501444"><ele>422.0</ele><time>2026-04-05T18:10:49.999Z</time></trkpt><trkpt lat="44.003935848267965" lon="11.732216906673075"><ele>413.75</ele><time>2026-04-05T18:10:50.999Z</time></trkpt><trkpt lat="44.00398193174375" lon="11.732369193908534"><ele>405.5</ele><time>2026-04-05T18:10:51.999Z</time></trkpt><trkpt lat="44.00403540300186" lon="11.732553492879136"><ele>397.25</ele><time>2026-04-05T18:10:52.999Z</time></trkpt><trkpt lat="44.00408133257263" lon="11.73271905656366"><ele>389.0</ele><time>2026-04-05T18:10:53.999Z</time></trkpt><trkpt lat="44.004131813872945" lon="11.732877456870037"><ele>394.0</ele><time>2026-04-05T18:10:54.999Z</time></trkpt><trkpt lat="44.004193907379246" lon="11.73301255340707"><ele>399.0</ele><time>2026-04-05T18:10:55.999Z</time></trkpt><trkpt lat="44.00429419771845" lon="11.73309951680806"><ele>404.0</ele><time>2026-04-05T18:10:56.999Z</time></trkpt><trkpt lat="44.004388310102414" lon="11.73318241563444"><ele>409.0</ele><time>2026-04-05T18:10:57.999Z</time></trkpt><trkpt lat="44.00448315731182" lon="11.733262935245735"><ele>409.0</ele><time>2026-04-05T18:10:58.999Z</time></trkpt><trkpt lat="44.004573362666505" lon="11.733342345146996"><ele>409.0</ele><time>2026-04-05T18:10:59.999Z</time></trkpt><trkpt lat="44.00465455302706" lon="11.733427217361623"><ele>409.0</ele><time>2026-04-05T18:11:00.999Z</time></trkpt><trkpt lat="44.00468028508864" lon="11.733576992751646"><ele>409.0</ele><time>2026-04-05T18:11:01.999Z</time></trkpt><trkpt lat="44.004680135294876" lon="11.733735947506295"><ele>409.0</ele><time>2026-04-05T18:11:02.999Z</time></trkpt><trkpt lat="44.004639137140984" lon="11.73388676572984"><ele>409.25</ele><time>2026-04-05T18:11:03.999Z</time></trkpt><trkpt lat="44.00460146863883" lon="11.7340609424085"><ele>409.5</ele><time>2026-04-05T18:11:04.999Z</time></trkpt><trkpt lat="44.004565311817004" lon="11.734229427955452"><ele>409.75</ele><time>2026-04-05T18:11:05.999Z</time></trkpt><trkpt lat="44.004528304911716" lon="11.734403496709767"><ele>410.0</ele><time>2026-04-05T18:11:06.999Z</time></trkpt><trkpt lat="44.004488104295085" lon="11.734568400059837"><ele>410.0</ele><time>2026-04-05T18:11:07.999Z</time></trkpt><trkpt lat="44.00444128696539" lon="11.734745197656396"><ele>410.0</ele><time>2026-04-05T18:11:08.999Z</time></trkpt><trkpt lat="44.004392559874674" lon="11.734899481298754"><ele>410.0</ele><time>2026-04-05T18:11:09.999Z</time></trkpt><trkpt lat="44.00433028265106" lon="11.735075249297854"><ele>410.0</ele><time>2026-04-05T18:11:10.999Z</time></trkpt><trkpt lat="44.00428027878665" lon="11.735253329907982"><ele>409.66666666666663</ele><time>2026-04-05T18:11:11.999Z</time></trkpt><trkpt lat="44.004251239348626" lon="11.735458041796532"><ele>409.33333333333337</ele><time>2026-04-05T18:11:12.999Z</time></trkpt><trkpt lat="44.00424483927816" lon="11.735679274574046"><ele>409.0</ele><time>2026-04-05T18:11:13.999Z</time></trkpt><trkpt lat="44.00427313582843" lon="11.735909754521153"><ele>407.0</ele><time>2026-04-05T18:11:14.999Z</time></trkpt><trkpt lat="44.00434202936748" lon="11.736147239723197"><ele>405.0</ele><time>2026-04-05T18:11:15.999Z</time></trkpt><trkpt lat="44.004433494211725" lon="11.736398248801173"><ele>403.0</ele><time>2026-04-05T18:11:16.999Z</time></trkpt><trkpt lat="44.00452697614193" lon="11.736663964648006"><ele>396.5</ele><time>2026-04-05T18:11:17.999Z</time></trkpt><trkpt lat="44.00462159388183" lon="11.73695380518181"><ele>390.0</ele><time>2026-04-05T18:11:18.999Z</time></trkpt><trkpt lat="44.00471521587912" lon="11.737250751338088"><ele>390.0</ele><time>2026-04-05T18:11:19.999Z</time></trkpt><trkpt lat="44.00481087630914" lon="11.737550230302272"><ele>390.0</ele><time>2026-04-05T18:11:20.999Z</time></trkpt><trkpt lat="44.00489865595688" lon="11.737834073388127"><ele>388.66666666666663</ele><time>2026-04-05T18:11:21.999Z</time></trkpt><trkpt lat="44.00497993102793" lon="11.738094129503471"><ele>387.3333333333333</ele><time>2026-04-05T18:11:22.999Z</time></trkpt><trkpt lat="44.005053365186946" lon="11.738337547274401"><ele>386.0</ele><time>2026-04-05T18:11:23.999Z</time></trkpt><trkpt lat="44.00512669597763" lon="11.738566954339785"><ele>386.0</ele><time>2026-04-05T18:11:24.999Z</time></trkpt><trkpt lat="44.005218070357614" lon="11.73876274522688"><ele>386.0</ele><time>2026-04-05T18:11:25.999Z</time></trkpt><trkpt lat="44.00532577308014" lon="11.738957411662392"><ele>386.0</ele><time>2026-04-05T18:11:26.999Z</time></trkpt><trkpt lat="44.005447971107415" lon="11.739137043895894"><ele>386.0</ele><time>2026-04-05T18:11:27.999Z</time></trkpt><trkpt lat="44.00559056882022" lon="11.739305115748605"><ele>386.0</ele><time>2026-04-05T18:11:28.999Z</time></trkpt><trkpt lat="44.00575356387741" lon="11.73945929349154"><ele>386.0</ele><time>2026-04-05T18:11:29.999Z</time></trkpt><trkpt lat="44.00591488262998" lon="11.739627839970037"><ele>387.66666666666663</ele><time>2026-04-05T18:11:30.999Z</time></trkpt><trkpt lat="44.00606694179811" lon="11.739777745871391"><ele>389.33333333333337</ele><time>2026-04-05T18:11:31.999Z</time></trkpt><trkpt lat="44.00620703095824" lon="11.739916013048973"><ele>391.0</ele><time>2026-04-05T18:11:32.999Z</time></trkpt><trkpt lat="44.00631434450489" lon="11.74003209156506"><ele>391.0</ele><time>2026-04-05T18:11:33.999Z</time></trkpt><trkpt lat="44.00638737007784" lon="11.740134807000512"><ele>391.0</ele><time>2026-04-05T18:11:34.999Z</time></trkpt><trkpt lat="44.006432305244964" lon="11.740246507068946"><ele>391.0</ele><time>2026-04-05T18:11:35.999Z</time></trkpt><trkpt lat="44.00644777322025" lon="11.740383483516167"><ele>391.0</ele><time>2026-04-05T18:11:36.999Z</time></trkpt><trkpt lat="44.00641214728979" lon="11.74053092497352"><ele>391.0</ele><time>2026-04-05T18:11:37.999Z</time></trkpt><trkpt lat="44.00641514542375" lon="11.740695162156225"><ele>387.0</ele><time>2026-04-05T18:11:38.999Z</time></trkpt><trkpt lat="44.00644602426962" lon="11.740872736608944"><ele>383.0</ele><time>2026-04-05T18:11:39.999Z</time></trkpt><trkpt lat="44.00651446242433" lon="11.741046674131383"><ele>379.0</ele><time>2026-04-05T18:11:40.999Z</time></trkpt><trkpt lat="44.00656355344727" lon="11.741184543046181"><ele>375.0</ele><time>2026-04-05T18:11:41.999Z</time></trkpt><trkpt lat="44.0066362922917" lon="11.7412912467406"><ele>378.25</ele><time>2026-04-05T18:11:42.999Z</time></trkpt><trkpt lat="44.00672713824375" lon="11.741375187831618"><ele>381.5</ele><time>2026-04-05T18:11:43.999Z</time></trkpt><trkpt lat="44.006822596683406" lon="11.741468769497745"><ele>384.75</ele><time>2026-04-05T18:11:44.999Z</time></trkpt><trkpt lat="44.00691080584045" lon="11.741575535349947"><ele>388.0</ele><time>2026-04-05T18:11:45.999Z</time></trkpt><trkpt lat="44.006967602051006" lon="11.741720955699833"><ele>385.33333333333337</ele><time>2026-04-05T18:11:46.999Z</time></trkpt><trkpt lat="44.00699642292917" lon="11.741915983233792"><ele>382.6666666666667</ele><time>2026-04-05T18:11:47.999Z</time></trkpt><trkpt lat="44.00692859893503" lon="11.742154798116768"><ele>380.0</ele><time>2026-04-05T18:11:48.999Z</time></trkpt><trkpt lat="44.00694399196149" lon="11.742468425412026"><ele>380.0</ele><time>2026-04-05T18:11:50Z</time></trkpt><trkpt lat="44.006921951236976" lon="11.742337595197778"><ele>380.0</ele><time>2026-04-05T18:11:51Z</time></trkpt><trkpt lat="44.00695161440258" lon="11.742482134408961"><ele>380.0</ele><time>2026-04-05T18:11:52Z</time></trkpt><trkpt lat="44.006995257347846" lon="11.742617550035952"><ele>380.0</ele><time>2026-04-05T18:11:53Z</time></trkpt><trkpt lat="44.00706969883096" lon="11.742728831035965"><ele>380.0</ele><time>2026-04-05T18:11:54Z</time></trkpt><trkpt lat="44.00715138857134" lon="11.742831253371282"><ele>378.5</ele><time>2026-04-05T18:11:55Z</time></trkpt><trkpt lat="44.00723470471856" lon="11.742941776619888"><ele>377.0</ele><time>2026-04-05T18:11:56Z</time></trkpt><trkpt lat="44.00731183074157" lon="11.743054236774878"><ele>375.5</ele><time>2026-04-05T18:11:57Z</time></trkpt><trkpt lat="44.007386081412584" lon="11.743184017806398"><ele>374.0</ele><time>2026-04-05T18:11:58Z</time></trkpt><trkpt lat="44.007467199475514" lon="11.743299061317026"><ele>377.75</ele><time>2026-04-05T18:11:59Z</time></trkpt><trkpt lat="44.00754761955203" lon="11.743428375294354"><ele>381.5</ele><time>2026-04-05T18:12:00Z</time></trkpt><trkpt lat="44.007626521034425" lon="11.743539665634671"><ele>385.25</ele><time>2026-04-05T18:12:01Z</time></trkpt><trkpt lat="44.00766865320725" lon="11.74368015402306"><ele>389.0</ele><time>2026-04-05T18:12:02Z</time></trkpt><trkpt lat="44.00772215136705" lon="11.743816049748121"><ele>389.0</ele><time>2026-04-05T18:12:03Z</time></trkpt><trkpt lat="44.00779172471401" lon="11.74393523135572"><ele>389.0</ele><time>2026-04-05T18:12:04Z</time></trkpt><trkpt lat="44.00785522319454" lon="11.744036083478026"><ele>389.0</ele><time>2026-04-05T18:12:05Z</time></trkpt><trkpt lat="44.00794984675348" lon="11.744081989967013"><ele>389.0</ele><time>2026-04-05T18:12:06Z</time></trkpt><trkpt lat="44.008053578142174" lon="11.74406421952303"><ele>389.0</ele><time>2026-04-05T18:12:07Z</time></trkpt><trkpt lat="44.008153188246325" lon="11.743998131135168"><ele>389.0</ele><time>2026-04-05T18:12:08Z</time></trkpt><trkpt lat="44.008258760715165" lon="11.743941725184568"><ele>389.0</ele><time>2026-04-05T18:12:09Z</time></trkpt><trkpt lat="44.00837175995574" lon="11.74396027834364"><ele>389.0</ele><time>2026-04-05T18:12:10Z</time></trkpt><trkpt lat="44.008424538658446" lon="11.74412435901674"><ele>389.0</ele><time>2026-04-05T18:12:11Z</time></trkpt><trkpt lat="44.00850100100521" lon="11.744244313795155"><ele>389.66666666666663</ele><time>2026-04-05T18:12:12Z</time></trkpt><trkpt lat="44.008533039847165" lon="11.74438605224812"><ele>390.3333333333333</ele><time>2026-04-05T18:12:13Z</time></trkpt><trkpt lat="44.00856688140665" lon="11.744489531013574"><ele>391.0</ele><time>2026-04-05T18:12:14Z</time></trkpt><trkpt lat="44.008609678986765" lon="11.744639890444153"><ele>391.66666666666663</ele><time>2026-04-05T18:12:16Z</time></trkpt><trkpt lat="44.00864904505404" lon="11.74472993156157"><ele>392.3333333333333</ele><time>2026-04-05T18:12:18Z</time></trkpt><trkpt lat="44.00870325895887" lon="11.74478511432211"><ele>393.0</ele><time>2026-04-05T18:12:20Z</time></trkpt><trkpt lat="44.0087666785519" lon="11.74479656762572"><ele>393.0</ele><time>2026-04-05T18:12:21Z</time></trkpt><trkpt lat="44.0088560379922" lon="11.744819161764418"><ele>393.0</ele><time>2026-04-05T18:12:22Z</time></trkpt><trkpt lat="44.008957313513214" lon="11.744830591483758"><ele>393.0</ele><time>2026-04-05T18:12:23Z</time></trkpt><trkpt lat="44.009061402134776" lon="11.744870301467646"><ele>393.0</ele><time>2026-04-05T18:12:24Z</time></trkpt><trkpt lat="44.009129266902164" lon="11.744982734486465"><ele>393.0</ele><time>2026-04-05T18:12:25Z</time></trkpt><trkpt lat="44.00915171733672" lon="11.745117752880663"><ele>391.0</ele><time>2026-04-05T18:12:26Z</time></trkpt><trkpt lat="44.00911489077179" lon="11.745261986459692"><ele>389.0</ele><time>2026-04-05T18:12:27Z</time></trkpt><trkpt lat="44.00906118322151" lon="11.74536647123351"><ele>387.0</ele><time>2026-04-05T18:12:28Z</time></trkpt><trkpt lat="44.009012365896204" lon="11.74548068063422"><ele>385.0</ele><time>2026-04-05T18:12:29Z</time></trkpt><trkpt lat="44.00899386379057" lon="11.745598388428379"><ele>383.0</ele><time>2026-04-05T18:12:30Z</time></trkpt><trkpt lat="44.0090038607084" lon="11.74571737037051"><ele>383.0</ele><time>2026-04-05T18:12:31Z</time></trkpt><trkpt lat="44.00904892502101" lon="11.745828959712695"><ele>383.0</ele><time>2026-04-05T18:12:32Z</time></trkpt><trkpt lat="44.009112103785114" lon="11.745928698166068"><ele>383.0</ele><time>2026-04-05T18:12:33Z</time></trkpt><trkpt lat="44.00918532790198" lon="11.746020290557821"><ele>383.0</ele><time>2026-04-05T18:12:34Z</time></trkpt><trkpt lat="44.00926645250343" lon="11.746103553732222"><ele>383.0</ele><time>2026-04-05T18:12:35Z</time></trkpt><trkpt lat="44.009353958222434" lon="11.746192450931561"><ele>381.25</ele><time>2026-04-05T18:12:36Z</time></trkpt><trkpt lat="44.009451966340905" lon="11.746284571888355"><ele>379.5</ele><time>2026-04-05T18:12:37Z</time></trkpt><trkpt lat="44.00955622102245" lon="11.746387918705361"><ele>377.75</ele><time>2026-04-05T18:12:38Z</time></trkpt><trkpt lat="44.009658887518114" lon="11.746490519195522"><ele>376.0</ele><time>2026-04-05T18:12:39Z</time></trkpt><trkpt lat="44.0097757523068" lon="11.74658400872101"><ele>376.0</ele><time>2026-04-05T18:12:40Z</time></trkpt><trkpt lat="44.00990700930287" lon="11.746650797198415"><ele>376.0</ele><time>2026-04-05T18:12:41Z</time></trkpt><trkpt lat="44.01003461733633" lon="11.746703659153436"><ele>376.0</ele><time>2026-04-05T18:12:42Z</time></trkpt><trkpt lat="44.01015175892545" lon="11.746765840347486"><ele>376.0</ele><time>2026-04-05T18:12:43Z</time></trkpt><trkpt lat="44.01025890561329" lon="11.746828846685538"><ele>372.8</ele><time>2026-04-05T18:12:44Z</time></trkpt><trkpt lat="44.01036000663355" lon="11.74689716098947"><ele>369.6</ele><time>2026-04-05T18:12:45Z</time></trkpt><trkpt lat="44.01045830248345" lon="11.74697060855612"><ele>366.4</ele><time>2026-04-05T18:12:46Z</time></trkpt><trkpt lat="44.01054951229511" lon="11.747042294965496"><ele>363.2</ele><time>2026-04-05T18:12:47Z</time></trkpt><trkpt lat="44.01063960482598" lon="11.747108805415335"><ele>360.0</ele><time>2026-04-05T18:12:47.999Z</time></trkpt><trkpt lat="44.010727075767406" lon="11.747171036064442"><ele>360.0</ele><time>2026-04-05T18:12:48.999Z</time></trkpt><trkpt lat="44.010815194590585" lon="11.747230034410162"><ele>360.0</ele><time>2026-04-05T18:12:49.999Z</time></trkpt><trkpt lat="44.010900501368525" lon="11.747285399844872"><ele>360.0</ele><time>2026-04-05T18:12:50.999Z</time></trkpt><trkpt lat="44.01098424096842" lon="11.747344273427744"><ele>360.0</ele><time>2026-04-05T18:12:51.999Z</time></trkpt><trkpt lat="44.011063544446166" lon="11.747403725514678"><ele>360.0</ele><time>2026-04-05T18:12:52.999Z</time></trkpt><trkpt lat="44.01114415172001" lon="11.747454033068314"><ele>362.6666666666667</ele><time>2026-04-05T18:12:53.999Z</time></trkpt><trkpt lat="44.011226698375445" lon="11.747487336906074"><ele>365.3333333333333</ele><time>2026-04-05T18:12:54.999Z</time></trkpt><trkpt lat="44.01130385766218" lon="11.747528515849389"><ele>368.0</ele><time>2026-04-05T18:12:55.999Z</time></trkpt><trkpt lat="44.01137936541694" lon="11.747568450094604"><ele>370.66666666666663</ele><time>2026-04-05T18:12:56.999Z</time></trkpt><trkpt lat="44.01145170801143" lon="11.747610317924009"><ele>373.3333333333333</ele><time>2026-04-05T18:12:57.999Z</time></trkpt><trkpt lat="44.01152025434051" lon="11.747639303218227"><ele>376.0</ele><time>2026-04-05T18:12:58.999Z</time></trkpt><trkpt lat="44.01162629040197" lon="11.747682887341334"><ele>373.5</ele><time>2026-04-05T18:13:00.999Z</time></trkpt><trkpt lat="44.01171642707476" lon="11.747725587961982"><ele>371.0</ele><time>2026-04-05T18:13:02.999Z</time></trkpt><trkpt lat="44.01178485993883" lon="11.747762336349002"><ele>368.5</ele><time>2026-04-05T18:13:04.999Z</time></trkpt><trkpt lat="44.01184987096613" lon="11.747793442161313"><ele>366.0</ele><time>2026-04-05T18:13:07.999Z</time></trkpt><trkpt lat="44.011924857036476" lon="11.747814472133674"><ele>363.5</ele><time>2026-04-05T18:13:19.999Z</time></trkpt><trkpt lat="44.01199668015303" lon="11.747845651157759"><ele>361.0</ele><time>2026-04-05T18:13:20.999Z</time></trkpt><trkpt lat="44.012087616932945" lon="11.747903695666448"><ele>361.0</ele><time>2026-04-05T18:13:21.999Z</time></trkpt><trkpt lat="44.0121728382665" lon="11.748019445512924"><ele>361.0</ele><time>2026-04-05T18:13:22.999Z</time></trkpt><trkpt lat="44.01225065458943" lon="11.748141282885168"><ele>361.0</ele><time>2026-04-05T18:13:23.999Z</time></trkpt><trkpt lat="44.01234650380402" lon="11.748305352735196"><ele>361.0</ele><time>2026-04-05T18:13:24.999Z</time></trkpt><trkpt lat="44.01245998719175" lon="11.748502877839893"><ele>362.75</ele><time>2026-04-05T18:13:25.999Z</time></trkpt><trkpt lat="44.01255861278462" lon="11.748684760584572"><ele>364.5</ele><time>2026-04-05T18:13:26.999Z</time></trkpt><trkpt lat="44.01263158098773" lon="11.748861095350042"><ele>366.25</ele><time>2026-04-05T18:13:27.999Z</time></trkpt><trkpt lat="44.01267991655305" lon="11.749034626360228"><ele>368.0</ele><time>2026-04-05T18:13:28.999Z</time></trkpt><trkpt lat="44.01272385780646" lon="11.749206245953344"><ele>368.0</ele><time>2026-04-05T18:13:29.999Z</time></trkpt><trkpt lat="44.01278040543671" lon="11.749364658471256"><ele>368.0</ele><time>2026-04-05T18:13:30.999Z</time></trkpt><trkpt lat="44.012855807491796" lon="11.749521692004135"><ele>368.0</ele><time>2026-04-05T18:13:31.999Z</time></trkpt><trkpt lat="44.01292674535485" lon="11.74963924678575"><ele>368.0</ele><time>2026-04-05T18:13:32.999Z</time></trkpt><trkpt lat="44.01301983278175" lon="11.74978574349712"><ele>371.0</ele><time>2026-04-05T18:13:33.999Z</time></trkpt><trkpt lat="44.013137191242336" lon="11.749922157460823"><ele>374.0</ele><time>2026-04-05T18:13:34.999Z</time></trkpt><trkpt lat="44.01325817833896" lon="11.750052774012822"><ele>377.0</ele><time>2026-04-05T18:13:35.999Z</time></trkpt><trkpt lat="44.0133806019242" lon="11.750172421014451"><ele>371.75</ele><time>2026-04-05T18:13:36.999Z</time></trkpt><trkpt lat="44.01349371896559" lon="11.75027727718303"><ele>366.5</ele><time>2026-04-05T18:13:37.999Z</time></trkpt><trkpt lat="44.013597499437545" lon="11.750381876386284"><ele>361.25</ele><time>2026-04-05T18:13:38.999Z</time></trkpt><trkpt lat="44.01368926961319" lon="11.750506760663379"><ele>356.0</ele><time>2026-04-05T18:13:39.999Z</time></trkpt><trkpt lat="44.01374318035671" lon="11.750693625165635"><ele>356.0</ele><time>2026-04-05T18:13:40.999Z</time></trkpt><trkpt lat="44.01381797722445" lon="11.750886963358298"><ele>356.0</ele><time>2026-04-05T18:13:41.999Z</time></trkpt><trkpt lat="44.01391017601488" lon="11.751082091349863"><ele>356.0</ele><time>2026-04-05T18:13:42.999Z</time></trkpt><trkpt lat="44.01401840147694" lon="11.751278211138489"><ele>352.6666666666667</ele><time>2026-04-05T18:13:43.999Z</time></trkpt><trkpt lat="44.0141147913552" lon="11.75147467931243"><ele>349.3333333333333</ele><time>2026-04-05T18:13:44.999Z</time></trkpt><trkpt lat="44.0142111452355" lon="11.751662105551166"><ele>346.0</ele><time>2026-04-05T18:13:45.999Z</time></trkpt><trkpt lat="44.014305662395486" lon="11.751838563734852"><ele>347.3333333333333</ele><time>2026-04-05T18:13:46.999Z</time></trkpt><trkpt lat="44.014389174481416" lon="11.752032546051629"><ele>348.6666666666667</ele><time>2026-04-05T18:13:47.999Z</time></trkpt><trkpt lat="44.01448721445813" lon="11.752263306824075"><ele>350.0</ele><time>2026-04-05T18:13:48.999Z</time></trkpt><trkpt lat="44.01455255662549" lon="11.752504242276938"><ele>350.0</ele><time>2026-04-05T18:13:49.999Z</time></trkpt><trkpt lat="44.01457183993078" lon="11.7526089618076"><ele>350.0</ele><time>2026-04-05T18:13:50.999Z</time></trkpt><trkpt lat="44.014610781163974" lon="11.752845217800903"><ele>350.0</ele><time>2026-04-05T18:13:51.999Z</time></trkpt><trkpt lat="44.0146481910215" lon="11.753081378113526"><ele>350.0</ele><time>2026-04-05T18:13:52.999Z</time></trkpt><trkpt lat="44.01467323906896" lon="11.753301855162567"><ele>349.5</ele><time>2026-04-05T18:13:53.999Z</time></trkpt><trkpt lat="44.01465369859569" lon="11.753486580181393"><ele>349.0</ele><time>2026-04-05T18:13:54.999Z</time></trkpt><trkpt lat="44.01462679039327" lon="11.753682681096814"><ele>348.5</ele><time>2026-04-05T18:13:56Z</time></trkpt><trkpt lat="44.01459892260162" lon="11.753882416586535"><ele>348.0</ele><time>2026-04-05T18:13:57Z</time></trkpt><trkpt lat="44.014571455896586" lon="11.754086825911553"><ele>348.0</ele><time>2026-04-05T18:13:58Z</time></trkpt><trkpt lat="44.01454484350158" lon="11.754284877295643"><ele>348.0</ele><time>2026-04-05T18:13:59Z</time></trkpt><trkpt lat="44.014527435654394" lon="11.754472504142518"><ele>348.0</ele><time>2026-04-05T18:14:00Z</time></trkpt><trkpt lat="44.01454462884732" lon="11.754645932678736"><ele>348.0</ele><time>2026-04-05T18:14:01Z</time></trkpt><trkpt lat="44.01456774255972" lon="11.754829218350757"><ele>349.0</ele><time>2026-04-05T18:14:02Z</time></trkpt><trkpt lat="44.01461060233045" lon="11.755012818422017"><ele>350.0</ele><time>2026-04-05T18:14:03Z</time></trkpt><trkpt lat="44.01461771955179" lon="11.755196254178523"><ele>351.0</ele><time>2026-04-05T18:14:04Z</time></trkpt><trkpt lat="44.014630217229914" lon="11.755382913343022"><ele>352.0</ele><time>2026-04-05T18:14:05Z</time></trkpt><trkpt lat="44.01463652132177" lon="11.755565110869105"><ele>354.5</ele><time>2026-04-05T18:14:06Z</time></trkpt><trkpt lat="44.014615512598844" lon="11.755741142414431"><ele>357.0</ele><time>2026-04-05T18:14:07Z</time></trkpt><trkpt lat="44.01460738607111" lon="11.755930326266185"><ele>359.5</ele><time>2026-04-05T18:14:08Z</time></trkpt><trkpt lat="44.01457701641271" lon="11.756109681718998"><ele>362.0</ele><time>2026-04-05T18:14:09Z</time></trkpt><trkpt lat="44.01455972366287" lon="11.75629210335016"><ele>362.5</ele><time>2026-04-05T18:14:10Z</time></trkpt><trkpt lat="44.01456607076203" lon="11.756478101063149"><ele>363.0</ele><time>2026-04-05T18:14:11Z</time></trkpt><trkpt lat="44.01459425502983" lon="11.756660548921092"><ele>363.5</ele><time>2026-04-05T18:14:12Z</time></trkpt><trkpt lat="44.01464492871248" lon="11.75683613138337"><ele>364.0</ele><time>2026-04-05T18:14:13Z</time></trkpt><trkpt lat="44.01472648473776" lon="11.756997990557526"><ele>364.0</ele><time>2026-04-05T18:14:14Z</time></trkpt><trkpt lat="44.014827050479894" lon="11.757143972209157"><ele>364.0</ele><time>2026-04-05T18:14:15Z</time></trkpt><trkpt lat="44.01493745704088" lon="11.757293287339117"><ele>364.0</ele><time>2026-04-05T18:14:16Z</time></trkpt><trkpt lat="44.015051195702874" lon="11.757440610734566"><ele>364.0</ele><time>2026-04-05T18:14:17Z</time></trkpt><trkpt lat="44.015170412767134" lon="11.757594807596494"><ele>364.0</ele><time>2026-04-05T18:14:18Z</time></trkpt><trkpt lat="44.015298855856095" lon="11.757738554786744"><ele>364.0</ele><time>2026-04-05T18:14:19Z</time></trkpt><trkpt lat="44.015443277331045" lon="11.75786661184535"><ele>362.0</ele><time>2026-04-05T18:14:20Z</time></trkpt><trkpt lat="44.01560055269436" lon="11.757982016375323"><ele>360.0</ele><time>2026-04-05T18:14:21Z</time></trkpt><trkpt lat="44.015757747273994" lon="11.758085697221764"><ele>358.0</ele><time>2026-04-05T18:14:22Z</time></trkpt><trkpt lat="44.01590219182712" lon="11.758169172342342"><ele>358.0</ele><time>2026-04-05T18:14:23Z</time></trkpt><trkpt lat="44.01604448807933" lon="11.758221100849875"><ele>358.0</ele><time>2026-04-05T18:14:24Z</time></trkpt><trkpt lat="44.01618881521426" lon="11.758223310732992"><ele>358.0</ele><time>2026-04-05T18:14:25Z</time></trkpt><trkpt lat="44.01632909572151" lon="11.75817476219725"><ele>358.0</ele><time>2026-04-05T18:14:26Z</time></trkpt><trkpt lat="44.01645541528574" lon="11.75810929886208"><ele>358.0</ele><time>2026-04-05T18:14:27Z</time></trkpt><trkpt lat="44.01657911097853" lon="11.758102428713139"><ele>358.0</ele><time>2026-04-05T18:14:28Z</time></trkpt><trkpt lat="44.01669115862608" lon="11.758178629218449"><ele>358.0</ele><time>2026-04-05T18:14:29Z</time></trkpt><trkpt lat="44.01679082311553" lon="11.75827033932938"><ele>358.0</ele><time>2026-04-05T18:14:30Z</time></trkpt><trkpt lat="44.01690205823993" lon="11.758318012402452"><ele>358.0</ele><time>2026-04-05T18:14:31Z</time></trkpt><trkpt lat="44.01700486913993" lon="11.758352132785934"><ele>358.0</ele><time>2026-04-05T18:14:32Z</time></trkpt><trkpt lat="44.01711211164488" lon="11.758324790983542"><ele>358.0</ele><time>2026-04-05T18:14:33Z</time></trkpt><trkpt lat="44.017225483289494" lon="11.758284343691257"><ele>358.0</ele><time>2026-04-05T18:14:34Z</time></trkpt><trkpt lat="44.0173502538486" lon="11.758281696457487"><ele>360.75</ele><time>2026-04-05T18:14:35Z</time></trkpt><trkpt lat="44.01748717328186" lon="11.758332879662376"><ele>363.5</ele><time>2026-04-05T18:14:36Z</time></trkpt><trkpt lat="44.01761743798983" lon="11.75838839090951"><ele>366.25</ele><time>2026-04-05T18:14:37Z</time></trkpt><trkpt lat="44.01773864211366" lon="11.758491903210684"><ele>369.0</ele><time>2026-04-05T18:14:38Z</time></trkpt><trkpt lat="44.017854755713266" lon="11.758597823880457"><ele>362.0</ele><time>2026-04-05T18:14:39Z</time></trkpt><trkpt lat="44.0179765999026" lon="11.758707370098483"><ele>355.0</ele><time>2026-04-05T18:14:40Z</time></trkpt><trkpt lat="44.018095160099236" lon="11.758811232817246"><ele>348.0</ele><time>2026-04-05T18:14:41Z</time></trkpt><trkpt lat="44.01822226460108" lon="11.758908892551128"><ele>341.0</ele><time>2026-04-05T18:14:42Z</time></trkpt><trkpt lat="44.01836046921377" lon="11.758992062717518"><ele>341.0</ele><time>2026-04-05T18:14:43Z</time></trkpt><trkpt lat="44.01848717294763" lon="11.759075629526288"><ele>341.0</ele><time>2026-04-05T18:14:44Z</time></trkpt><trkpt lat="44.018592919485904" lon="11.759201846933186"><ele>341.0</ele><time>2026-04-05T18:14:45Z</time></trkpt><trkpt lat="44.01867626369743" lon="11.759380450907432"><ele>341.0</ele><time>2026-04-05T18:14:46Z</time></trkpt><trkpt lat="44.01878790203909" lon="11.759528087398357"><ele>338.6666666666667</ele><time>2026-04-05T18:14:47Z</time></trkpt><trkpt lat="44.01891003609905" lon="11.759658429055357"><ele>336.3333333333333</ele><time>2026-04-05T18:14:48Z</time></trkpt><trkpt lat="44.01903346199136" lon="11.759781597068715"><ele>334.0</ele><time>2026-04-05T18:14:49Z</time></trkpt><trkpt lat="44.01915869478657" lon="11.75990717948727"><ele>334.0</ele><time>2026-04-05T18:14:50Z</time></trkpt><trkpt lat="44.01927695535424" lon="11.760025923585138"><ele>334.0</ele><time>2026-04-05T18:14:51Z</time></trkpt><trkpt lat="44.019388769924525" lon="11.76013651346836"><ele>334.0</ele><time>2026-04-05T18:14:52Z</time></trkpt><trkpt lat="44.01947021595142" lon="11.760264000012269"><ele>334.0</ele><time>2026-04-05T18:14:53Z</time></trkpt><trkpt lat="44.01951561649064" lon="11.760415801244347"><ele>331.75</ele><time>2026-04-05T18:14:54Z</time></trkpt><trkpt lat="44.019534288896274" lon="11.76056860436405"><ele>329.5</ele><time>2026-04-05T18:14:55Z</time></trkpt><trkpt lat="44.019502664214684" lon="11.760720903905368"><ele>327.25</ele><time>2026-04-05T18:14:56Z</time></trkpt><trkpt lat="44.01949130261597" lon="11.760902625108995"><ele>325.0</ele><time>2026-04-05T18:14:57Z</time></trkpt><trkpt lat="44.01946759986249" lon="11.761073856246673"><ele>325.0</ele><time>2026-04-05T18:14:58Z</time></trkpt><trkpt lat="44.01946043850651" lon="11.761248617826277"><ele>325.0</ele><time>2026-04-05T18:14:59Z</time></trkpt><trkpt lat="44.019454749778625" lon="11.7614324775812"><ele>325.0</ele><time>2026-04-05T18:15:00Z</time></trkpt><trkpt lat="44.01947875061955" lon="11.761625875182819"><ele>325.0</ele><time>2026-04-05T18:15:01Z</time></trkpt><trkpt lat="44.01950615112311" lon="11.761830104375475"><ele>324.66666666666663</ele><time>2026-04-05T18:15:02Z</time></trkpt><trkpt lat="44.01953558051637" lon="11.762043271488"><ele>324.3333333333333</ele><time>2026-04-05T18:15:03Z</time></trkpt><trkpt lat="44.01956513187614" lon="11.762259883243324"><ele>324.0</ele><time>2026-04-05T18:15:03.999Z</time></trkpt><trkpt lat="44.01960798880009" lon="11.762459023755062"><ele>324.0</ele><time>2026-04-05T18:15:04.999Z</time></trkpt><trkpt lat="44.0196151957056" lon="11.762600021319791"><ele>324.0</ele><time>2026-04-05T18:15:05.999Z</time></trkpt><trkpt lat="44.019640979859155" lon="11.762823578056492"><ele>324.0</ele><time>2026-04-05T18:15:06.999Z</time></trkpt><trkpt lat="44.01968935303576" lon="11.76306272348018"><ele>324.0</ele><time>2026-04-05T18:15:07.999Z</time></trkpt><trkpt lat="44.01974933044366" lon="11.763244632431174"><ele>323.6666666666667</ele><time>2026-04-05T18:15:08.999Z</time></trkpt><trkpt lat="44.019832731023264" lon="11.763412838473222"><ele>323.33333333333337</ele><time>2026-04-05T18:15:09.999Z</time></trkpt><trkpt lat="44.01993103291321" lon="11.763580701419349"><ele>323.0</ele><time>2026-04-05T18:15:10.999Z</time></trkpt><trkpt lat="44.0200297148119" lon="11.76373933693191"><ele>324.0</ele><time>2026-04-05T18:15:11.999Z</time></trkpt><trkpt lat="44.02011056234021" lon="11.763909326465408"><ele>325.0</ele><time>2026-04-05T18:15:12.999Z</time></trkpt><trkpt lat="44.02017913351413" lon="11.764089167927695"><ele>326.0</ele><time>2026-04-05T18:15:13.999Z</time></trkpt><trkpt lat="44.020239040873356" lon="11.764277693487116"><ele>327.0</ele><time>2026-04-05T18:15:14.999Z</time></trkpt><trkpt lat="44.02028792445612" lon="11.764475599818748"><ele>327.0</ele><time>2026-04-05T18:15:15.999Z</time></trkpt><trkpt lat="44.020333309369846" lon="11.764687709774485"><ele>327.0</ele><time>2026-04-05T18:15:16.999Z</time></trkpt><trkpt lat="44.02037765967554" lon="11.764899877677186"><ele>327.0</ele><time>2026-04-05T18:15:17.999Z</time></trkpt><trkpt lat="44.020417235533024" lon="11.76510577744851"><ele>325.6666666666667</ele><time>2026-04-05T18:15:18.999Z</time></trkpt><trkpt lat="44.02044295739965" lon="11.765311940066296"><ele>324.33333333333337</ele><time>2026-04-05T18:15:19.999Z</time></trkpt><trkpt lat="44.02046135673669" lon="11.765524621774109"><ele>323.0</ele><time>2026-04-05T18:15:20.999Z</time></trkpt><trkpt lat="44.02046505109566" lon="11.765734202613423"><ele>323.0</ele><time>2026-04-05T18:15:21.999Z</time></trkpt><trkpt lat="44.02045011732992" lon="11.765931252238195"><ele>323.0</ele><time>2026-04-05T18:15:22.999Z</time></trkpt><trkpt lat="44.02042369536234" lon="11.766102740730823"><ele>323.0</ele><time>2026-04-05T18:15:23.999Z</time></trkpt><trkpt lat="44.020414851099964" lon="11.766264408694612"><ele>323.0</ele><time>2026-04-05T18:15:24.999Z</time></trkpt><trkpt lat="44.020458571177336" lon="11.7664148761136"><ele>322.75</ele><time>2026-04-05T18:15:25.999Z</time></trkpt><trkpt lat="44.02052777437627" lon="11.766560532251841"><ele>322.5</ele><time>2026-04-05T18:15:26.999Z</time></trkpt><trkpt lat="44.02060893859356" lon="11.76670844249238"><ele>322.25</ele><time>2026-04-05T18:15:27.999Z</time></trkpt><trkpt lat="44.02069902089394" lon="11.76685120356691"><ele>322.0</ele><time>2026-04-05T18:15:28.999Z</time></trkpt><trkpt lat="44.020754163655745" lon="11.767037837380384"><ele>325.25</ele><time>2026-04-05T18:15:29.999Z</time></trkpt><trkpt lat="44.02083784347297" lon="11.767202373566166"><ele>328.5</ele><time>2026-04-05T18:15:30.999Z</time></trkpt><trkpt lat="44.020916784066756" lon="11.767358683164431"><ele>331.75</ele><time>2026-04-05T18:15:31.999Z</time></trkpt><trkpt lat="44.0209835563265" lon="11.767495593871873"><ele>335.0</ele><time>2026-04-05T18:15:32.999Z</time></trkpt><trkpt lat="44.02103118767969" lon="11.76762390331711"><ele>333.4</ele><time>2026-04-05T18:15:33.999Z</time></trkpt><trkpt lat="44.021025401035004" lon="11.767774679608001"><ele>331.8</ele><time>2026-04-05T18:15:34.999Z</time></trkpt><trkpt lat="44.021048669445406" lon="11.76791138147758"><ele>330.20000000000005</ele><time>2026-04-05T18:15:35.999Z</time></trkpt><trkpt lat="44.02109945083812" lon="11.768046925339885"><ele>328.6</ele><time>2026-04-05T18:15:36.999Z</time></trkpt><trkpt lat="44.02117212127818" lon="11.768161241293694"><ele>327.0</ele><time>2026-04-05T18:15:37.999Z</time></trkpt><trkpt lat="44.02124706532281" lon="11.768283933761872"><ele>327.0</ele><time>2026-04-05T18:15:38.999Z</time></trkpt><trkpt lat="44.021315529017244" lon="11.768418354144975"><ele>327.0</ele><time>2026-04-05T18:15:39.999Z</time></trkpt><trkpt lat="44.021357729666896" lon="11.76858360243778"><ele>327.0</ele><time>2026-04-05T18:15:40.999Z</time></trkpt><trkpt lat="44.02139241718024" lon="11.768779503358255"><ele>327.0</ele><time>2026-04-05T18:15:41.999Z</time></trkpt><trkpt lat="44.0214292678574" lon="11.768977820282412"><ele>324.25</ele><time>2026-04-05T18:15:42.999Z</time></trkpt><trkpt lat="44.02145981031353" lon="11.769175065927605"><ele>321.5</ele><time>2026-04-05T18:15:43.999Z</time></trkpt><trkpt lat="44.02146067856251" lon="11.769361849474855"><ele>318.75</ele><time>2026-04-05T18:15:44.999Z</time></trkpt><trkpt lat="44.021436763669634" lon="11.769551098282788"><ele>316.0</ele><time>2026-04-05T18:15:45.999Z</time></trkpt><trkpt lat="44.02143324060028" lon="11.769739193113674"><ele>315.75</ele><time>2026-04-05T18:15:46.999Z</time></trkpt><trkpt lat="44.02143280519248" lon="11.7699264659441"><ele>315.5</ele><time>2026-04-05T18:15:47.999Z</time></trkpt><trkpt lat="44.021472121382246" lon="11.770118213159575"><ele>315.25</ele><time>2026-04-05T18:15:48.999Z</time></trkpt><trkpt lat="44.021527599017375" lon="11.770310359348553"><ele>315.0</ele><time>2026-04-05T18:15:49.999Z</time></trkpt><trkpt lat="44.02158449570355" lon="11.770483120697213"><ele>315.0</ele><time>2026-04-05T18:15:50.999Z</time></trkpt><trkpt lat="44.021633723991194" lon="11.770650436066465"><ele>315.0</ele><time>2026-04-05T18:15:51.999Z</time></trkpt><trkpt lat="44.02165404514701" lon="11.77079470377778"><ele>315.0</ele><time>2026-04-05T18:15:52.999Z</time></trkpt><trkpt lat="44.02161290890116" lon="11.770914687520998"><ele>315.0</ele><time>2026-04-05T18:15:53.999Z</time></trkpt><trkpt lat="44.021569915146166" lon="11.771050052952395"><ele>315.0</ele><time>2026-04-05T18:15:54.999Z</time></trkpt><trkpt lat="44.02154836812849" lon="11.771187881087386"><ele>316.4</ele><time>2026-04-05T18:15:55.999Z</time></trkpt><trkpt lat="44.021541839016976" lon="11.771306816338319"><ele>317.8</ele><time>2026-04-05T18:15:56.999Z</time></trkpt><trkpt lat="44.0215645930842" lon="11.771433745832839"><ele>319.20000000000005</ele><time>2026-04-05T18:15:57.999Z</time></trkpt><trkpt lat="44.021595314500736" lon="11.771582037266958"><ele>320.6</ele><time>2026-04-05T18:15:58.999Z</time></trkpt><trkpt lat="44.02166721984073" lon="11.771721222708317"><ele>322.0</ele><time>2026-04-05T18:15:59.999Z</time></trkpt><trkpt lat="44.02175244374171" lon="11.77184061557502"><ele>324.75</ele><time>2026-04-05T18:16:00.999Z</time></trkpt><trkpt lat="44.021862564092416" lon="11.771934959446009"><ele>327.5</ele><time>2026-04-05T18:16:02Z</time></trkpt><trkpt lat="44.021955711180816" lon="11.77205847094157"><ele>330.25</ele><time>2026-04-05T18:16:03Z</time></trkpt><trkpt lat="44.02206289992139" lon="11.772169816745503"><ele>333.0</ele><time>2026-04-05T18:16:04Z</time></trkpt><trkpt lat="44.0221797265714" lon="11.772289123008594"><ele>333.0</ele><time>2026-04-05T18:16:05Z</time></trkpt><trkpt lat="44.02230005183957" lon="11.772413817749765"><ele>333.0</ele><time>2026-04-05T18:16:06Z</time></trkpt><trkpt lat="44.02242512242946" lon="11.772542813144772"><ele>333.0</ele><time>2026-04-05T18:16:07Z</time></trkpt><trkpt lat="44.02255067140985" lon="11.77267230164817"><ele>330.0</ele><time>2026-04-05T18:16:08Z</time></trkpt><trkpt lat="44.02267700444358" lon="11.772804856125285"><ele>327.0</ele><time>2026-04-05T18:16:09Z</time></trkpt><trkpt lat="44.02279544988835" lon="11.772936276844263"><ele>324.0</ele><time>2026-04-05T18:16:10Z</time></trkpt><trkpt lat="44.02290417911467" lon="11.773076372726424"><ele>324.0</ele><time>2026-04-05T18:16:11Z</time></trkpt><trkpt lat="44.02301006691379" lon="11.773220586759715"><ele>324.0</ele><time>2026-04-05T18:16:12Z</time></trkpt><trkpt lat="44.02311500647685" lon="11.773368017966474"><ele>324.0</ele><time>2026-04-05T18:16:13Z</time></trkpt><trkpt lat="44.02323065671387" lon="11.773481771174511"><ele>324.0</ele><time>2026-04-05T18:16:14Z</time></trkpt><trkpt lat="44.02332131755169" lon="11.773624369945805"><ele>324.75</ele><time>2026-04-05T18:16:15Z</time></trkpt><trkpt lat="44.02340710665551" lon="11.77376995929093"><ele>325.5</ele><time>2026-04-05T18:16:16Z</time></trkpt><trkpt lat="44.02349452933116" lon="11.773940666299458"><ele>326.25</ele><time>2026-04-05T18:16:17Z</time></trkpt><trkpt lat="44.02357863103857" lon="11.774128431675372"><ele>327.0</ele><time>2026-04-05T18:16:18Z</time></trkpt><trkpt lat="44.023658006690965" lon="11.774304984669161"><ele>323.0</ele><time>2026-04-05T18:16:19Z</time></trkpt><trkpt lat="44.02373602316555" lon="11.774417556073475"><ele>319.0</ele><time>2026-04-05T18:16:20Z</time></trkpt><trkpt lat="44.02384194339381" lon="11.774590743072881"><ele>315.0</ele><time>2026-04-05T18:16:21Z</time></trkpt><trkpt lat="44.023926167412135" lon="11.774831768491767"><ele>315.0</ele><time>2026-04-05T18:16:22Z</time></trkpt><trkpt lat="44.024025385352594" lon="11.775085095551681"><ele>315.0</ele><time>2026-04-05T18:16:23Z</time></trkpt><trkpt lat="44.024066203536925" lon="11.775210268776739"><ele>315.0</ele><time>2026-04-05T18:16:24Z</time></trkpt><trkpt lat="44.02413083364289" lon="11.775390397081775"><ele>316.6666666666667</ele><time>2026-04-05T18:16:25Z</time></trkpt><trkpt lat="44.02418397208129" lon="11.775598625565523"><ele>318.33333333333337</ele><time>2026-04-05T18:16:26Z</time></trkpt><trkpt lat="44.02424528516581" lon="11.77584352786313"><ele>320.0</ele><time>2026-04-05T18:16:27Z</time></trkpt><trkpt lat="44.02431291489184" lon="11.776118819495434"><ele>320.0</ele><time>2026-04-05T18:16:28Z</time></trkpt><trkpt lat="44.024383485434356" lon="11.776403137469538"><ele>320.0</ele><time>2026-04-05T18:16:29Z</time></trkpt><trkpt lat="44.02449160238632" lon="11.776675531542733"><ele>320.0</ele><time>2026-04-05T18:16:30Z</time></trkpt><trkpt lat="44.02455476883358" lon="11.776971326889514"><ele>317.33333333333337</ele><time>2026-04-05T18:16:31Z</time></trkpt><trkpt lat="44.02461871596413" lon="11.777252409243543"><ele>314.6666666666667</ele><time>2026-04-05T18:16:32Z</time></trkpt><trkpt lat="44.02468508295627" lon="11.777544395537944"><ele>312.0</ele><time>2026-04-05T18:16:33Z</time></trkpt><trkpt lat="44.02473752193137" lon="11.777836656449846"><ele>308.3333333333333</ele><time>2026-04-05T18:16:34Z</time></trkpt><trkpt lat="44.02480426203392" lon="11.778111147161805"><ele>304.66666666666663</ele><time>2026-04-05T18:16:35Z</time></trkpt><trkpt lat="44.02487041582982" lon="11.778390045447924"><ele>301.0</ele><time>2026-04-05T18:16:36Z</time></trkpt><trkpt lat="44.0249384488157" lon="11.77868034399937"><ele>304.5</ele><time>2026-04-05T18:16:37Z</time></trkpt><trkpt lat="44.0250083498636" lon="11.778980578232892"><ele>308.0</ele><time>2026-04-05T18:16:38Z</time></trkpt><trkpt lat="44.025077123771815" lon="11.779276587893893"><ele>306.33333333333337</ele><time>2026-04-05T18:16:39Z</time></trkpt><trkpt lat="44.02514344855998" lon="11.779562056359287"><ele>304.6666666666667</ele><time>2026-04-05T18:16:40Z</time></trkpt><trkpt lat="44.0252055581317" lon="11.779829381139788"><ele>303.0</ele><time>2026-04-05T18:16:41Z</time></trkpt><trkpt lat="44.02526249095645" lon="11.780071148540623"><ele>301.0</ele><time>2026-04-05T18:16:42Z</time></trkpt><trkpt lat="44.02531579543313" lon="11.780297808507584"><ele>299.0</ele><time>2026-04-05T18:16:43Z</time></trkpt><trkpt lat="44.025363789722775" lon="11.78049751439336"><ele>297.0</ele><time>2026-04-05T18:16:44Z</time></trkpt><trkpt lat="44.0254150525234" lon="11.780668673003898"><ele>297.0</ele><time>2026-04-05T18:16:45Z</time></trkpt><trkpt lat="44.025490210988465" lon="11.780852468107161"><ele>297.0</ele><time>2026-04-05T18:16:46Z</time></trkpt><trkpt lat="44.02557435071585" lon="11.781024402790806"><ele>297.0</ele><time>2026-04-05T18:16:47Z</time></trkpt><trkpt lat="44.02565478893432" lon="11.781173171521935"><ele>297.0</ele><time>2026-04-05T18:16:48Z</time></trkpt><trkpt lat="44.025728485113184" lon="11.781322833428067"><ele>296.25</ele><time>2026-04-05T18:16:49Z</time></trkpt><trkpt lat="44.025798457692424" lon="11.781473902971172"><ele>295.5</ele><time>2026-04-05T18:16:50Z</time></trkpt><trkpt lat="44.02586098744069" lon="11.781623799994215"><ele>294.75</ele><time>2026-04-05T18:16:51Z</time></trkpt><trkpt lat="44.025899529973614" lon="11.781783772878217"><ele>294.0</ele><time>2026-04-05T18:16:52Z</time></trkpt><trkpt lat="44.02591622643351" lon="11.781963924346364"><ele>295.25</ele><time>2026-04-05T18:16:53Z</time></trkpt><trkpt lat="44.0258942953816" lon="11.782164668273435"><ele>296.5</ele><time>2026-04-05T18:16:54Z</time></trkpt><trkpt lat="44.0258831595888" lon="11.782373574198722"><ele>297.75</ele><time>2026-04-05T18:16:55Z</time></trkpt><trkpt lat="44.02590357485364" lon="11.782577362573813"><ele>299.0</ele><time>2026-04-05T18:16:56Z</time></trkpt><trkpt lat="44.02588671614405" lon="11.782765481977101"><ele>299.0</ele><time>2026-04-05T18:16:57Z</time></trkpt><trkpt lat="44.025875224358074" lon="11.782929405942578"><ele>299.0</ele><time>2026-04-05T18:16:58Z</time></trkpt><trkpt lat="44.025788702712155" lon="11.783045127577816"><ele>299.0</ele><time>2026-04-05T18:16:59Z</time></trkpt><trkpt lat="44.02571405611418" lon="11.783141204701812"><ele>299.0</ele><time>2026-04-05T18:17:00Z</time></trkpt><trkpt lat="44.02565080883605" lon="11.783230593360615"><ele>299.0</ele><time>2026-04-05T18:17:01Z</time></trkpt><trkpt lat="44.025612985503706" lon="11.783315485139049"><ele>298.0</ele><time>2026-04-05T18:17:02Z</time></trkpt><trkpt lat="44.02561211709925" lon="11.78343135618804"><ele>297.0</ele><time>2026-04-05T18:17:03Z</time></trkpt><trkpt lat="44.025628236381294" lon="11.783544071126386"><ele>296.0</ele><time>2026-04-05T18:17:04Z</time></trkpt><trkpt lat="44.02566744177987" lon="11.783648763492518"><ele>295.0</ele><time>2026-04-05T18:17:05Z</time></trkpt><trkpt lat="44.025715389830296" lon="11.783758119234147"><ele>294.0</ele><time>2026-04-05T18:17:05.999Z</time></trkpt><trkpt lat="44.025764731744864" lon="11.783882048979487"><ele>293.0</ele><time>2026-04-05T18:17:06.999Z</time></trkpt><trkpt lat="44.02579589686192" lon="11.784017352828084"><ele>292.4</ele><time>2026-04-05T18:17:07.999Z</time></trkpt><trkpt lat="44.02575799651132" lon="11.784149581751379"><ele>291.8</ele><time>2026-04-05T18:17:08.999Z</time></trkpt><trkpt lat="44.02573604245418" lon="11.784278848765497"><ele>291.2</ele><time>2026-04-05T18:17:09.999Z</time></trkpt><trkpt lat="44.02571212316185" lon="11.78440570070531"><ele>290.6</ele><time>2026-04-05T18:17:10.999Z</time></trkpt><trkpt lat="44.02568927813902" lon="11.784527231865976"><ele>290.0</ele><time>2026-04-05T18:17:11.999Z</time></trkpt><trkpt lat="44.02567415003054" lon="11.784647837305508"><ele>290.0</ele><time>2026-04-05T18:17:12.999Z</time></trkpt><trkpt lat="44.02567395507332" lon="11.784772268751757"><ele>290.0</ele><time>2026-04-05T18:17:13.999Z</time></trkpt><trkpt lat="44.02571585696253" lon="11.784894018012457"><ele>290.0</ele><time>2026-04-05T18:17:14.999Z</time></trkpt><trkpt lat="44.02577464875137" lon="11.78499600032279"><ele>290.0</ele><time>2026-04-05T18:17:15.999Z</time></trkpt><trkpt lat="44.02584904750115" lon="11.78508510997303"><ele>290.0</ele><time>2026-04-05T18:17:16.999Z</time></trkpt><trkpt lat="44.02591316114615" lon="11.785152521942745"><ele>291.6</ele><time>2026-04-05T18:17:17.999Z</time></trkpt><trkpt lat="44.0259695319979" lon="11.785194944730879"><ele>293.2</ele><time>2026-04-05T18:17:18.999Z</time></trkpt><trkpt lat="44.02606670485358" lon="11.785224359536"><ele>294.8</ele><time>2026-04-05T18:17:20.999Z</time></trkpt><trkpt lat="44.02614437322291" lon="11.785251331775811"><ele>296.4</ele><time>2026-04-05T18:17:22.999Z</time></trkpt><trkpt lat="44.02622817998449" lon="11.785237517747756"><ele>298.0</ele><time>2026-04-05T18:17:24.999Z</time></trkpt><trkpt lat="44.026360025535766" lon="11.785193527344193"><ele>298.2</ele><time>2026-04-05T18:17:26.999Z</time></trkpt><trkpt lat="44.026427960194816" lon="11.785168062668665"><ele>298.4</ele><time>2026-04-05T18:17:27.999Z</time></trkpt><trkpt lat="44.02651049993019" lon="11.785133953270043"><ele>298.59999999999997</ele><time>2026-04-05T18:17:28.999Z</time></trkpt><trkpt lat="44.026604485423015" lon="11.785100156868"><ele>298.8</ele><time>2026-04-05T18:17:29.999Z</time></trkpt><trkpt lat="44.02670626286576" lon="11.78506060566472"><ele>299.0</ele><time>2026-04-05T18:17:30.999Z</time></trkpt><trkpt lat="44.0268134057756" lon="11.78502316287645"><ele>299.0</ele><time>2026-04-05T18:17:31.999Z</time></trkpt><trkpt lat="44.02692928651147" lon="11.784986928657398"><ele>299.0</ele><time>2026-04-05T18:17:32.999Z</time></trkpt><trkpt lat="44.02704303163432" lon="11.784943046873117"><ele>299.0</ele><time>2026-04-05T18:17:33.999Z</time></trkpt><trkpt lat="44.02715988337534" lon="11.784901248364605"><ele>299.0</ele><time>2026-04-05T18:17:34.999Z</time></trkpt><trkpt lat="44.027276176534315" lon="11.784855777496832"><ele>299.0</ele><time>2026-04-05T18:17:35.999Z</time></trkpt><trkpt lat="44.02738702734699" lon="11.784807359199428"><ele>299.0</ele><time>2026-04-05T18:17:36.999Z</time></trkpt><trkpt lat="44.02750324433374" lon="11.784765402637902"><ele>299.0</ele><time>2026-04-05T18:17:37.999Z</time></trkpt><trkpt lat="44.02762822538469" lon="11.78475932536898"><ele>299.0</ele><time>2026-04-05T18:17:38.999Z</time></trkpt><trkpt lat="44.0277475746554" lon="11.784724608860133"><ele>298.25</ele><time>2026-04-05T18:17:39.999Z</time></trkpt><trkpt lat="44.02786723298324" lon="11.78469659691349"><ele>297.5</ele><time>2026-04-05T18:17:40.999Z</time></trkpt><trkpt lat="44.027988059126514" lon="11.784677827539776"><ele>296.75</ele><time>2026-04-05T18:17:41.999Z</time></trkpt><trkpt lat="44.02810335245546" lon="11.784674074578263"><ele>296.0</ele><time>2026-04-05T18:17:42.999Z</time></trkpt><trkpt lat="44.02822069667332" lon="11.784687350037045"><ele>294.75</ele><time>2026-04-05T18:17:43.999Z</time></trkpt><trkpt lat="44.02834047469975" lon="11.784714694206018"><ele>293.5</ele><time>2026-04-05T18:17:44.999Z</time></trkpt><trkpt lat="44.028466136718755" lon="11.784733233136167"><ele>292.25</ele><time>2026-04-05T18:17:45.999Z</time></trkpt><trkpt lat="44.02858071430717" lon="11.784795259598695"><ele>291.0</ele><time>2026-04-05T18:17:46.999Z</time></trkpt><trkpt lat="44.02869682524305" lon="11.78484770978193"><ele>291.0</ele><time>2026-04-05T18:17:47.999Z</time></trkpt><trkpt lat="44.028810897982055" lon="11.784902095231342"><ele>291.0</ele><time>2026-04-05T18:17:48.999Z</time></trkpt><trkpt lat="44.02891469010481" lon="11.784989036331872"><ele>291.0</ele><time>2026-04-05T18:17:49.999Z</time></trkpt><trkpt lat="44.029023123329715" lon="11.785040840258754"><ele>291.0</ele><time>2026-04-05T18:17:50.999Z</time></trkpt><trkpt lat="44.02913358151506" lon="11.785093060949475"><ele>292.0</ele><time>2026-04-05T18:17:51.999Z</time></trkpt><trkpt lat="44.02925027367313" lon="11.7851482288556"><ele>293.0</ele><time>2026-04-05T18:17:52.999Z</time></trkpt><trkpt lat="44.02936630357235" lon="11.785181374379118"><ele>294.0</ele><time>2026-04-05T18:17:53.999Z</time></trkpt><trkpt lat="44.02946518503774" lon="11.78523996559869"><ele>295.0</ele><time>2026-04-05T18:17:54.999Z</time></trkpt><trkpt lat="44.029553767756674" lon="11.78528267645878"><ele>296.0</ele><time>2026-04-05T18:17:55.999Z</time></trkpt><trkpt lat="44.029622706222206" lon="11.785310805999345"><ele>293.6</ele><time>2026-04-05T18:17:56.999Z</time></trkpt><trkpt lat="44.02970667392671" lon="11.785355124715258"><ele>291.20000000000005</ele><time>2026-04-05T18:17:58.999Z</time></trkpt><trkpt lat="44.02978707070933" lon="11.785446359898991"><ele>288.79999999999995</ele><time>2026-04-05T18:19:21.999Z</time></trkpt><trkpt lat="44.02985429974515" lon="11.785492601220957"><ele>286.4</ele><time>2026-04-05T18:19:22.999Z</time></trkpt><trkpt lat="44.029895565021945" lon="11.785590547632308"><ele>284.0</ele><time>2026-04-05T18:19:23.999Z</time></trkpt><trkpt lat="44.029955378045926" lon="11.785762653139308"><ele>284.8</ele><time>2026-04-05T18:19:25.999Z</time></trkpt><trkpt lat="44.02999097075082" lon="11.785877875550113"><ele>285.59999999999997</ele><time>2026-04-05T18:19:26.999Z</time></trkpt><trkpt lat="44.03002402031099" lon="11.786001462688933"><ele>286.4</ele><time>2026-04-05T18:19:27.999Z</time></trkpt><trkpt lat="44.03004953764729" lon="11.786133402961806"><ele>287.2</ele><time>2026-04-05T18:19:28.999Z</time></trkpt><trkpt lat="44.0300705468949" lon="11.786273247739944"><ele>288.0</ele><time>2026-04-05T18:19:29.999Z</time></trkpt><trkpt lat="44.03008845735575" lon="11.786418770564236"><ele>288.0</ele><time>2026-04-05T18:19:30.999Z</time></trkpt><trkpt lat="44.03010556900599" lon="11.786570693492827"><ele>288.0</ele><time>2026-04-05T18:19:31.999Z</time></trkpt><trkpt lat="44.03012224637283" lon="11.786710183287571"><ele>288.0</ele><time>2026-04-05T18:19:32.999Z</time></trkpt><trkpt lat="44.03013881599023" lon="11.786837177486941"><ele>288.0</ele><time>2026-04-05T18:19:33.999Z</time></trkpt><trkpt lat="44.030157098196284" lon="11.78695797291601"><ele>288.0</ele><time>2026-04-05T18:19:34.999Z</time></trkpt><trkpt lat="44.030174486166885" lon="11.787066932587084"><ele>287.8333333333333</ele><time>2026-04-05T18:19:35.999Z</time></trkpt><trkpt lat="44.03019144708322" lon="11.787173093118723"><ele>287.6666666666667</ele><time>2026-04-05T18:19:36.999Z</time></trkpt><trkpt lat="44.03020934661486" lon="11.787282479095989"><ele>287.5</ele><time>2026-04-05T18:19:37.999Z</time></trkpt><trkpt lat="44.030226182834284" lon="11.787394062607289"><ele>287.33333333333337</ele><time>2026-04-05T18:19:38.999Z</time></trkpt><trkpt lat="44.030242390828874" lon="11.787510551180155"><ele>287.1666666666667</ele><time>2026-04-05T18:19:39.999Z</time></trkpt><trkpt lat="44.030257352381824" lon="11.7876307706907"><ele>287.0</ele><time>2026-04-05T18:19:40.999Z</time></trkpt><trkpt lat="44.03027109572383" lon="11.787757560252974"><ele>287.0</ele><time>2026-04-05T18:19:41.999Z</time></trkpt><trkpt lat="44.03028429296111" lon="11.787884821532174"><ele>287.0</ele><time>2026-04-05T18:19:42.999Z</time></trkpt><trkpt lat="44.03029961833406" lon="11.78803260466203"><ele>287.0</ele><time>2026-04-05T18:19:43.999Z</time></trkpt><trkpt lat="44.030318975741515" lon="11.788209075605923"><ele>287.0</ele><time>2026-04-05T18:19:44.999Z</time></trkpt><trkpt lat="44.030355370153075" lon="11.788381918299187"><ele>286.25</ele><time>2026-04-05T18:19:45.999Z</time></trkpt><trkpt lat="44.03036200444278" lon="11.788566704581847"><ele>285.5</ele><time>2026-04-05T18:19:46.999Z</time></trkpt><trkpt lat="44.030386520286015" lon="11.788739797029185"><ele>284.75</ele><time>2026-04-05T18:19:47.999Z</time></trkpt><trkpt lat="44.03041561946554" lon="11.788913675313385"><ele>284.0</ele><time>2026-04-05T18:19:48.999Z</time></trkpt><trkpt lat="44.030445336444124" lon="11.789076460560064"><ele>284.0</ele><time>2026-04-05T18:19:49.999Z</time></trkpt><trkpt lat="44.03052642146094" lon="11.789229650482785"><ele>284.0</ele><time>2026-04-05T18:19:50.999Z</time></trkpt><trkpt lat="44.03059409408431" lon="11.789381983019819"><ele>284.0</ele><time>2026-04-05T18:19:51.999Z</time></trkpt><trkpt lat="44.03069170123478" lon="11.789492675740426"><ele>284.0</ele><time>2026-04-05T18:19:52.999Z</time></trkpt><trkpt lat="44.0308042133057" lon="11.78955002572493"><ele>284.25</ele><time>2026-04-05T18:19:53.999Z</time></trkpt><trkpt lat="44.03092513790209" lon="11.789537330716625"><ele>284.5</ele><time>2026-04-05T18:19:54.999Z</time></trkpt><trkpt lat="44.031037201628806" lon="11.78951531449334"><ele>284.75</ele><time>2026-04-05T18:19:55.999Z</time></trkpt><trkpt lat="44.031148753127376" lon="11.78949259433315"><ele>285.0</ele><time>2026-04-05T18:19:56.999Z</time></trkpt><trkpt lat="44.031268672669974" lon="11.789490986711613"><ele>285.0</ele><time>2026-04-05T18:19:57.999Z</time></trkpt><trkpt lat="44.031373498696254" lon="11.78955448891576"><ele>285.0</ele><time>2026-04-05T18:19:58.999Z</time></trkpt><trkpt lat="44.031476668261625" lon="11.789632503537279"><ele>285.0</ele><time>2026-04-05T18:19:59.999Z</time></trkpt><trkpt lat="44.031538641457075" lon="11.789757910663477"><ele>285.0</ele><time>2026-04-05T18:20:00.999Z</time></trkpt><trkpt lat="44.03152831574206" lon="11.789906644555288"><ele>285.0</ele><time>2026-04-05T18:20:01.999Z</time></trkpt><trkpt lat="44.03153367559688" lon="11.790069298808755"><ele>282.25</ele><time>2026-04-05T18:20:02.999Z</time></trkpt><trkpt lat="44.03151754226156" lon="11.790243276988342"><ele>279.5</ele><time>2026-04-05T18:20:03.999Z</time></trkpt><trkpt lat="44.031508219788265" lon="11.790423826405734"><ele>276.75</ele><time>2026-04-05T18:20:04.999Z</time></trkpt><trkpt lat="44.031514273750716" lon="11.790615839444722"><ele>274.0</ele><time>2026-04-05T18:20:05.999Z</time></trkpt><trkpt lat="44.03152481616697" lon="11.790817950831595"><ele>274.0</ele><time>2026-04-05T18:20:06.999Z</time></trkpt><trkpt lat="44.03158002051689" lon="11.79099928504457"><ele>274.0</ele><time>2026-04-05T18:20:07.999Z</time></trkpt><trkpt lat="44.03164642667481" lon="11.791160516892793"><ele>274.0</ele><time>2026-04-05T18:20:08.999Z</time></trkpt><trkpt lat="44.031724660874275" lon="11.79132026981826"><ele>274.0</ele><time>2026-04-05T18:20:09.999Z</time></trkpt><trkpt lat="44.03179216051149" lon="11.791456927592765"><ele>277.0</ele><time>2026-04-05T18:20:10.999Z</time></trkpt><trkpt lat="44.03182814116616" lon="11.791557356696062"><ele>280.0</ele><time>2026-04-05T18:20:11.999Z</time></trkpt><trkpt lat="44.031884363462325" lon="11.791871189775923"><ele>283.0</ele><time>2026-04-05T18:20:12.999Z</time></trkpt><trkpt lat="44.031852115587114" lon="11.792055981504538"><ele>283.0</ele><time>2026-04-05T18:20:14Z</time></trkpt><trkpt lat="44.03180477423467" lon="11.792231956048276"><ele>283.0</ele><time>2026-04-05T18:20:15Z</time></trkpt><trkpt lat="44.03178885851672" lon="11.79240455148714"><ele>283.0</ele><time>2026-04-05T18:20:16Z</time></trkpt><trkpt lat="44.031824830041806" lon="11.792566130759235"><ele>283.0</ele><time>2026-04-05T18:20:17Z</time></trkpt><trkpt lat="44.03187410322027" lon="11.792713413736076"><ele>281.75</ele><time>2026-04-05T18:20:18Z</time></trkpt><trkpt lat="44.03195200418208" lon="11.792845351285994"><ele>280.5</ele><time>2026-04-05T18:20:19Z</time></trkpt><trkpt lat="44.03204754203753" lon="11.792975436027248"><ele>279.25</ele><time>2026-04-05T18:20:20Z</time></trkpt><trkpt lat="44.0321389511171" lon="11.793116380244474"><ele>278.0</ele><time>2026-04-05T18:20:21Z</time></trkpt><trkpt lat="44.032226421905534" lon="11.793265527599848"><ele>278.0</ele><time>2026-04-05T18:20:22Z</time></trkpt><trkpt lat="44.032309525093" lon="11.793410396771202"><ele>278.0</ele><time>2026-04-05T18:20:23Z</time></trkpt><trkpt lat="44.03239727624081" lon="11.793559372074952"><ele>278.0</ele><time>2026-04-05T18:20:24Z</time></trkpt><trkpt lat="44.03247297368049" lon="11.79370173678494"><ele>278.0</ele><time>2026-04-05T18:20:25Z</time></trkpt><trkpt lat="44.032520794417316" lon="11.793855233676007"><ele>278.75</ele><time>2026-04-05T18:20:26Z</time></trkpt><trkpt lat="44.03254521536495" lon="11.794008944294124"><ele>279.5</ele><time>2026-04-05T18:20:27Z</time></trkpt><trkpt lat="44.03256520255373" lon="11.794175510089593"><ele>280.25</ele><time>2026-04-05T18:20:28Z</time></trkpt><trkpt lat="44.032584496446724" lon="11.794350498549791"><ele>281.0</ele><time>2026-04-05T18:20:29Z</time></trkpt><trkpt lat="44.03259984047145" lon="11.794526736901595"><ele>281.0</ele><time>2026-04-05T18:20:30Z</time></trkpt><trkpt lat="44.03261680587232" lon="11.794705058610015"><ele>281.0</ele><time>2026-04-05T18:20:31Z</time></trkpt><trkpt lat="44.032633754579706" lon="11.794883770073247"><ele>281.0</ele><time>2026-04-05T18:20:32Z</time></trkpt><trkpt lat="44.03265022143821" lon="11.795062235385064"><ele>281.0</ele><time>2026-04-05T18:20:33Z</time></trkpt><trkpt lat="44.032664782023524" lon="11.795243693201593"><ele>280.5</ele><time>2026-04-05T18:20:34Z</time></trkpt><trkpt lat="44.032682607593266" lon="11.795423673418396"><ele>280.0</ele><time>2026-04-05T18:20:35Z</time></trkpt><trkpt lat="44.03272353155524" lon="11.795601116096591"><ele>279.5</ele><time>2026-04-05T18:20:36Z</time></trkpt><trkpt lat="44.03276073875507" lon="11.79577775354731"><ele>279.0</ele><time>2026-04-05T18:20:37Z</time></trkpt><trkpt lat="44.03280908456645" lon="11.79595110226743"><ele>277.75</ele><time>2026-04-05T18:20:38Z</time></trkpt><trkpt lat="44.03286895053158" lon="11.796117901381438"><ele>276.5</ele><time>2026-04-05T18:20:39Z</time></trkpt><trkpt lat="44.03294543928491" lon="11.796283309412742"><ele>275.25</ele><time>2026-04-05T18:20:40Z</time></trkpt><trkpt lat="44.0330365649324" lon="11.796444071202508"><ele>274.0</ele><time>2026-04-05T18:20:41Z</time></trkpt><trkpt lat="44.033125308107905" lon="11.796595044454147"><ele>274.0</ele><time>2026-04-05T18:20:42Z</time></trkpt><trkpt lat="44.0332082304463" lon="11.796736252463532"><ele>274.0</ele><time>2026-04-05T18:20:43Z</time></trkpt><trkpt lat="44.03329362408071" lon="11.796879120890422"><ele>274.0</ele><time>2026-04-05T18:20:44Z</time></trkpt><trkpt lat="44.03337675031107" lon="11.797014489665349"><ele>274.0</ele><time>2026-04-05T18:20:45Z</time></trkpt><trkpt lat="44.03347006431811" lon="11.797142216804618"><ele>275.25</ele><time>2026-04-05T18:20:46Z</time></trkpt><trkpt lat="44.03357245289336" lon="11.797259707369635"><ele>276.5</ele><time>2026-04-05T18:20:47Z</time></trkpt><trkpt lat="44.03368472595883" lon="11.79736819269928"><ele>277.75</ele><time>2026-04-05T18:20:48Z</time></trkpt><trkpt lat="44.03379463485984" lon="11.7974873566582"><ele>279.0</ele><time>2026-04-05T18:20:49Z</time></trkpt><trkpt lat="44.0339123113602" lon="11.797594889798015"><ele>281.0</ele><time>2026-04-05T18:20:50Z</time></trkpt><trkpt lat="44.03402718866626" lon="11.797706808273327"><ele>283.0</ele><time>2026-04-05T18:20:51Z</time></trkpt><trkpt lat="44.03413272272739" lon="11.797846543503715"><ele>285.0</ele><time>2026-04-05T18:20:52Z</time></trkpt><trkpt lat="44.0342016971213" lon="11.798016729782557"><ele>287.0</ele><time>2026-04-05T18:20:53Z</time></trkpt><trkpt lat="44.034276206584266" lon="11.798209324833522"><ele>287.0</ele><time>2026-04-05T18:20:54Z</time></trkpt><trkpt lat="44.03434818756121" lon="11.798397775098483"><ele>287.0</ele><time>2026-04-05T18:20:55Z</time></trkpt><trkpt lat="44.034417012615336" lon="11.798578178836598"><ele>287.0</ele><time>2026-04-05T18:20:56Z</time></trkpt><trkpt lat="44.034493640878914" lon="11.798757363358996"><ele>285.5</ele><time>2026-04-05T18:20:57Z</time></trkpt><trkpt lat="44.0345563413132" lon="11.79893723057199"><ele>284.0</ele><time>2026-04-05T18:20:58Z</time></trkpt><trkpt lat="44.03457191439075" lon="11.799130993590767"><ele>282.5</ele><time>2026-04-05T18:20:59Z</time></trkpt><trkpt lat="44.034589129751" lon="11.799341908793975"><ele>281.0</ele><time>2026-04-05T18:21:00Z</time></trkpt><trkpt lat="44.034599496550044" lon="11.799563477391123"><ele>279.25</ele><time>2026-04-05T18:21:01Z</time></trkpt><trkpt lat="44.034616797481526" lon="11.799770327530227"><ele>277.5</ele><time>2026-04-05T18:21:02Z</time></trkpt><trkpt lat="44.03461100211815" lon="11.799978296567081"><ele>275.75</ele><time>2026-04-05T18:21:03Z</time></trkpt><trkpt lat="44.03461256130319" lon="11.800178414613946"><ele>274.0</ele><time>2026-04-05T18:21:04Z</time></trkpt><trkpt lat="44.034629137473594" lon="11.800362956163712"><ele>273.25</ele><time>2026-04-05T18:21:05Z</time></trkpt><trkpt lat="44.03467641930828" lon="11.800545452959694"><ele>272.5</ele><time>2026-04-05T18:21:06Z</time></trkpt><trkpt lat="44.03476142434499" lon="11.800702925742144"><ele>271.75</ele><time>2026-04-05T18:21:07Z</time></trkpt><trkpt lat="44.03486911030543" lon="11.800847617397991"><ele>271.0</ele><time>2026-04-05T18:21:08Z</time></trkpt><trkpt lat="44.035004315904786" lon="11.800975316071655"><ele>271.3333333333333</ele><time>2026-04-05T18:21:09Z</time></trkpt><trkpt lat="44.03514634627466" lon="11.801100623005292"><ele>271.6666666666667</ele><time>2026-04-05T18:21:10Z</time></trkpt><trkpt lat="44.035276488017054" lon="11.801246573699427"><ele>272.0</ele><time>2026-04-05T18:21:11Z</time></trkpt><trkpt lat="44.035413810988" lon="11.801383909984112"><ele>272.0</ele><time>2026-04-05T18:21:12Z</time></trkpt><trkpt lat="44.0355558514286" lon="11.801525480094467"><ele>272.0</ele><time>2026-04-05T18:21:13Z</time></trkpt><trkpt lat="44.03570522314091" lon="11.801665627680007"><ele>272.0</ele><time>2026-04-05T18:21:14Z</time></trkpt><trkpt lat="44.03585562491559" lon="11.801792559017096"><ele>270.33333333333337</ele><time>2026-04-05T18:21:14.999Z</time></trkpt><trkpt lat="44.036009841743244" lon="11.801919804547104"><ele>268.6666666666667</ele><time>2026-04-05T18:21:15.999Z</time></trkpt><trkpt lat="44.036174615579306" lon="11.802058341010834"><ele>267.0</ele><time>2026-04-05T18:21:16.999Z</time></trkpt><trkpt lat="44.03633554938723" lon="11.802196507172422"><ele>267.0</ele><time>2026-04-05T18:21:17.999Z</time></trkpt><trkpt lat="44.03649426671496" lon="11.802333088188758"><ele>267.0</ele><time>2026-04-05T18:21:18.999Z</time></trkpt><trkpt lat="44.03665232311893" lon="11.802466362180754"><ele>267.0</ele><time>2026-04-05T18:21:19.999Z</time></trkpt><trkpt lat="44.03683459472193" lon="11.802595494617938"><ele>265.0</ele><time>2026-04-05T18:21:20.999Z</time></trkpt><trkpt lat="44.03703520374493" lon="11.802836482149475"><ele>263.0</ele><time>2026-04-05T18:21:21.999Z</time></trkpt><trkpt lat="44.03713889690097" lon="11.802876909333179"><ele>261.0</ele><time>2026-04-05T18:21:22.999Z</time></trkpt><trkpt lat="44.0373038840532" lon="11.803016377748909"><ele>263.6666666666667</ele><time>2026-04-05T18:21:23.999Z</time></trkpt><trkpt lat="44.03747459671931" lon="11.803160780585355"><ele>266.33333333333337</ele><time>2026-04-05T18:21:24.999Z</time></trkpt><trkpt lat="44.037648341764104" lon="11.803308869495961"><ele>269.0</ele><time>2026-04-05T18:21:25.999Z</time></trkpt><trkpt lat="44.03782244562113" lon="11.803454063483288"><ele>267.33333333333337</ele><time>2026-04-05T18:21:26.999Z</time></trkpt><trkpt lat="44.038003234878495" lon="11.803590189634553"><ele>265.6666666666667</ele><time>2026-04-05T18:21:27.999Z</time></trkpt><trkpt lat="44.038182513373684" lon="11.803711950600754"><ele>264.0</ele><time>2026-04-05T18:21:28.999Z</time></trkpt><trkpt lat="44.03836167842418" lon="11.803828382217535"><ele>264.0</ele><time>2026-04-05T18:21:29.999Z</time></trkpt><trkpt lat="44.03853029919497" lon="11.803937961708469"><ele>264.0</ele><time>2026-04-05T18:21:30.999Z</time></trkpt><trkpt lat="44.03869743450378" lon="11.804049413393217"><ele>264.0</ele><time>2026-04-05T18:21:31.999Z</time></trkpt><trkpt lat="44.03884756370181" lon="11.804158935778696"><ele>264.0</ele><time>2026-04-05T18:21:32.999Z</time></trkpt><trkpt lat="44.03897569414307" lon="11.804282623931467"><ele>264.0</ele><time>2026-04-05T18:21:33.999Z</time></trkpt><trkpt lat="44.039078775762995" lon="11.804414584915152"><ele>264.0</ele><time>2026-04-05T18:21:34.999Z</time></trkpt><trkpt lat="44.03916693120114" lon="11.804561792735559"><ele>264.0</ele><time>2026-04-05T18:21:35.999Z</time></trkpt><trkpt lat="44.03923226731869" lon="11.804710260707653"><ele>265.2</ele><time>2026-04-05T18:21:36.999Z</time></trkpt><trkpt lat="44.039274566183835" lon="11.804841537648638"><ele>266.4</ele><time>2026-04-05T18:21:37.999Z</time></trkpt><trkpt lat="44.039256250975534" lon="11.804957595741602"><ele>267.6</ele><time>2026-04-05T18:21:38.999Z</time></trkpt><trkpt lat="44.03921363875892" lon="11.805036633576108"><ele>268.8</ele><time>2026-04-05T18:21:39.999Z</time></trkpt><trkpt lat="44.0391600668147" lon="11.805137502032164"><ele>270.0</ele><time>2026-04-05T18:21:40.999Z</time></trkpt><trkpt lat="44.03909299801892" lon="11.805260068118036"><ele>265.5</ele><time>2026-04-05T18:21:41.999Z</time></trkpt><trkpt lat="44.039033302624965" lon="11.805396569106835"><ele>261.0</ele><time>2026-04-05T18:21:42.999Z</time></trkpt><trkpt lat="44.038990107490605" lon="11.80555589169881"><ele>256.5</ele><time>2026-04-05T18:21:43.999Z</time></trkpt><trkpt lat="44.038978306152785" lon="11.805728623914604"><ele>252.0</ele><time>2026-04-05T18:21:44.999Z</time></trkpt><trkpt lat="44.03897549749763" lon="11.80589659852707"><ele>251.75</ele><time>2026-04-05T18:21:45.999Z</time></trkpt><trkpt lat="44.03900750481221" lon="11.806034589145714"><ele>251.5</ele><time>2026-04-05T18:21:46.999Z</time></trkpt><trkpt lat="44.03907144357131" lon="11.806160333219593"><ele>251.25</ele><time>2026-04-05T18:21:47.999Z</time></trkpt><trkpt lat="44.03917165159657" lon="11.806263812579218"><ele>251.0</ele><time>2026-04-05T18:21:48.999Z</time></trkpt><trkpt lat="44.03926160399689" lon="11.8063634496924"><ele>253.25</ele><time>2026-04-05T18:21:49.999Z</time></trkpt><trkpt lat="44.03931776941211" lon="11.806507532233374"><ele>255.5</ele><time>2026-04-05T18:21:50.999Z</time></trkpt><trkpt lat="44.03936230338095" lon="11.8066602974858"><ele>257.75</ele><time>2026-04-05T18:21:51.999Z</time></trkpt><trkpt lat="44.03938182435229" lon="11.806829779498166"><ele>260.0</ele><time>2026-04-05T18:21:52.999Z</time></trkpt><trkpt lat="44.03939937004028" lon="11.807007797546458"><ele>260.0</ele><time>2026-04-05T18:21:53.999Z</time></trkpt><trkpt lat="44.039432380413174" lon="11.80718443962867"><ele>260.0</ele><time>2026-04-05T18:21:54.999Z</time></trkpt><trkpt lat="44.039471486609905" lon="11.80735831197029"><ele>260.0</ele><time>2026-04-05T18:21:55.999Z</time></trkpt><trkpt lat="44.039546394621595" lon="11.807530398618457"><ele>260.0</ele><time>2026-04-05T18:21:56.999Z</time></trkpt><trkpt lat="44.039639503880046" lon="11.807699467674903"><ele>258.33333333333337</ele><time>2026-04-05T18:21:57.999Z</time></trkpt><trkpt lat="44.03974972868868" lon="11.807864370934212"><ele>256.6666666666667</ele><time>2026-04-05T18:21:58.999Z</time></trkpt><trkpt lat="44.039861396400156" lon="11.808046213822687"><ele>255.0</ele><time>2026-04-05T18:21:59.999Z</time></trkpt><trkpt lat="44.039987188145425" lon="11.808206435237782"><ele>256.0</ele><time>2026-04-05T18:22:00.999Z</time></trkpt><trkpt lat="44.04011594966922" lon="11.80835564748389"><ele>257.0</ele><time>2026-04-05T18:22:01.999Z</time></trkpt><trkpt lat="44.04024733188509" lon="11.808505136920122"><ele>258.0</ele><time>2026-04-05T18:22:02.999Z</time></trkpt><trkpt lat="44.04038784280467" lon="11.808666088226921"><ele>258.0</ele><time>2026-04-05T18:22:03.999Z</time></trkpt><trkpt lat="44.04052333178963" lon="11.80882449167253"><ele>258.0</ele><time>2026-04-05T18:22:04.999Z</time></trkpt><trkpt lat="44.04065906623723" lon="11.80898655650853"><ele>258.0</ele><time>2026-04-05T18:22:05.999Z</time></trkpt><trkpt lat="44.040793640263686" lon="11.809145107418743"><ele>256.6666666666667</ele><time>2026-04-05T18:22:06.999Z</time></trkpt><trkpt lat="44.040929636999834" lon="11.80930605866802"><ele>255.33333333333334</ele><time>2026-04-05T18:22:07.999Z</time></trkpt><trkpt lat="44.041064651780474" lon="11.80946602567989"><ele>254.0</ele><time>2026-04-05T18:22:08.999Z</time></trkpt><trkpt lat="44.041207974365484" lon="11.809590821320088"><ele>254.0</ele><time>2026-04-05T18:22:09.999Z</time></trkpt><trkpt lat="44.04133992215874" lon="11.809716456519146"><ele>254.0</ele><time>2026-04-05T18:22:10.999Z</time></trkpt><trkpt lat="44.041481871017076" lon="11.809800524948084"><ele>254.0</ele><time>2026-04-05T18:22:11.999Z</time></trkpt><trkpt lat="44.041630813017335" lon="11.809835993712483"><ele>256.0</ele><time>2026-04-05T18:22:12.999Z</time></trkpt><trkpt lat="44.04177192558429" lon="11.809894745313283"><ele>258.0</ele><time>2026-04-05T18:22:13.999Z</time></trkpt><trkpt lat="44.04189983210283" lon="11.809947336125742"><ele>260.0</ele><time>2026-04-05T18:22:14.999Z</time></trkpt><trkpt lat="44.042004758754445" lon="11.810029418446254"><ele>262.0</ele><time>2026-04-05T18:22:15.999Z</time></trkpt><trkpt lat="44.04209669966407" lon="11.810139045898937"><ele>259.0</ele><time>2026-04-05T18:22:16.999Z</time></trkpt><trkpt lat="44.042193898235105" lon="11.81026672112491"><ele>256.0</ele><time>2026-04-05T18:22:17.999Z</time></trkpt><trkpt lat="44.042293061377116" lon="11.810415549194374"><ele>253.0</ele><time>2026-04-05T18:22:18.999Z</time></trkpt><trkpt lat="44.04238436951804" lon="11.810584015580393"><ele>250.0</ele><time>2026-04-05T18:22:20Z</time></trkpt><trkpt lat="44.04246017423052" lon="11.810771238015018"><ele>252.25</ele><time>2026-04-05T18:22:21Z</time></trkpt><trkpt lat="44.042528980353865" lon="11.810961573841022"><ele>254.5</ele><time>2026-04-05T18:22:22Z</time></trkpt><trkpt lat="44.04258939057165" lon="11.811151797664614"><ele>256.75</ele><time>2026-04-05T18:22:23Z</time></trkpt><trkpt lat="44.04262191493178" lon="11.811341065645875"><ele>259.0</ele><time>2026-04-05T18:22:24Z</time></trkpt><trkpt lat="44.042626478588915" lon="11.811513928752964"><ele>259.0</ele><time>2026-04-05T18:22:25Z</time></trkpt><trkpt lat="44.04261851278124" lon="11.811689845838554"><ele>259.0</ele><time>2026-04-05T18:22:26Z</time></trkpt><trkpt lat="44.04263238131658" lon="11.811858029586611"><ele>259.0</ele><time>2026-04-05T18:22:27Z</time></trkpt><trkpt lat="44.04263284018295" lon="11.812011026645987"><ele>259.0</ele><time>2026-04-05T18:22:28Z</time></trkpt><trkpt lat="44.04266151352252" lon="11.812168485096295"><ele>257.5</ele><time>2026-04-05T18:22:29Z</time></trkpt><trkpt lat="44.04271150006995" lon="11.81232808678619"><ele>256.0</ele><time>2026-04-05T18:22:30Z</time></trkpt><trkpt lat="44.04279004504072" lon="11.812465970109633"><ele>254.5</ele><time>2026-04-05T18:22:31Z</time></trkpt><trkpt lat="44.04289227453783" lon="11.812589664176798"><ele>253.0</ele><time>2026-04-05T18:22:32Z</time></trkpt><trkpt lat="44.04300882343408" lon="11.81271525508754"><ele>253.33333333333331</ele><time>2026-04-05T18:22:33Z</time></trkpt><trkpt lat="44.0431297459684" lon="11.812847388925118"><ele>253.66666666666669</ele><time>2026-04-05T18:22:34Z</time></trkpt><trkpt lat="44.04324638584576" lon="11.813003065655069"><ele>254.0</ele><time>2026-04-05T18:22:35Z</time></trkpt><trkpt lat="44.04338299315459" lon="11.813153476472564"><ele>254.0</ele><time>2026-04-05T18:22:36Z</time></trkpt><trkpt lat="44.04353036480426" lon="11.813315739165835"><ele>254.0</ele><time>2026-04-05T18:22:37Z</time></trkpt><trkpt lat="44.043673307904044" lon="11.813469517909265"><ele>254.0</ele><time>2026-04-05T18:22:38Z</time></trkpt><trkpt lat="44.04382834028513" lon="11.813627213662926"><ele>253.0</ele><time>2026-04-05T18:22:39Z</time></trkpt><trkpt lat="44.04397281920317" lon="11.813774784582323"><ele>252.0</ele><time>2026-04-05T18:22:40Z</time></trkpt><trkpt lat="44.04411543655472" lon="11.81392293140597"><ele>251.0</ele><time>2026-04-05T18:22:41Z</time></trkpt><trkpt lat="44.04424811667712" lon="11.814070469875336"><ele>251.0</ele><time>2026-04-05T18:22:42Z</time></trkpt><trkpt lat="44.04436939484694" lon="11.814244105069427"><ele>251.0</ele><time>2026-04-05T18:22:43Z</time></trkpt><trkpt lat="44.0444693854494" lon="11.814416804396934"><ele>251.0</ele><time>2026-04-05T18:22:44Z</time></trkpt><trkpt lat="44.04454395740439" lon="11.814609331636367"><ele>249.66666666666669</ele><time>2026-04-05T18:22:45Z</time></trkpt><trkpt lat="44.04459104180073" lon="11.81479811046467"><ele>248.33333333333331</ele><time>2026-04-05T18:22:46Z</time></trkpt><trkpt lat="44.044646926831405" lon="11.815024119545187"><ele>247.0</ele><time>2026-04-05T18:22:47Z</time></trkpt><trkpt lat="44.04471945495302" lon="11.815202747109513"><ele>247.0</ele><time>2026-04-05T18:22:48Z</time></trkpt><trkpt lat="44.044823211743925" lon="11.815394528935032"><ele>247.0</ele><time>2026-04-05T18:22:49Z</time></trkpt><trkpt lat="44.04493558158969" lon="11.815601826513038"><ele>247.0</ele><time>2026-04-05T18:22:50Z</time></trkpt><trkpt lat="44.04505491969579" lon="11.815796738475072"><ele>243.66666666666666</ele><time>2026-04-05T18:22:51Z</time></trkpt><trkpt lat="44.04516040776586" lon="11.815992476738382"><ele>240.33333333333331</ele><time>2026-04-05T18:22:52Z</time></trkpt><trkpt lat="44.04525585339377" lon="11.816196925777563"><ele>237.0</ele><time>2026-04-05T18:22:53Z</time></trkpt><trkpt lat="44.04536400309629" lon="11.816402268680996"><ele>237.0</ele><time>2026-04-05T18:22:54Z</time></trkpt><trkpt lat="44.04548116381721" lon="11.816603764832783"><ele>237.0</ele><time>2026-04-05T18:22:55Z</time></trkpt><trkpt lat="44.04560625167786" lon="11.816792551785472"><ele>237.0</ele><time>2026-04-05T18:22:56Z</time></trkpt><trkpt lat="44.04572555995655" lon="11.816967205512638"><ele>237.66666666666669</ele><time>2026-04-05T18:22:57Z</time></trkpt><trkpt lat="44.04583826271594" lon="11.817138251520033"><ele>238.33333333333334</ele><time>2026-04-05T18:22:58Z</time></trkpt><trkpt lat="44.04592743021776" lon="11.817316705034715"><ele>239.0</ele><time>2026-04-05T18:22:59Z</time></trkpt><trkpt lat="44.045985311383546" lon="11.817516471288108"><ele>238.0</ele><time>2026-04-05T18:23:00Z</time></trkpt><trkpt lat="44.04603226799094" lon="11.817693000252431"><ele>237.0</ele><time>2026-04-05T18:23:01Z</time></trkpt><trkpt lat="44.0460898739499" lon="11.817847172717412"><ele>236.0</ele><time>2026-04-05T18:23:02Z</time></trkpt><trkpt lat="44.046178411003545" lon="11.817960228457352"><ele>235.0</ele><time>2026-04-05T18:23:03Z</time></trkpt><trkpt lat="44.0462811191185" lon="11.818055514528346"><ele>235.0</ele><time>2026-04-05T18:23:04Z</time></trkpt><trkpt lat="44.046408460831685" lon="11.818143945805092"><ele>235.0</ele><time>2026-04-05T18:23:05Z</time></trkpt><trkpt lat="44.04653090681462" lon="11.81825444549585"><ele>235.0</ele><time>2026-04-05T18:23:06Z</time></trkpt><trkpt lat="44.04665856487086" lon="11.818369780681852"><ele>235.0</ele><time>2026-04-05T18:23:07Z</time></trkpt><trkpt lat="44.04677517016052" lon="11.81850386393882"><ele>236.0</ele><time>2026-04-05T18:23:08Z</time></trkpt><trkpt lat="44.04688867294477" lon="11.81865826742318"><ele>237.0</ele><time>2026-04-05T18:23:09Z</time></trkpt><trkpt lat="44.04700860348872" lon="11.818830695207483"><ele>238.0</ele><time>2026-04-05T18:23:10Z</time></trkpt><trkpt lat="44.04712794867387" lon="11.819006017074582"><ele>238.0</ele><time>2026-04-05T18:23:11Z</time></trkpt><trkpt lat="44.04723831037797" lon="11.81918683591843"><ele>238.0</ele><time>2026-04-05T18:23:12Z</time></trkpt><trkpt lat="44.04733215609162" lon="11.819370303090624"><ele>238.0</ele><time>2026-04-05T18:23:13Z</time></trkpt><trkpt lat="44.04740578382165" lon="11.819572286461748"><ele>238.33333333333331</ele><time>2026-04-05T18:23:14Z</time></trkpt><trkpt lat="44.0474479095699" lon="11.819774264993782"><ele>238.66666666666669</ele><time>2026-04-05T18:23:15Z</time></trkpt><trkpt lat="44.0474662264639" lon="11.81996033970104"><ele>239.0</ele><time>2026-04-05T18:23:16Z</time></trkpt><trkpt lat="44.04747925451757" lon="11.820189735875056"><ele>239.33333333333334</ele><time>2026-04-05T18:23:17Z</time></trkpt><trkpt lat="44.04750228554534" lon="11.82043464187862"><ele>239.66666666666669</ele><time>2026-04-05T18:23:18Z</time></trkpt><trkpt lat="44.04748845009202" lon="11.820709323971274"><ele>240.0</ele><time>2026-04-05T18:23:18.999Z</time></trkpt><trkpt lat="44.047471487125584" lon="11.820833988886468"><ele>239.0</ele><time>2026-04-05T18:23:19.999Z</time></trkpt><trkpt lat="44.04745460830171" lon="11.821027765478364"><ele>238.0</ele><time>2026-04-05T18:23:20.999Z</time></trkpt><trkpt lat="44.04746067581272" lon="11.821253856251413"><ele>237.0</ele><time>2026-04-05T18:23:21.999Z</time></trkpt><trkpt lat="44.047501673639154" lon="11.821485049723691"><ele>237.0</ele><time>2026-04-05T18:23:22.999Z</time></trkpt><trkpt lat="44.04755375894455" lon="11.821715038149827"><ele>237.0</ele><time>2026-04-05T18:23:23.999Z</time></trkpt><trkpt lat="44.04761195627565" lon="11.821968493004197"><ele>237.0</ele><time>2026-04-05T18:23:24.999Z</time></trkpt><trkpt lat="44.04767760031144" lon="11.82223814884892"><ele>236.0</ele><time>2026-04-05T18:23:25.999Z</time></trkpt><trkpt lat="44.04775257900742" lon="11.822515540712713"><ele>235.0</ele><time>2026-04-05T18:23:26.999Z</time></trkpt><trkpt lat="44.047833595209454" lon="11.822788086297685"><ele>234.0</ele><time>2026-04-05T18:23:27.999Z</time></trkpt><trkpt lat="44.0479180961235" lon="11.823056717742862"><ele>233.33333333333331</ele><time>2026-04-05T18:23:28.999Z</time></trkpt><trkpt lat="44.04800459694079" lon="11.823321841817286"><ele>232.66666666666666</ele><time>2026-04-05T18:23:29.999Z</time></trkpt><trkpt lat="44.048093916518916" lon="11.823600914840853"><ele>232.0</ele><time>2026-04-05T18:23:30.999Z</time></trkpt><trkpt lat="44.04818183327367" lon="11.82388393534055"><ele>232.0</ele><time>2026-04-05T18:23:31.999Z</time></trkpt><trkpt lat="44.048271593205556" lon="11.8241735334868"><ele>232.0</ele><time>2026-04-05T18:23:32.999Z</time></trkpt><trkpt lat="44.04836122548859" lon="11.82446271966395"><ele>234.0</ele><time>2026-04-05T18:23:33.999Z</time></trkpt><trkpt lat="44.048451656406506" lon="11.824754482596274"><ele>236.0</ele><time>2026-04-05T18:23:34.999Z</time></trkpt><trkpt lat="44.04854194733444" lon="11.825043443325791"><ele>235.0</ele><time>2026-04-05T18:23:35.999Z</time></trkpt><trkpt lat="44.048635644122434" lon="11.825329418073927"><ele>234.0</ele><time>2026-04-05T18:23:36.999Z</time></trkpt><trkpt lat="44.04875789704248" lon="11.825594373070073"><ele>234.0</ele><time>2026-04-05T18:23:37.999Z</time></trkpt><trkpt lat="44.04887670873206" lon="11.82586634757106"><ele>234.0</ele><time>2026-04-05T18:23:38.999Z</time></trkpt><trkpt lat="44.0490070029898" lon="11.826131418025554"><ele>236.5</ele><time>2026-04-05T18:23:39.999Z</time></trkpt><trkpt lat="44.049136215187765" lon="11.826410091251184"><ele>239.0</ele><time>2026-04-05T18:23:40.999Z</time></trkpt><trkpt lat="44.049252388981024" lon="11.82669539694458"><ele>236.5</ele><time>2026-04-05T18:23:41.999Z</time></trkpt><trkpt lat="44.04933002420464" lon="11.827010350236742"><ele>234.0</ele><time>2026-04-05T18:23:42.999Z</time></trkpt><trkpt lat="44.04942953370584" lon="11.82729434944617"><ele>234.0</ele><time>2026-04-05T18:23:43.999Z</time></trkpt><trkpt lat="44.04952522598006" lon="11.827571837697597"><ele>234.0</ele><time>2026-04-05T18:23:44.999Z</time></trkpt><trkpt lat="44.049620090217786" lon="11.827843765867279"><ele>234.0</ele><time>2026-04-05T18:23:45.999Z</time></trkpt><trkpt lat="44.049720829096586" lon="11.82812740807283"><ele>231.5</ele><time>2026-04-05T18:23:46.999Z</time></trkpt><trkpt lat="44.049830886382196" lon="11.828409355829583"><ele>229.0</ele><time>2026-04-05T18:23:47.999Z</time></trkpt><trkpt lat="44.049953159884" lon="11.828684873343269"><ele>232.5</ele><time>2026-04-05T18:23:48.999Z</time></trkpt><trkpt lat="44.050083451727446" lon="11.828962325260504"><ele>236.0</ele><time>2026-04-05T18:23:49.999Z</time></trkpt><trkpt lat="44.050207852416705" lon="11.829228403227017"><ele>235.33333333333334</ele><time>2026-04-05T18:23:50.999Z</time></trkpt><trkpt lat="44.05032395064746" lon="11.82947672476603"><ele>234.66666666666669</ele><time>2026-04-05T18:23:51.999Z</time></trkpt><trkpt lat="44.0504340020989" lon="11.829718804128728"><ele>234.0</ele><time>2026-04-05T18:23:52.999Z</time></trkpt><trkpt lat="44.05053089234626" lon="11.8299667730859"><ele>234.33333333333331</ele><time>2026-04-05T18:23:53.999Z</time></trkpt><trkpt lat="44.05061804305878" lon="11.830222873237187"><ele>234.66666666666666</ele><time>2026-04-05T18:23:54.999Z</time></trkpt><trkpt lat="44.0507102185849" lon="11.83049373914747"><ele>235.0</ele><time>2026-04-05T18:23:55.999Z</time></trkpt><trkpt lat="44.05080255421176" lon="11.830765078643477"><ele>234.66666666666666</ele><time>2026-04-05T18:23:56.999Z</time></trkpt><trkpt lat="44.050909345571085" lon="11.831049126269273"><ele>234.33333333333331</ele><time>2026-04-05T18:23:57.999Z</time></trkpt><trkpt lat="44.05100083906308" lon="11.83131888440279"><ele>234.0</ele><time>2026-04-05T18:23:58.999Z</time></trkpt><trkpt lat="44.051094568414406" lon="11.831588898171244"><ele>232.33333333333331</ele><time>2026-04-05T18:23:59.999Z</time></trkpt><trkpt lat="44.051181038281435" lon="11.831853550355264"><ele>230.66666666666666</ele><time>2026-04-05T18:24:00.999Z</time></trkpt><trkpt lat="44.05126583600302" lon="11.832089825203875"><ele>229.0</ele><time>2026-04-05T18:24:01.999Z</time></trkpt><trkpt lat="44.05135732064724" lon="11.832306155573447"><ele>229.0</ele><time>2026-04-05T18:24:02.999Z</time></trkpt><trkpt lat="44.051483116557144" lon="11.832506034552102"><ele>229.0</ele><time>2026-04-05T18:24:03.999Z</time></trkpt><trkpt lat="44.05164275662945" lon="11.832684214874652"><ele>229.0</ele><time>2026-04-05T18:24:04.999Z</time></trkpt><trkpt lat="44.051811012079675" lon="11.832858964704958"><ele>228.33333333333331</ele><time>2026-04-05T18:24:05.999Z</time></trkpt><trkpt lat="44.05197591307264" lon="11.833043605998805"><ele>227.66666666666669</ele><time>2026-04-05T18:24:06.999Z</time></trkpt><trkpt lat="44.05212461988652" lon="11.833218320934671"><ele>227.0</ele><time>2026-04-05T18:24:07.999Z</time></trkpt><trkpt lat="44.05226336145416" lon="11.833382987700102"><ele>226.33333333333334</ele><time>2026-04-05T18:24:08.999Z</time></trkpt><trkpt lat="44.052386731542256" lon="11.833582422074581"><ele>225.66666666666669</ele><time>2026-04-05T18:24:09.999Z</time></trkpt><trkpt lat="44.05247731204912" lon="11.833797956758167"><ele>225.0</ele><time>2026-04-05T18:24:10.999Z</time></trkpt><trkpt lat="44.052551542787306" lon="11.834012620096608"><ele>225.0</ele><time>2026-04-05T18:24:11.999Z</time></trkpt><trkpt lat="44.05261761963419" lon="11.834202200171697"><ele>225.0</ele><time>2026-04-05T18:24:12.999Z</time></trkpt><trkpt lat="44.05268973524267" lon="11.834381030507089"><ele>225.0</ele><time>2026-04-05T18:24:13.999Z</time></trkpt><trkpt lat="44.05277989382168" lon="11.834545616931528"><ele>225.0</ele><time>2026-04-05T18:24:14.999Z</time></trkpt><trkpt lat="44.05290387884707" lon="11.834708753757395"><ele>224.0</ele><time>2026-04-05T18:24:15.999Z</time></trkpt><trkpt lat="44.05306056275855" lon="11.834861162979697"><ele>223.0</ele><time>2026-04-05T18:24:16.999Z</time></trkpt><trkpt lat="44.05320797945213" lon="11.835020554882004"><ele>222.0</ele><time>2026-04-05T18:24:17.999Z</time></trkpt><trkpt lat="44.053364799450414" lon="11.835193065301992"><ele>222.0</ele><time>2026-04-05T18:24:18.999Z</time></trkpt><trkpt lat="44.05351097536945" lon="11.835354804297983"><ele>222.0</ele><time>2026-04-05T18:24:19.999Z</time></trkpt><trkpt lat="44.053680638201" lon="11.835548779639955"><ele>222.0</ele><time>2026-04-05T18:24:20.999Z</time></trkpt><trkpt lat="44.05384351069394" lon="11.835727991314334"><ele>222.0</ele><time>2026-04-05T18:24:21.999Z</time></trkpt><trkpt lat="44.05401547153484" lon="11.835899139229296"><ele>222.0</ele><time>2026-04-05T18:24:22.999Z</time></trkpt><trkpt lat="44.05420077407161" lon="11.836062445282332"><ele>222.0</ele><time>2026-04-05T18:24:23.999Z</time></trkpt><trkpt lat="44.0543903152408" lon="11.836207227900564"><ele>222.33333333333331</ele><time>2026-04-05T18:24:24.999Z</time></trkpt><trkpt lat="44.054575535733605" lon="11.836339068291984"><ele>222.66666666666666</ele><time>2026-04-05T18:24:26Z</time></trkpt><trkpt lat="44.05475116040455" lon="11.836469115343586"><ele>223.0</ele><time>2026-04-05T18:24:27Z</time></trkpt><trkpt lat="44.05491949261077" lon="11.83660176954569"><ele>221.66666666666666</ele><time>2026-04-05T18:24:28Z</time></trkpt><trkpt lat="44.05508329459324" lon="11.83672517114393"><ele>220.33333333333331</ele><time>2026-04-05T18:24:29Z</time></trkpt><trkpt lat="44.055238972492894" lon="11.836844674016811"><ele>219.0</ele><time>2026-04-05T18:24:30Z</time></trkpt><trkpt lat="44.05538946140355" lon="11.836975844048805"><ele>219.0</ele><time>2026-04-05T18:24:31Z</time></trkpt><trkpt lat="44.055524595907414" lon="11.837128283179796"><ele>219.0</ele><time>2026-04-05T18:24:32Z</time></trkpt><trkpt lat="44.05564349472481" lon="11.83731008829831"><ele>219.0</ele><time>2026-04-05T18:24:33Z</time></trkpt><trkpt lat="44.05575863657584" lon="11.837514675957488"><ele>221.66666666666669</ele><time>2026-04-05T18:24:34Z</time></trkpt><trkpt lat="44.0558737329839" lon="11.837726978812974"><ele>224.33333333333334</ele><time>2026-04-05T18:24:35Z</time></trkpt><trkpt lat="44.05598547709714" lon="11.837941876576528"><ele>227.0</ele><time>2026-04-05T18:24:36Z</time></trkpt><trkpt lat="44.056091656054605" lon="11.838142287825955"><ele>227.0</ele><time>2026-04-05T18:24:37Z</time></trkpt><trkpt lat="44.05618928870377" lon="11.838332770547384"><ele>227.0</ele><time>2026-04-05T18:24:38Z</time></trkpt><trkpt lat="44.056282499196584" lon="11.83851197313371"><ele>227.0</ele><time>2026-04-05T18:24:39Z</time></trkpt><trkpt lat="44.056380096195106" lon="11.838671496775149"><ele>227.66666666666669</ele><time>2026-04-05T18:24:40Z</time></trkpt><trkpt lat="44.056489817943614" lon="11.838838678891593"><ele>228.33333333333331</ele><time>2026-04-05T18:24:41Z</time></trkpt><trkpt lat="44.056614712426565" lon="11.839002543713221"><ele>229.0</ele><time>2026-04-05T18:24:42Z</time></trkpt><trkpt lat="44.05674139993997" lon="11.839167966232493"><ele>226.66666666666666</ele><time>2026-04-05T18:24:43Z</time></trkpt><trkpt lat="44.05688041600815" lon="11.839322313871163"><ele>224.33333333333331</ele><time>2026-04-05T18:24:44Z</time></trkpt><trkpt lat="44.057042727310446" lon="11.83945857123571"><ele>222.0</ele><time>2026-04-05T18:24:45Z</time></trkpt><trkpt lat="44.05722679565342" lon="11.839586004284017"><ele>222.0</ele><time>2026-04-05T18:24:46Z</time></trkpt><trkpt lat="44.057420316276826" lon="11.839726031285664"><ele>222.0</ele><time>2026-04-05T18:24:47Z</time></trkpt><trkpt lat="44.05762111714595" lon="11.839885145441889"><ele>222.0</ele><time>2026-04-05T18:24:48Z</time></trkpt><trkpt lat="44.05782597697417" lon="11.840042752707733"><ele>221.66666666666669</ele><time>2026-04-05T18:24:49Z</time></trkpt><trkpt lat="44.05801297407229" lon="11.840189169144644"><ele>221.33333333333334</ele><time>2026-04-05T18:24:50Z</time></trkpt><trkpt lat="44.058200409246275" lon="11.840331676812927"><ele>221.0</ele><time>2026-04-05T18:24:51Z</time></trkpt><trkpt lat="44.058374884210366" lon="11.840474747370806"><ele>222.66666666666669</ele><time>2026-04-05T18:24:52Z</time></trkpt><trkpt lat="44.05854861990854" lon="11.840599424149564"><ele>224.33333333333331</ele><time>2026-04-05T18:24:53Z</time></trkpt><trkpt lat="44.05871756875842" lon="11.840734172924735"><ele>226.0</ele><time>2026-04-05T18:24:54Z</time></trkpt><trkpt lat="44.05889177854279" lon="11.84086904734006"><ele>224.33333333333331</ele><time>2026-04-05T18:24:55Z</time></trkpt><trkpt lat="44.059058425127404" lon="11.84099198304598"><ele>222.66666666666669</ele><time>2026-04-05T18:24:56Z</time></trkpt><trkpt lat="44.05920708464254" lon="11.841109466121916"><ele>221.0</ele><time>2026-04-05T18:24:57Z</time></trkpt><trkpt lat="44.05933952649533" lon="11.841210681024986"><ele>220.75</ele><time>2026-04-05T18:24:58Z</time></trkpt><trkpt lat="44.05945044235619" lon="11.841310594166861"><ele>220.5</ele><time>2026-04-05T18:24:59Z</time></trkpt><trkpt lat="44.059567918031476" lon="11.841398724154326"><ele>220.25</ele><time>2026-04-05T18:25:00Z</time></trkpt><trkpt lat="44.059701377897824" lon="11.841481295530246"><ele>220.0</ele><time>2026-04-05T18:25:01Z</time></trkpt><trkpt lat="44.059850616929836" lon="11.841533887485204"><ele>220.66666666666666</ele><time>2026-04-05T18:25:02Z</time></trkpt><trkpt lat="44.06002074801622" lon="11.841570741294634"><ele>221.33333333333331</ele><time>2026-04-05T18:25:03Z</time></trkpt><trkpt lat="44.06020846201735" lon="11.841604077416308"><ele>222.0</ele><time>2026-04-05T18:25:04Z</time></trkpt><trkpt lat="44.060335791529575" lon="11.841628230105961"><ele>222.0</ele><time>2026-04-05T18:25:05Z</time></trkpt><trkpt lat="44.060471292611794" lon="11.841675477211568"><ele>222.0</ele><time>2026-04-05T18:25:06Z</time></trkpt><trkpt lat="44.06061300543048" lon="11.841704939338122"><ele>222.0</ele><time>2026-04-05T18:25:07Z</time></trkpt><trkpt lat="44.060755405653495" lon="11.84173454437239"><ele>222.0</ele><time>2026-04-05T18:25:08Z</time></trkpt><trkpt lat="44.060971240917986" lon="11.841781176051828"><ele>220.5</ele><time>2026-04-05T18:25:09Z</time></trkpt><trkpt lat="44.06112937953601" lon="11.841815004017864"><ele>219.0</ele><time>2026-04-05T18:25:10Z</time></trkpt><trkpt lat="44.06128442811376" lon="11.841863658652345"><ele>217.5</ele><time>2026-04-05T18:25:11Z</time></trkpt><trkpt lat="44.06140208345139" lon="11.841879865038154"><ele>216.0</ele><time>2026-04-05T18:25:12Z</time></trkpt><trkpt lat="44.06152204372384" lon="11.841913918017005"><ele>215.5</ele><time>2026-04-05T18:25:13Z</time></trkpt><trkpt lat="44.061634911257116" lon="11.841997124100738"><ele>215.0</ele><time>2026-04-05T18:25:14Z</time></trkpt><trkpt lat="44.06176128056893" lon="11.842089125437328"><ele>214.5</ele><time>2026-04-05T18:25:15Z</time></trkpt><trkpt lat="44.06188253145946" lon="11.842212321083833"><ele>214.0</ele><time>2026-04-05T18:25:16Z</time></trkpt><trkpt lat="44.06201182270496" lon="11.842326021341167"><ele>214.0</ele><time>2026-04-05T18:25:17Z</time></trkpt><trkpt lat="44.06214619615635" lon="11.842434193237798"><ele>214.0</ele><time>2026-04-05T18:25:18Z</time></trkpt><trkpt lat="44.06227796883565" lon="11.842553150641072"><ele>214.0</ele><time>2026-04-05T18:25:19Z</time></trkpt><trkpt lat="44.06240167858829" lon="11.84267463179835"><ele>213.0</ele><time>2026-04-05T18:25:20Z</time></trkpt><trkpt lat="44.062545270969416" lon="11.84278850937134"><ele>212.0</ele><time>2026-04-05T18:25:21Z</time></trkpt><trkpt lat="44.062673965658746" lon="11.842908617014283"><ele>211.0</ele><time>2026-04-05T18:25:22Z</time></trkpt><trkpt lat="44.062795770442854" lon="11.843000597244782"><ele>211.0</ele><time>2026-04-05T18:25:23Z</time></trkpt><trkpt lat="44.06293134623574" lon="11.843071990205999"><ele>211.0</ele><time>2026-04-05T18:25:24Z</time></trkpt><trkpt lat="44.063080899261195" lon="11.84311194949033"><ele>211.0</ele><time>2026-04-05T18:25:25Z</time></trkpt><trkpt lat="44.06324090888756" lon="11.84311713782619"><ele>212.0</ele><time>2026-04-05T18:25:26Z</time></trkpt><trkpt lat="44.06340476120294" lon="11.843100251825344"><ele>213.0</ele><time>2026-04-05T18:25:27Z</time></trkpt><trkpt lat="44.06357516040805" lon="11.843102259795765"><ele>214.0</ele><time>2026-04-05T18:25:28Z</time></trkpt><trkpt lat="44.063791510295005" lon="11.843103393998437"><ele>214.0</ele><time>2026-04-05T18:25:29Z</time></trkpt><trkpt lat="44.063850932696" lon="11.843010419188838"><ele>214.0</ele><time>2026-04-05T18:25:30Z</time></trkpt><trkpt lat="44.0639982318104" lon="11.843014207363616"><ele>214.0</ele><time>2026-04-05T18:25:31Z</time></trkpt><trkpt lat="44.064136464285774" lon="11.843075483890503"><ele>214.0</ele><time>2026-04-05T18:25:31.999Z</time></trkpt><trkpt lat="44.06425418135244" lon="11.843144996362264"><ele>213.25</ele><time>2026-04-05T18:25:32.999Z</time></trkpt><trkpt lat="44.06437137689092" lon="11.843249908954009"><ele>212.5</ele><time>2026-04-05T18:25:33.999Z</time></trkpt><trkpt lat="44.064484209190915" lon="11.84338440921473"><ele>211.75</ele><time>2026-04-05T18:25:34.999Z</time></trkpt><trkpt lat="44.06460393638277" lon="11.843531083800661"><ele>211.0</ele><time>2026-04-05T18:25:35.999Z</time></trkpt><trkpt lat="44.0647243378062" lon="11.843681681380062"><ele>211.0</ele><time>2026-04-05T18:25:36.999Z</time></trkpt><trkpt lat="44.06484065378535" lon="11.843827168905648"><ele>211.0</ele><time>2026-04-05T18:25:37.999Z</time></trkpt><trkpt lat="44.0649507056245" lon="11.843964659757516"><ele>211.0</ele><time>2026-04-05T18:25:38.999Z</time></trkpt><trkpt lat="44.06505826969928" lon="11.844101406919513"><ele>212.0</ele><time>2026-04-05T18:25:39.999Z</time></trkpt><trkpt lat="44.06516746653611" lon="11.84423558569449"><ele>213.0</ele><time>2026-04-05T18:25:40.999Z</time></trkpt><trkpt lat="44.06528800295487" lon="11.84435889508662"><ele>214.0</ele><time>2026-04-05T18:25:41.999Z</time></trkpt><trkpt lat="44.065386450492866" lon="11.844488703132352"><ele>215.0</ele><time>2026-04-05T18:25:42.999Z</time></trkpt><trkpt lat="44.06547347939728" lon="11.844600822716407"><ele>214.33333333333334</ele><time>2026-04-05T18:25:43.999Z</time></trkpt><trkpt lat="44.06554824378771" lon="11.84469491826002"><ele>213.66666666666669</ele><time>2026-04-05T18:25:44.999Z</time></trkpt><trkpt lat="44.06561073199176" lon="11.844776656862756"><ele>213.0</ele><time>2026-04-05T18:25:45.999Z</time></trkpt><trkpt lat="44.065660644964915" lon="11.844847122678098"><ele>212.33333333333331</ele><time>2026-04-05T18:25:46.999Z</time></trkpt><trkpt lat="44.06570528875788" lon="11.844920898375893"><ele>211.66666666666666</ele><time>2026-04-05T18:25:47.999Z</time></trkpt><trkpt lat="44.06574601580211" lon="11.844996560152271"><ele>211.0</ele><time>2026-04-05T18:25:48.999Z</time></trkpt><trkpt lat="44.06580052491362" lon="11.84508863556609"><ele>214.0</ele><time>2026-04-05T18:25:50.999Z</time></trkpt><trkpt lat="44.065836049556985" lon="11.845173913783572"><ele>217.0</ele><time>2026-04-05T18:26:10.999Z</time></trkpt><trkpt lat="44.06587738157714" lon="11.845252704567928"><ele>220.00000000000003</ele><time>2026-04-05T18:26:11.999Z</time></trkpt><trkpt lat="44.06593150791515" lon="11.84535605045063"><ele>223.0</ele><time>2026-04-05T18:26:12.999Z</time></trkpt><trkpt lat="44.065992218841146" lon="11.845473512892134"><ele>226.0</ele><time>2026-04-05T18:26:13.999Z</time></trkpt><trkpt lat="44.066067432140656" lon="11.845615885588172"><ele>226.0</ele><time>2026-04-05T18:26:14.999Z</time></trkpt><trkpt lat="44.06614328081229" lon="11.845753770441757"><ele>226.0</ele><time>2026-04-05T18:26:15.999Z</time></trkpt><trkpt lat="44.06622864191436" lon="11.845883134407103"><ele>226.0</ele><time>2026-04-05T18:26:16.999Z</time></trkpt><trkpt lat="44.066336546956826" lon="11.846009447043066"><ele>226.0</ele><time>2026-04-05T18:26:17.999Z</time></trkpt><trkpt lat="44.06646343650716" lon="11.84610482031512"><ele>229.33333333333331</ele><time>2026-04-05T18:26:18.999Z</time></trkpt><trkpt lat="44.066603767247784" lon="11.846176038778527"><ele>232.66666666666669</ele><time>2026-04-05T18:26:19.999Z</time></trkpt><trkpt lat="44.06674460648889" lon="11.846239081303079"><ele>236.0</ele><time>2026-04-05T18:26:20.999Z</time></trkpt><trkpt lat="44.066905567493606" lon="11.84629063083246"><ele>236.0</ele><time>2026-04-05T18:26:21.999Z</time></trkpt><trkpt lat="44.067064586555034" lon="11.846319646323227"><ele>236.0</ele><time>2026-04-05T18:26:22.999Z</time></trkpt><trkpt lat="44.06723609745968" lon="11.846342317360259"><ele>236.0</ele><time>2026-04-05T18:26:23.999Z</time></trkpt><trkpt lat="44.067398438637525" lon="11.846364132634127"><ele>233.66666666666669</ele><time>2026-04-05T18:26:24.999Z</time></trkpt><trkpt lat="44.06756592830449" lon="11.846386639748587"><ele>231.33333333333331</ele><time>2026-04-05T18:26:25.999Z</time></trkpt><trkpt lat="44.06773696093321" lon="11.846408585458729"><ele>229.0</ele><time>2026-04-05T18:26:26.999Z</time></trkpt><trkpt lat="44.06790157112036" lon="11.846429302295231"><ele>229.0</ele><time>2026-04-05T18:26:27.999Z</time></trkpt><trkpt lat="44.06804102349337" lon="11.846446382199256"><ele>229.0</ele><time>2026-04-05T18:26:28.999Z</time></trkpt><trkpt lat="44.068178646049724" lon="11.84646482676653"><ele>229.0</ele><time>2026-04-05T18:26:29.999Z</time></trkpt><trkpt lat="44.068314505361045" lon="11.846484169787479"><ele>229.0</ele><time>2026-04-05T18:26:30.999Z</time></trkpt><trkpt lat="44.0684547525771" lon="11.846498191036842"><ele>228.33333333333331</ele><time>2026-04-05T18:26:32Z</time></trkpt><trkpt lat="44.068598627050214" lon="11.846562516149708"><ele>227.66666666666669</ele><time>2026-04-05T18:26:33Z</time></trkpt><trkpt lat="44.06873199621325" lon="11.846669338684812"><ele>227.0</ele><time>2026-04-05T18:26:34Z</time></trkpt><trkpt lat="44.068865373124886" lon="11.846794460003794"><ele>228.25</ele><time>2026-04-05T18:26:35Z</time></trkpt><trkpt lat="44.06897314001115" lon="11.846876722635903"><ele>229.5</ele><time>2026-04-05T18:26:36Z</time></trkpt><trkpt lat="44.069084488817495" lon="11.846953471460091"><ele>230.75</ele><time>2026-04-05T18:26:37Z</time></trkpt><trkpt lat="44.06927181959594" lon="11.847024707575347"><ele>232.0</ele><time>2026-04-05T18:26:38Z</time></trkpt><trkpt lat="44.06942525182647" lon="11.847039331466561"><ele>232.0</ele><time>2026-04-05T18:26:39Z</time></trkpt><trkpt lat="44.06956060315147" lon="11.846976592539258"><ele>232.0</ele><time>2026-04-05T18:26:40Z</time></trkpt><trkpt lat="44.06968687655057" lon="11.84692271510382"><ele>232.0</ele><time>2026-04-05T18:26:41Z</time></trkpt><trkpt lat="44.069803241069756" lon="11.84687287805845"><ele>232.0</ele><time>2026-04-05T18:26:42Z</time></trkpt><trkpt lat="44.06992151259541" lon="11.846888659624486"><ele>231.75</ele><time>2026-04-05T18:26:43Z</time></trkpt><trkpt lat="44.07006445332849" lon="11.846901569581966"><ele>231.5</ele><time>2026-04-05T18:26:44Z</time></trkpt><trkpt lat="44.07020169750842" lon="11.846945879067736"><ele>231.25</ele><time>2026-04-05T18:26:45Z</time></trkpt><trkpt lat="44.070342610363696" lon="11.84700770648578"><ele>231.0</ele><time>2026-04-05T18:26:46Z</time></trkpt><trkpt lat="44.07049180622625" lon="11.847080983286443"><ele>231.0</ele><time>2026-04-05T18:26:47Z</time></trkpt><trkpt lat="44.07064963957665" lon="11.847158836113179"><ele>231.0</ele><time>2026-04-05T18:26:48Z</time></trkpt><trkpt lat="44.07081461747777" lon="11.847240889889958"><ele>231.0</ele><time>2026-04-05T18:26:49Z</time></trkpt><trkpt lat="44.07098302365231" lon="11.84733855355942"><ele>228.33333333333331</ele><time>2026-04-05T18:26:50Z</time></trkpt><trkpt lat="44.071166272184996" lon="11.847440947617168"><ele>225.66666666666666</ele><time>2026-04-05T18:26:51Z</time></trkpt><trkpt lat="44.07132053366348" lon="11.847555622242137"><ele>223.0</ele><time>2026-04-05T18:26:52Z</time></trkpt><trkpt lat="44.071451012884054" lon="11.847662077387547"><ele>222.75</ele><time>2026-04-05T18:26:53Z</time></trkpt><trkpt lat="44.07157528360354" lon="11.847737080134062"><ele>222.5</ele><time>2026-04-05T18:26:54Z</time></trkpt><trkpt lat="44.07171000035184" lon="11.847776088111715"><ele>222.25</ele><time>2026-04-05T18:26:55Z</time></trkpt><trkpt lat="44.07184529433287" lon="11.847759013751297"><ele>222.0</ele><time>2026-04-05T18:26:56Z</time></trkpt><trkpt lat="44.07198970026123" lon="11.84771588070715"><ele>222.0</ele><time>2026-04-05T18:26:57Z</time></trkpt><trkpt lat="44.07213782791686" lon="11.847657907787843"><ele>222.0</ele><time>2026-04-05T18:26:58Z</time></trkpt><trkpt lat="44.07229445868798" lon="11.847623748121801"><ele>222.0</ele><time>2026-04-05T18:26:59Z</time></trkpt><trkpt lat="44.07244171261201" lon="11.8475597117415"><ele>217.66666666666669</ele><time>2026-04-05T18:27:00Z</time></trkpt><trkpt lat="44.07259297765301" lon="11.84751704692122"><ele>213.33333333333334</ele><time>2026-04-05T18:27:01Z</time></trkpt><trkpt lat="44.07274877178595" lon="11.847474671674926"><ele>209.0</ele><time>2026-04-05T18:27:02Z</time></trkpt><trkpt lat="44.07290696329774" lon="11.847433240411576"><ele>209.0</ele><time>2026-04-05T18:27:03Z</time></trkpt><trkpt lat="44.073073259023666" lon="11.847388128602848"><ele>209.0</ele><time>2026-04-05T18:27:04Z</time></trkpt><trkpt lat="44.07324040201204" lon="11.847342501313992"><ele>209.0</ele><time>2026-04-05T18:27:05Z</time></trkpt><trkpt lat="44.07340974961791" lon="11.84730885111241"><ele>209.75</ele><time>2026-04-05T18:27:06Z</time></trkpt><trkpt lat="44.07356042851689" lon="11.847330959773698"><ele>210.5</ele><time>2026-04-05T18:27:07Z</time></trkpt><trkpt lat="44.073706568442134" lon="11.847367731954222"><ele>211.25</ele><time>2026-04-05T18:27:08Z</time></trkpt><trkpt lat="44.0738506053416" lon="11.847399904295797"><ele>212.0</ele><time>2026-04-05T18:27:09Z</time></trkpt><trkpt lat="44.0740081363676" lon="11.847461115978023"><ele>211.33333333333334</ele><time>2026-04-05T18:27:10Z</time></trkpt><trkpt lat="44.074178755465724" lon="11.847474515236613"><ele>210.66666666666669</ele><time>2026-04-05T18:27:11Z</time></trkpt><trkpt lat="44.074343825384375" lon="11.847521027083078"><ele>210.0</ele><time>2026-04-05T18:27:12Z</time></trkpt><trkpt lat="44.07448899934745" lon="11.847351494736913"><ele>210.0</ele><time>2026-04-05T18:27:13Z</time></trkpt><trkpt lat="44.07464441799304" lon="11.847276514397159"><ele>210.0</ele><time>2026-04-05T18:27:14Z</time></trkpt><trkpt lat="44.074799298763416" lon="11.8472069768701"><ele>210.0</ele><time>2026-04-05T18:27:15Z</time></trkpt><trkpt lat="44.07494889715123" lon="11.847134092619989"><ele>211.0</ele><time>2026-04-05T18:27:16Z</time></trkpt><trkpt lat="44.07505763704674" lon="11.84717586324469"><ele>212.0</ele><time>2026-04-05T18:27:17Z</time></trkpt><trkpt lat="44.075179425172635" lon="11.84719048980328"><ele>213.0</ele><time>2026-04-05T18:27:18Z</time></trkpt><trkpt lat="44.07528440479735" lon="11.847253334054063"><ele>214.0</ele><time>2026-04-05T18:27:19Z</time></trkpt><trkpt lat="44.07539322823319" lon="11.847365041459708"><ele>214.0</ele><time>2026-04-05T18:27:20Z</time></trkpt><trkpt lat="44.075473664403226" lon="11.847505125529384"><ele>214.0</ele><time>2026-04-05T18:27:21Z</time></trkpt><trkpt lat="44.07555075692936" lon="11.84767588256291"><ele>214.0</ele><time>2026-04-05T18:27:22Z</time></trkpt><trkpt lat="44.07564420803073" lon="11.847859411186725"><ele>214.0</ele><time>2026-04-05T18:27:23Z</time></trkpt><trkpt lat="44.07572400868375" lon="11.84806468070261"><ele>213.0</ele><time>2026-04-05T18:27:24Z</time></trkpt><trkpt lat="44.07581801755135" lon="11.84827224778234"><ele>212.0</ele><time>2026-04-05T18:27:25Z</time></trkpt><trkpt lat="44.07588617431808" lon="11.848491886507896"><ele>211.0</ele><time>2026-04-05T18:27:26Z</time></trkpt><trkpt lat="44.075980757418264" lon="11.848670462075308"><ele>215.66666666666666</ele><time>2026-04-05T18:27:27Z</time></trkpt><trkpt lat="44.07608038557271" lon="11.848841527399918"><ele>220.33333333333331</ele><time>2026-04-05T18:27:28Z</time></trkpt><trkpt lat="44.07621057032678" lon="11.848974508831251"><ele>225.0</ele><time>2026-04-05T18:27:29Z</time></trkpt><trkpt lat="44.07635148443043" lon="11.849092317173605"><ele>225.0</ele><time>2026-04-05T18:27:30Z</time></trkpt><trkpt lat="44.07647600214823" lon="11.849186330785752"><ele>225.0</ele><time>2026-04-05T18:27:31Z</time></trkpt><trkpt lat="44.07660058907462" lon="11.84927445895809"><ele>225.0</ele><time>2026-04-05T18:27:32Z</time></trkpt><trkpt lat="44.07671170517394" lon="11.84943013335938"><ele>225.0</ele><time>2026-04-05T18:27:33Z</time></trkpt><trkpt lat="44.076835727804934" lon="11.849505125132643"><ele>222.33333333333331</ele><time>2026-04-05T18:27:34Z</time></trkpt><trkpt lat="44.07697399412787" lon="11.849558674315558"><ele>219.66666666666666</ele><time>2026-04-05T18:27:35Z</time></trkpt><trkpt lat="44.07712571657804" lon="11.849586678008846"><ele>217.0</ele><time>2026-04-05T18:27:36Z</time></trkpt><trkpt lat="44.077290799356476" lon="11.84959546933843"><ele>218.0</ele><time>2026-04-05T18:27:37Z</time></trkpt><trkpt lat="44.07745894497348" lon="11.849610834938561"><ele>219.0</ele><time>2026-04-05T18:27:37.999Z</time></trkpt><trkpt lat="44.07763427619738" lon="11.849621663618967"><ele>220.0</ele><time>2026-04-05T18:27:38.999Z</time></trkpt><trkpt lat="44.077813855539134" lon="11.849638662523725"><ele>220.0</ele><time>2026-04-05T18:27:39.999Z</time></trkpt><trkpt lat="44.078001301048694" lon="11.849666547893783"><ele>220.0</ele><time>2026-04-05T18:27:40.999Z</time></trkpt><trkpt lat="44.078191046819526" lon="11.849696965678136"><ele>220.0</ele><time>2026-04-05T18:27:41.999Z</time></trkpt><trkpt lat="44.078385822849356" lon="11.849759835485056"><ele>219.33333333333331</ele><time>2026-04-05T18:27:42.999Z</time></trkpt><trkpt lat="44.07859709339421" lon="11.849792719408187"><ele>218.66666666666669</ele><time>2026-04-05T18:27:43.999Z</time></trkpt><trkpt lat="44.07880726368083" lon="11.84984181238246"><ele>218.0</ele><time>2026-04-05T18:27:44.999Z</time></trkpt><trkpt lat="44.07900973619543" lon="11.849889130043813"><ele>215.66666666666669</ele><time>2026-04-05T18:27:45.999Z</time></trkpt><trkpt lat="44.0791941125343" lon="11.849952076025186"><ele>213.33333333333331</ele><time>2026-04-05T18:27:46.999Z</time></trkpt><trkpt lat="44.07936717334876" lon="11.849969855554649"><ele>211.0</ele><time>2026-04-05T18:27:47.999Z</time></trkpt><trkpt lat="44.07951091375055" lon="11.85006899317883"><ele>213.0</ele><time>2026-04-05T18:27:48.999Z</time></trkpt><trkpt lat="44.079650401202514" lon="11.850168549750727"><ele>215.0</ele><time>2026-04-05T18:27:49.999Z</time></trkpt><trkpt lat="44.07979415481576" lon="11.850275522174895"><ele>217.0</ele><time>2026-04-05T18:27:50.999Z</time></trkpt><trkpt lat="44.079937335988205" lon="11.85036351530362"><ele>217.0</ele><time>2026-04-05T18:27:51.999Z</time></trkpt><trkpt lat="44.080095600668365" lon="11.850424294277978"><ele>217.0</ele><time>2026-04-05T18:27:52.999Z</time></trkpt><trkpt lat="44.080262319500925" lon="11.850485358262056"><ele>217.0</ele><time>2026-04-05T18:27:53.999Z</time></trkpt><trkpt lat="44.080441884158226" lon="11.850522218868758"><ele>217.0</ele><time>2026-04-05T18:27:54.999Z</time></trkpt><trkpt lat="44.080623301043595" lon="11.8505250432147"><ele>217.0</ele><time>2026-04-05T18:27:55.999Z</time></trkpt><trkpt lat="44.08079576147486" lon="11.850533397994997"><ele>217.0</ele><time>2026-04-05T18:27:56.999Z</time></trkpt><trkpt lat="44.08095475339817" lon="11.850569120962534"><ele>215.25</ele><time>2026-04-05T18:27:57.999Z</time></trkpt><trkpt lat="44.08110038703382" lon="11.850584455677263"><ele>213.5</ele><time>2026-04-05T18:27:58.999Z</time></trkpt><trkpt lat="44.081252411101616" lon="11.850600748982155"><ele>211.75</ele><time>2026-04-05T18:27:59.999Z</time></trkpt><trkpt lat="44.08140235841959" lon="11.85062180317788"><ele>210.0</ele><time>2026-04-05T18:28:00.999Z</time></trkpt><trkpt lat="44.081543731435254" lon="11.850676349899073"><ele>209.0</ele><time>2026-04-05T18:28:01.999Z</time></trkpt><trkpt lat="44.08167261405965" lon="11.85076022495972"><ele>208.0</ele><time>2026-04-05T18:28:02.999Z</time></trkpt><trkpt lat="44.08179693186786" lon="11.850879439456012"><ele>207.0</ele><time>2026-04-05T18:28:03.999Z</time></trkpt><trkpt lat="44.08191248224779" lon="11.851019455068293"><ele>206.0</ele><time>2026-04-05T18:28:04.999Z</time></trkpt><trkpt lat="44.082036318793364" lon="11.851154963771984"><ele>210.0</ele><time>2026-04-05T18:28:05.999Z</time></trkpt><trkpt lat="44.08216373760759" lon="11.851323715222673"><ele>214.0</ele><time>2026-04-05T18:28:06.999Z</time></trkpt><trkpt lat="44.082292695674944" lon="11.851477197466561"><ele>218.0</ele><time>2026-04-05T18:28:07.999Z</time></trkpt><trkpt lat="44.08241461362902" lon="11.851622412297578"><ele>219.33333333333334</ele><time>2026-04-05T18:28:08.999Z</time></trkpt><trkpt lat="44.0825452152332" lon="11.85174792941007"><ele>220.66666666666669</ele><time>2026-04-05T18:28:09.999Z</time></trkpt><trkpt lat="44.08269606861866" lon="11.851860021766116"><ele>222.0</ele><time>2026-04-05T18:28:10.999Z</time></trkpt><trkpt lat="44.08285294457992" lon="11.851963810748662"><ele>222.0</ele><time>2026-04-05T18:28:11.999Z</time></trkpt><trkpt lat="44.08301081351007" lon="11.852043901079059"><ele>222.0</ele><time>2026-04-05T18:28:12.999Z</time></trkpt><trkpt lat="44.08316720379099" lon="11.852098157122903"><ele>222.0</ele><time>2026-04-05T18:28:13.999Z</time></trkpt><trkpt lat="44.08333199957749" lon="11.852124540407262"><ele>217.33333333333331</ele><time>2026-04-05T18:28:14.999Z</time></trkpt><trkpt lat="44.08349654298561" lon="11.852136088974294"><ele>212.66666666666666</ele><time>2026-04-05T18:28:15.999Z</time></trkpt><trkpt lat="44.083665081215194" lon="11.852127333369344"><ele>208.0</ele><time>2026-04-05T18:28:16.999Z</time></trkpt><trkpt lat="44.083831633581994" lon="11.852088482121724"><ele>208.0</ele><time>2026-04-05T18:28:17.999Z</time></trkpt><trkpt lat="44.08399973110464" lon="11.852047553812055"><ele>208.0</ele><time>2026-04-05T18:28:18.999Z</time></trkpt><trkpt lat="44.08416594967569" lon="11.85198100803932"><ele>208.0</ele><time>2026-04-05T18:28:19.999Z</time></trkpt><trkpt lat="44.08433140391964" lon="11.851910736580626"><ele>207.66666666666666</ele><time>2026-04-05T18:28:20.999Z</time></trkpt><trkpt lat="44.08448845012392" lon="11.851843139157666"><ele>207.33333333333331</ele><time>2026-04-05T18:28:21.999Z</time></trkpt><trkpt lat="44.084635882296865" lon="11.8517834858057"><ele>207.0</ele><time>2026-04-05T18:28:22.999Z</time></trkpt><trkpt lat="44.084781130981625" lon="11.851763857191468"><ele>207.66666666666669</ele><time>2026-04-05T18:28:23.999Z</time></trkpt><trkpt lat="44.08493381245004" lon="11.851773729208386"><ele>208.33333333333334</ele><time>2026-04-05T18:28:24.999Z</time></trkpt><trkpt lat="44.085093574239124" lon="11.85181473427682"><ele>209.0</ele><time>2026-04-05T18:28:25.999Z</time></trkpt><trkpt lat="44.085234085616115" lon="11.851896691096616"><ele>209.0</ele><time>2026-04-05T18:28:26.999Z</time></trkpt><trkpt lat="44.08537431216882" lon="11.851994174884737"><ele>209.0</ele><time>2026-04-05T18:28:27.999Z</time></trkpt><trkpt lat="44.08553038436242" lon="11.852087905302072"><ele>209.0</ele><time>2026-04-05T18:28:28.999Z</time></trkpt><trkpt lat="44.08567676844335" lon="11.85219453779807"><ele>207.0</ele><time>2026-04-05T18:28:29.999Z</time></trkpt><trkpt lat="44.08581554266391" lon="11.852294024253146"><ele>205.0</ele><time>2026-04-05T18:28:30.999Z</time></trkpt><trkpt lat="44.08595134333369" lon="11.85235869726078"><ele>203.0</ele><time>2026-04-05T18:28:31.999Z</time></trkpt><trkpt lat="44.08608513345101" lon="11.852372156636198"><ele>201.0</ele><time>2026-04-05T18:28:32.999Z</time></trkpt><trkpt lat="44.08620856295933" lon="11.852321045367667"><ele>201.0</ele><time>2026-04-05T18:28:33.999Z</time></trkpt><trkpt lat="44.08631031094345" lon="11.852211275298675"><ele>201.0</ele><time>2026-04-05T18:28:34.999Z</time></trkpt><trkpt lat="44.086399412722294" lon="11.85207223147651"><ele>201.0</ele><time>2026-04-05T18:28:35.999Z</time></trkpt><trkpt lat="44.08647005130882" lon="11.851910721420477"><ele>201.0</ele><time>2026-04-05T18:28:36.999Z</time></trkpt><trkpt lat="44.086567945500924" lon="11.851769243800044"><ele>196.0</ele><time>2026-04-05T18:28:38Z</time></trkpt><trkpt lat="44.08665233479075" lon="11.851616407658383"><ele>191.0</ele><time>2026-04-05T18:28:39Z</time></trkpt><trkpt lat="44.086731136340035" lon="11.851472868851252"><ele>186.0</ele><time>2026-04-05T18:28:40Z</time></trkpt><trkpt lat="44.08680338393576" lon="11.851342783142655"><ele>181.0</ele><time>2026-04-05T18:28:41Z</time></trkpt><trkpt lat="44.086879055086904" lon="11.851222597317374"><ele>181.0</ele><time>2026-04-05T18:28:42Z</time></trkpt><trkpt lat="44.08697929426141" lon="11.851126336557027"><ele>181.0</ele><time>2026-04-05T18:28:43Z</time></trkpt><trkpt lat="44.08710122411185" lon="11.851038851481745"><ele>181.0</ele><time>2026-04-05T18:28:44Z</time></trkpt><trkpt lat="44.08724336763349" lon="11.850997072178542"><ele>181.0</ele><time>2026-04-05T18:28:45Z</time></trkpt><trkpt lat="44.08739566066978" lon="11.850993657038941"><ele>182.33333333333334</ele><time>2026-04-05T18:28:46Z</time></trkpt><trkpt lat="44.087546090310326" lon="11.851047833121838"><ele>183.66666666666666</ele><time>2026-04-05T18:28:47Z</time></trkpt><trkpt lat="44.08769708616865" lon="11.851115437205918"><ele>185.0</ele><time>2026-04-05T18:28:48Z</time></trkpt><trkpt lat="44.08785723802198" lon="11.851185205760784"><ele>185.0</ele><time>2026-04-05T18:28:49Z</time></trkpt><trkpt lat="44.08802715974921" lon="11.851238261753318"><ele>185.0</ele><time>2026-04-05T18:28:50Z</time></trkpt><trkpt lat="44.08820130480856" lon="11.851312395508142"><ele>185.0</ele><time>2026-04-05T18:28:51Z</time></trkpt><trkpt lat="44.08837848476052" lon="11.851389796333002"><ele>187.33333333333331</ele><time>2026-04-05T18:28:52Z</time></trkpt><trkpt lat="44.08856571848586" lon="11.851494541279504"><ele>189.66666666666666</ele><time>2026-04-05T18:28:53Z</time></trkpt><trkpt lat="44.08876769458547" lon="11.851562321799815"><ele>192.0</ele><time>2026-04-05T18:28:54Z</time></trkpt><trkpt lat="44.088978125637524" lon="11.851658682638835"><ele>191.0</ele><time>2026-04-05T18:28:55Z</time></trkpt><trkpt lat="44.08919026697285" lon="11.851747060940529"><ele>190.0</ele><time>2026-04-05T18:28:56Z</time></trkpt><trkpt lat="44.08940864421334" lon="11.851847258252022"><ele>189.0</ele><time>2026-04-05T18:28:57Z</time></trkpt><trkpt lat="44.08963302635801" lon="11.851947563232969"><ele>188.0</ele><time>2026-04-05T18:28:58Z</time></trkpt><trkpt lat="44.08988464462044" lon="11.852068006755802"><ele>189.0</ele><time>2026-04-05T18:28:59Z</time></trkpt><trkpt lat="44.0901970054919" lon="11.852185785431997"><ele>190.0</ele><time>2026-04-05T18:29:00Z</time></trkpt><trkpt lat="44.09030222969386" lon="11.85222988713559"><ele>191.0</ele><time>2026-04-05T18:29:01Z</time></trkpt><trkpt lat="44.0905039078618" lon="11.85229248249344"><ele>191.0</ele><time>2026-04-05T18:29:02Z</time></trkpt><trkpt lat="44.090695727045" lon="11.852347896485552"><ele>191.0</ele><time>2026-04-05T18:29:03Z</time></trkpt><trkpt lat="44.09088525543196" lon="11.852401479978308"><ele>191.0</ele><time>2026-04-05T18:29:04Z</time></trkpt><trkpt lat="44.09107342796516" lon="11.8524551290696"><ele>190.66666666666666</ele><time>2026-04-05T18:29:05Z</time></trkpt><trkpt lat="44.09124729377335" lon="11.852505100745775"><ele>190.33333333333334</ele><time>2026-04-05T18:29:06Z</time></trkpt><trkpt lat="44.09141590227822" lon="11.85255817744197"><ele>190.0</ele><time>2026-04-05T18:29:07Z</time></trkpt><trkpt lat="44.09159026899498" lon="11.852626878827712"><ele>185.33333333333334</ele><time>2026-04-05T18:29:08Z</time></trkpt><trkpt lat="44.09176247353462" lon="11.8527322096502"><ele>180.66666666666666</ele><time>2026-04-05T18:29:09Z</time></trkpt><trkpt lat="44.091940600280836" lon="11.852842765013452"><ele>176.0</ele><time>2026-04-05T18:29:10Z</time></trkpt><trkpt lat="44.09211862579454" lon="11.852972936379748"><ele>176.0</ele><time>2026-04-05T18:29:11Z</time></trkpt><trkpt lat="44.092295820290296" lon="11.853126910510213"><ele>176.0</ele><time>2026-04-05T18:29:12Z</time></trkpt><trkpt lat="44.092477036385496" lon="11.853310098517552"><ele>176.0</ele><time>2026-04-05T18:29:13Z</time></trkpt><trkpt lat="44.09266223714595" lon="11.853512573411509"><ele>178.0</ele><time>2026-04-05T18:29:14Z</time></trkpt><trkpt lat="44.09286020334947" lon="11.853730772663438"><ele>180.0</ele><time>2026-04-05T18:29:15Z</time></trkpt><trkpt lat="44.09307627702272" lon="11.85394031420559"><ele>182.0</ele><time>2026-04-05T18:29:16Z</time></trkpt><trkpt lat="44.093284814573224" lon="11.854176346142431"><ele>184.0</ele><time>2026-04-05T18:29:17Z</time></trkpt><trkpt lat="44.093493789767756" lon="11.854407540007813"><ele>184.0</ele><time>2026-04-05T18:29:18Z</time></trkpt><trkpt lat="44.09370515089841" lon="11.85464726037422"><ele>184.0</ele><time>2026-04-05T18:29:19Z</time></trkpt><trkpt lat="44.093922588944494" lon="11.85487129289447"><ele>182.0</ele><time>2026-04-05T18:29:20Z</time></trkpt><trkpt lat="44.09412896956293" lon="11.855102011650523"><ele>180.0</ele><time>2026-04-05T18:29:21Z</time></trkpt><trkpt lat="44.09432846957215" lon="11.855346624481296"><ele>180.0</ele><time>2026-04-05T18:29:22Z</time></trkpt><trkpt lat="44.09454780362443" lon="11.855560689112737"><ele>180.0</ele><time>2026-04-05T18:29:23Z</time></trkpt><trkpt lat="44.09474818090983" lon="11.855790938289484"><ele>179.5</ele><time>2026-04-05T18:29:24Z</time></trkpt><trkpt lat="44.09494813622064" lon="11.856016988917661"><ele>179.0</ele><time>2026-04-05T18:29:25Z</time></trkpt><trkpt lat="44.09515129734498" lon="11.856238094371918"><ele>179.0</ele><time>2026-04-05T18:29:26Z</time></trkpt><trkpt lat="44.095354758939806" lon="11.856455815226006"><ele>179.0</ele><time>2026-04-05T18:29:27Z</time></trkpt><trkpt lat="44.09555630222469" lon="11.856679392743855"><ele>181.5</ele><time>2026-04-05T18:29:28Z</time></trkpt><trkpt lat="44.09576681643726" lon="11.856874298651837"><ele>184.0</ele><time>2026-04-05T18:29:29Z</time></trkpt><trkpt lat="44.0959996751902" lon="11.8570516703671"><ele>184.0</ele><time>2026-04-05T18:29:30Z</time></trkpt><trkpt lat="44.096247773677064" lon="11.857213892763044"><ele>184.0</ele><time>2026-04-05T18:29:31Z</time></trkpt><trkpt lat="44.09651057320523" lon="11.857354984712375"><ele>185.0</ele><time>2026-04-05T18:29:32Z</time></trkpt><trkpt lat="44.09677026775793" lon="11.857500529109084"><ele>186.0</ele><time>2026-04-05T18:29:33Z</time></trkpt><trkpt lat="44.09703999903346" lon="11.857666538023482"><ele>183.0</ele><time>2026-04-05T18:29:34Z</time></trkpt><trkpt lat="44.09733428436323" lon="11.85783263246124"><ele>180.0</ele><time>2026-04-05T18:29:35Z</time></trkpt><trkpt lat="44.09759465307391" lon="11.857984990952822"><ele>179.5</ele><time>2026-04-05T18:29:36Z</time></trkpt><trkpt lat="44.09787523994493" lon="11.858141753871326"><ele>179.0</ele><time>2026-04-05T18:29:37Z</time></trkpt><trkpt lat="44.09808696376019" lon="11.858253920957027"><ele>179.5</ele><time>2026-04-05T18:29:37.999Z</time></trkpt><trkpt lat="44.09835492394117" lon="11.858399527745565"><ele>180.0</ele><time>2026-04-05T18:29:38.999Z</time></trkpt><trkpt lat="44.09862453133622" lon="11.858549186479138"><ele>179.0</ele><time>2026-04-05T18:29:39.999Z</time></trkpt><trkpt lat="44.09889443829263" lon="11.858706282517003"><ele>178.0</ele><time>2026-04-05T18:29:40.999Z</time></trkpt><trkpt lat="44.099162878191514" lon="11.858861526771555"><ele>178.0</ele><time>2026-04-05T18:29:41.999Z</time></trkpt><trkpt lat="44.099431190028" lon="11.8590156334843"><ele>178.0</ele><time>2026-04-05T18:29:42.999Z</time></trkpt><trkpt lat="44.09968957682743" lon="11.859190732383816"><ele>173.5</ele><time>2026-04-05T18:29:43.999Z</time></trkpt><trkpt lat="44.099955479588154" lon="11.859343109093132"><ele>169.0</ele><time>2026-04-05T18:29:44.999Z</time></trkpt><trkpt lat="44.100218093918976" lon="11.859492764939915"><ele>169.0</ele><time>2026-04-05T18:29:45.999Z</time></trkpt><trkpt lat="44.10048312556823" lon="11.859644059799523"><ele>169.0</ele><time>2026-04-05T18:29:46.999Z</time></trkpt><trkpt lat="44.10074272867886" lon="11.859792255888864"><ele>169.5</ele><time>2026-04-05T18:29:47.999Z</time></trkpt><trkpt lat="44.10098828668315" lon="11.859931812925584"><ele>170.0</ele><time>2026-04-05T18:29:48.999Z</time></trkpt><trkpt lat="44.1012229011807" lon="11.860070181773887"><ele>165.5</ele><time>2026-04-05T18:29:49.999Z</time></trkpt><trkpt lat="44.101451784753834" lon="11.86021222522111"><ele>161.0</ele><time>2026-04-05T18:29:50.999Z</time></trkpt><trkpt lat="44.10168230144451" lon="11.860359594167432"><ele>161.0</ele><time>2026-04-05T18:29:51.999Z</time></trkpt><trkpt lat="44.10189454392454" lon="11.860524395441336"><ele>161.0</ele><time>2026-04-05T18:29:52.999Z</time></trkpt><trkpt lat="44.10209996183274" lon="11.860714231762092"><ele>161.0</ele><time>2026-04-05T18:29:53.999Z</time></trkpt><trkpt lat="44.102302978332624" lon="11.860923529416594"><ele>161.0</ele><time>2026-04-05T18:29:54.999Z</time></trkpt><trkpt lat="44.10249837622455" lon="11.861162811338547"><ele>163.5</ele><time>2026-04-05T18:29:55.999Z</time></trkpt><trkpt lat="44.102681671154" lon="11.86142311060049"><ele>166.0</ele><time>2026-04-05T18:29:56.999Z</time></trkpt><trkpt lat="44.10285035430416" lon="11.861703056037056"><ele>161.0</ele><time>2026-04-05T18:29:57.999Z</time></trkpt><trkpt lat="44.10300752909816" lon="11.862001793275653"><ele>156.0</ele><time>2026-04-05T18:29:58.999Z</time></trkpt><trkpt lat="44.10315400837239" lon="11.862311036190377"><ele>159.5</ele><time>2026-04-05T18:29:59.999Z</time></trkpt><trkpt lat="44.10328049119485" lon="11.862597923851384"><ele>163.0</ele><time>2026-04-05T18:30:00.999Z</time></trkpt><trkpt lat="44.103404018486636" lon="11.862885195489719"><ele>163.0</ele><time>2026-04-05T18:30:01.999Z</time></trkpt><trkpt lat="44.1035216676355" lon="11.863158792080073"><ele>163.0</ele><time>2026-04-05T18:30:02.999Z</time></trkpt><trkpt lat="44.103633602859716" lon="11.863419158167838"><ele>163.0</ele><time>2026-04-05T18:30:03.999Z</time></trkpt><trkpt lat="44.10374723646797" lon="11.863678175058622"><ele>160.66666666666669</ele><time>2026-04-05T18:30:04.999Z</time></trkpt><trkpt lat="44.103862276842264" lon="11.8638986283194"><ele>158.33333333333334</ele><time>2026-04-05T18:30:05.999Z</time></trkpt><trkpt lat="44.10391913556103" lon="11.864165779994007"><ele>156.0</ele><time>2026-04-05T18:30:06.999Z</time></trkpt><trkpt lat="44.103939639441805" lon="11.86439632761522"><ele>155.75</ele><time>2026-04-05T18:30:07.999Z</time></trkpt><trkpt lat="44.1039570938924" lon="11.864617427201493"><ele>155.5</ele><time>2026-04-05T18:30:08.999Z</time></trkpt><trkpt lat="44.10398365968989" lon="11.864799283175264"><ele>155.25</ele><time>2026-04-05T18:30:09.999Z</time></trkpt><trkpt lat="44.104019330925" lon="11.864942929128988"><ele>155.0</ele><time>2026-04-05T18:30:10.999Z</time></trkpt><trkpt lat="44.10408526095926" lon="11.86504980054418"><ele>154.25</ele><time>2026-04-05T18:30:11.999Z</time></trkpt><trkpt lat="44.104182152058925" lon="11.865117129679023"><ele>153.5</ele><time>2026-04-05T18:30:12.999Z</time></trkpt><trkpt lat="44.10429148568377" lon="11.865177005624075"><ele>152.75</ele><time>2026-04-05T18:30:13.999Z</time></trkpt><trkpt lat="44.104406542828734" lon="11.865252123487299"><ele>152.0</ele><time>2026-04-05T18:30:14.999Z</time></trkpt><trkpt lat="44.104528161850084" lon="11.865346709830423"><ele>152.0</ele><time>2026-04-05T18:30:15.999Z</time></trkpt><trkpt lat="44.10465847370145" lon="11.865451936615646"><ele>152.0</ele><time>2026-04-05T18:30:16.999Z</time></trkpt><trkpt lat="44.1047980439853" lon="11.865561264630122"><ele>152.0</ele><time>2026-04-05T18:30:17.999Z</time></trkpt><trkpt lat="44.10493168261332" lon="11.86567453942602"><ele>153.0</ele><time>2026-04-05T18:30:18.999Z</time></trkpt><trkpt lat="44.10507934059404" lon="11.865774291068599"><ele>154.0</ele><time>2026-04-05T18:30:19.999Z</time></trkpt><trkpt lat="44.105224950805706" lon="11.865878028234079"><ele>155.0</ele><time>2026-04-05T18:30:20.999Z</time></trkpt><trkpt lat="44.105352793941854" lon="11.865963000134895"><ele>155.0</ele><time>2026-04-05T18:30:21.999Z</time></trkpt><trkpt lat="44.1054759113713" lon="11.866061564772211"><ele>155.0</ele><time>2026-04-05T18:30:22.999Z</time></trkpt><trkpt lat="44.105588118160576" lon="11.866170631292398"><ele>155.0</ele><time>2026-04-05T18:30:23.999Z</time></trkpt><trkpt lat="44.105692291770445" lon="11.866307032724382"><ele>155.0</ele><time>2026-04-05T18:30:24.999Z</time></trkpt><trkpt lat="44.10578672661648" lon="11.866464944181976"><ele>157.33333333333331</ele><time>2026-04-05T18:30:25.999Z</time></trkpt><trkpt lat="44.105864209654726" lon="11.866647936022014"><ele>159.66666666666666</ele><time>2026-04-05T18:30:26.999Z</time></trkpt><trkpt lat="44.105932374105066" lon="11.866847738088614"><ele>162.0</ele><time>2026-04-05T18:30:27.999Z</time></trkpt><trkpt lat="44.10600216573504" lon="11.867056677792087"><ele>162.33333333333334</ele><time>2026-04-05T18:30:28.999Z</time></trkpt><trkpt lat="44.10607612262716" lon="11.867281742222652"><ele>162.66666666666669</ele><time>2026-04-05T18:30:29.999Z</time></trkpt><trkpt lat="44.10615406510374" lon="11.867508024383923"><ele>163.0</ele><time>2026-04-05T18:30:30.999Z</time></trkpt><trkpt lat="44.10623323529825" lon="11.867732664602833"><ele>161.0</ele><time>2026-04-05T18:30:31.999Z</time></trkpt><trkpt lat="44.10631244000951" lon="11.867950418779515"><ele>159.0</ele><time>2026-04-05T18:30:32.999Z</time></trkpt><trkpt lat="44.106378491920815" lon="11.868149801006274"><ele>157.0</ele><time>2026-04-05T18:30:33.999Z</time></trkpt><trkpt lat="44.10644890504317" lon="11.868343045654042"><ele>155.0</ele><time>2026-04-05T18:30:34.999Z</time></trkpt><trkpt lat="44.10653475040096" lon="11.868528139557242"><ele>153.0</ele><time>2026-04-05T18:30:35.999Z</time></trkpt><trkpt lat="44.10663890470563" lon="11.868706099605522"><ele>151.0</ele><time>2026-04-05T18:30:36.999Z</time></trkpt><trkpt lat="44.10675769607997" lon="11.868874561909655"><ele>153.0</ele><time>2026-04-05T18:30:37.999Z</time></trkpt><trkpt lat="44.106882036402666" lon="11.869040817829877"><ele>155.0</ele><time>2026-04-05T18:30:38.999Z</time></trkpt><trkpt lat="44.10700116988914" lon="11.869207326592816"><ele>157.0</ele><time>2026-04-05T18:30:39.999Z</time></trkpt><trkpt lat="44.10711634594136" lon="11.869368128870013"><ele>157.0</ele><time>2026-04-05T18:30:40.999Z</time></trkpt><trkpt lat="44.10722842357929" lon="11.869522738164655"><ele>157.0</ele><time>2026-04-05T18:30:41.999Z</time></trkpt><trkpt lat="44.10733139830259" lon="11.86965407445388"><ele>157.0</ele><time>2026-04-05T18:30:42.999Z</time></trkpt><trkpt lat="44.107440416783334" lon="11.869740350350876"><ele>157.0</ele><time>2026-04-05T18:30:44Z</time></trkpt><trkpt lat="44.107539757276285" lon="11.869919199070548"><ele>160.75</ele><time>2026-04-05T18:30:45Z</time></trkpt><trkpt lat="44.10763526127928" lon="11.87004387871766"><ele>164.5</ele><time>2026-04-05T18:30:46Z</time></trkpt><trkpt lat="44.10773774275193" lon="11.870156106494388"><ele>168.25</ele><time>2026-04-05T18:30:47Z</time></trkpt><trkpt lat="44.107839134912304" lon="11.870267814732522"><ele>172.0</ele><time>2026-04-05T18:30:48Z</time></trkpt><trkpt lat="44.107940556225905" lon="11.870382291779752"><ele>172.0</ele><time>2026-04-05T18:30:49Z</time></trkpt><trkpt lat="44.10804625732367" lon="11.870492614847345"><ele>172.0</ele><time>2026-04-05T18:30:50Z</time></trkpt><trkpt lat="44.10815043886329" lon="11.87060255899937"><ele>172.0</ele><time>2026-04-05T18:30:51Z</time></trkpt><trkpt lat="44.10825353123359" lon="11.870708768772246"><ele>172.0</ele><time>2026-04-05T18:30:52Z</time></trkpt><trkpt lat="44.10836392937763" lon="11.870809200148319"><ele>173.0</ele><time>2026-04-05T18:30:53Z</time></trkpt><trkpt lat="44.108473068221556" lon="11.870912294854469"><ele>174.0</ele><time>2026-04-05T18:30:54Z</time></trkpt><trkpt lat="44.10858574572237" lon="11.871014829216628"><ele>175.0</ele><time>2026-04-05T18:30:55Z</time></trkpt><trkpt lat="44.108700586464835" lon="11.871116439385576"><ele>176.0</ele><time>2026-04-05T18:30:56Z</time></trkpt><trkpt lat="44.10882316580936" lon="11.87122196318414"><ele>176.0</ele><time>2026-04-05T18:30:57Z</time></trkpt><trkpt lat="44.108953445223364" lon="11.871331066118612"><ele>176.0</ele><time>2026-04-05T18:30:58Z</time></trkpt><trkpt lat="44.10908269923173" lon="11.871440930447053"><ele>176.0</ele><time>2026-04-05T18:30:59Z</time></trkpt><trkpt lat="44.109212986585256" lon="11.87155510171947"><ele>176.0</ele><time>2026-04-05T18:31:00Z</time></trkpt><trkpt lat="44.10934719447051" lon="11.871667246189435"><ele>176.0</ele><time>2026-04-05T18:31:01Z</time></trkpt><trkpt lat="44.10948657524863" lon="11.8717795384735"><ele>176.0</ele><time>2026-04-05T18:31:02Z</time></trkpt><trkpt lat="44.10963234352463" lon="11.87190158806545"><ele>175.33333333333331</ele><time>2026-04-05T18:31:03Z</time></trkpt><trkpt lat="44.10977967139184" lon="11.872020553260365"><ele>174.66666666666666</ele><time>2026-04-05T18:31:04Z</time></trkpt><trkpt lat="44.10993175745374" lon="11.87215115557421"><ele>174.0</ele><time>2026-04-05T18:31:05Z</time></trkpt><trkpt lat="44.11007536995383" lon="11.872278488437367"><ele>173.66666666666666</ele><time>2026-04-05T18:31:06Z</time></trkpt><trkpt lat="44.110227477187806" lon="11.872398940449816"><ele>173.33333333333331</ele><time>2026-04-05T18:31:07Z</time></trkpt><trkpt lat="44.110394586484794" lon="11.872487932200931"><ele>173.0</ele><time>2026-04-05T18:31:08Z</time></trkpt><trkpt lat="44.11057922321692" lon="11.87255474853031"><ele>172.66666666666666</ele><time>2026-04-05T18:31:09Z</time></trkpt><trkpt lat="44.11077755939736" lon="11.872603155329717"><ele>172.33333333333334</ele><time>2026-04-05T18:31:10Z</time></trkpt><trkpt lat="44.11097425192503" lon="11.872672704096122"><ele>172.0</ele><time>2026-04-05T18:31:11Z</time></trkpt><trkpt lat="44.11117146161989" lon="11.872701420747012"><ele>171.33333333333334</ele><time>2026-04-05T18:31:12Z</time></trkpt><trkpt lat="44.11135693166602" lon="11.872722159319236"><ele>170.66666666666666</ele><time>2026-04-05T18:31:13Z</time></trkpt><trkpt lat="44.11153153831207" lon="11.87274095571261"><ele>170.0</ele><time>2026-04-05T18:31:14Z</time></trkpt><trkpt lat="44.11168942191937" lon="11.872762624778812"><ele>170.0</ele><time>2026-04-05T18:31:15Z</time></trkpt><trkpt lat="44.11182719028723" lon="11.872807079404968"><ele>170.0</ele><time>2026-04-05T18:31:16Z</time></trkpt><trkpt lat="44.11194989499757" lon="11.87289066702658"><ele>170.0</ele><time>2026-04-05T18:31:17Z</time></trkpt><trkpt lat="44.112084084942126" lon="11.872996664370422"><ele>170.0</ele><time>2026-04-05T18:31:18Z</time></trkpt><trkpt lat="44.11220062828322" lon="11.873120256326121"><ele>170.0</ele><time>2026-04-05T18:31:19Z</time></trkpt><trkpt lat="44.1122931824204" lon="11.873258526912931"><ele>170.0</ele><time>2026-04-05T18:31:20Z</time></trkpt><trkpt lat="44.112360361803745" lon="11.873431485500879"><ele>170.0</ele><time>2026-04-05T18:31:21Z</time></trkpt><trkpt lat="44.11241029923462" lon="11.87362011583486"><ele>170.0</ele><time>2026-04-05T18:31:22Z</time></trkpt><trkpt lat="44.11245761759411" lon="11.873820233730537"><ele>169.5</ele><time>2026-04-05T18:31:23Z</time></trkpt><trkpt lat="44.112527677799804" lon="11.874004374198305"><ele>169.0</ele><time>2026-04-05T18:31:24Z</time></trkpt><trkpt lat="44.11260519212331" lon="11.874181085497119"><ele>168.5</ele><time>2026-04-05T18:31:25Z</time></trkpt><trkpt lat="44.112700816589154" lon="11.87433373291832"><ele>168.0</ele><time>2026-04-05T18:31:26Z</time></trkpt><trkpt lat="44.11281554053818" lon="11.874468473477712"><ele>167.66666666666666</ele><time>2026-04-05T18:31:27Z</time></trkpt><trkpt lat="44.112945279971775" lon="11.874577970691245"><ele>167.33333333333331</ele><time>2026-04-05T18:31:28Z</time></trkpt><trkpt lat="44.11308582587502" lon="11.874659260805915"><ele>167.0</ele><time>2026-04-05T18:31:29Z</time></trkpt><trkpt lat="44.113239126843474" lon="11.874718232369592"><ele>167.0</ele><time>2026-04-05T18:31:30Z</time></trkpt><trkpt lat="44.113404328948846" lon="11.874804323130713"><ele>167.0</ele><time>2026-04-05T18:31:31Z</time></trkpt><trkpt lat="44.1135793916343" lon="11.874871912366777"><ele>167.0</ele><time>2026-04-05T18:31:32Z</time></trkpt><trkpt lat="44.11376039735372" lon="11.87494228648549"><ele>167.0</ele><time>2026-04-05T18:31:33Z</time></trkpt><trkpt lat="44.113935438253954" lon="11.875010341509551"><ele>167.0</ele><time>2026-04-05T18:31:34Z</time></trkpt><trkpt lat="44.11410225462975" lon="11.875075198879253"><ele>167.0</ele><time>2026-04-05T18:31:35Z</time></trkpt><trkpt lat="44.11426147671071" lon="11.87513710362517"><ele>164.0</ele><time>2026-04-05T18:31:36Z</time></trkpt><trkpt lat="44.114413091073985" lon="11.875194725904667"><ele>161.0</ele><time>2026-04-05T18:31:37Z</time></trkpt><trkpt lat="44.114557847176485" lon="11.875225410259821"><ele>158.0</ele><time>2026-04-05T18:31:38Z</time></trkpt><trkpt lat="44.114701724685276" lon="11.875303525995932"><ele>158.0</ele><time>2026-04-05T18:31:39Z</time></trkpt><trkpt lat="44.1148581748987" lon="11.875331104651243"><ele>158.0</ele><time>2026-04-05T18:31:40Z</time></trkpt><trkpt lat="44.11502038261598" lon="11.875319249601343"><ele>158.0</ele><time>2026-04-05T18:31:41Z</time></trkpt><trkpt lat="44.11518656590249" lon="11.875292421192857"><ele>157.66666666666666</ele><time>2026-04-05T18:31:42Z</time></trkpt><trkpt lat="44.11534898306165" lon="11.875267389414255"><ele>157.33333333333334</ele><time>2026-04-05T18:31:43Z</time></trkpt><trkpt lat="44.11551225293622" lon="11.875246547081131"><ele>157.0</ele><time>2026-04-05T18:31:44Z</time></trkpt><trkpt lat="44.11565987901099" lon="11.875238151264584"><ele>156.0</ele><time>2026-04-05T18:31:45Z</time></trkpt><trkpt lat="44.1157927632269" lon="11.875248186182072"><ele>155.0</ele><time>2026-04-05T18:31:46Z</time></trkpt><trkpt lat="44.11590468170855" lon="11.87528474133255"><ele>154.0</ele><time>2026-04-05T18:31:47Z</time></trkpt><trkpt lat="44.115990911647735" lon="11.875329337654142"><ele>153.0</ele><time>2026-04-05T18:31:48Z</time></trkpt><trkpt lat="44.1160813919505" lon="11.875382438391883"><ele>152.0</ele><time>2026-04-05T18:31:49Z</time></trkpt><trkpt lat="44.116166759718645" lon="11.875433511297436"><ele>152.0</ele><time>2026-04-05T18:31:49.999Z</time></trkpt><trkpt lat="44.11625847049015" lon="11.87548837903737"><ele>152.0</ele><time>2026-04-05T18:31:50.999Z</time></trkpt><trkpt lat="44.11635475695455" lon="11.875545984255925"><ele>152.0</ele><time>2026-04-05T18:31:51.999Z</time></trkpt><trkpt lat="44.116458995609456" lon="11.875608347004249"><ele>152.0</ele><time>2026-04-05T18:31:52.999Z</time></trkpt><trkpt lat="44.116566050955626" lon="11.875673110425813"><ele>152.0</ele><time>2026-04-05T18:31:53.999Z</time></trkpt><trkpt lat="44.11668279518851" lon="11.875724027273492"><ele>151.5</ele><time>2026-04-05T18:31:54.999Z</time></trkpt><trkpt lat="44.11678940205429" lon="11.875797861394856"><ele>151.0</ele><time>2026-04-05T18:31:55.999Z</time></trkpt><trkpt lat="44.1168813898352" lon="11.875898662321086"><ele>150.5</ele><time>2026-04-05T18:31:56.999Z</time></trkpt><trkpt lat="44.11696686619633" lon="11.876013074588"><ele>150.0</ele><time>2026-04-05T18:31:57.999Z</time></trkpt><trkpt lat="44.117027902113776" lon="11.87617786543687"><ele>150.0</ele><time>2026-04-05T18:31:58.999Z</time></trkpt><trkpt lat="44.117056617719015" lon="11.87635155967358"><ele>150.0</ele><time>2026-04-05T18:31:59.999Z</time></trkpt><trkpt lat="44.117105933484844" lon="11.876528254213756"><ele>150.0</ele><time>2026-04-05T18:32:00.999Z</time></trkpt><trkpt lat="44.11715127508225" lon="11.876734006813683"><ele>150.0</ele><time>2026-04-05T18:32:01.999Z</time></trkpt><trkpt lat="44.11719794634288" lon="11.876961762638919"><ele>147.33333333333334</ele><time>2026-04-05T18:32:02.999Z</time></trkpt><trkpt lat="44.11725172512265" lon="11.877212180747222"><ele>144.66666666666669</ele><time>2026-04-05T18:32:03.999Z</time></trkpt><trkpt lat="44.11730416944972" lon="11.877451073959858"><ele>142.0</ele><time>2026-04-05T18:32:04.999Z</time></trkpt><trkpt lat="44.11733286225262" lon="11.877692024819053"><ele>140.33333333333334</ele><time>2026-04-05T18:32:05.999Z</time></trkpt><trkpt lat="44.11734588792689" lon="11.87795562661524"><ele>138.66666666666666</ele><time>2026-04-05T18:32:06.999Z</time></trkpt><trkpt lat="44.11736505940277" lon="11.878257440006301"><ele>137.0</ele><time>2026-04-05T18:32:07.999Z</time></trkpt><trkpt lat="44.11737229177799" lon="11.878475347370715"><ele>136.0</ele><time>2026-04-05T18:32:08.999Z</time></trkpt><trkpt lat="44.11736951280174" lon="11.878716637151244"><ele>135.0</ele><time>2026-04-05T18:32:09.999Z</time></trkpt><trkpt lat="44.11737728248453" lon="11.878950451747535"><ele>134.0</ele><time>2026-04-05T18:32:10.999Z</time></trkpt><trkpt lat="44.11738583218617" lon="11.879171171000824"><ele>136.0</ele><time>2026-04-05T18:32:11.999Z</time></trkpt><trkpt lat="44.11741518691613" lon="11.879388888929633"><ele>138.0</ele><time>2026-04-05T18:32:12.999Z</time></trkpt><trkpt lat="44.11744313068891" lon="11.879594018769591"><ele>140.0</ele><time>2026-04-05T18:32:13.999Z</time></trkpt><trkpt lat="44.11750637454565" lon="11.8797786463203"><ele>140.0</ele><time>2026-04-05T18:32:14.999Z</time></trkpt><trkpt lat="44.11759940528468" lon="11.87995149141206"><ele>140.0</ele><time>2026-04-05T18:32:15.999Z</time></trkpt><trkpt lat="44.1177082280391" lon="11.880126263909057"><ele>140.0</ele><time>2026-04-05T18:32:16.999Z</time></trkpt><trkpt lat="44.11780316487462" lon="11.880293145890269"><ele>138.75</ele><time>2026-04-05T18:32:17.999Z</time></trkpt><trkpt lat="44.1178837412606" lon="11.880466359207965"><ele>137.5</ele><time>2026-04-05T18:32:18.999Z</time></trkpt><trkpt lat="44.117917705939576" lon="11.880662857063161"><ele>136.25</ele><time>2026-04-05T18:32:19.999Z</time></trkpt><trkpt lat="44.11793543817866" lon="11.880861997776112"><ele>135.0</ele><time>2026-04-05T18:32:20.999Z</time></trkpt><trkpt lat="44.11793672298881" lon="11.881067919157239"><ele>135.0</ele><time>2026-04-05T18:32:21.999Z</time></trkpt><trkpt lat="44.11793203723329" lon="11.881294320527248"><ele>135.0</ele><time>2026-04-05T18:32:22.999Z</time></trkpt><trkpt lat="44.11792895598748" lon="11.88152502874673"><ele>135.0</ele><time>2026-04-05T18:32:23.999Z</time></trkpt><trkpt lat="44.11792739049066" lon="11.881752431777798"><ele>135.0</ele><time>2026-04-05T18:32:24.999Z</time></trkpt><trkpt lat="44.11792842283513" lon="11.881960107066064"><ele>135.0</ele><time>2026-04-05T18:32:25.999Z</time></trkpt><trkpt lat="44.117950530818646" lon="11.882152876862188"><ele>135.0</ele><time>2026-04-05T18:32:26.999Z</time></trkpt><trkpt lat="44.11797660409614" lon="11.882354666505567"><ele>135.0</ele><time>2026-04-05T18:32:27.999Z</time></trkpt><trkpt lat="44.118040075189555" lon="11.8825612595279"><ele>133.33333333333334</ele><time>2026-04-05T18:32:28.999Z</time></trkpt><trkpt lat="44.11813757635548" lon="11.882733983304167"><ele>131.66666666666669</ele><time>2026-04-05T18:32:29.999Z</time></trkpt><trkpt lat="44.11824715847" lon="11.882892560070252"><ele>130.0</ele><time>2026-04-05T18:32:30.999Z</time></trkpt><trkpt lat="44.118345437508154" lon="11.8830456400348"><ele>131.25</ele><time>2026-04-05T18:32:31.999Z</time></trkpt><trkpt lat="44.118412053234934" lon="11.883206000227805"><ele>132.5</ele><time>2026-04-05T18:32:32.999Z</time></trkpt><trkpt lat="44.118462742543706" lon="11.883365250948568"><ele>133.75</ele><time>2026-04-05T18:32:33.999Z</time></trkpt><trkpt lat="44.11849950722413" lon="11.883536123109876"><ele>135.0</ele><time>2026-04-05T18:32:34.999Z</time></trkpt><trkpt lat="44.11853475251444" lon="11.883722136598871"><ele>135.0</ele><time>2026-04-05T18:32:35.999Z</time></trkpt><trkpt lat="44.118582342271274" lon="11.883922047321073"><ele>135.0</ele><time>2026-04-05T18:32:36.999Z</time></trkpt><trkpt lat="44.11861692885449" lon="11.884128667140384"><ele>135.0</ele><time>2026-04-05T18:32:37.999Z</time></trkpt><trkpt lat="44.11865750535376" lon="11.884344473997238"><ele>135.66666666666666</ele><time>2026-04-05T18:32:38.999Z</time></trkpt><trkpt lat="44.118695187455245" lon="11.884562423462178"><ele>136.33333333333331</ele><time>2026-04-05T18:32:39.999Z</time></trkpt><trkpt lat="44.11873677909761" lon="11.884777010226383"><ele>137.0</ele><time>2026-04-05T18:32:40.999Z</time></trkpt><trkpt lat="44.11877835440097" lon="11.884981045459906"><ele>139.33333333333331</ele><time>2026-04-05T18:32:41.999Z</time></trkpt><trkpt lat="44.11881237237219" lon="11.885200340362852"><ele>141.66666666666666</ele><time>2026-04-05T18:32:42.999Z</time></trkpt><trkpt lat="44.11885361809912" lon="11.885403613292018"><ele>144.0</ele><time>2026-04-05T18:32:43.999Z</time></trkpt><trkpt lat="44.1188867573142" lon="11.88560970456451"><ele>144.0</ele><time>2026-04-05T18:32:44.999Z</time></trkpt><trkpt lat="44.11892452729603" lon="11.885794190654439"><ele>144.0</ele><time>2026-04-05T18:32:45.999Z</time></trkpt><trkpt lat="44.118954192468465" lon="11.885972590150121"><ele>144.0</ele><time>2026-04-05T18:32:46.999Z</time></trkpt><trkpt lat="44.1189872704589" lon="11.886138050460364"><ele>144.0</ele><time>2026-04-05T18:32:47.999Z</time></trkpt><trkpt lat="44.11903547805462" lon="11.886277612424033"><ele>143.25</ele><time>2026-04-05T18:32:48.999Z</time></trkpt><trkpt lat="44.11909869648352" lon="11.886409259854272"><ele>142.5</ele><time>2026-04-05T18:32:50Z</time></trkpt><trkpt lat="44.119180277340675" lon="11.886518734130279"><ele>141.75</ele><time>2026-04-05T18:32:51Z</time></trkpt><trkpt lat="44.11928818776769" lon="11.886603898267753"><ele>141.0</ele><time>2026-04-05T18:32:52Z</time></trkpt><trkpt lat="44.11940126379298" lon="11.886660729000914"><ele>141.0</ele><time>2026-04-05T18:32:53Z</time></trkpt><trkpt lat="44.11950749590213" lon="11.886710376018165"><ele>141.0</ele><time>2026-04-05T18:32:54Z</time></trkpt><trkpt lat="44.11960197956599" lon="11.886774160385302"><ele>141.0</ele><time>2026-04-05T18:32:55Z</time></trkpt><trkpt lat="44.119694716427986" lon="11.886838718366569"><ele>141.0</ele><time>2026-04-05T18:32:56Z</time></trkpt><trkpt lat="44.11978772427918" lon="11.886900481984217"><ele>141.0</ele><time>2026-04-05T18:32:57Z</time></trkpt><trkpt lat="44.119875570777346" lon="11.886957903123731"><ele>139.4</ele><time>2026-04-05T18:32:58Z</time></trkpt><trkpt lat="44.11996750043128" lon="11.887015516109969"><ele>137.8</ele><time>2026-04-05T18:32:59Z</time></trkpt><trkpt lat="44.12006151304547" lon="11.887073607519921"><ele>136.20000000000002</ele><time>2026-04-05T18:33:00Z</time></trkpt><trkpt lat="44.12015837292735" lon="11.887129040128945"><ele>134.6</ele><time>2026-04-05T18:33:01Z</time></trkpt><trkpt lat="44.12026323650041" lon="11.887185859169874"><ele>133.0</ele><time>2026-04-05T18:33:02Z</time></trkpt><trkpt lat="44.12034854031523" lon="11.88723051140265"><ele>133.0</ele><time>2026-04-05T18:33:03Z</time></trkpt><trkpt lat="44.12044014918022" lon="11.887307877960192"><ele>133.0</ele><time>2026-04-05T18:33:04Z</time></trkpt><trkpt lat="44.120535840515615" lon="11.887368062831065"><ele>133.0</ele><time>2026-04-05T18:33:05Z</time></trkpt><trkpt lat="44.120648484444736" lon="11.887438909972648"><ele>133.0</ele><time>2026-04-05T18:33:06Z</time></trkpt><trkpt lat="44.120758562935855" lon="11.887508143638312"><ele>132.75</ele><time>2026-04-05T18:33:07Z</time></trkpt><trkpt lat="44.120877580300224" lon="11.887582998695244"><ele>132.5</ele><time>2026-04-05T18:33:08Z</time></trkpt><trkpt lat="44.121012354182234" lon="11.88766707927541"><ele>132.25</ele><time>2026-04-05T18:33:09Z</time></trkpt><trkpt lat="44.12114325669882" lon="11.887748919528795"><ele>132.0</ele><time>2026-04-05T18:33:10Z</time></trkpt><trkpt lat="44.121282641746866" lon="11.88783606305984"><ele>131.66666666666666</ele><time>2026-04-05T18:33:11Z</time></trkpt><trkpt lat="44.1214335046855" lon="11.887930382661812"><ele>131.33333333333331</ele><time>2026-04-05T18:33:12Z</time></trkpt><trkpt lat="44.12157789204422" lon="11.888020652891182"><ele>131.0</ele><time>2026-04-05T18:33:13Z</time></trkpt><trkpt lat="44.12171541605943" lon="11.888107188908505"><ele>132.75</ele><time>2026-04-05T18:33:14Z</time></trkpt><trkpt lat="44.1218497467544" lon="11.888166996399145"><ele>134.5</ele><time>2026-04-05T18:33:15Z</time></trkpt><trkpt lat="44.12197149309739" lon="11.888243656457888"><ele>136.25</ele><time>2026-04-05T18:33:16Z</time></trkpt><trkpt lat="44.122082450123344" lon="11.888336440915097"><ele>138.0</ele><time>2026-04-05T18:33:17Z</time></trkpt><trkpt lat="44.1221946606528" lon="11.888412543826128"><ele>138.6</ele><time>2026-04-05T18:33:18Z</time></trkpt><trkpt lat="44.122290102490375" lon="11.888472221715555"><ele>139.20000000000002</ele><time>2026-04-05T18:33:19Z</time></trkpt><trkpt lat="44.12237925389285" lon="11.888524428340856"><ele>139.8</ele><time>2026-04-05T18:33:20Z</time></trkpt><trkpt lat="44.122488930647755" lon="11.888554602701038"><ele>140.4</ele><time>2026-04-05T18:33:21Z</time></trkpt><trkpt lat="44.12257586463411" lon="11.888607238170875"><ele>141.0</ele><time>2026-04-05T18:33:22Z</time></trkpt><trkpt lat="44.12268071741494" lon="11.888560173381315"><ele>139.0</ele><time>2026-04-05T18:33:23Z</time></trkpt><trkpt lat="44.12277561229568" lon="11.888523518784579"><ele>137.0</ele><time>2026-04-05T18:33:24Z</time></trkpt><trkpt lat="44.12286990648859" lon="11.8884596094466"><ele>135.0</ele><time>2026-04-05T18:33:25Z</time></trkpt><trkpt lat="44.122972247591385" lon="11.888408172919538"><ele>133.0</ele><time>2026-04-05T18:33:26Z</time></trkpt><trkpt lat="44.12307469264773" lon="11.88839663901155"><ele>131.0</ele><time>2026-04-05T18:33:27Z</time></trkpt><trkpt lat="44.12316543951946" lon="11.888365956389093"><ele>129.8</ele><time>2026-04-05T18:33:28Z</time></trkpt><trkpt lat="44.123260212878904" lon="11.888349799615611"><ele>128.6</ele><time>2026-04-05T18:33:29Z</time></trkpt><trkpt lat="44.123349220397834" lon="11.88838943972977"><ele>127.4</ele><time>2026-04-05T18:33:30Z</time></trkpt><trkpt lat="44.12341733248075" lon="11.888475011870232"><ele>126.2</ele><time>2026-04-05T18:33:31Z</time></trkpt><trkpt lat="44.12348601465666" lon="11.888545596327662"><ele>125.0</ele><time>2026-04-05T18:33:32Z</time></trkpt><trkpt lat="44.12356046718381" lon="11.888622043357769"><ele>124.66666666666666</ele><time>2026-04-05T18:33:33Z</time></trkpt><trkpt lat="44.12363686088865" lon="11.888699442913195"><ele>124.33333333333333</ele><time>2026-04-05T18:33:34Z</time></trkpt><trkpt lat="44.12372430443618" lon="11.888750938125263"><ele>124.0</ele><time>2026-04-05T18:33:35Z</time></trkpt><trkpt lat="44.123794527359905" lon="11.888809434790767"><ele>123.66666666666666</ele><time>2026-04-05T18:33:36Z</time></trkpt><trkpt lat="44.12386980347" lon="11.888853392914056"><ele>123.33333333333333</ele><time>2026-04-05T18:33:37Z</time></trkpt><trkpt lat="44.12395987594699" lon="11.888864560449399"><ele>123.0</ele><time>2026-04-05T18:33:38Z</time></trkpt><trkpt lat="44.124050365232016" lon="11.888858987064573"><ele>123.60000000000001</ele><time>2026-04-05T18:33:39Z</time></trkpt><trkpt lat="44.12414381149085" lon="11.88880931910879"><ele>124.20000000000002</ele><time>2026-04-05T18:33:40Z</time></trkpt><trkpt lat="44.12422819035963" lon="11.888746239241614"><ele>124.8</ele><time>2026-04-05T18:33:41Z</time></trkpt><trkpt lat="44.124289468377015" lon="11.888660451740064"><ele>125.4</ele><time>2026-04-05T18:33:42Z</time></trkpt><trkpt lat="44.124339024228014" lon="11.888568792285147"><ele>126.0</ele><time>2026-04-05T18:33:43Z</time></trkpt><trkpt lat="44.12441482459278" lon="11.888499171272072"><ele>126.0</ele><time>2026-04-05T18:33:44Z</time></trkpt><trkpt lat="44.124498481294374" lon="11.888449399471206"><ele>126.0</ele><time>2026-04-05T18:33:45Z</time></trkpt><trkpt lat="44.1245982962493" lon="11.888450307307167"><ele>126.0</ele><time>2026-04-05T18:33:46Z</time></trkpt><trkpt lat="44.124712237670145" lon="11.88848033859172"><ele>126.0</ele><time>2026-04-05T18:33:47Z</time></trkpt><trkpt lat="44.12480642970533" lon="11.888554589434946"><ele>126.0</ele><time>2026-04-05T18:33:48Z</time></trkpt><trkpt lat="44.12491468268612" lon="11.888594717719641"><ele>127.66666666666667</ele><time>2026-04-05T18:33:49Z</time></trkpt><trkpt lat="44.124981588824845" lon="11.888691950328594"><ele>129.33333333333334</ele><time>2026-04-05T18:33:50Z</time></trkpt><trkpt lat="44.12504795932321" lon="11.888763150942681"><ele>131.0</ele><time>2026-04-05T18:33:51Z</time></trkpt><trkpt lat="44.12511537712144" lon="11.888829356767358"><ele>132.66666666666669</ele><time>2026-04-05T18:33:52Z</time></trkpt><trkpt lat="44.12517247751584" lon="11.88892523361532"><ele>134.33333333333334</ele><time>2026-04-05T18:33:53Z</time></trkpt><trkpt lat="44.125245973026246" lon="11.888998474721966"><ele>136.0</ele><time>2026-04-05T18:33:54Z</time></trkpt><trkpt lat="44.125321029754836" lon="11.889073062277317"><ele>136.0</ele><time>2026-04-05T18:33:55Z</time></trkpt><trkpt lat="44.12540213511089" lon="11.889152537875193"><ele>136.0</ele><time>2026-04-05T18:33:56Z</time></trkpt><trkpt lat="44.12548295702028" lon="11.889231735775716"><ele>136.0</ele><time>2026-04-05T18:33:57Z</time></trkpt><trkpt lat="44.12556242700658" lon="11.889309608838303"><ele>136.0</ele><time>2026-04-05T18:33:57.999Z</time></trkpt><trkpt lat="44.12562374641675" lon="11.889369696121626"><ele>136.0</ele><time>2026-04-05T18:33:58.999Z</time></trkpt><trkpt lat="44.125714785409336" lon="11.8894405285866"><ele>135.6</ele><time>2026-04-05T18:34:00.999Z</time></trkpt><trkpt lat="44.125785095261655" lon="11.889528967286273"><ele>135.2</ele><time>2026-04-05T18:34:45.999Z</time></trkpt><trkpt lat="44.125851092822224" lon="11.889594461213944"><ele>134.8</ele><time>2026-04-05T18:34:46.999Z</time></trkpt><trkpt lat="44.12593297012715" lon="11.889675713687856"><ele>134.4</ele><time>2026-04-05T18:34:47.999Z</time></trkpt><trkpt lat="44.12599438083474" lon="11.889736655753696"><ele>134.0</ele><time>2026-04-05T18:34:48.999Z</time></trkpt><trkpt lat="44.126099120115185" lon="11.889841113538191"><ele>134.0</ele><time>2026-04-05T18:34:49.999Z</time></trkpt><trkpt lat="44.12621204901783" lon="11.889954044048999"><ele>134.0</ele><time>2026-04-05T18:34:50.999Z</time></trkpt><trkpt lat="44.126315217121295" lon="11.890057365215075"><ele>134.0</ele><time>2026-04-05T18:34:51.999Z</time></trkpt><trkpt lat="44.12641944766748" lon="11.890174098943106"><ele>134.0</ele><time>2026-04-05T18:34:52.999Z</time></trkpt><trkpt lat="44.12652209032475" lon="11.890298081352503"><ele>134.0</ele><time>2026-04-05T18:34:53.999Z</time></trkpt><trkpt lat="44.12662157825382" lon="11.890433126008634"><ele>134.0</ele><time>2026-04-05T18:34:54.999Z</time></trkpt><trkpt lat="44.126711099657086" lon="11.890575653302372"><ele>134.0</ele><time>2026-04-05T18:34:56Z</time></trkpt><trkpt lat="44.12678617664825" lon="11.890727592577766"><ele>134.0</ele><time>2026-04-05T18:34:57Z</time></trkpt><trkpt lat="44.12684753709382" lon="11.890888660988466"><ele>132.5</ele><time>2026-04-05T18:34:58Z</time></trkpt><trkpt lat="44.126880780491234" lon="11.89104355263845"><ele>131.0</ele><time>2026-04-05T18:34:59Z</time></trkpt><trkpt lat="44.12691521815825" lon="11.891213764987445"><ele>129.5</ele><time>2026-04-05T18:35:00Z</time></trkpt><trkpt lat="44.12694882430519" lon="11.891388133172807"><ele>128.0</ele><time>2026-04-05T18:35:01Z</time></trkpt><trkpt lat="44.12700768160015" lon="11.891569104584255"><ele>128.0</ele><time>2026-04-05T18:35:02Z</time></trkpt><trkpt lat="44.127095193364056" lon="11.891739901640399"><ele>128.0</ele><time>2026-04-05T18:35:03Z</time></trkpt><trkpt lat="44.1271758997151" lon="11.891923238489417"><ele>128.0</ele><time>2026-04-05T18:35:04Z</time></trkpt><trkpt lat="44.127254725071026" lon="11.892131795421108"><ele>129.0</ele><time>2026-04-05T18:35:05Z</time></trkpt><trkpt lat="44.127376317713164" lon="11.892310939558296"><ele>130.0</ele><time>2026-04-05T18:35:06Z</time></trkpt><trkpt lat="44.12749765034243" lon="11.892508314944951"><ele>131.0</ele><time>2026-04-05T18:35:07Z</time></trkpt><trkpt lat="44.12762328250353" lon="11.892724430236719"><ele>133.66666666666666</ele><time>2026-04-05T18:35:08Z</time></trkpt><trkpt lat="44.127730634722305" lon="11.892957071599612"><ele>136.33333333333334</ele><time>2026-04-05T18:35:09Z</time></trkpt><trkpt lat="44.12785164297293" lon="11.893189132979886"><ele>139.0</ele><time>2026-04-05T18:35:10Z</time></trkpt><trkpt lat="44.12796453491085" lon="11.893431631870106"><ele>139.0</ele><time>2026-04-05T18:35:11Z</time></trkpt><trkpt lat="44.128075030408176" lon="11.893684460694828"><ele>139.0</ele><time>2026-04-05T18:35:12Z</time></trkpt><trkpt lat="44.12818524332822" lon="11.893947960343256"><ele>139.0</ele><time>2026-04-05T18:35:13Z</time></trkpt><trkpt lat="44.128275844964755" lon="11.89421554796097"><ele>138.66666666666669</ele><time>2026-04-05T18:35:14Z</time></trkpt><trkpt lat="44.128343643502824" lon="11.894496642945725"><ele>138.33333333333334</ele><time>2026-04-05T18:35:15Z</time></trkpt><trkpt lat="44.12840970834481" lon="11.894791585970202"><ele>138.0</ele><time>2026-04-05T18:35:16Z</time></trkpt><trkpt lat="44.12847728602757" lon="11.895095106650242"><ele>138.0</ele><time>2026-04-05T18:35:17Z</time></trkpt><trkpt lat="44.12855303209384" lon="11.895397545012486"><ele>138.0</ele><time>2026-04-05T18:35:18Z</time></trkpt><trkpt lat="44.12863285331161" lon="11.895674380274093"><ele>138.0</ele><time>2026-04-05T18:35:19Z</time></trkpt><trkpt lat="44.12871437479113" lon="11.895922595639888"><ele>137.0</ele><time>2026-04-05T18:35:20Z</time></trkpt><trkpt lat="44.128793138351185" lon="11.896157950241989"><ele>136.0</ele><time>2026-04-05T18:35:21Z</time></trkpt><trkpt lat="44.12887288172213" lon="11.896393452487812"><ele>135.0</ele><time>2026-04-05T18:35:22Z</time></trkpt><trkpt lat="44.128961691562445" lon="11.896606206966887"><ele>134.33333333333334</ele><time>2026-04-05T18:35:23Z</time></trkpt><trkpt lat="44.12904294108375" lon="11.896814274774028"><ele>133.66666666666669</ele><time>2026-04-05T18:35:24Z</time></trkpt><trkpt lat="44.129144358661954" lon="11.896995043552495"><ele>133.0</ele><time>2026-04-05T18:35:25Z</time></trkpt><trkpt lat="44.12929473062104" lon="11.897132115316507"><ele>132.66666666666669</ele><time>2026-04-05T18:35:26Z</time></trkpt><trkpt lat="44.12946452826544" lon="11.897279888110171"><ele>132.33333333333334</ele><time>2026-04-05T18:35:27Z</time></trkpt><trkpt lat="44.12963396405143" lon="11.8974395405958"><ele>132.0</ele><time>2026-04-05T18:35:28Z</time></trkpt><trkpt lat="44.12980930741842" lon="11.897617851788572"><ele>134.0</ele><time>2026-04-05T18:35:29Z</time></trkpt><trkpt lat="44.129988887791995" lon="11.897801828770023"><ele>136.0</ele><time>2026-04-05T18:35:30Z</time></trkpt><trkpt lat="44.13017245894187" lon="11.897992867644358"><ele>136.0</ele><time>2026-04-05T18:35:31Z</time></trkpt><trkpt lat="44.13035449577605" lon="11.898174571906688"><ele>136.0</ele><time>2026-04-05T18:35:32Z</time></trkpt><trkpt lat="44.13053647978222" lon="11.898359079763235"><ele>136.0</ele><time>2026-04-05T18:35:33Z</time></trkpt><trkpt lat="44.13072095890141" lon="11.898545614490137"><ele>134.0</ele><time>2026-04-05T18:35:34Z</time></trkpt><trkpt lat="44.13090801890204" lon="11.89872764743156"><ele>132.0</ele><time>2026-04-05T18:35:35Z</time></trkpt><trkpt lat="44.13109306002454" lon="11.898915787952868"><ele>132.0</ele><time>2026-04-05T18:35:36Z</time></trkpt><trkpt lat="44.13127226648009" lon="11.899102286658207"><ele>132.0</ele><time>2026-04-05T18:35:37Z</time></trkpt><trkpt lat="44.13145002186277" lon="11.899272594380168"><ele>132.0</ele><time>2026-04-05T18:35:38Z</time></trkpt><trkpt lat="44.1316212086722" lon="11.899438465397322"><ele>132.66666666666666</ele><time>2026-04-05T18:35:39Z</time></trkpt><trkpt lat="44.131766237808755" lon="11.899623741116736"><ele>133.33333333333331</ele><time>2026-04-05T18:35:40Z</time></trkpt><trkpt lat="44.13190779436582" lon="11.899810923347252"><ele>134.0</ele><time>2026-04-05T18:35:41Z</time></trkpt><trkpt lat="44.13204870376002" lon="11.90001923893568"><ele>130.5</ele><time>2026-04-05T18:35:42Z</time></trkpt><trkpt lat="44.132192019901055" lon="11.900256308182447"><ele>127.0</ele><time>2026-04-05T18:35:43Z</time></trkpt><trkpt lat="44.13233631362396" lon="11.90051893243976"><ele>125.0</ele><time>2026-04-05T18:35:44Z</time></trkpt><trkpt lat="44.132479543639526" lon="11.900793875144938"><ele>123.0</ele><time>2026-04-05T18:35:45Z</time></trkpt><trkpt lat="44.132636335588124" lon="11.901072816033327"><ele>123.0</ele><time>2026-04-05T18:35:46Z</time></trkpt><trkpt lat="44.13278636143677" lon="11.901380173016202"><ele>123.0</ele><time>2026-04-05T18:35:47Z</time></trkpt><trkpt lat="44.132928496665" lon="11.901679724396969"><ele>117.5</ele><time>2026-04-05T18:35:48Z</time></trkpt><trkpt lat="44.133075463586664" lon="11.901986360746635"><ele>112.0</ele><time>2026-04-05T18:35:49Z</time></trkpt><trkpt lat="44.13322179960308" lon="11.902293661040773"><ele>113.5</ele><time>2026-04-05T18:35:50Z</time></trkpt><trkpt lat="44.13336681781988" lon="11.90259292555526"><ele>115.0</ele><time>2026-04-05T18:35:51Z</time></trkpt><trkpt lat="44.13351296280432" lon="11.902896892200026"><ele>115.0</ele><time>2026-04-05T18:35:52Z</time></trkpt><trkpt lat="44.13366039515291" lon="11.903204948337418"><ele>115.0</ele><time>2026-04-05T18:35:53Z</time></trkpt><trkpt lat="44.13380723530219" lon="11.903508447237783"><ele>111.0</ele><time>2026-04-05T18:35:54Z</time></trkpt><trkpt lat="44.13395837628833" lon="11.903817205289599"><ele>107.0</ele><time>2026-04-05T18:35:55Z</time></trkpt><trkpt lat="44.13410668396841" lon="11.90412024880065"><ele>110.5</ele><time>2026-04-05T18:35:56Z</time></trkpt><trkpt lat="44.13425950058831" lon="11.904415976886751"><ele>114.0</ele><time>2026-04-05T18:35:57Z</time></trkpt><trkpt lat="44.13442698840013" lon="11.904700126984146"><ele>114.0</ele><time>2026-04-05T18:35:58Z</time></trkpt><trkpt lat="44.13460830677657" lon="11.90497135720308"><ele>114.0</ele><time>2026-04-05T18:35:59Z</time></trkpt><trkpt lat="44.134803176303805" lon="11.905241731039293"><ele>117.5</ele><time>2026-04-05T18:36:00Z</time></trkpt><trkpt lat="44.13500148220974" lon="11.905484513888618"><ele>121.0</ele><time>2026-04-05T18:36:01Z</time></trkpt><trkpt lat="44.13521470701161" lon="11.905712545436812"><ele>116.5</ele><time>2026-04-05T18:36:02Z</time></trkpt><trkpt lat="44.135449942183385" lon="11.90592596202419"><ele>112.0</ele><time>2026-04-05T18:36:03Z</time></trkpt><trkpt lat="44.13568787209405" lon="11.906125162280214"><ele>111.5</ele><time>2026-04-05T18:36:03.999Z</time></trkpt><trkpt lat="44.13593011414435" lon="11.906314132965107"><ele>111.0</ele><time>2026-04-05T18:36:04.999Z</time></trkpt><trkpt lat="44.136173285656234" lon="11.906497145754605"><ele>111.0</ele><time>2026-04-05T18:36:05.999Z</time></trkpt><trkpt lat="44.136415705034" lon="11.906698339783656"><ele>111.0</ele><time>2026-04-05T18:36:06.999Z</time></trkpt><trkpt lat="44.136656388598716" lon="11.906900184002765"><ele>108.5</ele><time>2026-04-05T18:36:07.999Z</time></trkpt><trkpt lat="44.13689725091439" lon="11.90709903678496"><ele>106.0</ele><time>2026-04-05T18:36:08.999Z</time></trkpt><trkpt lat="44.137138000435314" lon="11.90730213767002"><ele>106.0</ele><time>2026-04-05T18:36:09.999Z</time></trkpt><trkpt lat="44.137381794700076" lon="11.907506086310006"><ele>106.0</ele><time>2026-04-05T18:36:10.999Z</time></trkpt><trkpt lat="44.137627330419846" lon="11.907712400909766"><ele>105.0</ele><time>2026-04-05T18:36:11.999Z</time></trkpt><trkpt lat="44.13787517905697" lon="11.907918646215245"><ele>104.0</ele><time>2026-04-05T18:36:12.999Z</time></trkpt><trkpt lat="44.13812564829614" lon="11.908127717282023"><ele>108.5</ele><time>2026-04-05T18:36:13.999Z</time></trkpt><trkpt lat="44.13836970414499" lon="11.908314210227255"><ele>113.0</ele><time>2026-04-05T18:36:14.999Z</time></trkpt><trkpt lat="44.13862214743649" lon="11.908525720411875"><ele>113.0</ele><time>2026-04-05T18:36:15.999Z</time></trkpt><trkpt lat="44.13886674912994" lon="11.908723204239282"><ele>113.0</ele><time>2026-04-05T18:36:16.999Z</time></trkpt><trkpt lat="44.13911282805741" lon="11.9089231334308"><ele>114.5</ele><time>2026-04-05T18:36:17.999Z</time></trkpt><trkpt lat="44.139365898126094" lon="11.90913393982109"><ele>116.0</ele><time>2026-04-05T18:36:18.999Z</time></trkpt><trkpt lat="44.139614726424924" lon="11.909338237056394"><ele>112.0</ele><time>2026-04-05T18:36:19.999Z</time></trkpt><trkpt lat="44.13986008801827" lon="11.909522544351098"><ele>108.0</ele><time>2026-04-05T18:36:20.999Z</time></trkpt><trkpt lat="44.14010435499117" lon="11.90974993007137"><ele>108.0</ele><time>2026-04-05T18:36:21.999Z</time></trkpt><trkpt lat="44.14034209630023" lon="11.90998040476739"><ele>108.0</ele><time>2026-04-05T18:36:22.999Z</time></trkpt><trkpt lat="44.14057005146795" lon="11.910218791626997"><ele>109.0</ele><time>2026-04-05T18:36:23.999Z</time></trkpt><trkpt lat="44.14078617806931" lon="11.910482486129078"><ele>110.0</ele><time>2026-04-05T18:36:24.999Z</time></trkpt><trkpt lat="44.14099789405374" lon="11.910744834283928"><ele>104.5</ele><time>2026-04-05T18:36:25.999Z</time></trkpt><trkpt lat="44.14119307783408" lon="11.911031415102071"><ele>99.0</ele><time>2026-04-05T18:36:26.999Z</time></trkpt><trkpt lat="44.1413804888373" lon="11.911342155402759"><ele>105.0</ele><time>2026-04-05T18:36:27.999Z</time></trkpt><trkpt lat="44.141564297951945" lon="11.911649653398868"><ele>111.0</ele><time>2026-04-05T18:36:28.999Z</time></trkpt><trkpt lat="44.14174465823127" lon="11.911978064787258"><ele>111.0</ele><time>2026-04-05T18:36:29.999Z</time></trkpt><trkpt lat="44.14193363746059" lon="11.912299867319277"><ele>111.0</ele><time>2026-04-05T18:36:30.999Z</time></trkpt><trkpt lat="44.14211969910169" lon="11.912624193086586"><ele>112.0</ele><time>2026-04-05T18:36:31.999Z</time></trkpt><trkpt lat="44.14230759190318" lon="11.912948814846487"><ele>113.0</ele><time>2026-04-05T18:36:32.999Z</time></trkpt><trkpt lat="44.14249623344382" lon="11.913274465778093"><ele>111.5</ele><time>2026-04-05T18:36:33.999Z</time></trkpt><trkpt lat="44.142686689398204" lon="11.913597554367534"><ele>110.0</ele><time>2026-04-05T18:36:34.999Z</time></trkpt><trkpt lat="44.14287669968896" lon="11.913925054484185"><ele>110.5</ele><time>2026-04-05T18:36:35.999Z</time></trkpt><trkpt lat="44.143065468199055" lon="11.914245909375214"><ele>111.0</ele><time>2026-04-05T18:36:36.999Z</time></trkpt><trkpt lat="44.14325430092461" lon="11.914555442813816"><ele>111.0</ele><time>2026-04-05T18:36:37.999Z</time></trkpt><trkpt lat="44.14345915326754" lon="11.914842198788135"><ele>111.0</ele><time>2026-04-05T18:36:38.999Z</time></trkpt><trkpt lat="44.143678249073574" lon="11.915115139537761"><ele>109.5</ele><time>2026-04-05T18:36:39.999Z</time></trkpt><trkpt lat="44.14390870378572" lon="11.91537828573894"><ele>108.0</ele><time>2026-04-05T18:36:40.999Z</time></trkpt><trkpt lat="44.14414613841529" lon="11.915625427642057"><ele>108.0</ele><time>2026-04-05T18:36:41.999Z</time></trkpt><trkpt lat="44.1443905186378" lon="11.915863787264449"><ele>108.0</ele><time>2026-04-05T18:36:42.999Z</time></trkpt><trkpt lat="44.14463684588472" lon="11.916105879018394"><ele>108.0</ele><time>2026-04-05T18:36:43.999Z</time></trkpt><trkpt lat="44.14488432691487" lon="11.916351261633855"><ele>108.0</ele><time>2026-04-05T18:36:44.999Z</time></trkpt><trkpt lat="44.14513057684913" lon="11.916596457272885"><ele>108.0</ele><time>2026-04-05T18:36:45.999Z</time></trkpt><trkpt lat="44.14537782236355" lon="11.916843826567186"><ele>108.0</ele><time>2026-04-05T18:36:46.999Z</time></trkpt><trkpt lat="44.14562187834784" lon="11.917089640229591"><ele>107.0</ele><time>2026-04-05T18:36:47.999Z</time></trkpt><trkpt lat="44.145862415013525" lon="11.91733401644353"><ele>106.0</ele><time>2026-04-05T18:36:48.999Z</time></trkpt><trkpt lat="44.14610365040754" lon="11.917581529390565"><ele>104.5</ele><time>2026-04-05T18:36:49.999Z</time></trkpt><trkpt lat="44.14634789780305" lon="11.917832007215683"><ele>103.0</ele><time>2026-04-05T18:36:50.999Z</time></trkpt><trkpt lat="44.14658401592128" lon="11.91809029160943"><ele>103.0</ele><time>2026-04-05T18:36:51.999Z</time></trkpt><trkpt lat="44.14681112562415" lon="11.918367433668765"><ele>103.0</ele><time>2026-04-05T18:36:52.999Z</time></trkpt><trkpt lat="44.147023450717015" lon="11.918662266397442"><ele>102.5</ele><time>2026-04-05T18:36:53.999Z</time></trkpt><trkpt lat="44.14722881070935" lon="11.9189658392875"><ele>102.0</ele><time>2026-04-05T18:36:54.999Z</time></trkpt><trkpt lat="44.14742796917547" lon="11.919272623645405"><ele>100.5</ele><time>2026-04-05T18:36:55.999Z</time></trkpt><trkpt lat="44.14762678833137" lon="11.91957749650699"><ele>99.0</ele><time>2026-04-05T18:36:56.999Z</time></trkpt><trkpt lat="44.14782423932871" lon="11.919872861793346"><ele>97.5</ele><time>2026-04-05T18:36:57.999Z</time></trkpt><trkpt lat="44.148021216436206" lon="11.920164132221515"><ele>96.0</ele><time>2026-04-05T18:36:58.999Z</time></trkpt><trkpt lat="44.14820707933343" lon="11.920442913121484"><ele>96.5</ele><time>2026-04-05T18:36:59.999Z</time></trkpt><trkpt lat="44.14839216877879" lon="11.920718493804687"><ele>97.0</ele><time>2026-04-05T18:37:01Z</time></trkpt><trkpt lat="44.14858009375537" lon="11.920993374547807"><ele>97.0</ele><time>2026-04-05T18:37:02Z</time></trkpt><trkpt lat="44.148770279981875" lon="11.921268637598187"><ele>97.0</ele><time>2026-04-05T18:37:03Z</time></trkpt><trkpt lat="44.148955874046095" lon="11.921542798883415"><ele>99.5</ele><time>2026-04-05T18:37:04Z</time></trkpt><trkpt lat="44.14913764851206" lon="11.921810402095158"><ele>102.0</ele><time>2026-04-05T18:37:05Z</time></trkpt><trkpt lat="44.14932588579028" lon="11.922088404136083"><ele>102.0</ele><time>2026-04-05T18:37:06Z</time></trkpt><trkpt lat="44.149505605699396" lon="11.922377696317016"><ele>102.0</ele><time>2026-04-05T18:37:07Z</time></trkpt><trkpt lat="44.149693279480914" lon="11.922662475772796"><ele>103.5</ele><time>2026-04-05T18:37:08Z</time></trkpt><trkpt lat="44.149882830801616" lon="11.922944002259127"><ele>105.0</ele><time>2026-04-05T18:37:09Z</time></trkpt><trkpt lat="44.15007087804467" lon="11.923222238705025"><ele>103.0</ele><time>2026-04-05T18:37:10Z</time></trkpt><trkpt lat="44.150264437965525" lon="11.923507815731508"><ele>101.0</ele><time>2026-04-05T18:37:11Z</time></trkpt><trkpt lat="44.15046828461745" lon="11.923777079013247"><ele>101.0</ele><time>2026-04-05T18:37:12Z</time></trkpt><trkpt lat="44.15064265266114" lon="11.924045020108077"><ele>101.0</ele><time>2026-04-05T18:37:13Z</time></trkpt><trkpt lat="44.15080417966676" lon="11.924327636250876"><ele>100.0</ele><time>2026-04-05T18:37:14Z</time></trkpt><trkpt lat="44.1509569663138" lon="11.924622837589917"><ele>99.0</ele><time>2026-04-05T18:37:15Z</time></trkpt><trkpt lat="44.15109325287124" lon="11.924927941959666"><ele>99.5</ele><time>2026-04-05T18:37:16Z</time></trkpt><trkpt lat="44.151217631915635" lon="11.925250835940439"><ele>100.0</ele><time>2026-04-05T18:37:17Z</time></trkpt><trkpt lat="44.15133011053262" lon="11.925582405116005"><ele>97.5</ele><time>2026-04-05T18:37:18Z</time></trkpt><trkpt lat="44.151428603487716" lon="11.925923089706343"><ele>95.0</ele><time>2026-04-05T18:37:19Z</time></trkpt><trkpt lat="44.151519608902845" lon="11.926275910692429"><ele>93.5</ele><time>2026-04-05T18:37:20Z</time></trkpt><trkpt lat="44.15161591416833" lon="11.92663332857141"><ele>92.0</ele><time>2026-04-05T18:37:21Z</time></trkpt><trkpt lat="44.15169768294024" lon="11.92701100285099"><ele>90.5</ele><time>2026-04-05T18:37:22Z</time></trkpt><trkpt lat="44.151781607683056" lon="11.9273829058257"><ele>89.0</ele><time>2026-04-05T18:37:23Z</time></trkpt><trkpt lat="44.151861401616074" lon="11.927759422968162"><ele>87.0</ele><time>2026-04-05T18:37:24Z</time></trkpt><trkpt lat="44.15195160045744" lon="11.928134688411665"><ele>85.0</ele><time>2026-04-05T18:37:25Z</time></trkpt><trkpt lat="44.15205234160559" lon="11.928501966042509"><ele>83.5</ele><time>2026-04-05T18:37:26Z</time></trkpt><trkpt lat="44.15216970067839" lon="11.928868877473601"><ele>82.0</ele><time>2026-04-05T18:37:27Z</time></trkpt><trkpt lat="44.152285132612796" lon="11.929242283348888"><ele>85.0</ele><time>2026-04-05T18:37:28Z</time></trkpt><trkpt lat="44.15242336028164" lon="11.929592416335671"><ele>88.0</ele><time>2026-04-05T18:37:29Z</time></trkpt><trkpt lat="44.152574688963945" lon="11.92994167775444"><ele>89.0</ele><time>2026-04-05T18:37:30Z</time></trkpt><trkpt lat="44.15275126999095" lon="11.930273556769569"><ele>90.0</ele><time>2026-04-05T18:37:31Z</time></trkpt><trkpt lat="44.1529232527834" lon="11.93060588780914"><ele>90.0</ele><time>2026-04-05T18:37:32Z</time></trkpt><trkpt lat="44.15308556598987" lon="11.930952939395493"><ele>90.0</ele><time>2026-04-05T18:37:33Z</time></trkpt><trkpt lat="44.15326290695922" lon="11.931286359827928"><ele>90.0</ele><time>2026-04-05T18:37:34Z</time></trkpt><trkpt lat="44.153443377104125" lon="11.931615129957121"><ele>90.0</ele><time>2026-04-05T18:37:35Z</time></trkpt><trkpt lat="44.153744409416404" lon="11.93182310871448"><ele>89.5</ele><time>2026-04-05T18:37:36Z</time></trkpt><trkpt lat="44.15397997747466" lon="11.932098073649872"><ele>89.0</ele><time>2026-04-05T18:37:37Z</time></trkpt><trkpt lat="44.15422533408614" lon="11.932356269055825"><ele>89.5</ele><time>2026-04-05T18:37:38Z</time></trkpt><trkpt lat="44.154478290894964" lon="11.932602454290189"><ele>90.0</ele><time>2026-04-05T18:37:39Z</time></trkpt><trkpt lat="44.154734148279516" lon="11.932845129023207"><ele>88.5</ele><time>2026-04-05T18:37:40Z</time></trkpt><trkpt lat="44.154988107161586" lon="11.933089826673964"><ele>87.0</ele><time>2026-04-05T18:37:41Z</time></trkpt><trkpt lat="44.15524014189531" lon="11.933338644785167"><ele>86.0</ele><time>2026-04-05T18:37:42Z</time></trkpt><trkpt lat="44.15548970814806" lon="11.933582744211888"><ele>85.0</ele><time>2026-04-05T18:37:43Z</time></trkpt><trkpt lat="44.15573509046047" lon="11.933822147774938"><ele>84.5</ele><time>2026-04-05T18:37:44Z</time></trkpt><trkpt lat="44.15597220832978" lon="11.934057216106286"><ele>84.0</ele><time>2026-04-05T18:37:45Z</time></trkpt><trkpt lat="44.15619850970601" lon="11.934288792771543"><ele>83.5</ele><time>2026-04-05T18:37:46Z</time></trkpt><trkpt lat="44.15642372436374" lon="11.934539653975005"><ele>83.0</ele><time>2026-04-05T18:37:47Z</time></trkpt><trkpt lat="44.156638706769265" lon="11.934806366495657"><ele>82.5</ele><time>2026-04-05T18:37:48Z</time></trkpt><trkpt lat="44.15684125350785" lon="11.935102518040479"><ele>82.0</ele><time>2026-04-05T18:37:49Z</time></trkpt><trkpt lat="44.15703582057982" lon="11.935406935777245"><ele>82.0</ele><time>2026-04-05T18:37:50Z</time></trkpt><trkpt lat="44.15722171271987" lon="11.93572938529227"><ele>82.0</ele><time>2026-04-05T18:37:51Z</time></trkpt><trkpt lat="44.15740531220212" lon="11.936065487059427"><ele>80.5</ele><time>2026-04-05T18:37:52Z</time></trkpt><trkpt lat="44.1575862037135" lon="11.936396810906631"><ele>79.0</ele><time>2026-04-05T18:37:53Z</time></trkpt><trkpt lat="44.157773425543354" lon="11.936722604620005"><ele>78.5</ele><time>2026-04-05T18:37:54Z</time></trkpt><trkpt lat="44.157954923449154" lon="11.937044635329924"><ele>78.0</ele><time>2026-04-05T18:37:55Z</time></trkpt><trkpt lat="44.15812873973663" lon="11.937354503092266"><ele>77.0</ele><time>2026-04-05T18:37:56Z</time></trkpt><trkpt lat="44.15830131166077" lon="11.937650184166063"><ele>76.0</ele><time>2026-04-05T18:37:57Z</time></trkpt><trkpt lat="44.15849146713518" lon="11.937934324725996"><ele>76.0</ele><time>2026-04-05T18:37:58Z</time></trkpt><trkpt lat="44.158698730279546" lon="11.93820594633588"><ele>76.0</ele><time>2026-04-05T18:37:59Z</time></trkpt><trkpt lat="44.15892484962559" lon="11.938448773093265"><ele>73.0</ele><time>2026-04-05T18:38:00Z</time></trkpt><trkpt lat="44.159180515422634" lon="11.938675202722546"><ele>70.0</ele><time>2026-04-05T18:38:01Z</time></trkpt><trkpt lat="44.1594310269476" lon="11.938871033663892"><ele>70.0</ele><time>2026-04-05T18:38:02Z</time></trkpt><trkpt lat="44.15969562604131" lon="11.939065699383256"><ele>70.0</ele><time>2026-04-05T18:38:03Z</time></trkpt><trkpt lat="44.15996137925116" lon="11.939258621346015"><ele>69.0</ele><time>2026-04-05T18:38:04Z</time></trkpt><trkpt lat="44.16020688892012" lon="11.939441063663908"><ele>68.0</ele><time>2026-04-05T18:38:05Z</time></trkpt><trkpt lat="44.16043816593377" lon="11.939609901358482"><ele>68.0</ele><time>2026-04-05T18:38:06Z</time></trkpt><trkpt lat="44.16066668478385" lon="11.939780267536328"><ele>68.0</ele><time>2026-04-05T18:38:07Z</time></trkpt><trkpt lat="44.16089741771111" lon="11.939955057374743"><ele>68.0</ele><time>2026-04-05T18:38:08Z</time></trkpt><trkpt lat="44.161125615229466" lon="11.940128345443686"><ele>68.0</ele><time>2026-04-05T18:38:09Z</time></trkpt><trkpt lat="44.161361702382486" lon="11.940304462744173"><ele>70.0</ele><time>2026-04-05T18:38:10Z</time></trkpt><trkpt lat="44.16160070649589" lon="11.94048075056651"><ele>72.0</ele><time>2026-04-05T18:38:10.999Z</time></trkpt><trkpt lat="44.161839235265525" lon="11.940658567085933"><ele>72.0</ele><time>2026-04-05T18:38:11.999Z</time></trkpt><trkpt lat="44.16207791335854" lon="11.940834961031392"><ele>72.0</ele><time>2026-04-05T18:38:12.999Z</time></trkpt><trkpt lat="44.16231407302555" lon="11.941010772316108"><ele>72.5</ele><time>2026-04-05T18:38:13.999Z</time></trkpt><trkpt lat="44.16255453397204" lon="11.941192984797226"><ele>73.0</ele><time>2026-04-05T18:38:14.999Z</time></trkpt><trkpt lat="44.162782667895236" lon="11.941363630917454"><ele>73.0</ele><time>2026-04-05T18:38:15.999Z</time></trkpt><trkpt lat="44.1630096856365" lon="11.941530182294537"><ele>73.0</ele><time>2026-04-05T18:38:16.999Z</time></trkpt><trkpt lat="44.163218594751164" lon="11.941694496823759"><ele>73.0</ele><time>2026-04-05T18:38:17.999Z</time></trkpt><trkpt lat="44.16341534302905" lon="11.941846655309247"><ele>73.0</ele><time>2026-04-05T18:38:18.999Z</time></trkpt><trkpt lat="44.16359701730869" lon="11.941997063818155"><ele>73.0</ele><time>2026-04-05T18:38:19.999Z</time></trkpt><trkpt lat="44.16375335339026" lon="11.942147782713244"><ele>73.0</ele><time>2026-04-05T18:38:20.999Z</time></trkpt><trkpt lat="44.16388112657085" lon="11.942283311645603"><ele>73.0</ele><time>2026-04-05T18:38:21.999Z</time></trkpt><trkpt lat="44.164088825976435" lon="11.94248731284064"><ele>73.0</ele><time>2026-04-05T18:38:22.999Z</time></trkpt><trkpt lat="44.16423645300126" lon="11.942670983748163"><ele>74.0</ele><time>2026-04-05T18:38:23.999Z</time></trkpt><trkpt lat="44.16438632623705" lon="11.942872064665284"><ele>75.0</ele><time>2026-04-05T18:38:24.999Z</time></trkpt><trkpt lat="44.16452148116249" lon="11.943096271082828"><ele>76.0</ele><time>2026-04-05T18:38:25.999Z</time></trkpt><trkpt lat="44.164639470803614" lon="11.943331059564438"><ele>75.33333333333333</ele><time>2026-04-05T18:38:26.999Z</time></trkpt><trkpt lat="44.16475463153534" lon="11.943582778344716"><ele>74.66666666666667</ele><time>2026-04-05T18:38:27.999Z</time></trkpt><trkpt lat="44.16486441708479" lon="11.943844905580017"><ele>74.0</ele><time>2026-04-05T18:38:28.999Z</time></trkpt><trkpt lat="44.16496335838992" lon="11.944122692666946"><ele>71.0</ele><time>2026-04-05T18:38:29.999Z</time></trkpt><trkpt lat="44.165053981465064" lon="11.944414675672167"><ele>68.0</ele><time>2026-04-05T18:38:30.999Z</time></trkpt><trkpt lat="44.16513285086156" lon="11.944723567374503"><ele>68.0</ele><time>2026-04-05T18:38:31.999Z</time></trkpt><trkpt lat="44.16519862215441" lon="11.945043955959042"><ele>68.0</ele><time>2026-04-05T18:38:32.999Z</time></trkpt><trkpt lat="44.16525409039974" lon="11.945385758668166"><ele>68.0</ele><time>2026-04-05T18:38:33.999Z</time></trkpt><trkpt lat="44.16530270718304" lon="11.945740650301977"><ele>68.0</ele><time>2026-04-05T18:38:34.999Z</time></trkpt><trkpt lat="44.16535310131274" lon="11.946108713499864"><ele>67.0</ele><time>2026-04-05T18:38:35.999Z</time></trkpt><trkpt lat="44.165404085355334" lon="11.946476692423145"><ele>66.0</ele><time>2026-04-05T18:38:36.999Z</time></trkpt><trkpt lat="44.16545576965669" lon="11.946846570504439"><ele>65.0</ele><time>2026-04-05T18:38:37.999Z</time></trkpt><trkpt lat="44.16550808460616" lon="11.947225914913119"><ele>64.0</ele><time>2026-04-05T18:38:38.999Z</time></trkpt><trkpt lat="44.16556376852249" lon="11.947617548939894"><ele>63.5</ele><time>2026-04-05T18:38:39.999Z</time></trkpt><trkpt lat="44.165622903132935" lon="11.948013114142148"><ele>63.0</ele><time>2026-04-05T18:38:40.999Z</time></trkpt><trkpt lat="44.165659927270674" lon="11.948412189396796"><ele>64.5</ele><time>2026-04-05T18:38:41.999Z</time></trkpt><trkpt lat="44.16572462876693" lon="11.948794280830226"><ele>66.0</ele><time>2026-04-05T18:38:42.999Z</time></trkpt><trkpt lat="44.16581267436617" lon="11.949167187755423"><ele>68.5</ele><time>2026-04-05T18:38:43.999Z</time></trkpt><trkpt lat="44.16590269542154" lon="11.949541551309077"><ele>71.0</ele><time>2026-04-05T18:38:44.999Z</time></trkpt><trkpt lat="44.16600759785115" lon="11.949902064888935"><ele>77.5</ele><time>2026-04-05T18:38:45.999Z</time></trkpt><trkpt lat="44.16612956538335" lon="11.950265526985822"><ele>84.0</ele><time>2026-04-05T18:38:46.999Z</time></trkpt><trkpt lat="44.16627301309449" lon="11.950625412041472"><ele>86.5</ele><time>2026-04-05T18:38:47.999Z</time></trkpt><trkpt lat="44.16643003080297" lon="11.950979382339264"><ele>89.0</ele><time>2026-04-05T18:38:48.999Z</time></trkpt><trkpt lat="44.166589612672645" lon="11.951314889134213"><ele>89.0</ele><time>2026-04-05T18:38:49.999Z</time></trkpt><trkpt lat="44.166737643975935" lon="11.951624778090283"><ele>89.0</ele><time>2026-04-05T18:38:50.999Z</time></trkpt><trkpt lat="44.16686512232869" lon="11.951920819200254"><ele>91.66666666666667</ele><time>2026-04-05T18:38:51.999Z</time></trkpt><trkpt lat="44.16696782635274" lon="11.952161018001577"><ele>94.33333333333334</ele><time>2026-04-05T18:38:52.999Z</time></trkpt><trkpt lat="44.167082637692154" lon="11.952391310089666"><ele>97.0</ele><time>2026-04-05T18:38:53.999Z</time></trkpt><trkpt lat="44.16718035993412" lon="11.95264180054519"><ele>98.0</ele><time>2026-04-05T18:38:54.999Z</time></trkpt><trkpt lat="44.16729944617474" lon="11.952884671699376"><ele>99.0</ele><time>2026-04-05T18:38:55.999Z</time></trkpt><trkpt lat="44.16741229662391" lon="11.953149160723873"><ele>100.0</ele><time>2026-04-05T18:38:56.999Z</time></trkpt><trkpt lat="44.16753700679219" lon="11.953429031986577"><ele>100.0</ele><time>2026-04-05T18:38:57.999Z</time></trkpt><trkpt lat="44.1676550403068" lon="11.953716144720842"><ele>100.0</ele><time>2026-04-05T18:38:58.999Z</time></trkpt><trkpt lat="44.16778634889357" lon="11.953994065318408"><ele>103.5</ele><time>2026-04-05T18:38:59.999Z</time></trkpt><trkpt lat="44.16791722733362" lon="11.95428169458285"><ele>107.0</ele><time>2026-04-05T18:39:00.999Z</time></trkpt><trkpt lat="44.16804648284157" lon="11.954573086944537"><ele>107.0</ele><time>2026-04-05T18:39:01.999Z</time></trkpt><trkpt lat="44.16818123188191" lon="11.954865990737403"><ele>107.0</ele><time>2026-04-05T18:39:02.999Z</time></trkpt><trkpt lat="44.16831742765813" lon="11.955171561907674"><ele>103.0</ele><time>2026-04-05T18:39:03.999Z</time></trkpt><trkpt lat="44.1684427723878" lon="11.955491082447852"><ele>99.0</ele><time>2026-04-05T18:39:04.999Z</time></trkpt><trkpt lat="44.168581846135076" lon="11.955804558326022"><ele>100.5</ele><time>2026-04-05T18:39:05.999Z</time></trkpt><trkpt lat="44.168733941352656" lon="11.956104697881134"><ele>102.0</ele><time>2026-04-05T18:39:07Z</time></trkpt><trkpt lat="44.16886644364154" lon="11.956415465713903"><ele>99.5</ele><time>2026-04-05T18:39:08Z</time></trkpt><trkpt lat="44.169005285137665" lon="11.956724482414772"><ele>97.0</ele><time>2026-04-05T18:39:09Z</time></trkpt><trkpt lat="44.1691489677258" lon="11.957030008933064"><ele>97.0</ele><time>2026-04-05T18:39:10Z</time></trkpt><trkpt lat="44.16931280337776" lon="11.957332567774749"><ele>97.0</ele><time>2026-04-05T18:39:11Z</time></trkpt><trkpt lat="44.16948565459613" lon="11.95763205651106"><ele>98.0</ele><time>2026-04-05T18:39:12Z</time></trkpt><trkpt lat="44.169663960073514" lon="11.957926523829354"><ele>99.0</ele><time>2026-04-05T18:39:13Z</time></trkpt><trkpt lat="44.16984482003291" lon="11.958213620979933"><ele>97.0</ele><time>2026-04-05T18:39:14Z</time></trkpt><trkpt lat="44.17003659129" lon="11.958497754695378"><ele>95.0</ele><time>2026-04-05T18:39:15Z</time></trkpt><trkpt lat="44.1702317071174" lon="11.958779915278587"><ele>95.0</ele><time>2026-04-05T18:39:16Z</time></trkpt><trkpt lat="44.17043818708252" lon="11.959057435114152"><ele>95.0</ele><time>2026-04-05T18:39:17Z</time></trkpt><trkpt lat="44.17063961627899" lon="11.959328799515752"><ele>93.0</ele><time>2026-04-05T18:39:18Z</time></trkpt><trkpt lat="44.170829121894634" lon="11.959618292167717"><ele>91.0</ele><time>2026-04-05T18:39:19Z</time></trkpt><trkpt lat="44.17102788836885" lon="11.95988946917552"><ele>94.0</ele><time>2026-04-05T18:39:20Z</time></trkpt><trkpt lat="44.17123477062919" lon="11.960142261541908"><ele>97.0</ele><time>2026-04-05T18:39:21Z</time></trkpt><trkpt lat="44.171429084401574" lon="11.960409961787283"><ele>93.0</ele><time>2026-04-05T18:39:22Z</time></trkpt><trkpt lat="44.17162595619763" lon="11.960675556284643"><ele>89.0</ele><time>2026-04-05T18:39:23Z</time></trkpt><trkpt lat="44.17181231837498" lon="11.96096216048566"><ele>89.0</ele><time>2026-04-05T18:39:24Z</time></trkpt><trkpt lat="44.17200720986771" lon="11.961229509561909"><ele>89.0</ele><time>2026-04-05T18:39:25Z</time></trkpt><trkpt lat="44.17221608065342" lon="11.96148596644449"><ele>89.0</ele><time>2026-04-05T18:39:26Z</time></trkpt><trkpt lat="44.17240773538746" lon="11.96176274273551"><ele>89.0</ele><time>2026-04-05T18:39:27Z</time></trkpt><trkpt lat="44.17260730060933" lon="11.962041870127367"><ele>89.0</ele><time>2026-04-05T18:39:28Z</time></trkpt><trkpt lat="44.17281304119243" lon="11.96231663544411"><ele>89.0</ele><time>2026-04-05T18:39:29Z</time></trkpt><trkpt lat="44.173009189544864" lon="11.962578260190226"><ele>89.0</ele><time>2026-04-05T18:39:30Z</time></trkpt><trkpt lat="44.173194761268704" lon="11.962821738550018"><ele>89.0</ele><time>2026-04-05T18:39:31Z</time></trkpt><trkpt lat="44.173381328900156" lon="11.963077340728809"><ele>89.0</ele><time>2026-04-05T18:39:32Z</time></trkpt><trkpt lat="44.1735680630912" lon="11.963333789578357"><ele>89.0</ele><time>2026-04-05T18:39:33Z</time></trkpt><trkpt lat="44.17376026175588" lon="11.963584613573996"><ele>87.5</ele><time>2026-04-05T18:39:34Z</time></trkpt><trkpt lat="44.17396483656784" lon="11.963823836336775"><ele>86.0</ele><time>2026-04-05T18:39:35Z</time></trkpt><trkpt lat="44.17417368571539" lon="11.964053988354785"><ele>90.0</ele><time>2026-04-05T18:39:36Z</time></trkpt><trkpt lat="44.17438269712932" lon="11.964280593045487"><ele>94.0</ele><time>2026-04-05T18:39:37Z</time></trkpt><trkpt lat="44.17458346268226" lon="11.964494843314638"><ele>94.0</ele><time>2026-04-05T18:39:38Z</time></trkpt><trkpt lat="44.17477953909804" lon="11.964690823504686"><ele>94.0</ele><time>2026-04-05T18:39:39Z</time></trkpt><trkpt lat="44.17496518847144" lon="11.964866783123217"><ele>94.33333333333333</ele><time>2026-04-05T18:39:40Z</time></trkpt><trkpt lat="44.175152389288314" lon="11.965035205480632"><ele>94.66666666666667</ele><time>2026-04-05T18:39:41Z</time></trkpt><trkpt lat="44.17534103658459" lon="11.965197872961511"><ele>95.0</ele><time>2026-04-05T18:39:42Z</time></trkpt><trkpt lat="44.17552508895172" lon="11.9653563691771"><ele>92.0</ele><time>2026-04-05T18:39:43Z</time></trkpt><trkpt lat="44.175692410390795" lon="11.965510397041466"><ele>89.0</ele><time>2026-04-05T18:39:44Z</time></trkpt><trkpt lat="44.175854910420156" lon="11.96566059325776"><ele>86.0</ele><time>2026-04-05T18:39:45Z</time></trkpt><trkpt lat="44.176040260219075" lon="11.965832053594893"><ele>84.33333333333334</ele><time>2026-04-05T18:39:46Z</time></trkpt><trkpt lat="44.1762177296003" lon="11.965991866816166"><ele>82.66666666666667</ele><time>2026-04-05T18:39:47Z</time></trkpt><trkpt lat="44.176400708332615" lon="11.966156881378534"><ele>81.0</ele><time>2026-04-05T18:39:48Z</time></trkpt><trkpt lat="44.176598533553125" lon="11.966334663807892"><ele>81.0</ele><time>2026-04-05T18:39:49Z</time></trkpt><trkpt lat="44.176796617967895" lon="11.966519486219031"><ele>81.0</ele><time>2026-04-05T18:39:50Z</time></trkpt><trkpt lat="44.17700456363288" lon="11.966708106514787"><ele>82.5</ele><time>2026-04-05T18:39:51Z</time></trkpt><trkpt lat="44.17721545266241" lon="11.966901273420481"><ele>84.0</ele><time>2026-04-05T18:39:52Z</time></trkpt><trkpt lat="44.17743201659018" lon="11.967097205358124"><ele>81.0</ele><time>2026-04-05T18:39:53Z</time></trkpt><trkpt lat="44.17764162441614" lon="11.967294761319486"><ele>78.0</ele><time>2026-04-05T18:39:54Z</time></trkpt><trkpt lat="44.17785198238645" lon="11.96748579552213"><ele>78.5</ele><time>2026-04-05T18:39:55Z</time></trkpt><trkpt lat="44.178069270083725" lon="11.967665867683634"><ele>79.0</ele><time>2026-04-05T18:39:56Z</time></trkpt><trkpt lat="44.178297163500126" lon="11.967830409428686"><ele>79.0</ele><time>2026-04-05T18:39:57Z</time></trkpt><trkpt lat="44.178535064747884" lon="11.967980098614603"><ele>79.0</ele><time>2026-04-05T18:39:58Z</time></trkpt><trkpt lat="44.17877476970305" lon="11.968099525991427"><ele>75.5</ele><time>2026-04-05T18:39:59Z</time></trkpt><trkpt lat="44.17902361618418" lon="11.968195457108402"><ele>72.0</ele><time>2026-04-05T18:40:00Z</time></trkpt><trkpt lat="44.17928011356858" lon="11.968253925827064"><ele>72.0</ele><time>2026-04-05T18:40:01Z</time></trkpt><trkpt lat="44.179543451303566" lon="11.968287793886315"><ele>72.0</ele><time>2026-04-05T18:40:02Z</time></trkpt><trkpt lat="44.17980823184038" lon="11.968294324618652"><ele>71.0</ele><time>2026-04-05T18:40:03Z</time></trkpt><trkpt lat="44.180080899318355" lon="11.968278126774127"><ele>70.0</ele><time>2026-04-05T18:40:04Z</time></trkpt><trkpt lat="44.18034157483274" lon="11.968235330105667"><ele>70.0</ele><time>2026-04-05T18:40:05Z</time></trkpt><trkpt lat="44.180598460254515" lon="11.968164317366183"><ele>70.0</ele><time>2026-04-05T18:40:06Z</time></trkpt><trkpt lat="44.18085887751255" lon="11.968074141339425"><ele>69.5</ele><time>2026-04-05T18:40:07Z</time></trkpt><trkpt lat="44.18113212263992" lon="11.967960781616807"><ele>69.0</ele><time>2026-04-05T18:40:08Z</time></trkpt><trkpt lat="44.18140145526268" lon="11.967848633180536"><ele>68.0</ele><time>2026-04-05T18:40:09Z</time></trkpt><trkpt lat="44.18166895703001" lon="11.967739045850813"><ele>67.0</ele><time>2026-04-05T18:40:10Z</time></trkpt><trkpt lat="44.18192669617156" lon="11.967636150643564"><ele>67.0</ele><time>2026-04-05T18:40:11Z</time></trkpt><trkpt lat="44.18217955395359" lon="11.967544719399106"><ele>67.0</ele><time>2026-04-05T18:40:11.999Z</time></trkpt><trkpt lat="44.18241463452549" lon="11.96745807331667"><ele>66.0</ele><time>2026-04-05T18:40:12.999Z</time></trkpt><trkpt lat="44.182636380345734" lon="11.96737181364505"><ele>65.0</ele><time>2026-04-05T18:40:13.999Z</time></trkpt><trkpt lat="44.182853318762426" lon="11.967288425211386"><ele>65.0</ele><time>2026-04-05T18:40:14.999Z</time></trkpt><trkpt lat="44.18307068269399" lon="11.967196642679205"><ele>65.0</ele><time>2026-04-05T18:40:15.999Z</time></trkpt><trkpt lat="44.183303244629705" lon="11.96710063990523"><ele>64.0</ele><time>2026-04-05T18:40:16.999Z</time></trkpt><trkpt lat="44.18354071131052" lon="11.967002991842731"><ele>63.0</ele><time>2026-04-05T18:40:17.999Z</time></trkpt><trkpt lat="44.18376896643452" lon="11.966915389960288"><ele>63.0</ele><time>2026-04-05T18:40:18.999Z</time></trkpt><trkpt lat="44.18398660861402" lon="11.966835178004091"><ele>63.0</ele><time>2026-04-05T18:40:19.999Z</time></trkpt><trkpt lat="44.18421071292338" lon="11.966778543529209"><ele>60.5</ele><time>2026-04-05T18:40:20.999Z</time></trkpt><trkpt lat="44.18444636780773" lon="11.966735673950812"><ele>58.0</ele><time>2026-04-05T18:40:21.999Z</time></trkpt><trkpt lat="44.184683644448576" lon="11.96670399631797"><ele>55.5</ele><time>2026-04-05T18:40:22.999Z</time></trkpt><trkpt lat="44.18492432393327" lon="11.966684633144984"><ele>53.0</ele><time>2026-04-05T18:40:23.999Z</time></trkpt><trkpt lat="44.18516994657644" lon="11.966678741730474"><ele>53.0</ele><time>2026-04-05T18:40:24.999Z</time></trkpt><trkpt lat="44.18542048594723" lon="11.966680101682021"><ele>53.0</ele><time>2026-04-05T18:40:25.999Z</time></trkpt><trkpt lat="44.18567666201637" lon="11.966683686880458"><ele>52.5</ele><time>2026-04-05T18:40:26.999Z</time></trkpt><trkpt lat="44.185937804820576" lon="11.966685312378319"><ele>52.0</ele><time>2026-04-05T18:40:27.999Z</time></trkpt><trkpt lat="44.18620445141385" lon="11.966677077886986"><ele>52.0</ele><time>2026-04-05T18:40:28.999Z</time></trkpt><trkpt lat="44.186478697633824" lon="11.966670261224804"><ele>52.0</ele><time>2026-04-05T18:40:29.999Z</time></trkpt><trkpt lat="44.18675785536964" lon="11.96666931723776"><ele>51.5</ele><time>2026-04-05T18:40:30.999Z</time></trkpt><trkpt lat="44.187041106913355" lon="11.966663463947455"><ele>51.0</ele><time>2026-04-05T18:40:31.999Z</time></trkpt><trkpt lat="44.18732684176482" lon="11.966660784328809"><ele>51.5</ele><time>2026-04-05T18:40:32.999Z</time></trkpt><trkpt lat="44.18762844105361" lon="11.966655731005844"><ele>52.0</ele><time>2026-04-05T18:40:33.999Z</time></trkpt><trkpt lat="44.18792714450556" lon="11.966655998984232"><ele>51.0</ele><time>2026-04-05T18:40:34.999Z</time></trkpt><trkpt lat="44.188224993393256" lon="11.966651786224494"><ele>50.0</ele><time>2026-04-05T18:40:35.999Z</time></trkpt><trkpt lat="44.18851992803681" lon="11.966650010601528"><ele>50.0</ele><time>2026-04-05T18:40:36.999Z</time></trkpt><trkpt lat="44.188798557671184" lon="11.966648229003892"><ele>50.0</ele><time>2026-04-05T18:40:37.999Z</time></trkpt><trkpt lat="44.189064966491856" lon="11.966646530350756"><ele>51.0</ele><time>2026-04-05T18:40:38.999Z</time></trkpt><trkpt lat="44.18931706454668" lon="11.966648643421221"><ele>52.0</ele><time>2026-04-05T18:40:39.999Z</time></trkpt><trkpt lat="44.1895603451595" lon="11.966663551204654"><ele>50.5</ele><time>2026-04-05T18:40:40.999Z</time></trkpt><trkpt lat="44.18980203417795" lon="11.966697753202764"><ele>49.0</ele><time>2026-04-05T18:40:41.999Z</time></trkpt><trkpt lat="44.19005514918075" lon="11.966752632398551"><ele>48.5</ele><time>2026-04-05T18:40:42.999Z</time></trkpt><trkpt lat="44.19030452454879" lon="11.966825945552772"><ele>48.0</ele><time>2026-04-05T18:40:43.999Z</time></trkpt><trkpt lat="44.19055061666938" lon="11.966925756669008"><ele>49.0</ele><time>2026-04-05T18:40:44.999Z</time></trkpt><trkpt lat="44.19079711786918" lon="11.967042762319059"><ele>50.0</ele><time>2026-04-05T18:40:45.999Z</time></trkpt><trkpt lat="44.19104311149173" lon="11.967183529032358"><ele>50.0</ele><time>2026-04-05T18:40:46.999Z</time></trkpt><trkpt lat="44.191277008247" lon="11.967343027090909"><ele>50.0</ele><time>2026-04-05T18:40:47.999Z</time></trkpt><trkpt lat="44.191498724345635" lon="11.967506670924548"><ele>50.0</ele><time>2026-04-05T18:40:48.999Z</time></trkpt><trkpt lat="44.19170824200777" lon="11.967664852170437"><ele>50.0</ele><time>2026-04-05T18:40:49.999Z</time></trkpt><trkpt lat="44.191917223647245" lon="11.967823002376921"><ele>50.0</ele><time>2026-04-05T18:40:50.999Z</time></trkpt><trkpt lat="44.19213291364906" lon="11.967982827832738"><ele>50.0</ele><time>2026-04-05T18:40:51.999Z</time></trkpt><trkpt lat="44.19234810587474" lon="11.968137249125546"><ele>50.0</ele><time>2026-04-05T18:40:52.999Z</time></trkpt><trkpt lat="44.19255532863323" lon="11.968279549759448"><ele>50.0</ele><time>2026-04-05T18:40:53.999Z</time></trkpt><trkpt lat="44.19275210805003" lon="11.968427734758201"><ele>49.333333333333336</ele><time>2026-04-05T18:40:54.999Z</time></trkpt><trkpt lat="44.192949804429254" lon="11.968569862000106"><ele>48.66666666666667</ele><time>2026-04-05T18:40:55.999Z</time></trkpt><trkpt lat="44.1931362935917" lon="11.96870374000146"><ele>48.0</ele><time>2026-04-05T18:40:56.999Z</time></trkpt><trkpt lat="44.1933125147389" lon="11.96883089210762"><ele>48.0</ele><time>2026-04-05T18:40:57.999Z</time></trkpt><trkpt lat="44.19350001598149" lon="11.968962723342043"><ele>48.0</ele><time>2026-04-05T18:40:58.999Z</time></trkpt><trkpt lat="44.19368100117046" lon="11.969092632706177"><ele>48.0</ele><time>2026-04-05T18:40:59.999Z</time></trkpt><trkpt lat="44.19385819152335" lon="11.969224804991814"><ele>47.666666666666664</ele><time>2026-04-05T18:41:00.999Z</time></trkpt><trkpt lat="44.194037764578454" lon="11.969355402123993"><ele>47.33333333333333</ele><time>2026-04-05T18:41:01.999Z</time></trkpt><trkpt lat="44.194208241271234" lon="11.969478330199586"><ele>47.0</ele><time>2026-04-05T18:41:02.999Z</time></trkpt><trkpt lat="44.19435811525786" lon="11.969589106458269"><ele>47.0</ele><time>2026-04-05T18:41:03.999Z</time></trkpt><trkpt lat="44.19452486873119" lon="11.969701809727201"><ele>47.0</ele><time>2026-04-05T18:41:04.999Z</time></trkpt><trkpt lat="44.19469047557296" lon="11.969822886661605"><ele>47.0</ele><time>2026-04-05T18:41:05.999Z</time></trkpt><trkpt lat="44.19486125716035" lon="11.96994552345236"><ele>47.0</ele><time>2026-04-05T18:41:06.999Z</time></trkpt><trkpt lat="44.19501819439997" lon="11.970060882995746"><ele>47.0</ele><time>2026-04-05T18:41:07.999Z</time></trkpt><trkpt lat="44.19517311238658" lon="11.970173983264027"><ele>47.0</ele><time>2026-04-05T18:41:08.999Z</time></trkpt><trkpt lat="44.195338692317506" lon="11.970295300727097"><ele>47.0</ele><time>2026-04-05T18:41:09.999Z</time></trkpt><trkpt lat="44.195501058103034" lon="11.970417011990138"><ele>47.0</ele><time>2026-04-05T18:41:10.999Z</time></trkpt><trkpt lat="44.19566295284293" lon="11.97053744224335"><ele>47.0</ele><time>2026-04-05T18:41:12Z</time></trkpt><trkpt lat="44.19582118700411" lon="11.970656407034225"><ele>48.0</ele><time>2026-04-05T18:41:13Z</time></trkpt><trkpt lat="44.195984277458614" lon="11.970779243318335"><ele>49.0</ele><time>2026-04-05T18:41:14Z</time></trkpt><trkpt lat="44.196142131477416" lon="11.970902587611223"><ele>50.0</ele><time>2026-04-05T18:41:15Z</time></trkpt><trkpt lat="44.19629345241688" lon="11.971017296542657"><ele>50.0</ele><time>2026-04-05T18:41:16Z</time></trkpt><trkpt lat="44.19644354964747" lon="11.971132745415444"><ele>50.0</ele><time>2026-04-05T18:41:17Z</time></trkpt><trkpt lat="44.19657321358124" lon="11.971243867478686"><ele>50.0</ele><time>2026-04-05T18:41:18Z</time></trkpt><trkpt lat="44.19671270160842" lon="11.971345755808652"><ele>50.0</ele><time>2026-04-05T18:41:19Z</time></trkpt><trkpt lat="44.1968506872718" lon="11.971448840300297"><ele>50.0</ele><time>2026-04-05T18:41:20Z</time></trkpt><trkpt lat="44.196990680236844" lon="11.971551539740563"><ele>50.0</ele><time>2026-04-05T18:41:21Z</time></trkpt><trkpt lat="44.19713718594671" lon="11.971652654128194"><ele>49.66666666666667</ele><time>2026-04-05T18:41:22Z</time></trkpt><trkpt lat="44.19728033061865" lon="11.971763147011718"><ele>49.33333333333333</ele><time>2026-04-05T18:41:23Z</time></trkpt><trkpt lat="44.19742644374225" lon="11.971883600622228"><ele>49.0</ele><time>2026-04-05T18:41:24Z</time></trkpt><trkpt lat="44.19757145606465" lon="11.97200736964539"><ele>49.0</ele><time>2026-04-05T18:41:25Z</time></trkpt><trkpt lat="44.197714982267854" lon="11.972139651668547"><ele>49.0</ele><time>2026-04-05T18:41:26Z</time></trkpt><trkpt lat="44.197860494820304" lon="11.972278062904563"><ele>49.0</ele><time>2026-04-05T18:41:27Z</time></trkpt><trkpt lat="44.19800481236751" lon="11.972428615706864"><ele>49.0</ele><time>2026-04-05T18:41:28Z</time></trkpt><trkpt lat="44.19813889849908" lon="11.972610649941695"><ele>49.0</ele><time>2026-04-05T18:41:29Z</time></trkpt><trkpt lat="44.198280377916156" lon="11.972789695373296"><ele>49.0</ele><time>2026-04-05T18:41:30Z</time></trkpt><trkpt lat="44.198413180589014" lon="11.972975996823308"><ele>49.0</ele><time>2026-04-05T18:41:31Z</time></trkpt><trkpt lat="44.198537420604524" lon="11.973166819219953"><ele>49.0</ele><time>2026-04-05T18:41:32Z</time></trkpt><trkpt lat="44.19871574867707" lon="11.973310621738301"><ele>49.0</ele><time>2026-04-05T18:41:33Z</time></trkpt><trkpt lat="44.198776360244295" lon="11.9734602787352"><ele>49.0</ele><time>2026-04-05T18:41:34Z</time></trkpt><trkpt lat="44.19887472042862" lon="11.973634764109901"><ele>49.0</ele><time>2026-04-05T18:41:35Z</time></trkpt><trkpt lat="44.19896824676237" lon="11.973786301853927"><ele>49.0</ele><time>2026-04-05T18:41:36Z</time></trkpt><trkpt lat="44.19905978396364" lon="11.973933217095128"><ele>49.0</ele><time>2026-04-05T18:41:37Z</time></trkpt><trkpt lat="44.19912621547193" lon="11.97410133680651"><ele>48.75</ele><time>2026-04-05T18:41:38Z</time></trkpt><trkpt lat="44.19922077917941" lon="11.97425002006894"><ele>48.5</ele><time>2026-04-05T18:41:39Z</time></trkpt><trkpt lat="44.1993087655019" lon="11.974388639540557"><ele>48.25</ele><time>2026-04-05T18:41:40Z</time></trkpt><trkpt lat="44.1993941457548" lon="11.974523153300257"><ele>48.0</ele><time>2026-04-05T18:41:41Z</time></trkpt><trkpt lat="44.19948079219605" lon="11.974659661991014"><ele>48.0</ele><time>2026-04-05T18:41:42Z</time></trkpt><trkpt lat="44.19957762540082" lon="11.974775964831927"><ele>48.0</ele><time>2026-04-05T18:41:43Z</time></trkpt><trkpt lat="44.19966555650345" lon="11.974915174858358"><ele>48.0</ele><time>2026-04-05T18:41:44Z</time></trkpt><trkpt lat="44.19976111860272" lon="11.97504048624521"><ele>48.0</ele><time>2026-04-05T18:41:45Z</time></trkpt><trkpt lat="44.199866096530634" lon="11.97515949903635"><ele>47.75</ele><time>2026-04-05T18:41:46Z</time></trkpt><trkpt lat="44.19997233683834" lon="11.975267515011407"><ele>47.5</ele><time>2026-04-05T18:41:47Z</time></trkpt><trkpt lat="44.20007533011203" lon="11.975370331335405"><ele>47.25</ele><time>2026-04-05T18:41:48Z</time></trkpt><trkpt lat="44.20019065172904" lon="11.975491442321847"><ele>47.0</ele><time>2026-04-05T18:41:49Z</time></trkpt><trkpt lat="44.20029630014035" lon="11.975566392916653"><ele>47.0</ele><time>2026-04-05T18:41:50Z</time></trkpt><trkpt lat="44.20040749343638" lon="11.975672518481923"><ele>47.0</ele><time>2026-04-05T18:41:51Z</time></trkpt><trkpt lat="44.20051797685659" lon="11.975780706648356"><ele>47.0</ele><time>2026-04-05T18:41:52Z</time></trkpt><trkpt lat="44.20063244096672" lon="11.975883385072585"><ele>47.0</ele><time>2026-04-05T18:41:53Z</time></trkpt><trkpt lat="44.20075158256469" lon="11.9759858950597"><ele>46.75</ele><time>2026-04-05T18:41:54Z</time></trkpt><trkpt lat="44.200861027868896" lon="11.976112292461684"><ele>46.5</ele><time>2026-04-05T18:41:55Z</time></trkpt><trkpt lat="44.20098199680423" lon="11.976224041544878"><ele>46.25</ele><time>2026-04-05T18:41:56Z</time></trkpt><trkpt lat="44.20109619165007" lon="11.976329536890518"><ele>46.0</ele><time>2026-04-05T18:41:57Z</time></trkpt><trkpt lat="44.20120073871772" lon="11.97642673297474"><ele>46.0</ele><time>2026-04-05T18:41:58Z</time></trkpt><trkpt lat="44.20130161847959" lon="11.976520519907087"><ele>46.0</ele><time>2026-04-05T18:41:59Z</time></trkpt><trkpt lat="44.20140126174615" lon="11.976611374933977"><ele>46.0</ele><time>2026-04-05T18:42:00Z</time></trkpt><trkpt lat="44.20149976158703" lon="11.976701502117326"><ele>46.0</ele><time>2026-04-05T18:42:01Z</time></trkpt><trkpt lat="44.20159796139153" lon="11.97679162076287"><ele>46.199999999999996</ele><time>2026-04-05T18:42:02Z</time></trkpt><trkpt lat="44.20169483194047" lon="11.976880519605603"><ele>46.4</ele><time>2026-04-05T18:42:03Z</time></trkpt><trkpt lat="44.20178919259878" lon="11.976970836760865"><ele>46.6</ele><time>2026-04-05T18:42:04Z</time></trkpt><trkpt lat="44.20187598348158" lon="11.977059113871926"><ele>46.8</ele><time>2026-04-05T18:42:05Z</time></trkpt><trkpt lat="44.201974460871966" lon="11.977104560609144"><ele>47.0</ele><time>2026-04-05T18:42:06Z</time></trkpt><trkpt lat="44.20204107697229" lon="11.97718216798218"><ele>47.0</ele><time>2026-04-05T18:42:07Z</time></trkpt><trkpt lat="44.20210520872646" lon="11.977263499634432"><ele>47.0</ele><time>2026-04-05T18:42:08Z</time></trkpt><trkpt lat="44.20217268464025" lon="11.977345442438752"><ele>47.0</ele><time>2026-04-05T18:42:09Z</time></trkpt><trkpt lat="44.20221669734401" lon="11.977467117293692"><ele>47.0</ele><time>2026-04-05T18:42:10Z</time></trkpt><trkpt lat="44.20228620073147" lon="11.977567277347601"><ele>47.0</ele><time>2026-04-05T18:42:11Z</time></trkpt><trkpt lat="44.202355605062614" lon="11.97767363840884"><ele>47.8</ele><time>2026-04-05T18:42:11.999Z</time></trkpt><trkpt lat="44.202421717294" lon="11.977784976574029"><ele>48.6</ele><time>2026-04-05T18:42:12.999Z</time></trkpt><trkpt lat="44.202490199563485" lon="11.977904082742649"><ele>49.4</ele><time>2026-04-05T18:42:13.999Z</time></trkpt><trkpt lat="44.2025614597392" lon="11.978032941456703"><ele>50.199999999999996</ele><time>2026-04-05T18:42:14.999Z</time></trkpt><trkpt lat="44.20262020500068" lon="11.978143651050154"><ele>51.0</ele><time>2026-04-05T18:42:15.999Z</time></trkpt><trkpt lat="44.202664134991544" lon="11.978232518180706"><ele>51.0</ele><time>2026-04-05T18:42:16.999Z</time></trkpt><trkpt lat="44.202707172327415" lon="11.978297383847025"><ele>51.0</ele><time>2026-04-05T18:42:18.999Z</time></trkpt><trkpt lat="44.20283792786476" lon="11.97814853620503"><ele>51.0</ele><time>2026-04-05T18:42:19.999Z</time></trkpt><trkpt lat="44.20286861115925" lon="11.978042895421149"><ele>51.0</ele><time>2026-04-05T18:42:20.999Z</time></trkpt><trkpt lat="44.202892432756244" lon="11.977916615160852"><ele>51.0</ele><time>2026-04-05T18:42:21.999Z</time></trkpt><trkpt lat="44.20294200127351" lon="11.97776793365403"><ele>51.0</ele><time>2026-04-05T18:42:22.999Z</time></trkpt><trkpt lat="44.203001189707884" lon="11.977617035959891"><ele>51.0</ele><time>2026-04-05T18:42:23.999Z</time></trkpt><trkpt lat="44.203062354555435" lon="11.97744999997223"><ele>51.0</ele><time>2026-04-05T18:42:24.999Z</time></trkpt><trkpt lat="44.203123056901745" lon="11.977272556512611"><ele>51.0</ele><time>2026-04-05T18:42:25.999Z</time></trkpt><trkpt lat="44.20319595081191" lon="11.977075053967598"><ele>50.33333333333333</ele><time>2026-04-05T18:42:26.999Z</time></trkpt><trkpt lat="44.20326637367765" lon="11.976866178904405"><ele>49.666666666666664</ele><time>2026-04-05T18:42:27.999Z</time></trkpt><trkpt lat="44.2033357020336" lon="11.976653722471996"><ele>49.0</ele><time>2026-04-05T18:42:28.999Z</time></trkpt><trkpt lat="44.203399192623365" lon="11.976466620427237"><ele>48.75</ele><time>2026-04-05T18:42:29.999Z</time></trkpt><trkpt lat="44.203462652051215" lon="11.976283187308011"><ele>48.5</ele><time>2026-04-05T18:42:30.999Z</time></trkpt><trkpt lat="44.203527164895206" lon="11.97611310388347"><ele>48.25</ele><time>2026-04-05T18:42:31.999Z</time></trkpt><trkpt lat="44.203582701836325" lon="11.975951720600214"><ele>48.0</ele><time>2026-04-05T18:42:32.999Z</time></trkpt><trkpt lat="44.20363206704768" lon="11.975796538685584"><ele>48.599999999999994</ele><time>2026-04-05T18:42:33.999Z</time></trkpt><trkpt lat="44.20368668381419" lon="11.975657488577138"><ele>49.199999999999996</ele><time>2026-04-05T18:42:34.999Z</time></trkpt><trkpt lat="44.203735767523035" lon="11.975516846817646"><ele>49.8</ele><time>2026-04-05T18:42:35.999Z</time></trkpt><trkpt lat="44.20378715078634" lon="11.975388891937106"><ele>50.4</ele><time>2026-04-05T18:42:36.999Z</time></trkpt><trkpt lat="44.203846928654045" lon="11.97526234817664"><ele>51.0</ele><time>2026-04-05T18:42:37.999Z</time></trkpt><trkpt lat="44.20395076144155" lon="11.975202969963998"><ele>51.0</ele><time>2026-04-05T18:42:38.999Z</time></trkpt><trkpt lat="44.20404290520859" lon="11.975108859615542"><ele>51.0</ele><time>2026-04-05T18:42:39.999Z</time></trkpt><trkpt lat="44.204146808378724" lon="11.975012984028707"><ele>51.0</ele><time>2026-04-05T18:42:40.999Z</time></trkpt><trkpt lat="44.20426043224952" lon="11.974906247060405"><ele>51.0</ele><time>2026-04-05T18:42:41.999Z</time></trkpt><trkpt lat="44.20437102259607" lon="11.974801399081452"><ele>51.0</ele><time>2026-04-05T18:42:42.999Z</time></trkpt><trkpt lat="44.204478197936865" lon="11.974681382034294"><ele>51.0</ele><time>2026-04-05T18:42:43.999Z</time></trkpt><trkpt lat="44.20460022571581" lon="11.974569737083016"><ele>51.0</ele><time>2026-04-05T18:42:44.999Z</time></trkpt><trkpt lat="44.204720017667626" lon="11.974462968578418"><ele>51.0</ele><time>2026-04-05T18:42:45.999Z</time></trkpt><trkpt lat="44.20484190815115" lon="11.974351179213842"><ele>50.33333333333333</ele><time>2026-04-05T18:42:46.999Z</time></trkpt><trkpt lat="44.20496633946553" lon="11.974235974026994"><ele>49.666666666666664</ele><time>2026-04-05T18:42:47.999Z</time></trkpt><trkpt lat="44.20509395512429" lon="11.974119323458831"><ele>49.0</ele><time>2026-04-05T18:42:48.999Z</time></trkpt><trkpt lat="44.205225096227544" lon="11.973992993707677"><ele>49.0</ele><time>2026-04-05T18:42:49.999Z</time></trkpt><trkpt lat="44.205357189251856" lon="11.973870750357364"><ele>49.0</ele><time>2026-04-05T18:42:50.999Z</time></trkpt><trkpt lat="44.20548871634234" lon="11.973742747393167"><ele>49.0</ele><time>2026-04-05T18:42:51.999Z</time></trkpt><trkpt lat="44.205615218296536" lon="11.973617024782227"><ele>49.25</ele><time>2026-04-05T18:42:52.999Z</time></trkpt><trkpt lat="44.20573998972007" lon="11.973501626867714"><ele>49.5</ele><time>2026-04-05T18:42:53.999Z</time></trkpt><trkpt lat="44.205862145875926" lon="11.97338646785822"><ele>49.75</ele><time>2026-04-05T18:42:54.999Z</time></trkpt><trkpt lat="44.20597956348156" lon="11.973278079754389"><ele>50.0</ele><time>2026-04-05T18:42:55.999Z</time></trkpt><trkpt lat="44.20609004426677" lon="11.973174532955053"><ele>50.25</ele><time>2026-04-05T18:42:56.999Z</time></trkpt><trkpt lat="44.206206900051285" lon="11.973068081171546"><ele>50.5</ele><time>2026-04-05T18:42:57.999Z</time></trkpt><trkpt lat="44.206323980631645" lon="11.972956748215697"><ele>50.75</ele><time>2026-04-05T18:42:58.999Z</time></trkpt><trkpt lat="44.20644499576064" lon="11.972840551659678"><ele>51.0</ele><time>2026-04-05T18:42:59.999Z</time></trkpt><trkpt lat="44.2065786787883" lon="11.972708974431592"><ele>51.0</ele><time>2026-04-05T18:43:00.999Z</time></trkpt><trkpt lat="44.20672301225218" lon="11.972572233836814"><ele>51.0</ele><time>2026-04-05T18:43:01.999Z</time></trkpt><trkpt lat="44.206876525072644" lon="11.972434210743023"><ele>51.0</ele><time>2026-04-05T18:43:02.999Z</time></trkpt><trkpt lat="44.20703890873906" lon="11.972286758674343"><ele>51.0</ele><time>2026-04-05T18:43:03.999Z</time></trkpt><trkpt lat="44.207200021494586" lon="11.972132557197337"><ele>51.0</ele><time>2026-04-05T18:43:04.999Z</time></trkpt><trkpt lat="44.2073649913786" lon="11.971973931066499"><ele>51.0</ele><time>2026-04-05T18:43:05.999Z</time></trkpt><trkpt lat="44.20753702030209" lon="11.971810648398552"><ele>51.66666666666667</ele><time>2026-04-05T18:43:06.999Z</time></trkpt><trkpt lat="44.20771374190618" lon="11.971644774307814"><ele>52.333333333333336</ele><time>2026-04-05T18:43:07.999Z</time></trkpt><trkpt lat="44.207894513830496" lon="11.971472498864953"><ele>53.0</ele><time>2026-04-05T18:43:08.999Z</time></trkpt><trkpt lat="44.20807286509827" lon="11.971304201609716"><ele>52.0</ele><time>2026-04-05T18:43:09.999Z</time></trkpt><trkpt lat="44.20824300447688" lon="11.971150086750884"><ele>51.0</ele><time>2026-04-05T18:43:10.999Z</time></trkpt><trkpt lat="44.2084005477758" lon="11.97100613703502"><ele>50.0</ele><time>2026-04-05T18:43:11.999Z</time></trkpt><trkpt lat="44.20854651161079" lon="11.970869120434926"><ele>50.66666666666667</ele><time>2026-04-05T18:43:12.999Z</time></trkpt><trkpt lat="44.20867454148248" lon="11.970718422387401"><ele>51.33333333333333</ele><time>2026-04-05T18:43:13.999Z</time></trkpt><trkpt lat="44.2087680686329" lon="11.97054141122498"><ele>52.0</ele><time>2026-04-05T18:43:14.999Z</time></trkpt><trkpt lat="44.20880667947448" lon="11.970333750496241"><ele>52.0</ele><time>2026-04-05T18:43:15.999Z</time></trkpt><trkpt lat="44.208850787146424" lon="11.970111178942243"><ele>52.0</ele><time>2026-04-05T18:43:16.999Z</time></trkpt><trkpt lat="44.208891811031265" lon="11.96989500892623"><ele>52.0</ele><time>2026-04-05T18:43:18Z</time></trkpt><trkpt lat="44.20893584571407" lon="11.969680646015684"><ele>52.33333333333333</ele><time>2026-04-05T18:43:19Z</time></trkpt><trkpt lat="44.20898417668579" lon="11.96945329034721"><ele>52.66666666666667</ele><time>2026-04-05T18:43:20Z</time></trkpt><trkpt lat="44.20903394681063" lon="11.969210521823438"><ele>53.0</ele><time>2026-04-05T18:43:21Z</time></trkpt><trkpt lat="44.209084883448774" lon="11.968964889291724"><ele>53.333333333333336</ele><time>2026-04-05T18:43:22Z</time></trkpt><trkpt lat="44.20913130750126" lon="11.96873211414172"><ele>53.66666666666667</ele><time>2026-04-05T18:43:23Z</time></trkpt><trkpt lat="44.2091759239704" lon="11.968519608064513"><ele>54.0</ele><time>2026-04-05T18:43:24Z</time></trkpt><trkpt lat="44.20921614966893" lon="11.968328029943649"><ele>54.5</ele><time>2026-04-05T18:43:25Z</time></trkpt><trkpt lat="44.20925201762533" lon="11.968138094938967"><ele>55.0</ele><time>2026-04-05T18:43:26Z</time></trkpt><trkpt lat="44.20928710527205" lon="11.96797181997895"><ele>55.5</ele><time>2026-04-05T18:43:27Z</time></trkpt><trkpt lat="44.20931607888035" lon="11.967828993432185"><ele>56.0</ele><time>2026-04-05T18:43:28Z</time></trkpt><trkpt lat="44.20934530147158" lon="11.967705035342616"><ele>56.0</ele><time>2026-04-05T18:43:29Z</time></trkpt><trkpt lat="44.20938786718058" lon="11.967608973383383"><ele>55.99999999999999</ele><time>2026-04-05T18:43:30Z</time></trkpt><trkpt lat="44.209454254663704" lon="11.967547641293788"><ele>55.99999999999999</ele><time>2026-04-05T18:43:31Z</time></trkpt><trkpt lat="44.20954129678094" lon="11.96753816489362"><ele>56.0</ele><time>2026-04-05T18:43:32Z</time></trkpt><trkpt lat="44.20963428786532" lon="11.967625376870808"><ele>56.0</ele><time>2026-04-05T18:43:33Z</time></trkpt><trkpt lat="44.209721943532074" lon="11.967731256426568"><ele>56.0</ele><time>2026-04-05T18:43:34Z</time></trkpt><trkpt lat="44.20983511617827" lon="11.96782611241896"><ele>56.0</ele><time>2026-04-05T18:43:35Z</time></trkpt><trkpt lat="44.20996792544093" lon="11.967937638504836"><ele>56.0</ele><time>2026-04-05T18:43:36Z</time></trkpt><trkpt lat="44.21012099455946" lon="11.968063400556378"><ele>56.0</ele><time>2026-04-05T18:43:37Z</time></trkpt><trkpt lat="44.21028656849054" lon="11.96819926789482"><ele>56.0</ele><time>2026-04-05T18:43:38Z</time></trkpt><trkpt lat="44.21045142145307" lon="11.968314861055628"><ele>56.0</ele><time>2026-04-05T18:43:39Z</time></trkpt><trkpt lat="44.210606761610265" lon="11.968447141630497"><ele>55.333333333333336</ele><time>2026-04-05T18:43:40Z</time></trkpt><trkpt lat="44.210760969747376" lon="11.968573730945025"><ele>54.66666666666667</ele><time>2026-04-05T18:43:41Z</time></trkpt><trkpt lat="44.210898612770464" lon="11.968707476486527"><ele>54.0</ele><time>2026-04-05T18:43:42Z</time></trkpt><trkpt lat="44.21103271320569" lon="11.968818826121725"><ele>54.0</ele><time>2026-04-05T18:43:43Z</time></trkpt><trkpt lat="44.21115350255707" lon="11.968919122967916"><ele>54.0</ele><time>2026-04-05T18:43:44Z</time></trkpt><trkpt lat="44.21128431211079" lon="11.96902772136152"><ele>54.0</ele><time>2026-04-05T18:43:45Z</time></trkpt><trkpt lat="44.21140274948546" lon="11.969125771976497"><ele>54.0</ele><time>2026-04-05T18:43:46Z</time></trkpt><trkpt lat="44.21152682292795" lon="11.969205426955005"><ele>53.25</ele><time>2026-04-05T18:43:47Z</time></trkpt><trkpt lat="44.211638947234405" lon="11.969298684585114"><ele>52.5</ele><time>2026-04-05T18:43:48Z</time></trkpt><trkpt lat="44.21175721466824" lon="11.969394306816728"><ele>51.75</ele><time>2026-04-05T18:43:49Z</time></trkpt><trkpt lat="44.21187689528438" lon="11.969483135394201"><ele>51.0</ele><time>2026-04-05T18:43:50Z</time></trkpt><trkpt lat="44.211991799439524" lon="11.969558868648708"><ele>51.0</ele><time>2026-04-05T18:43:51Z</time></trkpt><trkpt lat="44.21210237757486" lon="11.969616031587247"><ele>51.0</ele><time>2026-04-05T18:43:52Z</time></trkpt><trkpt lat="44.21220918526844" lon="11.969658299334636"><ele>51.0</ele><time>2026-04-05T18:43:53Z</time></trkpt><trkpt lat="44.21231694502625" lon="11.969689307681792"><ele>51.0</ele><time>2026-04-05T18:43:54Z</time></trkpt><trkpt lat="44.212427468416415" lon="11.96971757696244"><ele>50.599999999999994</ele><time>2026-04-05T18:43:55Z</time></trkpt><trkpt lat="44.212535205447146" lon="11.969724451695152"><ele>50.2</ele><time>2026-04-05T18:43:56Z</time></trkpt><trkpt lat="44.21263534501486" lon="11.96971820864217"><ele>49.8</ele><time>2026-04-05T18:43:57Z</time></trkpt><trkpt lat="44.21273077224958" lon="11.969692200279564"><ele>49.400000000000006</ele><time>2026-04-05T18:43:58Z</time></trkpt><trkpt lat="44.212823747147674" lon="11.969646277077228"><ele>49.0</ele><time>2026-04-05T18:43:59Z</time></trkpt><trkpt lat="44.212914278652725" lon="11.969573008043074"><ele>49.0</ele><time>2026-04-05T18:44:00Z</time></trkpt><trkpt lat="44.21300472832671" lon="11.969483375228057"><ele>49.0</ele><time>2026-04-05T18:44:01Z</time></trkpt><trkpt lat="44.21309454691941" lon="11.969391969971893"><ele>49.0</ele><time>2026-04-05T18:44:02Z</time></trkpt><trkpt lat="44.21318855138917" lon="11.969296031211845"><ele>49.0</ele><time>2026-04-05T18:44:03Z</time></trkpt><trkpt lat="44.213287942595606" lon="11.969204943415411"><ele>49.0</ele><time>2026-04-05T18:44:04Z</time></trkpt><trkpt lat="44.21339318183567" lon="11.969122710013286"><ele>49.0</ele><time>2026-04-05T18:44:05Z</time></trkpt><trkpt lat="44.213514908488335" lon="11.96906976693109"><ele>49.0</ele><time>2026-04-05T18:44:06Z</time></trkpt><trkpt lat="44.213643531216526" lon="11.969036411085886"><ele>49.0</ele><time>2026-04-05T18:44:07Z</time></trkpt><trkpt lat="44.21377076942833" lon="11.969032748083784"><ele>49.0</ele><time>2026-04-05T18:44:08Z</time></trkpt><trkpt lat="44.21389815385716" lon="11.969063271429343"><ele>49.0</ele><time>2026-04-05T18:44:09Z</time></trkpt><trkpt lat="44.214040319024356" lon="11.96913160483531"><ele>49.0</ele><time>2026-04-05T18:44:10Z</time></trkpt><trkpt lat="44.214205727650814" lon="11.969220998676988"><ele>48.666666666666664</ele><time>2026-04-05T18:44:11Z</time></trkpt><trkpt lat="44.21439955723565" lon="11.969329531954914"><ele>48.33333333333333</ele><time>2026-04-05T18:44:12Z</time></trkpt><trkpt lat="44.2146079485325" lon="11.969446218954948"><ele>48.0</ele><time>2026-04-05T18:44:13Z</time></trkpt><trkpt lat="44.21482527183951" lon="11.969567341919468"><ele>47.5</ele><time>2026-04-05T18:44:14Z</time></trkpt><trkpt lat="44.21504503788873" lon="11.969664443348245"><ele>47.0</ele><time>2026-04-05T18:44:15Z</time></trkpt><trkpt lat="44.21525541392971" lon="11.969807091076774"><ele>47.0</ele><time>2026-04-05T18:44:16Z</time></trkpt><trkpt lat="44.21547677449422" lon="11.969931996583401"><ele>47.0</ele><time>2026-04-05T18:44:17Z</time></trkpt><trkpt lat="44.21570490812719" lon="11.970059733389123"><ele>47.5</ele><time>2026-04-05T18:44:18Z</time></trkpt><trkpt lat="44.21593471267688" lon="11.970188311060115"><ele>48.0</ele><time>2026-04-05T18:44:19Z</time></trkpt><trkpt lat="44.2161596283737" lon="11.970316331699738"><ele>48.0</ele><time>2026-04-05T18:44:20Z</time></trkpt><trkpt lat="44.21638953126323" lon="11.970450342125512"><ele>48.0</ele><time>2026-04-05T18:44:20.999Z</time></trkpt><trkpt lat="44.21661999180022" lon="11.970599022725166"><ele>47.5</ele><time>2026-04-05T18:44:21.999Z</time></trkpt><trkpt lat="44.21684935002423" lon="11.970758628219837"><ele>47.0</ele><time>2026-04-05T18:44:22.999Z</time></trkpt><trkpt lat="44.21708869956432" lon="11.970929366431024"><ele>45.5</ele><time>2026-04-05T18:44:23.999Z</time></trkpt><trkpt lat="44.217324594568495" lon="11.971098611246735"><ele>44.0</ele><time>2026-04-05T18:44:24.999Z</time></trkpt><trkpt lat="44.217561576772454" lon="11.971266497675524"><ele>44.0</ele><time>2026-04-05T18:44:25.999Z</time></trkpt><trkpt lat="44.217797751990624" lon="11.97143142407592"><ele>44.0</ele><time>2026-04-05T18:44:26.999Z</time></trkpt><trkpt lat="44.218033957415116" lon="11.971596371616537"><ele>43.5</ele><time>2026-04-05T18:44:27.999Z</time></trkpt><trkpt lat="44.21827522802487" lon="11.971764856295982"><ele>43.0</ele><time>2026-04-05T18:44:28.999Z</time></trkpt><trkpt lat="44.21851899053308" lon="11.971935081123103"><ele>43.0</ele><time>2026-04-05T18:44:29.999Z</time></trkpt><trkpt lat="44.218742084668094" lon="11.97209327354172"><ele>43.0</ele><time>2026-04-05T18:44:30.999Z</time></trkpt><trkpt lat="44.21894744676017" lon="11.97223915359711"><ele>42.66666666666667</ele><time>2026-04-05T18:44:31.999Z</time></trkpt><trkpt lat="44.21913984194682" lon="11.972375822667889"><ele>42.333333333333336</ele><time>2026-04-05T18:44:32.999Z</time></trkpt><trkpt lat="44.21932167228815" lon="11.972491239813973"><ele>42.0</ele><time>2026-04-05T18:44:33.999Z</time></trkpt><trkpt lat="44.21949622152777" lon="11.972552639130326"><ele>41.666666666666664</ele><time>2026-04-05T18:44:34.999Z</time></trkpt><trkpt lat="44.21968220301525" lon="11.972557713899093"><ele>41.33333333333333</ele><time>2026-04-05T18:44:35.999Z</time></trkpt><trkpt lat="44.21987684948192" lon="11.972547961880986"><ele>41.0</ele><time>2026-04-05T18:44:36.999Z</time></trkpt><trkpt lat="44.22007400092489" lon="11.972533180765021"><ele>41.0</ele><time>2026-04-05T18:44:37.999Z</time></trkpt><trkpt lat="44.22028068413861" lon="11.972509850794072"><ele>41.0</ele><time>2026-04-05T18:44:38.999Z</time></trkpt><trkpt lat="44.22048402464654" lon="11.972486117235803"><ele>41.0</ele><time>2026-04-05T18:44:39.999Z</time></trkpt><trkpt lat="44.22066872152449" lon="11.972464559730383"><ele>41.0</ele><time>2026-04-05T18:44:40.999Z</time></trkpt><trkpt lat="44.22084308919265" lon="11.972444207878"><ele>41.0</ele><time>2026-04-05T18:44:41.999Z</time></trkpt><trkpt lat="44.22102732842244" lon="11.972436787454377"><ele>41.0</ele><time>2026-04-05T18:44:42.999Z</time></trkpt><trkpt lat="44.22120379188248" lon="11.972456860031507"><ele>41.0</ele><time>2026-04-05T18:44:43.999Z</time></trkpt><trkpt lat="44.221391125897824" lon="11.97251187922566"><ele>41.0</ele><time>2026-04-05T18:44:44.999Z</time></trkpt><trkpt lat="44.22158540972022" lon="11.97258482709901"><ele>41.0</ele><time>2026-04-05T18:44:45.999Z</time></trkpt><trkpt lat="44.22178854141871" lon="11.97266912403608"><ele>40.666666666666664</ele><time>2026-04-05T18:44:46.999Z</time></trkpt><trkpt lat="44.221991566951324" lon="11.97273315012318"><ele>40.333333333333336</ele><time>2026-04-05T18:44:47.999Z</time></trkpt><trkpt lat="44.22218791120972" lon="11.972815481743728"><ele>40.0</ele><time>2026-04-05T18:44:48.999Z</time></trkpt><trkpt lat="44.22237109244351" lon="11.972886592429536"><ele>39.75</ele><time>2026-04-05T18:44:49.999Z</time></trkpt><trkpt lat="44.222532246252676" lon="11.972954402192023"><ele>39.5</ele><time>2026-04-05T18:44:50.999Z</time></trkpt><trkpt lat="44.22267063576004" lon="11.973015062089408"><ele>39.25</ele><time>2026-04-05T18:44:51.999Z</time></trkpt><trkpt lat="44.22278498228934" lon="11.973068479366658"><ele>39.0</ele><time>2026-04-05T18:44:52.999Z</time></trkpt><trkpt lat="44.22286907192944" lon="11.973112254690848"><ele>39.0</ele><time>2026-04-05T18:44:53.999Z</time></trkpt><trkpt lat="44.22293049937725" lon="11.973167633704303"><ele>39.0</ele><time>2026-04-05T18:44:54.999Z</time></trkpt><trkpt lat="44.22297571544293" lon="11.973257141247641"><ele>39.0</ele><time>2026-04-05T18:44:55.999Z</time></trkpt><trkpt lat="44.22300758837129" lon="11.973355929629271"><ele>39.0</ele><time>2026-04-05T18:44:56.999Z</time></trkpt><trkpt lat="44.22305967994724" lon="11.97342371787152"><ele>39.0</ele><time>2026-04-05T18:44:57.999Z</time></trkpt><trkpt lat="44.223143672217475" lon="11.973410261870473"><ele>39.0</ele><time>2026-04-05T18:44:58.999Z</time></trkpt><trkpt lat="44.22321798083988" lon="11.973329735276959"><ele>38.5</ele><time>2026-04-05T18:44:59.999Z</time></trkpt><trkpt lat="44.22331787364585" lon="11.973392238015926"><ele>38.0</ele><time>2026-04-05T18:45:00.999Z</time></trkpt><trkpt lat="44.22345576797395" lon="11.97346613851277"><ele>37.5</ele><time>2026-04-05T18:45:01.999Z</time></trkpt><trkpt lat="44.22355611497107" lon="11.973537180786453"><ele>37.0</ele><time>2026-04-05T18:45:02.999Z</time></trkpt><trkpt lat="44.223694208591844" lon="11.973638473143273"><ele>37.0</ele><time>2026-04-05T18:45:03.999Z</time></trkpt><trkpt lat="44.22384851834451" lon="11.973737548023214"><ele>37.0</ele><time>2026-04-05T18:45:04.999Z</time></trkpt><trkpt lat="44.22402012477852" lon="11.973855197552393"><ele>37.0</ele><time>2026-04-05T18:45:05.999Z</time></trkpt><trkpt lat="44.22418847566252" lon="11.973977900755996"><ele>36.66666666666667</ele><time>2026-04-05T18:45:06.999Z</time></trkpt><trkpt lat="44.224372981650895" lon="11.974126265398802"><ele>36.333333333333336</ele><time>2026-04-05T18:45:07.999Z</time></trkpt><trkpt lat="44.22458673407118" lon="11.974251016983839"><ele>36.0</ele><time>2026-04-05T18:45:08.999Z</time></trkpt><trkpt lat="44.22477421271231" lon="11.974380008943307"><ele>36.0</ele><time>2026-04-05T18:45:09.999Z</time></trkpt><trkpt lat="44.224948447847275" lon="11.974500181347246"><ele>36.0</ele><time>2026-04-05T18:45:10.999Z</time></trkpt><trkpt lat="44.225120731770296" lon="11.974626828072902"><ele>36.0</ele><time>2026-04-05T18:45:11.999Z</time></trkpt><trkpt lat="44.22529228662244" lon="11.97476341128888"><ele>36.0</ele><time>2026-04-05T18:45:12.999Z</time></trkpt><trkpt lat="44.22545150679119" lon="11.974909534147576"><ele>36.0</ele><time>2026-04-05T18:45:13.999Z</time></trkpt><trkpt lat="44.22560476171868" lon="11.975059818094277"><ele>36.0</ele><time>2026-04-05T18:45:14.999Z</time></trkpt><trkpt lat="44.22576103426453" lon="11.975204213929821"><ele>35.333333333333336</ele><time>2026-04-05T18:45:15.999Z</time></trkpt><trkpt lat="44.225921906006874" lon="11.975344079547634"><ele>34.66666666666667</ele><time>2026-04-05T18:45:16.999Z</time></trkpt><trkpt lat="44.22608465265112" lon="11.97548946558461"><ele>34.0</ele><time>2026-04-05T18:45:17.999Z</time></trkpt><trkpt lat="44.22624481326972" lon="11.975635443582641"><ele>34.0</ele><time>2026-04-05T18:45:18.999Z</time></trkpt><trkpt lat="44.22640342717477" lon="11.975777213068593"><ele>34.0</ele><time>2026-04-05T18:45:19.999Z</time></trkpt><trkpt lat="44.22656511763533" lon="11.97592151177346"><ele>34.0</ele><time>2026-04-05T18:45:20.999Z</time></trkpt><trkpt lat="44.22672674449194" lon="11.976066249057766"><ele>34.333333333333336</ele><time>2026-04-05T18:45:21.999Z</time></trkpt><trkpt lat="44.22688495523385" lon="11.976208790545572"><ele>34.666666666666664</ele><time>2026-04-05T18:45:22.999Z</time></trkpt><trkpt lat="44.22703399298082" lon="11.976342970937322"><ele>35.0</ele><time>2026-04-05T18:45:24Z</time></trkpt><trkpt lat="44.22716965328869" lon="11.976463003057448"><ele>35.0</ele><time>2026-04-05T18:45:25Z</time></trkpt><trkpt lat="44.22729315381634" lon="11.976578711283338"><ele>35.0</ele><time>2026-04-05T18:45:26Z</time></trkpt><trkpt lat="44.22741773455202" lon="11.976690631223567"><ele>35.0</ele><time>2026-04-05T18:45:27Z</time></trkpt><trkpt lat="44.22755124989524" lon="11.976829243164902"><ele>34.666666666666664</ele><time>2026-04-05T18:45:28Z</time></trkpt><trkpt lat="44.22770973243828" lon="11.976973579496299"><ele>34.333333333333336</ele><time>2026-04-05T18:45:29Z</time></trkpt><trkpt lat="44.227881014884524" lon="11.977129573260921"><ele>34.0</ele><time>2026-04-05T18:45:30Z</time></trkpt><trkpt lat="44.22805437734763" lon="11.977287461388618"><ele>34.0</ele><time>2026-04-05T18:45:31Z</time></trkpt><trkpt lat="44.22822931097273" lon="11.977442408588704"><ele>34.0</ele><time>2026-04-05T18:45:32Z</time></trkpt><trkpt lat="44.22841009267885" lon="11.9776022587362"><ele>34.0</ele><time>2026-04-05T18:45:33Z</time></trkpt><trkpt lat="44.22861337288279" lon="11.97777063102142"><ele>33.5</ele><time>2026-04-05T18:45:34Z</time></trkpt><trkpt lat="44.22882529470201" lon="11.97794334882672"><ele>33.0</ele><time>2026-04-05T18:45:35Z</time></trkpt><trkpt lat="44.22904715724123" lon="11.978124168361155"><ele>33.0</ele><time>2026-04-05T18:45:36Z</time></trkpt><trkpt lat="44.229267366487356" lon="11.978303640445786"><ele>33.0</ele><time>2026-04-05T18:45:37Z</time></trkpt><trkpt lat="44.22948349937381" lon="11.978479039831807"><ele>32.5</ele><time>2026-04-05T18:45:38Z</time></trkpt><trkpt lat="44.22970029999548" lon="11.978653149537681"><ele>32.0</ele><time>2026-04-05T18:45:39Z</time></trkpt><trkpt lat="44.229915924815955" lon="11.97882528780201"><ele>32.0</ele><time>2026-04-05T18:45:40Z</time></trkpt><trkpt lat="44.230138742378195" lon="11.97900173666678"><ele>32.0</ele><time>2026-04-05T18:45:41Z</time></trkpt><trkpt lat="44.230360069522874" lon="11.979178704801244"><ele>32.0</ele><time>2026-04-05T18:45:42Z</time></trkpt><trkpt lat="44.230585846777274" lon="11.979359922200656"><ele>32.0</ele><time>2026-04-05T18:45:43Z</time></trkpt><trkpt lat="44.230818950314664" lon="11.979542366576755"><ele>31.0</ele><time>2026-04-05T18:45:44Z</time></trkpt><trkpt lat="44.23105555066145" lon="11.979723215278604"><ele>30.0</ele><time>2026-04-05T18:45:45Z</time></trkpt><trkpt lat="44.231294893982906" lon="11.979900667890142"><ele>30.0</ele><time>2026-04-05T18:45:46Z</time></trkpt><trkpt lat="44.23153125201681" lon="11.980067971900448"><ele>30.0</ele><time>2026-04-05T18:45:47Z</time></trkpt><trkpt lat="44.23176872555886" lon="11.980236067074852"><ele>30.0</ele><time>2026-04-05T18:45:48Z</time></trkpt><trkpt lat="44.2320047379799" lon="11.98040312642967"><ele>30.0</ele><time>2026-04-05T18:45:49Z</time></trkpt><trkpt lat="44.23223682425975" lon="11.98056740683463"><ele>30.5</ele><time>2026-04-05T18:45:50Z</time></trkpt><trkpt lat="44.232479640856" lon="11.980739851602467"><ele>31.0</ele><time>2026-04-05T18:45:51Z</time></trkpt><trkpt lat="44.23272092557348" lon="11.980912296464359"><ele>30.0</ele><time>2026-04-05T18:45:52Z</time></trkpt><trkpt lat="44.23296050007136" lon="11.981083519304711"><ele>29.0</ele><time>2026-04-05T18:45:53Z</time></trkpt><trkpt lat="44.23319057837495" lon="11.981247955178633"><ele>29.0</ele><time>2026-04-05T18:45:54Z</time></trkpt><trkpt lat="44.23342732820053" lon="11.981413873476114"><ele>29.0</ele><time>2026-04-05T18:45:55Z</time></trkpt><trkpt lat="44.23365584241635" lon="11.98157281151071"><ele>29.0</ele><time>2026-04-05T18:45:56Z</time></trkpt><trkpt lat="44.23387782294482" lon="11.981735674041806"><ele>29.0</ele><time>2026-04-05T18:45:57Z</time></trkpt><trkpt lat="44.23408580746551" lon="11.981889891589947"><ele>29.0</ele><time>2026-04-05T18:45:58Z</time></trkpt><trkpt lat="44.23428271769808" lon="11.982026442060251"><ele>29.0</ele><time>2026-04-05T18:45:59Z</time></trkpt><trkpt lat="44.23446465892286" lon="11.982152156278206"><ele>29.0</ele><time>2026-04-05T18:46:00Z</time></trkpt><trkpt lat="44.23463929336661" lon="11.982274385147367"><ele>29.0</ele><time>2026-04-05T18:46:01Z</time></trkpt><trkpt lat="44.23479537642673" lon="11.98238584930521"><ele>29.0</ele><time>2026-04-05T18:46:02Z</time></trkpt><trkpt lat="44.2349451561771" lon="11.982493086548793"><ele>29.0</ele><time>2026-04-05T18:46:03Z</time></trkpt><trkpt lat="44.235081232415155" lon="11.982593020504586"><ele>28.799999999999997</ele><time>2026-04-05T18:46:04Z</time></trkpt><trkpt lat="44.23520915455125" lon="11.982647526394167"><ele>28.599999999999998</ele><time>2026-04-05T18:46:05Z</time></trkpt><trkpt lat="44.23530961201408" lon="11.982697403295887"><ele>28.4</ele><time>2026-04-05T18:46:06Z</time></trkpt><trkpt lat="44.235403961660246" lon="11.982649361351925"><ele>28.2</ele><time>2026-04-05T18:46:07Z</time></trkpt><trkpt lat="44.235469860276154" lon="11.98258267971447"><ele>28.0</ele><time>2026-04-05T18:46:08Z</time></trkpt><trkpt lat="44.23551003171485" lon="11.982482126972744"><ele>28.0</ele><time>2026-04-05T18:46:09Z</time></trkpt><trkpt lat="44.23554746937272" lon="11.982359774294208"><ele>28.0</ele><time>2026-04-05T18:46:10Z</time></trkpt><trkpt lat="44.23559802112933" lon="11.982209762392623"><ele>28.0</ele><time>2026-04-05T18:46:11Z</time></trkpt><trkpt lat="44.23566121174852" lon="11.982060233050593"><ele>28.0</ele><time>2026-04-05T18:46:12Z</time></trkpt><trkpt lat="44.23572639876701" lon="11.98190511583671"><ele>28.0</ele><time>2026-04-05T18:46:13Z</time></trkpt><trkpt lat="44.23579499096802" lon="11.981745397653679"><ele>27.999999999999996</ele><time>2026-04-05T18:46:14Z</time></trkpt><trkpt lat="44.23584914735221" lon="11.981606869800771"><ele>27.999999999999996</ele><time>2026-04-05T18:46:15Z</time></trkpt><trkpt lat="44.23590745436173" lon="11.981501556384215"><ele>28.0</ele><time>2026-04-05T18:46:16Z</time></trkpt><trkpt lat="44.23594247116032" lon="11.981424023541932"><ele>28.0</ele><time>2026-04-05T18:46:17Z</time></trkpt><trkpt lat="44.23612585999248" lon="11.98118775839279"><ele>28.0</ele><time>2026-04-05T18:46:19Z</time></trkpt><trkpt lat="44.23622094864291" lon="11.981192952394716"><ele>28.0</ele><time>2026-04-05T18:46:20Z</time></trkpt><trkpt lat="44.236300921029574" lon="11.981096177184003"><ele>28.0</ele><time>2026-04-05T18:46:22Z</time></trkpt><trkpt lat="44.2365507002914" lon="11.981433375328614"><ele>28.0</ele><time>2026-04-05T18:46:23Z</time></trkpt><trkpt lat="44.2366949836828" lon="11.981555963103377"><ele>28.0</ele><time>2026-04-05T18:46:24Z</time></trkpt><trkpt lat="44.23685506120466" lon="11.981683404578728"><ele>28.0</ele><time>2026-04-05T18:46:25Z</time></trkpt><trkpt lat="44.23703210822686" lon="11.98182934885338"><ele>28.0</ele><time>2026-04-05T18:46:26Z</time></trkpt><trkpt lat="44.23722237799204" lon="11.981990672469623"><ele>28.0</ele><time>2026-04-05T18:46:27Z</time></trkpt><trkpt lat="44.237422113575626" lon="11.9821484805053"><ele>28.0</ele><time>2026-04-05T18:46:27.999Z</time></trkpt><trkpt lat="44.23761002768794" lon="11.982304729785493"><ele>28.0</ele><time>2026-04-05T18:46:28.999Z</time></trkpt><trkpt lat="44.23779809401537" lon="11.982457080682693"><ele>28.0</ele><time>2026-04-05T18:46:29.999Z</time></trkpt><trkpt lat="44.23797946988638" lon="11.982597920642654"><ele>27.333333333333336</ele><time>2026-04-05T18:46:30.999Z</time></trkpt><trkpt lat="44.238143129343165" lon="11.982727405468792"><ele>26.666666666666664</ele><time>2026-04-05T18:46:31.999Z</time></trkpt><trkpt lat="44.238295465961" lon="11.982841214962486"><ele>26.0</ele><time>2026-04-05T18:46:32.999Z</time></trkpt><trkpt lat="44.23841888069801" lon="11.982941485956276"><ele>25.999999999999996</ele><time>2026-04-05T18:46:33.999Z</time></trkpt><trkpt lat="44.23851714746557" lon="11.983015048162953"><ele>26.0</ele><time>2026-04-05T18:46:34.999Z</time></trkpt><trkpt lat="44.23859054366394" lon="11.98306317155583"><ele>26.0</ele><time>2026-04-05T18:46:35.999Z</time></trkpt><trkpt lat="44.23865453953443" lon="11.983058429273935"><ele>26.0</ele><time>2026-04-05T18:46:36.999Z</time></trkpt><trkpt lat="44.23872220188086" lon="11.983006220353076"><ele>25.999999999999996</ele><time>2026-04-05T18:46:37.999Z</time></trkpt><trkpt lat="44.238782408301255" lon="11.982898610740753"><ele>26.0</ele><time>2026-04-05T18:46:38.999Z</time></trkpt><trkpt lat="44.23882073918449" lon="11.982750583184986"><ele>26.0</ele><time>2026-04-05T18:46:39.999Z</time></trkpt><trkpt lat="44.23886693215749" lon="11.98257850835451"><ele>26.0</ele><time>2026-04-05T18:46:40.999Z</time></trkpt><trkpt lat="44.23892726627283" lon="11.98235244132684"><ele>26.0</ele><time>2026-04-05T18:46:41.999Z</time></trkpt><trkpt lat="44.23900139242835" lon="11.982164470213794"><ele>26.0</ele><time>2026-04-05T18:46:42.999Z</time></trkpt><trkpt lat="44.239078035144814" lon="11.981963447266658"><ele>26.0</ele><time>2026-04-05T18:46:43.999Z</time></trkpt><trkpt lat="44.23915559085427" lon="11.981758107886778"><ele>26.0</ele><time>2026-04-05T18:46:44.999Z</time></trkpt><trkpt lat="44.239234302754205" lon="11.98155355261599"><ele>26.0</ele><time>2026-04-05T18:46:45.999Z</time></trkpt><trkpt lat="44.239307707759295" lon="11.981360497209703"><ele>26.0</ele><time>2026-04-05T18:46:46.999Z</time></trkpt><trkpt lat="44.23937508945599" lon="11.981178741509245"><ele>26.0</ele><time>2026-04-05T18:46:47.999Z</time></trkpt><trkpt lat="44.23942940818979" lon="11.981023576379354"><ele>26.0</ele><time>2026-04-05T18:46:48.999Z</time></trkpt><trkpt lat="44.23948104679997" lon="11.98088700656523"><ele>26.0</ele><time>2026-04-05T18:46:49.999Z</time></trkpt><trkpt lat="44.23953707813248" lon="11.980790086280026"><ele>26.0</ele><time>2026-04-05T18:46:50.999Z</time></trkpt><trkpt lat="44.23961100553447" lon="11.98073748230419"><ele>26.0</ele><time>2026-04-05T18:46:51.999Z</time></trkpt><trkpt lat="44.23969749988808" lon="11.980736771057364"><ele>26.0</ele><time>2026-04-05T18:46:52.999Z</time></trkpt><trkpt lat="44.23978982780394" lon="11.980791460867012"><ele>26.0</ele><time>2026-04-05T18:46:53.999Z</time></trkpt><trkpt lat="44.239884385234404" lon="11.980877847292904"><ele>26.0</ele><time>2026-04-05T18:46:54.999Z</time></trkpt><trkpt lat="44.23999603885238" lon="11.980985515347564"><ele>26.0</ele><time>2026-04-05T18:46:55.999Z</time></trkpt><trkpt lat="44.240127582260406" lon="11.981105324221652"><ele>26.0</ele><time>2026-04-05T18:46:56.999Z</time></trkpt><trkpt lat="44.240282988160935" lon="11.981236114098053"><ele>26.0</ele><time>2026-04-05T18:46:57.999Z</time></trkpt><trkpt lat="44.24045837869971" lon="11.981376203499298"><ele>26.0</ele><time>2026-04-05T18:46:58.999Z</time></trkpt><trkpt lat="44.240644378989955" lon="11.981525570140848"><ele>26.0</ele><time>2026-04-05T18:46:59.999Z</time></trkpt><trkpt lat="44.24084446584037" lon="11.981696744604081"><ele>25.5</ele><time>2026-04-05T18:47:00.999Z</time></trkpt><trkpt lat="44.24104506504495" lon="11.9818707832232"><ele>25.0</ele><time>2026-04-05T18:47:01.999Z</time></trkpt><trkpt lat="44.241246914616326" lon="11.982039821481562"><ele>25.0</ele><time>2026-04-05T18:47:02.999Z</time></trkpt><trkpt lat="44.241459930327586" lon="11.982215272388421"><ele>25.0</ele><time>2026-04-05T18:47:03.999Z</time></trkpt><trkpt lat="44.24166177550208" lon="11.982375690986174"><ele>25.0</ele><time>2026-04-05T18:47:04.999Z</time></trkpt><trkpt lat="44.24188577925188" lon="11.982567925515763"><ele>25.0</ele><time>2026-04-05T18:47:05.999Z</time></trkpt><trkpt lat="44.242111345442176" lon="11.982753547797305"><ele>25.5</ele><time>2026-04-05T18:47:06.999Z</time></trkpt><trkpt lat="44.242342646809085" lon="11.982946748643228"><ele>26.0</ele><time>2026-04-05T18:47:07.999Z</time></trkpt><trkpt lat="44.24257429981305" lon="11.983143755039995"><ele>26.0</ele><time>2026-04-05T18:47:08.999Z</time></trkpt><trkpt lat="44.24278750207678" lon="11.983325064649184"><ele>26.0</ele><time>2026-04-05T18:47:09.999Z</time></trkpt><trkpt lat="44.242986957790215" lon="11.983489193910899"><ele>25.0</ele><time>2026-04-05T18:47:10.999Z</time></trkpt><trkpt lat="44.24318131594707" lon="11.98364759903705"><ele>24.0</ele><time>2026-04-05T18:47:11.999Z</time></trkpt><trkpt lat="44.243379548307765" lon="11.983812826542085"><ele>24.0</ele><time>2026-04-05T18:47:12.999Z</time></trkpt><trkpt lat="44.24356489265673" lon="11.983966097658278"><ele>24.0</ele><time>2026-04-05T18:47:13.999Z</time></trkpt><trkpt lat="44.24373419927149" lon="11.984105593468733"><ele>24.0</ele><time>2026-04-05T18:47:14.999Z</time></trkpt><trkpt lat="44.24389313304712" lon="11.984240062602767"><ele>24.666666666666664</ele><time>2026-04-05T18:47:15.999Z</time></trkpt><trkpt lat="44.244042693060806" lon="11.984366232957077"><ele>25.333333333333332</ele><time>2026-04-05T18:47:16.999Z</time></trkpt><trkpt lat="44.24417149456222" lon="11.984500935872553"><ele>26.0</ele><time>2026-04-05T18:47:17.999Z</time></trkpt><trkpt lat="44.24428731739534" lon="11.984598538135701"><ele>25.999999999999996</ele><time>2026-04-05T18:47:18.999Z</time></trkpt><trkpt lat="44.244370761689716" lon="11.98466879332746"><ele>26.0</ele><time>2026-04-05T18:47:19.999Z</time></trkpt><trkpt lat="44.24443641102801" lon="11.984725556422807"><ele>26.0</ele><time>2026-04-05T18:47:20.999Z</time></trkpt><trkpt lat="44.24449112107786" lon="11.984772302027704"><ele>26.0</ele><time>2026-04-05T18:47:21.999Z</time></trkpt><trkpt lat="44.24457834291378" lon="11.984816262867213"><ele>25.999999999999996</ele><time>2026-04-05T18:47:23.999Z</time></trkpt><trkpt lat="44.24464174444729" lon="11.98486146412533"><ele>26.0</ele><time>2026-04-05T18:47:25.999Z</time></trkpt><trkpt lat="44.244749299669145" lon="11.98465066383944"><ele>25.75</ele><time>2026-04-05T18:47:27.999Z</time></trkpt><trkpt lat="44.24480526383048" lon="11.984509091548327"><ele>25.5</ele><time>2026-04-05T18:47:28.999Z</time></trkpt><trkpt lat="44.24485930610676" lon="11.984344803427602"><ele>25.25</ele><time>2026-04-05T18:47:30Z</time></trkpt><trkpt lat="44.24492652355801" lon="11.984171649056657"><ele>25.0</ele><time>2026-04-05T18:47:31Z</time></trkpt><trkpt lat="44.24500402421944" lon="11.983985182157177"><ele>25.0</ele><time>2026-04-05T18:47:32Z</time></trkpt><trkpt lat="44.245081979213566" lon="11.98379488987933"><ele>25.0</ele><time>2026-04-05T18:47:33Z</time></trkpt><trkpt lat="44.245161653866134" lon="11.983593953249846"><ele>25.0</ele><time>2026-04-05T18:47:34Z</time></trkpt><trkpt lat="44.245246948485125" lon="11.983384140050116"><ele>25.333333333333336</ele><time>2026-04-05T18:47:35Z</time></trkpt><trkpt lat="44.24534417125472" lon="11.983135194006048"><ele>25.666666666666664</ele><time>2026-04-05T18:47:36Z</time></trkpt><trkpt lat="44.24543506508411" lon="11.982908387918485"><ele>26.0</ele><time>2026-04-05T18:47:37Z</time></trkpt><trkpt lat="44.2455311778434" lon="11.982672166584312"><ele>25.666666666666664</ele><time>2026-04-05T18:47:38Z</time></trkpt><trkpt lat="44.24562152179172" lon="11.982454562811554"><ele>25.333333333333336</ele><time>2026-04-05T18:47:39Z</time></trkpt><trkpt lat="44.24570373528907" lon="11.982253347997304"><ele>25.0</ele><time>2026-04-05T18:47:40Z</time></trkpt><trkpt lat="44.245779413657736" lon="11.982067905472523"><ele>25.0</ele><time>2026-04-05T18:47:41Z</time></trkpt><trkpt lat="44.24584657542417" lon="11.981902047983413"><ele>25.0</ele><time>2026-04-05T18:47:42Z</time></trkpt><trkpt lat="44.24591366845831" lon="11.98173313411418"><ele>25.0</ele><time>2026-04-05T18:47:43Z</time></trkpt><trkpt lat="44.24598053691308" lon="11.98157296069224"><ele>25.0</ele><time>2026-04-05T18:47:44Z</time></trkpt><trkpt lat="44.24604075220852" lon="11.981428625382781"><ele>25.0</ele><time>2026-04-05T18:47:45Z</time></trkpt><trkpt lat="44.24610010374432" lon="11.981286257223386"><ele>25.0</ele><time>2026-04-05T18:47:46Z</time></trkpt><trkpt lat="44.246156992943256" lon="11.981148905592917"><ele>25.0</ele><time>2026-04-05T18:47:47Z</time></trkpt><trkpt lat="44.246208461090134" lon="11.981013378651468"><ele>25.0</ele><time>2026-04-05T18:47:48Z</time></trkpt><trkpt lat="44.24626345230354" lon="11.98087108909049"><ele>25.0</ele><time>2026-04-05T18:47:49Z</time></trkpt><trkpt lat="44.246324397007875" lon="11.980721600892533"><ele>25.0</ele><time>2026-04-05T18:47:50Z</time></trkpt><trkpt lat="44.24639328721811" lon="11.980564333706264"><ele>25.0</ele><time>2026-04-05T18:47:51Z</time></trkpt><trkpt lat="44.24646163584293" lon="11.980400580360078"><ele>25.0</ele><time>2026-04-05T18:47:52Z</time></trkpt><trkpt lat="44.2465345933152" lon="11.980228415455201"><ele>25.0</ele><time>2026-04-05T18:47:53Z</time></trkpt><trkpt lat="44.246609566180354" lon="11.98004941278843"><ele>25.0</ele><time>2026-04-05T18:47:54Z</time></trkpt><trkpt lat="44.246686011900636" lon="11.979864217218932"><ele>25.0</ele><time>2026-04-05T18:47:55Z</time></trkpt><trkpt lat="44.24676374587476" lon="11.979675578841672"><ele>25.0</ele><time>2026-04-05T18:47:56Z</time></trkpt><trkpt lat="44.24684684659504" lon="11.97948867300628"><ele>25.0</ele><time>2026-04-05T18:47:57Z</time></trkpt><trkpt lat="44.24693182859107" lon="11.979292560855257"><ele>25.0</ele><time>2026-04-05T18:47:58Z</time></trkpt><trkpt lat="44.2470136553792" lon="11.979099679009815"><ele>24.666666666666668</ele><time>2026-04-05T18:47:59Z</time></trkpt><trkpt lat="44.24709313166178" lon="11.978904670003958"><ele>24.333333333333336</ele><time>2026-04-05T18:48:00Z</time></trkpt><trkpt lat="44.247174558241284" lon="11.978704315959057"><ele>24.0</ele><time>2026-04-05T18:48:01Z</time></trkpt><trkpt lat="44.24725518792644" lon="11.978508414903832"><ele>24.0</ele><time>2026-04-05T18:48:02Z</time></trkpt><trkpt lat="44.247335451340334" lon="11.978315682677481"><ele>24.0</ele><time>2026-04-05T18:48:03Z</time></trkpt><trkpt lat="44.24741224710399" lon="11.978125624904646"><ele>24.0</ele><time>2026-04-05T18:48:04Z</time></trkpt><trkpt lat="44.24749456359313" lon="11.977929713672077"><ele>24.0</ele><time>2026-04-05T18:48:05Z</time></trkpt><trkpt lat="44.24756509353656" lon="11.977747646402541"><ele>24.0</ele><time>2026-04-05T18:48:06Z</time></trkpt><trkpt lat="44.2476418942634" lon="11.977559475354667"><ele>24.0</ele><time>2026-04-05T18:48:07Z</time></trkpt><trkpt lat="44.24772068051342" lon="11.977369490853505"><ele>24.333333333333336</ele><time>2026-04-05T18:48:08Z</time></trkpt><trkpt lat="44.247801974962435" lon="11.977179460144416"><ele>24.666666666666668</ele><time>2026-04-05T18:48:09Z</time></trkpt><trkpt lat="44.24788795546353" lon="11.976988016899158"><ele>25.0</ele><time>2026-04-05T18:48:10Z</time></trkpt><trkpt lat="44.24794938577041" lon="11.97681644601883"><ele>25.0</ele><time>2026-04-05T18:48:11Z</time></trkpt><trkpt lat="44.247981930412145" lon="11.976686689021312"><ele>25.0</ele><time>2026-04-05T18:48:12Z</time></trkpt><trkpt lat="44.24805334130443" lon="11.976497123189251"><ele>25.0</ele><time>2026-04-05T18:48:13Z</time></trkpt><trkpt lat="44.248177185636365" lon="11.976266311377533"><ele>25.25</ele><time>2026-04-05T18:48:14Z</time></trkpt><trkpt lat="44.248253696817976" lon="11.976089313400625"><ele>25.5</ele><time>2026-04-05T18:48:15Z</time></trkpt><trkpt lat="44.248316547063965" lon="11.975929411415967"><ele>25.75</ele><time>2026-04-05T18:48:16Z</time></trkpt><trkpt lat="44.24837545970496" lon="11.975792740874184"><ele>26.0</ele><time>2026-04-05T18:48:17Z</time></trkpt><trkpt lat="44.248443021672344" lon="11.975696685400964"><ele>26.0</ele><time>2026-04-05T18:48:18Z</time></trkpt><trkpt lat="44.248513605733045" lon="11.975649355531905"><ele>26.0</ele><time>2026-04-05T18:48:19Z</time></trkpt><trkpt lat="44.248615563916914" lon="11.975686928557783"><ele>26.0</ele><time>2026-04-05T18:48:20Z</time></trkpt><trkpt lat="44.248679045480735" lon="11.975685544100713"><ele>26.0</ele><time>2026-04-05T18:48:21Z</time></trkpt><trkpt lat="44.248741339153106" lon="11.975873716990042"><ele>26.0</ele><time>2026-04-05T18:48:22Z</time></trkpt><trkpt lat="44.24880311032912" lon="11.976005983064127"><ele>26.0</ele><time>2026-04-05T18:48:23Z</time></trkpt><trkpt lat="44.248880171027736" lon="11.976151598157026"><ele>26.0</ele><time>2026-04-05T18:48:24Z</time></trkpt><trkpt lat="44.248983801571086" lon="11.97629488532521"><ele>26.0</ele><time>2026-04-05T18:48:25Z</time></trkpt><trkpt lat="44.24909943108653" lon="11.976441170151443"><ele>26.0</ele><time>2026-04-05T18:48:26Z</time></trkpt><trkpt lat="44.249224264416824" lon="11.976599592823254"><ele>25.0</ele><time>2026-04-05T18:48:27Z</time></trkpt><trkpt lat="44.2493663028918" lon="11.976780550574276"><ele>24.0</ele><time>2026-04-05T18:48:28Z</time></trkpt><trkpt lat="44.249523586895215" lon="11.976973951514882"><ele>23.0</ele><time>2026-04-05T18:48:29Z</time></trkpt><trkpt lat="44.24969326543956" lon="11.977171705167464"><ele>22.666666666666668</ele><time>2026-04-05T18:48:30Z</time></trkpt><trkpt lat="44.24986176211429" lon="11.97736416302238"><ele>22.333333333333332</ele><time>2026-04-05T18:48:31Z</time></trkpt><trkpt lat="44.25002698696894" lon="11.977553330063365"><ele>22.0</ele><time>2026-04-05T18:48:32Z</time></trkpt><trkpt lat="44.25020094411001" lon="11.977743094353094"><ele>22.0</ele><time>2026-04-05T18:48:33Z</time></trkpt><trkpt lat="44.25038999840112" lon="11.97792101642827"><ele>22.0</ele><time>2026-04-05T18:48:34Z</time></trkpt><trkpt lat="44.25059390398878" lon="11.978083186305826"><ele>22.0</ele><time>2026-04-05T18:48:35Z</time></trkpt><trkpt lat="44.25080829661793" lon="11.978263678540578"><ele>22.0</ele><time>2026-04-05T18:48:35.999Z</time></trkpt><trkpt lat="44.25104011231003" lon="11.978418266726262"><ele>22.0</ele><time>2026-04-05T18:48:36.999Z</time></trkpt><trkpt lat="44.25128455569197" lon="11.978575002089068"><ele>22.0</ele><time>2026-04-05T18:48:37.999Z</time></trkpt><trkpt lat="44.251517506329854" lon="11.97872484045609"><ele>22.5</ele><time>2026-04-05T18:48:38.999Z</time></trkpt><trkpt lat="44.25174719715249" lon="11.978850238949985"><ele>23.0</ele><time>2026-04-05T18:48:39.999Z</time></trkpt><trkpt lat="44.25196383765666" lon="11.978994306849055"><ele>23.0</ele><time>2026-04-05T18:48:40.999Z</time></trkpt><trkpt lat="44.252192752709135" lon="11.979143785278394"><ele>23.0</ele><time>2026-04-05T18:48:41.999Z</time></trkpt><trkpt lat="44.25242207434822" lon="11.979293165907876"><ele>22.5</ele><time>2026-04-05T18:48:42.999Z</time></trkpt><trkpt lat="44.25266382066753" lon="11.979449512820429"><ele>22.0</ele><time>2026-04-05T18:48:43.999Z</time></trkpt><trkpt lat="44.2529046676356" lon="11.979609255728036"><ele>22.0</ele><time>2026-04-05T18:48:44.999Z</time></trkpt><trkpt lat="44.253156077729834" lon="11.979768539256083"><ele>22.0</ele><time>2026-04-05T18:48:45.999Z</time></trkpt><trkpt lat="44.25339784280801" lon="11.979926579203067"><ele>22.0</ele><time>2026-04-05T18:48:46.999Z</time></trkpt><trkpt lat="44.25361222813975" lon="11.980066576011025"><ele>22.0</ele><time>2026-04-05T18:48:47.999Z</time></trkpt><trkpt lat="44.25381322237501" lon="11.980199321406579"><ele>21.666666666666664</ele><time>2026-04-05T18:48:48.999Z</time></trkpt><trkpt lat="44.25401123223425" lon="11.980327152589622"><ele>21.333333333333332</ele><time>2026-04-05T18:48:49.999Z</time></trkpt><trkpt lat="44.25421035171877" lon="11.980456741334063"><ele>21.0</ele><time>2026-04-05T18:48:50.999Z</time></trkpt><trkpt lat="44.25440767062329" lon="11.980583456930251"><ele>21.0</ele><time>2026-04-05T18:48:51.999Z</time></trkpt><trkpt lat="44.254607952413146" lon="11.980708802834643"><ele>21.0</ele><time>2026-04-05T18:48:52.999Z</time></trkpt><trkpt lat="44.2548184852539" lon="11.980840061747605"><ele>20.5</ele><time>2026-04-05T18:48:53.999Z</time></trkpt><trkpt lat="44.25503052455546" lon="11.980974139670295"><ele>20.0</ele><time>2026-04-05T18:48:54.999Z</time></trkpt><trkpt lat="44.25523002625795" lon="11.98110047757161"><ele>20.0</ele><time>2026-04-05T18:48:55.999Z</time></trkpt><trkpt lat="44.25542392381934" lon="11.981231499212123"><ele>20.0</ele><time>2026-04-05T18:48:56.999Z</time></trkpt><trkpt lat="44.25561873862804" lon="11.981379976367606"><ele>20.0</ele><time>2026-04-05T18:48:57.999Z</time></trkpt><trkpt lat="44.255809553992016" lon="11.98156171269945"><ele>19.5</ele><time>2026-04-05T18:48:58.999Z</time></trkpt><trkpt lat="44.255980330123215" lon="11.981790386560421"><ele>19.0</ele><time>2026-04-05T18:48:59.999Z</time></trkpt><trkpt lat="44.256159715270755" lon="11.982017878989716"><ele>19.0</ele><time>2026-04-05T18:49:00.999Z</time></trkpt><trkpt lat="44.25631317827622" lon="11.982284993735522"><ele>19.0</ele><time>2026-04-05T18:49:01.999Z</time></trkpt><trkpt lat="44.2564494898719" lon="11.982573918988248"><ele>19.5</ele><time>2026-04-05T18:49:02.999Z</time></trkpt><trkpt lat="44.25656923389479" lon="11.982878820929653"><ele>20.0</ele><time>2026-04-05T18:49:03.999Z</time></trkpt><trkpt lat="44.25666358192963" lon="11.98318572752376"><ele>20.0</ele><time>2026-04-05T18:49:04.999Z</time></trkpt><trkpt lat="44.25674485943299" lon="11.983507434040114"><ele>20.0</ele><time>2026-04-05T18:49:05.999Z</time></trkpt><trkpt lat="44.256810540030024" lon="11.983846430663284"><ele>20.5</ele><time>2026-04-05T18:49:06.999Z</time></trkpt><trkpt lat="44.25687363048715" lon="11.984186138290992"><ele>21.0</ele><time>2026-04-05T18:49:07.999Z</time></trkpt><trkpt lat="44.25693053776549" lon="11.984517053373922"><ele>21.0</ele><time>2026-04-05T18:49:08.999Z</time></trkpt><trkpt lat="44.256992628272954" lon="11.984812896743481"><ele>21.0</ele><time>2026-04-05T18:49:09.999Z</time></trkpt><trkpt lat="44.257070180892995" lon="11.985100396980036"><ele>21.0</ele><time>2026-04-05T18:49:10.999Z</time></trkpt><trkpt lat="44.25713057224214" lon="11.985377006984923"><ele>21.0</ele><time>2026-04-05T18:49:11.999Z</time></trkpt><trkpt lat="44.25720707593903" lon="11.985658982432549"><ele>21.0</ele><time>2026-04-05T18:49:12.999Z</time></trkpt><trkpt lat="44.25743050549575" lon="11.98586410009583"><ele>21.0</ele><time>2026-04-05T18:49:13.999Z</time></trkpt><trkpt lat="44.2575910198698" lon="11.986095554418235"><ele>21.0</ele><time>2026-04-05T18:49:14.999Z</time></trkpt><trkpt lat="44.25777038133383" lon="11.986311339033026"><ele>21.0</ele><time>2026-04-05T18:49:15.999Z</time></trkpt><trkpt lat="44.25793856187251" lon="11.986498481914484"><ele>21.0</ele><time>2026-04-05T18:49:16.999Z</time></trkpt><trkpt lat="44.258095080637155" lon="11.986675697271039"><ele>21.0</ele><time>2026-04-05T18:49:17.999Z</time></trkpt><trkpt lat="44.25824359205568" lon="11.986842561006602"><ele>21.0</ele><time>2026-04-05T18:49:18.999Z</time></trkpt><trkpt lat="44.25840208496386" lon="11.987010958743584"><ele>21.0</ele><time>2026-04-05T18:49:19.999Z</time></trkpt><trkpt lat="44.25854504316035" lon="11.987180183423916"><ele>21.0</ele><time>2026-04-05T18:49:20.999Z</time></trkpt><trkpt lat="44.25865332102443" lon="11.987327710053028"><ele>21.0</ele><time>2026-04-05T18:49:21.999Z</time></trkpt><trkpt lat="44.25873681293206" lon="11.987441133549414"><ele>21.0</ele><time>2026-04-05T18:49:22.999Z</time></trkpt><trkpt lat="44.258789333051986" lon="11.987511479334856"><ele>21.0</ele><time>2026-04-05T18:49:23.999Z</time></trkpt><trkpt lat="44.25885684310859" lon="11.987531938240082"><ele>21.0</ele><time>2026-04-05T18:50:10Z</time></trkpt><trkpt lat="44.258786340536574" lon="11.987434592478309"><ele>21.0</ele><time>2026-04-05T18:50:27Z</time></trkpt><trkpt lat="44.25873363352301" lon="11.987377219931602"><ele>21.0</ele><time>2026-04-05T18:50:29Z</time></trkpt><trkpt lat="44.25867964273803" lon="11.987312043271507"><ele>21.0</ele><time>2026-04-05T18:50:31Z</time></trkpt><trkpt lat="44.25861950769858" lon="11.987244072521037"><ele>21.0</ele><time>2026-04-05T18:50:33Z</time></trkpt><trkpt lat="44.25855670166675" lon="11.987156167052712"><ele>21.0</ele><time>2026-04-05T18:50:36Z</time></trkpt><trkpt lat="44.25850811775054" lon="11.987095143465707"><ele>21.0</ele><time>2026-04-05T18:50:38Z</time></trkpt><trkpt lat="44.258441872062136" lon="11.987023051899515"><ele>21.0</ele><time>2026-04-05T18:50:41Z</time></trkpt><trkpt lat="44.25839170556012" lon="11.986962539616282"><ele>21.0</ele><time>2026-04-05T18:50:44Z</time></trkpt><trkpt lat="44.25834391517967" lon="11.986896477543274"><ele>21.0</ele><time>2026-04-05T18:51:10.999Z</time></trkpt><trkpt lat="44.258287547939446" lon="11.986835596528413"><ele>21.0</ele><time>2026-04-05T18:51:12.999Z</time></trkpt><trkpt lat="44.25806924375264" lon="11.986693135690121"><ele>21.0</ele><time>2026-04-05T18:51:23.999Z</time></trkpt><trkpt lat="44.2584369768077" lon="11.98702510592819"><ele>21.0</ele><time>2026-04-05T18:51:24.999Z</time></trkpt><trkpt lat="44.25852680286176" lon="11.987137242200294"><ele>21.0</ele><time>2026-04-05T18:51:46Z</time></trkpt><trkpt lat="44.25857829140147" lon="11.987255207729413"><ele>21.0</ele><time>2026-04-05T18:51:47Z</time></trkpt><trkpt lat="44.25865616716754" lon="11.987352877126208"><ele>21.0</ele><time>2026-04-05T18:51:48Z</time></trkpt><trkpt lat="44.25873717617023" lon="11.987454476234285"><ele>21.0</ele><time>2026-04-05T18:51:49Z</time></trkpt><trkpt lat="44.25882695786208" lon="11.987567077319284"><ele>21.25</ele><time>2026-04-05T18:51:50Z</time></trkpt><trkpt lat="44.25893059564268" lon="11.987696469874676"><ele>21.5</ele><time>2026-04-05T18:51:51Z</time></trkpt><trkpt lat="44.259040084378086" lon="11.98782997708839"><ele>21.75</ele><time>2026-04-05T18:51:52Z</time></trkpt><trkpt lat="44.25913267732843" lon="11.987945069296071"><ele>22.0</ele><time>2026-04-05T18:51:53Z</time></trkpt><trkpt lat="44.25921033242993" lon="11.988058278857043"><ele>22.0</ele><time>2026-04-05T18:51:54Z</time></trkpt><trkpt lat="44.259267723846186" lon="11.988163039109882"><ele>22.0</ele><time>2026-04-05T18:51:55Z</time></trkpt><trkpt lat="44.25927299529231" lon="11.988292065901517"><ele>22.0</ele><time>2026-04-05T18:51:56Z</time></trkpt><trkpt lat="44.25921461088945" lon="11.988403636197962"><ele>22.0</ele><time>2026-04-05T18:51:57Z</time></trkpt><trkpt lat="44.259172173624" lon="11.988539937058173"><ele>22.0</ele><time>2026-04-05T18:51:58Z</time></trkpt><trkpt lat="44.25913071130923" lon="11.988705131852655"><ele>22.0</ele><time>2026-04-05T18:51:59Z</time></trkpt><trkpt lat="44.259069390817864" lon="11.988884815218105"><ele>22.0</ele><time>2026-04-05T18:52:00Z</time></trkpt><trkpt lat="44.25900707683354" lon="11.989083783946917"><ele>22.0</ele><time>2026-04-05T18:52:01Z</time></trkpt><trkpt lat="44.258944929455566" lon="11.989291297655383"><ele>22.0</ele><time>2026-04-05T18:52:02Z</time></trkpt><trkpt lat="44.25887254500467" lon="11.989507522700613"><ele>22.0</ele><time>2026-04-05T18:52:03Z</time></trkpt><trkpt lat="44.258794038166" lon="11.989697808228362"><ele>22.0</ele><time>2026-04-05T18:52:04Z</time></trkpt><trkpt lat="44.25875013338898" lon="11.989877902591115"><ele>21.8</ele><time>2026-04-05T18:52:05Z</time></trkpt><trkpt lat="44.25869514913443" lon="11.990032548578883"><ele>21.6</ele><time>2026-04-05T18:52:06Z</time></trkpt><trkpt lat="44.258647787013494" lon="11.990180473278535"><ele>21.400000000000002</ele><time>2026-04-05T18:52:07Z</time></trkpt><trkpt lat="44.25861545864006" lon="11.99030169371743"><ele>21.200000000000003</ele><time>2026-04-05T18:52:08Z</time></trkpt><trkpt lat="44.25862624805446" lon="11.990434939654556"><ele>21.0</ele><time>2026-04-05T18:52:09Z</time></trkpt><trkpt lat="44.25871845651701" lon="11.990523822680789"><ele>21.0</ele><time>2026-04-05T18:52:10Z</time></trkpt><trkpt lat="44.258812073630786" lon="11.990598853079925"><ele>21.0</ele><time>2026-04-05T18:52:11Z</time></trkpt><trkpt lat="44.25892741724913" lon="11.990673483218886"><ele>21.0</ele><time>2026-04-05T18:52:12Z</time></trkpt><trkpt lat="44.25904628317522" lon="11.990792796482635"><ele>21.0</ele><time>2026-04-05T18:52:13Z</time></trkpt><trkpt lat="44.259187141962855" lon="11.990908263596662"><ele>21.0</ele><time>2026-04-05T18:52:14Z</time></trkpt><trkpt lat="44.25934635215287" lon="11.991027157503828"><ele>21.0</ele><time>2026-04-05T18:52:15Z</time></trkpt><trkpt lat="44.25950492909761" lon="11.99115243606528"><ele>21.0</ele><time>2026-04-05T18:52:16Z</time></trkpt><trkpt lat="44.259669414002495" lon="11.99128473788071"><ele>20.666666666666668</ele><time>2026-04-05T18:52:17Z</time></trkpt><trkpt lat="44.25984801002045" lon="11.991431143651644"><ele>20.333333333333336</ele><time>2026-04-05T18:52:18Z</time></trkpt><trkpt lat="44.2600299157408" lon="11.991583424796833"><ele>20.0</ele><time>2026-04-05T18:52:19Z</time></trkpt><trkpt lat="44.2602226047831" lon="11.991740480354757"><ele>20.333333333333336</ele><time>2026-04-05T18:52:20Z</time></trkpt><trkpt lat="44.260403603178524" lon="11.99188737899534"><ele>20.666666666666668</ele><time>2026-04-05T18:52:21Z</time></trkpt><trkpt lat="44.26058659881659" lon="11.992033730583675"><ele>21.0</ele><time>2026-04-05T18:52:22Z</time></trkpt><trkpt lat="44.260775986982324" lon="11.99218447015786"><ele>21.0</ele><time>2026-04-05T18:52:23Z</time></trkpt><trkpt lat="44.260964224575915" lon="11.992337556493371"><ele>21.0</ele><time>2026-04-05T18:52:24Z</time></trkpt><trkpt lat="44.26115843012898" lon="11.992494988753784"><ele>21.0</ele><time>2026-04-05T18:52:25Z</time></trkpt><trkpt lat="44.26134951515971" lon="11.992651704570621"><ele>21.0</ele><time>2026-04-05T18:52:26Z</time></trkpt><trkpt lat="44.26152135097258" lon="11.992791482457058"><ele>21.0</ele><time>2026-04-05T18:52:27Z</time></trkpt><trkpt lat="44.26168030415785" lon="11.992918822157035"><ele>21.0</ele><time>2026-04-05T18:52:28Z</time></trkpt><trkpt lat="44.261834517279944" lon="11.993041968967429"><ele>21.0</ele><time>2026-04-05T18:52:29Z</time></trkpt><trkpt lat="44.261977401091436" lon="11.993156346041273"><ele>21.0</ele><time>2026-04-05T18:52:30Z</time></trkpt><trkpt lat="44.26211147788684" lon="11.993253759420694"><ele>21.0</ele><time>2026-04-05T18:52:31Z</time></trkpt><trkpt lat="44.26225465958086" lon="11.993316846782417"><ele>20.5</ele><time>2026-04-05T18:52:32Z</time></trkpt><trkpt lat="44.26238437169888" lon="11.99331342115217"><ele>20.0</ele><time>2026-04-05T18:52:33Z</time></trkpt><trkpt lat="44.262507666634846" lon="11.993263513613657"><ele>19.5</ele><time>2026-04-05T18:52:34Z</time></trkpt><trkpt lat="44.26262488860102" lon="11.993183313609997"><ele>19.0</ele><time>2026-04-05T18:52:35Z</time></trkpt><trkpt lat="44.262754184466296" lon="11.99308461826726"><ele>19.0</ele><time>2026-04-05T18:52:36Z</time></trkpt><trkpt lat="44.262896373948735" lon="11.992977775692186"><ele>19.0</ele><time>2026-04-05T18:52:37Z</time></trkpt><trkpt lat="44.26304436451969" lon="11.992869324841053"><ele>19.0</ele><time>2026-04-05T18:52:38Z</time></trkpt><trkpt lat="44.263199241736935" lon="11.992761928850712"><ele>19.333333333333332</ele><time>2026-04-05T18:52:39Z</time></trkpt><trkpt lat="44.26336002321984" lon="11.992711166703137"><ele>19.666666666666668</ele><time>2026-04-05T18:52:40Z</time></trkpt><trkpt lat="44.26351182623434" lon="11.99270850077736"><ele>20.0</ele><time>2026-04-05T18:52:41Z</time></trkpt><trkpt lat="44.26365141441917" lon="11.992763741240445"><ele>20.0</ele><time>2026-04-05T18:52:42Z</time></trkpt><trkpt lat="44.263804296863825" lon="11.992860712549815"><ele>20.0</ele><time>2026-04-05T18:52:43Z</time></trkpt><trkpt lat="44.263968301398464" lon="11.992976118281407"><ele>20.0</ele><time>2026-04-05T18:52:44Z</time></trkpt><trkpt lat="44.26414820796054" lon="11.9930929467796"><ele>19.666666666666668</ele><time>2026-04-05T18:52:45Z</time></trkpt><trkpt lat="44.264315754831266" lon="11.99322142784228"><ele>19.333333333333332</ele><time>2026-04-05T18:52:46Z</time></trkpt><trkpt lat="44.26447804123369" lon="11.993336312454714"><ele>19.0</ele><time>2026-04-05T18:52:47Z</time></trkpt><trkpt lat="44.26464706862209" lon="11.993455565295335"><ele>18.333333333333332</ele><time>2026-04-05T18:52:48Z</time></trkpt><trkpt lat="44.26481658393133" lon="11.993571635369097"><ele>17.666666666666668</ele><time>2026-04-05T18:52:49Z</time></trkpt><trkpt lat="44.26497502613246" lon="11.993680843539565"><ele>17.0</ele><time>2026-04-05T18:52:50Z</time></trkpt><trkpt lat="44.26512120611246" lon="11.993786904756341"><ele>17.0</ele><time>2026-04-05T18:52:51Z</time></trkpt><trkpt lat="44.26525144732459" lon="11.993876772141073"><ele>17.0</ele><time>2026-04-05T18:52:52Z</time></trkpt><trkpt lat="44.26537368767055" lon="11.993964796780503"><ele>17.0</ele><time>2026-04-05T18:52:52.999Z</time></trkpt><trkpt lat="44.26549411875498" lon="11.994048712307917"><ele>17.0</ele><time>2026-04-05T18:52:53.999Z</time></trkpt><trkpt lat="44.26560355446396" lon="11.994147373194961"><ele>17.2</ele><time>2026-04-05T18:52:54.999Z</time></trkpt><trkpt lat="44.2657001082379" lon="11.994217063410462"><ele>17.4</ele><time>2026-04-05T18:52:55.999Z</time></trkpt><trkpt lat="44.265788729111534" lon="11.99425582586641"><ele>17.6</ele><time>2026-04-05T18:52:56.999Z</time></trkpt><trkpt lat="44.265852746190085" lon="11.994304344226352"><ele>17.8</ele><time>2026-04-05T18:52:57.999Z</time></trkpt><trkpt lat="44.26591427298964" lon="11.994348099496104"><ele>18.0</ele><time>2026-04-05T18:52:58.999Z</time></trkpt><trkpt lat="44.265999824447704" lon="11.994443413841259"><ele>18.0</ele><time>2026-04-05T18:53:00.999Z</time></trkpt><trkpt lat="44.26601325338109" lon="11.994535197866787"><ele>18.0</ele><time>2026-04-05T18:53:03.999Z</time></trkpt><trkpt lat="44.26607846946458" lon="11.99458480175401"><ele>18.0</ele><time>2026-04-05T18:53:07.999Z</time></trkpt><trkpt lat="44.26615193084305" lon="11.994624927049234"><ele>18.0</ele><time>2026-04-05T18:53:08.999Z</time></trkpt><trkpt lat="44.266250945447425" lon="11.99463033591804"><ele>18.0</ele><time>2026-04-05T18:53:09.999Z</time></trkpt><trkpt lat="44.26635757615477" lon="11.994674605268827"><ele>18.0</ele><time>2026-04-05T18:53:10.999Z</time></trkpt><trkpt lat="44.26647981788078" lon="11.994752452551086"><ele>18.25</ele><time>2026-04-05T18:53:11.999Z</time></trkpt><trkpt lat="44.26658852217909" lon="11.994841719324496"><ele>18.5</ele><time>2026-04-05T18:53:12.999Z</time></trkpt><trkpt lat="44.26671336959549" lon="11.994938868485063"><ele>18.75</ele><time>2026-04-05T18:53:13.999Z</time></trkpt><trkpt lat="44.266843882601876" lon="11.99503230861938"><ele>19.0</ele><time>2026-04-05T18:53:14.999Z</time></trkpt><trkpt lat="44.26697779020783" lon="11.995129481734802"><ele>19.0</ele><time>2026-04-05T18:53:15.999Z</time></trkpt><trkpt lat="44.26712258037667" lon="11.995231599036321"><ele>19.0</ele><time>2026-04-05T18:53:16.999Z</time></trkpt><trkpt lat="44.267265369685994" lon="11.99533506857448"><ele>19.0</ele><time>2026-04-05T18:53:17.999Z</time></trkpt><trkpt lat="44.267417548427254" lon="11.995445677341417"><ele>19.666666666666664</ele><time>2026-04-05T18:53:18.999Z</time></trkpt><trkpt lat="44.26757637699907" lon="11.995561328977583"><ele>20.333333333333332</ele><time>2026-04-05T18:53:19.999Z</time></trkpt><trkpt lat="44.267736458011534" lon="11.995679721440135"><ele>21.0</ele><time>2026-04-05T18:53:20.999Z</time></trkpt><trkpt lat="44.267898815695766" lon="11.995797496613452"><ele>20.333333333333332</ele><time>2026-04-05T18:53:21.999Z</time></trkpt><trkpt lat="44.268061643971386" lon="11.995917587549684"><ele>19.666666666666664</ele><time>2026-04-05T18:53:22.999Z</time></trkpt><trkpt lat="44.26823049131393" lon="11.996037247589445"><ele>19.0</ele><time>2026-04-05T18:53:23.999Z</time></trkpt><trkpt lat="44.26840125069721" lon="11.996161184410843"><ele>19.0</ele><time>2026-04-05T18:53:24.999Z</time></trkpt><trkpt lat="44.268570524534056" lon="11.996281947635643"><ele>19.0</ele><time>2026-04-05T18:53:25.999Z</time></trkpt><trkpt lat="44.2687473487785" lon="11.99640240126456"><ele>19.0</ele><time>2026-04-05T18:53:26.999Z</time></trkpt><trkpt lat="44.26892538321625" lon="11.996528211770599"><ele>19.333333333333332</ele><time>2026-04-05T18:53:27.999Z</time></trkpt><trkpt lat="44.26910412210499" lon="11.996659523788434"><ele>19.666666666666668</ele><time>2026-04-05T18:53:28.999Z</time></trkpt><trkpt lat="44.269269549590106" lon="11.99678110948429"><ele>20.0</ele><time>2026-04-05T18:53:29.999Z</time></trkpt><trkpt lat="44.26944305242839" lon="11.996900640416214"><ele>19.333333333333336</ele><time>2026-04-05T18:53:30.999Z</time></trkpt><trkpt lat="44.269621683270344" lon="11.997029258495358"><ele>18.666666666666668</ele><time>2026-04-05T18:53:31.999Z</time></trkpt><trkpt lat="44.26980411312753" lon="11.997157944011215"><ele>18.0</ele><time>2026-04-05T18:53:32.999Z</time></trkpt><trkpt lat="44.26999429836361" lon="11.997289962802478"><ele>17.666666666666668</ele><time>2026-04-05T18:53:33.999Z</time></trkpt><trkpt lat="44.27018474905965" lon="11.997429152718992"><ele>17.333333333333336</ele><time>2026-04-05T18:53:34.999Z</time></trkpt><trkpt lat="44.27037505342649" lon="11.997564490292001"><ele>17.0</ele><time>2026-04-05T18:53:35.999Z</time></trkpt><trkpt lat="44.27056647332607" lon="11.997703596136311"><ele>18.0</ele><time>2026-04-05T18:53:36.999Z</time></trkpt><trkpt lat="44.270759247842925" lon="11.99783829380858"><ele>19.0</ele><time>2026-04-05T18:53:37.999Z</time></trkpt><trkpt lat="44.27095561086387" lon="11.997979312654198"><ele>20.0</ele><time>2026-04-05T18:53:38.999Z</time></trkpt><trkpt lat="44.271153530320845" lon="11.998116204434817"><ele>20.0</ele><time>2026-04-05T18:53:39.999Z</time></trkpt><trkpt lat="44.27135087042157" lon="11.99825325430321"><ele>20.0</ele><time>2026-04-05T18:53:40.999Z</time></trkpt><trkpt lat="44.271538780855316" lon="11.998385415113022"><ele>20.0</ele><time>2026-04-05T18:53:41.999Z</time></trkpt><trkpt lat="44.27173444322229" lon="11.998543957830172"><ele>19.666666666666668</ele><time>2026-04-05T18:53:42.999Z</time></trkpt><trkpt lat="44.27190068943225" lon="11.99867252403313"><ele>19.333333333333332</ele><time>2026-04-05T18:53:43.999Z</time></trkpt><trkpt lat="44.27207731270913" lon="11.998781656716877"><ele>19.0</ele><time>2026-04-05T18:53:44.999Z</time></trkpt><trkpt lat="44.27226481899491" lon="11.998909110983183"><ele>19.333333333333332</ele><time>2026-04-05T18:53:45.999Z</time></trkpt><trkpt lat="44.27244484201612" lon="11.999037905293525"><ele>19.666666666666668</ele><time>2026-04-05T18:53:46.999Z</time></trkpt><trkpt lat="44.27262785760303" lon="11.999169561580377"><ele>20.0</ele><time>2026-04-05T18:53:48Z</time></trkpt><trkpt lat="44.272793766387345" lon="11.999290832530502"><ele>20.0</ele><time>2026-04-05T18:53:49Z</time></trkpt><trkpt lat="44.27296213406838" lon="11.99940436223435"><ele>20.0</ele><time>2026-04-05T18:53:50Z</time></trkpt><trkpt lat="44.273139364256174" lon="11.99953533548032"><ele>20.0</ele><time>2026-04-05T18:53:51Z</time></trkpt><trkpt lat="44.273310941639835" lon="11.999661292568785"><ele>20.0</ele><time>2026-04-05T18:53:52Z</time></trkpt><trkpt lat="44.27348658866353" lon="11.999786524452126"><ele>20.0</ele><time>2026-04-05T18:53:53Z</time></trkpt><trkpt lat="44.2736655601718" lon="11.999910561855552"><ele>20.0</ele><time>2026-04-05T18:53:54Z</time></trkpt><trkpt lat="44.27384010227199" lon="12.000034350946011"><ele>19.333333333333336</ele><time>2026-04-05T18:53:55Z</time></trkpt><trkpt lat="44.27401337315768" lon="12.000155034096"><ele>18.666666666666668</ele><time>2026-04-05T18:53:56Z</time></trkpt><trkpt lat="44.27418395864177" lon="12.00026777198724"><ele>18.0</ele><time>2026-04-05T18:53:57Z</time></trkpt><trkpt lat="44.27435406056411" lon="12.00039098118396"><ele>18.0</ele><time>2026-04-05T18:53:58Z</time></trkpt><trkpt lat="44.27452186654247" lon="12.000512184555173"><ele>18.0</ele><time>2026-04-05T18:53:59Z</time></trkpt><trkpt lat="44.27469088643182" lon="12.000628817357805"><ele>18.0</ele><time>2026-04-05T18:54:00Z</time></trkpt><trkpt lat="44.274860638020996" lon="12.000756980048532"><ele>18.0</ele><time>2026-04-05T18:54:01Z</time></trkpt><trkpt lat="44.275027549625364" lon="12.000875846887475"><ele>18.0</ele><time>2026-04-05T18:54:02Z</time></trkpt><trkpt lat="44.27519331378132" lon="12.000996225519827"><ele>18.0</ele><time>2026-04-05T18:54:03Z</time></trkpt><trkpt lat="44.27536012752682" lon="12.00111387358334"><ele>18.0</ele><time>2026-04-05T18:54:04Z</time></trkpt><trkpt lat="44.27553190441403" lon="12.001236547532764"><ele>18.0</ele><time>2026-04-05T18:54:05Z</time></trkpt><trkpt lat="44.27570275082881" lon="12.001352287051514"><ele>18.0</ele><time>2026-04-05T18:54:06Z</time></trkpt><trkpt lat="44.27586447020937" lon="12.001467499046253"><ele>18.0</ele><time>2026-04-05T18:54:07Z</time></trkpt><trkpt lat="44.27602873822962" lon="12.001580976934026"><ele>18.0</ele><time>2026-04-05T18:54:08Z</time></trkpt><trkpt lat="44.27619079254425" lon="12.001690406647302"><ele>18.0</ele><time>2026-04-05T18:54:09Z</time></trkpt><trkpt lat="44.27635501947711" lon="12.001806732654455"><ele>18.0</ele><time>2026-04-05T18:54:10Z</time></trkpt><trkpt lat="44.27651719580991" lon="12.001929260475823"><ele>18.0</ele><time>2026-04-05T18:54:11Z</time></trkpt><trkpt lat="44.276670129751665" lon="12.002049648347596"><ele>18.0</ele><time>2026-04-05T18:54:12Z</time></trkpt><trkpt lat="44.276823015322734" lon="12.002150543614341"><ele>18.0</ele><time>2026-04-05T18:54:13Z</time></trkpt><trkpt lat="44.2769854160634" lon="12.00226082527846"><ele>18.0</ele><time>2026-04-05T18:54:14Z</time></trkpt><trkpt lat="44.277144779203894" lon="12.002378935639411"><ele>18.0</ele><time>2026-04-05T18:54:15Z</time></trkpt><trkpt lat="44.277311205715925" lon="12.002495795943258"><ele>18.333333333333332</ele><time>2026-04-05T18:54:16Z</time></trkpt><trkpt lat="44.27747530503297" lon="12.00261187403615"><ele>18.666666666666664</ele><time>2026-04-05T18:54:17Z</time></trkpt><trkpt lat="44.277639244405904" lon="12.002726857660733"><ele>19.0</ele><time>2026-04-05T18:54:18Z</time></trkpt><trkpt lat="44.27780597217602" lon="12.002845493716226"><ele>19.0</ele><time>2026-04-05T18:54:19Z</time></trkpt><trkpt lat="44.277971035768644" lon="12.002967342496495"><ele>19.0</ele><time>2026-04-05T18:54:20Z</time></trkpt><trkpt lat="44.27814220554798" lon="12.003069798665894"><ele>19.0</ele><time>2026-04-05T18:54:21Z</time></trkpt><trkpt lat="44.278342133438045" lon="12.003132721193522"><ele>19.0</ele><time>2026-04-05T18:54:22Z</time></trkpt><trkpt lat="44.27851412873024" lon="12.003251002994537"><ele>19.0</ele><time>2026-04-05T18:54:23Z</time></trkpt><trkpt lat="44.27863622985826" lon="12.003441808931377"><ele>19.0</ele><time>2026-04-05T18:54:24Z</time></trkpt><trkpt lat="44.27879751962894" lon="12.003564145241555"><ele>18.333333333333332</ele><time>2026-04-05T18:54:25Z</time></trkpt><trkpt lat="44.27896685770048" lon="12.003676483844348"><ele>17.666666666666668</ele><time>2026-04-05T18:54:26Z</time></trkpt><trkpt lat="44.279129249627175" lon="12.003795218477878"><ele>17.0</ele><time>2026-04-05T18:54:27Z</time></trkpt><trkpt lat="44.27929957638976" lon="12.003904100961481"><ele>17.0</ele><time>2026-04-05T18:54:28Z</time></trkpt><trkpt lat="44.27946866115683" lon="12.004018285746698"><ele>17.0</ele><time>2026-04-05T18:54:29Z</time></trkpt><trkpt lat="44.27965573391962" lon="12.004118190480813"><ele>17.0</ele><time>2026-04-05T18:54:30Z</time></trkpt><trkpt lat="44.27980414178837" lon="12.004280744055096"><ele>17.333333333333336</ele><time>2026-04-05T18:54:31Z</time></trkpt><trkpt lat="44.27997495461937" lon="12.00440885911077"><ele>17.666666666666668</ele><time>2026-04-05T18:54:32Z</time></trkpt><trkpt lat="44.28014447242045" lon="12.004524888263441"><ele>18.0</ele><time>2026-04-05T18:54:33Z</time></trkpt><trkpt lat="44.280315569435814" lon="12.004641037998335"><ele>18.0</ele><time>2026-04-05T18:54:34Z</time></trkpt><trkpt lat="44.28048906619895" lon="12.004759647888285"><ele>18.0</ele><time>2026-04-05T18:54:35Z</time></trkpt><trkpt lat="44.28065765114319" lon="12.004886137037216"><ele>18.0</ele><time>2026-04-05T18:54:36Z</time></trkpt><trkpt lat="44.280833325953864" lon="12.005006700797075"><ele>18.0</ele><time>2026-04-05T18:54:37Z</time></trkpt><trkpt lat="44.281008757695616" lon="12.005126471681194"><ele>18.0</ele><time>2026-04-05T18:54:38Z</time></trkpt><trkpt lat="44.2811824490073" lon="12.005254044814928"><ele>18.0</ele><time>2026-04-05T18:54:39Z</time></trkpt><trkpt lat="44.28136020706305" lon="12.005387260726224"><ele>17.333333333333332</ele><time>2026-04-05T18:54:40Z</time></trkpt><trkpt lat="44.28154109241477" lon="12.005505930548605"><ele>16.666666666666664</ele><time>2026-04-05T18:54:41Z</time></trkpt><trkpt lat="44.28172033811666" lon="12.005626703316047"><ele>16.0</ele><time>2026-04-05T18:54:42Z</time></trkpt><trkpt lat="44.28189963854067" lon="12.00575742215852"><ele>16.0</ele><time>2026-04-05T18:54:43Z</time></trkpt><trkpt lat="44.282078330315514" lon="12.005884480844093"><ele>16.0</ele><time>2026-04-05T18:54:44Z</time></trkpt><trkpt lat="44.28226256573373" lon="12.006015244893128"><ele>16.0</ele><time>2026-04-05T18:54:45Z</time></trkpt><trkpt lat="44.28244715346967" lon="12.006150085594301"><ele>16.0</ele><time>2026-04-05T18:54:46Z</time></trkpt><trkpt lat="44.2826341485664" lon="12.006281164888309"><ele>16.0</ele><time>2026-04-05T18:54:47Z</time></trkpt><trkpt lat="44.282822284348065" lon="12.006415149506115"><ele>16.0</ele><time>2026-04-05T18:54:48Z</time></trkpt><trkpt lat="44.28301150176103" lon="12.006552802157389"><ele>16.333333333333332</ele><time>2026-04-05T18:54:49Z</time></trkpt><trkpt lat="44.28319999716744" lon="12.006692282775058"><ele>16.666666666666668</ele><time>2026-04-05T18:54:50Z</time></trkpt><trkpt lat="44.28338091010543" lon="12.006827188225493"><ele>17.0</ele><time>2026-04-05T18:54:51Z</time></trkpt><trkpt lat="44.283562591864225" lon="12.006961085168612"><ele>17.0</ele><time>2026-04-05T18:54:52Z</time></trkpt><trkpt lat="44.28374426617276" lon="12.00709992952835"><ele>17.0</ele><time>2026-04-05T18:54:53Z</time></trkpt><trkpt lat="44.28392771338362" lon="12.00724475455737"><ele>17.0</ele><time>2026-04-05T18:54:53.999Z</time></trkpt><trkpt lat="44.28412338292146" lon="12.00738968010587"><ele>17.0</ele><time>2026-04-05T18:54:54.999Z</time></trkpt><trkpt lat="44.28431012753112" lon="12.00753603260093"><ele>17.0</ele><time>2026-04-05T18:54:55.999Z</time></trkpt><trkpt lat="44.28449499002177" lon="12.007693146122637"><ele>17.0</ele><time>2026-04-05T18:54:56.999Z</time></trkpt><trkpt lat="44.28468127629192" lon="12.007839294576918"><ele>17.0</ele><time>2026-04-05T18:54:57.999Z</time></trkpt><trkpt lat="44.28486493212655" lon="12.007981544280263"><ele>17.0</ele><time>2026-04-05T18:54:58.999Z</time></trkpt><trkpt lat="44.28504444051194" lon="12.008130361485303"><ele>17.0</ele><time>2026-04-05T18:54:59.999Z</time></trkpt><trkpt lat="44.28522203429926" lon="12.008273010326308"><ele>17.0</ele><time>2026-04-05T18:55:00.999Z</time></trkpt><trkpt lat="44.28539819454037" lon="12.008424098962987"><ele>17.0</ele><time>2026-04-05T18:55:01.999Z</time></trkpt><trkpt lat="44.285576514504044" lon="12.008578740607732"><ele>17.0</ele><time>2026-04-05T18:55:02.999Z</time></trkpt><trkpt lat="44.2857575573836" lon="12.008738724941617"><ele>16.666666666666668</ele><time>2026-04-05T18:55:03.999Z</time></trkpt><trkpt lat="44.28593418299478" lon="12.008904638118567"><ele>16.333333333333332</ele><time>2026-04-05T18:55:04.999Z</time></trkpt><trkpt lat="44.28611080191174" lon="12.00906681651605"><ele>16.0</ele><time>2026-04-05T18:55:05.999Z</time></trkpt><trkpt lat="44.28628521425522" lon="12.009232269042059"><ele>16.0</ele><time>2026-04-05T18:55:06.999Z</time></trkpt><trkpt lat="44.286464294486024" lon="12.00939949066201"><ele>16.0</ele><time>2026-04-05T18:55:07.999Z</time></trkpt><trkpt lat="44.28664265136966" lon="12.009570219401114"><ele>16.0</ele><time>2026-04-05T18:55:08.999Z</time></trkpt><trkpt lat="44.28682315298265" lon="12.009738700843236"><ele>16.0</ele><time>2026-04-05T18:55:09.999Z</time></trkpt><trkpt lat="44.28700510014071" lon="12.009911217688723"><ele>16.0</ele><time>2026-04-05T18:55:10.999Z</time></trkpt><trkpt lat="44.28718471426028" lon="12.010080387769845"><ele>16.0</ele><time>2026-04-05T18:55:11.999Z</time></trkpt><trkpt lat="44.28736129818309" lon="12.010243891367656"><ele>16.0</ele><time>2026-04-05T18:55:12.999Z</time></trkpt><trkpt lat="44.287540004293035" lon="12.010409093609614"><ele>16.0</ele><time>2026-04-05T18:55:13.999Z</time></trkpt><trkpt lat="44.28771620906525" lon="12.01057335969805"><ele>16.0</ele><time>2026-04-05T18:55:14.999Z</time></trkpt><trkpt lat="44.28789496470602" lon="12.010728176069877"><ele>16.0</ele><time>2026-04-05T18:55:15.999Z</time></trkpt><trkpt lat="44.28807164556758" lon="12.010893277894946"><ele>16.0</ele><time>2026-04-05T18:55:16.999Z</time></trkpt><trkpt lat="44.28824088781119" lon="12.011056880027244"><ele>16.0</ele><time>2026-04-05T18:55:17.999Z</time></trkpt><trkpt lat="44.28841321262993" lon="12.01121535317228"><ele>16.0</ele><time>2026-04-05T18:55:18.999Z</time></trkpt><trkpt lat="44.28858124184156" lon="12.011383462412134"><ele>16.0</ele><time>2026-04-05T18:55:19.999Z</time></trkpt><trkpt lat="44.288759790894304" lon="12.01154257963666"><ele>16.0</ele><time>2026-04-05T18:55:20.999Z</time></trkpt><trkpt lat="44.28893390660985" lon="12.011704913259639"><ele>16.0</ele><time>2026-04-05T18:55:21.999Z</time></trkpt><trkpt lat="44.28910593820676" lon="12.011869411580152"><ele>16.0</ele><time>2026-04-05T18:55:22.999Z</time></trkpt><trkpt lat="44.28927385806247" lon="12.012029641145324"><ele>16.0</ele><time>2026-04-05T18:55:23.999Z</time></trkpt><trkpt lat="44.28943466986257" lon="12.012178019984239"><ele>16.0</ele><time>2026-04-05T18:55:24.999Z</time></trkpt><trkpt lat="44.28959871635138" lon="12.012325398796516"><ele>16.0</ele><time>2026-04-05T18:55:25.999Z</time></trkpt><trkpt lat="44.28975814035367" lon="12.012478719265488"><ele>16.0</ele><time>2026-04-05T18:55:26.999Z</time></trkpt><trkpt lat="44.289924797569064" lon="12.012631147037839"><ele>16.666666666666664</ele><time>2026-04-05T18:55:27.999Z</time></trkpt><trkpt lat="44.29008833701351" lon="12.01279054384608"><ele>17.333333333333332</ele><time>2026-04-05T18:55:28.999Z</time></trkpt><trkpt lat="44.290240653399536" lon="12.012931971528397"><ele>18.0</ele><time>2026-04-05T18:55:29.999Z</time></trkpt><trkpt lat="44.290379892614474" lon="12.013074255438958"><ele>18.0</ele><time>2026-04-05T18:55:30.999Z</time></trkpt><trkpt lat="44.29053512116749" lon="12.013211431627996"><ele>18.0</ele><time>2026-04-05T18:55:31.999Z</time></trkpt><trkpt lat="44.29068297145973" lon="12.01334238233023"><ele>18.0</ele><time>2026-04-05T18:55:32.999Z</time></trkpt><trkpt lat="44.290809977634275" lon="12.013460276076732"><ele>17.5</ele><time>2026-04-05T18:55:33.999Z</time></trkpt><trkpt lat="44.29091880755071" lon="12.013563972037765"><ele>17.0</ele><time>2026-04-05T18:55:34.999Z</time></trkpt><trkpt lat="44.29102670920334" lon="12.013655153443507"><ele>16.5</ele><time>2026-04-05T18:55:35.999Z</time></trkpt><trkpt lat="44.29111932425332" lon="12.013765846538728"><ele>16.0</ele><time>2026-04-05T18:55:36.999Z</time></trkpt><trkpt lat="44.291219301216245" lon="12.01383886871266"><ele>16.0</ele><time>2026-04-05T18:55:37.999Z</time></trkpt><trkpt lat="44.291304132009074" lon="12.013924256209044"><ele>16.0</ele><time>2026-04-05T18:55:38.999Z</time></trkpt><trkpt lat="44.29138605757831" lon="12.014005636685225"><ele>16.0</ele><time>2026-04-05T18:55:39.999Z</time></trkpt><trkpt lat="44.29147071295427" lon="12.014083542918701"><ele>16.0</ele><time>2026-04-05T18:55:40.999Z</time></trkpt><trkpt lat="44.29155179422151" lon="12.014150692162197"><ele>16.0</ele><time>2026-04-05T18:55:41.999Z</time></trkpt><trkpt lat="44.29163435901219" lon="12.01422422286841"><ele>16.2</ele><time>2026-04-05T18:55:42.999Z</time></trkpt><trkpt lat="44.29171548853187" lon="12.014309096033983"><ele>16.400000000000002</ele><time>2026-04-05T18:55:43.999Z</time></trkpt><trkpt lat="44.29180560965665" lon="12.014393415209854"><ele>16.6</ele><time>2026-04-05T18:55:44.999Z</time></trkpt><trkpt lat="44.29189978186131" lon="12.014478782189048"><ele>16.8</ele><time>2026-04-05T18:55:45.999Z</time></trkpt><trkpt lat="44.29199756104949" lon="12.01456828090582"><ele>17.0</ele><time>2026-04-05T18:55:46.999Z</time></trkpt><trkpt lat="44.2920920417326" lon="12.014659824192833"><ele>17.0</ele><time>2026-04-05T18:55:47.999Z</time></trkpt><trkpt lat="44.29219525544314" lon="12.01475354356519"><ele>17.0</ele><time>2026-04-05T18:55:48.999Z</time></trkpt><trkpt lat="44.29230166318223" lon="12.014856242391652"><ele>17.0</ele><time>2026-04-05T18:55:49.999Z</time></trkpt><trkpt lat="44.292405697228155" lon="12.014956104438317"><ele>17.0</ele><time>2026-04-05T18:55:50.999Z</time></trkpt><trkpt lat="44.29250438795987" lon="12.015052515961656"><ele>16.75</ele><time>2026-04-05T18:55:51.999Z</time></trkpt><trkpt lat="44.29260374693044" lon="12.015145540524804"><ele>16.5</ele><time>2026-04-05T18:55:52.999Z</time></trkpt><trkpt lat="44.29269904088977" lon="12.015240482671583"><ele>16.25</ele><time>2026-04-05T18:55:54Z</time></trkpt><trkpt lat="44.29279623631771" lon="12.015333189234205"><ele>16.0</ele><time>2026-04-05T18:55:55Z</time></trkpt><trkpt lat="44.29290188772851" lon="12.015420706935787"><ele>16.0</ele><time>2026-04-05T18:55:56Z</time></trkpt><trkpt lat="44.29301159058141" lon="12.015519719163795"><ele>16.0</ele><time>2026-04-05T18:55:57Z</time></trkpt><trkpt lat="44.293127925147154" lon="12.015623199611575"><ele>16.0</ele><time>2026-04-05T18:55:58Z</time></trkpt><trkpt lat="44.293235245833856" lon="12.015727667026008"><ele>16.0</ele><time>2026-04-05T18:55:59Z</time></trkpt><trkpt lat="44.293354054382135" lon="12.015837669330999"><ele>16.0</ele><time>2026-04-05T18:56:00Z</time></trkpt><trkpt lat="44.293475554646626" lon="12.015952536012158"><ele>16.0</ele><time>2026-04-05T18:56:01Z</time></trkpt><trkpt lat="44.293603934217415" lon="12.016069467328037"><ele>16.0</ele><time>2026-04-05T18:56:02Z</time></trkpt><trkpt lat="44.293727906827414" lon="12.01618664677587"><ele>16.0</ele><time>2026-04-05T18:56:03Z</time></trkpt><trkpt lat="44.29385998701995" lon="12.016304609487932"><ele>16.0</ele><time>2026-04-05T18:56:04Z</time></trkpt><trkpt lat="44.29398949866913" lon="12.016424000701205"><ele>16.0</ele><time>2026-04-05T18:56:05Z</time></trkpt><trkpt lat="44.29411497946016" lon="12.01654763487587"><ele>15.5</ele><time>2026-04-05T18:56:06Z</time></trkpt><trkpt lat="44.29423618299043" lon="12.0166581133545"><ele>15.0</ele><time>2026-04-05T18:56:07Z</time></trkpt><trkpt lat="44.29435628804026" lon="12.01677495992009"><ele>14.5</ele><time>2026-04-05T18:56:08Z</time></trkpt><trkpt lat="44.29447456614968" lon="12.016898443585918"><ele>14.0</ele><time>2026-04-05T18:56:09Z</time></trkpt><trkpt lat="44.29460288083707" lon="12.01700879922968"><ele>14.0</ele><time>2026-04-05T18:56:10Z</time></trkpt><trkpt lat="44.294727999732714" lon="12.017122269083249"><ele>14.0</ele><time>2026-04-05T18:56:11Z</time></trkpt><trkpt lat="44.29485670551452" lon="12.01723941386782"><ele>14.0</ele><time>2026-04-05T18:56:12Z</time></trkpt><trkpt lat="44.294976632155546" lon="12.017356584935929"><ele>14.0</ele><time>2026-04-05T18:56:13Z</time></trkpt><trkpt lat="44.295103549263345" lon="12.017471361583517"><ele>14.0</ele><time>2026-04-05T18:56:14Z</time></trkpt><trkpt lat="44.2952314876153" lon="12.017588334120262"><ele>14.0</ele><time>2026-04-05T18:56:15Z</time></trkpt><trkpt lat="44.29535604579612" lon="12.017712614612721"><ele>14.0</ele><time>2026-04-05T18:56:16Z</time></trkpt><trkpt lat="44.29548253611413" lon="12.017829325570597"><ele>14.0</ele><time>2026-04-05T18:56:17Z</time></trkpt><trkpt lat="44.29560575752271" lon="12.017946590504351"><ele>14.0</ele><time>2026-04-05T18:56:18Z</time></trkpt><trkpt lat="44.29572137305112" lon="12.018057796162417"><ele>14.0</ele><time>2026-04-05T18:56:19Z</time></trkpt><trkpt lat="44.29583866659918" lon="12.018174208212477"><ele>14.0</ele><time>2026-04-05T18:56:20Z</time></trkpt><trkpt lat="44.29596148263503" lon="12.018293205968053"><ele>14.0</ele><time>2026-04-05T18:56:21Z</time></trkpt><trkpt lat="44.29609232661104" lon="12.018413670941458"><ele>14.0</ele><time>2026-04-05T18:56:22Z</time></trkpt><trkpt lat="44.29623258199052" lon="12.01854379596835"><ele>14.0</ele><time>2026-04-05T18:56:23Z</time></trkpt><trkpt lat="44.29636645618497" lon="12.018675225236574"><ele>14.0</ele><time>2026-04-05T18:56:24Z</time></trkpt><trkpt lat="44.2965056316478" lon="12.018803324107616"><ele>14.0</ele><time>2026-04-05T18:56:25Z</time></trkpt><trkpt lat="44.296645699811684" lon="12.01894025232129"><ele>14.0</ele><time>2026-04-05T18:56:26Z</time></trkpt><trkpt lat="44.29678797240981" lon="12.019075653853932"><ele>14.0</ele><time>2026-04-05T18:56:27Z</time></trkpt><trkpt lat="44.29693452357996" lon="12.019211630363154"><ele>14.0</ele><time>2026-04-05T18:56:28Z</time></trkpt><trkpt lat="44.29708167908365" lon="12.019344767750027"><ele>14.0</ele><time>2026-04-05T18:56:29Z</time></trkpt><trkpt lat="44.29722809125975" lon="12.019482646315824"><ele>14.0</ele><time>2026-04-05T18:56:30Z</time></trkpt><trkpt lat="44.29737734512623" lon="12.019615978948853"><ele>14.0</ele><time>2026-04-05T18:56:31Z</time></trkpt><trkpt lat="44.29753333454483" lon="12.019767789421062"><ele>14.0</ele><time>2026-04-05T18:56:32Z</time></trkpt><trkpt lat="44.29769135486139" lon="12.019919119727204"><ele>14.0</ele><time>2026-04-05T18:56:33Z</time></trkpt><trkpt lat="44.29786968183458" lon="12.02007433751027"><ele>14.0</ele><time>2026-04-05T18:56:34Z</time></trkpt><trkpt lat="44.29804222931429" lon="12.020237257639272"><ele>14.0</ele><time>2026-04-05T18:56:35Z</time></trkpt><trkpt lat="44.29821531139032" lon="12.020401313058795"><ele>14.0</ele><time>2026-04-05T18:56:36Z</time></trkpt><trkpt lat="44.2983954135367" lon="12.020572490862648"><ele>14.0</ele><time>2026-04-05T18:56:37Z</time></trkpt><trkpt lat="44.29857402020697" lon="12.020743001439683"><ele>14.0</ele><time>2026-04-05T18:56:38Z</time></trkpt><trkpt lat="44.29875639005176" lon="12.020914335313385"><ele>13.666666666666668</ele><time>2026-04-05T18:56:39Z</time></trkpt><trkpt lat="44.29893256815279" lon="12.021075349279487"><ele>13.333333333333332</ele><time>2026-04-05T18:56:40Z</time></trkpt><trkpt lat="44.2991163222038" lon="12.021241669739446"><ele>13.0</ele><time>2026-04-05T18:56:41Z</time></trkpt><trkpt lat="44.29929223963093" lon="12.021411682203652"><ele>13.0</ele><time>2026-04-05T18:56:42Z</time></trkpt><trkpt lat="44.29947264743355" lon="12.021586496801717"><ele>13.0</ele><time>2026-04-05T18:56:43Z</time></trkpt><trkpt lat="44.299656734976594" lon="12.021758376403781"><ele>13.0</ele><time>2026-04-05T18:56:44Z</time></trkpt><trkpt lat="44.29983872132287" lon="12.021929043002245"><ele>13.0</ele><time>2026-04-05T18:56:45Z</time></trkpt><trkpt lat="44.30001869213285" lon="12.022099161900075"><ele>13.0</ele><time>2026-04-05T18:56:46Z</time></trkpt><trkpt lat="44.300189617138194" lon="12.022259749275719"><ele>13.0</ele><time>2026-04-05T18:56:47Z</time></trkpt><trkpt lat="44.300349570371424" lon="12.022408860747738"><ele>13.0</ele><time>2026-04-05T18:56:48Z</time></trkpt><trkpt lat="44.30051636015996" lon="12.022560686780341"><ele>13.0</ele><time>2026-04-05T18:56:49Z</time></trkpt><trkpt lat="44.30067115777778" lon="12.02270919954808"><ele>13.0</ele><time>2026-04-05T18:56:50Z</time></trkpt><trkpt lat="44.300833535268964" lon="12.022863863632521"><ele>13.0</ele><time>2026-04-05T18:56:51Z</time></trkpt><trkpt lat="44.30102482114753" lon="12.023030475818237"><ele>13.0</ele><time>2026-04-05T18:56:52Z</time></trkpt><trkpt lat="44.301144248925596" lon="12.023146066599738"><ele>13.0</ele><time>2026-04-05T18:56:53Z</time></trkpt><trkpt lat="44.30129249802942" lon="12.02328426420259"><ele>13.0</ele><time>2026-04-05T18:56:54Z</time></trkpt><trkpt lat="44.30144737370798" lon="12.023424425447827"><ele>13.0</ele><time>2026-04-05T18:56:55Z</time></trkpt><trkpt lat="44.30159527447194" lon="12.023562661906832"><ele>13.0</ele><time>2026-04-05T18:56:56Z</time></trkpt><trkpt lat="44.30174179188973" lon="12.023697736022132"><ele>13.0</ele><time>2026-04-05T18:56:57Z</time></trkpt><trkpt lat="44.30187997016962" lon="12.023828678733166"><ele>13.0</ele><time>2026-04-05T18:56:58Z</time></trkpt><trkpt lat="44.30202013527965" lon="12.023960535420098"><ele>13.0</ele><time>2026-04-05T18:56:59Z</time></trkpt><trkpt lat="44.30215111117813" lon="12.024089259507644"><ele>13.0</ele><time>2026-04-05T18:57:00Z</time></trkpt><trkpt lat="44.30227215165083" lon="12.024197845421327"><ele>13.0</ele><time>2026-04-05T18:57:00.999Z</time></trkpt><trkpt lat="44.30238714154433" lon="12.024306023592484"><ele>13.0</ele><time>2026-04-05T18:57:01.999Z</time></trkpt><trkpt lat="44.30249964231526" lon="12.024417014991556"><ele>13.0</ele><time>2026-04-05T18:57:02.999Z</time></trkpt><trkpt lat="44.302620722648854" lon="12.024531206914876"><ele>13.0</ele><time>2026-04-05T18:57:03.999Z</time></trkpt><trkpt lat="44.302742276808125" lon="12.024646709849144"><ele>13.0</ele><time>2026-04-05T18:57:04.999Z</time></trkpt><trkpt lat="44.30286672844733" lon="12.024768947644468"><ele>13.0</ele><time>2026-04-05T18:57:05.999Z</time></trkpt><trkpt lat="44.302997409070734" lon="12.024885546900336"><ele>13.333333333333332</ele><time>2026-04-05T18:57:06.999Z</time></trkpt><trkpt lat="44.303132322776015" lon="12.025009952951262"><ele>13.666666666666668</ele><time>2026-04-05T18:57:07.999Z</time></trkpt><trkpt lat="44.30326620772453" lon="12.02513058815982"><ele>14.0</ele><time>2026-04-05T18:57:08.999Z</time></trkpt><trkpt lat="44.30339997150016" lon="12.025253798687235"><ele>14.0</ele><time>2026-04-05T18:57:09.999Z</time></trkpt><trkpt lat="44.30354413759066" lon="12.025380824952633"><ele>14.0</ele><time>2026-04-05T18:57:10.999Z</time></trkpt><trkpt lat="44.303701690533636" lon="12.025527164208285"><ele>14.0</ele><time>2026-04-05T18:57:11.999Z</time></trkpt><trkpt lat="44.303876675418884" lon="12.025685259628501"><ele>13.5</ele><time>2026-04-05T18:57:12.999Z</time></trkpt><trkpt lat="44.30406366381728" lon="12.025886519903834"><ele>13.0</ele><time>2026-04-05T18:57:13.999Z</time></trkpt><trkpt lat="44.30428146671925" lon="12.026088762278343"><ele>13.0</ele><time>2026-04-05T18:57:14.999Z</time></trkpt><trkpt lat="44.30450935286792" lon="12.026278639117594"><ele>13.0</ele><time>2026-04-05T18:57:15.999Z</time></trkpt><trkpt lat="44.30472326687366" lon="12.026505536806804"><ele>13.0</ele><time>2026-04-05T18:57:16.999Z</time></trkpt><trkpt lat="44.30492747727456" lon="12.026687444078414"><ele>13.0</ele><time>2026-04-05T18:57:17.999Z</time></trkpt><trkpt lat="44.305119811750146" lon="12.026860537850526"><ele>13.0</ele><time>2026-04-05T18:57:18.999Z</time></trkpt><trkpt lat="44.30531200562773" lon="12.027048361684685"><ele>13.0</ele><time>2026-04-05T18:57:19.999Z</time></trkpt><trkpt lat="44.30549996422848" lon="12.027236634645135"><ele>12.5</ele><time>2026-04-05T18:57:20.999Z</time></trkpt><trkpt lat="44.305692367571986" lon="12.027410439557894"><ele>12.0</ele><time>2026-04-05T18:57:21.999Z</time></trkpt><trkpt lat="44.30588598762099" lon="12.027584096458744"><ele>12.0</ele><time>2026-04-05T18:57:22.999Z</time></trkpt><trkpt lat="44.30606964085526" lon="12.027753879327095"><ele>12.0</ele><time>2026-04-05T18:57:23.999Z</time></trkpt><trkpt lat="44.30624919269515" lon="12.02792734083608"><ele>12.0</ele><time>2026-04-05T18:57:24.999Z</time></trkpt><trkpt lat="44.306438863850865" lon="12.028102864843813"><ele>11.5</ele><time>2026-04-05T18:57:25.999Z</time></trkpt><trkpt lat="44.306636616210156" lon="12.028278213763521"><ele>11.0</ele><time>2026-04-05T18:57:26.999Z</time></trkpt><trkpt lat="44.306835001813106" lon="12.028454911670151"><ele>12.0</ele><time>2026-04-05T18:57:27.999Z</time></trkpt><trkpt lat="44.307035163232314" lon="12.028631962615538"><ele>13.0</ele><time>2026-04-05T18:57:28.999Z</time></trkpt><trkpt lat="44.30724182490316" lon="12.02881971637084"><ele>13.0</ele><time>2026-04-05T18:57:29.999Z</time></trkpt><trkpt lat="44.30744690842607" lon="12.029014743501653"><ele>13.0</ele><time>2026-04-05T18:57:30.999Z</time></trkpt><trkpt lat="44.30765686015979" lon="12.029213610779493"><ele>13.0</ele><time>2026-04-05T18:57:31.999Z</time></trkpt><trkpt lat="44.30787071902464" lon="12.029417953386648"><ele>13.0</ele><time>2026-04-05T18:57:32.999Z</time></trkpt><trkpt lat="44.30808423135837" lon="12.02963144473049"><ele>13.0</ele><time>2026-04-05T18:57:33.999Z</time></trkpt><trkpt lat="44.30830002661912" lon="12.029845372438597"><ele>13.0</ele><time>2026-04-05T18:57:34.999Z</time></trkpt><trkpt lat="44.30852063252279" lon="12.030052146026685"><ele>12.5</ele><time>2026-04-05T18:57:35.999Z</time></trkpt><trkpt lat="44.30873998069024" lon="12.030266022994825"><ele>12.0</ele><time>2026-04-05T18:57:36.999Z</time></trkpt><trkpt lat="44.30895935637695" lon="12.03048122657101"><ele>11.5</ele><time>2026-04-05T18:57:37.999Z</time></trkpt><trkpt lat="44.30918506006623" lon="12.030695589149778"><ele>11.0</ele><time>2026-04-05T18:57:38.999Z</time></trkpt><trkpt lat="44.309400752027535" lon="12.030930180550337"><ele>11.0</ele><time>2026-04-05T18:57:39.999Z</time></trkpt><trkpt lat="44.309630498470746" lon="12.031154252619858"><ele>11.0</ele><time>2026-04-05T18:57:40.999Z</time></trkpt><trkpt lat="44.30986869636599" lon="12.03136083789994"><ele>11.0</ele><time>2026-04-05T18:57:41.999Z</time></trkpt><trkpt lat="44.31009922452202" lon="12.031587470917112"><ele>11.0</ele><time>2026-04-05T18:57:42.999Z</time></trkpt><trkpt lat="44.31033409537608" lon="12.031811385622715"><ele>11.5</ele><time>2026-04-05T18:57:43.999Z</time></trkpt><trkpt lat="44.31056564537769" lon="12.032040489193195"><ele>12.0</ele><time>2026-04-05T18:57:44.999Z</time></trkpt><trkpt lat="44.31080188768025" lon="12.032265565176916"><ele>11.0</ele><time>2026-04-05T18:57:45.999Z</time></trkpt><trkpt lat="44.311039299795326" lon="12.032490370081959"><ele>10.0</ele><time>2026-04-05T18:57:46.999Z</time></trkpt><trkpt lat="44.31126804729674" lon="12.032736799444502"><ele>10.5</ele><time>2026-04-05T18:57:47.999Z</time></trkpt><trkpt lat="44.311516328716195" lon="12.032949997930462"><ele>11.0</ele><time>2026-04-05T18:57:48.999Z</time></trkpt><trkpt lat="44.31174615684909" lon="12.03320029810539"><ele>10.5</ele><time>2026-04-05T18:57:49.999Z</time></trkpt><trkpt lat="44.31198591872942" lon="12.033437526025057"><ele>10.0</ele><time>2026-04-05T18:57:50.999Z</time></trkpt><trkpt lat="44.31222376470314" lon="12.03367106337259"><ele>11.0</ele><time>2026-04-05T18:57:51.999Z</time></trkpt><trkpt lat="44.3124527391551" lon="12.033892896041365"><ele>12.0</ele><time>2026-04-05T18:57:52.999Z</time></trkpt><trkpt lat="44.312669857478454" lon="12.034103151409319"><ele>11.5</ele><time>2026-04-05T18:57:53.999Z</time></trkpt><trkpt lat="44.31288534049879" lon="12.034285605164435"><ele>11.0</ele><time>2026-04-05T18:57:54.999Z</time></trkpt><trkpt lat="44.31309510163398" lon="12.034489534881397"><ele>11.0</ele><time>2026-04-05T18:57:55.999Z</time></trkpt><trkpt lat="44.31330602407027" lon="12.03469350320128"><ele>11.0</ele><time>2026-04-05T18:57:56.999Z</time></trkpt><trkpt lat="44.31351662003404" lon="12.034892641004653"><ele>11.0</ele><time>2026-04-05T18:57:57.999Z</time></trkpt><trkpt lat="44.31371103929956" lon="12.035111352617292"><ele>11.0</ele><time>2026-04-05T18:57:58.999Z</time></trkpt><trkpt lat="44.313905498011465" lon="12.035299873949869"><ele>11.0</ele><time>2026-04-05T18:58:00Z</time></trkpt><trkpt lat="44.314113074622725" lon="12.035476566607135"><ele>11.0</ele><time>2026-04-05T18:58:01Z</time></trkpt><trkpt lat="44.31431199078163" lon="12.035673111105233"><ele>11.5</ele><time>2026-04-05T18:58:02Z</time></trkpt><trkpt lat="44.31451814096882" lon="12.035871350136977"><ele>12.0</ele><time>2026-04-05T18:58:03Z</time></trkpt><trkpt lat="44.314714827071676" lon="12.036081787159054"><ele>11.5</ele><time>2026-04-05T18:58:04Z</time></trkpt><trkpt lat="44.31494393401362" lon="12.036233490510224"><ele>11.0</ele><time>2026-04-05T18:58:05Z</time></trkpt><trkpt lat="44.3151891767575" lon="12.036375543692253"><ele>11.0</ele><time>2026-04-05T18:58:06Z</time></trkpt><trkpt lat="44.31545414655681" lon="12.036489098250964"><ele>11.0</ele><time>2026-04-05T18:58:07Z</time></trkpt><trkpt lat="44.31572312250618" lon="12.036591179730006"><ele>11.0</ele><time>2026-04-05T18:58:08Z</time></trkpt><trkpt lat="44.315994753497705" lon="12.03670024538973"><ele>11.0</ele><time>2026-04-05T18:58:09Z</time></trkpt><trkpt lat="44.3162627659587" lon="12.036813187775635"><ele>11.0</ele><time>2026-04-05T18:58:10Z</time></trkpt><trkpt lat="44.316522620879084" lon="12.036923297535656"><ele>11.0</ele><time>2026-04-05T18:58:11Z</time></trkpt><trkpt lat="44.3167836495827" lon="12.037032179117128"><ele>11.0</ele><time>2026-04-05T18:58:12Z</time></trkpt><trkpt lat="44.31704048477327" lon="12.037135250429076"><ele>11.0</ele><time>2026-04-05T18:58:13Z</time></trkpt><trkpt lat="44.31730192918991" lon="12.0372418137691"><ele>11.0</ele><time>2026-04-05T18:58:14Z</time></trkpt><trkpt lat="44.31756325082225" lon="12.037343153403544"><ele>11.0</ele><time>2026-04-05T18:58:15Z</time></trkpt><trkpt lat="44.317837100885605" lon="12.037431736549781"><ele>10.5</ele><time>2026-04-05T18:58:16Z</time></trkpt><trkpt lat="44.31811724486908" lon="12.037496209742748"><ele>10.0</ele><time>2026-04-05T18:58:17Z</time></trkpt><trkpt lat="44.318411587565855" lon="12.037537169175843"><ele>10.0</ele><time>2026-04-05T18:58:18Z</time></trkpt><trkpt lat="44.31871812497627" lon="12.037567804480622"><ele>10.0</ele><time>2026-04-05T18:58:19Z</time></trkpt><trkpt lat="44.31902361338668" lon="12.037594902192016"><ele>10.0</ele><time>2026-04-05T18:58:20Z</time></trkpt><trkpt lat="44.31932563677636" lon="12.037626164290385"><ele>10.0</ele><time>2026-04-05T18:58:21Z</time></trkpt><trkpt lat="44.31962824083505" lon="12.037652363200554"><ele>11.0</ele><time>2026-04-05T18:58:22Z</time></trkpt><trkpt lat="44.31992872791853" lon="12.037668981521882"><ele>12.0</ele><time>2026-04-05T18:58:23Z</time></trkpt><trkpt lat="44.320222840010736" lon="12.037680076608648"><ele>12.0</ele><time>2026-04-05T18:58:24Z</time></trkpt><trkpt lat="44.320504440971234" lon="12.037686505133745"><ele>12.0</ele><time>2026-04-05T18:58:25Z</time></trkpt><trkpt lat="44.3207759092703" lon="12.03769154930894"><ele>11.5</ele><time>2026-04-05T18:58:26Z</time></trkpt><trkpt lat="44.32103017569667" lon="12.037696124514758"><ele>11.0</ele><time>2026-04-05T18:58:27Z</time></trkpt><trkpt lat="44.321287716167525" lon="12.037704519716218"><ele>10.5</ele><time>2026-04-05T18:58:28Z</time></trkpt><trkpt lat="44.321551038827174" lon="12.037709462060718"><ele>10.0</ele><time>2026-04-05T18:58:29Z</time></trkpt><trkpt lat="44.32182501189081" lon="12.03770574132855"><ele>10.0</ele><time>2026-04-05T18:58:30Z</time></trkpt><trkpt lat="44.32209874698032" lon="12.037696855904972"><ele>10.0</ele><time>2026-04-05T18:58:31Z</time></trkpt><trkpt lat="44.3223882591687" lon="12.037713645929184"><ele>10.0</ele><time>2026-04-05T18:58:32Z</time></trkpt><trkpt lat="44.322681711295445" lon="12.037725915139157"><ele>10.0</ele><time>2026-04-05T18:58:33Z</time></trkpt><trkpt lat="44.322984472141144" lon="12.037747419519294"><ele>10.5</ele><time>2026-04-05T18:58:34Z</time></trkpt><trkpt lat="44.32327669939196" lon="12.037767332088432"><ele>11.0</ele><time>2026-04-05T18:58:35Z</time></trkpt><trkpt lat="44.32358201293198" lon="12.037788954071445"><ele>11.0</ele><time>2026-04-05T18:58:36Z</time></trkpt><trkpt lat="44.32388176554972" lon="12.037801926427347"><ele>11.0</ele><time>2026-04-05T18:58:37Z</time></trkpt><trkpt lat="44.32417834360342" lon="12.037803725644972"><ele>10.5</ele><time>2026-04-05T18:58:38Z</time></trkpt><trkpt lat="44.32448025042917" lon="12.037799399351368"><ele>10.0</ele><time>2026-04-05T18:58:39Z</time></trkpt><trkpt lat="44.32478106341929" lon="12.037795714674953"><ele>9.5</ele><time>2026-04-05T18:58:40Z</time></trkpt><trkpt lat="44.32507996080227" lon="12.03779566114062"><ele>9.0</ele><time>2026-04-05T18:58:41Z</time></trkpt><trkpt lat="44.32537685908753" lon="12.037793795006678"><ele>9.5</ele><time>2026-04-05T18:58:42Z</time></trkpt><trkpt lat="44.32567420289312" lon="12.037785828565635"><ele>10.0</ele><time>2026-04-05T18:58:43Z</time></trkpt><trkpt lat="44.32596892852265" lon="12.03777005097657"><ele>10.0</ele><time>2026-04-05T18:58:44Z</time></trkpt><trkpt lat="44.326258411972226" lon="12.037742277607721"><ele>10.0</ele><time>2026-04-05T18:58:45Z</time></trkpt><trkpt lat="44.32652816229794" lon="12.037704030802791"><ele>10.5</ele><time>2026-04-05T18:58:46Z</time></trkpt><trkpt lat="44.3267796528749" lon="12.037654407019218"><ele>11.0</ele><time>2026-04-05T18:58:47Z</time></trkpt><trkpt lat="44.32702993740909" lon="12.037586887379035"><ele>11.0</ele><time>2026-04-05T18:58:48Z</time></trkpt><trkpt lat="44.32727832324719" lon="12.03748115737814"><ele>11.0</ele><time>2026-04-05T18:58:49Z</time></trkpt><trkpt lat="44.327511154549725" lon="12.037345160509235"><ele>10.5</ele><time>2026-04-05T18:58:50Z</time></trkpt><trkpt lat="44.32772248580397" lon="12.03715845189497"><ele>10.0</ele><time>2026-04-05T18:58:51Z</time></trkpt><trkpt lat="44.32791159712588" lon="12.036929891128613"><ele>10.0</ele><time>2026-04-05T18:58:52Z</time></trkpt><trkpt lat="44.328067317049914" lon="12.036656317525587"><ele>10.0</ele><time>2026-04-05T18:58:53Z</time></trkpt><trkpt lat="44.32819677591947" lon="12.036338084489012"><ele>10.0</ele><time>2026-04-05T18:58:54Z</time></trkpt><trkpt lat="44.32831137228955" lon="12.035995231635209"><ele>10.0</ele><time>2026-04-05T18:58:55Z</time></trkpt><trkpt lat="44.32842103796774" lon="12.035636866532137"><ele>10.5</ele><time>2026-04-05T18:58:56Z</time></trkpt><trkpt lat="44.328537403178736" lon="12.0352788755105"><ele>11.0</ele><time>2026-04-05T18:58:57Z</time></trkpt><trkpt lat="44.32865668452141" lon="12.034929207102312"><ele>11.0</ele><time>2026-04-05T18:58:58Z</time></trkpt><trkpt lat="44.328776725501164" lon="12.034582137044069"><ele>11.0</ele><time>2026-04-05T18:58:59Z</time></trkpt><trkpt lat="44.328888455875536" lon="12.034247446848989"><ele>11.5</ele><time>2026-04-05T18:59:00Z</time></trkpt><trkpt lat="44.328992172161335" lon="12.033902843308788"><ele>12.0</ele><time>2026-04-05T18:59:01Z</time></trkpt><trkpt lat="44.32910848554599" lon="12.0335319391905"><ele>12.0</ele><time>2026-04-05T18:59:02Z</time></trkpt><trkpt lat="44.32924799734152" lon="12.033165314644691"><ele>12.0</ele><time>2026-04-05T18:59:03Z</time></trkpt><trkpt lat="44.32940037933634" lon="12.0328088385912"><ele>12.0</ele><time>2026-04-05T18:59:04Z</time></trkpt><trkpt lat="44.32954492280212" lon="12.032454057899105"><ele>12.0</ele><time>2026-04-05T18:59:04.999Z</time></trkpt><trkpt lat="44.329682060007954" lon="12.032112156207239"><ele>12.0</ele><time>2026-04-05T18:59:05.999Z</time></trkpt><trkpt lat="44.329828333218906" lon="12.031789735322292"><ele>12.0</ele><time>2026-04-05T18:59:06.999Z</time></trkpt><trkpt lat="44.32999280352315" lon="12.031494964935458"><ele>13.5</ele><time>2026-04-05T18:59:07.999Z</time></trkpt><trkpt lat="44.33016800543693" lon="12.031203633120338"><ele>15.0</ele><time>2026-04-05T18:59:08.999Z</time></trkpt><trkpt lat="44.33034409504342" lon="12.030904910077673"><ele>13.5</ele><time>2026-04-05T18:59:09.999Z</time></trkpt><trkpt lat="44.33053066164892" lon="12.03057326817272"><ele>12.0</ele><time>2026-04-05T18:59:10.999Z</time></trkpt><trkpt lat="44.33072294149237" lon="12.030230532827428"><ele>11.0</ele><time>2026-04-05T18:59:11.999Z</time></trkpt><trkpt lat="44.33093191635236" lon="12.02988486975753"><ele>10.0</ele><time>2026-04-05T18:59:12.999Z</time></trkpt><trkpt lat="44.33116047342933" lon="12.029554147505957"><ele>10.0</ele><time>2026-04-05T18:59:13.999Z</time></trkpt><trkpt lat="44.3314146422613" lon="12.029220993559537"><ele>10.0</ele><time>2026-04-05T18:59:14.999Z</time></trkpt><trkpt lat="44.33167958844003" lon="12.028894209677118"><ele>9.5</ele><time>2026-04-05T18:59:15.999Z</time></trkpt><trkpt lat="44.33195404543013" lon="12.028567076738836"><ele>9.0</ele><time>2026-04-05T18:59:16.999Z</time></trkpt><trkpt lat="44.332231201444735" lon="12.028248605903078"><ele>8.5</ele><time>2026-04-05T18:59:17.999Z</time></trkpt><trkpt lat="44.33250703368838" lon="12.027925446534468"><ele>8.0</ele><time>2026-04-05T18:59:18.999Z</time></trkpt><trkpt lat="44.332773780414406" lon="12.027608364071726"><ele>8.5</ele><time>2026-04-05T18:59:19.999Z</time></trkpt><trkpt lat="44.33304030718114" lon="12.02729214359427"><ele>9.0</ele><time>2026-04-05T18:59:20.999Z</time></trkpt><trkpt lat="44.33330057963012" lon="12.026983769357551"><ele>9.5</ele><time>2026-04-05T18:59:21.999Z</time></trkpt><trkpt lat="44.33356205176688" lon="12.026677282049334"><ele>10.0</ele><time>2026-04-05T18:59:22.999Z</time></trkpt><trkpt lat="44.333826591440065" lon="12.026368310955402"><ele>10.0</ele><time>2026-04-05T18:59:23.999Z</time></trkpt><trkpt lat="44.33408796224639" lon="12.026060141529863"><ele>10.0</ele><time>2026-04-05T18:59:24.999Z</time></trkpt><trkpt lat="44.334355895561174" lon="12.02574386142751"><ele>10.0</ele><time>2026-04-05T18:59:25.999Z</time></trkpt><trkpt lat="44.33461505362138" lon="12.025440351218041"><ele>10.0</ele><time>2026-04-05T18:59:26.999Z</time></trkpt><trkpt lat="44.33488181646004" lon="12.025126790265562"><ele>9.5</ele><time>2026-04-05T18:59:27.999Z</time></trkpt><trkpt lat="44.33514527333833" lon="12.024816255334827"><ele>9.0</ele><time>2026-04-05T18:59:28.999Z</time></trkpt><trkpt lat="44.33540952822617" lon="12.02450547113797"><ele>9.5</ele><time>2026-04-05T18:59:29.999Z</time></trkpt><trkpt lat="44.33567637211974" lon="12.024192668310464"><ele>10.0</ele><time>2026-04-05T18:59:30.999Z</time></trkpt><trkpt lat="44.335936075284174" lon="12.023887708587065"><ele>10.0</ele><time>2026-04-05T18:59:31.999Z</time></trkpt><trkpt lat="44.33619773400296" lon="12.023579568483669"><ele>10.0</ele><time>2026-04-05T18:59:32.999Z</time></trkpt><trkpt lat="44.33645753872566" lon="12.023271725179143"><ele>9.5</ele><time>2026-04-05T18:59:33.999Z</time></trkpt><trkpt lat="44.336717560286615" lon="12.022961207327635"><ele>9.0</ele><time>2026-04-05T18:59:34.999Z</time></trkpt><trkpt lat="44.33698115628591" lon="12.022650021465338"><ele>8.5</ele><time>2026-04-05T18:59:35.999Z</time></trkpt><trkpt lat="44.33724826790938" lon="12.022338151289011"><ele>8.0</ele><time>2026-04-05T18:59:36.999Z</time></trkpt><trkpt lat="44.33750901247266" lon="12.022031109149916"><ele>8.0</ele><time>2026-04-05T18:59:37.999Z</time></trkpt><trkpt lat="44.337759854929764" lon="12.021738995773452"><ele>8.0</ele><time>2026-04-05T18:59:38.999Z</time></trkpt><trkpt lat="44.33800291119586" lon="12.021458347757637"><ele>8.0</ele><time>2026-04-05T18:59:39.999Z</time></trkpt><trkpt lat="44.338246122362165" lon="12.021174699677443"><ele>8.0</ele><time>2026-04-05T18:59:40.999Z</time></trkpt><trkpt lat="44.33844163296636" lon="12.020918953260168"><ele>8.0</ele><time>2026-04-05T18:59:41.999Z</time></trkpt><trkpt lat="44.338735799333605" lon="12.020600980749412"><ele>8.0</ele><time>2026-04-05T18:59:42.999Z</time></trkpt><trkpt lat="44.33897503655802" lon="12.020319480643195"><ele>8.0</ele><time>2026-04-05T18:59:43.999Z</time></trkpt><trkpt lat="44.339210234383955" lon="12.020042632140594"><ele>8.0</ele><time>2026-04-05T18:59:44.999Z</time></trkpt><trkpt lat="44.33944567459986" lon="12.019765599364966"><ele>8.0</ele><time>2026-04-05T18:59:45.999Z</time></trkpt><trkpt lat="44.33967715495017" lon="12.019489403619916"><ele>8.0</ele><time>2026-04-05T18:59:46.999Z</time></trkpt><trkpt lat="44.33990600827558" lon="12.019216296564498"><ele>9.0</ele><time>2026-04-05T18:59:47.999Z</time></trkpt><trkpt lat="44.3401344305944" lon="12.018945971511549"><ele>10.0</ele><time>2026-04-05T18:59:48.999Z</time></trkpt><trkpt lat="44.34036006623802" lon="12.018678104596127"><ele>10.0</ele><time>2026-04-05T18:59:49.999Z</time></trkpt><trkpt lat="44.340581665895954" lon="12.01841424767108"><ele>10.0</ele><time>2026-04-05T18:59:50.999Z</time></trkpt><trkpt lat="44.34080438505476" lon="12.018171390556837"><ele>10.5</ele><time>2026-04-05T18:59:51.999Z</time></trkpt><trkpt lat="44.34101842652715" lon="12.017933772222664"><ele>11.0</ele><time>2026-04-05T18:59:52.999Z</time></trkpt><trkpt lat="44.34124166269062" lon="12.017723770338387"><ele>11.5</ele><time>2026-04-05T18:59:53.999Z</time></trkpt><trkpt lat="44.34147922359202" lon="12.01754683215027"><ele>12.0</ele><time>2026-04-05T18:59:54.999Z</time></trkpt><trkpt lat="44.3417341659394" lon="12.0173942100033"><ele>11.0</ele><time>2026-04-05T18:59:55.999Z</time></trkpt><trkpt lat="44.3419985285542" lon="12.017283809530095"><ele>10.0</ele><time>2026-04-05T18:59:56.999Z</time></trkpt><trkpt lat="44.342266976120655" lon="12.017204920343818"><ele>10.0</ele><time>2026-04-05T18:59:57.999Z</time></trkpt><trkpt lat="44.342518890255334" lon="12.017136620174547"><ele>10.0</ele><time>2026-04-05T18:59:58.999Z</time></trkpt><trkpt lat="44.34275715349682" lon="12.017072342499432"><ele>10.0</ele><time>2026-04-05T18:59:59.999Z</time></trkpt><trkpt lat="44.34297772570505" lon="12.017012837639502"><ele>10.0</ele><time>2026-04-05T19:00:00.999Z</time></trkpt><trkpt lat="44.34318236385693" lon="12.016951161597985"><ele>10.0</ele><time>2026-04-05T19:00:01.999Z</time></trkpt><trkpt lat="44.34336467305972" lon="12.016855136197933"><ele>10.333333333333334</ele><time>2026-04-05T19:00:02.999Z</time></trkpt><trkpt lat="44.34354098900957" lon="12.016758697988319"><ele>10.666666666666666</ele><time>2026-04-05T19:00:03.999Z</time></trkpt><trkpt lat="44.343720452834766" lon="12.016623455844238"><ele>11.0</ele><time>2026-04-05T19:00:04.999Z</time></trkpt><trkpt lat="44.34389728528525" lon="12.016450466987836"><ele>11.333333333333332</ele><time>2026-04-05T19:00:06Z</time></trkpt><trkpt lat="44.344086908541314" lon="12.016288434279568"><ele>11.666666666666666</ele><time>2026-04-05T19:00:07Z</time></trkpt><trkpt lat="44.344273715510795" lon="12.016128346133913"><ele>12.0</ele><time>2026-04-05T19:00:08Z</time></trkpt><trkpt lat="44.3444660201367" lon="12.01596483352934"><ele>11.5</ele><time>2026-04-05T19:00:09Z</time></trkpt><trkpt lat="44.344664030204584" lon="12.015786876007342"><ele>11.0</ele><time>2026-04-05T19:00:10Z</time></trkpt><trkpt lat="44.344868111321134" lon="12.015609875015167"><ele>10.0</ele><time>2026-04-05T19:00:11Z</time></trkpt><trkpt lat="44.34507185529633" lon="12.01542690728374"><ele>9.0</ele><time>2026-04-05T19:00:12Z</time></trkpt><trkpt lat="44.34526888838857" lon="12.015226531571763"><ele>9.0</ele><time>2026-04-05T19:00:13Z</time></trkpt><trkpt lat="44.34546161845787" lon="12.015000872316191"><ele>9.0</ele><time>2026-04-05T19:00:14Z</time></trkpt><trkpt lat="44.345676368082586" lon="12.014803935062806"><ele>9.5</ele><time>2026-04-05T19:00:15Z</time></trkpt><trkpt lat="44.34580260052111" lon="12.014433793593453"><ele>10.0</ele><time>2026-04-05T19:00:16Z</time></trkpt><trkpt lat="44.34594627769511" lon="12.014083177439488"><ele>10.0</ele><time>2026-04-05T19:00:17Z</time></trkpt><trkpt lat="44.34607943735155" lon="12.013717844000286"><ele>10.0</ele><time>2026-04-05T19:00:18Z</time></trkpt><trkpt lat="44.34623322524663" lon="12.013335543359094"><ele>9.5</ele><time>2026-04-05T19:00:19Z</time></trkpt><trkpt lat="44.34639420798103" lon="12.012952678069572"><ele>9.0</ele><time>2026-04-05T19:00:20Z</time></trkpt><trkpt lat="44.34656397742282" lon="12.012539170487706"><ele>9.0</ele><time>2026-04-05T19:00:21Z</time></trkpt><trkpt lat="44.34677706293148" lon="12.012051489349071"><ele>9.0</ele><time>2026-04-05T19:00:22Z</time></trkpt><trkpt lat="44.346891640178754" lon="12.01177551442591"><ele>9.5</ele><time>2026-04-05T19:00:23Z</time></trkpt><trkpt lat="44.347059819370806" lon="12.011364879422807"><ele>10.0</ele><time>2026-04-05T19:00:24Z</time></trkpt><trkpt lat="44.347229633217474" lon="12.010956618700343"><ele>10.5</ele><time>2026-04-05T19:00:25Z</time></trkpt><trkpt lat="44.34740172242205" lon="12.010550320582693"><ele>11.0</ele><time>2026-04-05T19:00:26Z</time></trkpt><trkpt lat="44.34757049844374" lon="12.01015019045683"><ele>10.5</ele><time>2026-04-05T19:00:27Z</time></trkpt><trkpt lat="44.347738898062126" lon="12.009748794389221"><ele>10.0</ele><time>2026-04-05T19:00:28Z</time></trkpt><trkpt lat="44.347910830104794" lon="12.009341140013438"><ele>10.5</ele><time>2026-04-05T19:00:29Z</time></trkpt><trkpt lat="44.348081986222134" lon="12.008933520941596"><ele>11.0</ele><time>2026-04-05T19:00:30Z</time></trkpt><trkpt lat="44.34824565099212" lon="12.00853844107306"><ele>10.5</ele><time>2026-04-05T19:00:31Z</time></trkpt><trkpt lat="44.34840109710661" lon="12.008178037269458"><ele>10.0</ele><time>2026-04-05T19:00:32Z</time></trkpt><trkpt lat="44.348542597900476" lon="12.00784934244923"><ele>10.0</ele><time>2026-04-05T19:00:33Z</time></trkpt><trkpt lat="44.3486696396769" lon="12.007558340642976"><ele>10.0</ele><time>2026-04-05T19:00:34Z</time></trkpt><trkpt lat="44.34876966612539" lon="12.007317869107585"><ele>10.0</ele><time>2026-04-05T19:00:35Z</time></trkpt><trkpt lat="44.348857731941145" lon="12.007112899585605"><ele>10.0</ele><time>2026-04-05T19:00:36Z</time></trkpt><trkpt lat="44.3489489961906" lon="12.006941941955098"><ele>10.0</ele><time>2026-04-05T19:00:37Z</time></trkpt><trkpt lat="44.34905011816243" lon="12.006799961899002"><ele>10.0</ele><time>2026-04-05T19:00:38Z</time></trkpt><trkpt lat="44.3491658270845" lon="12.00667894523436"><ele>10.0</ele><time>2026-04-05T19:00:39Z</time></trkpt><trkpt lat="44.34929532395471" lon="12.006603701685965"><ele>10.0</ele><time>2026-04-05T19:00:40Z</time></trkpt><trkpt lat="44.34944121920404" lon="12.006591685076826"><ele>10.0</ele><time>2026-04-05T19:00:41Z</time></trkpt><trkpt lat="44.34960122377835" lon="12.006649307039432"><ele>10.0</ele><time>2026-04-05T19:00:42Z</time></trkpt><trkpt lat="44.34976285735864" lon="12.006756004356536"><ele>10.333333333333334</ele><time>2026-04-05T19:00:43Z</time></trkpt><trkpt lat="44.3499357758645" lon="12.006878088359938"><ele>10.666666666666666</ele><time>2026-04-05T19:00:44Z</time></trkpt><trkpt lat="44.35012487879791" lon="12.006990808229554"><ele>11.0</ele><time>2026-04-05T19:00:45Z</time></trkpt><trkpt lat="44.350347942348904" lon="12.007155449562847"><ele>11.5</ele><time>2026-04-05T19:00:46Z</time></trkpt><trkpt lat="44.350558726058175" lon="12.007273398587198"><ele>12.0</ele><time>2026-04-05T19:00:47Z</time></trkpt><trkpt lat="44.350769241335165" lon="12.007399953744121"><ele>12.0</ele><time>2026-04-05T19:00:48Z</time></trkpt><trkpt lat="44.35098728534373" lon="12.007529883182068"><ele>12.0</ele><time>2026-04-05T19:00:49Z</time></trkpt><trkpt lat="44.35123005360501" lon="12.007662411795518"><ele>12.0</ele><time>2026-04-05T19:00:50Z</time></trkpt><trkpt lat="44.35150023344561" lon="12.007828653553942"><ele>12.0</ele><time>2026-04-05T19:00:51Z</time></trkpt><trkpt lat="44.35177995061423" lon="12.008004883980096"><ele>12.0</ele><time>2026-04-05T19:00:52Z</time></trkpt><trkpt lat="44.35206704388917" lon="12.008197337878086"><ele>12.0</ele><time>2026-04-05T19:00:53Z</time></trkpt><trkpt lat="44.3523472444207" lon="12.008398704560513"><ele>11.0</ele><time>2026-04-05T19:00:54Z</time></trkpt><trkpt lat="44.352610980887114" lon="12.008575673762653"><ele>10.0</ele><time>2026-04-05T19:00:55Z</time></trkpt><trkpt lat="44.3528762884263" lon="12.008750895663722"><ele>11.0</ele><time>2026-04-05T19:00:56Z</time></trkpt><trkpt lat="44.35314543808028" lon="12.008926106358137"><ele>12.0</ele><time>2026-04-05T19:00:57Z</time></trkpt><trkpt lat="44.353415477905926" lon="12.00910685424712"><ele>12.0</ele><time>2026-04-05T19:00:58Z</time></trkpt><trkpt lat="44.353680768935895" lon="12.009283846816293"><ele>12.0</ele><time>2026-04-05T19:00:59Z</time></trkpt><trkpt lat="44.35394896198084" lon="12.009459378028268"><ele>12.0</ele><time>2026-04-05T19:00:59.999Z</time></trkpt><trkpt lat="44.35421791112932" lon="12.009630433298483"><ele>12.0</ele><time>2026-04-05T19:01:00.999Z</time></trkpt><trkpt lat="44.35449304212703" lon="12.009797060535039"><ele>11.5</ele><time>2026-04-05T19:01:01.999Z</time></trkpt><trkpt lat="44.35476625699977" lon="12.009961349595061"><ele>11.0</ele><time>2026-04-05T19:01:02.999Z</time></trkpt><trkpt lat="44.35502952361385" lon="12.01012432684412"><ele>10.5</ele><time>2026-04-05T19:01:03.999Z</time></trkpt><trkpt lat="44.35529499086616" lon="12.010284939067306"><ele>10.0</ele><time>2026-04-05T19:01:04.999Z</time></trkpt><trkpt lat="44.355571276720774" lon="12.010449675530767"><ele>9.5</ele><time>2026-04-05T19:01:05.999Z</time></trkpt><trkpt lat="44.3558467906015" lon="12.010612149130568"><ele>9.0</ele><time>2026-04-05T19:01:06.999Z</time></trkpt><trkpt lat="44.35612630256895" lon="12.010777190559988"><ele>9.5</ele><time>2026-04-05T19:01:07.999Z</time></trkpt><trkpt lat="44.35641001606361" lon="12.010943156753862"><ele>10.0</ele><time>2026-04-05T19:01:08.999Z</time></trkpt><trkpt lat="44.35670039667199" lon="12.011113935663262"><ele>10.0</ele><time>2026-04-05T19:01:09.999Z</time></trkpt><trkpt lat="44.356995067532075" lon="12.011294548680306"><ele>10.0</ele><time>2026-04-05T19:01:10.999Z</time></trkpt><trkpt lat="44.35733724578379" lon="12.011521844925513"><ele>9.5</ele><time>2026-04-05T19:01:11.999Z</time></trkpt><trkpt lat="44.35771058900713" lon="12.011756053023664"><ele>9.0</ele><time>2026-04-05T19:01:12.999Z</time></trkpt><trkpt lat="44.357863444630276" lon="12.011836921569138"><ele>9.5</ele><time>2026-04-05T19:01:13.999Z</time></trkpt><trkpt lat="44.35813346244033" lon="12.012015334663696"><ele>10.0</ele><time>2026-04-05T19:01:14.999Z</time></trkpt><trkpt lat="44.358385775249836" lon="12.012192612265409"><ele>10.0</ele><time>2026-04-05T19:01:15.999Z</time></trkpt><trkpt lat="44.35864320169982" lon="12.012394115143925"><ele>10.0</ele><time>2026-04-05T19:01:16.999Z</time></trkpt><trkpt lat="44.35890226952327" lon="12.012614704173107"><ele>10.0</ele><time>2026-04-05T19:01:17.999Z</time></trkpt><trkpt lat="44.359163311654626" lon="12.01283525088618"><ele>10.0</ele><time>2026-04-05T19:01:18.999Z</time></trkpt><trkpt lat="44.3594211430502" lon="12.01305908729416"><ele>10.0</ele><time>2026-04-05T19:01:19.999Z</time></trkpt><trkpt lat="44.35967951178848" lon="12.01328039323707"><ele>10.0</ele><time>2026-04-05T19:01:20.999Z</time></trkpt><trkpt lat="44.35993633040911" lon="12.01350176259088"><ele>10.5</ele><time>2026-04-05T19:01:21.999Z</time></trkpt><trkpt lat="44.36019576876274" lon="12.013720270721844"><ele>11.0</ele><time>2026-04-05T19:01:22.999Z</time></trkpt><trkpt lat="44.36045682257668" lon="12.013937556160617"><ele>11.0</ele><time>2026-04-05T19:01:23.999Z</time></trkpt><trkpt lat="44.36072489418699" lon="12.014160137718887"><ele>11.0</ele><time>2026-04-05T19:01:24.999Z</time></trkpt><trkpt lat="44.36099197510383" lon="12.014387172693134"><ele>11.0</ele><time>2026-04-05T19:01:25.999Z</time></trkpt><trkpt lat="44.36125930714262" lon="12.014623156568932"><ele>11.0</ele><time>2026-04-05T19:01:26.999Z</time></trkpt><trkpt lat="44.36152882120542" lon="12.014856092484035"><ele>10.5</ele><time>2026-04-05T19:01:27.999Z</time></trkpt><trkpt lat="44.36179889022876" lon="12.015090563342234"><ele>10.0</ele><time>2026-04-05T19:01:28.999Z</time></trkpt><trkpt lat="44.36207130424281" lon="12.015318806167805"><ele>11.0</ele><time>2026-04-05T19:01:29.999Z</time></trkpt><trkpt lat="44.36234130305981" lon="12.01554292324357"><ele>12.0</ele><time>2026-04-05T19:01:30.999Z</time></trkpt><trkpt lat="44.36258810136129" lon="12.015789918421714"><ele>12.5</ele><time>2026-04-05T19:01:31.999Z</time></trkpt><trkpt lat="44.36281835797747" lon="12.016040168082137"><ele>13.0</ele><time>2026-04-05T19:01:32.999Z</time></trkpt><trkpt lat="44.36301865742842" lon="12.016312636400572"><ele>12.5</ele><time>2026-04-05T19:01:33.999Z</time></trkpt><trkpt lat="44.36320345018261" lon="12.016619660194898"><ele>12.0</ele><time>2026-04-05T19:01:34.999Z</time></trkpt><trkpt lat="44.36339425034166" lon="12.016948678744"><ele>12.0</ele><time>2026-04-05T19:01:35.999Z</time></trkpt><trkpt lat="44.36358640528013" lon="12.017293248390361"><ele>12.0</ele><time>2026-04-05T19:01:36.999Z</time></trkpt><trkpt lat="44.36378853582963" lon="12.0176465940808"><ele>11.5</ele><time>2026-04-05T19:01:37.999Z</time></trkpt><trkpt lat="44.36399121264163" lon="12.018002944683616"><ele>11.0</ele><time>2026-04-05T19:01:38.999Z</time></trkpt><trkpt lat="44.36419873982671" lon="12.018339068410354"><ele>11.0</ele><time>2026-04-05T19:01:39.999Z</time></trkpt><trkpt lat="44.36439117590437" lon="12.01868145576125"><ele>11.0</ele><time>2026-04-05T19:01:40.999Z</time></trkpt><trkpt lat="44.36458265207075" lon="12.019027756078621"><ele>11.0</ele><time>2026-04-05T19:01:41.999Z</time></trkpt><trkpt lat="44.364777009757226" lon="12.0193688957529"><ele>11.0</ele><time>2026-04-05T19:01:42.999Z</time></trkpt><trkpt lat="44.364961064387266" lon="12.019696786238995"><ele>11.0</ele><time>2026-04-05T19:01:43.999Z</time></trkpt><trkpt lat="44.36513905699192" lon="12.0200056604845"><ele>11.0</ele><time>2026-04-05T19:01:44.999Z</time></trkpt><trkpt lat="44.36531912441797" lon="12.020318660965428"><ele>11.0</ele><time>2026-04-05T19:01:45.999Z</time></trkpt><trkpt lat="44.36550062303271" lon="12.020625592630774"><ele>11.0</ele><time>2026-04-05T19:01:46.999Z</time></trkpt><trkpt lat="44.36567199520911" lon="12.020920809083865"><ele>11.0</ele><time>2026-04-05T19:01:47.999Z</time></trkpt><trkpt lat="44.365830400269346" lon="12.02119098160476"><ele>11.0</ele><time>2026-04-05T19:01:48.999Z</time></trkpt><trkpt lat="44.36597271232884" lon="12.021444862187208"><ele>10.666666666666666</ele><time>2026-04-05T19:01:49.999Z</time></trkpt><trkpt lat="44.3661011527485" lon="12.02167861038153"><ele>10.333333333333334</ele><time>2026-04-05T19:01:50.999Z</time></trkpt><trkpt lat="44.366218940531475" lon="12.0218947538216"><ele>10.0</ele><time>2026-04-05T19:01:51.999Z</time></trkpt><trkpt lat="44.366332749463766" lon="12.02209901506101"><ele>10.666666666666668</ele><time>2026-04-05T19:01:52.999Z</time></trkpt><trkpt lat="44.366445933318495" lon="12.02229445757763"><ele>11.333333333333334</ele><time>2026-04-05T19:01:53.999Z</time></trkpt><trkpt lat="44.36655239937554" lon="12.022475724454427"><ele>12.0</ele><time>2026-04-05T19:01:54.999Z</time></trkpt><trkpt lat="44.36665561949315" lon="12.022654343958571"><ele>12.0</ele><time>2026-04-05T19:01:55.999Z</time></trkpt><trkpt lat="44.366755837791864" lon="12.022831187447045"><ele>12.0</ele><time>2026-04-05T19:01:56.999Z</time></trkpt><trkpt lat="44.36684937574773" lon="12.022988032018091"><ele>12.0</ele><time>2026-04-05T19:01:57.999Z</time></trkpt><trkpt lat="44.366937556775085" lon="12.023139054678984"><ele>12.0</ele><time>2026-04-05T19:01:58.999Z</time></trkpt><trkpt lat="44.367025680258294" lon="12.023279832672676"><ele>11.0</ele><time>2026-04-05T19:01:59.999Z</time></trkpt><trkpt lat="44.367112618559794" lon="12.02341984200289"><ele>10.0</ele><time>2026-04-05T19:02:00.999Z</time></trkpt><trkpt lat="44.367195673104504" lon="12.023550422621728"><ele>9.0</ele><time>2026-04-05T19:02:01.999Z</time></trkpt><trkpt lat="44.367259833581926" lon="12.023678021567381"><ele>8.0</ele><time>2026-04-05T19:02:02.999Z</time></trkpt><trkpt lat="44.36728022987938" lon="12.023813599145058"><ele>7.833333333333333</ele><time>2026-04-05T19:02:03.999Z</time></trkpt><trkpt lat="44.36729356618491" lon="12.02395426421947"><ele>7.666666666666666</ele><time>2026-04-05T19:02:04.999Z</time></trkpt><trkpt lat="44.36731312615751" lon="12.024057691019486"><ele>7.5</ele><time>2026-04-05T19:02:05.999Z</time></trkpt><trkpt lat="44.36735529716899" lon="12.024136288886094"><ele>7.333333333333334</ele><time>2026-04-05T19:02:06.999Z</time></trkpt><trkpt lat="44.36743101102961" lon="12.024146447912168"><ele>7.166666666666667</ele><time>2026-04-05T19:02:07.999Z</time></trkpt><trkpt lat="44.36750950710526" lon="12.024118117969707"><ele>7.0</ele><time>2026-04-05T19:02:08.999Z</time></trkpt><trkpt lat="44.367585414465744" lon="12.02402883947849"><ele>7.0</ele><time>2026-04-05T19:02:09.999Z</time></trkpt><trkpt lat="44.36766331452108" lon="12.023888947070006"><ele>7.0</ele><time>2026-04-05T19:02:10.999Z</time></trkpt><trkpt lat="44.36774959383169" lon="12.023727473794656"><ele>7.0</ele><time>2026-04-05T19:02:12Z</time></trkpt><trkpt lat="44.36784608824533" lon="12.023568469118075"><ele>7.0</ele><time>2026-04-05T19:02:13Z</time></trkpt><trkpt lat="44.36793816339058" lon="12.023431982450546"><ele>7.199999999999999</ele><time>2026-04-05T19:02:14Z</time></trkpt><trkpt lat="44.368020487038635" lon="12.023310343629854"><ele>7.3999999999999995</ele><time>2026-04-05T19:02:15Z</time></trkpt><trkpt lat="44.36810166335569" lon="12.02320100601003"><ele>7.6000000000000005</ele><time>2026-04-05T19:02:16Z</time></trkpt><trkpt lat="44.3681735366102" lon="12.02309190548673"><ele>7.800000000000001</ele><time>2026-04-05T19:02:17Z</time></trkpt><trkpt lat="44.368250783945406" lon="12.023009744231004"><ele>8.0</ele><time>2026-04-05T19:02:18Z</time></trkpt><trkpt lat="44.368314300999366" lon="12.022918121800533"><ele>8.25</ele><time>2026-04-05T19:02:19Z</time></trkpt><trkpt lat="44.36836159251598" lon="12.022829839293486"><ele>8.5</ele><time>2026-04-05T19:02:20Z</time></trkpt><trkpt lat="44.36852065396197" lon="12.022888294189476"><ele>8.75</ele><time>2026-04-05T19:02:22Z</time></trkpt><trkpt lat="44.36858282950102" lon="12.023006185932326"><ele>9.0</ele><time>2026-04-05T19:02:23Z</time></trkpt><trkpt lat="44.368665138738415" lon="12.023099979677667"><ele>9.0</ele><time>2026-04-05T19:02:24Z</time></trkpt><trkpt lat="44.368735951242755" lon="12.023212674247882"><ele>9.0</ele><time>2026-04-05T19:02:25Z</time></trkpt><trkpt lat="44.36880516031822" lon="12.02331563806005"><ele>9.0</ele><time>2026-04-05T19:02:26Z</time></trkpt><trkpt lat="44.368869408783716" lon="12.023384679648174"><ele>9.0</ele><time>2026-04-05T19:02:27Z</time></trkpt><trkpt lat="44.36890890320208" lon="12.023460559447347"><ele>9.0</ele><time>2026-04-05T19:02:28Z</time></trkpt><trkpt lat="44.36911437425653" lon="12.023307947507531"><ele>9.4</ele><time>2026-04-05T19:02:30Z</time></trkpt><trkpt lat="44.3691886375142" lon="12.023207520298536"><ele>9.8</ele><time>2026-04-05T19:02:31Z</time></trkpt><trkpt lat="44.36925218908635" lon="12.023088998655123"><ele>10.200000000000001</ele><time>2026-04-05T19:02:32Z</time></trkpt><trkpt lat="44.369313903810706" lon="12.022963644732402"><ele>10.600000000000001</ele><time>2026-04-05T19:02:33Z</time></trkpt><trkpt lat="44.369389025454254" lon="12.022868295270206"><ele>11.0</ele><time>2026-04-05T19:02:34Z</time></trkpt><trkpt lat="44.36943706648387" lon="12.022774025259649"><ele>11.0</ele><time>2026-04-05T19:02:35Z</time></trkpt><trkpt lat="44.369509474122225" lon="12.022756036803433"><ele>11.0</ele><time>2026-04-05T19:02:36Z</time></trkpt><trkpt lat="44.36960727145973" lon="12.022929594150515"><ele>11.0</ele><time>2026-04-05T19:02:38Z</time></trkpt><trkpt lat="44.36967503490094" lon="12.023024740850182"><ele>11.0</ele><time>2026-04-05T19:02:39Z</time></trkpt><trkpt lat="44.369757026447076" lon="12.023139865169725"><ele>11.0</ele><time>2026-04-05T19:02:40Z</time></trkpt><trkpt lat="44.3698408107688" lon="12.023257044129979"><ele>10.600000000000001</ele><time>2026-04-05T19:02:41Z</time></trkpt><trkpt lat="44.36991898732895" lon="12.02336491565314"><ele>10.200000000000001</ele><time>2026-04-05T19:02:42Z</time></trkpt><trkpt lat="44.36998677395806" lon="12.02345706395168"><ele>9.8</ele><time>2026-04-05T19:02:43Z</time></trkpt><trkpt lat="44.37004353371535" lon="12.023531954457773"><ele>9.4</ele><time>2026-04-05T19:02:44Z</time></trkpt><trkpt lat="44.370124201305586" lon="12.023638389688076"><ele>9.0</ele><time>2026-04-05T19:02:46Z</time></trkpt><trkpt lat="44.3701770330848" lon="12.02370032410347"><ele>9.0</ele><time>2026-04-05T19:02:48Z</time></trkpt><trkpt lat="44.37021853593574" lon="12.023807333526397"><ele>9.0</ele><time>2026-04-05T19:02:50Z</time></trkpt><trkpt lat="44.37015546265408" lon="12.023723526900996"><ele>9.0</ele><time>2026-04-05T19:03:44.999Z</time></trkpt><trkpt lat="44.36999097590006" lon="12.023831892337753"><ele>9.0</ele><time>2026-04-05T19:06:14.999Z</time></trkpt><trkpt lat="44.37005453364576" lon="12.023776142025085"><ele>9.0</ele><time>2026-04-05T19:07:52.999Z</time></trkpt></trkseg></trk></gpx>